<?xml version="1.0" encoding="UTF-8"?>
<gpx version="1.1" creator="https://www.www-youtrack-es.amenigma.com" xsi:schemaLocation="http://www.topografix.com/GPX/1/1 http://www.topografix.com/GPX/1/1/gpx.xsd http://www.garmin.com/xmlschemas/GpxExtensions/v3 http://www.garmin.com/xmlschemas/GpxExtensionsv3.xsd http://www.garmin.com/xmlschemas/TrackPointExtension/v1 http://www.garmin.com/xmlschemas/TrackPointExtensionv1.xsd" xmlns:gpxtpx="http://www.garmin.com/xmlschemas/TrackPointExtension/v1" xmlns:gpxx="http://www.garmin.com/xmlschemas/GpxExtensions/v3" xmlns:xsi="http://www.w3.org/2001/XMLSchema-instance">
  <metadata>
    <link href="https://www.www-youtrack-es.amenigma.com">
      <text>YouTrack.es</text>
    </link>
    <time>2026-09-01T07:35:53Z</time>
  </metadata>
  <trk>
    <src>https://www.www-youtrack-es.amenigma.com</src>
    <link href="https://www.www-youtrack-es.amenigma.com/ruta/7648-beceite">
      <text>YouTrack.es</text>
    </link>
    <trkseg>
      <trkpt lat="40.8413810" lon="0.1783200">
        <ele>486.0</ele>
        <time>2019-08-15T10:03:45Z</time>
      </trkpt>
      <trkpt lat="40.8413810" lon="0.1783200">
        <ele>486.0</ele>
        <time>2019-08-15T10:03:46Z</time>
      </trkpt>
      <trkpt lat="40.8413660" lon="0.1783320">
        <ele>486.0</ele>
        <time>2019-08-15T10:03:47Z</time>
      </trkpt>
      <trkpt lat="40.8413300" lon="0.1783450">
        <ele>486.0</ele>
        <time>2019-08-15T10:03:48Z</time>
      </trkpt>
      <trkpt lat="40.8413060" lon="0.1783600">
        <ele>487.0</ele>
        <time>2019-08-15T10:03:49Z</time>
      </trkpt>
      <trkpt lat="40.8412930" lon="0.1783720">
        <ele>487.0</ele>
        <time>2019-08-15T10:03:50Z</time>
      </trkpt>
      <trkpt lat="40.8412940" lon="0.1783900">
        <ele>487.0</ele>
        <time>2019-08-15T10:03:51Z</time>
      </trkpt>
      <trkpt lat="40.8413100" lon="0.1784340">
        <ele>487.0</ele>
        <time>2019-08-15T10:03:53Z</time>
      </trkpt>
      <trkpt lat="40.8413200" lon="0.1784600">
        <ele>487.0</ele>
        <time>2019-08-15T10:03:54Z</time>
      </trkpt>
      <trkpt lat="40.8413320" lon="0.1784900">
        <ele>486.0</ele>
        <time>2019-08-15T10:03:55Z</time>
      </trkpt>
      <trkpt lat="40.8413440" lon="0.1785560">
        <ele>486.0</ele>
        <time>2019-08-15T10:03:57Z</time>
      </trkpt>
      <trkpt lat="40.8413530" lon="0.1785870">
        <ele>486.0</ele>
        <time>2019-08-15T10:03:58Z</time>
      </trkpt>
      <trkpt lat="40.8413620" lon="0.1786200">
        <ele>486.0</ele>
        <time>2019-08-15T10:03:59Z</time>
      </trkpt>
      <trkpt lat="40.8413670" lon="0.1786560">
        <ele>486.0</ele>
        <time>2019-08-15T10:04:00Z</time>
      </trkpt>
      <trkpt lat="40.8413780" lon="0.1786860">
        <ele>486.0</ele>
        <time>2019-08-15T10:04:01Z</time>
      </trkpt>
      <trkpt lat="40.8413900" lon="0.1787190">
        <ele>486.0</ele>
        <time>2019-08-15T10:04:02Z</time>
      </trkpt>
      <trkpt lat="40.8414040" lon="0.1787530">
        <ele>486.0</ele>
        <time>2019-08-15T10:04:03Z</time>
      </trkpt>
      <trkpt lat="40.8414170" lon="0.1787870">
        <ele>486.0</ele>
        <time>2019-08-15T10:04:04Z</time>
      </trkpt>
      <trkpt lat="40.8414320" lon="0.1788220">
        <ele>486.0</ele>
        <time>2019-08-15T10:04:05Z</time>
      </trkpt>
      <trkpt lat="40.8414480" lon="0.1788600">
        <ele>486.0</ele>
        <time>2019-08-15T10:04:06Z</time>
      </trkpt>
      <trkpt lat="40.8414630" lon="0.1788990">
        <ele>486.0</ele>
        <time>2019-08-15T10:04:07Z</time>
      </trkpt>
      <trkpt lat="40.8414790" lon="0.1789380">
        <ele>486.0</ele>
        <time>2019-08-15T10:04:08Z</time>
      </trkpt>
      <trkpt lat="40.8414950" lon="0.1789800">
        <ele>486.0</ele>
        <time>2019-08-15T10:04:09Z</time>
      </trkpt>
      <trkpt lat="40.8415110" lon="0.1790230">
        <ele>486.0</ele>
        <time>2019-08-15T10:04:10Z</time>
      </trkpt>
      <trkpt lat="40.8415290" lon="0.1790660">
        <ele>486.0</ele>
        <time>2019-08-15T10:04:11Z</time>
      </trkpt>
      <trkpt lat="40.8415680" lon="0.1791510">
        <ele>486.0</ele>
        <time>2019-08-15T10:04:13Z</time>
      </trkpt>
      <trkpt lat="40.8415840" lon="0.1792020">
        <ele>486.0</ele>
        <time>2019-08-15T10:04:14Z</time>
      </trkpt>
      <trkpt lat="40.8415980" lon="0.1792540">
        <ele>486.0</ele>
        <time>2019-08-15T10:04:15Z</time>
      </trkpt>
      <trkpt lat="40.8416180" lon="0.1794300">
        <ele>486.0</ele>
        <time>2019-08-15T10:04:18Z</time>
      </trkpt>
      <trkpt lat="40.8416190" lon="0.1794940">
        <ele>486.0</ele>
        <time>2019-08-15T10:04:19Z</time>
      </trkpt>
      <trkpt lat="40.8416170" lon="0.1795580">
        <ele>486.0</ele>
        <time>2019-08-15T10:04:20Z</time>
      </trkpt>
      <trkpt lat="40.8415950" lon="0.1797730">
        <ele>486.0</ele>
        <time>2019-08-15T10:04:23Z</time>
      </trkpt>
      <trkpt lat="40.8415910" lon="0.1798030">
        <ele>486.0</ele>
        <time>2019-08-15T10:04:24Z</time>
      </trkpt>
      <trkpt lat="40.8415810" lon="0.1798650">
        <ele>486.0</ele>
        <time>2019-08-15T10:04:25Z</time>
      </trkpt>
      <trkpt lat="40.8415700" lon="0.1799300">
        <ele>486.0</ele>
        <time>2019-08-15T10:04:26Z</time>
      </trkpt>
      <trkpt lat="40.8415490" lon="0.1800630">
        <ele>486.0</ele>
        <time>2019-08-15T10:04:28Z</time>
      </trkpt>
      <trkpt lat="40.8415390" lon="0.1801290">
        <ele>486.0</ele>
        <time>2019-08-15T10:04:29Z</time>
      </trkpt>
      <trkpt lat="40.8415290" lon="0.1801940">
        <ele>485.0</ele>
        <time>2019-08-15T10:04:30Z</time>
      </trkpt>
      <trkpt lat="40.8415210" lon="0.1802590">
        <ele>485.0</ele>
        <time>2019-08-15T10:04:31Z</time>
      </trkpt>
      <trkpt lat="40.8415050" lon="0.1803920">
        <ele>485.0</ele>
        <time>2019-08-15T10:04:33Z</time>
      </trkpt>
      <trkpt lat="40.8414970" lon="0.1804600">
        <ele>485.0</ele>
        <time>2019-08-15T10:04:34Z</time>
      </trkpt>
      <trkpt lat="40.8414890" lon="0.1805270">
        <ele>485.0</ele>
        <time>2019-08-15T10:04:35Z</time>
      </trkpt>
      <trkpt lat="40.8414830" lon="0.1805960">
        <ele>485.0</ele>
        <time>2019-08-15T10:04:36Z</time>
      </trkpt>
      <trkpt lat="40.8414700" lon="0.1807400">
        <ele>485.0</ele>
        <time>2019-08-15T10:04:38Z</time>
      </trkpt>
      <trkpt lat="40.8414620" lon="0.1808150">
        <ele>485.0</ele>
        <time>2019-08-15T10:04:39Z</time>
      </trkpt>
      <trkpt lat="40.8414550" lon="0.1808890">
        <ele>485.0</ele>
        <time>2019-08-15T10:04:40Z</time>
      </trkpt>
      <trkpt lat="40.8414450" lon="0.1809620">
        <ele>485.0</ele>
        <time>2019-08-15T10:04:41Z</time>
      </trkpt>
      <trkpt lat="40.8414010" lon="0.1810980">
        <ele>485.0</ele>
        <time>2019-08-15T10:04:43Z</time>
      </trkpt>
      <trkpt lat="40.8413730" lon="0.1811620">
        <ele>485.0</ele>
        <time>2019-08-15T10:04:44Z</time>
      </trkpt>
      <trkpt lat="40.8413430" lon="0.1812250">
        <ele>485.0</ele>
        <time>2019-08-15T10:04:45Z</time>
      </trkpt>
      <trkpt lat="40.8413130" lon="0.1812870">
        <ele>485.0</ele>
        <time>2019-08-15T10:04:46Z</time>
      </trkpt>
      <trkpt lat="40.8412460" lon="0.1814000">
        <ele>485.0</ele>
        <time>2019-08-15T10:04:48Z</time>
      </trkpt>
      <trkpt lat="40.8412120" lon="0.1814550">
        <ele>485.0</ele>
        <time>2019-08-15T10:04:49Z</time>
      </trkpt>
      <trkpt lat="40.8411780" lon="0.1815070">
        <ele>485.0</ele>
        <time>2019-08-15T10:04:50Z</time>
      </trkpt>
      <trkpt lat="40.8411450" lon="0.1815590">
        <ele>485.0</ele>
        <time>2019-08-15T10:04:51Z</time>
      </trkpt>
      <trkpt lat="40.8410780" lon="0.1816650">
        <ele>485.0</ele>
        <time>2019-08-15T10:04:53Z</time>
      </trkpt>
      <trkpt lat="40.8410420" lon="0.1817170">
        <ele>485.0</ele>
        <time>2019-08-15T10:04:54Z</time>
      </trkpt>
      <trkpt lat="40.8410070" lon="0.1817710">
        <ele>485.0</ele>
        <time>2019-08-15T10:04:55Z</time>
      </trkpt>
      <trkpt lat="40.8409700" lon="0.1818270">
        <ele>485.0</ele>
        <time>2019-08-15T10:04:56Z</time>
      </trkpt>
      <trkpt lat="40.8408930" lon="0.1819410">
        <ele>485.0</ele>
        <time>2019-08-15T10:04:58Z</time>
      </trkpt>
      <trkpt lat="40.8408530" lon="0.1820050">
        <ele>485.0</ele>
        <time>2019-08-15T10:04:59Z</time>
      </trkpt>
      <trkpt lat="40.8408120" lon="0.1820740">
        <ele>485.0</ele>
        <time>2019-08-15T10:05:00Z</time>
      </trkpt>
      <trkpt lat="40.8407720" lon="0.1821450">
        <ele>485.0</ele>
        <time>2019-08-15T10:05:01Z</time>
      </trkpt>
      <trkpt lat="40.8406860" lon="0.1822870">
        <ele>485.0</ele>
        <time>2019-08-15T10:05:03Z</time>
      </trkpt>
      <trkpt lat="40.8406420" lon="0.1823570">
        <ele>485.0</ele>
        <time>2019-08-15T10:05:04Z</time>
      </trkpt>
      <trkpt lat="40.8405960" lon="0.1824230">
        <ele>485.0</ele>
        <time>2019-08-15T10:05:05Z</time>
      </trkpt>
      <trkpt lat="40.8405480" lon="0.1824880">
        <ele>485.0</ele>
        <time>2019-08-15T10:05:06Z</time>
      </trkpt>
      <trkpt lat="40.8404430" lon="0.1826200">
        <ele>484.0</ele>
        <time>2019-08-15T10:05:08Z</time>
      </trkpt>
      <trkpt lat="40.8403820" lon="0.1826400">
        <ele>484.0</ele>
        <time>2019-08-15T10:05:09Z</time>
      </trkpt>
      <trkpt lat="40.8403240" lon="0.1826430">
        <ele>484.0</ele>
        <time>2019-08-15T10:05:10Z</time>
      </trkpt>
      <trkpt lat="40.8402730" lon="0.1826340">
        <ele>484.0</ele>
        <time>2019-08-15T10:05:11Z</time>
      </trkpt>
      <trkpt lat="40.8401960" lon="0.1826200">
        <ele>484.0</ele>
        <time>2019-08-15T10:05:13Z</time>
      </trkpt>
      <trkpt lat="40.8401890" lon="0.1826160">
        <ele>484.0</ele>
        <time>2019-08-15T10:05:14Z</time>
      </trkpt>
      <trkpt lat="40.8401750" lon="0.1826090">
        <ele>484.0</ele>
        <time>2019-08-15T10:05:15Z</time>
      </trkpt>
      <trkpt lat="40.8401680" lon="0.1826060">
        <ele>484.0</ele>
        <time>2019-08-15T10:05:16Z</time>
      </trkpt>
      <trkpt lat="40.8401570" lon="0.1826440">
        <ele>484.0</ele>
        <time>2019-08-15T10:05:29Z</time>
      </trkpt>
      <trkpt lat="40.8401580" lon="0.1826680">
        <ele>484.0</ele>
        <time>2019-08-15T10:05:31Z</time>
      </trkpt>
      <trkpt lat="40.8401650" lon="0.1827450">
        <ele>484.0</ele>
        <time>2019-08-15T10:05:34Z</time>
      </trkpt>
      <trkpt lat="40.8401660" lon="0.1827740">
        <ele>484.0</ele>
        <time>2019-08-15T10:05:35Z</time>
      </trkpt>
      <trkpt lat="40.8401630" lon="0.1828030">
        <ele>484.0</ele>
        <time>2019-08-15T10:05:36Z</time>
      </trkpt>
      <trkpt lat="40.8401670" lon="0.1828360">
        <ele>484.0</ele>
        <time>2019-08-15T10:05:37Z</time>
      </trkpt>
      <trkpt lat="40.8401690" lon="0.1828660">
        <ele>484.0</ele>
        <time>2019-08-15T10:05:38Z</time>
      </trkpt>
      <trkpt lat="40.8401680" lon="0.1828920">
        <ele>484.0</ele>
        <time>2019-08-15T10:05:39Z</time>
      </trkpt>
      <trkpt lat="40.8401630" lon="0.1829140">
        <ele>484.0</ele>
        <time>2019-08-15T10:05:40Z</time>
      </trkpt>
      <trkpt lat="40.8401580" lon="0.1829330">
        <ele>484.0</ele>
        <time>2019-08-15T10:05:41Z</time>
      </trkpt>
      <trkpt lat="40.8401570" lon="0.1829530">
        <ele>484.0</ele>
        <time>2019-08-15T10:05:42Z</time>
      </trkpt>
      <trkpt lat="40.8401590" lon="0.1829740">
        <ele>484.0</ele>
        <time>2019-08-15T10:05:43Z</time>
      </trkpt>
      <trkpt lat="40.8401630" lon="0.1829890">
        <ele>484.0</ele>
        <time>2019-08-15T10:05:44Z</time>
      </trkpt>
      <trkpt lat="40.8401650" lon="0.1830010">
        <ele>484.0</ele>
        <time>2019-08-15T10:05:45Z</time>
      </trkpt>
      <trkpt lat="40.8401520" lon="0.1831960">
        <ele>485.0</ele>
        <time>2019-08-15T10:08:06Z</time>
      </trkpt>
      <trkpt lat="40.8401470" lon="0.1832430">
        <ele>485.0</ele>
        <time>2019-08-15T10:08:09Z</time>
      </trkpt>
      <trkpt lat="40.8401430" lon="0.1832660">
        <ele>485.0</ele>
        <time>2019-08-15T10:08:10Z</time>
      </trkpt>
      <trkpt lat="40.8401410" lon="0.1832910">
        <ele>485.0</ele>
        <time>2019-08-15T10:08:11Z</time>
      </trkpt>
      <trkpt lat="40.8401350" lon="0.1833470">
        <ele>485.0</ele>
        <time>2019-08-15T10:08:13Z</time>
      </trkpt>
      <trkpt lat="40.8401320" lon="0.1833750">
        <ele>485.0</ele>
        <time>2019-08-15T10:08:14Z</time>
      </trkpt>
      <trkpt lat="40.8401290" lon="0.1834040">
        <ele>485.0</ele>
        <time>2019-08-15T10:08:15Z</time>
      </trkpt>
      <trkpt lat="40.8401290" lon="0.1834340">
        <ele>485.0</ele>
        <time>2019-08-15T10:08:16Z</time>
      </trkpt>
      <trkpt lat="40.8401290" lon="0.1834630">
        <ele>485.0</ele>
        <time>2019-08-15T10:08:17Z</time>
      </trkpt>
      <trkpt lat="40.8401250" lon="0.1834950">
        <ele>485.0</ele>
        <time>2019-08-15T10:08:18Z</time>
      </trkpt>
      <trkpt lat="40.8401220" lon="0.1835280">
        <ele>486.0</ele>
        <time>2019-08-15T10:08:19Z</time>
      </trkpt>
      <trkpt lat="40.8401180" lon="0.1835590">
        <ele>486.0</ele>
        <time>2019-08-15T10:08:20Z</time>
      </trkpt>
      <trkpt lat="40.8401110" lon="0.1835940">
        <ele>486.0</ele>
        <time>2019-08-15T10:08:21Z</time>
      </trkpt>
      <trkpt lat="40.8401050" lon="0.1836300">
        <ele>486.0</ele>
        <time>2019-08-15T10:08:22Z</time>
      </trkpt>
      <trkpt lat="40.8401010" lon="0.1836660">
        <ele>486.0</ele>
        <time>2019-08-15T10:08:23Z</time>
      </trkpt>
      <trkpt lat="40.8400970" lon="0.1837030">
        <ele>486.0</ele>
        <time>2019-08-15T10:08:24Z</time>
      </trkpt>
      <trkpt lat="40.8400810" lon="0.1837770">
        <ele>486.0</ele>
        <time>2019-08-15T10:08:26Z</time>
      </trkpt>
      <trkpt lat="40.8400730" lon="0.1838130">
        <ele>486.0</ele>
        <time>2019-08-15T10:08:27Z</time>
      </trkpt>
      <trkpt lat="40.8400620" lon="0.1838480">
        <ele>486.0</ele>
        <time>2019-08-15T10:08:28Z</time>
      </trkpt>
      <trkpt lat="40.8400340" lon="0.1839600">
        <ele>486.0</ele>
        <time>2019-08-15T10:08:31Z</time>
      </trkpt>
      <trkpt lat="40.8400210" lon="0.1839980">
        <ele>486.0</ele>
        <time>2019-08-15T10:08:32Z</time>
      </trkpt>
      <trkpt lat="40.8400070" lon="0.1840370">
        <ele>486.0</ele>
        <time>2019-08-15T10:08:33Z</time>
      </trkpt>
      <trkpt lat="40.8399740" lon="0.1841500">
        <ele>486.0</ele>
        <time>2019-08-15T10:08:36Z</time>
      </trkpt>
      <trkpt lat="40.8399630" lon="0.1841850">
        <ele>486.0</ele>
        <time>2019-08-15T10:08:37Z</time>
      </trkpt>
      <trkpt lat="40.8399540" lon="0.1842190">
        <ele>486.0</ele>
        <time>2019-08-15T10:08:38Z</time>
      </trkpt>
      <trkpt lat="40.8399430" lon="0.1842530">
        <ele>486.0</ele>
        <time>2019-08-15T10:08:39Z</time>
      </trkpt>
      <trkpt lat="40.8399180" lon="0.1843200">
        <ele>486.0</ele>
        <time>2019-08-15T10:08:41Z</time>
      </trkpt>
      <trkpt lat="40.8399010" lon="0.1843590">
        <ele>486.0</ele>
        <time>2019-08-15T10:08:42Z</time>
      </trkpt>
      <trkpt lat="40.8398840" lon="0.1843980">
        <ele>487.0</ele>
        <time>2019-08-15T10:08:43Z</time>
      </trkpt>
      <trkpt lat="40.8398640" lon="0.1844430">
        <ele>487.0</ele>
        <time>2019-08-15T10:08:44Z</time>
      </trkpt>
      <trkpt lat="40.8398190" lon="0.1845420">
        <ele>486.0</ele>
        <time>2019-08-15T10:08:46Z</time>
      </trkpt>
      <trkpt lat="40.8397910" lon="0.1845970">
        <ele>486.0</ele>
        <time>2019-08-15T10:08:47Z</time>
      </trkpt>
      <trkpt lat="40.8397610" lon="0.1846590">
        <ele>486.0</ele>
        <time>2019-08-15T10:08:48Z</time>
      </trkpt>
      <trkpt lat="40.8397280" lon="0.1847230">
        <ele>486.0</ele>
        <time>2019-08-15T10:08:49Z</time>
      </trkpt>
      <trkpt lat="40.8396620" lon="0.1848690">
        <ele>486.0</ele>
        <time>2019-08-15T10:08:51Z</time>
      </trkpt>
      <trkpt lat="40.8396380" lon="0.1849520">
        <ele>486.0</ele>
        <time>2019-08-15T10:08:52Z</time>
      </trkpt>
      <trkpt lat="40.8396220" lon="0.1850410">
        <ele>485.0</ele>
        <time>2019-08-15T10:08:53Z</time>
      </trkpt>
      <trkpt lat="40.8396140" lon="0.1851310">
        <ele>485.0</ele>
        <time>2019-08-15T10:08:54Z</time>
      </trkpt>
      <trkpt lat="40.8396180" lon="0.1853050">
        <ele>484.0</ele>
        <time>2019-08-15T10:08:56Z</time>
      </trkpt>
      <trkpt lat="40.8396310" lon="0.1853830">
        <ele>484.0</ele>
        <time>2019-08-15T10:08:57Z</time>
      </trkpt>
      <trkpt lat="40.8396490" lon="0.1854590">
        <ele>484.0</ele>
        <time>2019-08-15T10:08:58Z</time>
      </trkpt>
      <trkpt lat="40.8396660" lon="0.1855290">
        <ele>483.0</ele>
        <time>2019-08-15T10:08:59Z</time>
      </trkpt>
      <trkpt lat="40.8397010" lon="0.1856450">
        <ele>483.0</ele>
        <time>2019-08-15T10:09:01Z</time>
      </trkpt>
      <trkpt lat="40.8397170" lon="0.1856950">
        <ele>483.0</ele>
        <time>2019-08-15T10:09:02Z</time>
      </trkpt>
      <trkpt lat="40.8397330" lon="0.1857380">
        <ele>483.0</ele>
        <time>2019-08-15T10:09:03Z</time>
      </trkpt>
      <trkpt lat="40.8397490" lon="0.1857760">
        <ele>483.0</ele>
        <time>2019-08-15T10:09:04Z</time>
      </trkpt>
      <trkpt lat="40.8397650" lon="0.1858140">
        <ele>483.0</ele>
        <time>2019-08-15T10:09:05Z</time>
      </trkpt>
      <trkpt lat="40.8397800" lon="0.1858500">
        <ele>482.0</ele>
        <time>2019-08-15T10:09:06Z</time>
      </trkpt>
      <trkpt lat="40.8397950" lon="0.1858840">
        <ele>482.0</ele>
        <time>2019-08-15T10:09:07Z</time>
      </trkpt>
      <trkpt lat="40.8398060" lon="0.1859190">
        <ele>482.0</ele>
        <time>2019-08-15T10:09:08Z</time>
      </trkpt>
      <trkpt lat="40.8398150" lon="0.1859570">
        <ele>483.0</ele>
        <time>2019-08-15T10:09:09Z</time>
      </trkpt>
      <trkpt lat="40.8398220" lon="0.1859950">
        <ele>483.0</ele>
        <time>2019-08-15T10:09:10Z</time>
      </trkpt>
      <trkpt lat="40.8398270" lon="0.1860320">
        <ele>483.0</ele>
        <time>2019-08-15T10:09:11Z</time>
      </trkpt>
      <trkpt lat="40.8398340" lon="0.1860690">
        <ele>483.0</ele>
        <time>2019-08-15T10:09:12Z</time>
      </trkpt>
      <trkpt lat="40.8398410" lon="0.1861080">
        <ele>483.0</ele>
        <time>2019-08-15T10:09:13Z</time>
      </trkpt>
      <trkpt lat="40.8398440" lon="0.1861460">
        <ele>484.0</ele>
        <time>2019-08-15T10:09:14Z</time>
      </trkpt>
      <trkpt lat="40.8398530" lon="0.1862280">
        <ele>484.0</ele>
        <time>2019-08-15T10:09:16Z</time>
      </trkpt>
      <trkpt lat="40.8398570" lon="0.1862730">
        <ele>484.0</ele>
        <time>2019-08-15T10:09:17Z</time>
      </trkpt>
      <trkpt lat="40.8398590" lon="0.1863190">
        <ele>484.0</ele>
        <time>2019-08-15T10:09:18Z</time>
      </trkpt>
      <trkpt lat="40.8398680" lon="0.1864710">
        <ele>484.0</ele>
        <time>2019-08-15T10:09:21Z</time>
      </trkpt>
      <trkpt lat="40.8398690" lon="0.1865260">
        <ele>484.0</ele>
        <time>2019-08-15T10:09:22Z</time>
      </trkpt>
      <trkpt lat="40.8398700" lon="0.1865830">
        <ele>484.0</ele>
        <time>2019-08-15T10:09:23Z</time>
      </trkpt>
      <trkpt lat="40.8398700" lon="0.1867590">
        <ele>484.0</ele>
        <time>2019-08-15T10:09:26Z</time>
      </trkpt>
      <trkpt lat="40.8398660" lon="0.1868170">
        <ele>484.0</ele>
        <time>2019-08-15T10:09:27Z</time>
      </trkpt>
      <trkpt lat="40.8398600" lon="0.1868730">
        <ele>484.0</ele>
        <time>2019-08-15T10:09:28Z</time>
      </trkpt>
      <trkpt lat="40.8398490" lon="0.1869320">
        <ele>484.0</ele>
        <time>2019-08-15T10:09:29Z</time>
      </trkpt>
      <trkpt lat="40.8398070" lon="0.1870430">
        <ele>484.0</ele>
        <time>2019-08-15T10:09:31Z</time>
      </trkpt>
      <trkpt lat="40.8397740" lon="0.1870910">
        <ele>484.0</ele>
        <time>2019-08-15T10:09:32Z</time>
      </trkpt>
      <trkpt lat="40.8397320" lon="0.1871280">
        <ele>484.0</ele>
        <time>2019-08-15T10:09:33Z</time>
      </trkpt>
      <trkpt lat="40.8396850" lon="0.1871550">
        <ele>484.0</ele>
        <time>2019-08-15T10:09:34Z</time>
      </trkpt>
      <trkpt lat="40.8396350" lon="0.1871800">
        <ele>484.0</ele>
        <time>2019-08-15T10:09:35Z</time>
      </trkpt>
      <trkpt lat="40.8395840" lon="0.1872040">
        <ele>484.0</ele>
        <time>2019-08-15T10:09:36Z</time>
      </trkpt>
      <trkpt lat="40.8395310" lon="0.1872360">
        <ele>484.0</ele>
        <time>2019-08-15T10:09:37Z</time>
      </trkpt>
      <trkpt lat="40.8394840" lon="0.1872720">
        <ele>484.0</ele>
        <time>2019-08-15T10:09:38Z</time>
      </trkpt>
      <trkpt lat="40.8394420" lon="0.1873110">
        <ele>484.0</ele>
        <time>2019-08-15T10:09:39Z</time>
      </trkpt>
      <trkpt lat="40.8394090" lon="0.1873590">
        <ele>484.0</ele>
        <time>2019-08-15T10:09:40Z</time>
      </trkpt>
      <trkpt lat="40.8393810" lon="0.1874070">
        <ele>483.0</ele>
        <time>2019-08-15T10:09:41Z</time>
      </trkpt>
      <trkpt lat="40.8393590" lon="0.1874570">
        <ele>483.0</ele>
        <time>2019-08-15T10:09:42Z</time>
      </trkpt>
      <trkpt lat="40.8393400" lon="0.1875050">
        <ele>483.0</ele>
        <time>2019-08-15T10:09:43Z</time>
      </trkpt>
      <trkpt lat="40.8393230" lon="0.1875500">
        <ele>483.0</ele>
        <time>2019-08-15T10:09:44Z</time>
      </trkpt>
      <trkpt lat="40.8393060" lon="0.1875910">
        <ele>483.0</ele>
        <time>2019-08-15T10:09:45Z</time>
      </trkpt>
      <trkpt lat="40.8392910" lon="0.1876310">
        <ele>483.0</ele>
        <time>2019-08-15T10:09:46Z</time>
      </trkpt>
      <trkpt lat="40.8392810" lon="0.1876710">
        <ele>483.0</ele>
        <time>2019-08-15T10:09:47Z</time>
      </trkpt>
      <trkpt lat="40.8392630" lon="0.1877570">
        <ele>483.0</ele>
        <time>2019-08-15T10:09:49Z</time>
      </trkpt>
      <trkpt lat="40.8392560" lon="0.1877990">
        <ele>483.0</ele>
        <time>2019-08-15T10:09:50Z</time>
      </trkpt>
      <trkpt lat="40.8392470" lon="0.1878410">
        <ele>483.0</ele>
        <time>2019-08-15T10:09:51Z</time>
      </trkpt>
      <trkpt lat="40.8392200" lon="0.1879630">
        <ele>483.0</ele>
        <time>2019-08-15T10:09:54Z</time>
      </trkpt>
      <trkpt lat="40.8392140" lon="0.1880060">
        <ele>483.0</ele>
        <time>2019-08-15T10:09:55Z</time>
      </trkpt>
      <trkpt lat="40.8392090" lon="0.1880490">
        <ele>483.0</ele>
        <time>2019-08-15T10:09:56Z</time>
      </trkpt>
      <trkpt lat="40.8392060" lon="0.1881730">
        <ele>484.0</ele>
        <time>2019-08-15T10:09:59Z</time>
      </trkpt>
      <trkpt lat="40.8392090" lon="0.1882160">
        <ele>484.0</ele>
        <time>2019-08-15T10:10:00Z</time>
      </trkpt>
      <trkpt lat="40.8392130" lon="0.1882600">
        <ele>484.0</ele>
        <time>2019-08-15T10:10:01Z</time>
      </trkpt>
      <trkpt lat="40.8392180" lon="0.1883020">
        <ele>484.0</ele>
        <time>2019-08-15T10:10:02Z</time>
      </trkpt>
      <trkpt lat="40.8392330" lon="0.1884010">
        <ele>484.0</ele>
        <time>2019-08-15T10:10:04Z</time>
      </trkpt>
      <trkpt lat="40.8392370" lon="0.1884200">
        <ele>484.0</ele>
        <time>2019-08-15T10:10:05Z</time>
      </trkpt>
      <trkpt lat="40.8392450" lon="0.1884590">
        <ele>484.0</ele>
        <time>2019-08-15T10:10:06Z</time>
      </trkpt>
      <trkpt lat="40.8392520" lon="0.1885010">
        <ele>484.0</ele>
        <time>2019-08-15T10:10:07Z</time>
      </trkpt>
      <trkpt lat="40.8392560" lon="0.1885440">
        <ele>484.0</ele>
        <time>2019-08-15T10:10:08Z</time>
      </trkpt>
      <trkpt lat="40.8392600" lon="0.1885860">
        <ele>484.0</ele>
        <time>2019-08-15T10:10:09Z</time>
      </trkpt>
      <trkpt lat="40.8392670" lon="0.1886260">
        <ele>485.0</ele>
        <time>2019-08-15T10:10:10Z</time>
      </trkpt>
      <trkpt lat="40.8392890" lon="0.1887490">
        <ele>485.0</ele>
        <time>2019-08-15T10:10:13Z</time>
      </trkpt>
      <trkpt lat="40.8392970" lon="0.1887900">
        <ele>485.0</ele>
        <time>2019-08-15T10:10:14Z</time>
      </trkpt>
      <trkpt lat="40.8393060" lon="0.1888300">
        <ele>485.0</ele>
        <time>2019-08-15T10:10:15Z</time>
      </trkpt>
      <trkpt lat="40.8393250" lon="0.1889570">
        <ele>485.0</ele>
        <time>2019-08-15T10:10:18Z</time>
      </trkpt>
      <trkpt lat="40.8393320" lon="0.1889950">
        <ele>485.0</ele>
        <time>2019-08-15T10:10:19Z</time>
      </trkpt>
      <trkpt lat="40.8393380" lon="0.1890340">
        <ele>485.0</ele>
        <time>2019-08-15T10:10:20Z</time>
      </trkpt>
      <trkpt lat="40.8393430" lon="0.1890730">
        <ele>485.0</ele>
        <time>2019-08-15T10:10:21Z</time>
      </trkpt>
      <trkpt lat="40.8393520" lon="0.1891470">
        <ele>485.0</ele>
        <time>2019-08-15T10:10:23Z</time>
      </trkpt>
      <trkpt lat="40.8393570" lon="0.1891850">
        <ele>485.0</ele>
        <time>2019-08-15T10:10:24Z</time>
      </trkpt>
      <trkpt lat="40.8393630" lon="0.1892220">
        <ele>485.0</ele>
        <time>2019-08-15T10:10:25Z</time>
      </trkpt>
      <trkpt lat="40.8393720" lon="0.1892570">
        <ele>485.0</ele>
        <time>2019-08-15T10:10:26Z</time>
      </trkpt>
      <trkpt lat="40.8393880" lon="0.1893210">
        <ele>486.0</ele>
        <time>2019-08-15T10:10:28Z</time>
      </trkpt>
      <trkpt lat="40.8393970" lon="0.1893530">
        <ele>486.0</ele>
        <time>2019-08-15T10:10:29Z</time>
      </trkpt>
      <trkpt lat="40.8394050" lon="0.1893850">
        <ele>486.0</ele>
        <time>2019-08-15T10:10:30Z</time>
      </trkpt>
      <trkpt lat="40.8394100" lon="0.1894160">
        <ele>486.0</ele>
        <time>2019-08-15T10:10:31Z</time>
      </trkpt>
      <trkpt lat="40.8394240" lon="0.1894750">
        <ele>486.0</ele>
        <time>2019-08-15T10:10:33Z</time>
      </trkpt>
      <trkpt lat="40.8394340" lon="0.1895080">
        <ele>486.0</ele>
        <time>2019-08-15T10:10:34Z</time>
      </trkpt>
      <trkpt lat="40.8394450" lon="0.1895390">
        <ele>486.0</ele>
        <time>2019-08-15T10:10:35Z</time>
      </trkpt>
      <trkpt lat="40.8394510" lon="0.1895700">
        <ele>486.0</ele>
        <time>2019-08-15T10:10:36Z</time>
      </trkpt>
      <trkpt lat="40.8394630" lon="0.1896280">
        <ele>487.0</ele>
        <time>2019-08-15T10:10:38Z</time>
      </trkpt>
      <trkpt lat="40.8394690" lon="0.1896590">
        <ele>487.0</ele>
        <time>2019-08-15T10:10:39Z</time>
      </trkpt>
      <trkpt lat="40.8394750" lon="0.1896870">
        <ele>487.0</ele>
        <time>2019-08-15T10:10:40Z</time>
      </trkpt>
      <trkpt lat="40.8394830" lon="0.1897140">
        <ele>487.0</ele>
        <time>2019-08-15T10:10:41Z</time>
      </trkpt>
      <trkpt lat="40.8395010" lon="0.1897680">
        <ele>487.0</ele>
        <time>2019-08-15T10:10:43Z</time>
      </trkpt>
      <trkpt lat="40.8395080" lon="0.1897950">
        <ele>487.0</ele>
        <time>2019-08-15T10:10:44Z</time>
      </trkpt>
      <trkpt lat="40.8395160" lon="0.1898190">
        <ele>487.0</ele>
        <time>2019-08-15T10:10:45Z</time>
      </trkpt>
      <trkpt lat="40.8395230" lon="0.1898410">
        <ele>487.0</ele>
        <time>2019-08-15T10:10:46Z</time>
      </trkpt>
      <trkpt lat="40.8395370" lon="0.1898910">
        <ele>487.0</ele>
        <time>2019-08-15T10:10:48Z</time>
      </trkpt>
      <trkpt lat="40.8395460" lon="0.1899140">
        <ele>487.0</ele>
        <time>2019-08-15T10:10:49Z</time>
      </trkpt>
      <trkpt lat="40.8395540" lon="0.1899380">
        <ele>487.0</ele>
        <time>2019-08-15T10:10:50Z</time>
      </trkpt>
      <trkpt lat="40.8395560" lon="0.1899620">
        <ele>487.0</ele>
        <time>2019-08-15T10:10:51Z</time>
      </trkpt>
      <trkpt lat="40.8395590" lon="0.1900100">
        <ele>488.0</ele>
        <time>2019-08-15T10:10:53Z</time>
      </trkpt>
      <trkpt lat="40.8395620" lon="0.1900340">
        <ele>488.0</ele>
        <time>2019-08-15T10:10:54Z</time>
      </trkpt>
      <trkpt lat="40.8395670" lon="0.1900570">
        <ele>488.0</ele>
        <time>2019-08-15T10:10:55Z</time>
      </trkpt>
      <trkpt lat="40.8395730" lon="0.1900810">
        <ele>488.0</ele>
        <time>2019-08-15T10:10:56Z</time>
      </trkpt>
      <trkpt lat="40.8395840" lon="0.1901270">
        <ele>488.0</ele>
        <time>2019-08-15T10:10:58Z</time>
      </trkpt>
      <trkpt lat="40.8395920" lon="0.1901470">
        <ele>489.0</ele>
        <time>2019-08-15T10:10:59Z</time>
      </trkpt>
      <trkpt lat="40.8395990" lon="0.1901720">
        <ele>489.0</ele>
        <time>2019-08-15T10:11:00Z</time>
      </trkpt>
      <trkpt lat="40.8396050" lon="0.1901980">
        <ele>489.0</ele>
        <time>2019-08-15T10:11:01Z</time>
      </trkpt>
      <trkpt lat="40.8396160" lon="0.1902430">
        <ele>489.0</ele>
        <time>2019-08-15T10:11:03Z</time>
      </trkpt>
      <trkpt lat="40.8396230" lon="0.1902670">
        <ele>489.0</ele>
        <time>2019-08-15T10:11:04Z</time>
      </trkpt>
      <trkpt lat="40.8396300" lon="0.1902900">
        <ele>490.0</ele>
        <time>2019-08-15T10:11:05Z</time>
      </trkpt>
      <trkpt lat="40.8396360" lon="0.1903150">
        <ele>490.0</ele>
        <time>2019-08-15T10:11:06Z</time>
      </trkpt>
      <trkpt lat="40.8396450" lon="0.1903640">
        <ele>490.0</ele>
        <time>2019-08-15T10:11:08Z</time>
      </trkpt>
      <trkpt lat="40.8396510" lon="0.1903890">
        <ele>490.0</ele>
        <time>2019-08-15T10:11:09Z</time>
      </trkpt>
      <trkpt lat="40.8396590" lon="0.1904120">
        <ele>490.0</ele>
        <time>2019-08-15T10:11:10Z</time>
      </trkpt>
      <trkpt lat="40.8396660" lon="0.1904370">
        <ele>490.0</ele>
        <time>2019-08-15T10:11:11Z</time>
      </trkpt>
      <trkpt lat="40.8396790" lon="0.1904920">
        <ele>490.0</ele>
        <time>2019-08-15T10:11:13Z</time>
      </trkpt>
      <trkpt lat="40.8396870" lon="0.1905210">
        <ele>490.0</ele>
        <time>2019-08-15T10:11:14Z</time>
      </trkpt>
      <trkpt lat="40.8396960" lon="0.1905490">
        <ele>490.0</ele>
        <time>2019-08-15T10:11:15Z</time>
      </trkpt>
      <trkpt lat="40.8397030" lon="0.1905820">
        <ele>491.0</ele>
        <time>2019-08-15T10:11:16Z</time>
      </trkpt>
      <trkpt lat="40.8397130" lon="0.1906550">
        <ele>491.0</ele>
        <time>2019-08-15T10:11:18Z</time>
      </trkpt>
      <trkpt lat="40.8397180" lon="0.1906940">
        <ele>491.0</ele>
        <time>2019-08-15T10:11:19Z</time>
      </trkpt>
      <trkpt lat="40.8397260" lon="0.1907350">
        <ele>491.0</ele>
        <time>2019-08-15T10:11:20Z</time>
      </trkpt>
      <trkpt lat="40.8397340" lon="0.1907750">
        <ele>491.0</ele>
        <time>2019-08-15T10:11:21Z</time>
      </trkpt>
      <trkpt lat="40.8397510" lon="0.1908540">
        <ele>491.0</ele>
        <time>2019-08-15T10:11:23Z</time>
      </trkpt>
      <trkpt lat="40.8397580" lon="0.1908940">
        <ele>491.0</ele>
        <time>2019-08-15T10:11:24Z</time>
      </trkpt>
      <trkpt lat="40.8397640" lon="0.1909370">
        <ele>491.0</ele>
        <time>2019-08-15T10:11:25Z</time>
      </trkpt>
      <trkpt lat="40.8397710" lon="0.1909790">
        <ele>491.0</ele>
        <time>2019-08-15T10:11:26Z</time>
      </trkpt>
      <trkpt lat="40.8397870" lon="0.1910680">
        <ele>491.0</ele>
        <time>2019-08-15T10:11:28Z</time>
      </trkpt>
      <trkpt lat="40.8397940" lon="0.1911120">
        <ele>491.0</ele>
        <time>2019-08-15T10:11:29Z</time>
      </trkpt>
      <trkpt lat="40.8398010" lon="0.1911570">
        <ele>491.0</ele>
        <time>2019-08-15T10:11:30Z</time>
      </trkpt>
      <trkpt lat="40.8398100" lon="0.1912010">
        <ele>491.0</ele>
        <time>2019-08-15T10:11:31Z</time>
      </trkpt>
      <trkpt lat="40.8398280" lon="0.1912800">
        <ele>491.0</ele>
        <time>2019-08-15T10:11:33Z</time>
      </trkpt>
      <trkpt lat="40.8398350" lon="0.1913180">
        <ele>491.0</ele>
        <time>2019-08-15T10:11:34Z</time>
      </trkpt>
      <trkpt lat="40.8398440" lon="0.1913550">
        <ele>491.0</ele>
        <time>2019-08-15T10:11:35Z</time>
      </trkpt>
      <trkpt lat="40.8398520" lon="0.1913900">
        <ele>491.0</ele>
        <time>2019-08-15T10:11:36Z</time>
      </trkpt>
      <trkpt lat="40.8398660" lon="0.1914550">
        <ele>491.0</ele>
        <time>2019-08-15T10:11:38Z</time>
      </trkpt>
      <trkpt lat="40.8398750" lon="0.1914860">
        <ele>491.0</ele>
        <time>2019-08-15T10:11:39Z</time>
      </trkpt>
      <trkpt lat="40.8398840" lon="0.1915170">
        <ele>491.0</ele>
        <time>2019-08-15T10:11:40Z</time>
      </trkpt>
      <trkpt lat="40.8398940" lon="0.1915470">
        <ele>491.0</ele>
        <time>2019-08-15T10:11:41Z</time>
      </trkpt>
      <trkpt lat="40.8399110" lon="0.1916120">
        <ele>491.0</ele>
        <time>2019-08-15T10:11:43Z</time>
      </trkpt>
      <trkpt lat="40.8399200" lon="0.1916490">
        <ele>491.0</ele>
        <time>2019-08-15T10:11:44Z</time>
      </trkpt>
      <trkpt lat="40.8399300" lon="0.1916860">
        <ele>491.0</ele>
        <time>2019-08-15T10:11:45Z</time>
      </trkpt>
      <trkpt lat="40.8399400" lon="0.1917240">
        <ele>492.0</ele>
        <time>2019-08-15T10:11:46Z</time>
      </trkpt>
      <trkpt lat="40.8399630" lon="0.1918030">
        <ele>492.0</ele>
        <time>2019-08-15T10:11:48Z</time>
      </trkpt>
      <trkpt lat="40.8399750" lon="0.1918440">
        <ele>492.0</ele>
        <time>2019-08-15T10:11:49Z</time>
      </trkpt>
      <trkpt lat="40.8399840" lon="0.1918860">
        <ele>492.0</ele>
        <time>2019-08-15T10:11:50Z</time>
      </trkpt>
      <trkpt lat="40.8399940" lon="0.1919270">
        <ele>492.0</ele>
        <time>2019-08-15T10:11:51Z</time>
      </trkpt>
      <trkpt lat="40.8400160" lon="0.1920140">
        <ele>492.0</ele>
        <time>2019-08-15T10:11:53Z</time>
      </trkpt>
      <trkpt lat="40.8400290" lon="0.1920590">
        <ele>493.0</ele>
        <time>2019-08-15T10:11:54Z</time>
      </trkpt>
      <trkpt lat="40.8400420" lon="0.1921050">
        <ele>493.0</ele>
        <time>2019-08-15T10:11:55Z</time>
      </trkpt>
      <trkpt lat="40.8400560" lon="0.1921510">
        <ele>493.0</ele>
        <time>2019-08-15T10:11:56Z</time>
      </trkpt>
      <trkpt lat="40.8400840" lon="0.1922490">
        <ele>493.0</ele>
        <time>2019-08-15T10:11:58Z</time>
      </trkpt>
      <trkpt lat="40.8400980" lon="0.1923000">
        <ele>492.0</ele>
        <time>2019-08-15T10:11:59Z</time>
      </trkpt>
      <trkpt lat="40.8401110" lon="0.1923490">
        <ele>492.0</ele>
        <time>2019-08-15T10:12:00Z</time>
      </trkpt>
      <trkpt lat="40.8401230" lon="0.1923990">
        <ele>492.0</ele>
        <time>2019-08-15T10:12:01Z</time>
      </trkpt>
      <trkpt lat="40.8401410" lon="0.1925000">
        <ele>492.0</ele>
        <time>2019-08-15T10:12:03Z</time>
      </trkpt>
      <trkpt lat="40.8401520" lon="0.1925520">
        <ele>492.0</ele>
        <time>2019-08-15T10:12:04Z</time>
      </trkpt>
      <trkpt lat="40.8401650" lon="0.1926060">
        <ele>492.0</ele>
        <time>2019-08-15T10:12:05Z</time>
      </trkpt>
      <trkpt lat="40.8401820" lon="0.1926630">
        <ele>492.0</ele>
        <time>2019-08-15T10:12:06Z</time>
      </trkpt>
      <trkpt lat="40.8402250" lon="0.1927750">
        <ele>492.0</ele>
        <time>2019-08-15T10:12:08Z</time>
      </trkpt>
      <trkpt lat="40.8402450" lon="0.1928310">
        <ele>491.0</ele>
        <time>2019-08-15T10:12:09Z</time>
      </trkpt>
      <trkpt lat="40.8402670" lon="0.1928860">
        <ele>491.0</ele>
        <time>2019-08-15T10:12:10Z</time>
      </trkpt>
      <trkpt lat="40.8402910" lon="0.1929390">
        <ele>491.0</ele>
        <time>2019-08-15T10:12:11Z</time>
      </trkpt>
      <trkpt lat="40.8403410" lon="0.1930470">
        <ele>491.0</ele>
        <time>2019-08-15T10:12:13Z</time>
      </trkpt>
      <trkpt lat="40.8403680" lon="0.1931020">
        <ele>491.0</ele>
        <time>2019-08-15T10:12:14Z</time>
      </trkpt>
      <trkpt lat="40.8403950" lon="0.1931560">
        <ele>491.0</ele>
        <time>2019-08-15T10:12:15Z</time>
      </trkpt>
      <trkpt lat="40.8404220" lon="0.1932120">
        <ele>491.0</ele>
        <time>2019-08-15T10:12:16Z</time>
      </trkpt>
      <trkpt lat="40.8404720" lon="0.1933270">
        <ele>491.0</ele>
        <time>2019-08-15T10:12:18Z</time>
      </trkpt>
      <trkpt lat="40.8404950" lon="0.1933830">
        <ele>491.0</ele>
        <time>2019-08-15T10:12:19Z</time>
      </trkpt>
      <trkpt lat="40.8405160" lon="0.1934370">
        <ele>491.0</ele>
        <time>2019-08-15T10:12:20Z</time>
      </trkpt>
      <trkpt lat="40.8405380" lon="0.1934910">
        <ele>491.0</ele>
        <time>2019-08-15T10:12:21Z</time>
      </trkpt>
      <trkpt lat="40.8405830" lon="0.1935950">
        <ele>491.0</ele>
        <time>2019-08-15T10:12:23Z</time>
      </trkpt>
      <trkpt lat="40.8406040" lon="0.1936440">
        <ele>491.0</ele>
        <time>2019-08-15T10:12:24Z</time>
      </trkpt>
      <trkpt lat="40.8406250" lon="0.1936920">
        <ele>491.0</ele>
        <time>2019-08-15T10:12:25Z</time>
      </trkpt>
      <trkpt lat="40.8406450" lon="0.1937400">
        <ele>491.0</ele>
        <time>2019-08-15T10:12:26Z</time>
      </trkpt>
      <trkpt lat="40.8406830" lon="0.1938340">
        <ele>491.0</ele>
        <time>2019-08-15T10:12:28Z</time>
      </trkpt>
      <trkpt lat="40.8407030" lon="0.1938810">
        <ele>491.0</ele>
        <time>2019-08-15T10:12:29Z</time>
      </trkpt>
      <trkpt lat="40.8407230" lon="0.1939290">
        <ele>491.0</ele>
        <time>2019-08-15T10:12:30Z</time>
      </trkpt>
      <trkpt lat="40.8407460" lon="0.1939760">
        <ele>491.0</ele>
        <time>2019-08-15T10:12:31Z</time>
      </trkpt>
      <trkpt lat="40.8407900" lon="0.1940760">
        <ele>491.0</ele>
        <time>2019-08-15T10:12:33Z</time>
      </trkpt>
      <trkpt lat="40.8408110" lon="0.1941250">
        <ele>491.0</ele>
        <time>2019-08-15T10:12:34Z</time>
      </trkpt>
      <trkpt lat="40.8408330" lon="0.1941760">
        <ele>491.0</ele>
        <time>2019-08-15T10:12:35Z</time>
      </trkpt>
      <trkpt lat="40.8408540" lon="0.1942300">
        <ele>491.0</ele>
        <time>2019-08-15T10:12:36Z</time>
      </trkpt>
      <trkpt lat="40.8409020" lon="0.1943330">
        <ele>491.0</ele>
        <time>2019-08-15T10:12:38Z</time>
      </trkpt>
      <trkpt lat="40.8409240" lon="0.1943850">
        <ele>491.0</ele>
        <time>2019-08-15T10:12:39Z</time>
      </trkpt>
      <trkpt lat="40.8409460" lon="0.1944390">
        <ele>491.0</ele>
        <time>2019-08-15T10:12:40Z</time>
      </trkpt>
      <trkpt lat="40.8409680" lon="0.1944920">
        <ele>491.0</ele>
        <time>2019-08-15T10:12:41Z</time>
      </trkpt>
      <trkpt lat="40.8410120" lon="0.1945960">
        <ele>491.0</ele>
        <time>2019-08-15T10:12:43Z</time>
      </trkpt>
      <trkpt lat="40.8410340" lon="0.1946460">
        <ele>491.0</ele>
        <time>2019-08-15T10:12:44Z</time>
      </trkpt>
      <trkpt lat="40.8410530" lon="0.1946970">
        <ele>491.0</ele>
        <time>2019-08-15T10:12:45Z</time>
      </trkpt>
      <trkpt lat="40.8410720" lon="0.1947480">
        <ele>491.0</ele>
        <time>2019-08-15T10:12:46Z</time>
      </trkpt>
      <trkpt lat="40.8411090" lon="0.1948510">
        <ele>491.0</ele>
        <time>2019-08-15T10:12:48Z</time>
      </trkpt>
      <trkpt lat="40.8411280" lon="0.1949040">
        <ele>491.0</ele>
        <time>2019-08-15T10:12:49Z</time>
      </trkpt>
      <trkpt lat="40.8411460" lon="0.1949590">
        <ele>491.0</ele>
        <time>2019-08-15T10:12:50Z</time>
      </trkpt>
      <trkpt lat="40.8411650" lon="0.1950180">
        <ele>491.0</ele>
        <time>2019-08-15T10:12:51Z</time>
      </trkpt>
      <trkpt lat="40.8412040" lon="0.1951340">
        <ele>491.0</ele>
        <time>2019-08-15T10:12:53Z</time>
      </trkpt>
      <trkpt lat="40.8412210" lon="0.1951900">
        <ele>491.0</ele>
        <time>2019-08-15T10:12:54Z</time>
      </trkpt>
      <trkpt lat="40.8412380" lon="0.1952450">
        <ele>491.0</ele>
        <time>2019-08-15T10:12:55Z</time>
      </trkpt>
      <trkpt lat="40.8412510" lon="0.1953000">
        <ele>491.0</ele>
        <time>2019-08-15T10:12:56Z</time>
      </trkpt>
      <trkpt lat="40.8412720" lon="0.1954190">
        <ele>491.0</ele>
        <time>2019-08-15T10:12:58Z</time>
      </trkpt>
      <trkpt lat="40.8412770" lon="0.1954860">
        <ele>491.0</ele>
        <time>2019-08-15T10:12:59Z</time>
      </trkpt>
      <trkpt lat="40.8412710" lon="0.1955610">
        <ele>491.0</ele>
        <time>2019-08-15T10:13:00Z</time>
      </trkpt>
      <trkpt lat="40.8412550" lon="0.1956380">
        <ele>491.0</ele>
        <time>2019-08-15T10:13:01Z</time>
      </trkpt>
      <trkpt lat="40.8412040" lon="0.1957930">
        <ele>491.0</ele>
        <time>2019-08-15T10:13:03Z</time>
      </trkpt>
      <trkpt lat="40.8411740" lon="0.1958690">
        <ele>490.0</ele>
        <time>2019-08-15T10:13:04Z</time>
      </trkpt>
      <trkpt lat="40.8411410" lon="0.1959460">
        <ele>490.0</ele>
        <time>2019-08-15T10:13:05Z</time>
      </trkpt>
      <trkpt lat="40.8411100" lon="0.1960250">
        <ele>490.0</ele>
        <time>2019-08-15T10:13:06Z</time>
      </trkpt>
      <trkpt lat="40.8410780" lon="0.1961040">
        <ele>490.0</ele>
        <time>2019-08-15T10:13:07Z</time>
      </trkpt>
      <trkpt lat="40.8410460" lon="0.1961830">
        <ele>490.0</ele>
        <time>2019-08-15T10:13:08Z</time>
      </trkpt>
      <trkpt lat="40.8410120" lon="0.1962580">
        <ele>490.0</ele>
        <time>2019-08-15T10:13:09Z</time>
      </trkpt>
      <trkpt lat="40.8409770" lon="0.1963300">
        <ele>489.0</ele>
        <time>2019-08-15T10:13:10Z</time>
      </trkpt>
      <trkpt lat="40.8409420" lon="0.1963990">
        <ele>489.0</ele>
        <time>2019-08-15T10:13:11Z</time>
      </trkpt>
      <trkpt lat="40.8409120" lon="0.1964680">
        <ele>489.0</ele>
        <time>2019-08-15T10:13:12Z</time>
      </trkpt>
      <trkpt lat="40.8408790" lon="0.1965350">
        <ele>489.0</ele>
        <time>2019-08-15T10:13:13Z</time>
      </trkpt>
      <trkpt lat="40.8408480" lon="0.1966000">
        <ele>489.0</ele>
        <time>2019-08-15T10:13:14Z</time>
      </trkpt>
      <trkpt lat="40.8408180" lon="0.1966650">
        <ele>488.0</ele>
        <time>2019-08-15T10:13:15Z</time>
      </trkpt>
      <trkpt lat="40.8407870" lon="0.1967290">
        <ele>488.0</ele>
        <time>2019-08-15T10:13:16Z</time>
      </trkpt>
      <trkpt lat="40.8407580" lon="0.1967910">
        <ele>488.0</ele>
        <time>2019-08-15T10:13:17Z</time>
      </trkpt>
      <trkpt lat="40.8407310" lon="0.1968510">
        <ele>488.0</ele>
        <time>2019-08-15T10:13:18Z</time>
      </trkpt>
      <trkpt lat="40.8407060" lon="0.1969060">
        <ele>487.0</ele>
        <time>2019-08-15T10:13:19Z</time>
      </trkpt>
      <trkpt lat="40.8406830" lon="0.1969610">
        <ele>487.0</ele>
        <time>2019-08-15T10:13:20Z</time>
      </trkpt>
      <trkpt lat="40.8406610" lon="0.1970150">
        <ele>487.0</ele>
        <time>2019-08-15T10:13:21Z</time>
      </trkpt>
      <trkpt lat="40.8406410" lon="0.1970710">
        <ele>487.0</ele>
        <time>2019-08-15T10:13:22Z</time>
      </trkpt>
      <trkpt lat="40.8406090" lon="0.1971900">
        <ele>487.0</ele>
        <time>2019-08-15T10:13:24Z</time>
      </trkpt>
      <trkpt lat="40.8405950" lon="0.1972500">
        <ele>487.0</ele>
        <time>2019-08-15T10:13:25Z</time>
      </trkpt>
      <trkpt lat="40.8405800" lon="0.1973080">
        <ele>487.0</ele>
        <time>2019-08-15T10:13:26Z</time>
      </trkpt>
      <trkpt lat="40.8405180" lon="0.1974550">
        <ele>487.0</ele>
        <time>2019-08-15T10:13:29Z</time>
      </trkpt>
      <trkpt lat="40.8404890" lon="0.1974880">
        <ele>487.0</ele>
        <time>2019-08-15T10:13:30Z</time>
      </trkpt>
      <trkpt lat="40.8404610" lon="0.1975200">
        <ele>487.0</ele>
        <time>2019-08-15T10:13:31Z</time>
      </trkpt>
      <trkpt lat="40.8404300" lon="0.1975460">
        <ele>487.0</ele>
        <time>2019-08-15T10:13:32Z</time>
      </trkpt>
      <trkpt lat="40.8403770" lon="0.1975850">
        <ele>487.0</ele>
        <time>2019-08-15T10:13:34Z</time>
      </trkpt>
      <trkpt lat="40.8403650" lon="0.1975960">
        <ele>487.0</ele>
        <time>2019-08-15T10:13:35Z</time>
      </trkpt>
      <trkpt lat="40.8403650" lon="0.1976010">
        <ele>487.0</ele>
        <time>2019-08-15T10:13:37Z</time>
      </trkpt>
      <trkpt lat="40.8403180" lon="0.1975290">
        <ele>486.0</ele>
        <time>2019-08-15T10:14:00Z</time>
      </trkpt>
      <trkpt lat="40.8403070" lon="0.1975020">
        <ele>486.0</ele>
        <time>2019-08-15T10:14:02Z</time>
      </trkpt>
      <trkpt lat="40.8402940" lon="0.1974700">
        <ele>486.0</ele>
        <time>2019-08-15T10:14:03Z</time>
      </trkpt>
      <trkpt lat="40.8402860" lon="0.1974320">
        <ele>486.0</ele>
        <time>2019-08-15T10:14:04Z</time>
      </trkpt>
      <trkpt lat="40.8402790" lon="0.1973840">
        <ele>486.0</ele>
        <time>2019-08-15T10:14:05Z</time>
      </trkpt>
      <trkpt lat="40.8402770" lon="0.1973330">
        <ele>485.0</ele>
        <time>2019-08-15T10:14:06Z</time>
      </trkpt>
      <trkpt lat="40.8402730" lon="0.1972880">
        <ele>485.0</ele>
        <time>2019-08-15T10:14:07Z</time>
      </trkpt>
      <trkpt lat="40.8402730" lon="0.1972400">
        <ele>485.0</ele>
        <time>2019-08-15T10:14:08Z</time>
      </trkpt>
      <trkpt lat="40.8402720" lon="0.1971940">
        <ele>485.0</ele>
        <time>2019-08-15T10:14:09Z</time>
      </trkpt>
      <trkpt lat="40.8402670" lon="0.1971490">
        <ele>485.0</ele>
        <time>2019-08-15T10:14:10Z</time>
      </trkpt>
      <trkpt lat="40.8402640" lon="0.1971050">
        <ele>485.0</ele>
        <time>2019-08-15T10:14:11Z</time>
      </trkpt>
      <trkpt lat="40.8402640" lon="0.1970620">
        <ele>485.0</ele>
        <time>2019-08-15T10:14:12Z</time>
      </trkpt>
      <trkpt lat="40.8402660" lon="0.1970210">
        <ele>485.0</ele>
        <time>2019-08-15T10:14:13Z</time>
      </trkpt>
      <trkpt lat="40.8402660" lon="0.1969810">
        <ele>485.0</ele>
        <time>2019-08-15T10:14:14Z</time>
      </trkpt>
      <trkpt lat="40.8402670" lon="0.1969400">
        <ele>485.0</ele>
        <time>2019-08-15T10:14:15Z</time>
      </trkpt>
      <trkpt lat="40.8402690" lon="0.1968930">
        <ele>485.0</ele>
        <time>2019-08-15T10:14:16Z</time>
      </trkpt>
      <trkpt lat="40.8402740" lon="0.1968470">
        <ele>485.0</ele>
        <time>2019-08-15T10:14:17Z</time>
      </trkpt>
      <trkpt lat="40.8402800" lon="0.1967990">
        <ele>485.0</ele>
        <time>2019-08-15T10:14:18Z</time>
      </trkpt>
      <trkpt lat="40.8402860" lon="0.1967490">
        <ele>485.0</ele>
        <time>2019-08-15T10:14:19Z</time>
      </trkpt>
      <trkpt lat="40.8402940" lon="0.1966980">
        <ele>485.0</ele>
        <time>2019-08-15T10:14:20Z</time>
      </trkpt>
      <trkpt lat="40.8403040" lon="0.1966460">
        <ele>485.0</ele>
        <time>2019-08-15T10:14:21Z</time>
      </trkpt>
      <trkpt lat="40.8403150" lon="0.1965920">
        <ele>485.0</ele>
        <time>2019-08-15T10:14:22Z</time>
      </trkpt>
      <trkpt lat="40.8403290" lon="0.1965390">
        <ele>485.0</ele>
        <time>2019-08-15T10:14:23Z</time>
      </trkpt>
      <trkpt lat="40.8403440" lon="0.1964870">
        <ele>485.0</ele>
        <time>2019-08-15T10:14:24Z</time>
      </trkpt>
      <trkpt lat="40.8403580" lon="0.1964370">
        <ele>485.0</ele>
        <time>2019-08-15T10:14:25Z</time>
      </trkpt>
      <trkpt lat="40.8403700" lon="0.1963870">
        <ele>485.0</ele>
        <time>2019-08-15T10:14:26Z</time>
      </trkpt>
      <trkpt lat="40.8403790" lon="0.1963360">
        <ele>485.0</ele>
        <time>2019-08-15T10:14:27Z</time>
      </trkpt>
      <trkpt lat="40.8403890" lon="0.1962850">
        <ele>485.0</ele>
        <time>2019-08-15T10:14:28Z</time>
      </trkpt>
      <trkpt lat="40.8404020" lon="0.1962340">
        <ele>485.0</ele>
        <time>2019-08-15T10:14:29Z</time>
      </trkpt>
      <trkpt lat="40.8404150" lon="0.1961820">
        <ele>484.0</ele>
        <time>2019-08-15T10:14:30Z</time>
      </trkpt>
      <trkpt lat="40.8404270" lon="0.1961280">
        <ele>484.0</ele>
        <time>2019-08-15T10:14:31Z</time>
      </trkpt>
      <trkpt lat="40.8404380" lon="0.1960740">
        <ele>484.0</ele>
        <time>2019-08-15T10:14:32Z</time>
      </trkpt>
      <trkpt lat="40.8404470" lon="0.1960160">
        <ele>484.0</ele>
        <time>2019-08-15T10:14:33Z</time>
      </trkpt>
      <trkpt lat="40.8404580" lon="0.1959570">
        <ele>484.0</ele>
        <time>2019-08-15T10:14:34Z</time>
      </trkpt>
      <trkpt lat="40.8404700" lon="0.1958980">
        <ele>484.0</ele>
        <time>2019-08-15T10:14:35Z</time>
      </trkpt>
      <trkpt lat="40.8404920" lon="0.1957860">
        <ele>484.0</ele>
        <time>2019-08-15T10:14:37Z</time>
      </trkpt>
      <trkpt lat="40.8405020" lon="0.1957300">
        <ele>484.0</ele>
        <time>2019-08-15T10:14:38Z</time>
      </trkpt>
      <trkpt lat="40.8405140" lon="0.1956740">
        <ele>484.0</ele>
        <time>2019-08-15T10:14:39Z</time>
      </trkpt>
      <trkpt lat="40.8405570" lon="0.1955170">
        <ele>484.0</ele>
        <time>2019-08-15T10:14:42Z</time>
      </trkpt>
      <trkpt lat="40.8405740" lon="0.1954650">
        <ele>484.0</ele>
        <time>2019-08-15T10:14:43Z</time>
      </trkpt>
      <trkpt lat="40.8405900" lon="0.1954120">
        <ele>484.0</ele>
        <time>2019-08-15T10:14:44Z</time>
      </trkpt>
      <trkpt lat="40.8406440" lon="0.1952520">
        <ele>484.0</ele>
        <time>2019-08-15T10:14:47Z</time>
      </trkpt>
      <trkpt lat="40.8406620" lon="0.1951980">
        <ele>484.0</ele>
        <time>2019-08-15T10:14:48Z</time>
      </trkpt>
      <trkpt lat="40.8406800" lon="0.1951480">
        <ele>484.0</ele>
        <time>2019-08-15T10:14:49Z</time>
      </trkpt>
      <trkpt lat="40.8406980" lon="0.1950990">
        <ele>484.0</ele>
        <time>2019-08-15T10:14:50Z</time>
      </trkpt>
      <trkpt lat="40.8407290" lon="0.1949930">
        <ele>484.0</ele>
        <time>2019-08-15T10:14:52Z</time>
      </trkpt>
      <trkpt lat="40.8407430" lon="0.1949400">
        <ele>484.0</ele>
        <time>2019-08-15T10:14:53Z</time>
      </trkpt>
      <trkpt lat="40.8407540" lon="0.1948840">
        <ele>484.0</ele>
        <time>2019-08-15T10:14:54Z</time>
      </trkpt>
      <trkpt lat="40.8407670" lon="0.1948280">
        <ele>484.0</ele>
        <time>2019-08-15T10:14:55Z</time>
      </trkpt>
      <trkpt lat="40.8407790" lon="0.1947100">
        <ele>484.0</ele>
        <time>2019-08-15T10:14:57Z</time>
      </trkpt>
      <trkpt lat="40.8407770" lon="0.1946540">
        <ele>484.0</ele>
        <time>2019-08-15T10:14:58Z</time>
      </trkpt>
      <trkpt lat="40.8407690" lon="0.1946020">
        <ele>484.0</ele>
        <time>2019-08-15T10:14:59Z</time>
      </trkpt>
      <trkpt lat="40.8407610" lon="0.1945570">
        <ele>484.0</ele>
        <time>2019-08-15T10:15:00Z</time>
      </trkpt>
      <trkpt lat="40.8407400" lon="0.1944900">
        <ele>484.0</ele>
        <time>2019-08-15T10:15:02Z</time>
      </trkpt>
      <trkpt lat="40.8407260" lon="0.1944640">
        <ele>483.0</ele>
        <time>2019-08-15T10:15:03Z</time>
      </trkpt>
      <trkpt lat="40.8407100" lon="0.1944420">
        <ele>483.0</ele>
        <time>2019-08-15T10:15:04Z</time>
      </trkpt>
      <trkpt lat="40.8406900" lon="0.1944240">
        <ele>483.0</ele>
        <time>2019-08-15T10:15:05Z</time>
      </trkpt>
      <trkpt lat="40.8406670" lon="0.1944130">
        <ele>483.0</ele>
        <time>2019-08-15T10:15:06Z</time>
      </trkpt>
      <trkpt lat="40.8406390" lon="0.1944090">
        <ele>483.0</ele>
        <time>2019-08-15T10:15:07Z</time>
      </trkpt>
      <trkpt lat="40.8406080" lon="0.1944030">
        <ele>483.0</ele>
        <time>2019-08-15T10:15:08Z</time>
      </trkpt>
      <trkpt lat="40.8405750" lon="0.1943890">
        <ele>483.0</ele>
        <time>2019-08-15T10:15:09Z</time>
      </trkpt>
      <trkpt lat="40.8405420" lon="0.1943690">
        <ele>483.0</ele>
        <time>2019-08-15T10:15:10Z</time>
      </trkpt>
      <trkpt lat="40.8405120" lon="0.1943460">
        <ele>482.0</ele>
        <time>2019-08-15T10:15:11Z</time>
      </trkpt>
      <trkpt lat="40.8404790" lon="0.1943260">
        <ele>482.0</ele>
        <time>2019-08-15T10:15:12Z</time>
      </trkpt>
      <trkpt lat="40.8404430" lon="0.1943080">
        <ele>482.0</ele>
        <time>2019-08-15T10:15:13Z</time>
      </trkpt>
      <trkpt lat="40.8404100" lon="0.1942890">
        <ele>482.0</ele>
        <time>2019-08-15T10:15:14Z</time>
      </trkpt>
      <trkpt lat="40.8403830" lon="0.1942670">
        <ele>482.0</ele>
        <time>2019-08-15T10:15:15Z</time>
      </trkpt>
      <trkpt lat="40.8403610" lon="0.1942440">
        <ele>482.0</ele>
        <time>2019-08-15T10:15:16Z</time>
      </trkpt>
      <trkpt lat="40.8403400" lon="0.1942170">
        <ele>482.0</ele>
        <time>2019-08-15T10:15:17Z</time>
      </trkpt>
      <trkpt lat="40.8403200" lon="0.1941840">
        <ele>482.0</ele>
        <time>2019-08-15T10:15:18Z</time>
      </trkpt>
      <trkpt lat="40.8403010" lon="0.1941480">
        <ele>483.0</ele>
        <time>2019-08-15T10:15:19Z</time>
      </trkpt>
      <trkpt lat="40.8402800" lon="0.1941080">
        <ele>483.0</ele>
        <time>2019-08-15T10:15:20Z</time>
      </trkpt>
      <trkpt lat="40.8402570" lon="0.1940650">
        <ele>483.0</ele>
        <time>2019-08-15T10:15:21Z</time>
      </trkpt>
      <trkpt lat="40.8402310" lon="0.1940210">
        <ele>483.0</ele>
        <time>2019-08-15T10:15:22Z</time>
      </trkpt>
      <trkpt lat="40.8402020" lon="0.1939770">
        <ele>483.0</ele>
        <time>2019-08-15T10:15:23Z</time>
      </trkpt>
      <trkpt lat="40.8401700" lon="0.1939320">
        <ele>483.0</ele>
        <time>2019-08-15T10:15:24Z</time>
      </trkpt>
      <trkpt lat="40.8401100" lon="0.1938450">
        <ele>483.0</ele>
        <time>2019-08-15T10:15:26Z</time>
      </trkpt>
      <trkpt lat="40.8400800" lon="0.1938020">
        <ele>483.0</ele>
        <time>2019-08-15T10:15:27Z</time>
      </trkpt>
      <trkpt lat="40.8400510" lon="0.1937560">
        <ele>483.0</ele>
        <time>2019-08-15T10:15:28Z</time>
      </trkpt>
      <trkpt lat="40.8399580" lon="0.1936090">
        <ele>483.0</ele>
        <time>2019-08-15T10:15:31Z</time>
      </trkpt>
      <trkpt lat="40.8399260" lon="0.1935600">
        <ele>483.0</ele>
        <time>2019-08-15T10:15:32Z</time>
      </trkpt>
      <trkpt lat="40.8398930" lon="0.1935110">
        <ele>483.0</ele>
        <time>2019-08-15T10:15:33Z</time>
      </trkpt>
      <trkpt lat="40.8397740" lon="0.1933450">
        <ele>483.0</ele>
        <time>2019-08-15T10:15:36Z</time>
      </trkpt>
      <trkpt lat="40.8397550" lon="0.1933210">
        <ele>483.0</ele>
        <time>2019-08-15T10:15:37Z</time>
      </trkpt>
      <trkpt lat="40.8397160" lon="0.1932690">
        <ele>483.0</ele>
        <time>2019-08-15T10:15:38Z</time>
      </trkpt>
      <trkpt lat="40.8396760" lon="0.1932170">
        <ele>483.0</ele>
        <time>2019-08-15T10:15:39Z</time>
      </trkpt>
      <trkpt lat="40.8395910" lon="0.1931140">
        <ele>483.0</ele>
        <time>2019-08-15T10:15:41Z</time>
      </trkpt>
      <trkpt lat="40.8395470" lon="0.1930700">
        <ele>483.0</ele>
        <time>2019-08-15T10:15:42Z</time>
      </trkpt>
      <trkpt lat="40.8395040" lon="0.1930260">
        <ele>483.0</ele>
        <time>2019-08-15T10:15:43Z</time>
      </trkpt>
      <trkpt lat="40.8394630" lon="0.1929830">
        <ele>483.0</ele>
        <time>2019-08-15T10:15:44Z</time>
      </trkpt>
      <trkpt lat="40.8393890" lon="0.1928930">
        <ele>483.0</ele>
        <time>2019-08-15T10:15:46Z</time>
      </trkpt>
      <trkpt lat="40.8393550" lon="0.1928450">
        <ele>483.0</ele>
        <time>2019-08-15T10:15:47Z</time>
      </trkpt>
      <trkpt lat="40.8393230" lon="0.1927990">
        <ele>483.0</ele>
        <time>2019-08-15T10:15:48Z</time>
      </trkpt>
      <trkpt lat="40.8392900" lon="0.1927540">
        <ele>483.0</ele>
        <time>2019-08-15T10:15:49Z</time>
      </trkpt>
      <trkpt lat="40.8392190" lon="0.1926550">
        <ele>483.0</ele>
        <time>2019-08-15T10:15:51Z</time>
      </trkpt>
      <trkpt lat="40.8391830" lon="0.1925960">
        <ele>483.0</ele>
        <time>2019-08-15T10:15:52Z</time>
      </trkpt>
      <trkpt lat="40.8391420" lon="0.1925380">
        <ele>483.0</ele>
        <time>2019-08-15T10:15:53Z</time>
      </trkpt>
      <trkpt lat="40.8391010" lon="0.1924780">
        <ele>483.0</ele>
        <time>2019-08-15T10:15:54Z</time>
      </trkpt>
      <trkpt lat="40.8390100" lon="0.1923700">
        <ele>484.0</ele>
        <time>2019-08-15T10:15:56Z</time>
      </trkpt>
      <trkpt lat="40.8389610" lon="0.1923270">
        <ele>484.0</ele>
        <time>2019-08-15T10:15:57Z</time>
      </trkpt>
      <trkpt lat="40.8389090" lon="0.1922920">
        <ele>484.0</ele>
        <time>2019-08-15T10:15:58Z</time>
      </trkpt>
      <trkpt lat="40.8388540" lon="0.1922620">
        <ele>484.0</ele>
        <time>2019-08-15T10:15:59Z</time>
      </trkpt>
      <trkpt lat="40.8387510" lon="0.1922030">
        <ele>484.0</ele>
        <time>2019-08-15T10:16:01Z</time>
      </trkpt>
      <trkpt lat="40.8387000" lon="0.1921780">
        <ele>484.0</ele>
        <time>2019-08-15T10:16:02Z</time>
      </trkpt>
      <trkpt lat="40.8386490" lon="0.1921530">
        <ele>484.0</ele>
        <time>2019-08-15T10:16:03Z</time>
      </trkpt>
      <trkpt lat="40.8386010" lon="0.1921270">
        <ele>484.0</ele>
        <time>2019-08-15T10:16:04Z</time>
      </trkpt>
      <trkpt lat="40.8385130" lon="0.1920770">
        <ele>484.0</ele>
        <time>2019-08-15T10:16:06Z</time>
      </trkpt>
      <trkpt lat="40.8384730" lon="0.1920560">
        <ele>484.0</ele>
        <time>2019-08-15T10:16:07Z</time>
      </trkpt>
      <trkpt lat="40.8384360" lon="0.1920370">
        <ele>484.0</ele>
        <time>2019-08-15T10:16:08Z</time>
      </trkpt>
      <trkpt lat="40.8384010" lon="0.1920240">
        <ele>484.0</ele>
        <time>2019-08-15T10:16:09Z</time>
      </trkpt>
      <trkpt lat="40.8383320" lon="0.1919980">
        <ele>484.0</ele>
        <time>2019-08-15T10:16:11Z</time>
      </trkpt>
      <trkpt lat="40.8383000" lon="0.1919860">
        <ele>484.0</ele>
        <time>2019-08-15T10:16:12Z</time>
      </trkpt>
      <trkpt lat="40.8382690" lon="0.1919740">
        <ele>484.0</ele>
        <time>2019-08-15T10:16:13Z</time>
      </trkpt>
      <trkpt lat="40.8382390" lon="0.1919640">
        <ele>484.0</ele>
        <time>2019-08-15T10:16:14Z</time>
      </trkpt>
      <trkpt lat="40.8381860" lon="0.1919420">
        <ele>484.0</ele>
        <time>2019-08-15T10:16:16Z</time>
      </trkpt>
      <trkpt lat="40.8381590" lon="0.1919340">
        <ele>484.0</ele>
        <time>2019-08-15T10:16:17Z</time>
      </trkpt>
      <trkpt lat="40.8381320" lon="0.1919270">
        <ele>484.0</ele>
        <time>2019-08-15T10:16:18Z</time>
      </trkpt>
      <trkpt lat="40.8381040" lon="0.1919230">
        <ele>484.0</ele>
        <time>2019-08-15T10:16:19Z</time>
      </trkpt>
      <trkpt lat="40.8380550" lon="0.1919130">
        <ele>484.0</ele>
        <time>2019-08-15T10:16:21Z</time>
      </trkpt>
      <trkpt lat="40.8380300" lon="0.1919040">
        <ele>484.0</ele>
        <time>2019-08-15T10:16:22Z</time>
      </trkpt>
      <trkpt lat="40.8380060" lon="0.1918950">
        <ele>485.0</ele>
        <time>2019-08-15T10:16:23Z</time>
      </trkpt>
      <trkpt lat="40.8379840" lon="0.1918870">
        <ele>485.0</ele>
        <time>2019-08-15T10:16:24Z</time>
      </trkpt>
      <trkpt lat="40.8379410" lon="0.1918730">
        <ele>485.0</ele>
        <time>2019-08-15T10:16:26Z</time>
      </trkpt>
      <trkpt lat="40.8379200" lon="0.1918660">
        <ele>485.0</ele>
        <time>2019-08-15T10:16:27Z</time>
      </trkpt>
      <trkpt lat="40.8378990" lon="0.1918600">
        <ele>485.0</ele>
        <time>2019-08-15T10:16:28Z</time>
      </trkpt>
      <trkpt lat="40.8378780" lon="0.1918510">
        <ele>485.0</ele>
        <time>2019-08-15T10:16:29Z</time>
      </trkpt>
      <trkpt lat="40.8378450" lon="0.1918260">
        <ele>485.0</ele>
        <time>2019-08-15T10:16:31Z</time>
      </trkpt>
      <trkpt lat="40.8378290" lon="0.1918090">
        <ele>485.0</ele>
        <time>2019-08-15T10:16:32Z</time>
      </trkpt>
      <trkpt lat="40.8378150" lon="0.1917930">
        <ele>486.0</ele>
        <time>2019-08-15T10:16:33Z</time>
      </trkpt>
      <trkpt lat="40.8378010" lon="0.1917760">
        <ele>486.0</ele>
        <time>2019-08-15T10:16:34Z</time>
      </trkpt>
      <trkpt lat="40.8377720" lon="0.1917400">
        <ele>486.0</ele>
        <time>2019-08-15T10:16:36Z</time>
      </trkpt>
      <trkpt lat="40.8377600" lon="0.1917200">
        <ele>486.0</ele>
        <time>2019-08-15T10:16:37Z</time>
      </trkpt>
      <trkpt lat="40.8377510" lon="0.1916950">
        <ele>487.0</ele>
        <time>2019-08-15T10:16:38Z</time>
      </trkpt>
      <trkpt lat="40.8377430" lon="0.1916700">
        <ele>487.0</ele>
        <time>2019-08-15T10:16:39Z</time>
      </trkpt>
      <trkpt lat="40.8377290" lon="0.1916140">
        <ele>487.0</ele>
        <time>2019-08-15T10:16:41Z</time>
      </trkpt>
      <trkpt lat="40.8377270" lon="0.1916040">
        <ele>488.0</ele>
        <time>2019-08-15T10:16:42Z</time>
      </trkpt>
      <trkpt lat="40.8377240" lon="0.1915830">
        <ele>488.0</ele>
        <time>2019-08-15T10:16:43Z</time>
      </trkpt>
      <trkpt lat="40.8377210" lon="0.1915610">
        <ele>488.0</ele>
        <time>2019-08-15T10:16:44Z</time>
      </trkpt>
      <trkpt lat="40.8377170" lon="0.1915400">
        <ele>488.0</ele>
        <time>2019-08-15T10:16:45Z</time>
      </trkpt>
      <trkpt lat="40.8377140" lon="0.1915210">
        <ele>488.0</ele>
        <time>2019-08-15T10:16:46Z</time>
      </trkpt>
      <trkpt lat="40.8377100" lon="0.1915010">
        <ele>489.0</ele>
        <time>2019-08-15T10:16:47Z</time>
      </trkpt>
      <trkpt lat="40.8377020" lon="0.1914820">
        <ele>489.0</ele>
        <time>2019-08-15T10:16:48Z</time>
      </trkpt>
      <trkpt lat="40.8376920" lon="0.1914660">
        <ele>489.0</ele>
        <time>2019-08-15T10:16:49Z</time>
      </trkpt>
      <trkpt lat="40.8376850" lon="0.1914500">
        <ele>489.0</ele>
        <time>2019-08-15T10:16:50Z</time>
      </trkpt>
      <trkpt lat="40.8376780" lon="0.1914340">
        <ele>489.0</ele>
        <time>2019-08-15T10:16:51Z</time>
      </trkpt>
      <trkpt lat="40.8376780" lon="0.1914150">
        <ele>489.0</ele>
        <time>2019-08-15T10:16:52Z</time>
      </trkpt>
      <trkpt lat="40.8376770" lon="0.1913950">
        <ele>490.0</ele>
        <time>2019-08-15T10:16:53Z</time>
      </trkpt>
      <trkpt lat="40.8376740" lon="0.1913740">
        <ele>490.0</ele>
        <time>2019-08-15T10:16:54Z</time>
      </trkpt>
      <trkpt lat="40.8376700" lon="0.1913550">
        <ele>490.0</ele>
        <time>2019-08-15T10:16:55Z</time>
      </trkpt>
      <trkpt lat="40.8376630" lon="0.1913390">
        <ele>490.0</ele>
        <time>2019-08-15T10:16:56Z</time>
      </trkpt>
      <trkpt lat="40.8376550" lon="0.1913230">
        <ele>490.0</ele>
        <time>2019-08-15T10:16:57Z</time>
      </trkpt>
      <trkpt lat="40.8376490" lon="0.1913070">
        <ele>490.0</ele>
        <time>2019-08-15T10:16:58Z</time>
      </trkpt>
      <trkpt lat="40.8376380" lon="0.1912960">
        <ele>490.0</ele>
        <time>2019-08-15T10:16:59Z</time>
      </trkpt>
      <trkpt lat="40.8376270" lon="0.1912850">
        <ele>490.0</ele>
        <time>2019-08-15T10:17:00Z</time>
      </trkpt>
      <trkpt lat="40.8375970" lon="0.1912460">
        <ele>491.0</ele>
        <time>2019-08-15T10:17:03Z</time>
      </trkpt>
      <trkpt lat="40.8375880" lon="0.1912360">
        <ele>491.0</ele>
        <time>2019-08-15T10:17:04Z</time>
      </trkpt>
      <trkpt lat="40.8375800" lon="0.1912230">
        <ele>491.0</ele>
        <time>2019-08-15T10:17:05Z</time>
      </trkpt>
      <trkpt lat="40.8375490" lon="0.1911910">
        <ele>491.0</ele>
        <time>2019-08-15T10:17:08Z</time>
      </trkpt>
      <trkpt lat="40.8375400" lon="0.1911770">
        <ele>492.0</ele>
        <time>2019-08-15T10:17:09Z</time>
      </trkpt>
      <trkpt lat="40.8375320" lon="0.1911640">
        <ele>492.0</ele>
        <time>2019-08-15T10:17:10Z</time>
      </trkpt>
      <trkpt lat="40.8375200" lon="0.1911520">
        <ele>492.0</ele>
        <time>2019-08-15T10:17:11Z</time>
      </trkpt>
      <trkpt lat="40.8374990" lon="0.1911320">
        <ele>492.0</ele>
        <time>2019-08-15T10:17:13Z</time>
      </trkpt>
      <trkpt lat="40.8374850" lon="0.1911220">
        <ele>492.0</ele>
        <time>2019-08-15T10:17:14Z</time>
      </trkpt>
      <trkpt lat="40.8374720" lon="0.1911120">
        <ele>493.0</ele>
        <time>2019-08-15T10:17:15Z</time>
      </trkpt>
      <trkpt lat="40.8374610" lon="0.1911010">
        <ele>493.0</ele>
        <time>2019-08-15T10:17:16Z</time>
      </trkpt>
      <trkpt lat="40.8374390" lon="0.1910790">
        <ele>493.0</ele>
        <time>2019-08-15T10:17:18Z</time>
      </trkpt>
      <trkpt lat="40.8374270" lon="0.1910690">
        <ele>493.0</ele>
        <time>2019-08-15T10:17:19Z</time>
      </trkpt>
      <trkpt lat="40.8374150" lon="0.1910580">
        <ele>493.0</ele>
        <time>2019-08-15T10:17:20Z</time>
      </trkpt>
      <trkpt lat="40.8374040" lon="0.1910480">
        <ele>493.0</ele>
        <time>2019-08-15T10:17:21Z</time>
      </trkpt>
      <trkpt lat="40.8373830" lon="0.1910290">
        <ele>494.0</ele>
        <time>2019-08-15T10:17:23Z</time>
      </trkpt>
      <trkpt lat="40.8373710" lon="0.1910220">
        <ele>494.0</ele>
        <time>2019-08-15T10:17:24Z</time>
      </trkpt>
      <trkpt lat="40.8373600" lon="0.1910110">
        <ele>494.0</ele>
        <time>2019-08-15T10:17:25Z</time>
      </trkpt>
      <trkpt lat="40.8373480" lon="0.1910010">
        <ele>494.0</ele>
        <time>2019-08-15T10:17:26Z</time>
      </trkpt>
      <trkpt lat="40.8373260" lon="0.1909690">
        <ele>495.0</ele>
        <time>2019-08-15T10:17:28Z</time>
      </trkpt>
      <trkpt lat="40.8373150" lon="0.1909510">
        <ele>495.0</ele>
        <time>2019-08-15T10:17:29Z</time>
      </trkpt>
      <trkpt lat="40.8373060" lon="0.1909360">
        <ele>495.0</ele>
        <time>2019-08-15T10:17:30Z</time>
      </trkpt>
      <trkpt lat="40.8372950" lon="0.1909210">
        <ele>495.0</ele>
        <time>2019-08-15T10:17:31Z</time>
      </trkpt>
      <trkpt lat="40.8372730" lon="0.1908900">
        <ele>495.0</ele>
        <time>2019-08-15T10:17:33Z</time>
      </trkpt>
      <trkpt lat="40.8372630" lon="0.1908760">
        <ele>496.0</ele>
        <time>2019-08-15T10:17:34Z</time>
      </trkpt>
      <trkpt lat="40.8372540" lon="0.1908640">
        <ele>496.0</ele>
        <time>2019-08-15T10:17:35Z</time>
      </trkpt>
      <trkpt lat="40.8372460" lon="0.1908520">
        <ele>496.0</ele>
        <time>2019-08-15T10:17:36Z</time>
      </trkpt>
      <trkpt lat="40.8372350" lon="0.1908240">
        <ele>497.0</ele>
        <time>2019-08-15T10:17:38Z</time>
      </trkpt>
      <trkpt lat="40.8372270" lon="0.1908120">
        <ele>497.0</ele>
        <time>2019-08-15T10:17:39Z</time>
      </trkpt>
      <trkpt lat="40.8372210" lon="0.1907980">
        <ele>497.0</ele>
        <time>2019-08-15T10:17:40Z</time>
      </trkpt>
      <trkpt lat="40.8372140" lon="0.1907830">
        <ele>497.0</ele>
        <time>2019-08-15T10:17:41Z</time>
      </trkpt>
      <trkpt lat="40.8372020" lon="0.1907510">
        <ele>498.0</ele>
        <time>2019-08-15T10:17:43Z</time>
      </trkpt>
      <trkpt lat="40.8371970" lon="0.1907350">
        <ele>498.0</ele>
        <time>2019-08-15T10:17:44Z</time>
      </trkpt>
      <trkpt lat="40.8371890" lon="0.1907220">
        <ele>498.0</ele>
        <time>2019-08-15T10:17:45Z</time>
      </trkpt>
      <trkpt lat="40.8371820" lon="0.1907100">
        <ele>498.0</ele>
        <time>2019-08-15T10:17:46Z</time>
      </trkpt>
      <trkpt lat="40.8371630" lon="0.1906870">
        <ele>499.0</ele>
        <time>2019-08-15T10:17:48Z</time>
      </trkpt>
      <trkpt lat="40.8371510" lon="0.1906760">
        <ele>499.0</ele>
        <time>2019-08-15T10:17:49Z</time>
      </trkpt>
      <trkpt lat="40.8371440" lon="0.1906650">
        <ele>499.0</ele>
        <time>2019-08-15T10:17:50Z</time>
      </trkpt>
      <trkpt lat="40.8371320" lon="0.1906570">
        <ele>499.0</ele>
        <time>2019-08-15T10:17:51Z</time>
      </trkpt>
      <trkpt lat="40.8371110" lon="0.1906400">
        <ele>499.0</ele>
        <time>2019-08-15T10:17:53Z</time>
      </trkpt>
      <trkpt lat="40.8371000" lon="0.1906270">
        <ele>500.0</ele>
        <time>2019-08-15T10:17:54Z</time>
      </trkpt>
      <trkpt lat="40.8370880" lon="0.1906150">
        <ele>500.0</ele>
        <time>2019-08-15T10:17:55Z</time>
      </trkpt>
      <trkpt lat="40.8370740" lon="0.1906060">
        <ele>500.0</ele>
        <time>2019-08-15T10:17:56Z</time>
      </trkpt>
      <trkpt lat="40.8370490" lon="0.1905900">
        <ele>500.0</ele>
        <time>2019-08-15T10:17:58Z</time>
      </trkpt>
      <trkpt lat="40.8370350" lon="0.1905800">
        <ele>500.0</ele>
        <time>2019-08-15T10:17:59Z</time>
      </trkpt>
      <trkpt lat="40.8370210" lon="0.1905710">
        <ele>500.0</ele>
        <time>2019-08-15T10:18:00Z</time>
      </trkpt>
      <trkpt lat="40.8370060" lon="0.1905620">
        <ele>500.0</ele>
        <time>2019-08-15T10:18:01Z</time>
      </trkpt>
      <trkpt lat="40.8369750" lon="0.1905410">
        <ele>501.0</ele>
        <time>2019-08-15T10:18:03Z</time>
      </trkpt>
      <trkpt lat="40.8369600" lon="0.1905310">
        <ele>501.0</ele>
        <time>2019-08-15T10:18:04Z</time>
      </trkpt>
      <trkpt lat="40.8369460" lon="0.1905200">
        <ele>501.0</ele>
        <time>2019-08-15T10:18:05Z</time>
      </trkpt>
      <trkpt lat="40.8369310" lon="0.1905090">
        <ele>501.0</ele>
        <time>2019-08-15T10:18:06Z</time>
      </trkpt>
      <trkpt lat="40.8369040" lon="0.1904860">
        <ele>501.0</ele>
        <time>2019-08-15T10:18:08Z</time>
      </trkpt>
      <trkpt lat="40.8368910" lon="0.1904780">
        <ele>501.0</ele>
        <time>2019-08-15T10:18:09Z</time>
      </trkpt>
      <trkpt lat="40.8368790" lon="0.1904700">
        <ele>502.0</ele>
        <time>2019-08-15T10:18:10Z</time>
      </trkpt>
      <trkpt lat="40.8368670" lon="0.1904590">
        <ele>502.0</ele>
        <time>2019-08-15T10:18:11Z</time>
      </trkpt>
      <trkpt lat="40.8368470" lon="0.1904400">
        <ele>502.0</ele>
        <time>2019-08-15T10:18:13Z</time>
      </trkpt>
      <trkpt lat="40.8368360" lon="0.1904320">
        <ele>502.0</ele>
        <time>2019-08-15T10:18:14Z</time>
      </trkpt>
      <trkpt lat="40.8368250" lon="0.1904240">
        <ele>502.0</ele>
        <time>2019-08-15T10:18:15Z</time>
      </trkpt>
      <trkpt lat="40.8368130" lon="0.1904150">
        <ele>502.0</ele>
        <time>2019-08-15T10:18:16Z</time>
      </trkpt>
      <trkpt lat="40.8367930" lon="0.1903990">
        <ele>503.0</ele>
        <time>2019-08-15T10:18:18Z</time>
      </trkpt>
      <trkpt lat="40.8367830" lon="0.1903900">
        <ele>503.0</ele>
        <time>2019-08-15T10:18:19Z</time>
      </trkpt>
      <trkpt lat="40.8367720" lon="0.1903790">
        <ele>503.0</ele>
        <time>2019-08-15T10:18:20Z</time>
      </trkpt>
      <trkpt lat="40.8367630" lon="0.1903670">
        <ele>503.0</ele>
        <time>2019-08-15T10:18:21Z</time>
      </trkpt>
      <trkpt lat="40.8367420" lon="0.1903460">
        <ele>503.0</ele>
        <time>2019-08-15T10:18:23Z</time>
      </trkpt>
      <trkpt lat="40.8367330" lon="0.1903370">
        <ele>503.0</ele>
        <time>2019-08-15T10:18:24Z</time>
      </trkpt>
      <trkpt lat="40.8367250" lon="0.1903270">
        <ele>503.0</ele>
        <time>2019-08-15T10:18:25Z</time>
      </trkpt>
      <trkpt lat="40.8367170" lon="0.1903160">
        <ele>503.0</ele>
        <time>2019-08-15T10:18:26Z</time>
      </trkpt>
      <trkpt lat="40.8366980" lon="0.1902990">
        <ele>504.0</ele>
        <time>2019-08-15T10:18:28Z</time>
      </trkpt>
      <trkpt lat="40.8366870" lon="0.1902890">
        <ele>504.0</ele>
        <time>2019-08-15T10:18:29Z</time>
      </trkpt>
      <trkpt lat="40.8366760" lon="0.1902820">
        <ele>504.0</ele>
        <time>2019-08-15T10:18:30Z</time>
      </trkpt>
      <trkpt lat="40.8366620" lon="0.1902730">
        <ele>504.0</ele>
        <time>2019-08-15T10:18:31Z</time>
      </trkpt>
      <trkpt lat="40.8366410" lon="0.1902550">
        <ele>504.0</ele>
        <time>2019-08-15T10:18:33Z</time>
      </trkpt>
      <trkpt lat="40.8366290" lon="0.1902460">
        <ele>504.0</ele>
        <time>2019-08-15T10:18:34Z</time>
      </trkpt>
      <trkpt lat="40.8366180" lon="0.1902370">
        <ele>504.0</ele>
        <time>2019-08-15T10:18:35Z</time>
      </trkpt>
      <trkpt lat="40.8366070" lon="0.1902270">
        <ele>505.0</ele>
        <time>2019-08-15T10:18:36Z</time>
      </trkpt>
      <trkpt lat="40.8365880" lon="0.1902050">
        <ele>505.0</ele>
        <time>2019-08-15T10:18:38Z</time>
      </trkpt>
      <trkpt lat="40.8365760" lon="0.1901960">
        <ele>505.0</ele>
        <time>2019-08-15T10:18:39Z</time>
      </trkpt>
      <trkpt lat="40.8365650" lon="0.1901890">
        <ele>505.0</ele>
        <time>2019-08-15T10:18:40Z</time>
      </trkpt>
      <trkpt lat="40.8365540" lon="0.1901810">
        <ele>505.0</ele>
        <time>2019-08-15T10:18:41Z</time>
      </trkpt>
      <trkpt lat="40.8365340" lon="0.1901600">
        <ele>505.0</ele>
        <time>2019-08-15T10:18:43Z</time>
      </trkpt>
      <trkpt lat="40.8365240" lon="0.1901480">
        <ele>505.0</ele>
        <time>2019-08-15T10:18:44Z</time>
      </trkpt>
      <trkpt lat="40.8365130" lon="0.1901390">
        <ele>505.0</ele>
        <time>2019-08-15T10:18:45Z</time>
      </trkpt>
      <trkpt lat="40.8365010" lon="0.1901330">
        <ele>506.0</ele>
        <time>2019-08-15T10:18:46Z</time>
      </trkpt>
      <trkpt lat="40.8364780" lon="0.1901190">
        <ele>506.0</ele>
        <time>2019-08-15T10:18:48Z</time>
      </trkpt>
      <trkpt lat="40.8364680" lon="0.1901120">
        <ele>506.0</ele>
        <time>2019-08-15T10:18:49Z</time>
      </trkpt>
      <trkpt lat="40.8364580" lon="0.1901020">
        <ele>506.0</ele>
        <time>2019-08-15T10:18:50Z</time>
      </trkpt>
      <trkpt lat="40.8364490" lon="0.1900940">
        <ele>506.0</ele>
        <time>2019-08-15T10:18:51Z</time>
      </trkpt>
      <trkpt lat="40.8364290" lon="0.1900740">
        <ele>506.0</ele>
        <time>2019-08-15T10:18:53Z</time>
      </trkpt>
      <trkpt lat="40.8364180" lon="0.1900660">
        <ele>506.0</ele>
        <time>2019-08-15T10:18:54Z</time>
      </trkpt>
      <trkpt lat="40.8364070" lon="0.1900550">
        <ele>506.0</ele>
        <time>2019-08-15T10:18:55Z</time>
      </trkpt>
      <trkpt lat="40.8363990" lon="0.1900410">
        <ele>506.0</ele>
        <time>2019-08-15T10:18:56Z</time>
      </trkpt>
      <trkpt lat="40.8363850" lon="0.1900140">
        <ele>507.0</ele>
        <time>2019-08-15T10:18:58Z</time>
      </trkpt>
      <trkpt lat="40.8363810" lon="0.1900000">
        <ele>507.0</ele>
        <time>2019-08-15T10:18:59Z</time>
      </trkpt>
      <trkpt lat="40.8363750" lon="0.1899860">
        <ele>507.0</ele>
        <time>2019-08-15T10:19:00Z</time>
      </trkpt>
      <trkpt lat="40.8363670" lon="0.1899730">
        <ele>507.0</ele>
        <time>2019-08-15T10:19:01Z</time>
      </trkpt>
      <trkpt lat="40.8363490" lon="0.1899430">
        <ele>507.0</ele>
        <time>2019-08-15T10:19:03Z</time>
      </trkpt>
      <trkpt lat="40.8363410" lon="0.1899270">
        <ele>507.0</ele>
        <time>2019-08-15T10:19:04Z</time>
      </trkpt>
      <trkpt lat="40.8363330" lon="0.1899100">
        <ele>508.0</ele>
        <time>2019-08-15T10:19:05Z</time>
      </trkpt>
      <trkpt lat="40.8363240" lon="0.1898940">
        <ele>508.0</ele>
        <time>2019-08-15T10:19:06Z</time>
      </trkpt>
      <trkpt lat="40.8363060" lon="0.1898630">
        <ele>508.0</ele>
        <time>2019-08-15T10:19:08Z</time>
      </trkpt>
      <trkpt lat="40.8362980" lon="0.1898510">
        <ele>508.0</ele>
        <time>2019-08-15T10:19:09Z</time>
      </trkpt>
      <trkpt lat="40.8362910" lon="0.1898370">
        <ele>508.0</ele>
        <time>2019-08-15T10:19:10Z</time>
      </trkpt>
      <trkpt lat="40.8362800" lon="0.1898240">
        <ele>508.0</ele>
        <time>2019-08-15T10:19:11Z</time>
      </trkpt>
      <trkpt lat="40.8362490" lon="0.1898010">
        <ele>508.0</ele>
        <time>2019-08-15T10:19:13Z</time>
      </trkpt>
      <trkpt lat="40.8362330" lon="0.1897930">
        <ele>508.0</ele>
        <time>2019-08-15T10:19:14Z</time>
      </trkpt>
      <trkpt lat="40.8362180" lon="0.1897830">
        <ele>509.0</ele>
        <time>2019-08-15T10:19:15Z</time>
      </trkpt>
      <trkpt lat="40.8362010" lon="0.1897740">
        <ele>509.0</ele>
        <time>2019-08-15T10:19:16Z</time>
      </trkpt>
      <trkpt lat="40.8361680" lon="0.1897530">
        <ele>509.0</ele>
        <time>2019-08-15T10:19:18Z</time>
      </trkpt>
      <trkpt lat="40.8361520" lon="0.1897400">
        <ele>509.0</ele>
        <time>2019-08-15T10:19:19Z</time>
      </trkpt>
      <trkpt lat="40.8361350" lon="0.1897280">
        <ele>509.0</ele>
        <time>2019-08-15T10:19:20Z</time>
      </trkpt>
      <trkpt lat="40.8361140" lon="0.1897180">
        <ele>509.0</ele>
        <time>2019-08-15T10:19:21Z</time>
      </trkpt>
      <trkpt lat="40.8360720" lon="0.1896900">
        <ele>509.0</ele>
        <time>2019-08-15T10:19:23Z</time>
      </trkpt>
      <trkpt lat="40.8360510" lon="0.1896760">
        <ele>509.0</ele>
        <time>2019-08-15T10:19:24Z</time>
      </trkpt>
      <trkpt lat="40.8360280" lon="0.1896600">
        <ele>509.0</ele>
        <time>2019-08-15T10:19:25Z</time>
      </trkpt>
      <trkpt lat="40.8360050" lon="0.1896430">
        <ele>509.0</ele>
        <time>2019-08-15T10:19:26Z</time>
      </trkpt>
      <trkpt lat="40.8359550" lon="0.1896050">
        <ele>509.0</ele>
        <time>2019-08-15T10:19:28Z</time>
      </trkpt>
      <trkpt lat="40.8359290" lon="0.1895850">
        <ele>509.0</ele>
        <time>2019-08-15T10:19:29Z</time>
      </trkpt>
      <trkpt lat="40.8359030" lon="0.1895660">
        <ele>509.0</ele>
        <time>2019-08-15T10:19:30Z</time>
      </trkpt>
      <trkpt lat="40.8358780" lon="0.1895480">
        <ele>509.0</ele>
        <time>2019-08-15T10:19:31Z</time>
      </trkpt>
      <trkpt lat="40.8358310" lon="0.1895140">
        <ele>509.0</ele>
        <time>2019-08-15T10:19:33Z</time>
      </trkpt>
      <trkpt lat="40.8358080" lon="0.1894960">
        <ele>509.0</ele>
        <time>2019-08-15T10:19:34Z</time>
      </trkpt>
      <trkpt lat="40.8357880" lon="0.1894740">
        <ele>509.0</ele>
        <time>2019-08-15T10:19:35Z</time>
      </trkpt>
      <trkpt lat="40.8357670" lon="0.1894540">
        <ele>509.0</ele>
        <time>2019-08-15T10:19:36Z</time>
      </trkpt>
      <trkpt lat="40.8357250" lon="0.1894210">
        <ele>509.0</ele>
        <time>2019-08-15T10:19:38Z</time>
      </trkpt>
      <trkpt lat="40.8357050" lon="0.1894070">
        <ele>509.0</ele>
        <time>2019-08-15T10:19:39Z</time>
      </trkpt>
      <trkpt lat="40.8356850" lon="0.1893950">
        <ele>509.0</ele>
        <time>2019-08-15T10:19:40Z</time>
      </trkpt>
      <trkpt lat="40.8356670" lon="0.1893840">
        <ele>509.0</ele>
        <time>2019-08-15T10:19:41Z</time>
      </trkpt>
      <trkpt lat="40.8356280" lon="0.1893590">
        <ele>509.0</ele>
        <time>2019-08-15T10:19:43Z</time>
      </trkpt>
      <trkpt lat="40.8356080" lon="0.1893490">
        <ele>509.0</ele>
        <time>2019-08-15T10:19:44Z</time>
      </trkpt>
      <trkpt lat="40.8355890" lon="0.1893390">
        <ele>509.0</ele>
        <time>2019-08-15T10:19:45Z</time>
      </trkpt>
      <trkpt lat="40.8355700" lon="0.1893310">
        <ele>509.0</ele>
        <time>2019-08-15T10:19:46Z</time>
      </trkpt>
      <trkpt lat="40.8355350" lon="0.1893270">
        <ele>509.0</ele>
        <time>2019-08-15T10:19:48Z</time>
      </trkpt>
      <trkpt lat="40.8355160" lon="0.1893280">
        <ele>510.0</ele>
        <time>2019-08-15T10:19:49Z</time>
      </trkpt>
      <trkpt lat="40.8354970" lon="0.1893310">
        <ele>510.0</ele>
        <time>2019-08-15T10:19:50Z</time>
      </trkpt>
      <trkpt lat="40.8354810" lon="0.1893360">
        <ele>510.0</ele>
        <time>2019-08-15T10:19:51Z</time>
      </trkpt>
      <trkpt lat="40.8354470" lon="0.1893670">
        <ele>511.0</ele>
        <time>2019-08-15T10:19:53Z</time>
      </trkpt>
      <trkpt lat="40.8354410" lon="0.1893730">
        <ele>511.0</ele>
        <time>2019-08-15T10:19:54Z</time>
      </trkpt>
      <trkpt lat="40.8354310" lon="0.1893880">
        <ele>511.0</ele>
        <time>2019-08-15T10:19:55Z</time>
      </trkpt>
      <trkpt lat="40.8354210" lon="0.1894030">
        <ele>511.0</ele>
        <time>2019-08-15T10:19:56Z</time>
      </trkpt>
      <trkpt lat="40.8354130" lon="0.1894200">
        <ele>512.0</ele>
        <time>2019-08-15T10:19:57Z</time>
      </trkpt>
      <trkpt lat="40.8354090" lon="0.1894370">
        <ele>512.0</ele>
        <time>2019-08-15T10:19:58Z</time>
      </trkpt>
      <trkpt lat="40.8354090" lon="0.1894530">
        <ele>512.0</ele>
        <time>2019-08-15T10:19:59Z</time>
      </trkpt>
      <trkpt lat="40.8354100" lon="0.1894690">
        <ele>512.0</ele>
        <time>2019-08-15T10:20:00Z</time>
      </trkpt>
      <trkpt lat="40.8354130" lon="0.1894810">
        <ele>513.0</ele>
        <time>2019-08-15T10:20:01Z</time>
      </trkpt>
      <trkpt lat="40.8354160" lon="0.1894960">
        <ele>513.0</ele>
        <time>2019-08-15T10:20:02Z</time>
      </trkpt>
      <trkpt lat="40.8354180" lon="0.1895110">
        <ele>513.0</ele>
        <time>2019-08-15T10:20:03Z</time>
      </trkpt>
      <trkpt lat="40.8354200" lon="0.1895250">
        <ele>513.0</ele>
        <time>2019-08-15T10:20:04Z</time>
      </trkpt>
      <trkpt lat="40.8354220" lon="0.1895410">
        <ele>513.0</ele>
        <time>2019-08-15T10:20:05Z</time>
      </trkpt>
      <trkpt lat="40.8354230" lon="0.1895550">
        <ele>514.0</ele>
        <time>2019-08-15T10:20:06Z</time>
      </trkpt>
      <trkpt lat="40.8354240" lon="0.1895670">
        <ele>514.0</ele>
        <time>2019-08-15T10:20:07Z</time>
      </trkpt>
      <trkpt lat="40.8354240" lon="0.1895710">
        <ele>514.0</ele>
        <time>2019-08-15T10:20:08Z</time>
      </trkpt>
      <trkpt lat="40.8354200" lon="0.1896960">
        <ele>515.0</ele>
        <time>2019-08-15T10:20:21Z</time>
      </trkpt>
      <trkpt lat="40.8354210" lon="0.1897070">
        <ele>516.0</ele>
        <time>2019-08-15T10:20:23Z</time>
      </trkpt>
      <trkpt lat="40.8354230" lon="0.1897190">
        <ele>516.0</ele>
        <time>2019-08-15T10:20:24Z</time>
      </trkpt>
      <trkpt lat="40.8354220" lon="0.1897320">
        <ele>516.0</ele>
        <time>2019-08-15T10:20:25Z</time>
      </trkpt>
      <trkpt lat="40.8354200" lon="0.1897670">
        <ele>516.0</ele>
        <time>2019-08-15T10:20:28Z</time>
      </trkpt>
      <trkpt lat="40.8354180" lon="0.1898000">
        <ele>517.0</ele>
        <time>2019-08-15T10:20:31Z</time>
      </trkpt>
      <trkpt lat="40.8354170" lon="0.1898130">
        <ele>517.0</ele>
        <time>2019-08-15T10:20:32Z</time>
      </trkpt>
      <trkpt lat="40.8353270" lon="0.1900430">
        <ele>520.0</ele>
        <time>2019-08-15T10:20:55Z</time>
      </trkpt>
      <trkpt lat="40.8353200" lon="0.1900500">
        <ele>520.0</ele>
        <time>2019-08-15T10:20:57Z</time>
      </trkpt>
      <trkpt lat="40.8353160" lon="0.1900560">
        <ele>520.0</ele>
        <time>2019-08-15T10:20:58Z</time>
      </trkpt>
      <trkpt lat="40.8353120" lon="0.1900610">
        <ele>520.0</ele>
        <time>2019-08-15T10:20:59Z</time>
      </trkpt>
      <trkpt lat="40.8349300" lon="0.1900060">
        <ele>526.0</ele>
        <time>2019-08-15T10:22:02Z</time>
      </trkpt>
      <trkpt lat="40.8349200" lon="0.1900060">
        <ele>526.0</ele>
        <time>2019-08-15T10:22:04Z</time>
      </trkpt>
      <trkpt lat="40.8349100" lon="0.1900040">
        <ele>526.0</ele>
        <time>2019-08-15T10:22:05Z</time>
      </trkpt>
      <trkpt lat="40.8348880" lon="0.1899990">
        <ele>526.0</ele>
        <time>2019-08-15T10:22:07Z</time>
      </trkpt>
      <trkpt lat="40.8348790" lon="0.1899950">
        <ele>526.0</ele>
        <time>2019-08-15T10:22:08Z</time>
      </trkpt>
      <trkpt lat="40.8348700" lon="0.1899920">
        <ele>526.0</ele>
        <time>2019-08-15T10:22:09Z</time>
      </trkpt>
      <trkpt lat="40.8348460" lon="0.1899800">
        <ele>527.0</ele>
        <time>2019-08-15T10:22:12Z</time>
      </trkpt>
      <trkpt lat="40.8347090" lon="0.1898530">
        <ele>529.0</ele>
        <time>2019-08-15T10:22:31Z</time>
      </trkpt>
      <trkpt lat="40.8347040" lon="0.1898450">
        <ele>529.0</ele>
        <time>2019-08-15T10:22:33Z</time>
      </trkpt>
      <trkpt lat="40.8346980" lon="0.1898370">
        <ele>529.0</ele>
        <time>2019-08-15T10:22:34Z</time>
      </trkpt>
      <trkpt lat="40.8346900" lon="0.1898310">
        <ele>529.0</ele>
        <time>2019-08-15T10:22:35Z</time>
      </trkpt>
      <trkpt lat="40.8346740" lon="0.1898210">
        <ele>529.0</ele>
        <time>2019-08-15T10:22:37Z</time>
      </trkpt>
      <trkpt lat="40.8345520" lon="0.1898520">
        <ele>531.0</ele>
        <time>2019-08-15T10:22:59Z</time>
      </trkpt>
      <trkpt lat="40.8345500" lon="0.1898900">
        <ele>531.0</ele>
        <time>2019-08-15T10:23:01Z</time>
      </trkpt>
      <trkpt lat="40.8345460" lon="0.1899420">
        <ele>531.0</ele>
        <time>2019-08-15T10:23:02Z</time>
      </trkpt>
      <trkpt lat="40.8345450" lon="0.1900050">
        <ele>531.0</ele>
        <time>2019-08-15T10:23:03Z</time>
      </trkpt>
      <trkpt lat="40.8345580" lon="0.1900730">
        <ele>530.0</ele>
        <time>2019-08-15T10:23:04Z</time>
      </trkpt>
      <trkpt lat="40.8345830" lon="0.1901450">
        <ele>530.0</ele>
        <time>2019-08-15T10:23:05Z</time>
      </trkpt>
      <trkpt lat="40.8346150" lon="0.1902240">
        <ele>530.0</ele>
        <time>2019-08-15T10:23:06Z</time>
      </trkpt>
      <trkpt lat="40.8346510" lon="0.1903040">
        <ele>530.0</ele>
        <time>2019-08-15T10:23:07Z</time>
      </trkpt>
      <trkpt lat="40.8346890" lon="0.1903850">
        <ele>530.0</ele>
        <time>2019-08-15T10:23:08Z</time>
      </trkpt>
      <trkpt lat="40.8347330" lon="0.1904540">
        <ele>529.0</ele>
        <time>2019-08-15T10:23:09Z</time>
      </trkpt>
      <trkpt lat="40.8347810" lon="0.1905070">
        <ele>529.0</ele>
        <time>2019-08-15T10:23:10Z</time>
      </trkpt>
      <trkpt lat="40.8348280" lon="0.1905510">
        <ele>529.0</ele>
        <time>2019-08-15T10:23:11Z</time>
      </trkpt>
      <trkpt lat="40.8348690" lon="0.1905990">
        <ele>529.0</ele>
        <time>2019-08-15T10:23:12Z</time>
      </trkpt>
      <trkpt lat="40.8349060" lon="0.1906480">
        <ele>529.0</ele>
        <time>2019-08-15T10:23:13Z</time>
      </trkpt>
      <trkpt lat="40.8349290" lon="0.1906980">
        <ele>528.0</ele>
        <time>2019-08-15T10:23:14Z</time>
      </trkpt>
      <trkpt lat="40.8349480" lon="0.1907460">
        <ele>528.0</ele>
        <time>2019-08-15T10:23:15Z</time>
      </trkpt>
      <trkpt lat="40.8349670" lon="0.1907940">
        <ele>528.0</ele>
        <time>2019-08-15T10:23:16Z</time>
      </trkpt>
      <trkpt lat="40.8349860" lon="0.1908420">
        <ele>528.0</ele>
        <time>2019-08-15T10:23:17Z</time>
      </trkpt>
      <trkpt lat="40.8350020" lon="0.1908940">
        <ele>528.0</ele>
        <time>2019-08-15T10:23:18Z</time>
      </trkpt>
      <trkpt lat="40.8350160" lon="0.1909450">
        <ele>528.0</ele>
        <time>2019-08-15T10:23:19Z</time>
      </trkpt>
      <trkpt lat="40.8350310" lon="0.1909950">
        <ele>528.0</ele>
        <time>2019-08-15T10:23:20Z</time>
      </trkpt>
      <trkpt lat="40.8350470" lon="0.1910440">
        <ele>528.0</ele>
        <time>2019-08-15T10:23:21Z</time>
      </trkpt>
      <trkpt lat="40.8350630" lon="0.1910940">
        <ele>527.0</ele>
        <time>2019-08-15T10:23:22Z</time>
      </trkpt>
      <trkpt lat="40.8350790" lon="0.1911430">
        <ele>527.0</ele>
        <time>2019-08-15T10:23:23Z</time>
      </trkpt>
      <trkpt lat="40.8350950" lon="0.1911910">
        <ele>527.0</ele>
        <time>2019-08-15T10:23:24Z</time>
      </trkpt>
      <trkpt lat="40.8351100" lon="0.1912350">
        <ele>528.0</ele>
        <time>2019-08-15T10:23:25Z</time>
      </trkpt>
      <trkpt lat="40.8351260" lon="0.1912780">
        <ele>528.0</ele>
        <time>2019-08-15T10:23:26Z</time>
      </trkpt>
      <trkpt lat="40.8351400" lon="0.1913200">
        <ele>528.0</ele>
        <time>2019-08-15T10:23:27Z</time>
      </trkpt>
      <trkpt lat="40.8351460" lon="0.1913580">
        <ele>528.0</ele>
        <time>2019-08-15T10:23:28Z</time>
      </trkpt>
      <trkpt lat="40.8351540" lon="0.1913930">
        <ele>528.0</ele>
        <time>2019-08-15T10:23:29Z</time>
      </trkpt>
      <trkpt lat="40.8351620" lon="0.1914260">
        <ele>528.0</ele>
        <time>2019-08-15T10:23:30Z</time>
      </trkpt>
      <trkpt lat="40.8351700" lon="0.1914600">
        <ele>528.0</ele>
        <time>2019-08-15T10:23:31Z</time>
      </trkpt>
      <trkpt lat="40.8351960" lon="0.1915470">
        <ele>529.0</ele>
        <time>2019-08-15T10:23:34Z</time>
      </trkpt>
      <trkpt lat="40.8352020" lon="0.1915750">
        <ele>529.0</ele>
        <time>2019-08-15T10:23:35Z</time>
      </trkpt>
      <trkpt lat="40.8352120" lon="0.1916020">
        <ele>529.0</ele>
        <time>2019-08-15T10:23:36Z</time>
      </trkpt>
      <trkpt lat="40.8352500" lon="0.1916770">
        <ele>529.0</ele>
        <time>2019-08-15T10:23:39Z</time>
      </trkpt>
      <trkpt lat="40.8352620" lon="0.1916980">
        <ele>530.0</ele>
        <time>2019-08-15T10:23:40Z</time>
      </trkpt>
      <trkpt lat="40.8352720" lon="0.1917150">
        <ele>530.0</ele>
        <time>2019-08-15T10:23:41Z</time>
      </trkpt>
      <trkpt lat="40.8352740" lon="0.1917180">
        <ele>530.0</ele>
        <time>2019-08-15T10:23:42Z</time>
      </trkpt>
      <trkpt lat="40.8352450" lon="0.1918200">
        <ele>530.0</ele>
        <time>2019-08-15T10:28:35Z</time>
      </trkpt>
      <trkpt lat="40.8352450" lon="0.1918620">
        <ele>530.0</ele>
        <time>2019-08-15T10:28:37Z</time>
      </trkpt>
      <trkpt lat="40.8352440" lon="0.1919120">
        <ele>530.0</ele>
        <time>2019-08-15T10:28:38Z</time>
      </trkpt>
      <trkpt lat="40.8352420" lon="0.1919650">
        <ele>530.0</ele>
        <time>2019-08-15T10:28:39Z</time>
      </trkpt>
      <trkpt lat="40.8352390" lon="0.1920170">
        <ele>530.0</ele>
        <time>2019-08-15T10:28:40Z</time>
      </trkpt>
      <trkpt lat="40.8352370" lon="0.1920710">
        <ele>529.0</ele>
        <time>2019-08-15T10:28:41Z</time>
      </trkpt>
      <trkpt lat="40.8352320" lon="0.1921350">
        <ele>529.0</ele>
        <time>2019-08-15T10:28:42Z</time>
      </trkpt>
      <trkpt lat="40.8352260" lon="0.1922050">
        <ele>529.0</ele>
        <time>2019-08-15T10:28:43Z</time>
      </trkpt>
      <trkpt lat="40.8352130" lon="0.1922860">
        <ele>529.0</ele>
        <time>2019-08-15T10:28:44Z</time>
      </trkpt>
      <trkpt lat="40.8351860" lon="0.1923720">
        <ele>528.0</ele>
        <time>2019-08-15T10:28:45Z</time>
      </trkpt>
      <trkpt lat="40.8351580" lon="0.1924540">
        <ele>528.0</ele>
        <time>2019-08-15T10:28:46Z</time>
      </trkpt>
      <trkpt lat="40.8351370" lon="0.1925380">
        <ele>528.0</ele>
        <time>2019-08-15T10:28:47Z</time>
      </trkpt>
      <trkpt lat="40.8351220" lon="0.1926230">
        <ele>527.0</ele>
        <time>2019-08-15T10:28:48Z</time>
      </trkpt>
      <trkpt lat="40.8351100" lon="0.1927050">
        <ele>527.0</ele>
        <time>2019-08-15T10:28:49Z</time>
      </trkpt>
      <trkpt lat="40.8351040" lon="0.1927850">
        <ele>527.0</ele>
        <time>2019-08-15T10:28:50Z</time>
      </trkpt>
      <trkpt lat="40.8351030" lon="0.1928610">
        <ele>526.0</ele>
        <time>2019-08-15T10:28:51Z</time>
      </trkpt>
      <trkpt lat="40.8351060" lon="0.1929340">
        <ele>526.0</ele>
        <time>2019-08-15T10:28:52Z</time>
      </trkpt>
      <trkpt lat="40.8351070" lon="0.1929990">
        <ele>525.0</ele>
        <time>2019-08-15T10:28:53Z</time>
      </trkpt>
      <trkpt lat="40.8351060" lon="0.1930590">
        <ele>525.0</ele>
        <time>2019-08-15T10:28:54Z</time>
      </trkpt>
      <trkpt lat="40.8351010" lon="0.1931200">
        <ele>525.0</ele>
        <time>2019-08-15T10:28:55Z</time>
      </trkpt>
      <trkpt lat="40.8351020" lon="0.1932610">
        <ele>524.0</ele>
        <time>2019-08-15T10:28:57Z</time>
      </trkpt>
      <trkpt lat="40.8351150" lon="0.1933410">
        <ele>524.0</ele>
        <time>2019-08-15T10:28:58Z</time>
      </trkpt>
      <trkpt lat="40.8351370" lon="0.1934290">
        <ele>524.0</ele>
        <time>2019-08-15T10:28:59Z</time>
      </trkpt>
      <trkpt lat="40.8352470" lon="0.1936380">
        <ele>523.0</ele>
        <time>2019-08-15T10:29:02Z</time>
      </trkpt>
      <trkpt lat="40.8352830" lon="0.1936980">
        <ele>523.0</ele>
        <time>2019-08-15T10:29:03Z</time>
      </trkpt>
      <trkpt lat="40.8353210" lon="0.1937520">
        <ele>522.0</ele>
        <time>2019-08-15T10:29:04Z</time>
      </trkpt>
      <trkpt lat="40.8353480" lon="0.1938030">
        <ele>522.0</ele>
        <time>2019-08-15T10:29:05Z</time>
      </trkpt>
      <trkpt lat="40.8353660" lon="0.1938450">
        <ele>522.0</ele>
        <time>2019-08-15T10:29:06Z</time>
      </trkpt>
      <trkpt lat="40.8353780" lon="0.1938780">
        <ele>522.0</ele>
        <time>2019-08-15T10:29:07Z</time>
      </trkpt>
      <trkpt lat="40.8353910" lon="0.1939060">
        <ele>522.0</ele>
        <time>2019-08-15T10:29:08Z</time>
      </trkpt>
      <trkpt lat="40.8354000" lon="0.1939320">
        <ele>522.0</ele>
        <time>2019-08-15T10:29:09Z</time>
      </trkpt>
      <trkpt lat="40.8354090" lon="0.1939560">
        <ele>522.0</ele>
        <time>2019-08-15T10:29:10Z</time>
      </trkpt>
      <trkpt lat="40.8354200" lon="0.1939770">
        <ele>522.0</ele>
        <time>2019-08-15T10:29:11Z</time>
      </trkpt>
      <trkpt lat="40.8354300" lon="0.1939960">
        <ele>522.0</ele>
        <time>2019-08-15T10:29:12Z</time>
      </trkpt>
      <trkpt lat="40.8354400" lon="0.1940170">
        <ele>522.0</ele>
        <time>2019-08-15T10:29:13Z</time>
      </trkpt>
      <trkpt lat="40.8354500" lon="0.1940400">
        <ele>522.0</ele>
        <time>2019-08-15T10:29:14Z</time>
      </trkpt>
      <trkpt lat="40.8354590" lon="0.1940650">
        <ele>522.0</ele>
        <time>2019-08-15T10:29:15Z</time>
      </trkpt>
      <trkpt lat="40.8354670" lon="0.1940870">
        <ele>522.0</ele>
        <time>2019-08-15T10:29:16Z</time>
      </trkpt>
      <trkpt lat="40.8354780" lon="0.1941070">
        <ele>522.0</ele>
        <time>2019-08-15T10:29:17Z</time>
      </trkpt>
      <trkpt lat="40.8354920" lon="0.1941260">
        <ele>523.0</ele>
        <time>2019-08-15T10:29:18Z</time>
      </trkpt>
      <trkpt lat="40.8355040" lon="0.1941440">
        <ele>523.0</ele>
        <time>2019-08-15T10:29:19Z</time>
      </trkpt>
      <trkpt lat="40.8355150" lon="0.1941590">
        <ele>523.0</ele>
        <time>2019-08-15T10:29:20Z</time>
      </trkpt>
      <trkpt lat="40.8355570" lon="0.1942120">
        <ele>524.0</ele>
        <time>2019-08-15T10:29:23Z</time>
      </trkpt>
      <trkpt lat="40.8355730" lon="0.1942270">
        <ele>525.0</ele>
        <time>2019-08-15T10:29:24Z</time>
      </trkpt>
      <trkpt lat="40.8355860" lon="0.1942390">
        <ele>525.0</ele>
        <time>2019-08-15T10:29:25Z</time>
      </trkpt>
      <trkpt lat="40.8356230" lon="0.1942790">
        <ele>526.0</ele>
        <time>2019-08-15T10:29:28Z</time>
      </trkpt>
      <trkpt lat="40.8356350" lon="0.1942920">
        <ele>526.0</ele>
        <time>2019-08-15T10:29:29Z</time>
      </trkpt>
      <trkpt lat="40.8356470" lon="0.1943050">
        <ele>526.0</ele>
        <time>2019-08-15T10:29:30Z</time>
      </trkpt>
      <trkpt lat="40.8356580" lon="0.1943160">
        <ele>526.0</ele>
        <time>2019-08-15T10:29:31Z</time>
      </trkpt>
      <trkpt lat="40.8356790" lon="0.1943440">
        <ele>526.0</ele>
        <time>2019-08-15T10:29:33Z</time>
      </trkpt>
      <trkpt lat="40.8356920" lon="0.1943590">
        <ele>527.0</ele>
        <time>2019-08-15T10:29:34Z</time>
      </trkpt>
      <trkpt lat="40.8357040" lon="0.1943720">
        <ele>527.0</ele>
        <time>2019-08-15T10:29:35Z</time>
      </trkpt>
      <trkpt lat="40.8357180" lon="0.1943860">
        <ele>527.0</ele>
        <time>2019-08-15T10:29:36Z</time>
      </trkpt>
      <trkpt lat="40.8357430" lon="0.1944150">
        <ele>527.0</ele>
        <time>2019-08-15T10:29:38Z</time>
      </trkpt>
      <trkpt lat="40.8357580" lon="0.1944280">
        <ele>527.0</ele>
        <time>2019-08-15T10:29:39Z</time>
      </trkpt>
      <trkpt lat="40.8357710" lon="0.1944450">
        <ele>527.0</ele>
        <time>2019-08-15T10:29:40Z</time>
      </trkpt>
      <trkpt lat="40.8357830" lon="0.1944610">
        <ele>528.0</ele>
        <time>2019-08-15T10:29:41Z</time>
      </trkpt>
      <trkpt lat="40.8358070" lon="0.1944940">
        <ele>528.0</ele>
        <time>2019-08-15T10:29:43Z</time>
      </trkpt>
      <trkpt lat="40.8358170" lon="0.1945110">
        <ele>528.0</ele>
        <time>2019-08-15T10:29:44Z</time>
      </trkpt>
      <trkpt lat="40.8358280" lon="0.1945270">
        <ele>528.0</ele>
        <time>2019-08-15T10:29:45Z</time>
      </trkpt>
      <trkpt lat="40.8358410" lon="0.1945420">
        <ele>528.0</ele>
        <time>2019-08-15T10:29:46Z</time>
      </trkpt>
      <trkpt lat="40.8358620" lon="0.1945710">
        <ele>528.0</ele>
        <time>2019-08-15T10:29:48Z</time>
      </trkpt>
      <trkpt lat="40.8358720" lon="0.1945860">
        <ele>528.0</ele>
        <time>2019-08-15T10:29:49Z</time>
      </trkpt>
      <trkpt lat="40.8358790" lon="0.1946060">
        <ele>528.0</ele>
        <time>2019-08-15T10:29:50Z</time>
      </trkpt>
      <trkpt lat="40.8358840" lon="0.1946270">
        <ele>529.0</ele>
        <time>2019-08-15T10:29:51Z</time>
      </trkpt>
      <trkpt lat="40.8358900" lon="0.1946740">
        <ele>529.0</ele>
        <time>2019-08-15T10:29:53Z</time>
      </trkpt>
      <trkpt lat="40.8358880" lon="0.1947000">
        <ele>529.0</ele>
        <time>2019-08-15T10:29:54Z</time>
      </trkpt>
      <trkpt lat="40.8358850" lon="0.1947270">
        <ele>529.0</ele>
        <time>2019-08-15T10:29:55Z</time>
      </trkpt>
      <trkpt lat="40.8358830" lon="0.1947540">
        <ele>529.0</ele>
        <time>2019-08-15T10:29:56Z</time>
      </trkpt>
      <trkpt lat="40.8358750" lon="0.1948100">
        <ele>529.0</ele>
        <time>2019-08-15T10:29:58Z</time>
      </trkpt>
      <trkpt lat="40.8358720" lon="0.1948380">
        <ele>529.0</ele>
        <time>2019-08-15T10:29:59Z</time>
      </trkpt>
      <trkpt lat="40.8358700" lon="0.1948620">
        <ele>529.0</ele>
        <time>2019-08-15T10:30:00Z</time>
      </trkpt>
      <trkpt lat="40.8358670" lon="0.1948870">
        <ele>529.0</ele>
        <time>2019-08-15T10:30:01Z</time>
      </trkpt>
      <trkpt lat="40.8358660" lon="0.1949130">
        <ele>529.0</ele>
        <time>2019-08-15T10:30:02Z</time>
      </trkpt>
      <trkpt lat="40.8358640" lon="0.1949390">
        <ele>529.0</ele>
        <time>2019-08-15T10:30:03Z</time>
      </trkpt>
      <trkpt lat="40.8358610" lon="0.1949660">
        <ele>529.0</ele>
        <time>2019-08-15T10:30:04Z</time>
      </trkpt>
      <trkpt lat="40.8358580" lon="0.1949960">
        <ele>529.0</ele>
        <time>2019-08-15T10:30:05Z</time>
      </trkpt>
      <trkpt lat="40.8358570" lon="0.1950240">
        <ele>529.0</ele>
        <time>2019-08-15T10:30:06Z</time>
      </trkpt>
      <trkpt lat="40.8358560" lon="0.1950520">
        <ele>529.0</ele>
        <time>2019-08-15T10:30:07Z</time>
      </trkpt>
      <trkpt lat="40.8358530" lon="0.1950810">
        <ele>529.0</ele>
        <time>2019-08-15T10:30:08Z</time>
      </trkpt>
      <trkpt lat="40.8358490" lon="0.1951100">
        <ele>529.0</ele>
        <time>2019-08-15T10:30:09Z</time>
      </trkpt>
      <trkpt lat="40.8358440" lon="0.1951410">
        <ele>529.0</ele>
        <time>2019-08-15T10:30:10Z</time>
      </trkpt>
      <trkpt lat="40.8358390" lon="0.1951770">
        <ele>529.0</ele>
        <time>2019-08-15T10:30:11Z</time>
      </trkpt>
      <trkpt lat="40.8358390" lon="0.1952210">
        <ele>529.0</ele>
        <time>2019-08-15T10:30:12Z</time>
      </trkpt>
      <trkpt lat="40.8358400" lon="0.1952680">
        <ele>529.0</ele>
        <time>2019-08-15T10:30:13Z</time>
      </trkpt>
      <trkpt lat="40.8358440" lon="0.1953190">
        <ele>529.0</ele>
        <time>2019-08-15T10:30:14Z</time>
      </trkpt>
      <trkpt lat="40.8358530" lon="0.1953670">
        <ele>529.0</ele>
        <time>2019-08-15T10:30:15Z</time>
      </trkpt>
      <trkpt lat="40.8358680" lon="0.1954120">
        <ele>529.0</ele>
        <time>2019-08-15T10:30:16Z</time>
      </trkpt>
      <trkpt lat="40.8359240" lon="0.1955280">
        <ele>529.0</ele>
        <time>2019-08-15T10:30:19Z</time>
      </trkpt>
      <trkpt lat="40.8359500" lon="0.1955590">
        <ele>529.0</ele>
        <time>2019-08-15T10:30:20Z</time>
      </trkpt>
      <trkpt lat="40.8359780" lon="0.1955850">
        <ele>529.0</ele>
        <time>2019-08-15T10:30:21Z</time>
      </trkpt>
      <trkpt lat="40.8360610" lon="0.1956500">
        <ele>529.0</ele>
        <time>2019-08-15T10:30:24Z</time>
      </trkpt>
      <trkpt lat="40.8360700" lon="0.1956560">
        <ele>529.0</ele>
        <time>2019-08-15T10:30:25Z</time>
      </trkpt>
      <trkpt lat="40.8360860" lon="0.1956700">
        <ele>529.0</ele>
        <time>2019-08-15T10:30:26Z</time>
      </trkpt>
      <trkpt lat="40.8361040" lon="0.1956860">
        <ele>529.0</ele>
        <time>2019-08-15T10:30:27Z</time>
      </trkpt>
      <trkpt lat="40.8361200" lon="0.1957000">
        <ele>529.0</ele>
        <time>2019-08-15T10:30:28Z</time>
      </trkpt>
      <trkpt lat="40.8361360" lon="0.1957110">
        <ele>529.0</ele>
        <time>2019-08-15T10:30:29Z</time>
      </trkpt>
      <trkpt lat="40.8361510" lon="0.1957250">
        <ele>529.0</ele>
        <time>2019-08-15T10:30:30Z</time>
      </trkpt>
      <trkpt lat="40.8361630" lon="0.1957420">
        <ele>529.0</ele>
        <time>2019-08-15T10:30:31Z</time>
      </trkpt>
      <trkpt lat="40.8361760" lon="0.1957550">
        <ele>529.0</ele>
        <time>2019-08-15T10:30:32Z</time>
      </trkpt>
      <trkpt lat="40.8361900" lon="0.1957660">
        <ele>529.0</ele>
        <time>2019-08-15T10:30:33Z</time>
      </trkpt>
      <trkpt lat="40.8362040" lon="0.1957800">
        <ele>529.0</ele>
        <time>2019-08-15T10:30:34Z</time>
      </trkpt>
      <trkpt lat="40.8362140" lon="0.1957950">
        <ele>529.0</ele>
        <time>2019-08-15T10:30:35Z</time>
      </trkpt>
      <trkpt lat="40.8362240" lon="0.1958100">
        <ele>529.0</ele>
        <time>2019-08-15T10:30:36Z</time>
      </trkpt>
      <trkpt lat="40.8362330" lon="0.1958230">
        <ele>529.0</ele>
        <time>2019-08-15T10:30:37Z</time>
      </trkpt>
      <trkpt lat="40.8362450" lon="0.1958360">
        <ele>530.0</ele>
        <time>2019-08-15T10:30:38Z</time>
      </trkpt>
      <trkpt lat="40.8362540" lon="0.1958490">
        <ele>530.0</ele>
        <time>2019-08-15T10:30:39Z</time>
      </trkpt>
      <trkpt lat="40.8362620" lon="0.1958640">
        <ele>530.0</ele>
        <time>2019-08-15T10:30:40Z</time>
      </trkpt>
      <trkpt lat="40.8362680" lon="0.1958780">
        <ele>530.0</ele>
        <time>2019-08-15T10:30:41Z</time>
      </trkpt>
      <trkpt lat="40.8362750" lon="0.1958920">
        <ele>530.0</ele>
        <time>2019-08-15T10:30:42Z</time>
      </trkpt>
      <trkpt lat="40.8363050" lon="0.1959290">
        <ele>530.0</ele>
        <time>2019-08-15T10:30:45Z</time>
      </trkpt>
      <trkpt lat="40.8363150" lon="0.1959400">
        <ele>531.0</ele>
        <time>2019-08-15T10:30:46Z</time>
      </trkpt>
      <trkpt lat="40.8363230" lon="0.1959520">
        <ele>531.0</ele>
        <time>2019-08-15T10:30:47Z</time>
      </trkpt>
      <trkpt lat="40.8363540" lon="0.1959840">
        <ele>531.0</ele>
        <time>2019-08-15T10:30:50Z</time>
      </trkpt>
      <trkpt lat="40.8363700" lon="0.1959930">
        <ele>531.0</ele>
        <time>2019-08-15T10:30:51Z</time>
      </trkpt>
      <trkpt lat="40.8363880" lon="0.1960000">
        <ele>531.0</ele>
        <time>2019-08-15T10:30:52Z</time>
      </trkpt>
      <trkpt lat="40.8364400" lon="0.1960200">
        <ele>531.0</ele>
        <time>2019-08-15T10:30:55Z</time>
      </trkpt>
      <trkpt lat="40.8364540" lon="0.1960300">
        <ele>531.0</ele>
        <time>2019-08-15T10:30:56Z</time>
      </trkpt>
      <trkpt lat="40.8364680" lon="0.1960410">
        <ele>531.0</ele>
        <time>2019-08-15T10:30:57Z</time>
      </trkpt>
      <trkpt lat="40.8364820" lon="0.1960520">
        <ele>531.0</ele>
        <time>2019-08-15T10:30:58Z</time>
      </trkpt>
      <trkpt lat="40.8365110" lon="0.1960750">
        <ele>531.0</ele>
        <time>2019-08-15T10:31:00Z</time>
      </trkpt>
      <trkpt lat="40.8365270" lon="0.1960860">
        <ele>531.0</ele>
        <time>2019-08-15T10:31:01Z</time>
      </trkpt>
      <trkpt lat="40.8365420" lon="0.1960960">
        <ele>532.0</ele>
        <time>2019-08-15T10:31:02Z</time>
      </trkpt>
      <trkpt lat="40.8365580" lon="0.1961040">
        <ele>532.0</ele>
        <time>2019-08-15T10:31:03Z</time>
      </trkpt>
      <trkpt lat="40.8365870" lon="0.1961230">
        <ele>532.0</ele>
        <time>2019-08-15T10:31:05Z</time>
      </trkpt>
      <trkpt lat="40.8366020" lon="0.1961340">
        <ele>532.0</ele>
        <time>2019-08-15T10:31:06Z</time>
      </trkpt>
      <trkpt lat="40.8366160" lon="0.1961460">
        <ele>532.0</ele>
        <time>2019-08-15T10:31:07Z</time>
      </trkpt>
      <trkpt lat="40.8366310" lon="0.1961530">
        <ele>532.0</ele>
        <time>2019-08-15T10:31:08Z</time>
      </trkpt>
      <trkpt lat="40.8366600" lon="0.1961650">
        <ele>533.0</ele>
        <time>2019-08-15T10:31:10Z</time>
      </trkpt>
      <trkpt lat="40.8366760" lon="0.1961700">
        <ele>533.0</ele>
        <time>2019-08-15T10:31:11Z</time>
      </trkpt>
      <trkpt lat="40.8366880" lon="0.1961790">
        <ele>533.0</ele>
        <time>2019-08-15T10:31:12Z</time>
      </trkpt>
      <trkpt lat="40.8367000" lon="0.1961870">
        <ele>533.0</ele>
        <time>2019-08-15T10:31:13Z</time>
      </trkpt>
      <trkpt lat="40.8367230" lon="0.1962010">
        <ele>534.0</ele>
        <time>2019-08-15T10:31:15Z</time>
      </trkpt>
      <trkpt lat="40.8367330" lon="0.1962040">
        <ele>534.0</ele>
        <time>2019-08-15T10:31:16Z</time>
      </trkpt>
      <trkpt lat="40.8367440" lon="0.1962080">
        <ele>534.0</ele>
        <time>2019-08-15T10:31:17Z</time>
      </trkpt>
      <trkpt lat="40.8367530" lon="0.1962110">
        <ele>534.0</ele>
        <time>2019-08-15T10:31:18Z</time>
      </trkpt>
      <trkpt lat="40.8367760" lon="0.1962200">
        <ele>535.0</ele>
        <time>2019-08-15T10:31:20Z</time>
      </trkpt>
      <trkpt lat="40.8367870" lon="0.1962260">
        <ele>535.0</ele>
        <time>2019-08-15T10:31:21Z</time>
      </trkpt>
      <trkpt lat="40.8367960" lon="0.1962350">
        <ele>535.0</ele>
        <time>2019-08-15T10:31:22Z</time>
      </trkpt>
      <trkpt lat="40.8368050" lon="0.1962470">
        <ele>535.0</ele>
        <time>2019-08-15T10:31:23Z</time>
      </trkpt>
      <trkpt lat="40.8368230" lon="0.1962710">
        <ele>536.0</ele>
        <time>2019-08-15T10:31:25Z</time>
      </trkpt>
      <trkpt lat="40.8368320" lon="0.1962840">
        <ele>536.0</ele>
        <time>2019-08-15T10:31:26Z</time>
      </trkpt>
      <trkpt lat="40.8368400" lon="0.1962980">
        <ele>536.0</ele>
        <time>2019-08-15T10:31:27Z</time>
      </trkpt>
      <trkpt lat="40.8368460" lon="0.1963100">
        <ele>536.0</ele>
        <time>2019-08-15T10:31:28Z</time>
      </trkpt>
      <trkpt lat="40.8368600" lon="0.1963370">
        <ele>536.0</ele>
        <time>2019-08-15T10:31:30Z</time>
      </trkpt>
      <trkpt lat="40.8368660" lon="0.1963520">
        <ele>537.0</ele>
        <time>2019-08-15T10:31:31Z</time>
      </trkpt>
      <trkpt lat="40.8368710" lon="0.1963690">
        <ele>537.0</ele>
        <time>2019-08-15T10:31:32Z</time>
      </trkpt>
      <trkpt lat="40.8368750" lon="0.1963850">
        <ele>537.0</ele>
        <time>2019-08-15T10:31:33Z</time>
      </trkpt>
      <trkpt lat="40.8368820" lon="0.1964370">
        <ele>537.0</ele>
        <time>2019-08-15T10:31:35Z</time>
      </trkpt>
      <trkpt lat="40.8368820" lon="0.1964490">
        <ele>537.0</ele>
        <time>2019-08-15T10:31:36Z</time>
      </trkpt>
      <trkpt lat="40.8368810" lon="0.1964740">
        <ele>537.0</ele>
        <time>2019-08-15T10:31:37Z</time>
      </trkpt>
      <trkpt lat="40.8368800" lon="0.1965020">
        <ele>537.0</ele>
        <time>2019-08-15T10:31:38Z</time>
      </trkpt>
      <trkpt lat="40.8368800" lon="0.1965350">
        <ele>537.0</ele>
        <time>2019-08-15T10:31:39Z</time>
      </trkpt>
      <trkpt lat="40.8368790" lon="0.1965720">
        <ele>537.0</ele>
        <time>2019-08-15T10:31:40Z</time>
      </trkpt>
      <trkpt lat="40.8368750" lon="0.1966140">
        <ele>538.0</ele>
        <time>2019-08-15T10:31:41Z</time>
      </trkpt>
      <trkpt lat="40.8368660" lon="0.1966560">
        <ele>538.0</ele>
        <time>2019-08-15T10:31:42Z</time>
      </trkpt>
      <trkpt lat="40.8368540" lon="0.1966940">
        <ele>538.0</ele>
        <time>2019-08-15T10:31:43Z</time>
      </trkpt>
      <trkpt lat="40.8368370" lon="0.1967300">
        <ele>538.0</ele>
        <time>2019-08-15T10:31:44Z</time>
      </trkpt>
      <trkpt lat="40.8368130" lon="0.1967670">
        <ele>538.0</ele>
        <time>2019-08-15T10:31:45Z</time>
      </trkpt>
      <trkpt lat="40.8367730" lon="0.1968020">
        <ele>538.0</ele>
        <time>2019-08-15T10:31:46Z</time>
      </trkpt>
      <trkpt lat="40.8367210" lon="0.1968250">
        <ele>537.0</ele>
        <time>2019-08-15T10:31:47Z</time>
      </trkpt>
      <trkpt lat="40.8366620" lon="0.1968410">
        <ele>537.0</ele>
        <time>2019-08-15T10:31:48Z</time>
      </trkpt>
      <trkpt lat="40.8366060" lon="0.1968630">
        <ele>537.0</ele>
        <time>2019-08-15T10:31:49Z</time>
      </trkpt>
      <trkpt lat="40.8365580" lon="0.1968950">
        <ele>537.0</ele>
        <time>2019-08-15T10:31:50Z</time>
      </trkpt>
      <trkpt lat="40.8365190" lon="0.1969310">
        <ele>537.0</ele>
        <time>2019-08-15T10:31:51Z</time>
      </trkpt>
      <trkpt lat="40.8364870" lon="0.1969660">
        <ele>537.0</ele>
        <time>2019-08-15T10:31:52Z</time>
      </trkpt>
      <trkpt lat="40.8364570" lon="0.1969960">
        <ele>537.0</ele>
        <time>2019-08-15T10:31:53Z</time>
      </trkpt>
      <trkpt lat="40.8364310" lon="0.1970190">
        <ele>537.0</ele>
        <time>2019-08-15T10:31:54Z</time>
      </trkpt>
      <trkpt lat="40.8364070" lon="0.1970440">
        <ele>536.0</ele>
        <time>2019-08-15T10:31:55Z</time>
      </trkpt>
      <trkpt lat="40.8363840" lon="0.1970700">
        <ele>536.0</ele>
        <time>2019-08-15T10:31:56Z</time>
      </trkpt>
      <trkpt lat="40.8363600" lon="0.1971020">
        <ele>536.0</ele>
        <time>2019-08-15T10:31:57Z</time>
      </trkpt>
      <trkpt lat="40.8363360" lon="0.1971370">
        <ele>536.0</ele>
        <time>2019-08-15T10:31:58Z</time>
      </trkpt>
      <trkpt lat="40.8363120" lon="0.1971790">
        <ele>536.0</ele>
        <time>2019-08-15T10:31:59Z</time>
      </trkpt>
      <trkpt lat="40.8362890" lon="0.1972270">
        <ele>536.0</ele>
        <time>2019-08-15T10:32:00Z</time>
      </trkpt>
      <trkpt lat="40.8362660" lon="0.1972800">
        <ele>536.0</ele>
        <time>2019-08-15T10:32:01Z</time>
      </trkpt>
      <trkpt lat="40.8362480" lon="0.1973360">
        <ele>535.0</ele>
        <time>2019-08-15T10:32:02Z</time>
      </trkpt>
      <trkpt lat="40.8362330" lon="0.1973900">
        <ele>535.0</ele>
        <time>2019-08-15T10:32:03Z</time>
      </trkpt>
      <trkpt lat="40.8362240" lon="0.1974410">
        <ele>535.0</ele>
        <time>2019-08-15T10:32:04Z</time>
      </trkpt>
      <trkpt lat="40.8362180" lon="0.1974870">
        <ele>535.0</ele>
        <time>2019-08-15T10:32:05Z</time>
      </trkpt>
      <trkpt lat="40.8362110" lon="0.1975290">
        <ele>535.0</ele>
        <time>2019-08-15T10:32:06Z</time>
      </trkpt>
      <trkpt lat="40.8362070" lon="0.1975660">
        <ele>535.0</ele>
        <time>2019-08-15T10:32:07Z</time>
      </trkpt>
      <trkpt lat="40.8362100" lon="0.1976060">
        <ele>535.0</ele>
        <time>2019-08-15T10:32:08Z</time>
      </trkpt>
      <trkpt lat="40.8362190" lon="0.1977290">
        <ele>535.0</ele>
        <time>2019-08-15T10:32:11Z</time>
      </trkpt>
      <trkpt lat="40.8362130" lon="0.1977750">
        <ele>535.0</ele>
        <time>2019-08-15T10:32:12Z</time>
      </trkpt>
      <trkpt lat="40.8362000" lon="0.1978210">
        <ele>535.0</ele>
        <time>2019-08-15T10:32:13Z</time>
      </trkpt>
      <trkpt lat="40.8361660" lon="0.1980260">
        <ele>535.0</ele>
        <time>2019-08-15T10:32:16Z</time>
      </trkpt>
      <trkpt lat="40.8361680" lon="0.1980610">
        <ele>535.0</ele>
        <time>2019-08-15T10:32:17Z</time>
      </trkpt>
      <trkpt lat="40.8361830" lon="0.1981350">
        <ele>535.0</ele>
        <time>2019-08-15T10:32:18Z</time>
      </trkpt>
      <trkpt lat="40.8362260" lon="0.1981830">
        <ele>535.0</ele>
        <time>2019-08-15T10:32:19Z</time>
      </trkpt>
      <trkpt lat="40.8362690" lon="0.1982310">
        <ele>535.0</ele>
        <time>2019-08-15T10:32:20Z</time>
      </trkpt>
      <trkpt lat="40.8363270" lon="0.1982460">
        <ele>535.0</ele>
        <time>2019-08-15T10:32:21Z</time>
      </trkpt>
      <trkpt lat="40.8363840" lon="0.1982490">
        <ele>535.0</ele>
        <time>2019-08-15T10:32:22Z</time>
      </trkpt>
      <trkpt lat="40.8364400" lon="0.1982500">
        <ele>535.0</ele>
        <time>2019-08-15T10:32:23Z</time>
      </trkpt>
      <trkpt lat="40.8364940" lon="0.1982540">
        <ele>534.0</ele>
        <time>2019-08-15T10:32:24Z</time>
      </trkpt>
      <trkpt lat="40.8365440" lon="0.1982620">
        <ele>534.0</ele>
        <time>2019-08-15T10:32:25Z</time>
      </trkpt>
      <trkpt lat="40.8365870" lon="0.1982720">
        <ele>534.0</ele>
        <time>2019-08-15T10:32:26Z</time>
      </trkpt>
      <trkpt lat="40.8366250" lon="0.1982830">
        <ele>534.0</ele>
        <time>2019-08-15T10:32:27Z</time>
      </trkpt>
      <trkpt lat="40.8366600" lon="0.1982930">
        <ele>534.0</ele>
        <time>2019-08-15T10:32:28Z</time>
      </trkpt>
      <trkpt lat="40.8366870" lon="0.1983030">
        <ele>533.0</ele>
        <time>2019-08-15T10:32:29Z</time>
      </trkpt>
      <trkpt lat="40.8367110" lon="0.1983130">
        <ele>533.0</ele>
        <time>2019-08-15T10:32:30Z</time>
      </trkpt>
      <trkpt lat="40.8367310" lon="0.1983240">
        <ele>533.0</ele>
        <time>2019-08-15T10:32:31Z</time>
      </trkpt>
      <trkpt lat="40.8367490" lon="0.1983360">
        <ele>533.0</ele>
        <time>2019-08-15T10:32:32Z</time>
      </trkpt>
      <trkpt lat="40.8367650" lon="0.1983470">
        <ele>533.0</ele>
        <time>2019-08-15T10:32:33Z</time>
      </trkpt>
      <trkpt lat="40.8367810" lon="0.1983560">
        <ele>533.0</ele>
        <time>2019-08-15T10:32:34Z</time>
      </trkpt>
      <trkpt lat="40.8367970" lon="0.1983670">
        <ele>533.0</ele>
        <time>2019-08-15T10:32:35Z</time>
      </trkpt>
      <trkpt lat="40.8368120" lon="0.1983790">
        <ele>533.0</ele>
        <time>2019-08-15T10:32:36Z</time>
      </trkpt>
      <trkpt lat="40.8368270" lon="0.1983920">
        <ele>533.0</ele>
        <time>2019-08-15T10:32:37Z</time>
      </trkpt>
      <trkpt lat="40.8368410" lon="0.1984030">
        <ele>533.0</ele>
        <time>2019-08-15T10:32:38Z</time>
      </trkpt>
      <trkpt lat="40.8368530" lon="0.1984150">
        <ele>534.0</ele>
        <time>2019-08-15T10:32:39Z</time>
      </trkpt>
      <trkpt lat="40.8368670" lon="0.1984270">
        <ele>534.0</ele>
        <time>2019-08-15T10:32:40Z</time>
      </trkpt>
      <trkpt lat="40.8368790" lon="0.1984420">
        <ele>534.0</ele>
        <time>2019-08-15T10:32:41Z</time>
      </trkpt>
      <trkpt lat="40.8369040" lon="0.1984710">
        <ele>534.0</ele>
        <time>2019-08-15T10:32:43Z</time>
      </trkpt>
      <trkpt lat="40.8369150" lon="0.1984870">
        <ele>535.0</ele>
        <time>2019-08-15T10:32:44Z</time>
      </trkpt>
      <trkpt lat="40.8369270" lon="0.1985000">
        <ele>535.0</ele>
        <time>2019-08-15T10:32:45Z</time>
      </trkpt>
      <trkpt lat="40.8369560" lon="0.1985470">
        <ele>536.0</ele>
        <time>2019-08-15T10:32:48Z</time>
      </trkpt>
      <trkpt lat="40.8369660" lon="0.1985640">
        <ele>536.0</ele>
        <time>2019-08-15T10:32:49Z</time>
      </trkpt>
      <trkpt lat="40.8369790" lon="0.1985760">
        <ele>536.0</ele>
        <time>2019-08-15T10:32:50Z</time>
      </trkpt>
      <trkpt lat="40.8370180" lon="0.1986210">
        <ele>537.0</ele>
        <time>2019-08-15T10:32:53Z</time>
      </trkpt>
      <trkpt lat="40.8370310" lon="0.1986370">
        <ele>537.0</ele>
        <time>2019-08-15T10:32:54Z</time>
      </trkpt>
      <trkpt lat="40.8370470" lon="0.1986520">
        <ele>537.0</ele>
        <time>2019-08-15T10:32:55Z</time>
      </trkpt>
      <trkpt lat="40.8370620" lon="0.1986680">
        <ele>537.0</ele>
        <time>2019-08-15T10:32:56Z</time>
      </trkpt>
      <trkpt lat="40.8370880" lon="0.1987010">
        <ele>538.0</ele>
        <time>2019-08-15T10:32:58Z</time>
      </trkpt>
      <trkpt lat="40.8371000" lon="0.1987200">
        <ele>538.0</ele>
        <time>2019-08-15T10:32:59Z</time>
      </trkpt>
      <trkpt lat="40.8371110" lon="0.1987380">
        <ele>538.0</ele>
        <time>2019-08-15T10:33:00Z</time>
      </trkpt>
      <trkpt lat="40.8371210" lon="0.1987540">
        <ele>538.0</ele>
        <time>2019-08-15T10:33:01Z</time>
      </trkpt>
      <trkpt lat="40.8371340" lon="0.1987930">
        <ele>538.0</ele>
        <time>2019-08-15T10:33:03Z</time>
      </trkpt>
      <trkpt lat="40.8371440" lon="0.1988110">
        <ele>538.0</ele>
        <time>2019-08-15T10:33:04Z</time>
      </trkpt>
      <trkpt lat="40.8371550" lon="0.1988270">
        <ele>538.0</ele>
        <time>2019-08-15T10:33:05Z</time>
      </trkpt>
      <trkpt lat="40.8371660" lon="0.1988450">
        <ele>538.0</ele>
        <time>2019-08-15T10:33:06Z</time>
      </trkpt>
      <trkpt lat="40.8371890" lon="0.1988820">
        <ele>538.0</ele>
        <time>2019-08-15T10:33:08Z</time>
      </trkpt>
      <trkpt lat="40.8372020" lon="0.1989000">
        <ele>538.0</ele>
        <time>2019-08-15T10:33:09Z</time>
      </trkpt>
      <trkpt lat="40.8372110" lon="0.1989180">
        <ele>538.0</ele>
        <time>2019-08-15T10:33:10Z</time>
      </trkpt>
      <trkpt lat="40.8372220" lon="0.1989370">
        <ele>538.0</ele>
        <time>2019-08-15T10:33:11Z</time>
      </trkpt>
      <trkpt lat="40.8372380" lon="0.1989750">
        <ele>539.0</ele>
        <time>2019-08-15T10:33:13Z</time>
      </trkpt>
      <trkpt lat="40.8372450" lon="0.1989920">
        <ele>539.0</ele>
        <time>2019-08-15T10:33:14Z</time>
      </trkpt>
      <trkpt lat="40.8372530" lon="0.1990100">
        <ele>539.0</ele>
        <time>2019-08-15T10:33:15Z</time>
      </trkpt>
      <trkpt lat="40.8372640" lon="0.1990240">
        <ele>539.0</ele>
        <time>2019-08-15T10:33:16Z</time>
      </trkpt>
      <trkpt lat="40.8372810" lon="0.1990550">
        <ele>539.0</ele>
        <time>2019-08-15T10:33:18Z</time>
      </trkpt>
      <trkpt lat="40.8372870" lon="0.1990700">
        <ele>539.0</ele>
        <time>2019-08-15T10:33:19Z</time>
      </trkpt>
      <trkpt lat="40.8372960" lon="0.1990860">
        <ele>539.0</ele>
        <time>2019-08-15T10:33:20Z</time>
      </trkpt>
      <trkpt lat="40.8373010" lon="0.1991020">
        <ele>540.0</ele>
        <time>2019-08-15T10:33:21Z</time>
      </trkpt>
      <trkpt lat="40.8373210" lon="0.1991300">
        <ele>540.0</ele>
        <time>2019-08-15T10:33:23Z</time>
      </trkpt>
      <trkpt lat="40.8373300" lon="0.1991450">
        <ele>540.0</ele>
        <time>2019-08-15T10:33:24Z</time>
      </trkpt>
      <trkpt lat="40.8373390" lon="0.1991620">
        <ele>540.0</ele>
        <time>2019-08-15T10:33:25Z</time>
      </trkpt>
      <trkpt lat="40.8373470" lon="0.1991830">
        <ele>540.0</ele>
        <time>2019-08-15T10:33:26Z</time>
      </trkpt>
      <trkpt lat="40.8373720" lon="0.1992280">
        <ele>540.0</ele>
        <time>2019-08-15T10:33:28Z</time>
      </trkpt>
      <trkpt lat="40.8373820" lon="0.1992540">
        <ele>540.0</ele>
        <time>2019-08-15T10:33:29Z</time>
      </trkpt>
      <trkpt lat="40.8373950" lon="0.1992800">
        <ele>541.0</ele>
        <time>2019-08-15T10:33:30Z</time>
      </trkpt>
      <trkpt lat="40.8374060" lon="0.1993040">
        <ele>541.0</ele>
        <time>2019-08-15T10:33:31Z</time>
      </trkpt>
      <trkpt lat="40.8374280" lon="0.1993450">
        <ele>541.0</ele>
        <time>2019-08-15T10:33:33Z</time>
      </trkpt>
      <trkpt lat="40.8374390" lon="0.1993650">
        <ele>541.0</ele>
        <time>2019-08-15T10:33:34Z</time>
      </trkpt>
      <trkpt lat="40.8374510" lon="0.1993830">
        <ele>541.0</ele>
        <time>2019-08-15T10:33:35Z</time>
      </trkpt>
      <trkpt lat="40.8374610" lon="0.1994000">
        <ele>541.0</ele>
        <time>2019-08-15T10:33:36Z</time>
      </trkpt>
      <trkpt lat="40.8374850" lon="0.1994340">
        <ele>541.0</ele>
        <time>2019-08-15T10:33:38Z</time>
      </trkpt>
      <trkpt lat="40.8374970" lon="0.1994540">
        <ele>541.0</ele>
        <time>2019-08-15T10:33:39Z</time>
      </trkpt>
      <trkpt lat="40.8375100" lon="0.1994720">
        <ele>541.0</ele>
        <time>2019-08-15T10:33:40Z</time>
      </trkpt>
      <trkpt lat="40.8375210" lon="0.1994910">
        <ele>541.0</ele>
        <time>2019-08-15T10:33:41Z</time>
      </trkpt>
      <trkpt lat="40.8375480" lon="0.1995340">
        <ele>542.0</ele>
        <time>2019-08-15T10:33:43Z</time>
      </trkpt>
      <trkpt lat="40.8375610" lon="0.1995580">
        <ele>542.0</ele>
        <time>2019-08-15T10:33:44Z</time>
      </trkpt>
      <trkpt lat="40.8375730" lon="0.1995810">
        <ele>542.0</ele>
        <time>2019-08-15T10:33:45Z</time>
      </trkpt>
      <trkpt lat="40.8375860" lon="0.1996050">
        <ele>542.0</ele>
        <time>2019-08-15T10:33:46Z</time>
      </trkpt>
      <trkpt lat="40.8376060" lon="0.1996540">
        <ele>542.0</ele>
        <time>2019-08-15T10:33:48Z</time>
      </trkpt>
      <trkpt lat="40.8376140" lon="0.1996800">
        <ele>542.0</ele>
        <time>2019-08-15T10:33:49Z</time>
      </trkpt>
      <trkpt lat="40.8376180" lon="0.1997080">
        <ele>542.0</ele>
        <time>2019-08-15T10:33:50Z</time>
      </trkpt>
      <trkpt lat="40.8376140" lon="0.1997350">
        <ele>542.0</ele>
        <time>2019-08-15T10:33:51Z</time>
      </trkpt>
      <trkpt lat="40.8376040" lon="0.1997870">
        <ele>542.0</ele>
        <time>2019-08-15T10:33:53Z</time>
      </trkpt>
      <trkpt lat="40.8375950" lon="0.1998130">
        <ele>542.0</ele>
        <time>2019-08-15T10:33:54Z</time>
      </trkpt>
      <trkpt lat="40.8375850" lon="0.1998360">
        <ele>542.0</ele>
        <time>2019-08-15T10:33:55Z</time>
      </trkpt>
      <trkpt lat="40.8375750" lon="0.1998580">
        <ele>542.0</ele>
        <time>2019-08-15T10:33:56Z</time>
      </trkpt>
      <trkpt lat="40.8375650" lon="0.1998820">
        <ele>542.0</ele>
        <time>2019-08-15T10:33:57Z</time>
      </trkpt>
      <trkpt lat="40.8375550" lon="0.1999100">
        <ele>542.0</ele>
        <time>2019-08-15T10:33:58Z</time>
      </trkpt>
      <trkpt lat="40.8375450" lon="0.1999380">
        <ele>542.0</ele>
        <time>2019-08-15T10:33:59Z</time>
      </trkpt>
      <trkpt lat="40.8375380" lon="0.1999680">
        <ele>543.0</ele>
        <time>2019-08-15T10:34:00Z</time>
      </trkpt>
      <trkpt lat="40.8375330" lon="0.1999990">
        <ele>543.0</ele>
        <time>2019-08-15T10:34:01Z</time>
      </trkpt>
      <trkpt lat="40.8375300" lon="0.2000300">
        <ele>543.0</ele>
        <time>2019-08-15T10:34:02Z</time>
      </trkpt>
      <trkpt lat="40.8375290" lon="0.2000600">
        <ele>543.0</ele>
        <time>2019-08-15T10:34:03Z</time>
      </trkpt>
      <trkpt lat="40.8375320" lon="0.2000890">
        <ele>543.0</ele>
        <time>2019-08-15T10:34:04Z</time>
      </trkpt>
      <trkpt lat="40.8375370" lon="0.2001170">
        <ele>543.0</ele>
        <time>2019-08-15T10:34:05Z</time>
      </trkpt>
      <trkpt lat="40.8375440" lon="0.2001440">
        <ele>543.0</ele>
        <time>2019-08-15T10:34:06Z</time>
      </trkpt>
      <trkpt lat="40.8375520" lon="0.2001670">
        <ele>543.0</ele>
        <time>2019-08-15T10:34:07Z</time>
      </trkpt>
      <trkpt lat="40.8375740" lon="0.2002150">
        <ele>543.0</ele>
        <time>2019-08-15T10:34:09Z</time>
      </trkpt>
      <trkpt lat="40.8375850" lon="0.2002380">
        <ele>543.0</ele>
        <time>2019-08-15T10:34:10Z</time>
      </trkpt>
      <trkpt lat="40.8375980" lon="0.2002610">
        <ele>543.0</ele>
        <time>2019-08-15T10:34:11Z</time>
      </trkpt>
      <trkpt lat="40.8376550" lon="0.2003200">
        <ele>543.0</ele>
        <time>2019-08-15T10:34:14Z</time>
      </trkpt>
      <trkpt lat="40.8376750" lon="0.2003330">
        <ele>543.0</ele>
        <time>2019-08-15T10:34:15Z</time>
      </trkpt>
      <trkpt lat="40.8377060" lon="0.2003500">
        <ele>543.0</ele>
        <time>2019-08-15T10:34:16Z</time>
      </trkpt>
      <trkpt lat="40.8377160" lon="0.2003550">
        <ele>543.0</ele>
        <time>2019-08-15T10:34:17Z</time>
      </trkpt>
      <trkpt lat="40.8377370" lon="0.2003620">
        <ele>543.0</ele>
        <time>2019-08-15T10:34:18Z</time>
      </trkpt>
      <trkpt lat="40.8377610" lon="0.2003690">
        <ele>543.0</ele>
        <time>2019-08-15T10:34:19Z</time>
      </trkpt>
      <trkpt lat="40.8377880" lon="0.2003760">
        <ele>543.0</ele>
        <time>2019-08-15T10:34:20Z</time>
      </trkpt>
      <trkpt lat="40.8378180" lon="0.2003860">
        <ele>543.0</ele>
        <time>2019-08-15T10:34:21Z</time>
      </trkpt>
      <trkpt lat="40.8378520" lon="0.2003960">
        <ele>543.0</ele>
        <time>2019-08-15T10:34:22Z</time>
      </trkpt>
      <trkpt lat="40.8378850" lon="0.2004080">
        <ele>543.0</ele>
        <time>2019-08-15T10:34:23Z</time>
      </trkpt>
      <trkpt lat="40.8379160" lon="0.2004220">
        <ele>543.0</ele>
        <time>2019-08-15T10:34:24Z</time>
      </trkpt>
      <trkpt lat="40.8379490" lon="0.2004400">
        <ele>543.0</ele>
        <time>2019-08-15T10:34:25Z</time>
      </trkpt>
      <trkpt lat="40.8379780" lon="0.2004610">
        <ele>543.0</ele>
        <time>2019-08-15T10:34:26Z</time>
      </trkpt>
      <trkpt lat="40.8380060" lon="0.2004850">
        <ele>543.0</ele>
        <time>2019-08-15T10:34:27Z</time>
      </trkpt>
      <trkpt lat="40.8380310" lon="0.2005120">
        <ele>543.0</ele>
        <time>2019-08-15T10:34:28Z</time>
      </trkpt>
      <trkpt lat="40.8380540" lon="0.2005400">
        <ele>543.0</ele>
        <time>2019-08-15T10:34:29Z</time>
      </trkpt>
      <trkpt lat="40.8380740" lon="0.2005640">
        <ele>543.0</ele>
        <time>2019-08-15T10:34:30Z</time>
      </trkpt>
      <trkpt lat="40.8380910" lon="0.2005840">
        <ele>543.0</ele>
        <time>2019-08-15T10:34:31Z</time>
      </trkpt>
      <trkpt lat="40.8381060" lon="0.2006040">
        <ele>544.0</ele>
        <time>2019-08-15T10:34:32Z</time>
      </trkpt>
      <trkpt lat="40.8381300" lon="0.2006490">
        <ele>544.0</ele>
        <time>2019-08-15T10:34:34Z</time>
      </trkpt>
      <trkpt lat="40.8381380" lon="0.2006710">
        <ele>544.0</ele>
        <time>2019-08-15T10:34:35Z</time>
      </trkpt>
      <trkpt lat="40.8381460" lon="0.2006940">
        <ele>544.0</ele>
        <time>2019-08-15T10:34:36Z</time>
      </trkpt>
      <trkpt lat="40.8381670" lon="0.2007600">
        <ele>544.0</ele>
        <time>2019-08-15T10:34:39Z</time>
      </trkpt>
      <trkpt lat="40.8381720" lon="0.2007800">
        <ele>544.0</ele>
        <time>2019-08-15T10:34:40Z</time>
      </trkpt>
      <trkpt lat="40.8381790" lon="0.2007950">
        <ele>544.0</ele>
        <time>2019-08-15T10:34:41Z</time>
      </trkpt>
      <trkpt lat="40.8381880" lon="0.2007990">
        <ele>544.0</ele>
        <time>2019-08-15T10:34:42Z</time>
      </trkpt>
      <trkpt lat="40.8381940" lon="0.2007960">
        <ele>544.0</ele>
        <time>2019-08-15T10:34:43Z</time>
      </trkpt>
      <trkpt lat="40.8381980" lon="0.2007900">
        <ele>544.0</ele>
        <time>2019-08-15T10:34:44Z</time>
      </trkpt>
      <trkpt lat="40.8381990" lon="0.2007800">
        <ele>544.0</ele>
        <time>2019-08-15T10:34:45Z</time>
      </trkpt>
      <trkpt lat="40.8381950" lon="0.2007670">
        <ele>544.0</ele>
        <time>2019-08-15T10:34:46Z</time>
      </trkpt>
      <trkpt lat="40.8381900" lon="0.2007520">
        <ele>544.0</ele>
        <time>2019-08-15T10:34:47Z</time>
      </trkpt>
      <trkpt lat="40.8381820" lon="0.2007320">
        <ele>544.0</ele>
        <time>2019-08-15T10:34:48Z</time>
      </trkpt>
      <trkpt lat="40.8381760" lon="0.2007110">
        <ele>544.0</ele>
        <time>2019-08-15T10:34:49Z</time>
      </trkpt>
      <trkpt lat="40.8381690" lon="0.2006870">
        <ele>544.0</ele>
        <time>2019-08-15T10:34:50Z</time>
      </trkpt>
      <trkpt lat="40.8381600" lon="0.2006600">
        <ele>544.0</ele>
        <time>2019-08-15T10:34:51Z</time>
      </trkpt>
      <trkpt lat="40.8381480" lon="0.2006360">
        <ele>544.0</ele>
        <time>2019-08-15T10:34:52Z</time>
      </trkpt>
      <trkpt lat="40.8381330" lon="0.2006120">
        <ele>544.0</ele>
        <time>2019-08-15T10:34:53Z</time>
      </trkpt>
      <trkpt lat="40.8381110" lon="0.2005900">
        <ele>544.0</ele>
        <time>2019-08-15T10:34:54Z</time>
      </trkpt>
      <trkpt lat="40.8380990" lon="0.2005600">
        <ele>544.0</ele>
        <time>2019-08-15T10:34:56Z</time>
      </trkpt>
      <trkpt lat="40.8381000" lon="0.2005520">
        <ele>543.0</ele>
        <time>2019-08-15T10:34:58Z</time>
      </trkpt>
      <trkpt lat="40.8381120" lon="0.2005970">
        <ele>543.0</ele>
        <time>2019-08-15T10:35:18Z</time>
      </trkpt>
      <trkpt lat="40.8381240" lon="0.2006150">
        <ele>543.0</ele>
        <time>2019-08-15T10:35:20Z</time>
      </trkpt>
      <trkpt lat="40.8381360" lon="0.2006350">
        <ele>543.0</ele>
        <time>2019-08-15T10:35:21Z</time>
      </trkpt>
      <trkpt lat="40.8381470" lon="0.2006590">
        <ele>543.0</ele>
        <time>2019-08-15T10:35:22Z</time>
      </trkpt>
      <trkpt lat="40.8381550" lon="0.2006830">
        <ele>543.0</ele>
        <time>2019-08-15T10:35:23Z</time>
      </trkpt>
      <trkpt lat="40.8381640" lon="0.2007070">
        <ele>543.0</ele>
        <time>2019-08-15T10:35:24Z</time>
      </trkpt>
      <trkpt lat="40.8381720" lon="0.2007340">
        <ele>543.0</ele>
        <time>2019-08-15T10:35:25Z</time>
      </trkpt>
      <trkpt lat="40.8381770" lon="0.2007610">
        <ele>543.0</ele>
        <time>2019-08-15T10:35:26Z</time>
      </trkpt>
      <trkpt lat="40.8381840" lon="0.2007900">
        <ele>543.0</ele>
        <time>2019-08-15T10:35:27Z</time>
      </trkpt>
      <trkpt lat="40.8381910" lon="0.2008190">
        <ele>543.0</ele>
        <time>2019-08-15T10:35:28Z</time>
      </trkpt>
      <trkpt lat="40.8381980" lon="0.2008510">
        <ele>543.0</ele>
        <time>2019-08-15T10:35:29Z</time>
      </trkpt>
      <trkpt lat="40.8382040" lon="0.2008850">
        <ele>543.0</ele>
        <time>2019-08-15T10:35:30Z</time>
      </trkpt>
      <trkpt lat="40.8382100" lon="0.2009250">
        <ele>543.0</ele>
        <time>2019-08-15T10:35:31Z</time>
      </trkpt>
      <trkpt lat="40.8382160" lon="0.2009690">
        <ele>543.0</ele>
        <time>2019-08-15T10:35:32Z</time>
      </trkpt>
      <trkpt lat="40.8382170" lon="0.2010140">
        <ele>543.0</ele>
        <time>2019-08-15T10:35:33Z</time>
      </trkpt>
      <trkpt lat="40.8382180" lon="0.2010580">
        <ele>543.0</ele>
        <time>2019-08-15T10:35:34Z</time>
      </trkpt>
      <trkpt lat="40.8382200" lon="0.2011020">
        <ele>543.0</ele>
        <time>2019-08-15T10:35:35Z</time>
      </trkpt>
      <trkpt lat="40.8382200" lon="0.2011470">
        <ele>543.0</ele>
        <time>2019-08-15T10:35:36Z</time>
      </trkpt>
      <trkpt lat="40.8382210" lon="0.2011860">
        <ele>543.0</ele>
        <time>2019-08-15T10:35:37Z</time>
      </trkpt>
      <trkpt lat="40.8382190" lon="0.2012260">
        <ele>543.0</ele>
        <time>2019-08-15T10:35:38Z</time>
      </trkpt>
      <trkpt lat="40.8382180" lon="0.2012660">
        <ele>543.0</ele>
        <time>2019-08-15T10:35:39Z</time>
      </trkpt>
      <trkpt lat="40.8382230" lon="0.2013020">
        <ele>544.0</ele>
        <time>2019-08-15T10:35:40Z</time>
      </trkpt>
      <trkpt lat="40.8382270" lon="0.2013380">
        <ele>544.0</ele>
        <time>2019-08-15T10:35:41Z</time>
      </trkpt>
      <trkpt lat="40.8382280" lon="0.2014220">
        <ele>544.0</ele>
        <time>2019-08-15T10:35:43Z</time>
      </trkpt>
      <trkpt lat="40.8382310" lon="0.2014730">
        <ele>544.0</ele>
        <time>2019-08-15T10:35:44Z</time>
      </trkpt>
      <trkpt lat="40.8382350" lon="0.2015270">
        <ele>544.0</ele>
        <time>2019-08-15T10:35:45Z</time>
      </trkpt>
      <trkpt lat="40.8382520" lon="0.2016980">
        <ele>543.0</ele>
        <time>2019-08-15T10:35:48Z</time>
      </trkpt>
      <trkpt lat="40.8382610" lon="0.2017520">
        <ele>543.0</ele>
        <time>2019-08-15T10:35:49Z</time>
      </trkpt>
      <trkpt lat="40.8382750" lon="0.2018020">
        <ele>543.0</ele>
        <time>2019-08-15T10:35:50Z</time>
      </trkpt>
      <trkpt lat="40.8383130" lon="0.2019330">
        <ele>543.0</ele>
        <time>2019-08-15T10:35:53Z</time>
      </trkpt>
      <trkpt lat="40.8383220" lon="0.2019680">
        <ele>543.0</ele>
        <time>2019-08-15T10:35:54Z</time>
      </trkpt>
      <trkpt lat="40.8383310" lon="0.2020010">
        <ele>543.0</ele>
        <time>2019-08-15T10:35:55Z</time>
      </trkpt>
      <trkpt lat="40.8383380" lon="0.2020320">
        <ele>543.0</ele>
        <time>2019-08-15T10:35:56Z</time>
      </trkpt>
      <trkpt lat="40.8383570" lon="0.2020870">
        <ele>543.0</ele>
        <time>2019-08-15T10:35:58Z</time>
      </trkpt>
      <trkpt lat="40.8383660" lon="0.2021120">
        <ele>543.0</ele>
        <time>2019-08-15T10:35:59Z</time>
      </trkpt>
      <trkpt lat="40.8383720" lon="0.2021340">
        <ele>543.0</ele>
        <time>2019-08-15T10:36:00Z</time>
      </trkpt>
      <trkpt lat="40.8383800" lon="0.2021560">
        <ele>543.0</ele>
        <time>2019-08-15T10:36:01Z</time>
      </trkpt>
      <trkpt lat="40.8383950" lon="0.2022000">
        <ele>543.0</ele>
        <time>2019-08-15T10:36:03Z</time>
      </trkpt>
      <trkpt lat="40.8383990" lon="0.2022210">
        <ele>543.0</ele>
        <time>2019-08-15T10:36:04Z</time>
      </trkpt>
      <trkpt lat="40.8384030" lon="0.2022470">
        <ele>543.0</ele>
        <time>2019-08-15T10:36:05Z</time>
      </trkpt>
      <trkpt lat="40.8384050" lon="0.2022750">
        <ele>543.0</ele>
        <time>2019-08-15T10:36:06Z</time>
      </trkpt>
      <trkpt lat="40.8384000" lon="0.2023330">
        <ele>543.0</ele>
        <time>2019-08-15T10:36:08Z</time>
      </trkpt>
      <trkpt lat="40.8383950" lon="0.2023620">
        <ele>543.0</ele>
        <time>2019-08-15T10:36:09Z</time>
      </trkpt>
      <trkpt lat="40.8383840" lon="0.2023920">
        <ele>543.0</ele>
        <time>2019-08-15T10:36:10Z</time>
      </trkpt>
      <trkpt lat="40.8383700" lon="0.2024230">
        <ele>543.0</ele>
        <time>2019-08-15T10:36:11Z</time>
      </trkpt>
      <trkpt lat="40.8383310" lon="0.2024800">
        <ele>543.0</ele>
        <time>2019-08-15T10:36:13Z</time>
      </trkpt>
      <trkpt lat="40.8383030" lon="0.2025060">
        <ele>543.0</ele>
        <time>2019-08-15T10:36:14Z</time>
      </trkpt>
      <trkpt lat="40.8382680" lon="0.2025260">
        <ele>543.0</ele>
        <time>2019-08-15T10:36:15Z</time>
      </trkpt>
      <trkpt lat="40.8382280" lon="0.2025470">
        <ele>544.0</ele>
        <time>2019-08-15T10:36:16Z</time>
      </trkpt>
      <trkpt lat="40.8381840" lon="0.2025660">
        <ele>544.0</ele>
        <time>2019-08-15T10:36:17Z</time>
      </trkpt>
      <trkpt lat="40.8381400" lon="0.2025840">
        <ele>544.0</ele>
        <time>2019-08-15T10:36:18Z</time>
      </trkpt>
      <trkpt lat="40.8380950" lon="0.2026050">
        <ele>544.0</ele>
        <time>2019-08-15T10:36:19Z</time>
      </trkpt>
      <trkpt lat="40.8380490" lon="0.2026300">
        <ele>544.0</ele>
        <time>2019-08-15T10:36:20Z</time>
      </trkpt>
      <trkpt lat="40.8380070" lon="0.2026540">
        <ele>543.0</ele>
        <time>2019-08-15T10:36:21Z</time>
      </trkpt>
      <trkpt lat="40.8379710" lon="0.2026790">
        <ele>543.0</ele>
        <time>2019-08-15T10:36:22Z</time>
      </trkpt>
      <trkpt lat="40.8379360" lon="0.2026960">
        <ele>543.0</ele>
        <time>2019-08-15T10:36:23Z</time>
      </trkpt>
      <trkpt lat="40.8379020" lon="0.2027030">
        <ele>543.0</ele>
        <time>2019-08-15T10:36:24Z</time>
      </trkpt>
      <trkpt lat="40.8378710" lon="0.2027140">
        <ele>543.0</ele>
        <time>2019-08-15T10:36:25Z</time>
      </trkpt>
      <trkpt lat="40.8378420" lon="0.2027290">
        <ele>543.0</ele>
        <time>2019-08-15T10:36:26Z</time>
      </trkpt>
      <trkpt lat="40.8378110" lon="0.2027490">
        <ele>543.0</ele>
        <time>2019-08-15T10:36:27Z</time>
      </trkpt>
      <trkpt lat="40.8377800" lon="0.2027740">
        <ele>543.0</ele>
        <time>2019-08-15T10:36:28Z</time>
      </trkpt>
      <trkpt lat="40.8377530" lon="0.2028050">
        <ele>543.0</ele>
        <time>2019-08-15T10:36:29Z</time>
      </trkpt>
      <trkpt lat="40.8377310" lon="0.2028440">
        <ele>542.0</ele>
        <time>2019-08-15T10:36:30Z</time>
      </trkpt>
      <trkpt lat="40.8377110" lon="0.2028870">
        <ele>542.0</ele>
        <time>2019-08-15T10:36:31Z</time>
      </trkpt>
      <trkpt lat="40.8376920" lon="0.2029300">
        <ele>542.0</ele>
        <time>2019-08-15T10:36:32Z</time>
      </trkpt>
      <trkpt lat="40.8376780" lon="0.2029730">
        <ele>541.0</ele>
        <time>2019-08-15T10:36:33Z</time>
      </trkpt>
      <trkpt lat="40.8376490" lon="0.2030400">
        <ele>541.0</ele>
        <time>2019-08-15T10:36:35Z</time>
      </trkpt>
      <trkpt lat="40.8376360" lon="0.2030730">
        <ele>540.0</ele>
        <time>2019-08-15T10:36:36Z</time>
      </trkpt>
      <trkpt lat="40.8376170" lon="0.2031140">
        <ele>540.0</ele>
        <time>2019-08-15T10:36:37Z</time>
      </trkpt>
      <trkpt lat="40.8375580" lon="0.2032660">
        <ele>539.0</ele>
        <time>2019-08-15T10:36:40Z</time>
      </trkpt>
      <trkpt lat="40.8375450" lon="0.2033200">
        <ele>538.0</ele>
        <time>2019-08-15T10:36:41Z</time>
      </trkpt>
      <trkpt lat="40.8375290" lon="0.2033810">
        <ele>538.0</ele>
        <time>2019-08-15T10:36:42Z</time>
      </trkpt>
      <trkpt lat="40.8374700" lon="0.2036030">
        <ele>536.0</ele>
        <time>2019-08-15T10:36:45Z</time>
      </trkpt>
      <trkpt lat="40.8374480" lon="0.2036820">
        <ele>536.0</ele>
        <time>2019-08-15T10:36:46Z</time>
      </trkpt>
      <trkpt lat="40.8374270" lon="0.2037610">
        <ele>536.0</ele>
        <time>2019-08-15T10:36:47Z</time>
      </trkpt>
      <trkpt lat="40.8374030" lon="0.2038440">
        <ele>535.0</ele>
        <time>2019-08-15T10:36:48Z</time>
      </trkpt>
      <trkpt lat="40.8373590" lon="0.2040080">
        <ele>534.0</ele>
        <time>2019-08-15T10:36:50Z</time>
      </trkpt>
      <trkpt lat="40.8373250" lon="0.2040840">
        <ele>534.0</ele>
        <time>2019-08-15T10:36:51Z</time>
      </trkpt>
      <trkpt lat="40.8372820" lon="0.2041490">
        <ele>533.0</ele>
        <time>2019-08-15T10:36:52Z</time>
      </trkpt>
      <trkpt lat="40.8372290" lon="0.2042020">
        <ele>532.0</ele>
        <time>2019-08-15T10:36:53Z</time>
      </trkpt>
      <trkpt lat="40.8371300" lon="0.2042910">
        <ele>531.0</ele>
        <time>2019-08-15T10:36:55Z</time>
      </trkpt>
      <trkpt lat="40.8370830" lon="0.2043340">
        <ele>530.0</ele>
        <time>2019-08-15T10:36:56Z</time>
      </trkpt>
      <trkpt lat="40.8370380" lon="0.2043770">
        <ele>530.0</ele>
        <time>2019-08-15T10:36:57Z</time>
      </trkpt>
      <trkpt lat="40.8369920" lon="0.2044180">
        <ele>529.0</ele>
        <time>2019-08-15T10:36:58Z</time>
      </trkpt>
      <trkpt lat="40.8369040" lon="0.2044920">
        <ele>528.0</ele>
        <time>2019-08-15T10:37:00Z</time>
      </trkpt>
      <trkpt lat="40.8368640" lon="0.2045320">
        <ele>527.0</ele>
        <time>2019-08-15T10:37:01Z</time>
      </trkpt>
      <trkpt lat="40.8368180" lon="0.2045730">
        <ele>527.0</ele>
        <time>2019-08-15T10:37:02Z</time>
      </trkpt>
      <trkpt lat="40.8367710" lon="0.2046120">
        <ele>526.0</ele>
        <time>2019-08-15T10:37:03Z</time>
      </trkpt>
      <trkpt lat="40.8366680" lon="0.2046990">
        <ele>525.0</ele>
        <time>2019-08-15T10:37:05Z</time>
      </trkpt>
      <trkpt lat="40.8366100" lon="0.2047500">
        <ele>524.0</ele>
        <time>2019-08-15T10:37:06Z</time>
      </trkpt>
      <trkpt lat="40.8365580" lon="0.2047990">
        <ele>524.0</ele>
        <time>2019-08-15T10:37:07Z</time>
      </trkpt>
      <trkpt lat="40.8365080" lon="0.2048470">
        <ele>524.0</ele>
        <time>2019-08-15T10:37:08Z</time>
      </trkpt>
      <trkpt lat="40.8364170" lon="0.2049410">
        <ele>523.0</ele>
        <time>2019-08-15T10:37:10Z</time>
      </trkpt>
      <trkpt lat="40.8363740" lon="0.2049920">
        <ele>523.0</ele>
        <time>2019-08-15T10:37:11Z</time>
      </trkpt>
      <trkpt lat="40.8363280" lon="0.2050440">
        <ele>522.0</ele>
        <time>2019-08-15T10:37:12Z</time>
      </trkpt>
      <trkpt lat="40.8362820" lon="0.2050930">
        <ele>522.0</ele>
        <time>2019-08-15T10:37:13Z</time>
      </trkpt>
      <trkpt lat="40.8361760" lon="0.2051600">
        <ele>521.0</ele>
        <time>2019-08-15T10:37:15Z</time>
      </trkpt>
      <trkpt lat="40.8361300" lon="0.2051710">
        <ele>521.0</ele>
        <time>2019-08-15T10:37:16Z</time>
      </trkpt>
      <trkpt lat="40.8360880" lon="0.2051630">
        <ele>520.0</ele>
        <time>2019-08-15T10:37:17Z</time>
      </trkpt>
      <trkpt lat="40.8360510" lon="0.2051430">
        <ele>520.0</ele>
        <time>2019-08-15T10:37:18Z</time>
      </trkpt>
      <trkpt lat="40.8360180" lon="0.2051120">
        <ele>520.0</ele>
        <time>2019-08-15T10:37:19Z</time>
      </trkpt>
      <trkpt lat="40.8359870" lon="0.2050840">
        <ele>519.0</ele>
        <time>2019-08-15T10:37:20Z</time>
      </trkpt>
      <trkpt lat="40.8359210" lon="0.2050470">
        <ele>518.0</ele>
        <time>2019-08-15T10:37:22Z</time>
      </trkpt>
      <trkpt lat="40.8358900" lon="0.2050520">
        <ele>518.0</ele>
        <time>2019-08-15T10:37:23Z</time>
      </trkpt>
      <trkpt lat="40.8358640" lon="0.2050710">
        <ele>517.0</ele>
        <time>2019-08-15T10:37:24Z</time>
      </trkpt>
      <trkpt lat="40.8358500" lon="0.2051010">
        <ele>517.0</ele>
        <time>2019-08-15T10:37:25Z</time>
      </trkpt>
      <trkpt lat="40.8358440" lon="0.2051300">
        <ele>517.0</ele>
        <time>2019-08-15T10:37:26Z</time>
      </trkpt>
      <trkpt lat="40.8358330" lon="0.2051870">
        <ele>516.0</ele>
        <time>2019-08-15T10:37:28Z</time>
      </trkpt>
      <trkpt lat="40.8358380" lon="0.2052200">
        <ele>516.0</ele>
        <time>2019-08-15T10:37:29Z</time>
      </trkpt>
      <trkpt lat="40.8358420" lon="0.2052560">
        <ele>516.0</ele>
        <time>2019-08-15T10:37:30Z</time>
      </trkpt>
      <trkpt lat="40.8358470" lon="0.2052930">
        <ele>516.0</ele>
        <time>2019-08-15T10:37:31Z</time>
      </trkpt>
      <trkpt lat="40.8358560" lon="0.2053670">
        <ele>516.0</ele>
        <time>2019-08-15T10:37:33Z</time>
      </trkpt>
      <trkpt lat="40.8358590" lon="0.2054060">
        <ele>516.0</ele>
        <time>2019-08-15T10:37:34Z</time>
      </trkpt>
      <trkpt lat="40.8358610" lon="0.2054440">
        <ele>516.0</ele>
        <time>2019-08-15T10:37:35Z</time>
      </trkpt>
      <trkpt lat="40.8358630" lon="0.2054810">
        <ele>516.0</ele>
        <time>2019-08-15T10:37:36Z</time>
      </trkpt>
      <trkpt lat="40.8358620" lon="0.2055210">
        <ele>516.0</ele>
        <time>2019-08-15T10:37:37Z</time>
      </trkpt>
      <trkpt lat="40.8358580" lon="0.2055570">
        <ele>516.0</ele>
        <time>2019-08-15T10:37:38Z</time>
      </trkpt>
      <trkpt lat="40.8358560" lon="0.2055890">
        <ele>516.0</ele>
        <time>2019-08-15T10:37:39Z</time>
      </trkpt>
      <trkpt lat="40.8358530" lon="0.2056210">
        <ele>516.0</ele>
        <time>2019-08-15T10:37:40Z</time>
      </trkpt>
      <trkpt lat="40.8358470" lon="0.2056500">
        <ele>516.0</ele>
        <time>2019-08-15T10:37:41Z</time>
      </trkpt>
      <trkpt lat="40.8358410" lon="0.2056790">
        <ele>516.0</ele>
        <time>2019-08-15T10:37:42Z</time>
      </trkpt>
      <trkpt lat="40.8358360" lon="0.2057050">
        <ele>517.0</ele>
        <time>2019-08-15T10:37:43Z</time>
      </trkpt>
      <trkpt lat="40.8358320" lon="0.2057290">
        <ele>517.0</ele>
        <time>2019-08-15T10:37:44Z</time>
      </trkpt>
      <trkpt lat="40.8358260" lon="0.2057510">
        <ele>517.0</ele>
        <time>2019-08-15T10:37:45Z</time>
      </trkpt>
      <trkpt lat="40.8358200" lon="0.2057720">
        <ele>517.0</ele>
        <time>2019-08-15T10:37:46Z</time>
      </trkpt>
      <trkpt lat="40.8358170" lon="0.2057930">
        <ele>517.0</ele>
        <time>2019-08-15T10:37:47Z</time>
      </trkpt>
      <trkpt lat="40.8358140" lon="0.2058160">
        <ele>517.0</ele>
        <time>2019-08-15T10:37:48Z</time>
      </trkpt>
      <trkpt lat="40.8358060" lon="0.2058590">
        <ele>517.0</ele>
        <time>2019-08-15T10:37:50Z</time>
      </trkpt>
      <trkpt lat="40.8358010" lon="0.2058820">
        <ele>517.0</ele>
        <time>2019-08-15T10:37:51Z</time>
      </trkpt>
      <trkpt lat="40.8357940" lon="0.2059070">
        <ele>518.0</ele>
        <time>2019-08-15T10:37:52Z</time>
      </trkpt>
      <trkpt lat="40.8357760" lon="0.2059740">
        <ele>518.0</ele>
        <time>2019-08-15T10:37:55Z</time>
      </trkpt>
      <trkpt lat="40.8357690" lon="0.2059920">
        <ele>518.0</ele>
        <time>2019-08-15T10:37:56Z</time>
      </trkpt>
      <trkpt lat="40.8357580" lon="0.2060120">
        <ele>519.0</ele>
        <time>2019-08-15T10:37:57Z</time>
      </trkpt>
      <trkpt lat="40.8357410" lon="0.2060760">
        <ele>519.0</ele>
        <time>2019-08-15T10:38:00Z</time>
      </trkpt>
      <trkpt lat="40.8357380" lon="0.2060970">
        <ele>519.0</ele>
        <time>2019-08-15T10:38:01Z</time>
      </trkpt>
      <trkpt lat="40.8357350" lon="0.2061180">
        <ele>519.0</ele>
        <time>2019-08-15T10:38:02Z</time>
      </trkpt>
      <trkpt lat="40.8357300" lon="0.2061380">
        <ele>519.0</ele>
        <time>2019-08-15T10:38:03Z</time>
      </trkpt>
      <trkpt lat="40.8357270" lon="0.2061870">
        <ele>519.0</ele>
        <time>2019-08-15T10:38:05Z</time>
      </trkpt>
      <trkpt lat="40.8357250" lon="0.2062060">
        <ele>520.0</ele>
        <time>2019-08-15T10:38:06Z</time>
      </trkpt>
      <trkpt lat="40.8357230" lon="0.2062250">
        <ele>520.0</ele>
        <time>2019-08-15T10:38:07Z</time>
      </trkpt>
      <trkpt lat="40.8357170" lon="0.2062430">
        <ele>520.0</ele>
        <time>2019-08-15T10:38:08Z</time>
      </trkpt>
      <trkpt lat="40.8357040" lon="0.2062820">
        <ele>520.0</ele>
        <time>2019-08-15T10:38:10Z</time>
      </trkpt>
      <trkpt lat="40.8357010" lon="0.2063020">
        <ele>520.0</ele>
        <time>2019-08-15T10:38:11Z</time>
      </trkpt>
      <trkpt lat="40.8356960" lon="0.2063220">
        <ele>520.0</ele>
        <time>2019-08-15T10:38:12Z</time>
      </trkpt>
      <trkpt lat="40.8356880" lon="0.2063410">
        <ele>520.0</ele>
        <time>2019-08-15T10:38:13Z</time>
      </trkpt>
      <trkpt lat="40.8356750" lon="0.2063860">
        <ele>520.0</ele>
        <time>2019-08-15T10:38:15Z</time>
      </trkpt>
      <trkpt lat="40.8356720" lon="0.2064060">
        <ele>520.0</ele>
        <time>2019-08-15T10:38:16Z</time>
      </trkpt>
      <trkpt lat="40.8356700" lon="0.2064240">
        <ele>521.0</ele>
        <time>2019-08-15T10:38:17Z</time>
      </trkpt>
      <trkpt lat="40.8356670" lon="0.2064460">
        <ele>521.0</ele>
        <time>2019-08-15T10:38:18Z</time>
      </trkpt>
      <trkpt lat="40.8356600" lon="0.2064970">
        <ele>521.0</ele>
        <time>2019-08-15T10:38:20Z</time>
      </trkpt>
      <trkpt lat="40.8356570" lon="0.2065160">
        <ele>521.0</ele>
        <time>2019-08-15T10:38:21Z</time>
      </trkpt>
      <trkpt lat="40.8356530" lon="0.2065360">
        <ele>521.0</ele>
        <time>2019-08-15T10:38:22Z</time>
      </trkpt>
      <trkpt lat="40.8356550" lon="0.2065580">
        <ele>521.0</ele>
        <time>2019-08-15T10:38:23Z</time>
      </trkpt>
      <trkpt lat="40.8356520" lon="0.2066060">
        <ele>522.0</ele>
        <time>2019-08-15T10:38:25Z</time>
      </trkpt>
      <trkpt lat="40.8356530" lon="0.2066310">
        <ele>522.0</ele>
        <time>2019-08-15T10:38:26Z</time>
      </trkpt>
      <trkpt lat="40.8356500" lon="0.2066580">
        <ele>522.0</ele>
        <time>2019-08-15T10:38:27Z</time>
      </trkpt>
      <trkpt lat="40.8356450" lon="0.2066820">
        <ele>522.0</ele>
        <time>2019-08-15T10:38:28Z</time>
      </trkpt>
      <trkpt lat="40.8356430" lon="0.2067220">
        <ele>522.0</ele>
        <time>2019-08-15T10:38:30Z</time>
      </trkpt>
      <trkpt lat="40.8356410" lon="0.2067410">
        <ele>522.0</ele>
        <time>2019-08-15T10:38:31Z</time>
      </trkpt>
      <trkpt lat="40.8356330" lon="0.2067610">
        <ele>522.0</ele>
        <time>2019-08-15T10:38:32Z</time>
      </trkpt>
      <trkpt lat="40.8356290" lon="0.2067810">
        <ele>522.0</ele>
        <time>2019-08-15T10:38:33Z</time>
      </trkpt>
      <trkpt lat="40.8356080" lon="0.2068250">
        <ele>523.0</ele>
        <time>2019-08-15T10:38:35Z</time>
      </trkpt>
      <trkpt lat="40.8355990" lon="0.2068450">
        <ele>523.0</ele>
        <time>2019-08-15T10:38:36Z</time>
      </trkpt>
      <trkpt lat="40.8355960" lon="0.2068640">
        <ele>523.0</ele>
        <time>2019-08-15T10:38:37Z</time>
      </trkpt>
      <trkpt lat="40.8355900" lon="0.2068800">
        <ele>523.0</ele>
        <time>2019-08-15T10:38:38Z</time>
      </trkpt>
      <trkpt lat="40.8355830" lon="0.2069130">
        <ele>523.0</ele>
        <time>2019-08-15T10:38:40Z</time>
      </trkpt>
      <trkpt lat="40.8355790" lon="0.2069290">
        <ele>523.0</ele>
        <time>2019-08-15T10:38:41Z</time>
      </trkpt>
      <trkpt lat="40.8355700" lon="0.2069460">
        <ele>523.0</ele>
        <time>2019-08-15T10:38:42Z</time>
      </trkpt>
      <trkpt lat="40.8355670" lon="0.2069640">
        <ele>523.0</ele>
        <time>2019-08-15T10:38:43Z</time>
      </trkpt>
      <trkpt lat="40.8355530" lon="0.2070020">
        <ele>523.0</ele>
        <time>2019-08-15T10:38:45Z</time>
      </trkpt>
      <trkpt lat="40.8355480" lon="0.2070190">
        <ele>523.0</ele>
        <time>2019-08-15T10:38:46Z</time>
      </trkpt>
      <trkpt lat="40.8355390" lon="0.2070360">
        <ele>523.0</ele>
        <time>2019-08-15T10:38:47Z</time>
      </trkpt>
      <trkpt lat="40.8355290" lon="0.2070510">
        <ele>523.0</ele>
        <time>2019-08-15T10:38:48Z</time>
      </trkpt>
      <trkpt lat="40.8355150" lon="0.2070820">
        <ele>524.0</ele>
        <time>2019-08-15T10:38:50Z</time>
      </trkpt>
      <trkpt lat="40.8355090" lon="0.2070990">
        <ele>524.0</ele>
        <time>2019-08-15T10:38:51Z</time>
      </trkpt>
      <trkpt lat="40.8355020" lon="0.2071130">
        <ele>524.0</ele>
        <time>2019-08-15T10:38:52Z</time>
      </trkpt>
      <trkpt lat="40.8354980" lon="0.2071240">
        <ele>524.0</ele>
        <time>2019-08-15T10:38:53Z</time>
      </trkpt>
      <trkpt lat="40.8354760" lon="0.2071510">
        <ele>524.0</ele>
        <time>2019-08-15T10:38:55Z</time>
      </trkpt>
      <trkpt lat="40.8354650" lon="0.2071650">
        <ele>524.0</ele>
        <time>2019-08-15T10:38:56Z</time>
      </trkpt>
      <trkpt lat="40.8354580" lon="0.2071780">
        <ele>525.0</ele>
        <time>2019-08-15T10:38:57Z</time>
      </trkpt>
      <trkpt lat="40.8354530" lon="0.2071920">
        <ele>525.0</ele>
        <time>2019-08-15T10:38:58Z</time>
      </trkpt>
      <trkpt lat="40.8354460" lon="0.2072180">
        <ele>525.0</ele>
        <time>2019-08-15T10:39:00Z</time>
      </trkpt>
      <trkpt lat="40.8354440" lon="0.2072330">
        <ele>525.0</ele>
        <time>2019-08-15T10:39:01Z</time>
      </trkpt>
      <trkpt lat="40.8354400" lon="0.2072480">
        <ele>526.0</ele>
        <time>2019-08-15T10:39:02Z</time>
      </trkpt>
      <trkpt lat="40.8354290" lon="0.2072580">
        <ele>526.0</ele>
        <time>2019-08-15T10:39:03Z</time>
      </trkpt>
      <trkpt lat="40.8354150" lon="0.2072830">
        <ele>526.0</ele>
        <time>2019-08-15T10:39:05Z</time>
      </trkpt>
      <trkpt lat="40.8354110" lon="0.2072960">
        <ele>527.0</ele>
        <time>2019-08-15T10:39:06Z</time>
      </trkpt>
      <trkpt lat="40.8354060" lon="0.2073070">
        <ele>527.0</ele>
        <time>2019-08-15T10:39:07Z</time>
      </trkpt>
      <trkpt lat="40.8354070" lon="0.2073130">
        <ele>527.0</ele>
        <time>2019-08-15T10:39:08Z</time>
      </trkpt>
      <trkpt lat="40.8350860" lon="0.2074950">
        <ele>532.0</ele>
        <time>2019-08-15T10:40:27Z</time>
      </trkpt>
      <trkpt lat="40.8350750" lon="0.2075010">
        <ele>532.0</ele>
        <time>2019-08-15T10:40:29Z</time>
      </trkpt>
      <trkpt lat="40.8350500" lon="0.2075160">
        <ele>532.0</ele>
        <time>2019-08-15T10:40:31Z</time>
      </trkpt>
      <trkpt lat="40.8350380" lon="0.2075130">
        <ele>532.0</ele>
        <time>2019-08-15T10:40:32Z</time>
      </trkpt>
      <trkpt lat="40.8350290" lon="0.2075100">
        <ele>532.0</ele>
        <time>2019-08-15T10:40:33Z</time>
      </trkpt>
      <trkpt lat="40.8350180" lon="0.2075140">
        <ele>532.0</ele>
        <time>2019-08-15T10:40:34Z</time>
      </trkpt>
      <trkpt lat="40.8349940" lon="0.2075210">
        <ele>532.0</ele>
        <time>2019-08-15T10:40:36Z</time>
      </trkpt>
      <trkpt lat="40.8349830" lon="0.2075230">
        <ele>532.0</ele>
        <time>2019-08-15T10:40:37Z</time>
      </trkpt>
      <trkpt lat="40.8349720" lon="0.2075240">
        <ele>532.0</ele>
        <time>2019-08-15T10:40:38Z</time>
      </trkpt>
      <trkpt lat="40.8349610" lon="0.2075310">
        <ele>532.0</ele>
        <time>2019-08-15T10:40:39Z</time>
      </trkpt>
      <trkpt lat="40.8349380" lon="0.2075480">
        <ele>532.0</ele>
        <time>2019-08-15T10:40:41Z</time>
      </trkpt>
      <trkpt lat="40.8349240" lon="0.2075510">
        <ele>533.0</ele>
        <time>2019-08-15T10:40:42Z</time>
      </trkpt>
      <trkpt lat="40.8349130" lon="0.2075560">
        <ele>533.0</ele>
        <time>2019-08-15T10:40:43Z</time>
      </trkpt>
      <trkpt lat="40.8348970" lon="0.2075600">
        <ele>533.0</ele>
        <time>2019-08-15T10:40:44Z</time>
      </trkpt>
      <trkpt lat="40.8348760" lon="0.2075770">
        <ele>533.0</ele>
        <time>2019-08-15T10:40:46Z</time>
      </trkpt>
      <trkpt lat="40.8348650" lon="0.2075850">
        <ele>533.0</ele>
        <time>2019-08-15T10:40:47Z</time>
      </trkpt>
      <trkpt lat="40.8348580" lon="0.2075950">
        <ele>533.0</ele>
        <time>2019-08-15T10:40:48Z</time>
      </trkpt>
      <trkpt lat="40.8348510" lon="0.2076100">
        <ele>533.0</ele>
        <time>2019-08-15T10:40:49Z</time>
      </trkpt>
      <trkpt lat="40.8348320" lon="0.2076440">
        <ele>533.0</ele>
        <time>2019-08-15T10:40:51Z</time>
      </trkpt>
      <trkpt lat="40.8348260" lon="0.2076660">
        <ele>534.0</ele>
        <time>2019-08-15T10:40:52Z</time>
      </trkpt>
      <trkpt lat="40.8348240" lon="0.2076870">
        <ele>534.0</ele>
        <time>2019-08-15T10:40:53Z</time>
      </trkpt>
      <trkpt lat="40.8348210" lon="0.2077050">
        <ele>534.0</ele>
        <time>2019-08-15T10:40:54Z</time>
      </trkpt>
      <trkpt lat="40.8348200" lon="0.2077210">
        <ele>534.0</ele>
        <time>2019-08-15T10:40:55Z</time>
      </trkpt>
      <trkpt lat="40.8348260" lon="0.2077370">
        <ele>534.0</ele>
        <time>2019-08-15T10:40:56Z</time>
      </trkpt>
      <trkpt lat="40.8348290" lon="0.2077490">
        <ele>534.0</ele>
        <time>2019-08-15T10:40:57Z</time>
      </trkpt>
      <trkpt lat="40.8348320" lon="0.2077600">
        <ele>534.0</ele>
        <time>2019-08-15T10:40:58Z</time>
      </trkpt>
      <trkpt lat="40.8348350" lon="0.2077710">
        <ele>534.0</ele>
        <time>2019-08-15T10:40:59Z</time>
      </trkpt>
      <trkpt lat="40.8348370" lon="0.2077840">
        <ele>535.0</ele>
        <time>2019-08-15T10:41:00Z</time>
      </trkpt>
      <trkpt lat="40.8348330" lon="0.2077980">
        <ele>535.0</ele>
        <time>2019-08-15T10:41:01Z</time>
      </trkpt>
      <trkpt lat="40.8348360" lon="0.2078100">
        <ele>535.0</ele>
        <time>2019-08-15T10:41:02Z</time>
      </trkpt>
      <trkpt lat="40.8348450" lon="0.2078180">
        <ele>535.0</ele>
        <time>2019-08-15T10:41:03Z</time>
      </trkpt>
      <trkpt lat="40.8348540" lon="0.2078290">
        <ele>535.0</ele>
        <time>2019-08-15T10:41:04Z</time>
      </trkpt>
      <trkpt lat="40.8348620" lon="0.2078420">
        <ele>535.0</ele>
        <time>2019-08-15T10:41:05Z</time>
      </trkpt>
      <trkpt lat="40.8348700" lon="0.2078570">
        <ele>535.0</ele>
        <time>2019-08-15T10:41:06Z</time>
      </trkpt>
      <trkpt lat="40.8348780" lon="0.2078670">
        <ele>536.0</ele>
        <time>2019-08-15T10:41:07Z</time>
      </trkpt>
      <trkpt lat="40.8348860" lon="0.2078770">
        <ele>536.0</ele>
        <time>2019-08-15T10:41:08Z</time>
      </trkpt>
      <trkpt lat="40.8348920" lon="0.2078890">
        <ele>536.0</ele>
        <time>2019-08-15T10:41:09Z</time>
      </trkpt>
      <trkpt lat="40.8348960" lon="0.2079030">
        <ele>536.0</ele>
        <time>2019-08-15T10:41:10Z</time>
      </trkpt>
      <trkpt lat="40.8349040" lon="0.2079150">
        <ele>536.0</ele>
        <time>2019-08-15T10:41:11Z</time>
      </trkpt>
      <trkpt lat="40.8349100" lon="0.2079270">
        <ele>536.0</ele>
        <time>2019-08-15T10:41:12Z</time>
      </trkpt>
      <trkpt lat="40.8349140" lon="0.2079410">
        <ele>537.0</ele>
        <time>2019-08-15T10:41:13Z</time>
      </trkpt>
      <trkpt lat="40.8349220" lon="0.2079520">
        <ele>537.0</ele>
        <time>2019-08-15T10:41:14Z</time>
      </trkpt>
      <trkpt lat="40.8349290" lon="0.2079630">
        <ele>537.0</ele>
        <time>2019-08-15T10:41:15Z</time>
      </trkpt>
      <trkpt lat="40.8349360" lon="0.2079760">
        <ele>537.0</ele>
        <time>2019-08-15T10:41:16Z</time>
      </trkpt>
      <trkpt lat="40.8349450" lon="0.2079880">
        <ele>537.0</ele>
        <time>2019-08-15T10:41:17Z</time>
      </trkpt>
      <trkpt lat="40.8349500" lon="0.2080010">
        <ele>537.0</ele>
        <time>2019-08-15T10:41:18Z</time>
      </trkpt>
      <trkpt lat="40.8349490" lon="0.2080160">
        <ele>537.0</ele>
        <time>2019-08-15T10:41:19Z</time>
      </trkpt>
      <trkpt lat="40.8349540" lon="0.2080480">
        <ele>538.0</ele>
        <time>2019-08-15T10:41:21Z</time>
      </trkpt>
      <trkpt lat="40.8349560" lon="0.2080670">
        <ele>538.0</ele>
        <time>2019-08-15T10:41:22Z</time>
      </trkpt>
      <trkpt lat="40.8349610" lon="0.2080840">
        <ele>538.0</ele>
        <time>2019-08-15T10:41:23Z</time>
      </trkpt>
      <trkpt lat="40.8349700" lon="0.2081500">
        <ele>538.0</ele>
        <time>2019-08-15T10:41:26Z</time>
      </trkpt>
      <trkpt lat="40.8349670" lon="0.2081710">
        <ele>538.0</ele>
        <time>2019-08-15T10:41:27Z</time>
      </trkpt>
      <trkpt lat="40.8349610" lon="0.2081910">
        <ele>538.0</ele>
        <time>2019-08-15T10:41:28Z</time>
      </trkpt>
      <trkpt lat="40.8349420" lon="0.2082520">
        <ele>538.0</ele>
        <time>2019-08-15T10:41:31Z</time>
      </trkpt>
      <trkpt lat="40.8349310" lon="0.2082740">
        <ele>539.0</ele>
        <time>2019-08-15T10:41:32Z</time>
      </trkpt>
      <trkpt lat="40.8349230" lon="0.2082920">
        <ele>539.0</ele>
        <time>2019-08-15T10:41:33Z</time>
      </trkpt>
      <trkpt lat="40.8349150" lon="0.2083080">
        <ele>539.0</ele>
        <time>2019-08-15T10:41:34Z</time>
      </trkpt>
      <trkpt lat="40.8349070" lon="0.2083260">
        <ele>539.0</ele>
        <time>2019-08-15T10:41:35Z</time>
      </trkpt>
      <trkpt lat="40.8348950" lon="0.2083400">
        <ele>539.0</ele>
        <time>2019-08-15T10:41:36Z</time>
      </trkpt>
      <trkpt lat="40.8348850" lon="0.2083510">
        <ele>539.0</ele>
        <time>2019-08-15T10:41:37Z</time>
      </trkpt>
      <trkpt lat="40.8348760" lon="0.2083620">
        <ele>539.0</ele>
        <time>2019-08-15T10:41:38Z</time>
      </trkpt>
      <trkpt lat="40.8348680" lon="0.2083710">
        <ele>539.0</ele>
        <time>2019-08-15T10:41:39Z</time>
      </trkpt>
      <trkpt lat="40.8348600" lon="0.2083820">
        <ele>539.0</ele>
        <time>2019-08-15T10:41:40Z</time>
      </trkpt>
      <trkpt lat="40.8348490" lon="0.2083920">
        <ele>540.0</ele>
        <time>2019-08-15T10:41:41Z</time>
      </trkpt>
      <trkpt lat="40.8348370" lon="0.2084020">
        <ele>540.0</ele>
        <time>2019-08-15T10:41:42Z</time>
      </trkpt>
      <trkpt lat="40.8348230" lon="0.2084120">
        <ele>540.0</ele>
        <time>2019-08-15T10:41:43Z</time>
      </trkpt>
      <trkpt lat="40.8348060" lon="0.2084210">
        <ele>540.0</ele>
        <time>2019-08-15T10:41:44Z</time>
      </trkpt>
      <trkpt lat="40.8347850" lon="0.2084310">
        <ele>540.0</ele>
        <time>2019-08-15T10:41:45Z</time>
      </trkpt>
      <trkpt lat="40.8347620" lon="0.2084410">
        <ele>540.0</ele>
        <time>2019-08-15T10:41:46Z</time>
      </trkpt>
      <trkpt lat="40.8347360" lon="0.2084520">
        <ele>540.0</ele>
        <time>2019-08-15T10:41:47Z</time>
      </trkpt>
      <trkpt lat="40.8347060" lon="0.2084650">
        <ele>540.0</ele>
        <time>2019-08-15T10:41:48Z</time>
      </trkpt>
      <trkpt lat="40.8346700" lon="0.2084790">
        <ele>540.0</ele>
        <time>2019-08-15T10:41:49Z</time>
      </trkpt>
      <trkpt lat="40.8346290" lon="0.2084910">
        <ele>540.0</ele>
        <time>2019-08-15T10:41:50Z</time>
      </trkpt>
      <trkpt lat="40.8345780" lon="0.2085000">
        <ele>540.0</ele>
        <time>2019-08-15T10:41:51Z</time>
      </trkpt>
      <trkpt lat="40.8345140" lon="0.2085060">
        <ele>540.0</ele>
        <time>2019-08-15T10:41:52Z</time>
      </trkpt>
      <trkpt lat="40.8344490" lon="0.2085110">
        <ele>540.0</ele>
        <time>2019-08-15T10:41:53Z</time>
      </trkpt>
      <trkpt lat="40.8343900" lon="0.2085240">
        <ele>540.0</ele>
        <time>2019-08-15T10:41:54Z</time>
      </trkpt>
      <trkpt lat="40.8343360" lon="0.2085480">
        <ele>540.0</ele>
        <time>2019-08-15T10:41:55Z</time>
      </trkpt>
      <trkpt lat="40.8342820" lon="0.2085810">
        <ele>540.0</ele>
        <time>2019-08-15T10:41:56Z</time>
      </trkpt>
      <trkpt lat="40.8342480" lon="0.2086220">
        <ele>539.0</ele>
        <time>2019-08-15T10:41:57Z</time>
      </trkpt>
      <trkpt lat="40.8342210" lon="0.2086670">
        <ele>539.0</ele>
        <time>2019-08-15T10:41:58Z</time>
      </trkpt>
      <trkpt lat="40.8341820" lon="0.2087430">
        <ele>539.0</ele>
        <time>2019-08-15T10:42:00Z</time>
      </trkpt>
      <trkpt lat="40.8341720" lon="0.2087780">
        <ele>539.0</ele>
        <time>2019-08-15T10:42:01Z</time>
      </trkpt>
      <trkpt lat="40.8341660" lon="0.2088070">
        <ele>539.0</ele>
        <time>2019-08-15T10:42:02Z</time>
      </trkpt>
      <trkpt lat="40.8341660" lon="0.2089070">
        <ele>538.0</ele>
        <time>2019-08-15T10:42:05Z</time>
      </trkpt>
      <trkpt lat="40.8341670" lon="0.2089460">
        <ele>538.0</ele>
        <time>2019-08-15T10:42:06Z</time>
      </trkpt>
      <trkpt lat="40.8341600" lon="0.2089900">
        <ele>538.0</ele>
        <time>2019-08-15T10:42:07Z</time>
      </trkpt>
      <trkpt lat="40.8341440" lon="0.2090390">
        <ele>538.0</ele>
        <time>2019-08-15T10:42:08Z</time>
      </trkpt>
      <trkpt lat="40.8341030" lon="0.2091530">
        <ele>538.0</ele>
        <time>2019-08-15T10:42:10Z</time>
      </trkpt>
      <trkpt lat="40.8340870" lon="0.2092220">
        <ele>538.0</ele>
        <time>2019-08-15T10:42:11Z</time>
      </trkpt>
      <trkpt lat="40.8340730" lon="0.2092960">
        <ele>538.0</ele>
        <time>2019-08-15T10:42:12Z</time>
      </trkpt>
      <trkpt lat="40.8340620" lon="0.2093730">
        <ele>538.0</ele>
        <time>2019-08-15T10:42:13Z</time>
      </trkpt>
      <trkpt lat="40.8340440" lon="0.2094510">
        <ele>537.0</ele>
        <time>2019-08-15T10:42:14Z</time>
      </trkpt>
      <trkpt lat="40.8340200" lon="0.2095370">
        <ele>537.0</ele>
        <time>2019-08-15T10:42:15Z</time>
      </trkpt>
      <trkpt lat="40.8339910" lon="0.2096310">
        <ele>537.0</ele>
        <time>2019-08-15T10:42:16Z</time>
      </trkpt>
      <trkpt lat="40.8339580" lon="0.2097170">
        <ele>536.0</ele>
        <time>2019-08-15T10:42:17Z</time>
      </trkpt>
      <trkpt lat="40.8339210" lon="0.2097910">
        <ele>536.0</ele>
        <time>2019-08-15T10:42:18Z</time>
      </trkpt>
      <trkpt lat="40.8338920" lon="0.2098590">
        <ele>535.0</ele>
        <time>2019-08-15T10:42:19Z</time>
      </trkpt>
      <trkpt lat="40.8338700" lon="0.2099290">
        <ele>534.0</ele>
        <time>2019-08-15T10:42:20Z</time>
      </trkpt>
      <trkpt lat="40.8338590" lon="0.2099960">
        <ele>534.0</ele>
        <time>2019-08-15T10:42:21Z</time>
      </trkpt>
      <trkpt lat="40.8338670" lon="0.2100610">
        <ele>533.0</ele>
        <time>2019-08-15T10:42:22Z</time>
      </trkpt>
      <trkpt lat="40.8338790" lon="0.2101160">
        <ele>532.0</ele>
        <time>2019-08-15T10:42:23Z</time>
      </trkpt>
      <trkpt lat="40.8339210" lon="0.2102660">
        <ele>530.0</ele>
        <time>2019-08-15T10:42:26Z</time>
      </trkpt>
      <trkpt lat="40.8339340" lon="0.2103130">
        <ele>530.0</ele>
        <time>2019-08-15T10:42:27Z</time>
      </trkpt>
      <trkpt lat="40.8339460" lon="0.2103660">
        <ele>529.0</ele>
        <time>2019-08-15T10:42:28Z</time>
      </trkpt>
      <trkpt lat="40.8339810" lon="0.2105910">
        <ele>528.0</ele>
        <time>2019-08-15T10:42:31Z</time>
      </trkpt>
      <trkpt lat="40.8339900" lon="0.2106260">
        <ele>528.0</ele>
        <time>2019-08-15T10:42:32Z</time>
      </trkpt>
      <trkpt lat="40.8340110" lon="0.2107000">
        <ele>527.0</ele>
        <time>2019-08-15T10:42:33Z</time>
      </trkpt>
      <trkpt lat="40.8340190" lon="0.2107760">
        <ele>527.0</ele>
        <time>2019-08-15T10:42:34Z</time>
      </trkpt>
      <trkpt lat="40.8340270" lon="0.2108530">
        <ele>527.0</ele>
        <time>2019-08-15T10:42:35Z</time>
      </trkpt>
      <trkpt lat="40.8340300" lon="0.2109300">
        <ele>526.0</ele>
        <time>2019-08-15T10:42:36Z</time>
      </trkpt>
      <trkpt lat="40.8340350" lon="0.2110050">
        <ele>526.0</ele>
        <time>2019-08-15T10:42:37Z</time>
      </trkpt>
      <trkpt lat="40.8340340" lon="0.2110720">
        <ele>526.0</ele>
        <time>2019-08-15T10:42:38Z</time>
      </trkpt>
      <trkpt lat="40.8340240" lon="0.2111810">
        <ele>526.0</ele>
        <time>2019-08-15T10:42:40Z</time>
      </trkpt>
      <trkpt lat="40.8340200" lon="0.2112290">
        <ele>525.0</ele>
        <time>2019-08-15T10:42:41Z</time>
      </trkpt>
      <trkpt lat="40.8340160" lon="0.2112730">
        <ele>525.0</ele>
        <time>2019-08-15T10:42:42Z</time>
      </trkpt>
      <trkpt lat="40.8340140" lon="0.2113900">
        <ele>525.0</ele>
        <time>2019-08-15T10:42:45Z</time>
      </trkpt>
      <trkpt lat="40.8340140" lon="0.2114310">
        <ele>525.0</ele>
        <time>2019-08-15T10:42:46Z</time>
      </trkpt>
      <trkpt lat="40.8340140" lon="0.2114740">
        <ele>524.0</ele>
        <time>2019-08-15T10:42:47Z</time>
      </trkpt>
      <trkpt lat="40.8340140" lon="0.2115230">
        <ele>524.0</ele>
        <time>2019-08-15T10:42:48Z</time>
      </trkpt>
      <trkpt lat="40.8340130" lon="0.2116300">
        <ele>524.0</ele>
        <time>2019-08-15T10:42:50Z</time>
      </trkpt>
      <trkpt lat="40.8340120" lon="0.2116860">
        <ele>524.0</ele>
        <time>2019-08-15T10:42:51Z</time>
      </trkpt>
      <trkpt lat="40.8340090" lon="0.2117450">
        <ele>524.0</ele>
        <time>2019-08-15T10:42:52Z</time>
      </trkpt>
      <trkpt lat="40.8339990" lon="0.2118050">
        <ele>524.0</ele>
        <time>2019-08-15T10:42:53Z</time>
      </trkpt>
      <trkpt lat="40.8339620" lon="0.2119320">
        <ele>523.0</ele>
        <time>2019-08-15T10:42:55Z</time>
      </trkpt>
      <trkpt lat="40.8339460" lon="0.2120020">
        <ele>523.0</ele>
        <time>2019-08-15T10:42:56Z</time>
      </trkpt>
      <trkpt lat="40.8339310" lon="0.2120700">
        <ele>523.0</ele>
        <time>2019-08-15T10:42:57Z</time>
      </trkpt>
      <trkpt lat="40.8339100" lon="0.2121330">
        <ele>523.0</ele>
        <time>2019-08-15T10:42:58Z</time>
      </trkpt>
      <trkpt lat="40.8338610" lon="0.2122460">
        <ele>522.0</ele>
        <time>2019-08-15T10:43:00Z</time>
      </trkpt>
      <trkpt lat="40.8338460" lon="0.2123010">
        <ele>522.0</ele>
        <time>2019-08-15T10:43:01Z</time>
      </trkpt>
      <trkpt lat="40.8338250" lon="0.2123540">
        <ele>522.0</ele>
        <time>2019-08-15T10:43:02Z</time>
      </trkpt>
      <trkpt lat="40.8338070" lon="0.2123980">
        <ele>522.0</ele>
        <time>2019-08-15T10:43:03Z</time>
      </trkpt>
      <trkpt lat="40.8337850" lon="0.2124540">
        <ele>522.0</ele>
        <time>2019-08-15T10:43:05Z</time>
      </trkpt>
      <trkpt lat="40.8337760" lon="0.2124760">
        <ele>522.0</ele>
        <time>2019-08-15T10:43:06Z</time>
      </trkpt>
      <trkpt lat="40.8337670" lon="0.2124980">
        <ele>522.0</ele>
        <time>2019-08-15T10:43:07Z</time>
      </trkpt>
      <trkpt lat="40.8337590" lon="0.2125230">
        <ele>522.0</ele>
        <time>2019-08-15T10:43:08Z</time>
      </trkpt>
      <trkpt lat="40.8337430" lon="0.2125720">
        <ele>522.0</ele>
        <time>2019-08-15T10:43:10Z</time>
      </trkpt>
      <trkpt lat="40.8337360" lon="0.2125980">
        <ele>522.0</ele>
        <time>2019-08-15T10:43:11Z</time>
      </trkpt>
      <trkpt lat="40.8337270" lon="0.2126230">
        <ele>522.0</ele>
        <time>2019-08-15T10:43:12Z</time>
      </trkpt>
      <trkpt lat="40.8337130" lon="0.2126440">
        <ele>522.0</ele>
        <time>2019-08-15T10:43:13Z</time>
      </trkpt>
      <trkpt lat="40.8336930" lon="0.2126880">
        <ele>523.0</ele>
        <time>2019-08-15T10:43:15Z</time>
      </trkpt>
      <trkpt lat="40.8336860" lon="0.2127060">
        <ele>523.0</ele>
        <time>2019-08-15T10:43:16Z</time>
      </trkpt>
      <trkpt lat="40.8336760" lon="0.2127240">
        <ele>523.0</ele>
        <time>2019-08-15T10:43:17Z</time>
      </trkpt>
      <trkpt lat="40.8336670" lon="0.2127460">
        <ele>523.0</ele>
        <time>2019-08-15T10:43:18Z</time>
      </trkpt>
      <trkpt lat="40.8336460" lon="0.2127810">
        <ele>524.0</ele>
        <time>2019-08-15T10:43:20Z</time>
      </trkpt>
      <trkpt lat="40.8336330" lon="0.2127950">
        <ele>524.0</ele>
        <time>2019-08-15T10:43:21Z</time>
      </trkpt>
      <trkpt lat="40.8336240" lon="0.2128110">
        <ele>524.0</ele>
        <time>2019-08-15T10:43:22Z</time>
      </trkpt>
      <trkpt lat="40.8336160" lon="0.2128290">
        <ele>524.0</ele>
        <time>2019-08-15T10:43:23Z</time>
      </trkpt>
      <trkpt lat="40.8335990" lon="0.2128640">
        <ele>524.0</ele>
        <time>2019-08-15T10:43:25Z</time>
      </trkpt>
      <trkpt lat="40.8335890" lon="0.2128810">
        <ele>525.0</ele>
        <time>2019-08-15T10:43:26Z</time>
      </trkpt>
      <trkpt lat="40.8335800" lon="0.2128950">
        <ele>525.0</ele>
        <time>2019-08-15T10:43:27Z</time>
      </trkpt>
      <trkpt lat="40.8335710" lon="0.2129110">
        <ele>525.0</ele>
        <time>2019-08-15T10:43:28Z</time>
      </trkpt>
      <trkpt lat="40.8335520" lon="0.2129450">
        <ele>525.0</ele>
        <time>2019-08-15T10:43:30Z</time>
      </trkpt>
      <trkpt lat="40.8335440" lon="0.2129650">
        <ele>525.0</ele>
        <time>2019-08-15T10:43:31Z</time>
      </trkpt>
      <trkpt lat="40.8335350" lon="0.2129840">
        <ele>525.0</ele>
        <time>2019-08-15T10:43:32Z</time>
      </trkpt>
      <trkpt lat="40.8335260" lon="0.2130020">
        <ele>525.0</ele>
        <time>2019-08-15T10:43:33Z</time>
      </trkpt>
      <trkpt lat="40.8335110" lon="0.2130360">
        <ele>525.0</ele>
        <time>2019-08-15T10:43:35Z</time>
      </trkpt>
      <trkpt lat="40.8335000" lon="0.2130540">
        <ele>526.0</ele>
        <time>2019-08-15T10:43:36Z</time>
      </trkpt>
      <trkpt lat="40.8334880" lon="0.2130690">
        <ele>526.0</ele>
        <time>2019-08-15T10:43:37Z</time>
      </trkpt>
      <trkpt lat="40.8334810" lon="0.2130860">
        <ele>526.0</ele>
        <time>2019-08-15T10:43:38Z</time>
      </trkpt>
      <trkpt lat="40.8334630" lon="0.2131180">
        <ele>526.0</ele>
        <time>2019-08-15T10:43:40Z</time>
      </trkpt>
      <trkpt lat="40.8334570" lon="0.2131330">
        <ele>526.0</ele>
        <time>2019-08-15T10:43:41Z</time>
      </trkpt>
      <trkpt lat="40.8334500" lon="0.2131500">
        <ele>526.0</ele>
        <time>2019-08-15T10:43:42Z</time>
      </trkpt>
      <trkpt lat="40.8334440" lon="0.2131680">
        <ele>526.0</ele>
        <time>2019-08-15T10:43:43Z</time>
      </trkpt>
      <trkpt lat="40.8334310" lon="0.2131940">
        <ele>527.0</ele>
        <time>2019-08-15T10:43:45Z</time>
      </trkpt>
      <trkpt lat="40.8334250" lon="0.2132060">
        <ele>527.0</ele>
        <time>2019-08-15T10:43:46Z</time>
      </trkpt>
      <trkpt lat="40.8334220" lon="0.2132230">
        <ele>527.0</ele>
        <time>2019-08-15T10:43:47Z</time>
      </trkpt>
      <trkpt lat="40.8334200" lon="0.2132390">
        <ele>527.0</ele>
        <time>2019-08-15T10:43:48Z</time>
      </trkpt>
      <trkpt lat="40.8334060" lon="0.2132750">
        <ele>528.0</ele>
        <time>2019-08-15T10:43:50Z</time>
      </trkpt>
      <trkpt lat="40.8333990" lon="0.2132920">
        <ele>528.0</ele>
        <time>2019-08-15T10:43:51Z</time>
      </trkpt>
      <trkpt lat="40.8333920" lon="0.2133080">
        <ele>528.0</ele>
        <time>2019-08-15T10:43:52Z</time>
      </trkpt>
      <trkpt lat="40.8333880" lon="0.2133270">
        <ele>528.0</ele>
        <time>2019-08-15T10:43:53Z</time>
      </trkpt>
      <trkpt lat="40.8333830" lon="0.2133640">
        <ele>528.0</ele>
        <time>2019-08-15T10:43:55Z</time>
      </trkpt>
      <trkpt lat="40.8333820" lon="0.2133820">
        <ele>528.0</ele>
        <time>2019-08-15T10:43:56Z</time>
      </trkpt>
      <trkpt lat="40.8333780" lon="0.2134020">
        <ele>529.0</ele>
        <time>2019-08-15T10:43:57Z</time>
      </trkpt>
      <trkpt lat="40.8333730" lon="0.2134210">
        <ele>529.0</ele>
        <time>2019-08-15T10:43:58Z</time>
      </trkpt>
      <trkpt lat="40.8333670" lon="0.2134650">
        <ele>529.0</ele>
        <time>2019-08-15T10:44:00Z</time>
      </trkpt>
      <trkpt lat="40.8333610" lon="0.2134850">
        <ele>529.0</ele>
        <time>2019-08-15T10:44:01Z</time>
      </trkpt>
      <trkpt lat="40.8333630" lon="0.2135070">
        <ele>529.0</ele>
        <time>2019-08-15T10:44:02Z</time>
      </trkpt>
      <trkpt lat="40.8333660" lon="0.2135300">
        <ele>529.0</ele>
        <time>2019-08-15T10:44:03Z</time>
      </trkpt>
      <trkpt lat="40.8333690" lon="0.2135720">
        <ele>529.0</ele>
        <time>2019-08-15T10:44:05Z</time>
      </trkpt>
      <trkpt lat="40.8333740" lon="0.2135930">
        <ele>529.0</ele>
        <time>2019-08-15T10:44:06Z</time>
      </trkpt>
      <trkpt lat="40.8333770" lon="0.2136110">
        <ele>529.0</ele>
        <time>2019-08-15T10:44:07Z</time>
      </trkpt>
      <trkpt lat="40.8333770" lon="0.2136280">
        <ele>530.0</ele>
        <time>2019-08-15T10:44:08Z</time>
      </trkpt>
      <trkpt lat="40.8333770" lon="0.2136450">
        <ele>530.0</ele>
        <time>2019-08-15T10:44:09Z</time>
      </trkpt>
      <trkpt lat="40.8333780" lon="0.2136630">
        <ele>530.0</ele>
        <time>2019-08-15T10:44:10Z</time>
      </trkpt>
      <trkpt lat="40.8333780" lon="0.2136800">
        <ele>530.0</ele>
        <time>2019-08-15T10:44:11Z</time>
      </trkpt>
      <trkpt lat="40.8333780" lon="0.2136990">
        <ele>530.0</ele>
        <time>2019-08-15T10:44:12Z</time>
      </trkpt>
      <trkpt lat="40.8333770" lon="0.2137180">
        <ele>530.0</ele>
        <time>2019-08-15T10:44:13Z</time>
      </trkpt>
      <trkpt lat="40.8333780" lon="0.2137380">
        <ele>530.0</ele>
        <time>2019-08-15T10:44:14Z</time>
      </trkpt>
      <trkpt lat="40.8333800" lon="0.2137580">
        <ele>530.0</ele>
        <time>2019-08-15T10:44:15Z</time>
      </trkpt>
      <trkpt lat="40.8333870" lon="0.2137780">
        <ele>530.0</ele>
        <time>2019-08-15T10:44:16Z</time>
      </trkpt>
      <trkpt lat="40.8333920" lon="0.2137980">
        <ele>530.0</ele>
        <time>2019-08-15T10:44:17Z</time>
      </trkpt>
      <trkpt lat="40.8333950" lon="0.2138180">
        <ele>530.0</ele>
        <time>2019-08-15T10:44:18Z</time>
      </trkpt>
      <trkpt lat="40.8333970" lon="0.2138550">
        <ele>530.0</ele>
        <time>2019-08-15T10:44:20Z</time>
      </trkpt>
      <trkpt lat="40.8334020" lon="0.2138730">
        <ele>530.0</ele>
        <time>2019-08-15T10:44:21Z</time>
      </trkpt>
      <trkpt lat="40.8334050" lon="0.2138940">
        <ele>530.0</ele>
        <time>2019-08-15T10:44:22Z</time>
      </trkpt>
      <trkpt lat="40.8334140" lon="0.2139460">
        <ele>531.0</ele>
        <time>2019-08-15T10:44:25Z</time>
      </trkpt>
      <trkpt lat="40.8334170" lon="0.2139620">
        <ele>531.0</ele>
        <time>2019-08-15T10:44:26Z</time>
      </trkpt>
      <trkpt lat="40.8334190" lon="0.2139780">
        <ele>531.0</ele>
        <time>2019-08-15T10:44:27Z</time>
      </trkpt>
      <trkpt lat="40.8334190" lon="0.2139950">
        <ele>531.0</ele>
        <time>2019-08-15T10:44:28Z</time>
      </trkpt>
      <trkpt lat="40.8334250" lon="0.2140280">
        <ele>531.0</ele>
        <time>2019-08-15T10:44:30Z</time>
      </trkpt>
      <trkpt lat="40.8334270" lon="0.2140440">
        <ele>531.0</ele>
        <time>2019-08-15T10:44:31Z</time>
      </trkpt>
      <trkpt lat="40.8334300" lon="0.2140600">
        <ele>531.0</ele>
        <time>2019-08-15T10:44:32Z</time>
      </trkpt>
      <trkpt lat="40.8334330" lon="0.2140730">
        <ele>531.0</ele>
        <time>2019-08-15T10:44:33Z</time>
      </trkpt>
      <trkpt lat="40.8334410" lon="0.2141050">
        <ele>531.0</ele>
        <time>2019-08-15T10:44:35Z</time>
      </trkpt>
      <trkpt lat="40.8334450" lon="0.2141230">
        <ele>531.0</ele>
        <time>2019-08-15T10:44:36Z</time>
      </trkpt>
      <trkpt lat="40.8334480" lon="0.2141390">
        <ele>531.0</ele>
        <time>2019-08-15T10:44:37Z</time>
      </trkpt>
      <trkpt lat="40.8334510" lon="0.2141570">
        <ele>531.0</ele>
        <time>2019-08-15T10:44:38Z</time>
      </trkpt>
      <trkpt lat="40.8334530" lon="0.2141950">
        <ele>532.0</ele>
        <time>2019-08-15T10:44:40Z</time>
      </trkpt>
      <trkpt lat="40.8334540" lon="0.2142120">
        <ele>532.0</ele>
        <time>2019-08-15T10:44:41Z</time>
      </trkpt>
      <trkpt lat="40.8334530" lon="0.2142300">
        <ele>532.0</ele>
        <time>2019-08-15T10:44:42Z</time>
      </trkpt>
      <trkpt lat="40.8334560" lon="0.2142500">
        <ele>532.0</ele>
        <time>2019-08-15T10:44:43Z</time>
      </trkpt>
      <trkpt lat="40.8334620" lon="0.2142890">
        <ele>532.0</ele>
        <time>2019-08-15T10:44:45Z</time>
      </trkpt>
      <trkpt lat="40.8334640" lon="0.2143100">
        <ele>532.0</ele>
        <time>2019-08-15T10:44:46Z</time>
      </trkpt>
      <trkpt lat="40.8334690" lon="0.2143280">
        <ele>532.0</ele>
        <time>2019-08-15T10:44:47Z</time>
      </trkpt>
      <trkpt lat="40.8334750" lon="0.2143450">
        <ele>533.0</ele>
        <time>2019-08-15T10:44:48Z</time>
      </trkpt>
      <trkpt lat="40.8334870" lon="0.2143810">
        <ele>533.0</ele>
        <time>2019-08-15T10:44:50Z</time>
      </trkpt>
      <trkpt lat="40.8334960" lon="0.2143970">
        <ele>533.0</ele>
        <time>2019-08-15T10:44:51Z</time>
      </trkpt>
      <trkpt lat="40.8335010" lon="0.2144140">
        <ele>533.0</ele>
        <time>2019-08-15T10:44:52Z</time>
      </trkpt>
      <trkpt lat="40.8335080" lon="0.2144320">
        <ele>533.0</ele>
        <time>2019-08-15T10:44:53Z</time>
      </trkpt>
      <trkpt lat="40.8335240" lon="0.2144620">
        <ele>534.0</ele>
        <time>2019-08-15T10:44:55Z</time>
      </trkpt>
      <trkpt lat="40.8335390" lon="0.2144760">
        <ele>534.0</ele>
        <time>2019-08-15T10:44:56Z</time>
      </trkpt>
      <trkpt lat="40.8335480" lon="0.2144900">
        <ele>534.0</ele>
        <time>2019-08-15T10:44:57Z</time>
      </trkpt>
      <trkpt lat="40.8335560" lon="0.2145060">
        <ele>534.0</ele>
        <time>2019-08-15T10:44:58Z</time>
      </trkpt>
      <trkpt lat="40.8335730" lon="0.2145420">
        <ele>534.0</ele>
        <time>2019-08-15T10:45:00Z</time>
      </trkpt>
      <trkpt lat="40.8335820" lon="0.2145650">
        <ele>534.0</ele>
        <time>2019-08-15T10:45:01Z</time>
      </trkpt>
      <trkpt lat="40.8335860" lon="0.2145890">
        <ele>534.0</ele>
        <time>2019-08-15T10:45:02Z</time>
      </trkpt>
      <trkpt lat="40.8335930" lon="0.2146160">
        <ele>534.0</ele>
        <time>2019-08-15T10:45:03Z</time>
      </trkpt>
      <trkpt lat="40.8336060" lon="0.2146720">
        <ele>534.0</ele>
        <time>2019-08-15T10:45:05Z</time>
      </trkpt>
      <trkpt lat="40.8336130" lon="0.2147020">
        <ele>534.0</ele>
        <time>2019-08-15T10:45:06Z</time>
      </trkpt>
      <trkpt lat="40.8336260" lon="0.2147320">
        <ele>534.0</ele>
        <time>2019-08-15T10:45:07Z</time>
      </trkpt>
      <trkpt lat="40.8336420" lon="0.2147630">
        <ele>534.0</ele>
        <time>2019-08-15T10:45:08Z</time>
      </trkpt>
      <trkpt lat="40.8336710" lon="0.2148320">
        <ele>535.0</ele>
        <time>2019-08-15T10:45:10Z</time>
      </trkpt>
      <trkpt lat="40.8336880" lon="0.2148690">
        <ele>535.0</ele>
        <time>2019-08-15T10:45:11Z</time>
      </trkpt>
      <trkpt lat="40.8337050" lon="0.2149070">
        <ele>535.0</ele>
        <time>2019-08-15T10:45:12Z</time>
      </trkpt>
      <trkpt lat="40.8337230" lon="0.2149490">
        <ele>534.0</ele>
        <time>2019-08-15T10:45:13Z</time>
      </trkpt>
      <trkpt lat="40.8337620" lon="0.2150360">
        <ele>534.0</ele>
        <time>2019-08-15T10:45:15Z</time>
      </trkpt>
      <trkpt lat="40.8337850" lon="0.2150870">
        <ele>534.0</ele>
        <time>2019-08-15T10:45:16Z</time>
      </trkpt>
      <trkpt lat="40.8338080" lon="0.2151440">
        <ele>534.0</ele>
        <time>2019-08-15T10:45:17Z</time>
      </trkpt>
      <trkpt lat="40.8338310" lon="0.2152020">
        <ele>534.0</ele>
        <time>2019-08-15T10:45:18Z</time>
      </trkpt>
      <trkpt lat="40.8338720" lon="0.2153290">
        <ele>534.0</ele>
        <time>2019-08-15T10:45:20Z</time>
      </trkpt>
      <trkpt lat="40.8338920" lon="0.2153920">
        <ele>534.0</ele>
        <time>2019-08-15T10:45:21Z</time>
      </trkpt>
      <trkpt lat="40.8339040" lon="0.2154560">
        <ele>534.0</ele>
        <time>2019-08-15T10:45:22Z</time>
      </trkpt>
      <trkpt lat="40.8339080" lon="0.2155110">
        <ele>534.0</ele>
        <time>2019-08-15T10:45:23Z</time>
      </trkpt>
      <trkpt lat="40.8339030" lon="0.2156010">
        <ele>533.0</ele>
        <time>2019-08-15T10:45:25Z</time>
      </trkpt>
      <trkpt lat="40.8338960" lon="0.2156450">
        <ele>533.0</ele>
        <time>2019-08-15T10:45:26Z</time>
      </trkpt>
      <trkpt lat="40.8338900" lon="0.2156850">
        <ele>533.0</ele>
        <time>2019-08-15T10:45:27Z</time>
      </trkpt>
      <trkpt lat="40.8338820" lon="0.2157210">
        <ele>533.0</ele>
        <time>2019-08-15T10:45:28Z</time>
      </trkpt>
      <trkpt lat="40.8338650" lon="0.2157920">
        <ele>533.0</ele>
        <time>2019-08-15T10:45:30Z</time>
      </trkpt>
      <trkpt lat="40.8338570" lon="0.2158270">
        <ele>533.0</ele>
        <time>2019-08-15T10:45:31Z</time>
      </trkpt>
      <trkpt lat="40.8338440" lon="0.2158620">
        <ele>533.0</ele>
        <time>2019-08-15T10:45:32Z</time>
      </trkpt>
      <trkpt lat="40.8338310" lon="0.2158940">
        <ele>532.0</ele>
        <time>2019-08-15T10:45:33Z</time>
      </trkpt>
      <trkpt lat="40.8338130" lon="0.2159240">
        <ele>532.0</ele>
        <time>2019-08-15T10:45:34Z</time>
      </trkpt>
      <trkpt lat="40.8337930" lon="0.2159530">
        <ele>532.0</ele>
        <time>2019-08-15T10:45:35Z</time>
      </trkpt>
      <trkpt lat="40.8337690" lon="0.2159820">
        <ele>532.0</ele>
        <time>2019-08-15T10:45:36Z</time>
      </trkpt>
      <trkpt lat="40.8337430" lon="0.2160090">
        <ele>532.0</ele>
        <time>2019-08-15T10:45:37Z</time>
      </trkpt>
      <trkpt lat="40.8337110" lon="0.2160280">
        <ele>532.0</ele>
        <time>2019-08-15T10:45:38Z</time>
      </trkpt>
      <trkpt lat="40.8336810" lon="0.2160440">
        <ele>532.0</ele>
        <time>2019-08-15T10:45:39Z</time>
      </trkpt>
      <trkpt lat="40.8336480" lon="0.2160540">
        <ele>532.0</ele>
        <time>2019-08-15T10:45:40Z</time>
      </trkpt>
      <trkpt lat="40.8336160" lon="0.2160630">
        <ele>532.0</ele>
        <time>2019-08-15T10:45:41Z</time>
      </trkpt>
      <trkpt lat="40.8335840" lon="0.2160710">
        <ele>532.0</ele>
        <time>2019-08-15T10:45:42Z</time>
      </trkpt>
      <trkpt lat="40.8335500" lon="0.2160770">
        <ele>532.0</ele>
        <time>2019-08-15T10:45:43Z</time>
      </trkpt>
      <trkpt lat="40.8335170" lon="0.2160810">
        <ele>531.0</ele>
        <time>2019-08-15T10:45:44Z</time>
      </trkpt>
      <trkpt lat="40.8334820" lon="0.2160850">
        <ele>531.0</ele>
        <time>2019-08-15T10:45:45Z</time>
      </trkpt>
      <trkpt lat="40.8334500" lon="0.2160940">
        <ele>531.0</ele>
        <time>2019-08-15T10:45:46Z</time>
      </trkpt>
      <trkpt lat="40.8334180" lon="0.2161070">
        <ele>531.0</ele>
        <time>2019-08-15T10:45:47Z</time>
      </trkpt>
      <trkpt lat="40.8333840" lon="0.2161170">
        <ele>531.0</ele>
        <time>2019-08-15T10:45:48Z</time>
      </trkpt>
      <trkpt lat="40.8333510" lon="0.2161230">
        <ele>531.0</ele>
        <time>2019-08-15T10:45:49Z</time>
      </trkpt>
      <trkpt lat="40.8333150" lon="0.2161240">
        <ele>531.0</ele>
        <time>2019-08-15T10:45:50Z</time>
      </trkpt>
      <trkpt lat="40.8332780" lon="0.2161220">
        <ele>531.0</ele>
        <time>2019-08-15T10:45:51Z</time>
      </trkpt>
      <trkpt lat="40.8332400" lon="0.2161210">
        <ele>531.0</ele>
        <time>2019-08-15T10:45:52Z</time>
      </trkpt>
      <trkpt lat="40.8332020" lon="0.2161230">
        <ele>531.0</ele>
        <time>2019-08-15T10:45:53Z</time>
      </trkpt>
      <trkpt lat="40.8331630" lon="0.2161260">
        <ele>531.0</ele>
        <time>2019-08-15T10:45:54Z</time>
      </trkpt>
      <trkpt lat="40.8331240" lon="0.2161310">
        <ele>531.0</ele>
        <time>2019-08-15T10:45:55Z</time>
      </trkpt>
      <trkpt lat="40.8330840" lon="0.2161390">
        <ele>531.0</ele>
        <time>2019-08-15T10:45:56Z</time>
      </trkpt>
      <trkpt lat="40.8330490" lon="0.2161430">
        <ele>531.0</ele>
        <time>2019-08-15T10:45:57Z</time>
      </trkpt>
      <trkpt lat="40.8330110" lon="0.2161470">
        <ele>531.0</ele>
        <time>2019-08-15T10:45:58Z</time>
      </trkpt>
      <trkpt lat="40.8329690" lon="0.2161530">
        <ele>531.0</ele>
        <time>2019-08-15T10:45:59Z</time>
      </trkpt>
      <trkpt lat="40.8329290" lon="0.2161580">
        <ele>531.0</ele>
        <time>2019-08-15T10:46:00Z</time>
      </trkpt>
      <trkpt lat="40.8328950" lon="0.2161620">
        <ele>531.0</ele>
        <time>2019-08-15T10:46:01Z</time>
      </trkpt>
      <trkpt lat="40.8328620" lon="0.2161690">
        <ele>531.0</ele>
        <time>2019-08-15T10:46:02Z</time>
      </trkpt>
      <trkpt lat="40.8328050" lon="0.2161790">
        <ele>530.0</ele>
        <time>2019-08-15T10:46:04Z</time>
      </trkpt>
      <trkpt lat="40.8327870" lon="0.2161900">
        <ele>530.0</ele>
        <time>2019-08-15T10:46:05Z</time>
      </trkpt>
      <trkpt lat="40.8327240" lon="0.2161860">
        <ele>530.0</ele>
        <time>2019-08-15T10:47:31Z</time>
      </trkpt>
      <trkpt lat="40.8327020" lon="0.2161700">
        <ele>530.0</ele>
        <time>2019-08-15T10:47:33Z</time>
      </trkpt>
      <trkpt lat="40.8326790" lon="0.2161480">
        <ele>530.0</ele>
        <time>2019-08-15T10:47:34Z</time>
      </trkpt>
      <trkpt lat="40.8326540" lon="0.2161170">
        <ele>530.0</ele>
        <time>2019-08-15T10:47:35Z</time>
      </trkpt>
      <trkpt lat="40.8326230" lon="0.2160750">
        <ele>530.0</ele>
        <time>2019-08-15T10:47:36Z</time>
      </trkpt>
      <trkpt lat="40.8325920" lon="0.2160250">
        <ele>530.0</ele>
        <time>2019-08-15T10:47:37Z</time>
      </trkpt>
      <trkpt lat="40.8325610" lon="0.2159690">
        <ele>529.0</ele>
        <time>2019-08-15T10:47:38Z</time>
      </trkpt>
      <trkpt lat="40.8325310" lon="0.2159100">
        <ele>529.0</ele>
        <time>2019-08-15T10:47:39Z</time>
      </trkpt>
      <trkpt lat="40.8325050" lon="0.2158510">
        <ele>529.0</ele>
        <time>2019-08-15T10:47:40Z</time>
      </trkpt>
      <trkpt lat="40.8324800" lon="0.2157940">
        <ele>529.0</ele>
        <time>2019-08-15T10:47:41Z</time>
      </trkpt>
      <trkpt lat="40.8324490" lon="0.2157410">
        <ele>528.0</ele>
        <time>2019-08-15T10:47:42Z</time>
      </trkpt>
      <trkpt lat="40.8324150" lon="0.2156840">
        <ele>528.0</ele>
        <time>2019-08-15T10:47:43Z</time>
      </trkpt>
      <trkpt lat="40.8323840" lon="0.2156270">
        <ele>528.0</ele>
        <time>2019-08-15T10:47:44Z</time>
      </trkpt>
      <trkpt lat="40.8323510" lon="0.2155760">
        <ele>527.0</ele>
        <time>2019-08-15T10:47:45Z</time>
      </trkpt>
      <trkpt lat="40.8323150" lon="0.2155300">
        <ele>527.0</ele>
        <time>2019-08-15T10:47:46Z</time>
      </trkpt>
      <trkpt lat="40.8322760" lon="0.2154810">
        <ele>527.0</ele>
        <time>2019-08-15T10:47:47Z</time>
      </trkpt>
      <trkpt lat="40.8322280" lon="0.2154280">
        <ele>527.0</ele>
        <time>2019-08-15T10:47:48Z</time>
      </trkpt>
      <trkpt lat="40.8321750" lon="0.2153770">
        <ele>526.0</ele>
        <time>2019-08-15T10:47:49Z</time>
      </trkpt>
      <trkpt lat="40.8321160" lon="0.2153330">
        <ele>526.0</ele>
        <time>2019-08-15T10:47:50Z</time>
      </trkpt>
      <trkpt lat="40.8320510" lon="0.2152900">
        <ele>525.0</ele>
        <time>2019-08-15T10:47:51Z</time>
      </trkpt>
      <trkpt lat="40.8319850" lon="0.2152510">
        <ele>525.0</ele>
        <time>2019-08-15T10:47:52Z</time>
      </trkpt>
      <trkpt lat="40.8319260" lon="0.2152160">
        <ele>525.0</ele>
        <time>2019-08-15T10:47:53Z</time>
      </trkpt>
      <trkpt lat="40.8318750" lon="0.2151740">
        <ele>524.0</ele>
        <time>2019-08-15T10:47:54Z</time>
      </trkpt>
      <trkpt lat="40.8318290" lon="0.2151410">
        <ele>524.0</ele>
        <time>2019-08-15T10:47:55Z</time>
      </trkpt>
      <trkpt lat="40.8317860" lon="0.2151220">
        <ele>524.0</ele>
        <time>2019-08-15T10:47:56Z</time>
      </trkpt>
      <trkpt lat="40.8317440" lon="0.2151060">
        <ele>524.0</ele>
        <time>2019-08-15T10:47:57Z</time>
      </trkpt>
      <trkpt lat="40.8317020" lon="0.2151020">
        <ele>523.0</ele>
        <time>2019-08-15T10:47:58Z</time>
      </trkpt>
      <trkpt lat="40.8316010" lon="0.2151320">
        <ele>523.0</ele>
        <time>2019-08-15T10:48:01Z</time>
      </trkpt>
      <trkpt lat="40.8315740" lon="0.2151420">
        <ele>523.0</ele>
        <time>2019-08-15T10:48:02Z</time>
      </trkpt>
      <trkpt lat="40.8315480" lon="0.2151510">
        <ele>523.0</ele>
        <time>2019-08-15T10:48:03Z</time>
      </trkpt>
      <trkpt lat="40.8315080" lon="0.2151700">
        <ele>523.0</ele>
        <time>2019-08-15T10:48:05Z</time>
      </trkpt>
      <trkpt lat="40.8314850" lon="0.2151790">
        <ele>523.0</ele>
        <time>2019-08-15T10:48:06Z</time>
      </trkpt>
      <trkpt lat="40.8314680" lon="0.2151900">
        <ele>523.0</ele>
        <time>2019-08-15T10:48:07Z</time>
      </trkpt>
      <trkpt lat="40.8314520" lon="0.2152010">
        <ele>523.0</ele>
        <time>2019-08-15T10:48:08Z</time>
      </trkpt>
      <trkpt lat="40.8314340" lon="0.2152140">
        <ele>523.0</ele>
        <time>2019-08-15T10:48:09Z</time>
      </trkpt>
      <trkpt lat="40.8314100" lon="0.2152240">
        <ele>523.0</ele>
        <time>2019-08-15T10:48:10Z</time>
      </trkpt>
      <trkpt lat="40.8313900" lon="0.2152370">
        <ele>523.0</ele>
        <time>2019-08-15T10:48:11Z</time>
      </trkpt>
      <trkpt lat="40.8313700" lon="0.2152510">
        <ele>523.0</ele>
        <time>2019-08-15T10:48:12Z</time>
      </trkpt>
      <trkpt lat="40.8313520" lon="0.2152640">
        <ele>523.0</ele>
        <time>2019-08-15T10:48:13Z</time>
      </trkpt>
      <trkpt lat="40.8313310" lon="0.2152820">
        <ele>523.0</ele>
        <time>2019-08-15T10:48:14Z</time>
      </trkpt>
      <trkpt lat="40.8313120" lon="0.2153030">
        <ele>523.0</ele>
        <time>2019-08-15T10:48:15Z</time>
      </trkpt>
      <trkpt lat="40.8312900" lon="0.2153240">
        <ele>523.0</ele>
        <time>2019-08-15T10:48:16Z</time>
      </trkpt>
      <trkpt lat="40.8312710" lon="0.2153460">
        <ele>523.0</ele>
        <time>2019-08-15T10:48:17Z</time>
      </trkpt>
      <trkpt lat="40.8312560" lon="0.2153680">
        <ele>523.0</ele>
        <time>2019-08-15T10:48:18Z</time>
      </trkpt>
      <trkpt lat="40.8312400" lon="0.2153900">
        <ele>523.0</ele>
        <time>2019-08-15T10:48:19Z</time>
      </trkpt>
      <trkpt lat="40.8312260" lon="0.2154140">
        <ele>523.0</ele>
        <time>2019-08-15T10:48:20Z</time>
      </trkpt>
      <trkpt lat="40.8312130" lon="0.2154400">
        <ele>523.0</ele>
        <time>2019-08-15T10:48:21Z</time>
      </trkpt>
      <trkpt lat="40.8311970" lon="0.2154650">
        <ele>523.0</ele>
        <time>2019-08-15T10:48:22Z</time>
      </trkpt>
      <trkpt lat="40.8311790" lon="0.2154950">
        <ele>523.0</ele>
        <time>2019-08-15T10:48:23Z</time>
      </trkpt>
      <trkpt lat="40.8311610" lon="0.2155240">
        <ele>523.0</ele>
        <time>2019-08-15T10:48:24Z</time>
      </trkpt>
      <trkpt lat="40.8311440" lon="0.2155520">
        <ele>523.0</ele>
        <time>2019-08-15T10:48:25Z</time>
      </trkpt>
      <trkpt lat="40.8311240" lon="0.2155770">
        <ele>523.0</ele>
        <time>2019-08-15T10:48:26Z</time>
      </trkpt>
      <trkpt lat="40.8311050" lon="0.2156050">
        <ele>523.0</ele>
        <time>2019-08-15T10:48:27Z</time>
      </trkpt>
      <trkpt lat="40.8310890" lon="0.2156310">
        <ele>523.0</ele>
        <time>2019-08-15T10:48:28Z</time>
      </trkpt>
      <trkpt lat="40.8310720" lon="0.2156540">
        <ele>523.0</ele>
        <time>2019-08-15T10:48:29Z</time>
      </trkpt>
      <trkpt lat="40.8310530" lon="0.2156780">
        <ele>523.0</ele>
        <time>2019-08-15T10:48:30Z</time>
      </trkpt>
      <trkpt lat="40.8310400" lon="0.2157040">
        <ele>523.0</ele>
        <time>2019-08-15T10:48:31Z</time>
      </trkpt>
      <trkpt lat="40.8310280" lon="0.2157290">
        <ele>523.0</ele>
        <time>2019-08-15T10:48:32Z</time>
      </trkpt>
      <trkpt lat="40.8309930" lon="0.2157750">
        <ele>523.0</ele>
        <time>2019-08-15T10:48:34Z</time>
      </trkpt>
      <trkpt lat="40.8309760" lon="0.2157970">
        <ele>523.0</ele>
        <time>2019-08-15T10:48:35Z</time>
      </trkpt>
      <trkpt lat="40.8309610" lon="0.2158190">
        <ele>523.0</ele>
        <time>2019-08-15T10:48:36Z</time>
      </trkpt>
      <trkpt lat="40.8309150" lon="0.2158740">
        <ele>523.0</ele>
        <time>2019-08-15T10:48:39Z</time>
      </trkpt>
      <trkpt lat="40.8309020" lon="0.2158930">
        <ele>523.0</ele>
        <time>2019-08-15T10:48:40Z</time>
      </trkpt>
      <trkpt lat="40.8308970" lon="0.2159170">
        <ele>523.0</ele>
        <time>2019-08-15T10:48:41Z</time>
      </trkpt>
      <trkpt lat="40.8308900" lon="0.2159380">
        <ele>523.0</ele>
        <time>2019-08-15T10:48:42Z</time>
      </trkpt>
      <trkpt lat="40.8308810" lon="0.2159760">
        <ele>523.0</ele>
        <time>2019-08-15T10:48:44Z</time>
      </trkpt>
      <trkpt lat="40.8308710" lon="0.2159930">
        <ele>523.0</ele>
        <time>2019-08-15T10:48:45Z</time>
      </trkpt>
      <trkpt lat="40.8308600" lon="0.2160220">
        <ele>523.0</ele>
        <time>2019-08-15T10:48:46Z</time>
      </trkpt>
      <trkpt lat="40.8308560" lon="0.2160300">
        <ele>523.0</ele>
        <time>2019-08-15T10:48:47Z</time>
      </trkpt>
      <trkpt lat="40.8308480" lon="0.2160730">
        <ele>523.0</ele>
        <time>2019-08-15T10:48:49Z</time>
      </trkpt>
      <trkpt lat="40.8308390" lon="0.2160920">
        <ele>524.0</ele>
        <time>2019-08-15T10:48:50Z</time>
      </trkpt>
      <trkpt lat="40.8308300" lon="0.2161080">
        <ele>524.0</ele>
        <time>2019-08-15T10:48:51Z</time>
      </trkpt>
      <trkpt lat="40.8308200" lon="0.2161230">
        <ele>524.0</ele>
        <time>2019-08-15T10:48:52Z</time>
      </trkpt>
      <trkpt lat="40.8308020" lon="0.2161550">
        <ele>524.0</ele>
        <time>2019-08-15T10:48:54Z</time>
      </trkpt>
      <trkpt lat="40.8307940" lon="0.2161730">
        <ele>524.0</ele>
        <time>2019-08-15T10:48:55Z</time>
      </trkpt>
      <trkpt lat="40.8307860" lon="0.2161910">
        <ele>524.0</ele>
        <time>2019-08-15T10:48:56Z</time>
      </trkpt>
      <trkpt lat="40.8307780" lon="0.2162080">
        <ele>524.0</ele>
        <time>2019-08-15T10:48:57Z</time>
      </trkpt>
      <trkpt lat="40.8307560" lon="0.2162400">
        <ele>524.0</ele>
        <time>2019-08-15T10:48:59Z</time>
      </trkpt>
      <trkpt lat="40.8307480" lon="0.2162560">
        <ele>525.0</ele>
        <time>2019-08-15T10:49:00Z</time>
      </trkpt>
      <trkpt lat="40.8307400" lon="0.2162770">
        <ele>525.0</ele>
        <time>2019-08-15T10:49:01Z</time>
      </trkpt>
      <trkpt lat="40.8307330" lon="0.2162950">
        <ele>525.0</ele>
        <time>2019-08-15T10:49:02Z</time>
      </trkpt>
      <trkpt lat="40.8307110" lon="0.2163280">
        <ele>525.0</ele>
        <time>2019-08-15T10:49:04Z</time>
      </trkpt>
      <trkpt lat="40.8307000" lon="0.2163500">
        <ele>525.0</ele>
        <time>2019-08-15T10:49:05Z</time>
      </trkpt>
      <trkpt lat="40.8306940" lon="0.2163730">
        <ele>525.0</ele>
        <time>2019-08-15T10:49:06Z</time>
      </trkpt>
      <trkpt lat="40.8306910" lon="0.2163940">
        <ele>525.0</ele>
        <time>2019-08-15T10:49:07Z</time>
      </trkpt>
      <trkpt lat="40.8306790" lon="0.2164340">
        <ele>525.0</ele>
        <time>2019-08-15T10:49:09Z</time>
      </trkpt>
      <trkpt lat="40.8306720" lon="0.2164530">
        <ele>525.0</ele>
        <time>2019-08-15T10:49:10Z</time>
      </trkpt>
      <trkpt lat="40.8306680" lon="0.2164700">
        <ele>525.0</ele>
        <time>2019-08-15T10:49:11Z</time>
      </trkpt>
      <trkpt lat="40.8306620" lon="0.2164880">
        <ele>525.0</ele>
        <time>2019-08-15T10:49:12Z</time>
      </trkpt>
      <trkpt lat="40.8306460" lon="0.2165220">
        <ele>526.0</ele>
        <time>2019-08-15T10:49:14Z</time>
      </trkpt>
      <trkpt lat="40.8306390" lon="0.2165410">
        <ele>526.0</ele>
        <time>2019-08-15T10:49:15Z</time>
      </trkpt>
      <trkpt lat="40.8306340" lon="0.2165610">
        <ele>526.0</ele>
        <time>2019-08-15T10:49:16Z</time>
      </trkpt>
      <trkpt lat="40.8306260" lon="0.2165810">
        <ele>526.0</ele>
        <time>2019-08-15T10:49:17Z</time>
      </trkpt>
      <trkpt lat="40.8306160" lon="0.2166200">
        <ele>526.0</ele>
        <time>2019-08-15T10:49:19Z</time>
      </trkpt>
      <trkpt lat="40.8306110" lon="0.2166380">
        <ele>526.0</ele>
        <time>2019-08-15T10:49:20Z</time>
      </trkpt>
      <trkpt lat="40.8306100" lon="0.2166590">
        <ele>526.0</ele>
        <time>2019-08-15T10:49:21Z</time>
      </trkpt>
      <trkpt lat="40.8306010" lon="0.2166760">
        <ele>526.0</ele>
        <time>2019-08-15T10:49:22Z</time>
      </trkpt>
      <trkpt lat="40.8305880" lon="0.2167110">
        <ele>527.0</ele>
        <time>2019-08-15T10:49:24Z</time>
      </trkpt>
      <trkpt lat="40.8305800" lon="0.2167330">
        <ele>527.0</ele>
        <time>2019-08-15T10:49:25Z</time>
      </trkpt>
      <trkpt lat="40.8305720" lon="0.2167630">
        <ele>527.0</ele>
        <time>2019-08-15T10:49:26Z</time>
      </trkpt>
      <trkpt lat="40.8305660" lon="0.2167890">
        <ele>527.0</ele>
        <time>2019-08-15T10:49:27Z</time>
      </trkpt>
      <trkpt lat="40.8305550" lon="0.2168320">
        <ele>527.0</ele>
        <time>2019-08-15T10:49:29Z</time>
      </trkpt>
      <trkpt lat="40.8305520" lon="0.2168560">
        <ele>527.0</ele>
        <time>2019-08-15T10:49:30Z</time>
      </trkpt>
      <trkpt lat="40.8305520" lon="0.2168790">
        <ele>527.0</ele>
        <time>2019-08-15T10:49:31Z</time>
      </trkpt>
      <trkpt lat="40.8305550" lon="0.2169040">
        <ele>527.0</ele>
        <time>2019-08-15T10:49:32Z</time>
      </trkpt>
      <trkpt lat="40.8305560" lon="0.2169500">
        <ele>527.0</ele>
        <time>2019-08-15T10:49:34Z</time>
      </trkpt>
      <trkpt lat="40.8305570" lon="0.2169720">
        <ele>527.0</ele>
        <time>2019-08-15T10:49:35Z</time>
      </trkpt>
      <trkpt lat="40.8305550" lon="0.2169930">
        <ele>527.0</ele>
        <time>2019-08-15T10:49:36Z</time>
      </trkpt>
      <trkpt lat="40.8305520" lon="0.2170120">
        <ele>528.0</ele>
        <time>2019-08-15T10:49:37Z</time>
      </trkpt>
      <trkpt lat="40.8305540" lon="0.2170490">
        <ele>528.0</ele>
        <time>2019-08-15T10:49:39Z</time>
      </trkpt>
      <trkpt lat="40.8305540" lon="0.2170700">
        <ele>528.0</ele>
        <time>2019-08-15T10:49:40Z</time>
      </trkpt>
      <trkpt lat="40.8305450" lon="0.2170900">
        <ele>528.0</ele>
        <time>2019-08-15T10:49:41Z</time>
      </trkpt>
      <trkpt lat="40.8305360" lon="0.2171120">
        <ele>528.0</ele>
        <time>2019-08-15T10:49:42Z</time>
      </trkpt>
      <trkpt lat="40.8305220" lon="0.2171570">
        <ele>528.0</ele>
        <time>2019-08-15T10:49:44Z</time>
      </trkpt>
      <trkpt lat="40.8305120" lon="0.2171830">
        <ele>528.0</ele>
        <time>2019-08-15T10:49:45Z</time>
      </trkpt>
      <trkpt lat="40.8305070" lon="0.2172090">
        <ele>528.0</ele>
        <time>2019-08-15T10:49:46Z</time>
      </trkpt>
      <trkpt lat="40.8305010" lon="0.2172330">
        <ele>528.0</ele>
        <time>2019-08-15T10:49:47Z</time>
      </trkpt>
      <trkpt lat="40.8304850" lon="0.2172860">
        <ele>528.0</ele>
        <time>2019-08-15T10:49:49Z</time>
      </trkpt>
      <trkpt lat="40.8304780" lon="0.2173150">
        <ele>529.0</ele>
        <time>2019-08-15T10:49:50Z</time>
      </trkpt>
      <trkpt lat="40.8304700" lon="0.2173420">
        <ele>529.0</ele>
        <time>2019-08-15T10:49:51Z</time>
      </trkpt>
      <trkpt lat="40.8304650" lon="0.2173700">
        <ele>529.0</ele>
        <time>2019-08-15T10:49:52Z</time>
      </trkpt>
      <trkpt lat="40.8304510" lon="0.2174280">
        <ele>529.0</ele>
        <time>2019-08-15T10:49:54Z</time>
      </trkpt>
      <trkpt lat="40.8304450" lon="0.2174600">
        <ele>529.0</ele>
        <time>2019-08-15T10:49:55Z</time>
      </trkpt>
      <trkpt lat="40.8304360" lon="0.2174960">
        <ele>529.0</ele>
        <time>2019-08-15T10:49:56Z</time>
      </trkpt>
      <trkpt lat="40.8304240" lon="0.2175310">
        <ele>529.0</ele>
        <time>2019-08-15T10:49:57Z</time>
      </trkpt>
      <trkpt lat="40.8303960" lon="0.2176040">
        <ele>529.0</ele>
        <time>2019-08-15T10:49:59Z</time>
      </trkpt>
      <trkpt lat="40.8303820" lon="0.2176420">
        <ele>529.0</ele>
        <time>2019-08-15T10:50:00Z</time>
      </trkpt>
      <trkpt lat="40.8303680" lon="0.2176820">
        <ele>529.0</ele>
        <time>2019-08-15T10:50:01Z</time>
      </trkpt>
      <trkpt lat="40.8303470" lon="0.2177210">
        <ele>529.0</ele>
        <time>2019-08-15T10:50:02Z</time>
      </trkpt>
      <trkpt lat="40.8303140" lon="0.2178060">
        <ele>529.0</ele>
        <time>2019-08-15T10:50:04Z</time>
      </trkpt>
      <trkpt lat="40.8302980" lon="0.2178590">
        <ele>529.0</ele>
        <time>2019-08-15T10:50:05Z</time>
      </trkpt>
      <trkpt lat="40.8302880" lon="0.2179110">
        <ele>529.0</ele>
        <time>2019-08-15T10:50:06Z</time>
      </trkpt>
      <trkpt lat="40.8302850" lon="0.2179660">
        <ele>529.0</ele>
        <time>2019-08-15T10:50:07Z</time>
      </trkpt>
      <trkpt lat="40.8302790" lon="0.2180970">
        <ele>528.0</ele>
        <time>2019-08-15T10:50:09Z</time>
      </trkpt>
      <trkpt lat="40.8302730" lon="0.2181660">
        <ele>528.0</ele>
        <time>2019-08-15T10:50:10Z</time>
      </trkpt>
      <trkpt lat="40.8302610" lon="0.2182380">
        <ele>528.0</ele>
        <time>2019-08-15T10:50:11Z</time>
      </trkpt>
      <trkpt lat="40.8302450" lon="0.2183080">
        <ele>528.0</ele>
        <time>2019-08-15T10:50:12Z</time>
      </trkpt>
      <trkpt lat="40.8302000" lon="0.2184430">
        <ele>528.0</ele>
        <time>2019-08-15T10:50:14Z</time>
      </trkpt>
      <trkpt lat="40.8301770" lon="0.2185100">
        <ele>527.0</ele>
        <time>2019-08-15T10:50:15Z</time>
      </trkpt>
      <trkpt lat="40.8301620" lon="0.2185760">
        <ele>527.0</ele>
        <time>2019-08-15T10:50:16Z</time>
      </trkpt>
      <trkpt lat="40.8301510" lon="0.2186390">
        <ele>527.0</ele>
        <time>2019-08-15T10:50:17Z</time>
      </trkpt>
      <trkpt lat="40.8301270" lon="0.2187550">
        <ele>527.0</ele>
        <time>2019-08-15T10:50:19Z</time>
      </trkpt>
      <trkpt lat="40.8301160" lon="0.2188070">
        <ele>527.0</ele>
        <time>2019-08-15T10:50:20Z</time>
      </trkpt>
      <trkpt lat="40.8300950" lon="0.2188540">
        <ele>526.0</ele>
        <time>2019-08-15T10:50:21Z</time>
      </trkpt>
      <trkpt lat="40.8300810" lon="0.2189020">
        <ele>526.0</ele>
        <time>2019-08-15T10:50:22Z</time>
      </trkpt>
      <trkpt lat="40.8300580" lon="0.2189970">
        <ele>526.0</ele>
        <time>2019-08-15T10:50:24Z</time>
      </trkpt>
      <trkpt lat="40.8300480" lon="0.2190420">
        <ele>526.0</ele>
        <time>2019-08-15T10:50:25Z</time>
      </trkpt>
      <trkpt lat="40.8300400" lon="0.2190890">
        <ele>526.0</ele>
        <time>2019-08-15T10:50:26Z</time>
      </trkpt>
      <trkpt lat="40.8300340" lon="0.2191380">
        <ele>526.0</ele>
        <time>2019-08-15T10:50:27Z</time>
      </trkpt>
      <trkpt lat="40.8300270" lon="0.2192500">
        <ele>526.0</ele>
        <time>2019-08-15T10:50:29Z</time>
      </trkpt>
      <trkpt lat="40.8300210" lon="0.2193040">
        <ele>526.0</ele>
        <time>2019-08-15T10:50:30Z</time>
      </trkpt>
      <trkpt lat="40.8300160" lon="0.2193590">
        <ele>526.0</ele>
        <time>2019-08-15T10:50:31Z</time>
      </trkpt>
      <trkpt lat="40.8300140" lon="0.2194140">
        <ele>526.0</ele>
        <time>2019-08-15T10:50:32Z</time>
      </trkpt>
      <trkpt lat="40.8300120" lon="0.2195310">
        <ele>526.0</ele>
        <time>2019-08-15T10:50:34Z</time>
      </trkpt>
      <trkpt lat="40.8300110" lon="0.2195900">
        <ele>526.0</ele>
        <time>2019-08-15T10:50:35Z</time>
      </trkpt>
      <trkpt lat="40.8300080" lon="0.2196510">
        <ele>526.0</ele>
        <time>2019-08-15T10:50:36Z</time>
      </trkpt>
      <trkpt lat="40.8300050" lon="0.2197140">
        <ele>526.0</ele>
        <time>2019-08-15T10:50:37Z</time>
      </trkpt>
      <trkpt lat="40.8299920" lon="0.2198440">
        <ele>526.0</ele>
        <time>2019-08-15T10:50:39Z</time>
      </trkpt>
      <trkpt lat="40.8299890" lon="0.2199110">
        <ele>526.0</ele>
        <time>2019-08-15T10:50:40Z</time>
      </trkpt>
      <trkpt lat="40.8299840" lon="0.2199800">
        <ele>525.0</ele>
        <time>2019-08-15T10:50:41Z</time>
      </trkpt>
      <trkpt lat="40.8299760" lon="0.2200510">
        <ele>525.0</ele>
        <time>2019-08-15T10:50:42Z</time>
      </trkpt>
      <trkpt lat="40.8299680" lon="0.2201900">
        <ele>525.0</ele>
        <time>2019-08-15T10:50:44Z</time>
      </trkpt>
      <trkpt lat="40.8299680" lon="0.2202500">
        <ele>525.0</ele>
        <time>2019-08-15T10:50:45Z</time>
      </trkpt>
      <trkpt lat="40.8299700" lon="0.2202990">
        <ele>525.0</ele>
        <time>2019-08-15T10:50:46Z</time>
      </trkpt>
      <trkpt lat="40.8299700" lon="0.2203410">
        <ele>525.0</ele>
        <time>2019-08-15T10:50:47Z</time>
      </trkpt>
      <trkpt lat="40.8299680" lon="0.2204110">
        <ele>525.0</ele>
        <time>2019-08-15T10:50:49Z</time>
      </trkpt>
      <trkpt lat="40.8299610" lon="0.2204430">
        <ele>524.0</ele>
        <time>2019-08-15T10:50:50Z</time>
      </trkpt>
      <trkpt lat="40.8299550" lon="0.2204750">
        <ele>524.0</ele>
        <time>2019-08-15T10:50:51Z</time>
      </trkpt>
      <trkpt lat="40.8299510" lon="0.2205120">
        <ele>524.0</ele>
        <time>2019-08-15T10:50:52Z</time>
      </trkpt>
      <trkpt lat="40.8299440" lon="0.2205860">
        <ele>524.0</ele>
        <time>2019-08-15T10:50:54Z</time>
      </trkpt>
      <trkpt lat="40.8299450" lon="0.2206310">
        <ele>524.0</ele>
        <time>2019-08-15T10:50:55Z</time>
      </trkpt>
      <trkpt lat="40.8299440" lon="0.2206770">
        <ele>524.0</ele>
        <time>2019-08-15T10:50:56Z</time>
      </trkpt>
      <trkpt lat="40.8299430" lon="0.2207240">
        <ele>523.0</ele>
        <time>2019-08-15T10:50:57Z</time>
      </trkpt>
      <trkpt lat="40.8299490" lon="0.2208170">
        <ele>523.0</ele>
        <time>2019-08-15T10:50:59Z</time>
      </trkpt>
      <trkpt lat="40.8299530" lon="0.2208590">
        <ele>523.0</ele>
        <time>2019-08-15T10:51:00Z</time>
      </trkpt>
      <trkpt lat="40.8299590" lon="0.2209030">
        <ele>523.0</ele>
        <time>2019-08-15T10:51:01Z</time>
      </trkpt>
      <trkpt lat="40.8299640" lon="0.2209440">
        <ele>523.0</ele>
        <time>2019-08-15T10:51:02Z</time>
      </trkpt>
      <trkpt lat="40.8299730" lon="0.2210190">
        <ele>523.0</ele>
        <time>2019-08-15T10:51:04Z</time>
      </trkpt>
      <trkpt lat="40.8299790" lon="0.2210540">
        <ele>523.0</ele>
        <time>2019-08-15T10:51:05Z</time>
      </trkpt>
      <trkpt lat="40.8299900" lon="0.2210870">
        <ele>523.0</ele>
        <time>2019-08-15T10:51:06Z</time>
      </trkpt>
      <trkpt lat="40.8300000" lon="0.2211190">
        <ele>523.0</ele>
        <time>2019-08-15T10:51:07Z</time>
      </trkpt>
      <trkpt lat="40.8300050" lon="0.2211830">
        <ele>523.0</ele>
        <time>2019-08-15T10:51:09Z</time>
      </trkpt>
      <trkpt lat="40.8300070" lon="0.2212140">
        <ele>523.0</ele>
        <time>2019-08-15T10:51:10Z</time>
      </trkpt>
      <trkpt lat="40.8300170" lon="0.2212420">
        <ele>523.0</ele>
        <time>2019-08-15T10:51:11Z</time>
      </trkpt>
      <trkpt lat="40.8300270" lon="0.2212680">
        <ele>523.0</ele>
        <time>2019-08-15T10:51:12Z</time>
      </trkpt>
      <trkpt lat="40.8300560" lon="0.2213130">
        <ele>523.0</ele>
        <time>2019-08-15T10:51:14Z</time>
      </trkpt>
      <trkpt lat="40.8300640" lon="0.2213320">
        <ele>523.0</ele>
        <time>2019-08-15T10:51:15Z</time>
      </trkpt>
      <trkpt lat="40.8300690" lon="0.2213480">
        <ele>524.0</ele>
        <time>2019-08-15T10:51:16Z</time>
      </trkpt>
      <trkpt lat="40.8300790" lon="0.2213670">
        <ele>524.0</ele>
        <time>2019-08-15T10:51:17Z</time>
      </trkpt>
      <trkpt lat="40.8300940" lon="0.2214010">
        <ele>524.0</ele>
        <time>2019-08-15T10:51:19Z</time>
      </trkpt>
      <trkpt lat="40.8301010" lon="0.2214200">
        <ele>524.0</ele>
        <time>2019-08-15T10:51:20Z</time>
      </trkpt>
      <trkpt lat="40.8301110" lon="0.2214390">
        <ele>524.0</ele>
        <time>2019-08-15T10:51:21Z</time>
      </trkpt>
      <trkpt lat="40.8301220" lon="0.2214580">
        <ele>524.0</ele>
        <time>2019-08-15T10:51:22Z</time>
      </trkpt>
      <trkpt lat="40.8301390" lon="0.2214990">
        <ele>525.0</ele>
        <time>2019-08-15T10:51:24Z</time>
      </trkpt>
      <trkpt lat="40.8301480" lon="0.2215160">
        <ele>525.0</ele>
        <time>2019-08-15T10:51:25Z</time>
      </trkpt>
      <trkpt lat="40.8301550" lon="0.2215330">
        <ele>525.0</ele>
        <time>2019-08-15T10:51:26Z</time>
      </trkpt>
      <trkpt lat="40.8301650" lon="0.2215500">
        <ele>525.0</ele>
        <time>2019-08-15T10:51:27Z</time>
      </trkpt>
      <trkpt lat="40.8301830" lon="0.2215820">
        <ele>525.0</ele>
        <time>2019-08-15T10:51:29Z</time>
      </trkpt>
      <trkpt lat="40.8301880" lon="0.2215960">
        <ele>525.0</ele>
        <time>2019-08-15T10:51:30Z</time>
      </trkpt>
      <trkpt lat="40.8301940" lon="0.2216100">
        <ele>525.0</ele>
        <time>2019-08-15T10:51:31Z</time>
      </trkpt>
      <trkpt lat="40.8302030" lon="0.2216250">
        <ele>525.0</ele>
        <time>2019-08-15T10:51:32Z</time>
      </trkpt>
      <trkpt lat="40.8302240" lon="0.2216540">
        <ele>525.0</ele>
        <time>2019-08-15T10:51:34Z</time>
      </trkpt>
      <trkpt lat="40.8302330" lon="0.2216700">
        <ele>526.0</ele>
        <time>2019-08-15T10:51:35Z</time>
      </trkpt>
      <trkpt lat="40.8302430" lon="0.2216840">
        <ele>526.0</ele>
        <time>2019-08-15T10:51:36Z</time>
      </trkpt>
      <trkpt lat="40.8302540" lon="0.2216990">
        <ele>526.0</ele>
        <time>2019-08-15T10:51:37Z</time>
      </trkpt>
      <trkpt lat="40.8302720" lon="0.2217300">
        <ele>526.0</ele>
        <time>2019-08-15T10:51:39Z</time>
      </trkpt>
      <trkpt lat="40.8302810" lon="0.2217450">
        <ele>526.0</ele>
        <time>2019-08-15T10:51:40Z</time>
      </trkpt>
      <trkpt lat="40.8302900" lon="0.2217600">
        <ele>526.0</ele>
        <time>2019-08-15T10:51:41Z</time>
      </trkpt>
      <trkpt lat="40.8303000" lon="0.2217730">
        <ele>526.0</ele>
        <time>2019-08-15T10:51:42Z</time>
      </trkpt>
      <trkpt lat="40.8303260" lon="0.2217950">
        <ele>526.0</ele>
        <time>2019-08-15T10:51:44Z</time>
      </trkpt>
      <trkpt lat="40.8303350" lon="0.2218110">
        <ele>527.0</ele>
        <time>2019-08-15T10:51:45Z</time>
      </trkpt>
      <trkpt lat="40.8303460" lon="0.2218230">
        <ele>527.0</ele>
        <time>2019-08-15T10:51:46Z</time>
      </trkpt>
      <trkpt lat="40.8303550" lon="0.2218360">
        <ele>527.0</ele>
        <time>2019-08-15T10:51:47Z</time>
      </trkpt>
      <trkpt lat="40.8303750" lon="0.2218620">
        <ele>527.0</ele>
        <time>2019-08-15T10:51:49Z</time>
      </trkpt>
      <trkpt lat="40.8303850" lon="0.2218760">
        <ele>527.0</ele>
        <time>2019-08-15T10:51:50Z</time>
      </trkpt>
      <trkpt lat="40.8303940" lon="0.2218930">
        <ele>527.0</ele>
        <time>2019-08-15T10:51:51Z</time>
      </trkpt>
      <trkpt lat="40.8304050" lon="0.2219100">
        <ele>528.0</ele>
        <time>2019-08-15T10:51:52Z</time>
      </trkpt>
      <trkpt lat="40.8304250" lon="0.2219370">
        <ele>528.0</ele>
        <time>2019-08-15T10:51:54Z</time>
      </trkpt>
      <trkpt lat="40.8304310" lon="0.2219500">
        <ele>528.0</ele>
        <time>2019-08-15T10:51:55Z</time>
      </trkpt>
      <trkpt lat="40.8304390" lon="0.2219620">
        <ele>528.0</ele>
        <time>2019-08-15T10:51:56Z</time>
      </trkpt>
      <trkpt lat="40.8304450" lon="0.2219740">
        <ele>528.0</ele>
        <time>2019-08-15T10:51:57Z</time>
      </trkpt>
      <trkpt lat="40.8304630" lon="0.2219990">
        <ele>528.0</ele>
        <time>2019-08-15T10:51:59Z</time>
      </trkpt>
      <trkpt lat="40.8304740" lon="0.2220120">
        <ele>528.0</ele>
        <time>2019-08-15T10:52:00Z</time>
      </trkpt>
      <trkpt lat="40.8304870" lon="0.2220220">
        <ele>528.0</ele>
        <time>2019-08-15T10:52:01Z</time>
      </trkpt>
      <trkpt lat="40.8305000" lon="0.2220310">
        <ele>529.0</ele>
        <time>2019-08-15T10:52:02Z</time>
      </trkpt>
      <trkpt lat="40.8305150" lon="0.2220540">
        <ele>529.0</ele>
        <time>2019-08-15T10:52:04Z</time>
      </trkpt>
      <trkpt lat="40.8305200" lon="0.2220690">
        <ele>529.0</ele>
        <time>2019-08-15T10:52:05Z</time>
      </trkpt>
      <trkpt lat="40.8305270" lon="0.2220850">
        <ele>529.0</ele>
        <time>2019-08-15T10:52:06Z</time>
      </trkpt>
      <trkpt lat="40.8305370" lon="0.2220980">
        <ele>529.0</ele>
        <time>2019-08-15T10:52:07Z</time>
      </trkpt>
      <trkpt lat="40.8305560" lon="0.2221240">
        <ele>529.0</ele>
        <time>2019-08-15T10:52:09Z</time>
      </trkpt>
      <trkpt lat="40.8305600" lon="0.2221370">
        <ele>530.0</ele>
        <time>2019-08-15T10:52:10Z</time>
      </trkpt>
      <trkpt lat="40.8305670" lon="0.2221490">
        <ele>530.0</ele>
        <time>2019-08-15T10:52:11Z</time>
      </trkpt>
      <trkpt lat="40.8305760" lon="0.2221610">
        <ele>530.0</ele>
        <time>2019-08-15T10:52:12Z</time>
      </trkpt>
      <trkpt lat="40.8305920" lon="0.2221860">
        <ele>530.0</ele>
        <time>2019-08-15T10:52:14Z</time>
      </trkpt>
      <trkpt lat="40.8305980" lon="0.2221980">
        <ele>530.0</ele>
        <time>2019-08-15T10:52:15Z</time>
      </trkpt>
      <trkpt lat="40.8306040" lon="0.2222100">
        <ele>530.0</ele>
        <time>2019-08-15T10:52:16Z</time>
      </trkpt>
      <trkpt lat="40.8306110" lon="0.2222240">
        <ele>530.0</ele>
        <time>2019-08-15T10:52:17Z</time>
      </trkpt>
      <trkpt lat="40.8306260" lon="0.2222490">
        <ele>531.0</ele>
        <time>2019-08-15T10:52:19Z</time>
      </trkpt>
      <trkpt lat="40.8306360" lon="0.2222600">
        <ele>531.0</ele>
        <time>2019-08-15T10:52:20Z</time>
      </trkpt>
      <trkpt lat="40.8306450" lon="0.2222740">
        <ele>531.0</ele>
        <time>2019-08-15T10:52:21Z</time>
      </trkpt>
      <trkpt lat="40.8306510" lon="0.2222870">
        <ele>531.0</ele>
        <time>2019-08-15T10:52:22Z</time>
      </trkpt>
      <trkpt lat="40.8306670" lon="0.2223130">
        <ele>531.0</ele>
        <time>2019-08-15T10:52:24Z</time>
      </trkpt>
      <trkpt lat="40.8306780" lon="0.2223230">
        <ele>531.0</ele>
        <time>2019-08-15T10:52:25Z</time>
      </trkpt>
      <trkpt lat="40.8306870" lon="0.2223310">
        <ele>531.0</ele>
        <time>2019-08-15T10:52:26Z</time>
      </trkpt>
      <trkpt lat="40.8306990" lon="0.2223390">
        <ele>532.0</ele>
        <time>2019-08-15T10:52:27Z</time>
      </trkpt>
      <trkpt lat="40.8307180" lon="0.2223630">
        <ele>532.0</ele>
        <time>2019-08-15T10:52:29Z</time>
      </trkpt>
      <trkpt lat="40.8307270" lon="0.2223720">
        <ele>532.0</ele>
        <time>2019-08-15T10:52:30Z</time>
      </trkpt>
      <trkpt lat="40.8307300" lon="0.2223830">
        <ele>532.0</ele>
        <time>2019-08-15T10:52:31Z</time>
      </trkpt>
      <trkpt lat="40.8307340" lon="0.2223960">
        <ele>532.0</ele>
        <time>2019-08-15T10:52:32Z</time>
      </trkpt>
      <trkpt lat="40.8307500" lon="0.2224180">
        <ele>533.0</ele>
        <time>2019-08-15T10:52:34Z</time>
      </trkpt>
      <trkpt lat="40.8307580" lon="0.2224290">
        <ele>533.0</ele>
        <time>2019-08-15T10:52:35Z</time>
      </trkpt>
      <trkpt lat="40.8307690" lon="0.2224390">
        <ele>533.0</ele>
        <time>2019-08-15T10:52:36Z</time>
      </trkpt>
      <trkpt lat="40.8307810" lon="0.2224470">
        <ele>533.0</ele>
        <time>2019-08-15T10:52:37Z</time>
      </trkpt>
      <trkpt lat="40.8307970" lon="0.2224700">
        <ele>534.0</ele>
        <time>2019-08-15T10:52:39Z</time>
      </trkpt>
      <trkpt lat="40.8308040" lon="0.2224820">
        <ele>534.0</ele>
        <time>2019-08-15T10:52:40Z</time>
      </trkpt>
      <trkpt lat="40.8308150" lon="0.2224930">
        <ele>534.0</ele>
        <time>2019-08-15T10:52:41Z</time>
      </trkpt>
      <trkpt lat="40.8308230" lon="0.2225060">
        <ele>534.0</ele>
        <time>2019-08-15T10:52:42Z</time>
      </trkpt>
      <trkpt lat="40.8308330" lon="0.2225370">
        <ele>534.0</ele>
        <time>2019-08-15T10:52:44Z</time>
      </trkpt>
      <trkpt lat="40.8308410" lon="0.2225520">
        <ele>534.0</ele>
        <time>2019-08-15T10:52:45Z</time>
      </trkpt>
      <trkpt lat="40.8308500" lon="0.2225650">
        <ele>534.0</ele>
        <time>2019-08-15T10:52:46Z</time>
      </trkpt>
      <trkpt lat="40.8308570" lon="0.2225770">
        <ele>535.0</ele>
        <time>2019-08-15T10:52:47Z</time>
      </trkpt>
      <trkpt lat="40.8308700" lon="0.2225980">
        <ele>535.0</ele>
        <time>2019-08-15T10:52:49Z</time>
      </trkpt>
      <trkpt lat="40.8308770" lon="0.2226070">
        <ele>535.0</ele>
        <time>2019-08-15T10:52:50Z</time>
      </trkpt>
      <trkpt lat="40.8308850" lon="0.2226170">
        <ele>535.0</ele>
        <time>2019-08-15T10:52:51Z</time>
      </trkpt>
      <trkpt lat="40.8308920" lon="0.2226250">
        <ele>535.0</ele>
        <time>2019-08-15T10:52:52Z</time>
      </trkpt>
      <trkpt lat="40.8309100" lon="0.2226490">
        <ele>536.0</ele>
        <time>2019-08-15T10:52:54Z</time>
      </trkpt>
      <trkpt lat="40.8309200" lon="0.2226550">
        <ele>536.0</ele>
        <time>2019-08-15T10:52:55Z</time>
      </trkpt>
      <trkpt lat="40.8309280" lon="0.2226650">
        <ele>536.0</ele>
        <time>2019-08-15T10:52:56Z</time>
      </trkpt>
      <trkpt lat="40.8309380" lon="0.2226760">
        <ele>536.0</ele>
        <time>2019-08-15T10:52:57Z</time>
      </trkpt>
      <trkpt lat="40.8309530" lon="0.2227010">
        <ele>536.0</ele>
        <time>2019-08-15T10:52:59Z</time>
      </trkpt>
      <trkpt lat="40.8309600" lon="0.2227120">
        <ele>537.0</ele>
        <time>2019-08-15T10:53:00Z</time>
      </trkpt>
      <trkpt lat="40.8309650" lon="0.2227240">
        <ele>537.0</ele>
        <time>2019-08-15T10:53:01Z</time>
      </trkpt>
      <trkpt lat="40.8309660" lon="0.2227360">
        <ele>537.0</ele>
        <time>2019-08-15T10:53:02Z</time>
      </trkpt>
      <trkpt lat="40.8309700" lon="0.2227590">
        <ele>537.0</ele>
        <time>2019-08-15T10:53:04Z</time>
      </trkpt>
      <trkpt lat="40.8309790" lon="0.2227660">
        <ele>537.0</ele>
        <time>2019-08-15T10:53:05Z</time>
      </trkpt>
      <trkpt lat="40.8309870" lon="0.2227740">
        <ele>537.0</ele>
        <time>2019-08-15T10:53:06Z</time>
      </trkpt>
      <trkpt lat="40.8309930" lon="0.2227850">
        <ele>537.0</ele>
        <time>2019-08-15T10:53:07Z</time>
      </trkpt>
      <trkpt lat="40.8310130" lon="0.2228130">
        <ele>537.0</ele>
        <time>2019-08-15T10:53:09Z</time>
      </trkpt>
      <trkpt lat="40.8310190" lon="0.2228280">
        <ele>537.0</ele>
        <time>2019-08-15T10:53:10Z</time>
      </trkpt>
      <trkpt lat="40.8310280" lon="0.2228410">
        <ele>537.0</ele>
        <time>2019-08-15T10:53:11Z</time>
      </trkpt>
      <trkpt lat="40.8310320" lon="0.2228530">
        <ele>537.0</ele>
        <time>2019-08-15T10:53:12Z</time>
      </trkpt>
      <trkpt lat="40.8310420" lon="0.2228760">
        <ele>538.0</ele>
        <time>2019-08-15T10:53:14Z</time>
      </trkpt>
      <trkpt lat="40.8310510" lon="0.2228900">
        <ele>538.0</ele>
        <time>2019-08-15T10:53:15Z</time>
      </trkpt>
      <trkpt lat="40.8310630" lon="0.2229010">
        <ele>538.0</ele>
        <time>2019-08-15T10:53:16Z</time>
      </trkpt>
      <trkpt lat="40.8310750" lon="0.2229130">
        <ele>538.0</ele>
        <time>2019-08-15T10:53:17Z</time>
      </trkpt>
      <trkpt lat="40.8310960" lon="0.2229330">
        <ele>538.0</ele>
        <time>2019-08-15T10:53:19Z</time>
      </trkpt>
      <trkpt lat="40.8311040" lon="0.2229470">
        <ele>538.0</ele>
        <time>2019-08-15T10:53:20Z</time>
      </trkpt>
      <trkpt lat="40.8311110" lon="0.2229570">
        <ele>539.0</ele>
        <time>2019-08-15T10:53:21Z</time>
      </trkpt>
      <trkpt lat="40.8311200" lon="0.2229650">
        <ele>539.0</ele>
        <time>2019-08-15T10:53:22Z</time>
      </trkpt>
      <trkpt lat="40.8311370" lon="0.2229840">
        <ele>539.0</ele>
        <time>2019-08-15T10:53:24Z</time>
      </trkpt>
      <trkpt lat="40.8311440" lon="0.2229940">
        <ele>539.0</ele>
        <time>2019-08-15T10:53:25Z</time>
      </trkpt>
      <trkpt lat="40.8311520" lon="0.2230040">
        <ele>539.0</ele>
        <time>2019-08-15T10:53:26Z</time>
      </trkpt>
      <trkpt lat="40.8311590" lon="0.2230150">
        <ele>539.0</ele>
        <time>2019-08-15T10:53:27Z</time>
      </trkpt>
      <trkpt lat="40.8311730" lon="0.2230370">
        <ele>540.0</ele>
        <time>2019-08-15T10:53:29Z</time>
      </trkpt>
      <trkpt lat="40.8311820" lon="0.2230480">
        <ele>540.0</ele>
        <time>2019-08-15T10:53:30Z</time>
      </trkpt>
      <trkpt lat="40.8311910" lon="0.2230600">
        <ele>540.0</ele>
        <time>2019-08-15T10:53:31Z</time>
      </trkpt>
      <trkpt lat="40.8312030" lon="0.2230720">
        <ele>540.0</ele>
        <time>2019-08-15T10:53:32Z</time>
      </trkpt>
      <trkpt lat="40.8312200" lon="0.2230930">
        <ele>541.0</ele>
        <time>2019-08-15T10:53:34Z</time>
      </trkpt>
      <trkpt lat="40.8312300" lon="0.2231050">
        <ele>541.0</ele>
        <time>2019-08-15T10:53:35Z</time>
      </trkpt>
      <trkpt lat="40.8312380" lon="0.2231160">
        <ele>541.0</ele>
        <time>2019-08-15T10:53:36Z</time>
      </trkpt>
      <trkpt lat="40.8312460" lon="0.2231230">
        <ele>541.0</ele>
        <time>2019-08-15T10:53:37Z</time>
      </trkpt>
      <trkpt lat="40.8312630" lon="0.2231440">
        <ele>541.0</ele>
        <time>2019-08-15T10:53:39Z</time>
      </trkpt>
      <trkpt lat="40.8312730" lon="0.2231540">
        <ele>542.0</ele>
        <time>2019-08-15T10:53:40Z</time>
      </trkpt>
      <trkpt lat="40.8312800" lon="0.2231600">
        <ele>542.0</ele>
        <time>2019-08-15T10:53:41Z</time>
      </trkpt>
      <trkpt lat="40.8312800" lon="0.2231700">
        <ele>542.0</ele>
        <time>2019-08-15T10:53:42Z</time>
      </trkpt>
      <trkpt lat="40.8312850" lon="0.2231890">
        <ele>542.0</ele>
        <time>2019-08-15T10:53:44Z</time>
      </trkpt>
      <trkpt lat="40.8312890" lon="0.2232000">
        <ele>542.0</ele>
        <time>2019-08-15T10:53:45Z</time>
      </trkpt>
      <trkpt lat="40.8312990" lon="0.2232070">
        <ele>543.0</ele>
        <time>2019-08-15T10:53:46Z</time>
      </trkpt>
      <trkpt lat="40.8313110" lon="0.2232150">
        <ele>543.0</ele>
        <time>2019-08-15T10:53:47Z</time>
      </trkpt>
      <trkpt lat="40.8313330" lon="0.2232360">
        <ele>543.0</ele>
        <time>2019-08-15T10:53:49Z</time>
      </trkpt>
      <trkpt lat="40.8313400" lon="0.2232450">
        <ele>543.0</ele>
        <time>2019-08-15T10:53:50Z</time>
      </trkpt>
      <trkpt lat="40.8313470" lon="0.2232560">
        <ele>543.0</ele>
        <time>2019-08-15T10:53:51Z</time>
      </trkpt>
      <trkpt lat="40.8313540" lon="0.2232670">
        <ele>543.0</ele>
        <time>2019-08-15T10:53:52Z</time>
      </trkpt>
      <trkpt lat="40.8313700" lon="0.2232860">
        <ele>543.0</ele>
        <time>2019-08-15T10:53:54Z</time>
      </trkpt>
      <trkpt lat="40.8313780" lon="0.2232950">
        <ele>543.0</ele>
        <time>2019-08-15T10:53:55Z</time>
      </trkpt>
      <trkpt lat="40.8313870" lon="0.2233060">
        <ele>544.0</ele>
        <time>2019-08-15T10:53:56Z</time>
      </trkpt>
      <trkpt lat="40.8313970" lon="0.2233160">
        <ele>544.0</ele>
        <time>2019-08-15T10:53:57Z</time>
      </trkpt>
      <trkpt lat="40.8314170" lon="0.2233400">
        <ele>544.0</ele>
        <time>2019-08-15T10:53:59Z</time>
      </trkpt>
      <trkpt lat="40.8314360" lon="0.2233560">
        <ele>544.0</ele>
        <time>2019-08-15T10:54:01Z</time>
      </trkpt>
      <trkpt lat="40.8314490" lon="0.2233650">
        <ele>544.0</ele>
        <time>2019-08-15T10:54:02Z</time>
      </trkpt>
      <trkpt lat="40.8314690" lon="0.2233850">
        <ele>545.0</ele>
        <time>2019-08-15T10:54:04Z</time>
      </trkpt>
      <trkpt lat="40.8314830" lon="0.2233940">
        <ele>545.0</ele>
        <time>2019-08-15T10:54:05Z</time>
      </trkpt>
      <trkpt lat="40.8314970" lon="0.2234050">
        <ele>545.0</ele>
        <time>2019-08-15T10:54:06Z</time>
      </trkpt>
      <trkpt lat="40.8315020" lon="0.2234170">
        <ele>545.0</ele>
        <time>2019-08-15T10:54:07Z</time>
      </trkpt>
      <trkpt lat="40.8315200" lon="0.2234490">
        <ele>545.0</ele>
        <time>2019-08-15T10:54:10Z</time>
      </trkpt>
      <trkpt lat="40.8315300" lon="0.2234610">
        <ele>546.0</ele>
        <time>2019-08-15T10:54:11Z</time>
      </trkpt>
      <trkpt lat="40.8315410" lon="0.2234720">
        <ele>546.0</ele>
        <time>2019-08-15T10:54:12Z</time>
      </trkpt>
      <trkpt lat="40.8315640" lon="0.2234860">
        <ele>546.0</ele>
        <time>2019-08-15T10:54:14Z</time>
      </trkpt>
      <trkpt lat="40.8315720" lon="0.2234940">
        <ele>546.0</ele>
        <time>2019-08-15T10:54:15Z</time>
      </trkpt>
      <trkpt lat="40.8315760" lon="0.2235030">
        <ele>546.0</ele>
        <time>2019-08-15T10:54:16Z</time>
      </trkpt>
      <trkpt lat="40.8315820" lon="0.2235130">
        <ele>546.0</ele>
        <time>2019-08-15T10:54:17Z</time>
      </trkpt>
      <trkpt lat="40.8315930" lon="0.2235280">
        <ele>546.0</ele>
        <time>2019-08-15T10:54:19Z</time>
      </trkpt>
      <trkpt lat="40.8316030" lon="0.2235360">
        <ele>546.0</ele>
        <time>2019-08-15T10:54:20Z</time>
      </trkpt>
      <trkpt lat="40.8316120" lon="0.2235430">
        <ele>547.0</ele>
        <time>2019-08-15T10:54:21Z</time>
      </trkpt>
      <trkpt lat="40.8316210" lon="0.2235500">
        <ele>547.0</ele>
        <time>2019-08-15T10:54:22Z</time>
      </trkpt>
      <trkpt lat="40.8316370" lon="0.2235720">
        <ele>547.0</ele>
        <time>2019-08-15T10:54:24Z</time>
      </trkpt>
      <trkpt lat="40.8316460" lon="0.2235810">
        <ele>547.0</ele>
        <time>2019-08-15T10:54:25Z</time>
      </trkpt>
      <trkpt lat="40.8316550" lon="0.2235910">
        <ele>547.0</ele>
        <time>2019-08-15T10:54:26Z</time>
      </trkpt>
      <trkpt lat="40.8316620" lon="0.2236020">
        <ele>547.0</ele>
        <time>2019-08-15T10:54:27Z</time>
      </trkpt>
      <trkpt lat="40.8316780" lon="0.2236230">
        <ele>548.0</ele>
        <time>2019-08-15T10:54:29Z</time>
      </trkpt>
      <trkpt lat="40.8316870" lon="0.2236330">
        <ele>548.0</ele>
        <time>2019-08-15T10:54:30Z</time>
      </trkpt>
      <trkpt lat="40.8316980" lon="0.2236410">
        <ele>548.0</ele>
        <time>2019-08-15T10:54:31Z</time>
      </trkpt>
      <trkpt lat="40.8317100" lon="0.2236510">
        <ele>548.0</ele>
        <time>2019-08-15T10:54:32Z</time>
      </trkpt>
      <trkpt lat="40.8317280" lon="0.2236810">
        <ele>548.0</ele>
        <time>2019-08-15T10:54:34Z</time>
      </trkpt>
      <trkpt lat="40.8317330" lon="0.2236930">
        <ele>549.0</ele>
        <time>2019-08-15T10:54:35Z</time>
      </trkpt>
      <trkpt lat="40.8317430" lon="0.2237060">
        <ele>549.0</ele>
        <time>2019-08-15T10:54:36Z</time>
      </trkpt>
      <trkpt lat="40.8317560" lon="0.2237200">
        <ele>549.0</ele>
        <time>2019-08-15T10:54:37Z</time>
      </trkpt>
      <trkpt lat="40.8317680" lon="0.2237460">
        <ele>549.0</ele>
        <time>2019-08-15T10:54:39Z</time>
      </trkpt>
      <trkpt lat="40.8317740" lon="0.2237550">
        <ele>549.0</ele>
        <time>2019-08-15T10:54:40Z</time>
      </trkpt>
      <trkpt lat="40.8317830" lon="0.2237680">
        <ele>549.0</ele>
        <time>2019-08-15T10:54:41Z</time>
      </trkpt>
      <trkpt lat="40.8317920" lon="0.2237800">
        <ele>550.0</ele>
        <time>2019-08-15T10:54:42Z</time>
      </trkpt>
      <trkpt lat="40.8318030" lon="0.2238060">
        <ele>550.0</ele>
        <time>2019-08-15T10:54:44Z</time>
      </trkpt>
      <trkpt lat="40.8318130" lon="0.2238180">
        <ele>550.0</ele>
        <time>2019-08-15T10:54:45Z</time>
      </trkpt>
      <trkpt lat="40.8318260" lon="0.2238290">
        <ele>550.0</ele>
        <time>2019-08-15T10:54:46Z</time>
      </trkpt>
      <trkpt lat="40.8318370" lon="0.2238400">
        <ele>550.0</ele>
        <time>2019-08-15T10:54:47Z</time>
      </trkpt>
      <trkpt lat="40.8318400" lon="0.2238750">
        <ele>551.0</ele>
        <time>2019-08-15T10:54:49Z</time>
      </trkpt>
      <trkpt lat="40.8318370" lon="0.2238930">
        <ele>551.0</ele>
        <time>2019-08-15T10:54:50Z</time>
      </trkpt>
      <trkpt lat="40.8318280" lon="0.2239110">
        <ele>551.0</ele>
        <time>2019-08-15T10:54:51Z</time>
      </trkpt>
      <trkpt lat="40.8318240" lon="0.2239290">
        <ele>551.0</ele>
        <time>2019-08-15T10:54:52Z</time>
      </trkpt>
      <trkpt lat="40.8318170" lon="0.2239480">
        <ele>551.0</ele>
        <time>2019-08-15T10:54:53Z</time>
      </trkpt>
      <trkpt lat="40.8318100" lon="0.2239640">
        <ele>551.0</ele>
        <time>2019-08-15T10:54:54Z</time>
      </trkpt>
      <trkpt lat="40.8317990" lon="0.2239800">
        <ele>551.0</ele>
        <time>2019-08-15T10:54:55Z</time>
      </trkpt>
      <trkpt lat="40.8317850" lon="0.2239980">
        <ele>551.0</ele>
        <time>2019-08-15T10:54:56Z</time>
      </trkpt>
      <trkpt lat="40.8317660" lon="0.2240180">
        <ele>552.0</ele>
        <time>2019-08-15T10:54:57Z</time>
      </trkpt>
      <trkpt lat="40.8317420" lon="0.2240400">
        <ele>552.0</ele>
        <time>2019-08-15T10:54:58Z</time>
      </trkpt>
      <trkpt lat="40.8317120" lon="0.2240700">
        <ele>552.0</ele>
        <time>2019-08-15T10:54:59Z</time>
      </trkpt>
      <trkpt lat="40.8316720" lon="0.2241000">
        <ele>552.0</ele>
        <time>2019-08-15T10:55:00Z</time>
      </trkpt>
      <trkpt lat="40.8316260" lon="0.2241300">
        <ele>551.0</ele>
        <time>2019-08-15T10:55:01Z</time>
      </trkpt>
      <trkpt lat="40.8315810" lon="0.2241750">
        <ele>551.0</ele>
        <time>2019-08-15T10:55:02Z</time>
      </trkpt>
      <trkpt lat="40.8315350" lon="0.2242270">
        <ele>551.0</ele>
        <time>2019-08-15T10:55:03Z</time>
      </trkpt>
      <trkpt lat="40.8314940" lon="0.2242740">
        <ele>551.0</ele>
        <time>2019-08-15T10:55:04Z</time>
      </trkpt>
      <trkpt lat="40.8314620" lon="0.2243250">
        <ele>551.0</ele>
        <time>2019-08-15T10:55:05Z</time>
      </trkpt>
      <trkpt lat="40.8314340" lon="0.2243710">
        <ele>550.0</ele>
        <time>2019-08-15T10:55:06Z</time>
      </trkpt>
      <trkpt lat="40.8314080" lon="0.2244220">
        <ele>550.0</ele>
        <time>2019-08-15T10:55:07Z</time>
      </trkpt>
      <trkpt lat="40.8313790" lon="0.2244800">
        <ele>550.0</ele>
        <time>2019-08-15T10:55:08Z</time>
      </trkpt>
      <trkpt lat="40.8313510" lon="0.2245400">
        <ele>550.0</ele>
        <time>2019-08-15T10:55:09Z</time>
      </trkpt>
      <trkpt lat="40.8313280" lon="0.2246080">
        <ele>549.0</ele>
        <time>2019-08-15T10:55:10Z</time>
      </trkpt>
      <trkpt lat="40.8313060" lon="0.2246710">
        <ele>549.0</ele>
        <time>2019-08-15T10:55:11Z</time>
      </trkpt>
      <trkpt lat="40.8312900" lon="0.2247360">
        <ele>548.0</ele>
        <time>2019-08-15T10:55:12Z</time>
      </trkpt>
      <trkpt lat="40.8312770" lon="0.2248030">
        <ele>548.0</ele>
        <time>2019-08-15T10:55:13Z</time>
      </trkpt>
      <trkpt lat="40.8312650" lon="0.2249500">
        <ele>547.0</ele>
        <time>2019-08-15T10:55:15Z</time>
      </trkpt>
      <trkpt lat="40.8312690" lon="0.2250280">
        <ele>546.0</ele>
        <time>2019-08-15T10:55:16Z</time>
      </trkpt>
      <trkpt lat="40.8312730" lon="0.2251100">
        <ele>546.0</ele>
        <time>2019-08-15T10:55:17Z</time>
      </trkpt>
      <trkpt lat="40.8312390" lon="0.2253480">
        <ele>544.0</ele>
        <time>2019-08-15T10:55:20Z</time>
      </trkpt>
      <trkpt lat="40.8312190" lon="0.2254200">
        <ele>544.0</ele>
        <time>2019-08-15T10:55:21Z</time>
      </trkpt>
      <trkpt lat="40.8312000" lon="0.2254940">
        <ele>543.0</ele>
        <time>2019-08-15T10:55:22Z</time>
      </trkpt>
      <trkpt lat="40.8311760" lon="0.2256650">
        <ele>542.0</ele>
        <time>2019-08-15T10:55:25Z</time>
      </trkpt>
      <trkpt lat="40.8311720" lon="0.2257000">
        <ele>542.0</ele>
        <time>2019-08-15T10:55:26Z</time>
      </trkpt>
      <trkpt lat="40.8311690" lon="0.2257280">
        <ele>542.0</ele>
        <time>2019-08-15T10:55:27Z</time>
      </trkpt>
      <trkpt lat="40.8311680" lon="0.2257550">
        <ele>541.0</ele>
        <time>2019-08-15T10:55:28Z</time>
      </trkpt>
      <trkpt lat="40.8311650" lon="0.2258090">
        <ele>541.0</ele>
        <time>2019-08-15T10:55:30Z</time>
      </trkpt>
      <trkpt lat="40.8311680" lon="0.2258320">
        <ele>541.0</ele>
        <time>2019-08-15T10:55:31Z</time>
      </trkpt>
      <trkpt lat="40.8311730" lon="0.2258590">
        <ele>541.0</ele>
        <time>2019-08-15T10:55:32Z</time>
      </trkpt>
      <trkpt lat="40.8311750" lon="0.2258680">
        <ele>541.0</ele>
        <time>2019-08-15T10:55:33Z</time>
      </trkpt>
      <trkpt lat="40.8311830" lon="0.2259030">
        <ele>541.0</ele>
        <time>2019-08-15T10:55:35Z</time>
      </trkpt>
      <trkpt lat="40.8311850" lon="0.2259260">
        <ele>541.0</ele>
        <time>2019-08-15T10:55:36Z</time>
      </trkpt>
      <trkpt lat="40.8311880" lon="0.2259500">
        <ele>542.0</ele>
        <time>2019-08-15T10:55:37Z</time>
      </trkpt>
      <trkpt lat="40.8311910" lon="0.2259720">
        <ele>542.0</ele>
        <time>2019-08-15T10:55:38Z</time>
      </trkpt>
      <trkpt lat="40.8311870" lon="0.2260010">
        <ele>542.0</ele>
        <time>2019-08-15T10:55:40Z</time>
      </trkpt>
      <trkpt lat="40.8311890" lon="0.2260180">
        <ele>542.0</ele>
        <time>2019-08-15T10:55:41Z</time>
      </trkpt>
      <trkpt lat="40.8311860" lon="0.2260370">
        <ele>542.0</ele>
        <time>2019-08-15T10:55:42Z</time>
      </trkpt>
      <trkpt lat="40.8311860" lon="0.2260550">
        <ele>543.0</ele>
        <time>2019-08-15T10:55:43Z</time>
      </trkpt>
      <trkpt lat="40.8311900" lon="0.2261030">
        <ele>543.0</ele>
        <time>2019-08-15T10:55:45Z</time>
      </trkpt>
      <trkpt lat="40.8311920" lon="0.2261270">
        <ele>543.0</ele>
        <time>2019-08-15T10:55:46Z</time>
      </trkpt>
      <trkpt lat="40.8311930" lon="0.2261510">
        <ele>543.0</ele>
        <time>2019-08-15T10:55:47Z</time>
      </trkpt>
      <trkpt lat="40.8311910" lon="0.2261680">
        <ele>543.0</ele>
        <time>2019-08-15T10:55:48Z</time>
      </trkpt>
      <trkpt lat="40.8311870" lon="0.2262080">
        <ele>543.0</ele>
        <time>2019-08-15T10:55:50Z</time>
      </trkpt>
      <trkpt lat="40.8311830" lon="0.2262300">
        <ele>543.0</ele>
        <time>2019-08-15T10:55:51Z</time>
      </trkpt>
      <trkpt lat="40.8311790" lon="0.2262520">
        <ele>544.0</ele>
        <time>2019-08-15T10:55:52Z</time>
      </trkpt>
      <trkpt lat="40.8311780" lon="0.2262730">
        <ele>544.0</ele>
        <time>2019-08-15T10:55:53Z</time>
      </trkpt>
      <trkpt lat="40.8311650" lon="0.2263070">
        <ele>544.0</ele>
        <time>2019-08-15T10:55:55Z</time>
      </trkpt>
      <trkpt lat="40.8311610" lon="0.2263280">
        <ele>544.0</ele>
        <time>2019-08-15T10:55:56Z</time>
      </trkpt>
      <trkpt lat="40.8311610" lon="0.2263480">
        <ele>544.0</ele>
        <time>2019-08-15T10:55:57Z</time>
      </trkpt>
      <trkpt lat="40.8311560" lon="0.2263680">
        <ele>544.0</ele>
        <time>2019-08-15T10:55:58Z</time>
      </trkpt>
      <trkpt lat="40.8311490" lon="0.2264030">
        <ele>545.0</ele>
        <time>2019-08-15T10:56:00Z</time>
      </trkpt>
      <trkpt lat="40.8311490" lon="0.2264200">
        <ele>545.0</ele>
        <time>2019-08-15T10:56:01Z</time>
      </trkpt>
      <trkpt lat="40.8311510" lon="0.2264360">
        <ele>545.0</ele>
        <time>2019-08-15T10:56:02Z</time>
      </trkpt>
      <trkpt lat="40.8311490" lon="0.2264540">
        <ele>545.0</ele>
        <time>2019-08-15T10:56:03Z</time>
      </trkpt>
      <trkpt lat="40.8311500" lon="0.2264950">
        <ele>545.0</ele>
        <time>2019-08-15T10:56:05Z</time>
      </trkpt>
      <trkpt lat="40.8311530" lon="0.2265170">
        <ele>546.0</ele>
        <time>2019-08-15T10:56:06Z</time>
      </trkpt>
      <trkpt lat="40.8311550" lon="0.2265360">
        <ele>546.0</ele>
        <time>2019-08-15T10:56:07Z</time>
      </trkpt>
      <trkpt lat="40.8311590" lon="0.2265540">
        <ele>546.0</ele>
        <time>2019-08-15T10:56:08Z</time>
      </trkpt>
      <trkpt lat="40.8311580" lon="0.2265870">
        <ele>546.0</ele>
        <time>2019-08-15T10:56:10Z</time>
      </trkpt>
      <trkpt lat="40.8311540" lon="0.2266040">
        <ele>546.0</ele>
        <time>2019-08-15T10:56:11Z</time>
      </trkpt>
      <trkpt lat="40.8311590" lon="0.2266230">
        <ele>546.0</ele>
        <time>2019-08-15T10:56:12Z</time>
      </trkpt>
      <trkpt lat="40.8311670" lon="0.2266410">
        <ele>546.0</ele>
        <time>2019-08-15T10:56:13Z</time>
      </trkpt>
      <trkpt lat="40.8311760" lon="0.2266820">
        <ele>547.0</ele>
        <time>2019-08-15T10:56:15Z</time>
      </trkpt>
      <trkpt lat="40.8311750" lon="0.2267020">
        <ele>547.0</ele>
        <time>2019-08-15T10:56:16Z</time>
      </trkpt>
      <trkpt lat="40.8311760" lon="0.2267220">
        <ele>547.0</ele>
        <time>2019-08-15T10:56:17Z</time>
      </trkpt>
      <trkpt lat="40.8311770" lon="0.2267410">
        <ele>547.0</ele>
        <time>2019-08-15T10:56:18Z</time>
      </trkpt>
      <trkpt lat="40.8311760" lon="0.2267780">
        <ele>548.0</ele>
        <time>2019-08-15T10:56:20Z</time>
      </trkpt>
      <trkpt lat="40.8311750" lon="0.2267940">
        <ele>548.0</ele>
        <time>2019-08-15T10:56:21Z</time>
      </trkpt>
      <trkpt lat="40.8311760" lon="0.2268120">
        <ele>548.0</ele>
        <time>2019-08-15T10:56:22Z</time>
      </trkpt>
      <trkpt lat="40.8311770" lon="0.2268320">
        <ele>548.0</ele>
        <time>2019-08-15T10:56:23Z</time>
      </trkpt>
      <trkpt lat="40.8311770" lon="0.2268730">
        <ele>548.0</ele>
        <time>2019-08-15T10:56:25Z</time>
      </trkpt>
      <trkpt lat="40.8311740" lon="0.2268930">
        <ele>548.0</ele>
        <time>2019-08-15T10:56:26Z</time>
      </trkpt>
      <trkpt lat="40.8311720" lon="0.2269120">
        <ele>549.0</ele>
        <time>2019-08-15T10:56:27Z</time>
      </trkpt>
      <trkpt lat="40.8311710" lon="0.2269320">
        <ele>549.0</ele>
        <time>2019-08-15T10:56:28Z</time>
      </trkpt>
      <trkpt lat="40.8311680" lon="0.2269700">
        <ele>549.0</ele>
        <time>2019-08-15T10:56:30Z</time>
      </trkpt>
      <trkpt lat="40.8311660" lon="0.2269880">
        <ele>549.0</ele>
        <time>2019-08-15T10:56:31Z</time>
      </trkpt>
      <trkpt lat="40.8311610" lon="0.2270060">
        <ele>549.0</ele>
        <time>2019-08-15T10:56:32Z</time>
      </trkpt>
      <trkpt lat="40.8311570" lon="0.2270250">
        <ele>549.0</ele>
        <time>2019-08-15T10:56:33Z</time>
      </trkpt>
      <trkpt lat="40.8311470" lon="0.2270630">
        <ele>550.0</ele>
        <time>2019-08-15T10:56:35Z</time>
      </trkpt>
      <trkpt lat="40.8311420" lon="0.2270850">
        <ele>550.0</ele>
        <time>2019-08-15T10:56:36Z</time>
      </trkpt>
      <trkpt lat="40.8311320" lon="0.2271040">
        <ele>550.0</ele>
        <time>2019-08-15T10:56:37Z</time>
      </trkpt>
      <trkpt lat="40.8311220" lon="0.2271260">
        <ele>550.0</ele>
        <time>2019-08-15T10:56:38Z</time>
      </trkpt>
      <trkpt lat="40.8311080" lon="0.2271660">
        <ele>550.0</ele>
        <time>2019-08-15T10:56:40Z</time>
      </trkpt>
      <trkpt lat="40.8311030" lon="0.2271870">
        <ele>550.0</ele>
        <time>2019-08-15T10:56:41Z</time>
      </trkpt>
      <trkpt lat="40.8310970" lon="0.2272120">
        <ele>550.0</ele>
        <time>2019-08-15T10:56:42Z</time>
      </trkpt>
      <trkpt lat="40.8310850" lon="0.2272350">
        <ele>550.0</ele>
        <time>2019-08-15T10:56:43Z</time>
      </trkpt>
      <trkpt lat="40.8310620" lon="0.2272800">
        <ele>551.0</ele>
        <time>2019-08-15T10:56:45Z</time>
      </trkpt>
      <trkpt lat="40.8310570" lon="0.2273060">
        <ele>551.0</ele>
        <time>2019-08-15T10:56:46Z</time>
      </trkpt>
      <trkpt lat="40.8310530" lon="0.2273330">
        <ele>551.0</ele>
        <time>2019-08-15T10:56:47Z</time>
      </trkpt>
      <trkpt lat="40.8310450" lon="0.2273590">
        <ele>551.0</ele>
        <time>2019-08-15T10:56:48Z</time>
      </trkpt>
      <trkpt lat="40.8310110" lon="0.2274020">
        <ele>551.0</ele>
        <time>2019-08-15T10:56:50Z</time>
      </trkpt>
      <trkpt lat="40.8309930" lon="0.2274260">
        <ele>551.0</ele>
        <time>2019-08-15T10:56:51Z</time>
      </trkpt>
      <trkpt lat="40.8309780" lon="0.2274580">
        <ele>551.0</ele>
        <time>2019-08-15T10:56:52Z</time>
      </trkpt>
      <trkpt lat="40.8309580" lon="0.2274880">
        <ele>551.0</ele>
        <time>2019-08-15T10:56:53Z</time>
      </trkpt>
      <trkpt lat="40.8309340" lon="0.2275390">
        <ele>551.0</ele>
        <time>2019-08-15T10:56:55Z</time>
      </trkpt>
      <trkpt lat="40.8309330" lon="0.2275470">
        <ele>551.0</ele>
        <time>2019-08-15T10:56:56Z</time>
      </trkpt>
      <trkpt lat="40.8309320" lon="0.2275540">
        <ele>551.0</ele>
        <time>2019-08-15T10:56:57Z</time>
      </trkpt>
      <trkpt lat="40.8309310" lon="0.2275550">
        <ele>550.0</ele>
        <time>2019-08-15T10:56:58Z</time>
      </trkpt>
      <trkpt lat="40.8308980" lon="0.2276660">
        <ele>550.0</ele>
        <time>2019-08-15T11:04:05Z</time>
      </trkpt>
      <trkpt lat="40.8308830" lon="0.2276990">
        <ele>550.0</ele>
        <time>2019-08-15T11:04:07Z</time>
      </trkpt>
      <trkpt lat="40.8308130" lon="0.2278020">
        <ele>549.0</ele>
        <time>2019-08-15T11:04:10Z</time>
      </trkpt>
      <trkpt lat="40.8307840" lon="0.2278450">
        <ele>549.0</ele>
        <time>2019-08-15T11:04:11Z</time>
      </trkpt>
      <trkpt lat="40.8307490" lon="0.2278850">
        <ele>549.0</ele>
        <time>2019-08-15T11:04:12Z</time>
      </trkpt>
      <trkpt lat="40.8306250" lon="0.2280220">
        <ele>548.0</ele>
        <time>2019-08-15T11:04:15Z</time>
      </trkpt>
      <trkpt lat="40.8305710" lon="0.2280580">
        <ele>548.0</ele>
        <time>2019-08-15T11:04:16Z</time>
      </trkpt>
      <trkpt lat="40.8305150" lon="0.2280890">
        <ele>548.0</ele>
        <time>2019-08-15T11:04:17Z</time>
      </trkpt>
      <trkpt lat="40.8304590" lon="0.2281190">
        <ele>547.0</ele>
        <time>2019-08-15T11:04:18Z</time>
      </trkpt>
      <trkpt lat="40.8303980" lon="0.2281460">
        <ele>547.0</ele>
        <time>2019-08-15T11:04:19Z</time>
      </trkpt>
      <trkpt lat="40.8303310" lon="0.2281650">
        <ele>547.0</ele>
        <time>2019-08-15T11:04:20Z</time>
      </trkpt>
      <trkpt lat="40.8302740" lon="0.2281870">
        <ele>546.0</ele>
        <time>2019-08-15T11:04:21Z</time>
      </trkpt>
      <trkpt lat="40.8302190" lon="0.2282060">
        <ele>546.0</ele>
        <time>2019-08-15T11:04:22Z</time>
      </trkpt>
      <trkpt lat="40.8301670" lon="0.2282260">
        <ele>545.0</ele>
        <time>2019-08-15T11:04:23Z</time>
      </trkpt>
      <trkpt lat="40.8301240" lon="0.2282470">
        <ele>545.0</ele>
        <time>2019-08-15T11:04:24Z</time>
      </trkpt>
      <trkpt lat="40.8300780" lon="0.2282610">
        <ele>544.0</ele>
        <time>2019-08-15T11:04:25Z</time>
      </trkpt>
      <trkpt lat="40.8300320" lon="0.2282750">
        <ele>544.0</ele>
        <time>2019-08-15T11:04:26Z</time>
      </trkpt>
      <trkpt lat="40.8299930" lon="0.2282930">
        <ele>543.0</ele>
        <time>2019-08-15T11:04:27Z</time>
      </trkpt>
      <trkpt lat="40.8299580" lon="0.2283110">
        <ele>543.0</ele>
        <time>2019-08-15T11:04:28Z</time>
      </trkpt>
      <trkpt lat="40.8299260" lon="0.2283270">
        <ele>542.0</ele>
        <time>2019-08-15T11:04:29Z</time>
      </trkpt>
      <trkpt lat="40.8298920" lon="0.2283420">
        <ele>541.0</ele>
        <time>2019-08-15T11:04:30Z</time>
      </trkpt>
      <trkpt lat="40.8298560" lon="0.2283550">
        <ele>541.0</ele>
        <time>2019-08-15T11:04:31Z</time>
      </trkpt>
      <trkpt lat="40.8298230" lon="0.2283660">
        <ele>541.0</ele>
        <time>2019-08-15T11:04:32Z</time>
      </trkpt>
      <trkpt lat="40.8297920" lon="0.2283750">
        <ele>540.0</ele>
        <time>2019-08-15T11:04:33Z</time>
      </trkpt>
      <trkpt lat="40.8297620" lon="0.2283860">
        <ele>540.0</ele>
        <time>2019-08-15T11:04:34Z</time>
      </trkpt>
      <trkpt lat="40.8297310" lon="0.2283970">
        <ele>540.0</ele>
        <time>2019-08-15T11:04:35Z</time>
      </trkpt>
      <trkpt lat="40.8297000" lon="0.2284040">
        <ele>539.0</ele>
        <time>2019-08-15T11:04:36Z</time>
      </trkpt>
      <trkpt lat="40.8296690" lon="0.2284120">
        <ele>539.0</ele>
        <time>2019-08-15T11:04:37Z</time>
      </trkpt>
      <trkpt lat="40.8296380" lon="0.2284190">
        <ele>539.0</ele>
        <time>2019-08-15T11:04:38Z</time>
      </trkpt>
      <trkpt lat="40.8296120" lon="0.2284300">
        <ele>539.0</ele>
        <time>2019-08-15T11:04:39Z</time>
      </trkpt>
      <trkpt lat="40.8295880" lon="0.2284380">
        <ele>539.0</ele>
        <time>2019-08-15T11:04:40Z</time>
      </trkpt>
      <trkpt lat="40.8295610" lon="0.2284440">
        <ele>539.0</ele>
        <time>2019-08-15T11:04:41Z</time>
      </trkpt>
      <trkpt lat="40.8294720" lon="0.2284690">
        <ele>538.0</ele>
        <time>2019-08-15T11:04:44Z</time>
      </trkpt>
      <trkpt lat="40.8294420" lon="0.2284790">
        <ele>538.0</ele>
        <time>2019-08-15T11:04:45Z</time>
      </trkpt>
      <trkpt lat="40.8294110" lon="0.2284890">
        <ele>538.0</ele>
        <time>2019-08-15T11:04:46Z</time>
      </trkpt>
      <trkpt lat="40.8293140" lon="0.2285120">
        <ele>539.0</ele>
        <time>2019-08-15T11:04:49Z</time>
      </trkpt>
      <trkpt lat="40.8292870" lon="0.2285200">
        <ele>539.0</ele>
        <time>2019-08-15T11:04:50Z</time>
      </trkpt>
      <trkpt lat="40.8292620" lon="0.2285310">
        <ele>539.0</ele>
        <time>2019-08-15T11:04:51Z</time>
      </trkpt>
      <trkpt lat="40.8292350" lon="0.2285420">
        <ele>539.0</ele>
        <time>2019-08-15T11:04:52Z</time>
      </trkpt>
      <trkpt lat="40.8291820" lon="0.2285610">
        <ele>538.0</ele>
        <time>2019-08-15T11:04:54Z</time>
      </trkpt>
      <trkpt lat="40.8291610" lon="0.2285720">
        <ele>538.0</ele>
        <time>2019-08-15T11:04:55Z</time>
      </trkpt>
      <trkpt lat="40.8291360" lon="0.2285830">
        <ele>538.0</ele>
        <time>2019-08-15T11:04:56Z</time>
      </trkpt>
      <trkpt lat="40.8291130" lon="0.2285950">
        <ele>538.0</ele>
        <time>2019-08-15T11:04:57Z</time>
      </trkpt>
      <trkpt lat="40.8290620" lon="0.2286190">
        <ele>538.0</ele>
        <time>2019-08-15T11:04:59Z</time>
      </trkpt>
      <trkpt lat="40.8290360" lon="0.2286350">
        <ele>539.0</ele>
        <time>2019-08-15T11:05:00Z</time>
      </trkpt>
      <trkpt lat="40.8290110" lon="0.2286520">
        <ele>539.0</ele>
        <time>2019-08-15T11:05:01Z</time>
      </trkpt>
      <trkpt lat="40.8289880" lon="0.2286680">
        <ele>539.0</ele>
        <time>2019-08-15T11:05:02Z</time>
      </trkpt>
      <trkpt lat="40.8289410" lon="0.2287020">
        <ele>539.0</ele>
        <time>2019-08-15T11:05:04Z</time>
      </trkpt>
      <trkpt lat="40.8289180" lon="0.2287230">
        <ele>539.0</ele>
        <time>2019-08-15T11:05:05Z</time>
      </trkpt>
      <trkpt lat="40.8288960" lon="0.2287430">
        <ele>539.0</ele>
        <time>2019-08-15T11:05:06Z</time>
      </trkpt>
      <trkpt lat="40.8288750" lon="0.2287620">
        <ele>539.0</ele>
        <time>2019-08-15T11:05:07Z</time>
      </trkpt>
      <trkpt lat="40.8288400" lon="0.2288020">
        <ele>539.0</ele>
        <time>2019-08-15T11:05:09Z</time>
      </trkpt>
      <trkpt lat="40.8288270" lon="0.2288200">
        <ele>539.0</ele>
        <time>2019-08-15T11:05:10Z</time>
      </trkpt>
      <trkpt lat="40.8288110" lon="0.2288380">
        <ele>539.0</ele>
        <time>2019-08-15T11:05:11Z</time>
      </trkpt>
      <trkpt lat="40.8287950" lon="0.2288560">
        <ele>539.0</ele>
        <time>2019-08-15T11:05:12Z</time>
      </trkpt>
      <trkpt lat="40.8287600" lon="0.2288920">
        <ele>540.0</ele>
        <time>2019-08-15T11:05:14Z</time>
      </trkpt>
      <trkpt lat="40.8287450" lon="0.2289150">
        <ele>540.0</ele>
        <time>2019-08-15T11:05:15Z</time>
      </trkpt>
      <trkpt lat="40.8287270" lon="0.2289340">
        <ele>540.0</ele>
        <time>2019-08-15T11:05:16Z</time>
      </trkpt>
      <trkpt lat="40.8287100" lon="0.2289520">
        <ele>540.0</ele>
        <time>2019-08-15T11:05:17Z</time>
      </trkpt>
      <trkpt lat="40.8286700" lon="0.2289880">
        <ele>540.0</ele>
        <time>2019-08-15T11:05:19Z</time>
      </trkpt>
      <trkpt lat="40.8286510" lon="0.2290010">
        <ele>540.0</ele>
        <time>2019-08-15T11:05:20Z</time>
      </trkpt>
      <trkpt lat="40.8286290" lon="0.2290130">
        <ele>540.0</ele>
        <time>2019-08-15T11:05:21Z</time>
      </trkpt>
      <trkpt lat="40.8286060" lon="0.2290270">
        <ele>540.0</ele>
        <time>2019-08-15T11:05:22Z</time>
      </trkpt>
      <trkpt lat="40.8285770" lon="0.2290690">
        <ele>540.0</ele>
        <time>2019-08-15T11:05:24Z</time>
      </trkpt>
      <trkpt lat="40.8285650" lon="0.2290930">
        <ele>540.0</ele>
        <time>2019-08-15T11:05:25Z</time>
      </trkpt>
      <trkpt lat="40.8285520" lon="0.2291160">
        <ele>540.0</ele>
        <time>2019-08-15T11:05:26Z</time>
      </trkpt>
      <trkpt lat="40.8285370" lon="0.2291350">
        <ele>540.0</ele>
        <time>2019-08-15T11:05:27Z</time>
      </trkpt>
      <trkpt lat="40.8285120" lon="0.2291720">
        <ele>540.0</ele>
        <time>2019-08-15T11:05:29Z</time>
      </trkpt>
      <trkpt lat="40.8285040" lon="0.2291920">
        <ele>540.0</ele>
        <time>2019-08-15T11:05:30Z</time>
      </trkpt>
      <trkpt lat="40.8284990" lon="0.2292130">
        <ele>540.0</ele>
        <time>2019-08-15T11:05:31Z</time>
      </trkpt>
      <trkpt lat="40.8284930" lon="0.2292360">
        <ele>540.0</ele>
        <time>2019-08-15T11:05:32Z</time>
      </trkpt>
      <trkpt lat="40.8284840" lon="0.2292880">
        <ele>540.0</ele>
        <time>2019-08-15T11:05:34Z</time>
      </trkpt>
      <trkpt lat="40.8284780" lon="0.2293130">
        <ele>540.0</ele>
        <time>2019-08-15T11:05:35Z</time>
      </trkpt>
      <trkpt lat="40.8284720" lon="0.2293410">
        <ele>540.0</ele>
        <time>2019-08-15T11:05:36Z</time>
      </trkpt>
      <trkpt lat="40.8284650" lon="0.2293690">
        <ele>540.0</ele>
        <time>2019-08-15T11:05:37Z</time>
      </trkpt>
      <trkpt lat="40.8284580" lon="0.2294280">
        <ele>540.0</ele>
        <time>2019-08-15T11:05:39Z</time>
      </trkpt>
      <trkpt lat="40.8284520" lon="0.2294560">
        <ele>540.0</ele>
        <time>2019-08-15T11:05:40Z</time>
      </trkpt>
      <trkpt lat="40.8284480" lon="0.2294860">
        <ele>540.0</ele>
        <time>2019-08-15T11:05:41Z</time>
      </trkpt>
      <trkpt lat="40.8284460" lon="0.2295150">
        <ele>540.0</ele>
        <time>2019-08-15T11:05:42Z</time>
      </trkpt>
      <trkpt lat="40.8284440" lon="0.2295450">
        <ele>540.0</ele>
        <time>2019-08-15T11:05:43Z</time>
      </trkpt>
      <trkpt lat="40.8284410" lon="0.2295750">
        <ele>540.0</ele>
        <time>2019-08-15T11:05:44Z</time>
      </trkpt>
      <trkpt lat="40.8284390" lon="0.2296070">
        <ele>540.0</ele>
        <time>2019-08-15T11:05:45Z</time>
      </trkpt>
      <trkpt lat="40.8284360" lon="0.2296370">
        <ele>540.0</ele>
        <time>2019-08-15T11:05:46Z</time>
      </trkpt>
      <trkpt lat="40.8284300" lon="0.2296670">
        <ele>540.0</ele>
        <time>2019-08-15T11:05:47Z</time>
      </trkpt>
      <trkpt lat="40.8284240" lon="0.2296990">
        <ele>540.0</ele>
        <time>2019-08-15T11:05:48Z</time>
      </trkpt>
      <trkpt lat="40.8284180" lon="0.2297280">
        <ele>540.0</ele>
        <time>2019-08-15T11:05:49Z</time>
      </trkpt>
      <trkpt lat="40.8284160" lon="0.2297590">
        <ele>540.0</ele>
        <time>2019-08-15T11:05:50Z</time>
      </trkpt>
      <trkpt lat="40.8284140" lon="0.2297910">
        <ele>540.0</ele>
        <time>2019-08-15T11:05:51Z</time>
      </trkpt>
      <trkpt lat="40.8284040" lon="0.2298830">
        <ele>540.0</ele>
        <time>2019-08-15T11:05:54Z</time>
      </trkpt>
      <trkpt lat="40.8284000" lon="0.2299090">
        <ele>540.0</ele>
        <time>2019-08-15T11:05:55Z</time>
      </trkpt>
      <trkpt lat="40.8283990" lon="0.2299390">
        <ele>540.0</ele>
        <time>2019-08-15T11:05:56Z</time>
      </trkpt>
      <trkpt lat="40.8283780" lon="0.2300270">
        <ele>541.0</ele>
        <time>2019-08-15T11:05:59Z</time>
      </trkpt>
      <trkpt lat="40.8283760" lon="0.2300620">
        <ele>541.0</ele>
        <time>2019-08-15T11:06:00Z</time>
      </trkpt>
      <trkpt lat="40.8283730" lon="0.2300970">
        <ele>541.0</ele>
        <time>2019-08-15T11:06:01Z</time>
      </trkpt>
      <trkpt lat="40.8283700" lon="0.2301340">
        <ele>541.0</ele>
        <time>2019-08-15T11:06:02Z</time>
      </trkpt>
      <trkpt lat="40.8283670" lon="0.2302060">
        <ele>541.0</ele>
        <time>2019-08-15T11:06:04Z</time>
      </trkpt>
      <trkpt lat="40.8283660" lon="0.2302390">
        <ele>541.0</ele>
        <time>2019-08-15T11:06:05Z</time>
      </trkpt>
      <trkpt lat="40.8283630" lon="0.2302720">
        <ele>541.0</ele>
        <time>2019-08-15T11:06:06Z</time>
      </trkpt>
      <trkpt lat="40.8283620" lon="0.2303060">
        <ele>541.0</ele>
        <time>2019-08-15T11:06:07Z</time>
      </trkpt>
      <trkpt lat="40.8283610" lon="0.2303710">
        <ele>541.0</ele>
        <time>2019-08-15T11:06:09Z</time>
      </trkpt>
      <trkpt lat="40.8283600" lon="0.2304060">
        <ele>541.0</ele>
        <time>2019-08-15T11:06:10Z</time>
      </trkpt>
      <trkpt lat="40.8283600" lon="0.2304420">
        <ele>541.0</ele>
        <time>2019-08-15T11:06:11Z</time>
      </trkpt>
      <trkpt lat="40.8283590" lon="0.2304780">
        <ele>541.0</ele>
        <time>2019-08-15T11:06:12Z</time>
      </trkpt>
      <trkpt lat="40.8283630" lon="0.2305460">
        <ele>541.0</ele>
        <time>2019-08-15T11:06:14Z</time>
      </trkpt>
      <trkpt lat="40.8283660" lon="0.2305780">
        <ele>541.0</ele>
        <time>2019-08-15T11:06:15Z</time>
      </trkpt>
      <trkpt lat="40.8283680" lon="0.2306090">
        <ele>541.0</ele>
        <time>2019-08-15T11:06:16Z</time>
      </trkpt>
      <trkpt lat="40.8283760" lon="0.2306440">
        <ele>541.0</ele>
        <time>2019-08-15T11:06:17Z</time>
      </trkpt>
      <trkpt lat="40.8283850" lon="0.2307080">
        <ele>541.0</ele>
        <time>2019-08-15T11:06:19Z</time>
      </trkpt>
      <trkpt lat="40.8283890" lon="0.2307400">
        <ele>541.0</ele>
        <time>2019-08-15T11:06:20Z</time>
      </trkpt>
      <trkpt lat="40.8283930" lon="0.2307740">
        <ele>541.0</ele>
        <time>2019-08-15T11:06:21Z</time>
      </trkpt>
      <trkpt lat="40.8283950" lon="0.2308090">
        <ele>542.0</ele>
        <time>2019-08-15T11:06:22Z</time>
      </trkpt>
      <trkpt lat="40.8284010" lon="0.2308770">
        <ele>542.0</ele>
        <time>2019-08-15T11:06:24Z</time>
      </trkpt>
      <trkpt lat="40.8284040" lon="0.2309130">
        <ele>542.0</ele>
        <time>2019-08-15T11:06:25Z</time>
      </trkpt>
      <trkpt lat="40.8284070" lon="0.2309510">
        <ele>542.0</ele>
        <time>2019-08-15T11:06:26Z</time>
      </trkpt>
      <trkpt lat="40.8284090" lon="0.2309870">
        <ele>542.0</ele>
        <time>2019-08-15T11:06:27Z</time>
      </trkpt>
      <trkpt lat="40.8284090" lon="0.2310510">
        <ele>542.0</ele>
        <time>2019-08-15T11:06:29Z</time>
      </trkpt>
      <trkpt lat="40.8284060" lon="0.2310790">
        <ele>542.0</ele>
        <time>2019-08-15T11:06:30Z</time>
      </trkpt>
      <trkpt lat="40.8284030" lon="0.2311070">
        <ele>542.0</ele>
        <time>2019-08-15T11:06:31Z</time>
      </trkpt>
      <trkpt lat="40.8284040" lon="0.2311370">
        <ele>542.0</ele>
        <time>2019-08-15T11:06:32Z</time>
      </trkpt>
      <trkpt lat="40.8284020" lon="0.2311920">
        <ele>542.0</ele>
        <time>2019-08-15T11:06:34Z</time>
      </trkpt>
      <trkpt lat="40.8284020" lon="0.2312160">
        <ele>542.0</ele>
        <time>2019-08-15T11:06:35Z</time>
      </trkpt>
      <trkpt lat="40.8284010" lon="0.2312490">
        <ele>542.0</ele>
        <time>2019-08-15T11:06:36Z</time>
      </trkpt>
      <trkpt lat="40.8284030" lon="0.2312610">
        <ele>542.0</ele>
        <time>2019-08-15T11:06:37Z</time>
      </trkpt>
      <trkpt lat="40.8284160" lon="0.2313190">
        <ele>543.0</ele>
        <time>2019-08-15T11:06:39Z</time>
      </trkpt>
      <trkpt lat="40.8284160" lon="0.2313460">
        <ele>543.0</ele>
        <time>2019-08-15T11:06:40Z</time>
      </trkpt>
      <trkpt lat="40.8284160" lon="0.2313680">
        <ele>543.0</ele>
        <time>2019-08-15T11:06:41Z</time>
      </trkpt>
      <trkpt lat="40.8284180" lon="0.2313900">
        <ele>543.0</ele>
        <time>2019-08-15T11:06:42Z</time>
      </trkpt>
      <trkpt lat="40.8284300" lon="0.2314420">
        <ele>543.0</ele>
        <time>2019-08-15T11:06:44Z</time>
      </trkpt>
      <trkpt lat="40.8284340" lon="0.2314680">
        <ele>543.0</ele>
        <time>2019-08-15T11:06:45Z</time>
      </trkpt>
      <trkpt lat="40.8284410" lon="0.2314970">
        <ele>543.0</ele>
        <time>2019-08-15T11:06:46Z</time>
      </trkpt>
      <trkpt lat="40.8284500" lon="0.2315270">
        <ele>543.0</ele>
        <time>2019-08-15T11:06:47Z</time>
      </trkpt>
      <trkpt lat="40.8284610" lon="0.2315720">
        <ele>543.0</ele>
        <time>2019-08-15T11:06:49Z</time>
      </trkpt>
      <trkpt lat="40.8284630" lon="0.2315950">
        <ele>543.0</ele>
        <time>2019-08-15T11:06:50Z</time>
      </trkpt>
      <trkpt lat="40.8284620" lon="0.2316160">
        <ele>543.0</ele>
        <time>2019-08-15T11:06:51Z</time>
      </trkpt>
      <trkpt lat="40.8284660" lon="0.2316350">
        <ele>543.0</ele>
        <time>2019-08-15T11:06:52Z</time>
      </trkpt>
      <trkpt lat="40.8284800" lon="0.2316750">
        <ele>543.0</ele>
        <time>2019-08-15T11:06:54Z</time>
      </trkpt>
      <trkpt lat="40.8284860" lon="0.2317000">
        <ele>543.0</ele>
        <time>2019-08-15T11:06:55Z</time>
      </trkpt>
      <trkpt lat="40.8284860" lon="0.2317230">
        <ele>543.0</ele>
        <time>2019-08-15T11:06:56Z</time>
      </trkpt>
      <trkpt lat="40.8284840" lon="0.2317440">
        <ele>543.0</ele>
        <time>2019-08-15T11:06:57Z</time>
      </trkpt>
      <trkpt lat="40.8284820" lon="0.2317870">
        <ele>543.0</ele>
        <time>2019-08-15T11:06:59Z</time>
      </trkpt>
      <trkpt lat="40.8284830" lon="0.2318070">
        <ele>543.0</ele>
        <time>2019-08-15T11:07:00Z</time>
      </trkpt>
      <trkpt lat="40.8284860" lon="0.2318270">
        <ele>544.0</ele>
        <time>2019-08-15T11:07:01Z</time>
      </trkpt>
      <trkpt lat="40.8284880" lon="0.2318490">
        <ele>544.0</ele>
        <time>2019-08-15T11:07:02Z</time>
      </trkpt>
      <trkpt lat="40.8284950" lon="0.2319020">
        <ele>544.0</ele>
        <time>2019-08-15T11:07:04Z</time>
      </trkpt>
      <trkpt lat="40.8284990" lon="0.2319350">
        <ele>544.0</ele>
        <time>2019-08-15T11:07:05Z</time>
      </trkpt>
      <trkpt lat="40.8284990" lon="0.2319640">
        <ele>544.0</ele>
        <time>2019-08-15T11:07:06Z</time>
      </trkpt>
      <trkpt lat="40.8284970" lon="0.2319920">
        <ele>544.0</ele>
        <time>2019-08-15T11:07:07Z</time>
      </trkpt>
      <trkpt lat="40.8285000" lon="0.2320520">
        <ele>544.0</ele>
        <time>2019-08-15T11:07:09Z</time>
      </trkpt>
      <trkpt lat="40.8285010" lon="0.2320850">
        <ele>544.0</ele>
        <time>2019-08-15T11:07:10Z</time>
      </trkpt>
      <trkpt lat="40.8285080" lon="0.2321230">
        <ele>544.0</ele>
        <time>2019-08-15T11:07:11Z</time>
      </trkpt>
      <trkpt lat="40.8285140" lon="0.2321610">
        <ele>544.0</ele>
        <time>2019-08-15T11:07:12Z</time>
      </trkpt>
      <trkpt lat="40.8285250" lon="0.2322350">
        <ele>544.0</ele>
        <time>2019-08-15T11:07:14Z</time>
      </trkpt>
      <trkpt lat="40.8285280" lon="0.2322650">
        <ele>544.0</ele>
        <time>2019-08-15T11:07:15Z</time>
      </trkpt>
      <trkpt lat="40.8285400" lon="0.2322990">
        <ele>544.0</ele>
        <time>2019-08-15T11:07:16Z</time>
      </trkpt>
      <trkpt lat="40.8285450" lon="0.2323350">
        <ele>544.0</ele>
        <time>2019-08-15T11:07:17Z</time>
      </trkpt>
      <trkpt lat="40.8285680" lon="0.2324030">
        <ele>544.0</ele>
        <time>2019-08-15T11:07:19Z</time>
      </trkpt>
      <trkpt lat="40.8285770" lon="0.2324300">
        <ele>544.0</ele>
        <time>2019-08-15T11:07:20Z</time>
      </trkpt>
      <trkpt lat="40.8285870" lon="0.2324540">
        <ele>544.0</ele>
        <time>2019-08-15T11:07:21Z</time>
      </trkpt>
      <trkpt lat="40.8285960" lon="0.2324790">
        <ele>544.0</ele>
        <time>2019-08-15T11:07:22Z</time>
      </trkpt>
      <trkpt lat="40.8286060" lon="0.2325340">
        <ele>544.0</ele>
        <time>2019-08-15T11:07:24Z</time>
      </trkpt>
      <trkpt lat="40.8286120" lon="0.2325630">
        <ele>544.0</ele>
        <time>2019-08-15T11:07:25Z</time>
      </trkpt>
      <trkpt lat="40.8286180" lon="0.2325930">
        <ele>544.0</ele>
        <time>2019-08-15T11:07:26Z</time>
      </trkpt>
      <trkpt lat="40.8286250" lon="0.2326250">
        <ele>544.0</ele>
        <time>2019-08-15T11:07:27Z</time>
      </trkpt>
      <trkpt lat="40.8286410" lon="0.2326940">
        <ele>544.0</ele>
        <time>2019-08-15T11:07:29Z</time>
      </trkpt>
      <trkpt lat="40.8286480" lon="0.2327260">
        <ele>544.0</ele>
        <time>2019-08-15T11:07:30Z</time>
      </trkpt>
      <trkpt lat="40.8286540" lon="0.2327570">
        <ele>544.0</ele>
        <time>2019-08-15T11:07:31Z</time>
      </trkpt>
      <trkpt lat="40.8286530" lon="0.2327870">
        <ele>544.0</ele>
        <time>2019-08-15T11:07:32Z</time>
      </trkpt>
      <trkpt lat="40.8286650" lon="0.2328560">
        <ele>544.0</ele>
        <time>2019-08-15T11:07:34Z</time>
      </trkpt>
      <trkpt lat="40.8286700" lon="0.2328910">
        <ele>544.0</ele>
        <time>2019-08-15T11:07:35Z</time>
      </trkpt>
      <trkpt lat="40.8286750" lon="0.2329230">
        <ele>544.0</ele>
        <time>2019-08-15T11:07:36Z</time>
      </trkpt>
      <trkpt lat="40.8286790" lon="0.2329540">
        <ele>544.0</ele>
        <time>2019-08-15T11:07:37Z</time>
      </trkpt>
      <trkpt lat="40.8286750" lon="0.2330120">
        <ele>544.0</ele>
        <time>2019-08-15T11:07:39Z</time>
      </trkpt>
      <trkpt lat="40.8286690" lon="0.2330420">
        <ele>544.0</ele>
        <time>2019-08-15T11:07:40Z</time>
      </trkpt>
      <trkpt lat="40.8286670" lon="0.2330730">
        <ele>544.0</ele>
        <time>2019-08-15T11:07:41Z</time>
      </trkpt>
      <trkpt lat="40.8286600" lon="0.2331020">
        <ele>545.0</ele>
        <time>2019-08-15T11:07:42Z</time>
      </trkpt>
      <trkpt lat="40.8286450" lon="0.2331530">
        <ele>545.0</ele>
        <time>2019-08-15T11:07:44Z</time>
      </trkpt>
      <trkpt lat="40.8286310" lon="0.2331780">
        <ele>545.0</ele>
        <time>2019-08-15T11:07:45Z</time>
      </trkpt>
      <trkpt lat="40.8286180" lon="0.2332010">
        <ele>545.0</ele>
        <time>2019-08-15T11:07:46Z</time>
      </trkpt>
      <trkpt lat="40.8286110" lon="0.2332240">
        <ele>545.0</ele>
        <time>2019-08-15T11:07:47Z</time>
      </trkpt>
      <trkpt lat="40.8286180" lon="0.2333260">
        <ele>545.0</ele>
        <time>2019-08-15T11:08:15Z</time>
      </trkpt>
      <trkpt lat="40.8286190" lon="0.2333620">
        <ele>545.0</ele>
        <time>2019-08-15T11:08:17Z</time>
      </trkpt>
      <trkpt lat="40.8286180" lon="0.2333970">
        <ele>545.0</ele>
        <time>2019-08-15T11:08:18Z</time>
      </trkpt>
      <trkpt lat="40.8286210" lon="0.2334250">
        <ele>545.0</ele>
        <time>2019-08-15T11:08:19Z</time>
      </trkpt>
      <trkpt lat="40.8286200" lon="0.2334440">
        <ele>545.0</ele>
        <time>2019-08-15T11:08:20Z</time>
      </trkpt>
      <trkpt lat="40.8286180" lon="0.2334580">
        <ele>545.0</ele>
        <time>2019-08-15T11:08:22Z</time>
      </trkpt>
      <trkpt lat="40.8285750" lon="0.2332340">
        <ele>549.0</ele>
        <time>2019-08-15T12:41:40Z</time>
      </trkpt>
      <trkpt lat="40.8285750" lon="0.2332340">
        <ele>549.0</ele>
        <time>2019-08-15T12:41:41Z</time>
      </trkpt>
      <trkpt lat="40.8285570" lon="0.2332500">
        <ele>549.0</ele>
        <time>2019-08-15T12:41:42Z</time>
      </trkpt>
      <trkpt lat="40.8285380" lon="0.2332670">
        <ele>549.0</ele>
        <time>2019-08-15T12:41:43Z</time>
      </trkpt>
      <trkpt lat="40.8285170" lon="0.2332890">
        <ele>549.0</ele>
        <time>2019-08-15T12:41:44Z</time>
      </trkpt>
      <trkpt lat="40.8284950" lon="0.2333080">
        <ele>549.0</ele>
        <time>2019-08-15T12:41:45Z</time>
      </trkpt>
      <trkpt lat="40.8284730" lon="0.2333230">
        <ele>549.0</ele>
        <time>2019-08-15T12:41:46Z</time>
      </trkpt>
      <trkpt lat="40.8284530" lon="0.2333370">
        <ele>549.0</ele>
        <time>2019-08-15T12:41:47Z</time>
      </trkpt>
      <trkpt lat="40.8284310" lon="0.2333500">
        <ele>549.0</ele>
        <time>2019-08-15T12:41:48Z</time>
      </trkpt>
      <trkpt lat="40.8283840" lon="0.2333840">
        <ele>549.0</ele>
        <time>2019-08-15T12:41:50Z</time>
      </trkpt>
      <trkpt lat="40.8283610" lon="0.2334010">
        <ele>549.0</ele>
        <time>2019-08-15T12:41:51Z</time>
      </trkpt>
      <trkpt lat="40.8283380" lon="0.2334180">
        <ele>549.0</ele>
        <time>2019-08-15T12:41:52Z</time>
      </trkpt>
      <trkpt lat="40.8282770" lon="0.2334660">
        <ele>549.0</ele>
        <time>2019-08-15T12:41:55Z</time>
      </trkpt>
      <trkpt lat="40.8282580" lon="0.2334810">
        <ele>549.0</ele>
        <time>2019-08-15T12:41:56Z</time>
      </trkpt>
      <trkpt lat="40.8282390" lon="0.2334960">
        <ele>549.0</ele>
        <time>2019-08-15T12:41:57Z</time>
      </trkpt>
      <trkpt lat="40.8282210" lon="0.2335120">
        <ele>549.0</ele>
        <time>2019-08-15T12:41:58Z</time>
      </trkpt>
      <trkpt lat="40.8281870" lon="0.2335420">
        <ele>549.0</ele>
        <time>2019-08-15T12:42:00Z</time>
      </trkpt>
      <trkpt lat="40.8281710" lon="0.2335570">
        <ele>550.0</ele>
        <time>2019-08-15T12:42:01Z</time>
      </trkpt>
      <trkpt lat="40.8281560" lon="0.2335720">
        <ele>550.0</ele>
        <time>2019-08-15T12:42:02Z</time>
      </trkpt>
      <trkpt lat="40.8281380" lon="0.2335880">
        <ele>550.0</ele>
        <time>2019-08-15T12:42:03Z</time>
      </trkpt>
      <trkpt lat="40.8281100" lon="0.2336220">
        <ele>550.0</ele>
        <time>2019-08-15T12:42:05Z</time>
      </trkpt>
      <trkpt lat="40.8280960" lon="0.2336400">
        <ele>550.0</ele>
        <time>2019-08-15T12:42:06Z</time>
      </trkpt>
      <trkpt lat="40.8280830" lon="0.2336570">
        <ele>550.0</ele>
        <time>2019-08-15T12:42:07Z</time>
      </trkpt>
      <trkpt lat="40.8280700" lon="0.2336710">
        <ele>550.0</ele>
        <time>2019-08-15T12:42:08Z</time>
      </trkpt>
      <trkpt lat="40.8280480" lon="0.2337050">
        <ele>551.0</ele>
        <time>2019-08-15T12:42:10Z</time>
      </trkpt>
      <trkpt lat="40.8280390" lon="0.2337180">
        <ele>551.0</ele>
        <time>2019-08-15T12:42:11Z</time>
      </trkpt>
      <trkpt lat="40.8280280" lon="0.2337330">
        <ele>551.0</ele>
        <time>2019-08-15T12:42:12Z</time>
      </trkpt>
      <trkpt lat="40.8280160" lon="0.2337510">
        <ele>551.0</ele>
        <time>2019-08-15T12:42:13Z</time>
      </trkpt>
      <trkpt lat="40.8279930" lon="0.2337890">
        <ele>551.0</ele>
        <time>2019-08-15T12:42:15Z</time>
      </trkpt>
      <trkpt lat="40.8279810" lon="0.2338080">
        <ele>551.0</ele>
        <time>2019-08-15T12:42:16Z</time>
      </trkpt>
      <trkpt lat="40.8279710" lon="0.2338240">
        <ele>551.0</ele>
        <time>2019-08-15T12:42:17Z</time>
      </trkpt>
      <trkpt lat="40.8279630" lon="0.2338380">
        <ele>551.0</ele>
        <time>2019-08-15T12:42:18Z</time>
      </trkpt>
      <trkpt lat="40.8279480" lon="0.2338690">
        <ele>551.0</ele>
        <time>2019-08-15T12:42:20Z</time>
      </trkpt>
      <trkpt lat="40.8279400" lon="0.2338900">
        <ele>551.0</ele>
        <time>2019-08-15T12:42:21Z</time>
      </trkpt>
      <trkpt lat="40.8279340" lon="0.2339100">
        <ele>551.0</ele>
        <time>2019-08-15T12:42:22Z</time>
      </trkpt>
      <trkpt lat="40.8279260" lon="0.2339250">
        <ele>551.0</ele>
        <time>2019-08-15T12:42:23Z</time>
      </trkpt>
      <trkpt lat="40.8279120" lon="0.2339630">
        <ele>551.0</ele>
        <time>2019-08-15T12:42:25Z</time>
      </trkpt>
      <trkpt lat="40.8279010" lon="0.2339840">
        <ele>551.0</ele>
        <time>2019-08-15T12:42:26Z</time>
      </trkpt>
      <trkpt lat="40.8278920" lon="0.2340070">
        <ele>551.0</ele>
        <time>2019-08-15T12:42:27Z</time>
      </trkpt>
      <trkpt lat="40.8278800" lon="0.2340280">
        <ele>551.0</ele>
        <time>2019-08-15T12:42:28Z</time>
      </trkpt>
      <trkpt lat="40.8278620" lon="0.2340610">
        <ele>551.0</ele>
        <time>2019-08-15T12:42:30Z</time>
      </trkpt>
      <trkpt lat="40.8278540" lon="0.2340820">
        <ele>552.0</ele>
        <time>2019-08-15T12:42:31Z</time>
      </trkpt>
      <trkpt lat="40.8278440" lon="0.2341040">
        <ele>552.0</ele>
        <time>2019-08-15T12:42:32Z</time>
      </trkpt>
      <trkpt lat="40.8278360" lon="0.2341260">
        <ele>552.0</ele>
        <time>2019-08-15T12:42:33Z</time>
      </trkpt>
      <trkpt lat="40.8278180" lon="0.2341620">
        <ele>552.0</ele>
        <time>2019-08-15T12:42:35Z</time>
      </trkpt>
      <trkpt lat="40.8278110" lon="0.2341840">
        <ele>552.0</ele>
        <time>2019-08-15T12:42:36Z</time>
      </trkpt>
      <trkpt lat="40.8278030" lon="0.2342080">
        <ele>552.0</ele>
        <time>2019-08-15T12:42:37Z</time>
      </trkpt>
      <trkpt lat="40.8277940" lon="0.2342310">
        <ele>552.0</ele>
        <time>2019-08-15T12:42:38Z</time>
      </trkpt>
      <trkpt lat="40.8277840" lon="0.2342730">
        <ele>552.0</ele>
        <time>2019-08-15T12:42:40Z</time>
      </trkpt>
      <trkpt lat="40.8277800" lon="0.2342910">
        <ele>552.0</ele>
        <time>2019-08-15T12:42:41Z</time>
      </trkpt>
      <trkpt lat="40.8277760" lon="0.2343120">
        <ele>552.0</ele>
        <time>2019-08-15T12:42:42Z</time>
      </trkpt>
      <trkpt lat="40.8277710" lon="0.2343360">
        <ele>552.0</ele>
        <time>2019-08-15T12:42:43Z</time>
      </trkpt>
      <trkpt lat="40.8277570" lon="0.2343850">
        <ele>552.0</ele>
        <time>2019-08-15T12:42:45Z</time>
      </trkpt>
      <trkpt lat="40.8277530" lon="0.2344110">
        <ele>552.0</ele>
        <time>2019-08-15T12:42:46Z</time>
      </trkpt>
      <trkpt lat="40.8277460" lon="0.2344390">
        <ele>553.0</ele>
        <time>2019-08-15T12:42:47Z</time>
      </trkpt>
      <trkpt lat="40.8277400" lon="0.2344650">
        <ele>553.0</ele>
        <time>2019-08-15T12:42:48Z</time>
      </trkpt>
      <trkpt lat="40.8277320" lon="0.2345130">
        <ele>553.0</ele>
        <time>2019-08-15T12:42:50Z</time>
      </trkpt>
      <trkpt lat="40.8277270" lon="0.2345410">
        <ele>553.0</ele>
        <time>2019-08-15T12:42:51Z</time>
      </trkpt>
      <trkpt lat="40.8277230" lon="0.2345720">
        <ele>553.0</ele>
        <time>2019-08-15T12:42:52Z</time>
      </trkpt>
      <trkpt lat="40.8277190" lon="0.2346040">
        <ele>553.0</ele>
        <time>2019-08-15T12:42:53Z</time>
      </trkpt>
      <trkpt lat="40.8277070" lon="0.2346640">
        <ele>553.0</ele>
        <time>2019-08-15T12:42:55Z</time>
      </trkpt>
      <trkpt lat="40.8277030" lon="0.2346930">
        <ele>553.0</ele>
        <time>2019-08-15T12:42:56Z</time>
      </trkpt>
      <trkpt lat="40.8276990" lon="0.2347230">
        <ele>553.0</ele>
        <time>2019-08-15T12:42:57Z</time>
      </trkpt>
      <trkpt lat="40.8276930" lon="0.2347540">
        <ele>553.0</ele>
        <time>2019-08-15T12:42:58Z</time>
      </trkpt>
      <trkpt lat="40.8276850" lon="0.2348090">
        <ele>553.0</ele>
        <time>2019-08-15T12:43:00Z</time>
      </trkpt>
      <trkpt lat="40.8276830" lon="0.2348380">
        <ele>553.0</ele>
        <time>2019-08-15T12:43:01Z</time>
      </trkpt>
      <trkpt lat="40.8276800" lon="0.2348650">
        <ele>553.0</ele>
        <time>2019-08-15T12:43:02Z</time>
      </trkpt>
      <trkpt lat="40.8276730" lon="0.2348920">
        <ele>553.0</ele>
        <time>2019-08-15T12:43:03Z</time>
      </trkpt>
      <trkpt lat="40.8276630" lon="0.2349430">
        <ele>553.0</ele>
        <time>2019-08-15T12:43:05Z</time>
      </trkpt>
      <trkpt lat="40.8276570" lon="0.2349690">
        <ele>553.0</ele>
        <time>2019-08-15T12:43:06Z</time>
      </trkpt>
      <trkpt lat="40.8276570" lon="0.2349940">
        <ele>553.0</ele>
        <time>2019-08-15T12:43:07Z</time>
      </trkpt>
      <trkpt lat="40.8276560" lon="0.2350170">
        <ele>553.0</ele>
        <time>2019-08-15T12:43:08Z</time>
      </trkpt>
      <trkpt lat="40.8276480" lon="0.2350660">
        <ele>553.0</ele>
        <time>2019-08-15T12:43:10Z</time>
      </trkpt>
      <trkpt lat="40.8276440" lon="0.2350970">
        <ele>553.0</ele>
        <time>2019-08-15T12:43:11Z</time>
      </trkpt>
      <trkpt lat="40.8276400" lon="0.2351220">
        <ele>553.0</ele>
        <time>2019-08-15T12:43:12Z</time>
      </trkpt>
      <trkpt lat="40.8276380" lon="0.2351440">
        <ele>553.0</ele>
        <time>2019-08-15T12:43:13Z</time>
      </trkpt>
      <trkpt lat="40.8276290" lon="0.2351880">
        <ele>553.0</ele>
        <time>2019-08-15T12:43:15Z</time>
      </trkpt>
      <trkpt lat="40.8276280" lon="0.2352100">
        <ele>553.0</ele>
        <time>2019-08-15T12:43:16Z</time>
      </trkpt>
      <trkpt lat="40.8276260" lon="0.2352350">
        <ele>553.0</ele>
        <time>2019-08-15T12:43:17Z</time>
      </trkpt>
      <trkpt lat="40.8276230" lon="0.2352580">
        <ele>553.0</ele>
        <time>2019-08-15T12:43:18Z</time>
      </trkpt>
      <trkpt lat="40.8276210" lon="0.2353030">
        <ele>553.0</ele>
        <time>2019-08-15T12:43:20Z</time>
      </trkpt>
      <trkpt lat="40.8276210" lon="0.2353260">
        <ele>553.0</ele>
        <time>2019-08-15T12:43:21Z</time>
      </trkpt>
      <trkpt lat="40.8276220" lon="0.2353470">
        <ele>553.0</ele>
        <time>2019-08-15T12:43:22Z</time>
      </trkpt>
      <trkpt lat="40.8276260" lon="0.2353650">
        <ele>553.0</ele>
        <time>2019-08-15T12:43:23Z</time>
      </trkpt>
      <trkpt lat="40.8276340" lon="0.2353990">
        <ele>553.0</ele>
        <time>2019-08-15T12:43:25Z</time>
      </trkpt>
      <trkpt lat="40.8276350" lon="0.2354200">
        <ele>553.0</ele>
        <time>2019-08-15T12:43:26Z</time>
      </trkpt>
      <trkpt lat="40.8276360" lon="0.2354390">
        <ele>553.0</ele>
        <time>2019-08-15T12:43:27Z</time>
      </trkpt>
      <trkpt lat="40.8276370" lon="0.2354620">
        <ele>553.0</ele>
        <time>2019-08-15T12:43:28Z</time>
      </trkpt>
      <trkpt lat="40.8276370" lon="0.2355060">
        <ele>553.0</ele>
        <time>2019-08-15T12:43:30Z</time>
      </trkpt>
      <trkpt lat="40.8276370" lon="0.2355280">
        <ele>554.0</ele>
        <time>2019-08-15T12:43:31Z</time>
      </trkpt>
      <trkpt lat="40.8276350" lon="0.2355490">
        <ele>554.0</ele>
        <time>2019-08-15T12:43:32Z</time>
      </trkpt>
      <trkpt lat="40.8276360" lon="0.2355710">
        <ele>554.0</ele>
        <time>2019-08-15T12:43:33Z</time>
      </trkpt>
      <trkpt lat="40.8276350" lon="0.2356140">
        <ele>554.0</ele>
        <time>2019-08-15T12:43:35Z</time>
      </trkpt>
      <trkpt lat="40.8276320" lon="0.2356310">
        <ele>554.0</ele>
        <time>2019-08-15T12:43:36Z</time>
      </trkpt>
      <trkpt lat="40.8276280" lon="0.2356490">
        <ele>554.0</ele>
        <time>2019-08-15T12:43:37Z</time>
      </trkpt>
      <trkpt lat="40.8276270" lon="0.2356710">
        <ele>554.0</ele>
        <time>2019-08-15T12:43:38Z</time>
      </trkpt>
      <trkpt lat="40.8276200" lon="0.2357080">
        <ele>554.0</ele>
        <time>2019-08-15T12:43:40Z</time>
      </trkpt>
      <trkpt lat="40.8276140" lon="0.2357280">
        <ele>554.0</ele>
        <time>2019-08-15T12:43:41Z</time>
      </trkpt>
      <trkpt lat="40.8276090" lon="0.2357490">
        <ele>555.0</ele>
        <time>2019-08-15T12:43:42Z</time>
      </trkpt>
      <trkpt lat="40.8276060" lon="0.2357690">
        <ele>555.0</ele>
        <time>2019-08-15T12:43:43Z</time>
      </trkpt>
      <trkpt lat="40.8276060" lon="0.2358010">
        <ele>555.0</ele>
        <time>2019-08-15T12:43:45Z</time>
      </trkpt>
      <trkpt lat="40.8276000" lon="0.2358160">
        <ele>555.0</ele>
        <time>2019-08-15T12:43:46Z</time>
      </trkpt>
      <trkpt lat="40.8275940" lon="0.2358280">
        <ele>555.0</ele>
        <time>2019-08-15T12:43:47Z</time>
      </trkpt>
      <trkpt lat="40.8275860" lon="0.2358430">
        <ele>555.0</ele>
        <time>2019-08-15T12:43:48Z</time>
      </trkpt>
      <trkpt lat="40.8275640" lon="0.2358710">
        <ele>555.0</ele>
        <time>2019-08-15T12:43:50Z</time>
      </trkpt>
      <trkpt lat="40.8275510" lon="0.2358820">
        <ele>556.0</ele>
        <time>2019-08-15T12:43:51Z</time>
      </trkpt>
      <trkpt lat="40.8275350" lon="0.2358940">
        <ele>556.0</ele>
        <time>2019-08-15T12:43:52Z</time>
      </trkpt>
      <trkpt lat="40.8275170" lon="0.2359020">
        <ele>556.0</ele>
        <time>2019-08-15T12:43:53Z</time>
      </trkpt>
      <trkpt lat="40.8274980" lon="0.2359100">
        <ele>556.0</ele>
        <time>2019-08-15T12:43:54Z</time>
      </trkpt>
      <trkpt lat="40.8274810" lon="0.2359200">
        <ele>556.0</ele>
        <time>2019-08-15T12:43:55Z</time>
      </trkpt>
      <trkpt lat="40.8274660" lon="0.2359360">
        <ele>556.0</ele>
        <time>2019-08-15T12:43:56Z</time>
      </trkpt>
      <trkpt lat="40.8274520" lon="0.2359520">
        <ele>556.0</ele>
        <time>2019-08-15T12:43:57Z</time>
      </trkpt>
      <trkpt lat="40.8274370" lon="0.2359660">
        <ele>556.0</ele>
        <time>2019-08-15T12:43:58Z</time>
      </trkpt>
      <trkpt lat="40.8274230" lon="0.2359800">
        <ele>556.0</ele>
        <time>2019-08-15T12:43:59Z</time>
      </trkpt>
      <trkpt lat="40.8274070" lon="0.2359910">
        <ele>556.0</ele>
        <time>2019-08-15T12:44:00Z</time>
      </trkpt>
      <trkpt lat="40.8273900" lon="0.2359990">
        <ele>556.0</ele>
        <time>2019-08-15T12:44:01Z</time>
      </trkpt>
      <trkpt lat="40.8273700" lon="0.2360040">
        <ele>557.0</ele>
        <time>2019-08-15T12:44:02Z</time>
      </trkpt>
      <trkpt lat="40.8273520" lon="0.2360090">
        <ele>557.0</ele>
        <time>2019-08-15T12:44:03Z</time>
      </trkpt>
      <trkpt lat="40.8273340" lon="0.2360110">
        <ele>557.0</ele>
        <time>2019-08-15T12:44:04Z</time>
      </trkpt>
      <trkpt lat="40.8273180" lon="0.2360130">
        <ele>557.0</ele>
        <time>2019-08-15T12:44:05Z</time>
      </trkpt>
      <trkpt lat="40.8273010" lon="0.2360140">
        <ele>557.0</ele>
        <time>2019-08-15T12:44:06Z</time>
      </trkpt>
      <trkpt lat="40.8272850" lon="0.2360150">
        <ele>557.0</ele>
        <time>2019-08-15T12:44:07Z</time>
      </trkpt>
      <trkpt lat="40.8272690" lon="0.2360130">
        <ele>557.0</ele>
        <time>2019-08-15T12:44:08Z</time>
      </trkpt>
      <trkpt lat="40.8272500" lon="0.2360090">
        <ele>557.0</ele>
        <time>2019-08-15T12:44:09Z</time>
      </trkpt>
      <trkpt lat="40.8272260" lon="0.2360090">
        <ele>557.0</ele>
        <time>2019-08-15T12:44:10Z</time>
      </trkpt>
      <trkpt lat="40.8272020" lon="0.2360090">
        <ele>557.0</ele>
        <time>2019-08-15T12:44:11Z</time>
      </trkpt>
      <trkpt lat="40.8271750" lon="0.2360100">
        <ele>557.0</ele>
        <time>2019-08-15T12:44:12Z</time>
      </trkpt>
      <trkpt lat="40.8271480" lon="0.2360080">
        <ele>558.0</ele>
        <time>2019-08-15T12:44:13Z</time>
      </trkpt>
      <trkpt lat="40.8271210" lon="0.2360060">
        <ele>558.0</ele>
        <time>2019-08-15T12:44:14Z</time>
      </trkpt>
      <trkpt lat="40.8270910" lon="0.2359990">
        <ele>558.0</ele>
        <time>2019-08-15T12:44:15Z</time>
      </trkpt>
      <trkpt lat="40.8270610" lon="0.2359930">
        <ele>558.0</ele>
        <time>2019-08-15T12:44:16Z</time>
      </trkpt>
      <trkpt lat="40.8270330" lon="0.2359940">
        <ele>558.0</ele>
        <time>2019-08-15T12:44:17Z</time>
      </trkpt>
      <trkpt lat="40.8270080" lon="0.2359910">
        <ele>558.0</ele>
        <time>2019-08-15T12:44:18Z</time>
      </trkpt>
      <trkpt lat="40.8269850" lon="0.2359840">
        <ele>558.0</ele>
        <time>2019-08-15T12:44:19Z</time>
      </trkpt>
      <trkpt lat="40.8269620" lon="0.2359810">
        <ele>558.0</ele>
        <time>2019-08-15T12:44:20Z</time>
      </trkpt>
      <trkpt lat="40.8269380" lon="0.2359770">
        <ele>558.0</ele>
        <time>2019-08-15T12:44:21Z</time>
      </trkpt>
      <trkpt lat="40.8269130" lon="0.2359720">
        <ele>558.0</ele>
        <time>2019-08-15T12:44:22Z</time>
      </trkpt>
      <trkpt lat="40.8268890" lon="0.2359690">
        <ele>558.0</ele>
        <time>2019-08-15T12:44:23Z</time>
      </trkpt>
      <trkpt lat="40.8268300" lon="0.2359670">
        <ele>558.0</ele>
        <time>2019-08-15T12:44:25Z</time>
      </trkpt>
      <trkpt lat="40.8267980" lon="0.2359640">
        <ele>558.0</ele>
        <time>2019-08-15T12:44:26Z</time>
      </trkpt>
      <trkpt lat="40.8267690" lon="0.2359600">
        <ele>558.0</ele>
        <time>2019-08-15T12:44:27Z</time>
      </trkpt>
      <trkpt lat="40.8266850" lon="0.2359430">
        <ele>558.0</ele>
        <time>2019-08-15T12:44:30Z</time>
      </trkpt>
      <trkpt lat="40.8266580" lon="0.2359380">
        <ele>558.0</ele>
        <time>2019-08-15T12:44:31Z</time>
      </trkpt>
      <trkpt lat="40.8266290" lon="0.2359300">
        <ele>558.0</ele>
        <time>2019-08-15T12:44:32Z</time>
      </trkpt>
      <trkpt lat="40.8265400" lon="0.2359090">
        <ele>558.0</ele>
        <time>2019-08-15T12:44:35Z</time>
      </trkpt>
      <trkpt lat="40.8265120" lon="0.2359040">
        <ele>558.0</ele>
        <time>2019-08-15T12:44:36Z</time>
      </trkpt>
      <trkpt lat="40.8264830" lon="0.2358980">
        <ele>557.0</ele>
        <time>2019-08-15T12:44:37Z</time>
      </trkpt>
      <trkpt lat="40.8264560" lon="0.2358970">
        <ele>557.0</ele>
        <time>2019-08-15T12:44:38Z</time>
      </trkpt>
      <trkpt lat="40.8263970" lon="0.2358970">
        <ele>557.0</ele>
        <time>2019-08-15T12:44:40Z</time>
      </trkpt>
      <trkpt lat="40.8263640" lon="0.2358970">
        <ele>557.0</ele>
        <time>2019-08-15T12:44:41Z</time>
      </trkpt>
      <trkpt lat="40.8263300" lon="0.2358960">
        <ele>557.0</ele>
        <time>2019-08-15T12:44:42Z</time>
      </trkpt>
      <trkpt lat="40.8262960" lon="0.2358920">
        <ele>557.0</ele>
        <time>2019-08-15T12:44:43Z</time>
      </trkpt>
      <trkpt lat="40.8262320" lon="0.2358920">
        <ele>557.0</ele>
        <time>2019-08-15T12:44:45Z</time>
      </trkpt>
      <trkpt lat="40.8262030" lon="0.2358930">
        <ele>557.0</ele>
        <time>2019-08-15T12:44:46Z</time>
      </trkpt>
      <trkpt lat="40.8261770" lon="0.2358920">
        <ele>557.0</ele>
        <time>2019-08-15T12:44:47Z</time>
      </trkpt>
      <trkpt lat="40.8261480" lon="0.2358930">
        <ele>557.0</ele>
        <time>2019-08-15T12:44:48Z</time>
      </trkpt>
      <trkpt lat="40.8260830" lon="0.2359200">
        <ele>557.0</ele>
        <time>2019-08-15T12:44:50Z</time>
      </trkpt>
      <trkpt lat="40.8260510" lon="0.2359340">
        <ele>557.0</ele>
        <time>2019-08-15T12:44:51Z</time>
      </trkpt>
      <trkpt lat="40.8260190" lon="0.2359560">
        <ele>557.0</ele>
        <time>2019-08-15T12:44:52Z</time>
      </trkpt>
      <trkpt lat="40.8259910" lon="0.2359810">
        <ele>557.0</ele>
        <time>2019-08-15T12:44:53Z</time>
      </trkpt>
      <trkpt lat="40.8259360" lon="0.2360410">
        <ele>557.0</ele>
        <time>2019-08-15T12:44:55Z</time>
      </trkpt>
      <trkpt lat="40.8259150" lon="0.2360760">
        <ele>557.0</ele>
        <time>2019-08-15T12:44:56Z</time>
      </trkpt>
      <trkpt lat="40.8258930" lon="0.2361050">
        <ele>557.0</ele>
        <time>2019-08-15T12:44:57Z</time>
      </trkpt>
      <trkpt lat="40.8258700" lon="0.2361370">
        <ele>557.0</ele>
        <time>2019-08-15T12:44:58Z</time>
      </trkpt>
      <trkpt lat="40.8258480" lon="0.2361710">
        <ele>557.0</ele>
        <time>2019-08-15T12:44:59Z</time>
      </trkpt>
      <trkpt lat="40.8258260" lon="0.2362050">
        <ele>557.0</ele>
        <time>2019-08-15T12:45:00Z</time>
      </trkpt>
      <trkpt lat="40.8258060" lon="0.2362380">
        <ele>557.0</ele>
        <time>2019-08-15T12:45:01Z</time>
      </trkpt>
      <trkpt lat="40.8257850" lon="0.2362710">
        <ele>557.0</ele>
        <time>2019-08-15T12:45:02Z</time>
      </trkpt>
      <trkpt lat="40.8257660" lon="0.2363060">
        <ele>557.0</ele>
        <time>2019-08-15T12:45:03Z</time>
      </trkpt>
      <trkpt lat="40.8257480" lon="0.2363460">
        <ele>557.0</ele>
        <time>2019-08-15T12:45:04Z</time>
      </trkpt>
      <trkpt lat="40.8257310" lon="0.2363850">
        <ele>557.0</ele>
        <time>2019-08-15T12:45:05Z</time>
      </trkpt>
      <trkpt lat="40.8257170" lon="0.2364210">
        <ele>557.0</ele>
        <time>2019-08-15T12:45:06Z</time>
      </trkpt>
      <trkpt lat="40.8257050" lon="0.2364560">
        <ele>557.0</ele>
        <time>2019-08-15T12:45:07Z</time>
      </trkpt>
      <trkpt lat="40.8256940" lon="0.2364890">
        <ele>557.0</ele>
        <time>2019-08-15T12:45:08Z</time>
      </trkpt>
      <trkpt lat="40.8256890" lon="0.2365220">
        <ele>557.0</ele>
        <time>2019-08-15T12:45:09Z</time>
      </trkpt>
      <trkpt lat="40.8256820" lon="0.2365570">
        <ele>557.0</ele>
        <time>2019-08-15T12:45:10Z</time>
      </trkpt>
      <trkpt lat="40.8256750" lon="0.2365860">
        <ele>557.0</ele>
        <time>2019-08-15T12:45:11Z</time>
      </trkpt>
      <trkpt lat="40.8256690" lon="0.2366110">
        <ele>557.0</ele>
        <time>2019-08-15T12:45:12Z</time>
      </trkpt>
      <trkpt lat="40.8256640" lon="0.2366370">
        <ele>557.0</ele>
        <time>2019-08-15T12:45:13Z</time>
      </trkpt>
      <trkpt lat="40.8256580" lon="0.2366670">
        <ele>557.0</ele>
        <time>2019-08-15T12:45:14Z</time>
      </trkpt>
      <trkpt lat="40.8256530" lon="0.2366980">
        <ele>557.0</ele>
        <time>2019-08-15T12:45:15Z</time>
      </trkpt>
      <trkpt lat="40.8256460" lon="0.2367280">
        <ele>557.0</ele>
        <time>2019-08-15T12:45:16Z</time>
      </trkpt>
      <trkpt lat="40.8256410" lon="0.2367610">
        <ele>557.0</ele>
        <time>2019-08-15T12:45:17Z</time>
      </trkpt>
      <trkpt lat="40.8256370" lon="0.2367950">
        <ele>557.0</ele>
        <time>2019-08-15T12:45:18Z</time>
      </trkpt>
      <trkpt lat="40.8256320" lon="0.2368310">
        <ele>557.0</ele>
        <time>2019-08-15T12:45:19Z</time>
      </trkpt>
      <trkpt lat="40.8256270" lon="0.2368660">
        <ele>557.0</ele>
        <time>2019-08-15T12:45:20Z</time>
      </trkpt>
      <trkpt lat="40.8256220" lon="0.2369000">
        <ele>557.0</ele>
        <time>2019-08-15T12:45:21Z</time>
      </trkpt>
      <trkpt lat="40.8256190" lon="0.2369320">
        <ele>557.0</ele>
        <time>2019-08-15T12:45:22Z</time>
      </trkpt>
      <trkpt lat="40.8256170" lon="0.2369630">
        <ele>557.0</ele>
        <time>2019-08-15T12:45:23Z</time>
      </trkpt>
      <trkpt lat="40.8256180" lon="0.2369940">
        <ele>557.0</ele>
        <time>2019-08-15T12:45:24Z</time>
      </trkpt>
      <trkpt lat="40.8256160" lon="0.2370260">
        <ele>557.0</ele>
        <time>2019-08-15T12:45:25Z</time>
      </trkpt>
      <trkpt lat="40.8256120" lon="0.2370570">
        <ele>557.0</ele>
        <time>2019-08-15T12:45:26Z</time>
      </trkpt>
      <trkpt lat="40.8256030" lon="0.2371190">
        <ele>557.0</ele>
        <time>2019-08-15T12:45:28Z</time>
      </trkpt>
      <trkpt lat="40.8255970" lon="0.2371520">
        <ele>557.0</ele>
        <time>2019-08-15T12:45:29Z</time>
      </trkpt>
      <trkpt lat="40.8255920" lon="0.2371850">
        <ele>557.0</ele>
        <time>2019-08-15T12:45:30Z</time>
      </trkpt>
      <trkpt lat="40.8255750" lon="0.2372890">
        <ele>558.0</ele>
        <time>2019-08-15T12:45:33Z</time>
      </trkpt>
      <trkpt lat="40.8255680" lon="0.2373180">
        <ele>558.0</ele>
        <time>2019-08-15T12:45:34Z</time>
      </trkpt>
      <trkpt lat="40.8255610" lon="0.2373430">
        <ele>558.0</ele>
        <time>2019-08-15T12:45:35Z</time>
      </trkpt>
      <trkpt lat="40.8255570" lon="0.2373680">
        <ele>558.0</ele>
        <time>2019-08-15T12:45:36Z</time>
      </trkpt>
      <trkpt lat="40.8255420" lon="0.2374120">
        <ele>558.0</ele>
        <time>2019-08-15T12:45:38Z</time>
      </trkpt>
      <trkpt lat="40.8255340" lon="0.2374350">
        <ele>558.0</ele>
        <time>2019-08-15T12:45:39Z</time>
      </trkpt>
      <trkpt lat="40.8255260" lon="0.2374590">
        <ele>558.0</ele>
        <time>2019-08-15T12:45:40Z</time>
      </trkpt>
      <trkpt lat="40.8255170" lon="0.2374820">
        <ele>558.0</ele>
        <time>2019-08-15T12:45:41Z</time>
      </trkpt>
      <trkpt lat="40.8254990" lon="0.2375300">
        <ele>558.0</ele>
        <time>2019-08-15T12:45:43Z</time>
      </trkpt>
      <trkpt lat="40.8254880" lon="0.2375520">
        <ele>558.0</ele>
        <time>2019-08-15T12:45:44Z</time>
      </trkpt>
      <trkpt lat="40.8254750" lon="0.2375730">
        <ele>559.0</ele>
        <time>2019-08-15T12:45:45Z</time>
      </trkpt>
      <trkpt lat="40.8254630" lon="0.2375940">
        <ele>559.0</ele>
        <time>2019-08-15T12:45:46Z</time>
      </trkpt>
      <trkpt lat="40.8254370" lon="0.2376380">
        <ele>559.0</ele>
        <time>2019-08-15T12:45:48Z</time>
      </trkpt>
      <trkpt lat="40.8254220" lon="0.2376600">
        <ele>559.0</ele>
        <time>2019-08-15T12:45:49Z</time>
      </trkpt>
      <trkpt lat="40.8254090" lon="0.2376810">
        <ele>559.0</ele>
        <time>2019-08-15T12:45:50Z</time>
      </trkpt>
      <trkpt lat="40.8253940" lon="0.2377020">
        <ele>559.0</ele>
        <time>2019-08-15T12:45:51Z</time>
      </trkpt>
      <trkpt lat="40.8253640" lon="0.2377400">
        <ele>559.0</ele>
        <time>2019-08-15T12:45:53Z</time>
      </trkpt>
      <trkpt lat="40.8253490" lon="0.2377600">
        <ele>559.0</ele>
        <time>2019-08-15T12:45:54Z</time>
      </trkpt>
      <trkpt lat="40.8253340" lon="0.2377770">
        <ele>559.0</ele>
        <time>2019-08-15T12:45:55Z</time>
      </trkpt>
      <trkpt lat="40.8253150" lon="0.2377930">
        <ele>559.0</ele>
        <time>2019-08-15T12:45:56Z</time>
      </trkpt>
      <trkpt lat="40.8252630" lon="0.2378250">
        <ele>559.0</ele>
        <time>2019-08-15T12:45:58Z</time>
      </trkpt>
      <trkpt lat="40.8252520" lon="0.2378300">
        <ele>559.0</ele>
        <time>2019-08-15T12:45:59Z</time>
      </trkpt>
      <trkpt lat="40.8252290" lon="0.2378460">
        <ele>559.0</ele>
        <time>2019-08-15T12:46:00Z</time>
      </trkpt>
      <trkpt lat="40.8252070" lon="0.2378630">
        <ele>559.0</ele>
        <time>2019-08-15T12:46:01Z</time>
      </trkpt>
      <trkpt lat="40.8251870" lon="0.2378780">
        <ele>559.0</ele>
        <time>2019-08-15T12:46:02Z</time>
      </trkpt>
      <trkpt lat="40.8251650" lon="0.2378880">
        <ele>559.0</ele>
        <time>2019-08-15T12:46:03Z</time>
      </trkpt>
      <trkpt lat="40.8251430" lon="0.2378940">
        <ele>559.0</ele>
        <time>2019-08-15T12:46:04Z</time>
      </trkpt>
      <trkpt lat="40.8251190" lon="0.2379010">
        <ele>559.0</ele>
        <time>2019-08-15T12:46:05Z</time>
      </trkpt>
      <trkpt lat="40.8250960" lon="0.2379080">
        <ele>559.0</ele>
        <time>2019-08-15T12:46:06Z</time>
      </trkpt>
      <trkpt lat="40.8250730" lon="0.2379080">
        <ele>559.0</ele>
        <time>2019-08-15T12:46:07Z</time>
      </trkpt>
      <trkpt lat="40.8250510" lon="0.2379070">
        <ele>559.0</ele>
        <time>2019-08-15T12:46:08Z</time>
      </trkpt>
      <trkpt lat="40.8250280" lon="0.2379070">
        <ele>559.0</ele>
        <time>2019-08-15T12:46:09Z</time>
      </trkpt>
      <trkpt lat="40.8250060" lon="0.2379050">
        <ele>559.0</ele>
        <time>2019-08-15T12:46:10Z</time>
      </trkpt>
      <trkpt lat="40.8249830" lon="0.2379020">
        <ele>559.0</ele>
        <time>2019-08-15T12:46:11Z</time>
      </trkpt>
      <trkpt lat="40.8249590" lon="0.2378980">
        <ele>559.0</ele>
        <time>2019-08-15T12:46:12Z</time>
      </trkpt>
      <trkpt lat="40.8249340" lon="0.2378940">
        <ele>559.0</ele>
        <time>2019-08-15T12:46:13Z</time>
      </trkpt>
      <trkpt lat="40.8249090" lon="0.2378890">
        <ele>559.0</ele>
        <time>2019-08-15T12:46:14Z</time>
      </trkpt>
      <trkpt lat="40.8248850" lon="0.2378810">
        <ele>559.0</ele>
        <time>2019-08-15T12:46:15Z</time>
      </trkpt>
      <trkpt lat="40.8248650" lon="0.2378720">
        <ele>559.0</ele>
        <time>2019-08-15T12:46:16Z</time>
      </trkpt>
      <trkpt lat="40.8248440" lon="0.2378660">
        <ele>559.0</ele>
        <time>2019-08-15T12:46:17Z</time>
      </trkpt>
      <trkpt lat="40.8248260" lon="0.2378590">
        <ele>559.0</ele>
        <time>2019-08-15T12:46:18Z</time>
      </trkpt>
      <trkpt lat="40.8248070" lon="0.2378570">
        <ele>559.0</ele>
        <time>2019-08-15T12:46:19Z</time>
      </trkpt>
      <trkpt lat="40.8247890" lon="0.2378550">
        <ele>559.0</ele>
        <time>2019-08-15T12:46:20Z</time>
      </trkpt>
      <trkpt lat="40.8247740" lon="0.2378510">
        <ele>559.0</ele>
        <time>2019-08-15T12:46:21Z</time>
      </trkpt>
      <trkpt lat="40.8247640" lon="0.2378450">
        <ele>559.0</ele>
        <time>2019-08-15T12:46:22Z</time>
      </trkpt>
      <trkpt lat="40.8247540" lon="0.2378400">
        <ele>559.0</ele>
        <time>2019-08-15T12:46:23Z</time>
      </trkpt>
      <trkpt lat="40.8247400" lon="0.2378350">
        <ele>560.0</ele>
        <time>2019-08-15T12:46:24Z</time>
      </trkpt>
      <trkpt lat="40.8247260" lon="0.2378240">
        <ele>560.0</ele>
        <time>2019-08-15T12:46:25Z</time>
      </trkpt>
      <trkpt lat="40.8247140" lon="0.2378060">
        <ele>560.0</ele>
        <time>2019-08-15T12:46:26Z</time>
      </trkpt>
      <trkpt lat="40.8247050" lon="0.2377840">
        <ele>560.0</ele>
        <time>2019-08-15T12:46:27Z</time>
      </trkpt>
      <trkpt lat="40.8246950" lon="0.2377660">
        <ele>560.0</ele>
        <time>2019-08-15T12:46:28Z</time>
      </trkpt>
      <trkpt lat="40.8246880" lon="0.2377460">
        <ele>560.0</ele>
        <time>2019-08-15T12:46:29Z</time>
      </trkpt>
      <trkpt lat="40.8246840" lon="0.2377240">
        <ele>560.0</ele>
        <time>2019-08-15T12:46:30Z</time>
      </trkpt>
      <trkpt lat="40.8246790" lon="0.2377010">
        <ele>560.0</ele>
        <time>2019-08-15T12:46:31Z</time>
      </trkpt>
      <trkpt lat="40.8246780" lon="0.2376760">
        <ele>560.0</ele>
        <time>2019-08-15T12:46:32Z</time>
      </trkpt>
      <trkpt lat="40.8246740" lon="0.2376530">
        <ele>560.0</ele>
        <time>2019-08-15T12:46:33Z</time>
      </trkpt>
      <trkpt lat="40.8246690" lon="0.2376310">
        <ele>560.0</ele>
        <time>2019-08-15T12:46:34Z</time>
      </trkpt>
      <trkpt lat="40.8246600" lon="0.2376080">
        <ele>560.0</ele>
        <time>2019-08-15T12:46:35Z</time>
      </trkpt>
      <trkpt lat="40.8246490" lon="0.2375820">
        <ele>560.0</ele>
        <time>2019-08-15T12:46:36Z</time>
      </trkpt>
      <trkpt lat="40.8246370" lon="0.2375620">
        <ele>561.0</ele>
        <time>2019-08-15T12:46:37Z</time>
      </trkpt>
      <trkpt lat="40.8246250" lon="0.2375470">
        <ele>561.0</ele>
        <time>2019-08-15T12:46:38Z</time>
      </trkpt>
      <trkpt lat="40.8246100" lon="0.2375330">
        <ele>561.0</ele>
        <time>2019-08-15T12:46:39Z</time>
      </trkpt>
      <trkpt lat="40.8245920" lon="0.2375210">
        <ele>561.0</ele>
        <time>2019-08-15T12:46:40Z</time>
      </trkpt>
      <trkpt lat="40.8245720" lon="0.2375120">
        <ele>561.0</ele>
        <time>2019-08-15T12:46:41Z</time>
      </trkpt>
      <trkpt lat="40.8245550" lon="0.2375030">
        <ele>561.0</ele>
        <time>2019-08-15T12:46:42Z</time>
      </trkpt>
      <trkpt lat="40.8245370" lon="0.2374930">
        <ele>561.0</ele>
        <time>2019-08-15T12:46:43Z</time>
      </trkpt>
      <trkpt lat="40.8245190" lon="0.2374870">
        <ele>561.0</ele>
        <time>2019-08-15T12:46:44Z</time>
      </trkpt>
      <trkpt lat="40.8245000" lon="0.2374830">
        <ele>561.0</ele>
        <time>2019-08-15T12:46:45Z</time>
      </trkpt>
      <trkpt lat="40.8244770" lon="0.2374810">
        <ele>561.0</ele>
        <time>2019-08-15T12:46:46Z</time>
      </trkpt>
      <trkpt lat="40.8243980" lon="0.2374930">
        <ele>561.0</ele>
        <time>2019-08-15T12:46:49Z</time>
      </trkpt>
      <trkpt lat="40.8243670" lon="0.2375040">
        <ele>561.0</ele>
        <time>2019-08-15T12:46:50Z</time>
      </trkpt>
      <trkpt lat="40.8243400" lon="0.2375130">
        <ele>561.0</ele>
        <time>2019-08-15T12:46:51Z</time>
      </trkpt>
      <trkpt lat="40.8242990" lon="0.2375330">
        <ele>561.0</ele>
        <time>2019-08-15T12:46:53Z</time>
      </trkpt>
      <trkpt lat="40.8242760" lon="0.2375480">
        <ele>561.0</ele>
        <time>2019-08-15T12:46:54Z</time>
      </trkpt>
      <trkpt lat="40.8242540" lon="0.2375650">
        <ele>561.0</ele>
        <time>2019-08-15T12:46:55Z</time>
      </trkpt>
      <trkpt lat="40.8242380" lon="0.2375840">
        <ele>561.0</ele>
        <time>2019-08-15T12:46:56Z</time>
      </trkpt>
      <trkpt lat="40.8242190" lon="0.2376040">
        <ele>561.0</ele>
        <time>2019-08-15T12:46:57Z</time>
      </trkpt>
      <trkpt lat="40.8242020" lon="0.2376240">
        <ele>561.0</ele>
        <time>2019-08-15T12:46:58Z</time>
      </trkpt>
      <trkpt lat="40.8241870" lon="0.2376460">
        <ele>561.0</ele>
        <time>2019-08-15T12:46:59Z</time>
      </trkpt>
      <trkpt lat="40.8241730" lon="0.2376650">
        <ele>561.0</ele>
        <time>2019-08-15T12:47:00Z</time>
      </trkpt>
      <trkpt lat="40.8241590" lon="0.2376840">
        <ele>561.0</ele>
        <time>2019-08-15T12:47:01Z</time>
      </trkpt>
      <trkpt lat="40.8241490" lon="0.2377060">
        <ele>561.0</ele>
        <time>2019-08-15T12:47:02Z</time>
      </trkpt>
      <trkpt lat="40.8241410" lon="0.2377290">
        <ele>561.0</ele>
        <time>2019-08-15T12:47:03Z</time>
      </trkpt>
      <trkpt lat="40.8241390" lon="0.2377520">
        <ele>561.0</ele>
        <time>2019-08-15T12:47:04Z</time>
      </trkpt>
      <trkpt lat="40.8241370" lon="0.2377750">
        <ele>561.0</ele>
        <time>2019-08-15T12:47:05Z</time>
      </trkpt>
      <trkpt lat="40.8241350" lon="0.2377990">
        <ele>561.0</ele>
        <time>2019-08-15T12:47:06Z</time>
      </trkpt>
      <trkpt lat="40.8241310" lon="0.2378250">
        <ele>561.0</ele>
        <time>2019-08-15T12:47:07Z</time>
      </trkpt>
      <trkpt lat="40.8241250" lon="0.2378520">
        <ele>561.0</ele>
        <time>2019-08-15T12:47:08Z</time>
      </trkpt>
      <trkpt lat="40.8241220" lon="0.2378770">
        <ele>561.0</ele>
        <time>2019-08-15T12:47:09Z</time>
      </trkpt>
      <trkpt lat="40.8241190" lon="0.2379040">
        <ele>561.0</ele>
        <time>2019-08-15T12:47:10Z</time>
      </trkpt>
      <trkpt lat="40.8241130" lon="0.2379290">
        <ele>561.0</ele>
        <time>2019-08-15T12:47:11Z</time>
      </trkpt>
      <trkpt lat="40.8241090" lon="0.2379530">
        <ele>561.0</ele>
        <time>2019-08-15T12:47:12Z</time>
      </trkpt>
      <trkpt lat="40.8241060" lon="0.2379790">
        <ele>561.0</ele>
        <time>2019-08-15T12:47:13Z</time>
      </trkpt>
      <trkpt lat="40.8241030" lon="0.2380060">
        <ele>561.0</ele>
        <time>2019-08-15T12:47:14Z</time>
      </trkpt>
      <trkpt lat="40.8241020" lon="0.2380340">
        <ele>561.0</ele>
        <time>2019-08-15T12:47:15Z</time>
      </trkpt>
      <trkpt lat="40.8241020" lon="0.2380590">
        <ele>561.0</ele>
        <time>2019-08-15T12:47:16Z</time>
      </trkpt>
      <trkpt lat="40.8241010" lon="0.2380820">
        <ele>561.0</ele>
        <time>2019-08-15T12:47:17Z</time>
      </trkpt>
      <trkpt lat="40.8241000" lon="0.2381080">
        <ele>561.0</ele>
        <time>2019-08-15T12:47:18Z</time>
      </trkpt>
      <trkpt lat="40.8241000" lon="0.2381410">
        <ele>561.0</ele>
        <time>2019-08-15T12:47:19Z</time>
      </trkpt>
      <trkpt lat="40.8241010" lon="0.2381760">
        <ele>561.0</ele>
        <time>2019-08-15T12:47:20Z</time>
      </trkpt>
      <trkpt lat="40.8241060" lon="0.2382070">
        <ele>561.0</ele>
        <time>2019-08-15T12:47:21Z</time>
      </trkpt>
      <trkpt lat="40.8241080" lon="0.2382300">
        <ele>561.0</ele>
        <time>2019-08-15T12:47:22Z</time>
      </trkpt>
      <trkpt lat="40.8241110" lon="0.2382550">
        <ele>561.0</ele>
        <time>2019-08-15T12:47:23Z</time>
      </trkpt>
      <trkpt lat="40.8241140" lon="0.2382820">
        <ele>561.0</ele>
        <time>2019-08-15T12:47:24Z</time>
      </trkpt>
      <trkpt lat="40.8241180" lon="0.2383100">
        <ele>561.0</ele>
        <time>2019-08-15T12:47:25Z</time>
      </trkpt>
      <trkpt lat="40.8241200" lon="0.2383360">
        <ele>561.0</ele>
        <time>2019-08-15T12:47:26Z</time>
      </trkpt>
      <trkpt lat="40.8241220" lon="0.2383620">
        <ele>561.0</ele>
        <time>2019-08-15T12:47:27Z</time>
      </trkpt>
      <trkpt lat="40.8241250" lon="0.2383880">
        <ele>561.0</ele>
        <time>2019-08-15T12:47:28Z</time>
      </trkpt>
      <trkpt lat="40.8241280" lon="0.2384150">
        <ele>561.0</ele>
        <time>2019-08-15T12:47:29Z</time>
      </trkpt>
      <trkpt lat="40.8241320" lon="0.2384420">
        <ele>561.0</ele>
        <time>2019-08-15T12:47:30Z</time>
      </trkpt>
      <trkpt lat="40.8241450" lon="0.2385000">
        <ele>561.0</ele>
        <time>2019-08-15T12:47:32Z</time>
      </trkpt>
      <trkpt lat="40.8241510" lon="0.2385300">
        <ele>561.0</ele>
        <time>2019-08-15T12:47:33Z</time>
      </trkpt>
      <trkpt lat="40.8241570" lon="0.2385630">
        <ele>561.0</ele>
        <time>2019-08-15T12:47:34Z</time>
      </trkpt>
      <trkpt lat="40.8241750" lon="0.2386630">
        <ele>561.0</ele>
        <time>2019-08-15T12:47:37Z</time>
      </trkpt>
      <trkpt lat="40.8241800" lon="0.2386970">
        <ele>561.0</ele>
        <time>2019-08-15T12:47:38Z</time>
      </trkpt>
      <trkpt lat="40.8241890" lon="0.2387280">
        <ele>561.0</ele>
        <time>2019-08-15T12:47:39Z</time>
      </trkpt>
      <trkpt lat="40.8242120" lon="0.2388170">
        <ele>561.0</ele>
        <time>2019-08-15T12:47:42Z</time>
      </trkpt>
      <trkpt lat="40.8242190" lon="0.2388470">
        <ele>561.0</ele>
        <time>2019-08-15T12:47:43Z</time>
      </trkpt>
      <trkpt lat="40.8242260" lon="0.2388760">
        <ele>561.0</ele>
        <time>2019-08-15T12:47:44Z</time>
      </trkpt>
      <trkpt lat="40.8242340" lon="0.2389030">
        <ele>561.0</ele>
        <time>2019-08-15T12:47:45Z</time>
      </trkpt>
      <trkpt lat="40.8242450" lon="0.2389590">
        <ele>561.0</ele>
        <time>2019-08-15T12:47:47Z</time>
      </trkpt>
      <trkpt lat="40.8242520" lon="0.2389880">
        <ele>561.0</ele>
        <time>2019-08-15T12:47:48Z</time>
      </trkpt>
      <trkpt lat="40.8242610" lon="0.2390210">
        <ele>561.0</ele>
        <time>2019-08-15T12:47:49Z</time>
      </trkpt>
      <trkpt lat="40.8242680" lon="0.2390520">
        <ele>561.0</ele>
        <time>2019-08-15T12:47:50Z</time>
      </trkpt>
      <trkpt lat="40.8242810" lon="0.2391150">
        <ele>561.0</ele>
        <time>2019-08-15T12:47:52Z</time>
      </trkpt>
      <trkpt lat="40.8242870" lon="0.2391450">
        <ele>561.0</ele>
        <time>2019-08-15T12:47:53Z</time>
      </trkpt>
      <trkpt lat="40.8242940" lon="0.2391760">
        <ele>561.0</ele>
        <time>2019-08-15T12:47:54Z</time>
      </trkpt>
      <trkpt lat="40.8243010" lon="0.2392060">
        <ele>561.0</ele>
        <time>2019-08-15T12:47:55Z</time>
      </trkpt>
      <trkpt lat="40.8243170" lon="0.2392660">
        <ele>561.0</ele>
        <time>2019-08-15T12:47:57Z</time>
      </trkpt>
      <trkpt lat="40.8243240" lon="0.2392930">
        <ele>561.0</ele>
        <time>2019-08-15T12:47:58Z</time>
      </trkpt>
      <trkpt lat="40.8243320" lon="0.2393200">
        <ele>561.0</ele>
        <time>2019-08-15T12:47:59Z</time>
      </trkpt>
      <trkpt lat="40.8243390" lon="0.2393440">
        <ele>561.0</ele>
        <time>2019-08-15T12:48:00Z</time>
      </trkpt>
      <trkpt lat="40.8243430" lon="0.2393960">
        <ele>561.0</ele>
        <time>2019-08-15T12:48:02Z</time>
      </trkpt>
      <trkpt lat="40.8243430" lon="0.2394210">
        <ele>562.0</ele>
        <time>2019-08-15T12:48:03Z</time>
      </trkpt>
      <trkpt lat="40.8243430" lon="0.2394450">
        <ele>562.0</ele>
        <time>2019-08-15T12:48:04Z</time>
      </trkpt>
      <trkpt lat="40.8243420" lon="0.2394700">
        <ele>562.0</ele>
        <time>2019-08-15T12:48:05Z</time>
      </trkpt>
      <trkpt lat="40.8243340" lon="0.2395170">
        <ele>562.0</ele>
        <time>2019-08-15T12:48:07Z</time>
      </trkpt>
      <trkpt lat="40.8243270" lon="0.2395400">
        <ele>562.0</ele>
        <time>2019-08-15T12:48:08Z</time>
      </trkpt>
      <trkpt lat="40.8243180" lon="0.2395620">
        <ele>562.0</ele>
        <time>2019-08-15T12:48:09Z</time>
      </trkpt>
      <trkpt lat="40.8243090" lon="0.2395820">
        <ele>562.0</ele>
        <time>2019-08-15T12:48:10Z</time>
      </trkpt>
      <trkpt lat="40.8242860" lon="0.2396240">
        <ele>562.0</ele>
        <time>2019-08-15T12:48:12Z</time>
      </trkpt>
      <trkpt lat="40.8242760" lon="0.2396440">
        <ele>563.0</ele>
        <time>2019-08-15T12:48:13Z</time>
      </trkpt>
      <trkpt lat="40.8242660" lon="0.2396630">
        <ele>563.0</ele>
        <time>2019-08-15T12:48:14Z</time>
      </trkpt>
      <trkpt lat="40.8242540" lon="0.2396810">
        <ele>563.0</ele>
        <time>2019-08-15T12:48:15Z</time>
      </trkpt>
      <trkpt lat="40.8242410" lon="0.2397000">
        <ele>563.0</ele>
        <time>2019-08-15T12:48:16Z</time>
      </trkpt>
      <trkpt lat="40.8242250" lon="0.2397180">
        <ele>563.0</ele>
        <time>2019-08-15T12:48:17Z</time>
      </trkpt>
      <trkpt lat="40.8242090" lon="0.2397350">
        <ele>563.0</ele>
        <time>2019-08-15T12:48:18Z</time>
      </trkpt>
      <trkpt lat="40.8241920" lon="0.2397520">
        <ele>563.0</ele>
        <time>2019-08-15T12:48:19Z</time>
      </trkpt>
      <trkpt lat="40.8241780" lon="0.2397680">
        <ele>563.0</ele>
        <time>2019-08-15T12:48:20Z</time>
      </trkpt>
      <trkpt lat="40.8241620" lon="0.2397840">
        <ele>563.0</ele>
        <time>2019-08-15T12:48:21Z</time>
      </trkpt>
      <trkpt lat="40.8241470" lon="0.2398000">
        <ele>563.0</ele>
        <time>2019-08-15T12:48:22Z</time>
      </trkpt>
      <trkpt lat="40.8241350" lon="0.2398160">
        <ele>563.0</ele>
        <time>2019-08-15T12:48:23Z</time>
      </trkpt>
      <trkpt lat="40.8241230" lon="0.2398340">
        <ele>563.0</ele>
        <time>2019-08-15T12:48:24Z</time>
      </trkpt>
      <trkpt lat="40.8241100" lon="0.2398550">
        <ele>563.0</ele>
        <time>2019-08-15T12:48:25Z</time>
      </trkpt>
      <trkpt lat="40.8240950" lon="0.2398720">
        <ele>563.0</ele>
        <time>2019-08-15T12:48:26Z</time>
      </trkpt>
      <trkpt lat="40.8240790" lon="0.2398840">
        <ele>563.0</ele>
        <time>2019-08-15T12:48:27Z</time>
      </trkpt>
      <trkpt lat="40.8240600" lon="0.2398980">
        <ele>563.0</ele>
        <time>2019-08-15T12:48:28Z</time>
      </trkpt>
      <trkpt lat="40.8240390" lon="0.2399150">
        <ele>563.0</ele>
        <time>2019-08-15T12:48:29Z</time>
      </trkpt>
      <trkpt lat="40.8240180" lon="0.2399330">
        <ele>563.0</ele>
        <time>2019-08-15T12:48:30Z</time>
      </trkpt>
      <trkpt lat="40.8239990" lon="0.2399460">
        <ele>563.0</ele>
        <time>2019-08-15T12:48:31Z</time>
      </trkpt>
      <trkpt lat="40.8239770" lon="0.2399580">
        <ele>563.0</ele>
        <time>2019-08-15T12:48:32Z</time>
      </trkpt>
      <trkpt lat="40.8239580" lon="0.2399710">
        <ele>564.0</ele>
        <time>2019-08-15T12:48:33Z</time>
      </trkpt>
      <trkpt lat="40.8239410" lon="0.2399830">
        <ele>564.0</ele>
        <time>2019-08-15T12:48:34Z</time>
      </trkpt>
      <trkpt lat="40.8239250" lon="0.2399940">
        <ele>564.0</ele>
        <time>2019-08-15T12:48:35Z</time>
      </trkpt>
      <trkpt lat="40.8238870" lon="0.2400140">
        <ele>564.0</ele>
        <time>2019-08-15T12:48:37Z</time>
      </trkpt>
      <trkpt lat="40.8238650" lon="0.2400220">
        <ele>564.0</ele>
        <time>2019-08-15T12:48:38Z</time>
      </trkpt>
      <trkpt lat="40.8238450" lon="0.2400310">
        <ele>564.0</ele>
        <time>2019-08-15T12:48:39Z</time>
      </trkpt>
      <trkpt lat="40.8237830" lon="0.2400520">
        <ele>564.0</ele>
        <time>2019-08-15T12:48:42Z</time>
      </trkpt>
      <trkpt lat="40.8237620" lon="0.2400540">
        <ele>564.0</ele>
        <time>2019-08-15T12:48:43Z</time>
      </trkpt>
      <trkpt lat="40.8237410" lon="0.2400610">
        <ele>564.0</ele>
        <time>2019-08-15T12:48:44Z</time>
      </trkpt>
      <trkpt lat="40.8237230" lon="0.2400670">
        <ele>564.0</ele>
        <time>2019-08-15T12:48:45Z</time>
      </trkpt>
      <trkpt lat="40.8236860" lon="0.2400730">
        <ele>564.0</ele>
        <time>2019-08-15T12:48:47Z</time>
      </trkpt>
      <trkpt lat="40.8236690" lon="0.2400760">
        <ele>564.0</ele>
        <time>2019-08-15T12:48:48Z</time>
      </trkpt>
      <trkpt lat="40.8236510" lon="0.2400800">
        <ele>563.0</ele>
        <time>2019-08-15T12:48:49Z</time>
      </trkpt>
      <trkpt lat="40.8235930" lon="0.2400880">
        <ele>563.0</ele>
        <time>2019-08-15T12:48:52Z</time>
      </trkpt>
      <trkpt lat="40.8235740" lon="0.2400900">
        <ele>563.0</ele>
        <time>2019-08-15T12:48:53Z</time>
      </trkpt>
      <trkpt lat="40.8235520" lon="0.2400930">
        <ele>564.0</ele>
        <time>2019-08-15T12:48:54Z</time>
      </trkpt>
      <trkpt lat="40.8234860" lon="0.2401000">
        <ele>564.0</ele>
        <time>2019-08-15T12:48:57Z</time>
      </trkpt>
      <trkpt lat="40.8234620" lon="0.2401000">
        <ele>564.0</ele>
        <time>2019-08-15T12:48:58Z</time>
      </trkpt>
      <trkpt lat="40.8234360" lon="0.2400990">
        <ele>564.0</ele>
        <time>2019-08-15T12:48:59Z</time>
      </trkpt>
      <trkpt lat="40.8234120" lon="0.2401030">
        <ele>564.0</ele>
        <time>2019-08-15T12:49:00Z</time>
      </trkpt>
      <trkpt lat="40.8233640" lon="0.2401180">
        <ele>564.0</ele>
        <time>2019-08-15T12:49:02Z</time>
      </trkpt>
      <trkpt lat="40.8233400" lon="0.2401250">
        <ele>564.0</ele>
        <time>2019-08-15T12:49:03Z</time>
      </trkpt>
      <trkpt lat="40.8233160" lon="0.2401320">
        <ele>564.0</ele>
        <time>2019-08-15T12:49:04Z</time>
      </trkpt>
      <trkpt lat="40.8232930" lon="0.2401380">
        <ele>564.0</ele>
        <time>2019-08-15T12:49:05Z</time>
      </trkpt>
      <trkpt lat="40.8232530" lon="0.2401530">
        <ele>564.0</ele>
        <time>2019-08-15T12:49:07Z</time>
      </trkpt>
      <trkpt lat="40.8232350" lon="0.2401580">
        <ele>564.0</ele>
        <time>2019-08-15T12:49:08Z</time>
      </trkpt>
      <trkpt lat="40.8232160" lon="0.2401600">
        <ele>564.0</ele>
        <time>2019-08-15T12:49:09Z</time>
      </trkpt>
      <trkpt lat="40.8231970" lon="0.2401640">
        <ele>564.0</ele>
        <time>2019-08-15T12:49:10Z</time>
      </trkpt>
      <trkpt lat="40.8231520" lon="0.2401680">
        <ele>564.0</ele>
        <time>2019-08-15T12:49:12Z</time>
      </trkpt>
      <trkpt lat="40.8231270" lon="0.2401720">
        <ele>564.0</ele>
        <time>2019-08-15T12:49:13Z</time>
      </trkpt>
      <trkpt lat="40.8231050" lon="0.2401770">
        <ele>564.0</ele>
        <time>2019-08-15T12:49:14Z</time>
      </trkpt>
      <trkpt lat="40.8230810" lon="0.2401820">
        <ele>564.0</ele>
        <time>2019-08-15T12:49:15Z</time>
      </trkpt>
      <trkpt lat="40.8230350" lon="0.2401870">
        <ele>564.0</ele>
        <time>2019-08-15T12:49:17Z</time>
      </trkpt>
      <trkpt lat="40.8230150" lon="0.2401870">
        <ele>564.0</ele>
        <time>2019-08-15T12:49:18Z</time>
      </trkpt>
      <trkpt lat="40.8229940" lon="0.2401890">
        <ele>564.0</ele>
        <time>2019-08-15T12:49:19Z</time>
      </trkpt>
      <trkpt lat="40.8229740" lon="0.2401880">
        <ele>564.0</ele>
        <time>2019-08-15T12:49:20Z</time>
      </trkpt>
      <trkpt lat="40.8229370" lon="0.2401880">
        <ele>564.0</ele>
        <time>2019-08-15T12:49:22Z</time>
      </trkpt>
      <trkpt lat="40.8229200" lon="0.2401910">
        <ele>564.0</ele>
        <time>2019-08-15T12:49:23Z</time>
      </trkpt>
      <trkpt lat="40.8228970" lon="0.2401960">
        <ele>564.0</ele>
        <time>2019-08-15T12:49:24Z</time>
      </trkpt>
      <trkpt lat="40.8228900" lon="0.2401980">
        <ele>564.0</ele>
        <time>2019-08-15T12:49:25Z</time>
      </trkpt>
      <trkpt lat="40.8228540" lon="0.2402200">
        <ele>564.0</ele>
        <time>2019-08-15T12:49:27Z</time>
      </trkpt>
      <trkpt lat="40.8228470" lon="0.2402240">
        <ele>564.0</ele>
        <time>2019-08-15T12:49:28Z</time>
      </trkpt>
      <trkpt lat="40.8228390" lon="0.2402270">
        <ele>564.0</ele>
        <time>2019-08-15T12:49:29Z</time>
      </trkpt>
      <trkpt lat="40.8228320" lon="0.2402310">
        <ele>564.0</ele>
        <time>2019-08-15T12:49:30Z</time>
      </trkpt>
      <trkpt lat="40.8227440" lon="0.2402180">
        <ele>565.0</ele>
        <time>2019-08-15T12:50:02Z</time>
      </trkpt>
      <trkpt lat="40.8227030" lon="0.2402170">
        <ele>565.0</ele>
        <time>2019-08-15T12:50:06Z</time>
      </trkpt>
      <trkpt lat="40.8226890" lon="0.2402120">
        <ele>565.0</ele>
        <time>2019-08-15T12:50:07Z</time>
      </trkpt>
      <trkpt lat="40.8226750" lon="0.2402030">
        <ele>565.0</ele>
        <time>2019-08-15T12:50:08Z</time>
      </trkpt>
      <trkpt lat="40.8226620" lon="0.2402010">
        <ele>565.0</ele>
        <time>2019-08-15T12:50:09Z</time>
      </trkpt>
      <trkpt lat="40.8226490" lon="0.2402020">
        <ele>565.0</ele>
        <time>2019-08-15T12:50:10Z</time>
      </trkpt>
      <trkpt lat="40.8226360" lon="0.2402030">
        <ele>565.0</ele>
        <time>2019-08-15T12:50:11Z</time>
      </trkpt>
      <trkpt lat="40.8226220" lon="0.2402050">
        <ele>566.0</ele>
        <time>2019-08-15T12:50:12Z</time>
      </trkpt>
      <trkpt lat="40.8226070" lon="0.2402030">
        <ele>566.0</ele>
        <time>2019-08-15T12:50:13Z</time>
      </trkpt>
      <trkpt lat="40.8225910" lon="0.2401980">
        <ele>566.0</ele>
        <time>2019-08-15T12:50:14Z</time>
      </trkpt>
      <trkpt lat="40.8225740" lon="0.2401890">
        <ele>566.0</ele>
        <time>2019-08-15T12:50:15Z</time>
      </trkpt>
      <trkpt lat="40.8225580" lon="0.2401800">
        <ele>566.0</ele>
        <time>2019-08-15T12:50:16Z</time>
      </trkpt>
      <trkpt lat="40.8225430" lon="0.2401670">
        <ele>566.0</ele>
        <time>2019-08-15T12:50:17Z</time>
      </trkpt>
      <trkpt lat="40.8225240" lon="0.2401540">
        <ele>566.0</ele>
        <time>2019-08-15T12:50:18Z</time>
      </trkpt>
      <trkpt lat="40.8225080" lon="0.2401400">
        <ele>566.0</ele>
        <time>2019-08-15T12:50:19Z</time>
      </trkpt>
      <trkpt lat="40.8224950" lon="0.2401280">
        <ele>566.0</ele>
        <time>2019-08-15T12:50:20Z</time>
      </trkpt>
      <trkpt lat="40.8224800" lon="0.2401150">
        <ele>566.0</ele>
        <time>2019-08-15T12:50:21Z</time>
      </trkpt>
      <trkpt lat="40.8224640" lon="0.2400990">
        <ele>567.0</ele>
        <time>2019-08-15T12:50:22Z</time>
      </trkpt>
      <trkpt lat="40.8224490" lon="0.2400810">
        <ele>567.0</ele>
        <time>2019-08-15T12:50:23Z</time>
      </trkpt>
      <trkpt lat="40.8224310" lon="0.2400670">
        <ele>567.0</ele>
        <time>2019-08-15T12:50:24Z</time>
      </trkpt>
      <trkpt lat="40.8224150" lon="0.2400530">
        <ele>567.0</ele>
        <time>2019-08-15T12:50:25Z</time>
      </trkpt>
      <trkpt lat="40.8223990" lon="0.2400370">
        <ele>567.0</ele>
        <time>2019-08-15T12:50:26Z</time>
      </trkpt>
      <trkpt lat="40.8223800" lon="0.2400210">
        <ele>567.0</ele>
        <time>2019-08-15T12:50:27Z</time>
      </trkpt>
      <trkpt lat="40.8223610" lon="0.2400050">
        <ele>567.0</ele>
        <time>2019-08-15T12:50:28Z</time>
      </trkpt>
      <trkpt lat="40.8223430" lon="0.2399890">
        <ele>567.0</ele>
        <time>2019-08-15T12:50:29Z</time>
      </trkpt>
      <trkpt lat="40.8223230" lon="0.2399730">
        <ele>567.0</ele>
        <time>2019-08-15T12:50:30Z</time>
      </trkpt>
      <trkpt lat="40.8223030" lon="0.2399560">
        <ele>567.0</ele>
        <time>2019-08-15T12:50:31Z</time>
      </trkpt>
      <trkpt lat="40.8222660" lon="0.2399310">
        <ele>567.0</ele>
        <time>2019-08-15T12:50:33Z</time>
      </trkpt>
      <trkpt lat="40.8222480" lon="0.2399170">
        <ele>567.0</ele>
        <time>2019-08-15T12:50:34Z</time>
      </trkpt>
      <trkpt lat="40.8222350" lon="0.2399070">
        <ele>567.0</ele>
        <time>2019-08-15T12:50:35Z</time>
      </trkpt>
      <trkpt lat="40.8221880" lon="0.2398750">
        <ele>567.0</ele>
        <time>2019-08-15T12:50:38Z</time>
      </trkpt>
      <trkpt lat="40.8221700" lon="0.2398640">
        <ele>567.0</ele>
        <time>2019-08-15T12:50:39Z</time>
      </trkpt>
      <trkpt lat="40.8221520" lon="0.2398580">
        <ele>567.0</ele>
        <time>2019-08-15T12:50:40Z</time>
      </trkpt>
      <trkpt lat="40.8221060" lon="0.2398480">
        <ele>567.0</ele>
        <time>2019-08-15T12:50:43Z</time>
      </trkpt>
      <trkpt lat="40.8220890" lon="0.2398440">
        <ele>567.0</ele>
        <time>2019-08-15T12:50:44Z</time>
      </trkpt>
      <trkpt lat="40.8220720" lon="0.2398420">
        <ele>567.0</ele>
        <time>2019-08-15T12:50:45Z</time>
      </trkpt>
      <trkpt lat="40.8220550" lon="0.2398430">
        <ele>567.0</ele>
        <time>2019-08-15T12:50:46Z</time>
      </trkpt>
      <trkpt lat="40.8220260" lon="0.2398470">
        <ele>567.0</ele>
        <time>2019-08-15T12:50:48Z</time>
      </trkpt>
      <trkpt lat="40.8220110" lon="0.2398450">
        <ele>567.0</ele>
        <time>2019-08-15T12:50:49Z</time>
      </trkpt>
      <trkpt lat="40.8219950" lon="0.2398430">
        <ele>567.0</ele>
        <time>2019-08-15T12:50:50Z</time>
      </trkpt>
      <trkpt lat="40.8219800" lon="0.2398390">
        <ele>567.0</ele>
        <time>2019-08-15T12:50:51Z</time>
      </trkpt>
      <trkpt lat="40.8219480" lon="0.2398280">
        <ele>568.0</ele>
        <time>2019-08-15T12:50:53Z</time>
      </trkpt>
      <trkpt lat="40.8219300" lon="0.2398330">
        <ele>568.0</ele>
        <time>2019-08-15T12:50:54Z</time>
      </trkpt>
      <trkpt lat="40.8219150" lon="0.2398400">
        <ele>568.0</ele>
        <time>2019-08-15T12:50:55Z</time>
      </trkpt>
      <trkpt lat="40.8218980" lon="0.2398450">
        <ele>568.0</ele>
        <time>2019-08-15T12:50:56Z</time>
      </trkpt>
      <trkpt lat="40.8218670" lon="0.2398610">
        <ele>568.0</ele>
        <time>2019-08-15T12:50:58Z</time>
      </trkpt>
      <trkpt lat="40.8218520" lon="0.2398690">
        <ele>568.0</ele>
        <time>2019-08-15T12:50:59Z</time>
      </trkpt>
      <trkpt lat="40.8218360" lon="0.2398820">
        <ele>568.0</ele>
        <time>2019-08-15T12:51:00Z</time>
      </trkpt>
      <trkpt lat="40.8218230" lon="0.2398970">
        <ele>568.0</ele>
        <time>2019-08-15T12:51:01Z</time>
      </trkpt>
      <trkpt lat="40.8218100" lon="0.2399080">
        <ele>568.0</ele>
        <time>2019-08-15T12:51:02Z</time>
      </trkpt>
      <trkpt lat="40.8217970" lon="0.2399210">
        <ele>568.0</ele>
        <time>2019-08-15T12:51:03Z</time>
      </trkpt>
      <trkpt lat="40.8217810" lon="0.2399380">
        <ele>568.0</ele>
        <time>2019-08-15T12:51:04Z</time>
      </trkpt>
      <trkpt lat="40.8217650" lon="0.2399540">
        <ele>568.0</ele>
        <time>2019-08-15T12:51:05Z</time>
      </trkpt>
      <trkpt lat="40.8217480" lon="0.2399740">
        <ele>569.0</ele>
        <time>2019-08-15T12:51:06Z</time>
      </trkpt>
      <trkpt lat="40.8217370" lon="0.2399950">
        <ele>569.0</ele>
        <time>2019-08-15T12:51:07Z</time>
      </trkpt>
      <trkpt lat="40.8217240" lon="0.2400130">
        <ele>569.0</ele>
        <time>2019-08-15T12:51:08Z</time>
      </trkpt>
      <trkpt lat="40.8217130" lon="0.2400280">
        <ele>569.0</ele>
        <time>2019-08-15T12:51:09Z</time>
      </trkpt>
      <trkpt lat="40.8217020" lon="0.2400410">
        <ele>569.0</ele>
        <time>2019-08-15T12:51:10Z</time>
      </trkpt>
      <trkpt lat="40.8216930" lon="0.2400520">
        <ele>569.0</ele>
        <time>2019-08-15T12:51:11Z</time>
      </trkpt>
      <trkpt lat="40.8216880" lon="0.2400640">
        <ele>569.0</ele>
        <time>2019-08-15T12:51:12Z</time>
      </trkpt>
      <trkpt lat="40.8216820" lon="0.2400770">
        <ele>569.0</ele>
        <time>2019-08-15T12:51:13Z</time>
      </trkpt>
      <trkpt lat="40.8216800" lon="0.2400870">
        <ele>569.0</ele>
        <time>2019-08-15T12:51:14Z</time>
      </trkpt>
      <trkpt lat="40.8216830" lon="0.2400980">
        <ele>569.0</ele>
        <time>2019-08-15T12:51:15Z</time>
      </trkpt>
      <trkpt lat="40.8216870" lon="0.2401070">
        <ele>569.0</ele>
        <time>2019-08-15T12:51:16Z</time>
      </trkpt>
      <trkpt lat="40.8216330" lon="0.2401870">
        <ele>568.0</ele>
        <time>2019-08-15T12:51:23Z</time>
      </trkpt>
      <trkpt lat="40.8216100" lon="0.2402300">
        <ele>568.0</ele>
        <time>2019-08-15T12:51:27Z</time>
      </trkpt>
      <trkpt lat="40.8216050" lon="0.2402400">
        <ele>568.0</ele>
        <time>2019-08-15T12:51:28Z</time>
      </trkpt>
      <trkpt lat="40.8216000" lon="0.2402500">
        <ele>568.0</ele>
        <time>2019-08-15T12:51:29Z</time>
      </trkpt>
      <trkpt lat="40.8215930" lon="0.2402820">
        <ele>568.0</ele>
        <time>2019-08-15T12:51:32Z</time>
      </trkpt>
      <trkpt lat="40.8215660" lon="0.2403890">
        <ele>568.0</ele>
        <time>2019-08-15T12:52:02Z</time>
      </trkpt>
      <trkpt lat="40.8215580" lon="0.2404500">
        <ele>568.0</ele>
        <time>2019-08-15T12:52:05Z</time>
      </trkpt>
      <trkpt lat="40.8215530" lon="0.2404820">
        <ele>568.0</ele>
        <time>2019-08-15T12:52:06Z</time>
      </trkpt>
      <trkpt lat="40.8215480" lon="0.2405130">
        <ele>568.0</ele>
        <time>2019-08-15T12:52:07Z</time>
      </trkpt>
      <trkpt lat="40.8215370" lon="0.2405670">
        <ele>568.0</ele>
        <time>2019-08-15T12:52:09Z</time>
      </trkpt>
      <trkpt lat="40.8215300" lon="0.2405930">
        <ele>568.0</ele>
        <time>2019-08-15T12:52:10Z</time>
      </trkpt>
      <trkpt lat="40.8215260" lon="0.2406200">
        <ele>568.0</ele>
        <time>2019-08-15T12:52:11Z</time>
      </trkpt>
      <trkpt lat="40.8215260" lon="0.2406480">
        <ele>568.0</ele>
        <time>2019-08-15T12:52:12Z</time>
      </trkpt>
      <trkpt lat="40.8215260" lon="0.2406720">
        <ele>568.0</ele>
        <time>2019-08-15T12:52:13Z</time>
      </trkpt>
      <trkpt lat="40.8215250" lon="0.2406990">
        <ele>568.0</ele>
        <time>2019-08-15T12:52:14Z</time>
      </trkpt>
      <trkpt lat="40.8215280" lon="0.2407280">
        <ele>568.0</ele>
        <time>2019-08-15T12:52:15Z</time>
      </trkpt>
      <trkpt lat="40.8215320" lon="0.2407570">
        <ele>568.0</ele>
        <time>2019-08-15T12:52:16Z</time>
      </trkpt>
      <trkpt lat="40.8215350" lon="0.2407870">
        <ele>568.0</ele>
        <time>2019-08-15T12:52:17Z</time>
      </trkpt>
      <trkpt lat="40.8215410" lon="0.2408140">
        <ele>568.0</ele>
        <time>2019-08-15T12:52:18Z</time>
      </trkpt>
      <trkpt lat="40.8215470" lon="0.2408420">
        <ele>569.0</ele>
        <time>2019-08-15T12:52:19Z</time>
      </trkpt>
      <trkpt lat="40.8215570" lon="0.2408650">
        <ele>569.0</ele>
        <time>2019-08-15T12:52:20Z</time>
      </trkpt>
      <trkpt lat="40.8215670" lon="0.2408890">
        <ele>569.0</ele>
        <time>2019-08-15T12:52:21Z</time>
      </trkpt>
      <trkpt lat="40.8215720" lon="0.2409120">
        <ele>569.0</ele>
        <time>2019-08-15T12:52:22Z</time>
      </trkpt>
      <trkpt lat="40.8215780" lon="0.2409370">
        <ele>569.0</ele>
        <time>2019-08-15T12:52:23Z</time>
      </trkpt>
      <trkpt lat="40.8215820" lon="0.2409650">
        <ele>569.0</ele>
        <time>2019-08-15T12:52:24Z</time>
      </trkpt>
      <trkpt lat="40.8215860" lon="0.2409940">
        <ele>569.0</ele>
        <time>2019-08-15T12:52:25Z</time>
      </trkpt>
      <trkpt lat="40.8215910" lon="0.2410210">
        <ele>569.0</ele>
        <time>2019-08-15T12:52:26Z</time>
      </trkpt>
      <trkpt lat="40.8215930" lon="0.2410470">
        <ele>569.0</ele>
        <time>2019-08-15T12:52:27Z</time>
      </trkpt>
      <trkpt lat="40.8215910" lon="0.2410740">
        <ele>569.0</ele>
        <time>2019-08-15T12:52:28Z</time>
      </trkpt>
      <trkpt lat="40.8215860" lon="0.2411260">
        <ele>569.0</ele>
        <time>2019-08-15T12:52:30Z</time>
      </trkpt>
      <trkpt lat="40.8215810" lon="0.2411500">
        <ele>569.0</ele>
        <time>2019-08-15T12:52:31Z</time>
      </trkpt>
      <trkpt lat="40.8215720" lon="0.2411730">
        <ele>569.0</ele>
        <time>2019-08-15T12:52:32Z</time>
      </trkpt>
      <trkpt lat="40.8215350" lon="0.2412330">
        <ele>569.0</ele>
        <time>2019-08-15T12:52:35Z</time>
      </trkpt>
      <trkpt lat="40.8215190" lon="0.2412430">
        <ele>569.0</ele>
        <time>2019-08-15T12:52:36Z</time>
      </trkpt>
      <trkpt lat="40.8215000" lon="0.2412510">
        <ele>569.0</ele>
        <time>2019-08-15T12:52:37Z</time>
      </trkpt>
      <trkpt lat="40.8214670" lon="0.2412700">
        <ele>569.0</ele>
        <time>2019-08-15T12:52:39Z</time>
      </trkpt>
      <trkpt lat="40.8214510" lon="0.2412720">
        <ele>569.0</ele>
        <time>2019-08-15T12:52:40Z</time>
      </trkpt>
      <trkpt lat="40.8214380" lon="0.2412730">
        <ele>569.0</ele>
        <time>2019-08-15T12:52:41Z</time>
      </trkpt>
      <trkpt lat="40.8214280" lon="0.2412760">
        <ele>569.0</ele>
        <time>2019-08-15T12:52:42Z</time>
      </trkpt>
      <trkpt lat="40.8214230" lon="0.2412810">
        <ele>569.0</ele>
        <time>2019-08-15T12:52:43Z</time>
      </trkpt>
      <trkpt lat="40.8214230" lon="0.2412810">
        <ele>569.0</ele>
        <time>2019-08-15T12:52:44Z</time>
      </trkpt>
      <trkpt lat="40.8213570" lon="0.2412660">
        <ele>570.0</ele>
        <time>2019-08-15T12:54:24Z</time>
      </trkpt>
      <trkpt lat="40.8213420" lon="0.2412620">
        <ele>570.0</ele>
        <time>2019-08-15T12:54:26Z</time>
      </trkpt>
      <trkpt lat="40.8213280" lon="0.2412570">
        <ele>570.0</ele>
        <time>2019-08-15T12:54:27Z</time>
      </trkpt>
      <trkpt lat="40.8212880" lon="0.2412400">
        <ele>570.0</ele>
        <time>2019-08-15T12:54:30Z</time>
      </trkpt>
      <trkpt lat="40.8212740" lon="0.2412330">
        <ele>570.0</ele>
        <time>2019-08-15T12:54:31Z</time>
      </trkpt>
      <trkpt lat="40.8212440" lon="0.2412240">
        <ele>570.0</ele>
        <time>2019-08-15T12:54:33Z</time>
      </trkpt>
      <trkpt lat="40.8212290" lon="0.2412190">
        <ele>570.0</ele>
        <time>2019-08-15T12:54:34Z</time>
      </trkpt>
      <trkpt lat="40.8212160" lon="0.2412140">
        <ele>570.0</ele>
        <time>2019-08-15T12:54:35Z</time>
      </trkpt>
      <trkpt lat="40.8211990" lon="0.2412110">
        <ele>570.0</ele>
        <time>2019-08-15T12:54:36Z</time>
      </trkpt>
      <trkpt lat="40.8211860" lon="0.2412090">
        <ele>570.0</ele>
        <time>2019-08-15T12:54:37Z</time>
      </trkpt>
      <trkpt lat="40.8211770" lon="0.2412080">
        <ele>570.0</ele>
        <time>2019-08-15T12:54:38Z</time>
      </trkpt>
      <trkpt lat="40.8211740" lon="0.2412100">
        <ele>570.0</ele>
        <time>2019-08-15T12:54:39Z</time>
      </trkpt>
      <trkpt lat="40.8211180" lon="0.2411860">
        <ele>571.0</ele>
        <time>2019-08-15T12:54:55Z</time>
      </trkpt>
      <trkpt lat="40.8210870" lon="0.2411720">
        <ele>571.0</ele>
        <time>2019-08-15T12:54:58Z</time>
      </trkpt>
      <trkpt lat="40.8210720" lon="0.2411670">
        <ele>571.0</ele>
        <time>2019-08-15T12:54:59Z</time>
      </trkpt>
      <trkpt lat="40.8210550" lon="0.2411600">
        <ele>571.0</ele>
        <time>2019-08-15T12:55:00Z</time>
      </trkpt>
      <trkpt lat="40.8210040" lon="0.2411360">
        <ele>571.0</ele>
        <time>2019-08-15T12:55:03Z</time>
      </trkpt>
      <trkpt lat="40.8209900" lon="0.2411280">
        <ele>571.0</ele>
        <time>2019-08-15T12:55:04Z</time>
      </trkpt>
      <trkpt lat="40.8209760" lon="0.2411220">
        <ele>571.0</ele>
        <time>2019-08-15T12:55:05Z</time>
      </trkpt>
      <trkpt lat="40.8209610" lon="0.2411160">
        <ele>571.0</ele>
        <time>2019-08-15T12:55:06Z</time>
      </trkpt>
      <trkpt lat="40.8209480" lon="0.2411110">
        <ele>571.0</ele>
        <time>2019-08-15T12:55:07Z</time>
      </trkpt>
      <trkpt lat="40.8209320" lon="0.2411090">
        <ele>571.0</ele>
        <time>2019-08-15T12:55:08Z</time>
      </trkpt>
      <trkpt lat="40.8209150" lon="0.2411030">
        <ele>571.0</ele>
        <time>2019-08-15T12:55:09Z</time>
      </trkpt>
      <trkpt lat="40.8208980" lon="0.2410930">
        <ele>571.0</ele>
        <time>2019-08-15T12:55:10Z</time>
      </trkpt>
      <trkpt lat="40.8208830" lon="0.2410880">
        <ele>571.0</ele>
        <time>2019-08-15T12:55:11Z</time>
      </trkpt>
      <trkpt lat="40.8208660" lon="0.2410870">
        <ele>572.0</ele>
        <time>2019-08-15T12:55:12Z</time>
      </trkpt>
      <trkpt lat="40.8208480" lon="0.2410840">
        <ele>572.0</ele>
        <time>2019-08-15T12:55:13Z</time>
      </trkpt>
      <trkpt lat="40.8208320" lon="0.2410820">
        <ele>572.0</ele>
        <time>2019-08-15T12:55:14Z</time>
      </trkpt>
      <trkpt lat="40.8208150" lon="0.2410760">
        <ele>572.0</ele>
        <time>2019-08-15T12:55:15Z</time>
      </trkpt>
      <trkpt lat="40.8207980" lon="0.2410710">
        <ele>572.0</ele>
        <time>2019-08-15T12:55:16Z</time>
      </trkpt>
      <trkpt lat="40.8207490" lon="0.2410660">
        <ele>572.0</ele>
        <time>2019-08-15T12:55:19Z</time>
      </trkpt>
      <trkpt lat="40.8207290" lon="0.2410690">
        <ele>572.0</ele>
        <time>2019-08-15T12:55:20Z</time>
      </trkpt>
      <trkpt lat="40.8207090" lon="0.2410740">
        <ele>572.0</ele>
        <time>2019-08-15T12:55:21Z</time>
      </trkpt>
      <trkpt lat="40.8206510" lon="0.2410790">
        <ele>572.0</ele>
        <time>2019-08-15T12:55:24Z</time>
      </trkpt>
      <trkpt lat="40.8206300" lon="0.2410810">
        <ele>572.0</ele>
        <time>2019-08-15T12:55:25Z</time>
      </trkpt>
      <trkpt lat="40.8206100" lon="0.2410850">
        <ele>572.0</ele>
        <time>2019-08-15T12:55:26Z</time>
      </trkpt>
      <trkpt lat="40.8205950" lon="0.2410920">
        <ele>572.0</ele>
        <time>2019-08-15T12:55:27Z</time>
      </trkpt>
      <trkpt lat="40.8205650" lon="0.2410950">
        <ele>572.0</ele>
        <time>2019-08-15T12:55:29Z</time>
      </trkpt>
      <trkpt lat="40.8205520" lon="0.2410970">
        <ele>573.0</ele>
        <time>2019-08-15T12:55:30Z</time>
      </trkpt>
      <trkpt lat="40.8205360" lon="0.2411020">
        <ele>573.0</ele>
        <time>2019-08-15T12:55:31Z</time>
      </trkpt>
      <trkpt lat="40.8205170" lon="0.2411070">
        <ele>573.0</ele>
        <time>2019-08-15T12:55:32Z</time>
      </trkpt>
      <trkpt lat="40.8204800" lon="0.2411090">
        <ele>573.0</ele>
        <time>2019-08-15T12:55:34Z</time>
      </trkpt>
      <trkpt lat="40.8204620" lon="0.2411130">
        <ele>573.0</ele>
        <time>2019-08-15T12:55:35Z</time>
      </trkpt>
      <trkpt lat="40.8204450" lon="0.2411180">
        <ele>573.0</ele>
        <time>2019-08-15T12:55:36Z</time>
      </trkpt>
      <trkpt lat="40.8204280" lon="0.2411230">
        <ele>573.0</ele>
        <time>2019-08-15T12:55:37Z</time>
      </trkpt>
      <trkpt lat="40.8203910" lon="0.2411350">
        <ele>573.0</ele>
        <time>2019-08-15T12:55:39Z</time>
      </trkpt>
      <trkpt lat="40.8203740" lon="0.2411420">
        <ele>573.0</ele>
        <time>2019-08-15T12:55:40Z</time>
      </trkpt>
      <trkpt lat="40.8203570" lon="0.2411470">
        <ele>573.0</ele>
        <time>2019-08-15T12:55:41Z</time>
      </trkpt>
      <trkpt lat="40.8203400" lon="0.2411510">
        <ele>573.0</ele>
        <time>2019-08-15T12:55:42Z</time>
      </trkpt>
      <trkpt lat="40.8203020" lon="0.2411620">
        <ele>574.0</ele>
        <time>2019-08-15T12:55:44Z</time>
      </trkpt>
      <trkpt lat="40.8202840" lon="0.2411690">
        <ele>574.0</ele>
        <time>2019-08-15T12:55:45Z</time>
      </trkpt>
      <trkpt lat="40.8202640" lon="0.2411750">
        <ele>574.0</ele>
        <time>2019-08-15T12:55:46Z</time>
      </trkpt>
      <trkpt lat="40.8202420" lon="0.2411800">
        <ele>574.0</ele>
        <time>2019-08-15T12:55:47Z</time>
      </trkpt>
      <trkpt lat="40.8201990" lon="0.2411920">
        <ele>574.0</ele>
        <time>2019-08-15T12:55:49Z</time>
      </trkpt>
      <trkpt lat="40.8201810" lon="0.2411960">
        <ele>574.0</ele>
        <time>2019-08-15T12:55:50Z</time>
      </trkpt>
      <trkpt lat="40.8201630" lon="0.2411990">
        <ele>574.0</ele>
        <time>2019-08-15T12:55:51Z</time>
      </trkpt>
      <trkpt lat="40.8201440" lon="0.2412050">
        <ele>574.0</ele>
        <time>2019-08-15T12:55:52Z</time>
      </trkpt>
      <trkpt lat="40.8201090" lon="0.2412160">
        <ele>574.0</ele>
        <time>2019-08-15T12:55:54Z</time>
      </trkpt>
      <trkpt lat="40.8200910" lon="0.2412220">
        <ele>574.0</ele>
        <time>2019-08-15T12:55:55Z</time>
      </trkpt>
      <trkpt lat="40.8200720" lon="0.2412310">
        <ele>574.0</ele>
        <time>2019-08-15T12:55:56Z</time>
      </trkpt>
      <trkpt lat="40.8200520" lon="0.2412430">
        <ele>574.0</ele>
        <time>2019-08-15T12:55:57Z</time>
      </trkpt>
      <trkpt lat="40.8200100" lon="0.2412590">
        <ele>574.0</ele>
        <time>2019-08-15T12:55:59Z</time>
      </trkpt>
      <trkpt lat="40.8199900" lon="0.2412640">
        <ele>574.0</ele>
        <time>2019-08-15T12:56:00Z</time>
      </trkpt>
      <trkpt lat="40.8199700" lon="0.2412710">
        <ele>574.0</ele>
        <time>2019-08-15T12:56:01Z</time>
      </trkpt>
      <trkpt lat="40.8199510" lon="0.2412800">
        <ele>574.0</ele>
        <time>2019-08-15T12:56:02Z</time>
      </trkpt>
      <trkpt lat="40.8199070" lon="0.2413020">
        <ele>574.0</ele>
        <time>2019-08-15T12:56:04Z</time>
      </trkpt>
      <trkpt lat="40.8198840" lon="0.2413140">
        <ele>574.0</ele>
        <time>2019-08-15T12:56:05Z</time>
      </trkpt>
      <trkpt lat="40.8198650" lon="0.2413270">
        <ele>574.0</ele>
        <time>2019-08-15T12:56:06Z</time>
      </trkpt>
      <trkpt lat="40.8198450" lon="0.2413390">
        <ele>574.0</ele>
        <time>2019-08-15T12:56:07Z</time>
      </trkpt>
      <trkpt lat="40.8197990" lon="0.2413570">
        <ele>574.0</ele>
        <time>2019-08-15T12:56:09Z</time>
      </trkpt>
      <trkpt lat="40.8197770" lon="0.2413690">
        <ele>574.0</ele>
        <time>2019-08-15T12:56:10Z</time>
      </trkpt>
      <trkpt lat="40.8197530" lon="0.2413810">
        <ele>574.0</ele>
        <time>2019-08-15T12:56:11Z</time>
      </trkpt>
      <trkpt lat="40.8197300" lon="0.2413940">
        <ele>574.0</ele>
        <time>2019-08-15T12:56:12Z</time>
      </trkpt>
      <trkpt lat="40.8196840" lon="0.2414190">
        <ele>574.0</ele>
        <time>2019-08-15T12:56:14Z</time>
      </trkpt>
      <trkpt lat="40.8196600" lon="0.2414280">
        <ele>574.0</ele>
        <time>2019-08-15T12:56:15Z</time>
      </trkpt>
      <trkpt lat="40.8196360" lon="0.2414410">
        <ele>574.0</ele>
        <time>2019-08-15T12:56:16Z</time>
      </trkpt>
      <trkpt lat="40.8196090" lon="0.2414590">
        <ele>574.0</ele>
        <time>2019-08-15T12:56:17Z</time>
      </trkpt>
      <trkpt lat="40.8195540" lon="0.2414930">
        <ele>574.0</ele>
        <time>2019-08-15T12:56:19Z</time>
      </trkpt>
      <trkpt lat="40.8195270" lon="0.2415140">
        <ele>574.0</ele>
        <time>2019-08-15T12:56:20Z</time>
      </trkpt>
      <trkpt lat="40.8195030" lon="0.2415300">
        <ele>574.0</ele>
        <time>2019-08-15T12:56:21Z</time>
      </trkpt>
      <trkpt lat="40.8194790" lon="0.2415450">
        <ele>574.0</ele>
        <time>2019-08-15T12:56:22Z</time>
      </trkpt>
      <trkpt lat="40.8194330" lon="0.2415710">
        <ele>574.0</ele>
        <time>2019-08-15T12:56:24Z</time>
      </trkpt>
      <trkpt lat="40.8194080" lon="0.2415830">
        <ele>575.0</ele>
        <time>2019-08-15T12:56:25Z</time>
      </trkpt>
      <trkpt lat="40.8193850" lon="0.2415960">
        <ele>575.0</ele>
        <time>2019-08-15T12:56:26Z</time>
      </trkpt>
      <trkpt lat="40.8193620" lon="0.2416060">
        <ele>575.0</ele>
        <time>2019-08-15T12:56:27Z</time>
      </trkpt>
      <trkpt lat="40.8193210" lon="0.2416360">
        <ele>575.0</ele>
        <time>2019-08-15T12:56:29Z</time>
      </trkpt>
      <trkpt lat="40.8192980" lon="0.2416550">
        <ele>575.0</ele>
        <time>2019-08-15T12:56:30Z</time>
      </trkpt>
      <trkpt lat="40.8192760" lon="0.2416740">
        <ele>575.0</ele>
        <time>2019-08-15T12:56:31Z</time>
      </trkpt>
      <trkpt lat="40.8192550" lon="0.2416920">
        <ele>575.0</ele>
        <time>2019-08-15T12:56:32Z</time>
      </trkpt>
      <trkpt lat="40.8192110" lon="0.2417240">
        <ele>575.0</ele>
        <time>2019-08-15T12:56:34Z</time>
      </trkpt>
      <trkpt lat="40.8191900" lon="0.2417400">
        <ele>575.0</ele>
        <time>2019-08-15T12:56:35Z</time>
      </trkpt>
      <trkpt lat="40.8191670" lon="0.2417590">
        <ele>575.0</ele>
        <time>2019-08-15T12:56:36Z</time>
      </trkpt>
      <trkpt lat="40.8191450" lon="0.2417780">
        <ele>575.0</ele>
        <time>2019-08-15T12:56:37Z</time>
      </trkpt>
      <trkpt lat="40.8190980" lon="0.2418200">
        <ele>575.0</ele>
        <time>2019-08-15T12:56:39Z</time>
      </trkpt>
      <trkpt lat="40.8190770" lon="0.2418320">
        <ele>575.0</ele>
        <time>2019-08-15T12:56:40Z</time>
      </trkpt>
      <trkpt lat="40.8190580" lon="0.2418420">
        <ele>574.0</ele>
        <time>2019-08-15T12:56:41Z</time>
      </trkpt>
      <trkpt lat="40.8190390" lon="0.2418510">
        <ele>574.0</ele>
        <time>2019-08-15T12:56:42Z</time>
      </trkpt>
      <trkpt lat="40.8189990" lon="0.2418720">
        <ele>574.0</ele>
        <time>2019-08-15T12:56:44Z</time>
      </trkpt>
      <trkpt lat="40.8189760" lon="0.2418830">
        <ele>574.0</ele>
        <time>2019-08-15T12:56:45Z</time>
      </trkpt>
      <trkpt lat="40.8189510" lon="0.2418940">
        <ele>574.0</ele>
        <time>2019-08-15T12:56:46Z</time>
      </trkpt>
      <trkpt lat="40.8189300" lon="0.2418990">
        <ele>574.0</ele>
        <time>2019-08-15T12:56:47Z</time>
      </trkpt>
      <trkpt lat="40.8188870" lon="0.2419090">
        <ele>574.0</ele>
        <time>2019-08-15T12:56:49Z</time>
      </trkpt>
      <trkpt lat="40.8188710" lon="0.2419270">
        <ele>574.0</ele>
        <time>2019-08-15T12:56:50Z</time>
      </trkpt>
      <trkpt lat="40.8188600" lon="0.2419520">
        <ele>574.0</ele>
        <time>2019-08-15T12:56:51Z</time>
      </trkpt>
      <trkpt lat="40.8188530" lon="0.2419770">
        <ele>574.0</ele>
        <time>2019-08-15T12:56:52Z</time>
      </trkpt>
      <trkpt lat="40.8188500" lon="0.2420300">
        <ele>574.0</ele>
        <time>2019-08-15T12:56:54Z</time>
      </trkpt>
      <trkpt lat="40.8188540" lon="0.2420510">
        <ele>574.0</ele>
        <time>2019-08-15T12:56:55Z</time>
      </trkpt>
      <trkpt lat="40.8188550" lon="0.2420690">
        <ele>574.0</ele>
        <time>2019-08-15T12:56:56Z</time>
      </trkpt>
      <trkpt lat="40.8188530" lon="0.2420740">
        <ele>574.0</ele>
        <time>2019-08-15T12:56:57Z</time>
      </trkpt>
      <trkpt lat="40.8188260" lon="0.2421330">
        <ele>573.0</ele>
        <time>2019-08-15T12:57:21Z</time>
      </trkpt>
      <trkpt lat="40.8187960" lon="0.2421710">
        <ele>573.0</ele>
        <time>2019-08-15T12:57:24Z</time>
      </trkpt>
      <trkpt lat="40.8187790" lon="0.2421870">
        <ele>573.0</ele>
        <time>2019-08-15T12:57:25Z</time>
      </trkpt>
      <trkpt lat="40.8187630" lon="0.2422000">
        <ele>573.0</ele>
        <time>2019-08-15T12:57:26Z</time>
      </trkpt>
      <trkpt lat="40.8187140" lon="0.2422280">
        <ele>573.0</ele>
        <time>2019-08-15T12:57:29Z</time>
      </trkpt>
      <trkpt lat="40.8187000" lon="0.2422290">
        <ele>573.0</ele>
        <time>2019-08-15T12:57:30Z</time>
      </trkpt>
      <trkpt lat="40.8186850" lon="0.2422340">
        <ele>573.0</ele>
        <time>2019-08-15T12:57:31Z</time>
      </trkpt>
      <trkpt lat="40.8186680" lon="0.2422370">
        <ele>573.0</ele>
        <time>2019-08-15T12:57:32Z</time>
      </trkpt>
      <trkpt lat="40.8186190" lon="0.2422310">
        <ele>573.0</ele>
        <time>2019-08-15T12:57:34Z</time>
      </trkpt>
      <trkpt lat="40.8186070" lon="0.2422310">
        <ele>573.0</ele>
        <time>2019-08-15T12:57:35Z</time>
      </trkpt>
      <trkpt lat="40.8185870" lon="0.2422280">
        <ele>573.0</ele>
        <time>2019-08-15T12:57:36Z</time>
      </trkpt>
      <trkpt lat="40.8185660" lon="0.2422250">
        <ele>573.0</ele>
        <time>2019-08-15T12:57:37Z</time>
      </trkpt>
      <trkpt lat="40.8185480" lon="0.2422220">
        <ele>573.0</ele>
        <time>2019-08-15T12:57:38Z</time>
      </trkpt>
      <trkpt lat="40.8185310" lon="0.2422160">
        <ele>573.0</ele>
        <time>2019-08-15T12:57:39Z</time>
      </trkpt>
      <trkpt lat="40.8185150" lon="0.2422180">
        <ele>573.0</ele>
        <time>2019-08-15T12:57:40Z</time>
      </trkpt>
      <trkpt lat="40.8184630" lon="0.2422080">
        <ele>573.0</ele>
        <time>2019-08-15T12:57:43Z</time>
      </trkpt>
      <trkpt lat="40.8184470" lon="0.2421980">
        <ele>573.0</ele>
        <time>2019-08-15T12:57:44Z</time>
      </trkpt>
      <trkpt lat="40.8184340" lon="0.2421840">
        <ele>573.0</ele>
        <time>2019-08-15T12:57:45Z</time>
      </trkpt>
      <trkpt lat="40.8184030" lon="0.2421640">
        <ele>574.0</ele>
        <time>2019-08-15T12:57:47Z</time>
      </trkpt>
      <trkpt lat="40.8183870" lon="0.2421570">
        <ele>574.0</ele>
        <time>2019-08-15T12:57:48Z</time>
      </trkpt>
      <trkpt lat="40.8183590" lon="0.2421520">
        <ele>574.0</ele>
        <time>2019-08-15T12:57:50Z</time>
      </trkpt>
      <trkpt lat="40.8183440" lon="0.2421540">
        <ele>574.0</ele>
        <time>2019-08-15T12:57:51Z</time>
      </trkpt>
      <trkpt lat="40.8183270" lon="0.2421560">
        <ele>574.0</ele>
        <time>2019-08-15T12:57:52Z</time>
      </trkpt>
      <trkpt lat="40.8182840" lon="0.2421390">
        <ele>574.0</ele>
        <time>2019-08-15T12:57:55Z</time>
      </trkpt>
      <trkpt lat="40.8182670" lon="0.2421330">
        <ele>574.0</ele>
        <time>2019-08-15T12:57:56Z</time>
      </trkpt>
      <trkpt lat="40.8182500" lon="0.2421320">
        <ele>575.0</ele>
        <time>2019-08-15T12:57:57Z</time>
      </trkpt>
      <trkpt lat="40.8181960" lon="0.2421280">
        <ele>575.0</ele>
        <time>2019-08-15T12:58:00Z</time>
      </trkpt>
      <trkpt lat="40.8181800" lon="0.2421290">
        <ele>575.0</ele>
        <time>2019-08-15T12:58:01Z</time>
      </trkpt>
      <trkpt lat="40.8181650" lon="0.2421280">
        <ele>575.0</ele>
        <time>2019-08-15T12:58:02Z</time>
      </trkpt>
      <trkpt lat="40.8181500" lon="0.2421250">
        <ele>575.0</ele>
        <time>2019-08-15T12:58:03Z</time>
      </trkpt>
      <trkpt lat="40.8181140" lon="0.2421220">
        <ele>575.0</ele>
        <time>2019-08-15T12:58:05Z</time>
      </trkpt>
      <trkpt lat="40.8180940" lon="0.2421200">
        <ele>575.0</ele>
        <time>2019-08-15T12:58:06Z</time>
      </trkpt>
      <trkpt lat="40.8180750" lon="0.2421150">
        <ele>575.0</ele>
        <time>2019-08-15T12:58:07Z</time>
      </trkpt>
      <trkpt lat="40.8180540" lon="0.2421120">
        <ele>575.0</ele>
        <time>2019-08-15T12:58:08Z</time>
      </trkpt>
      <trkpt lat="40.8180160" lon="0.2420970">
        <ele>576.0</ele>
        <time>2019-08-15T12:58:10Z</time>
      </trkpt>
      <trkpt lat="40.8180000" lon="0.2420900">
        <ele>576.0</ele>
        <time>2019-08-15T12:58:11Z</time>
      </trkpt>
      <trkpt lat="40.8179840" lon="0.2420910">
        <ele>576.0</ele>
        <time>2019-08-15T12:58:12Z</time>
      </trkpt>
      <trkpt lat="40.8179640" lon="0.2420880">
        <ele>576.0</ele>
        <time>2019-08-15T12:58:13Z</time>
      </trkpt>
      <trkpt lat="40.8179240" lon="0.2420820">
        <ele>576.0</ele>
        <time>2019-08-15T12:58:15Z</time>
      </trkpt>
      <trkpt lat="40.8179020" lon="0.2420780">
        <ele>576.0</ele>
        <time>2019-08-15T12:58:16Z</time>
      </trkpt>
      <trkpt lat="40.8178830" lon="0.2420760">
        <ele>576.0</ele>
        <time>2019-08-15T12:58:17Z</time>
      </trkpt>
      <trkpt lat="40.8178650" lon="0.2420790">
        <ele>576.0</ele>
        <time>2019-08-15T12:58:18Z</time>
      </trkpt>
      <trkpt lat="40.8178270" lon="0.2420670">
        <ele>576.0</ele>
        <time>2019-08-15T12:58:20Z</time>
      </trkpt>
      <trkpt lat="40.8178040" lon="0.2420570">
        <ele>576.0</ele>
        <time>2019-08-15T12:58:21Z</time>
      </trkpt>
      <trkpt lat="40.8177840" lon="0.2420500">
        <ele>576.0</ele>
        <time>2019-08-15T12:58:22Z</time>
      </trkpt>
      <trkpt lat="40.8177640" lon="0.2420550">
        <ele>576.0</ele>
        <time>2019-08-15T12:58:23Z</time>
      </trkpt>
      <trkpt lat="40.8177230" lon="0.2420690">
        <ele>576.0</ele>
        <time>2019-08-15T12:58:25Z</time>
      </trkpt>
      <trkpt lat="40.8177040" lon="0.2420760">
        <ele>576.0</ele>
        <time>2019-08-15T12:58:26Z</time>
      </trkpt>
      <trkpt lat="40.8176850" lon="0.2420860">
        <ele>576.0</ele>
        <time>2019-08-15T12:58:27Z</time>
      </trkpt>
      <trkpt lat="40.8176660" lon="0.2420990">
        <ele>576.0</ele>
        <time>2019-08-15T12:58:28Z</time>
      </trkpt>
      <trkpt lat="40.8176270" lon="0.2421230">
        <ele>576.0</ele>
        <time>2019-08-15T12:58:30Z</time>
      </trkpt>
      <trkpt lat="40.8176100" lon="0.2421390">
        <ele>576.0</ele>
        <time>2019-08-15T12:58:31Z</time>
      </trkpt>
      <trkpt lat="40.8175950" lon="0.2421500">
        <ele>576.0</ele>
        <time>2019-08-15T12:58:32Z</time>
      </trkpt>
      <trkpt lat="40.8175760" lon="0.2421630">
        <ele>576.0</ele>
        <time>2019-08-15T12:58:33Z</time>
      </trkpt>
      <trkpt lat="40.8175410" lon="0.2421930">
        <ele>576.0</ele>
        <time>2019-08-15T12:58:35Z</time>
      </trkpt>
      <trkpt lat="40.8175220" lon="0.2422100">
        <ele>576.0</ele>
        <time>2019-08-15T12:58:36Z</time>
      </trkpt>
      <trkpt lat="40.8175040" lon="0.2422210">
        <ele>576.0</ele>
        <time>2019-08-15T12:58:37Z</time>
      </trkpt>
      <trkpt lat="40.8174850" lon="0.2422310">
        <ele>576.0</ele>
        <time>2019-08-15T12:58:38Z</time>
      </trkpt>
      <trkpt lat="40.8174500" lon="0.2422680">
        <ele>576.0</ele>
        <time>2019-08-15T12:58:40Z</time>
      </trkpt>
      <trkpt lat="40.8174330" lon="0.2422910">
        <ele>576.0</ele>
        <time>2019-08-15T12:58:41Z</time>
      </trkpt>
      <trkpt lat="40.8174160" lon="0.2423120">
        <ele>576.0</ele>
        <time>2019-08-15T12:58:42Z</time>
      </trkpt>
      <trkpt lat="40.8173970" lon="0.2423320">
        <ele>576.0</ele>
        <time>2019-08-15T12:58:43Z</time>
      </trkpt>
      <trkpt lat="40.8173810" lon="0.2423520">
        <ele>576.0</ele>
        <time>2019-08-15T12:58:44Z</time>
      </trkpt>
      <trkpt lat="40.8173640" lon="0.2423640">
        <ele>576.0</ele>
        <time>2019-08-15T12:58:45Z</time>
      </trkpt>
      <trkpt lat="40.8173460" lon="0.2423730">
        <ele>576.0</ele>
        <time>2019-08-15T12:58:46Z</time>
      </trkpt>
      <trkpt lat="40.8173280" lon="0.2423850">
        <ele>576.0</ele>
        <time>2019-08-15T12:58:47Z</time>
      </trkpt>
      <trkpt lat="40.8173070" lon="0.2424030">
        <ele>576.0</ele>
        <time>2019-08-15T12:58:48Z</time>
      </trkpt>
      <trkpt lat="40.8172450" lon="0.2424660">
        <ele>576.0</ele>
        <time>2019-08-15T12:58:51Z</time>
      </trkpt>
      <trkpt lat="40.8172240" lon="0.2424860">
        <ele>576.0</ele>
        <time>2019-08-15T12:58:52Z</time>
      </trkpt>
      <trkpt lat="40.8172020" lon="0.2425050">
        <ele>576.0</ele>
        <time>2019-08-15T12:58:53Z</time>
      </trkpt>
      <trkpt lat="40.8171400" lon="0.2425690">
        <ele>576.0</ele>
        <time>2019-08-15T12:58:56Z</time>
      </trkpt>
      <trkpt lat="40.8171180" lon="0.2425840">
        <ele>576.0</ele>
        <time>2019-08-15T12:58:57Z</time>
      </trkpt>
      <trkpt lat="40.8170990" lon="0.2425990">
        <ele>576.0</ele>
        <time>2019-08-15T12:58:58Z</time>
      </trkpt>
      <trkpt lat="40.8170830" lon="0.2426150">
        <ele>576.0</ele>
        <time>2019-08-15T12:58:59Z</time>
      </trkpt>
      <trkpt lat="40.8170530" lon="0.2426540">
        <ele>576.0</ele>
        <time>2019-08-15T12:59:01Z</time>
      </trkpt>
      <trkpt lat="40.8170350" lon="0.2426750">
        <ele>576.0</ele>
        <time>2019-08-15T12:59:02Z</time>
      </trkpt>
      <trkpt lat="40.8170180" lon="0.2426940">
        <ele>576.0</ele>
        <time>2019-08-15T12:59:03Z</time>
      </trkpt>
      <trkpt lat="40.8170020" lon="0.2427140">
        <ele>576.0</ele>
        <time>2019-08-15T12:59:04Z</time>
      </trkpt>
      <trkpt lat="40.8169580" lon="0.2427520">
        <ele>576.0</ele>
        <time>2019-08-15T12:59:06Z</time>
      </trkpt>
      <trkpt lat="40.8169410" lon="0.2427760">
        <ele>576.0</ele>
        <time>2019-08-15T12:59:07Z</time>
      </trkpt>
      <trkpt lat="40.8169270" lon="0.2428000">
        <ele>576.0</ele>
        <time>2019-08-15T12:59:08Z</time>
      </trkpt>
      <trkpt lat="40.8169090" lon="0.2428210">
        <ele>576.0</ele>
        <time>2019-08-15T12:59:09Z</time>
      </trkpt>
      <trkpt lat="40.8168770" lon="0.2428590">
        <ele>576.0</ele>
        <time>2019-08-15T12:59:11Z</time>
      </trkpt>
      <trkpt lat="40.8168590" lon="0.2428790">
        <ele>577.0</ele>
        <time>2019-08-15T12:59:12Z</time>
      </trkpt>
      <trkpt lat="40.8168450" lon="0.2429040">
        <ele>577.0</ele>
        <time>2019-08-15T12:59:13Z</time>
      </trkpt>
      <trkpt lat="40.8168290" lon="0.2429250">
        <ele>577.0</ele>
        <time>2019-08-15T12:59:14Z</time>
      </trkpt>
      <trkpt lat="40.8167980" lon="0.2429590">
        <ele>577.0</ele>
        <time>2019-08-15T12:59:16Z</time>
      </trkpt>
      <trkpt lat="40.8167800" lon="0.2429770">
        <ele>577.0</ele>
        <time>2019-08-15T12:59:17Z</time>
      </trkpt>
      <trkpt lat="40.8167620" lon="0.2429920">
        <ele>577.0</ele>
        <time>2019-08-15T12:59:18Z</time>
      </trkpt>
      <trkpt lat="40.8167440" lon="0.2430080">
        <ele>577.0</ele>
        <time>2019-08-15T12:59:19Z</time>
      </trkpt>
      <trkpt lat="40.8167100" lon="0.2430470">
        <ele>577.0</ele>
        <time>2019-08-15T12:59:21Z</time>
      </trkpt>
      <trkpt lat="40.8166940" lon="0.2430640">
        <ele>577.0</ele>
        <time>2019-08-15T12:59:22Z</time>
      </trkpt>
      <trkpt lat="40.8166780" lon="0.2430870">
        <ele>577.0</ele>
        <time>2019-08-15T12:59:23Z</time>
      </trkpt>
      <trkpt lat="40.8166600" lon="0.2431140">
        <ele>577.0</ele>
        <time>2019-08-15T12:59:24Z</time>
      </trkpt>
      <trkpt lat="40.8166170" lon="0.2431570">
        <ele>577.0</ele>
        <time>2019-08-15T12:59:26Z</time>
      </trkpt>
      <trkpt lat="40.8165970" lon="0.2431730">
        <ele>577.0</ele>
        <time>2019-08-15T12:59:27Z</time>
      </trkpt>
      <trkpt lat="40.8165780" lon="0.2431930">
        <ele>577.0</ele>
        <time>2019-08-15T12:59:28Z</time>
      </trkpt>
      <trkpt lat="40.8165580" lon="0.2432090">
        <ele>577.0</ele>
        <time>2019-08-15T12:59:29Z</time>
      </trkpt>
      <trkpt lat="40.8165220" lon="0.2432280">
        <ele>577.0</ele>
        <time>2019-08-15T12:59:31Z</time>
      </trkpt>
      <trkpt lat="40.8165040" lon="0.2432420">
        <ele>577.0</ele>
        <time>2019-08-15T12:59:32Z</time>
      </trkpt>
      <trkpt lat="40.8164860" lon="0.2432590">
        <ele>577.0</ele>
        <time>2019-08-15T12:59:33Z</time>
      </trkpt>
      <trkpt lat="40.8164660" lon="0.2432750">
        <ele>577.0</ele>
        <time>2019-08-15T12:59:34Z</time>
      </trkpt>
      <trkpt lat="40.8164230" lon="0.2432960">
        <ele>577.0</ele>
        <time>2019-08-15T12:59:36Z</time>
      </trkpt>
      <trkpt lat="40.8163990" lon="0.2433090">
        <ele>577.0</ele>
        <time>2019-08-15T12:59:37Z</time>
      </trkpt>
      <trkpt lat="40.8163780" lon="0.2433260">
        <ele>577.0</ele>
        <time>2019-08-15T12:59:38Z</time>
      </trkpt>
      <trkpt lat="40.8163590" lon="0.2433380">
        <ele>577.0</ele>
        <time>2019-08-15T12:59:39Z</time>
      </trkpt>
      <trkpt lat="40.8163190" lon="0.2433650">
        <ele>577.0</ele>
        <time>2019-08-15T12:59:41Z</time>
      </trkpt>
      <trkpt lat="40.8163020" lon="0.2433770">
        <ele>577.0</ele>
        <time>2019-08-15T12:59:42Z</time>
      </trkpt>
      <trkpt lat="40.8162870" lon="0.2433920">
        <ele>577.0</ele>
        <time>2019-08-15T12:59:43Z</time>
      </trkpt>
      <trkpt lat="40.8162670" lon="0.2434040">
        <ele>577.0</ele>
        <time>2019-08-15T12:59:44Z</time>
      </trkpt>
      <trkpt lat="40.8162280" lon="0.2434280">
        <ele>577.0</ele>
        <time>2019-08-15T12:59:46Z</time>
      </trkpt>
      <trkpt lat="40.8162100" lon="0.2434410">
        <ele>577.0</ele>
        <time>2019-08-15T12:59:47Z</time>
      </trkpt>
      <trkpt lat="40.8161940" lon="0.2434590">
        <ele>577.0</ele>
        <time>2019-08-15T12:59:48Z</time>
      </trkpt>
      <trkpt lat="40.8161780" lon="0.2434730">
        <ele>577.0</ele>
        <time>2019-08-15T12:59:49Z</time>
      </trkpt>
      <trkpt lat="40.8161440" lon="0.2434960">
        <ele>577.0</ele>
        <time>2019-08-15T12:59:51Z</time>
      </trkpt>
      <trkpt lat="40.8161200" lon="0.2435110">
        <ele>577.0</ele>
        <time>2019-08-15T12:59:52Z</time>
      </trkpt>
      <trkpt lat="40.8161000" lon="0.2435260">
        <ele>578.0</ele>
        <time>2019-08-15T12:59:53Z</time>
      </trkpt>
      <trkpt lat="40.8160810" lon="0.2435380">
        <ele>578.0</ele>
        <time>2019-08-15T12:59:54Z</time>
      </trkpt>
      <trkpt lat="40.8160360" lon="0.2435650">
        <ele>578.0</ele>
        <time>2019-08-15T12:59:56Z</time>
      </trkpt>
      <trkpt lat="40.8160150" lon="0.2435770">
        <ele>578.0</ele>
        <time>2019-08-15T12:59:57Z</time>
      </trkpt>
      <trkpt lat="40.8159960" lon="0.2435910">
        <ele>578.0</ele>
        <time>2019-08-15T12:59:58Z</time>
      </trkpt>
      <trkpt lat="40.8159770" lon="0.2436070">
        <ele>578.0</ele>
        <time>2019-08-15T12:59:59Z</time>
      </trkpt>
      <trkpt lat="40.8159400" lon="0.2436330">
        <ele>578.0</ele>
        <time>2019-08-15T13:00:01Z</time>
      </trkpt>
      <trkpt lat="40.8159210" lon="0.2436460">
        <ele>579.0</ele>
        <time>2019-08-15T13:00:02Z</time>
      </trkpt>
      <trkpt lat="40.8159040" lon="0.2436600">
        <ele>579.0</ele>
        <time>2019-08-15T13:00:03Z</time>
      </trkpt>
      <trkpt lat="40.8158860" lon="0.2436760">
        <ele>579.0</ele>
        <time>2019-08-15T13:00:04Z</time>
      </trkpt>
      <trkpt lat="40.8158530" lon="0.2437010">
        <ele>579.0</ele>
        <time>2019-08-15T13:00:06Z</time>
      </trkpt>
      <trkpt lat="40.8158370" lon="0.2437130">
        <ele>579.0</ele>
        <time>2019-08-15T13:00:07Z</time>
      </trkpt>
      <trkpt lat="40.8158190" lon="0.2437290">
        <ele>579.0</ele>
        <time>2019-08-15T13:00:08Z</time>
      </trkpt>
      <trkpt lat="40.8158020" lon="0.2437450">
        <ele>579.0</ele>
        <time>2019-08-15T13:00:09Z</time>
      </trkpt>
      <trkpt lat="40.8157670" lon="0.2437780">
        <ele>579.0</ele>
        <time>2019-08-15T13:00:11Z</time>
      </trkpt>
      <trkpt lat="40.8157470" lon="0.2437950">
        <ele>579.0</ele>
        <time>2019-08-15T13:00:12Z</time>
      </trkpt>
      <trkpt lat="40.8157290" lon="0.2438120">
        <ele>579.0</ele>
        <time>2019-08-15T13:00:13Z</time>
      </trkpt>
      <trkpt lat="40.8157100" lon="0.2438290">
        <ele>579.0</ele>
        <time>2019-08-15T13:00:14Z</time>
      </trkpt>
      <trkpt lat="40.8156760" lon="0.2438520">
        <ele>579.0</ele>
        <time>2019-08-15T13:00:16Z</time>
      </trkpt>
      <trkpt lat="40.8156590" lon="0.2438650">
        <ele>579.0</ele>
        <time>2019-08-15T13:00:17Z</time>
      </trkpt>
      <trkpt lat="40.8156410" lon="0.2438810">
        <ele>579.0</ele>
        <time>2019-08-15T13:00:18Z</time>
      </trkpt>
      <trkpt lat="40.8156240" lon="0.2438980">
        <ele>580.0</ele>
        <time>2019-08-15T13:00:19Z</time>
      </trkpt>
      <trkpt lat="40.8155870" lon="0.2439390">
        <ele>580.0</ele>
        <time>2019-08-15T13:00:21Z</time>
      </trkpt>
      <trkpt lat="40.8155690" lon="0.2439560">
        <ele>580.0</ele>
        <time>2019-08-15T13:00:22Z</time>
      </trkpt>
      <trkpt lat="40.8155530" lon="0.2439710">
        <ele>580.0</ele>
        <time>2019-08-15T13:00:23Z</time>
      </trkpt>
      <trkpt lat="40.8155370" lon="0.2439890">
        <ele>580.0</ele>
        <time>2019-08-15T13:00:24Z</time>
      </trkpt>
      <trkpt lat="40.8154980" lon="0.2440300">
        <ele>580.0</ele>
        <time>2019-08-15T13:00:26Z</time>
      </trkpt>
      <trkpt lat="40.8154770" lon="0.2440520">
        <ele>580.0</ele>
        <time>2019-08-15T13:00:27Z</time>
      </trkpt>
      <trkpt lat="40.8154590" lon="0.2440730">
        <ele>580.0</ele>
        <time>2019-08-15T13:00:28Z</time>
      </trkpt>
      <trkpt lat="40.8154450" lon="0.2440900">
        <ele>580.0</ele>
        <time>2019-08-15T13:00:29Z</time>
      </trkpt>
      <trkpt lat="40.8154160" lon="0.2441220">
        <ele>581.0</ele>
        <time>2019-08-15T13:00:31Z</time>
      </trkpt>
      <trkpt lat="40.8154000" lon="0.2441380">
        <ele>581.0</ele>
        <time>2019-08-15T13:00:32Z</time>
      </trkpt>
      <trkpt lat="40.8153850" lon="0.2441510">
        <ele>581.0</ele>
        <time>2019-08-15T13:00:33Z</time>
      </trkpt>
      <trkpt lat="40.8153660" lon="0.2441640">
        <ele>581.0</ele>
        <time>2019-08-15T13:00:34Z</time>
      </trkpt>
      <trkpt lat="40.8153310" lon="0.2441910">
        <ele>581.0</ele>
        <time>2019-08-15T13:00:36Z</time>
      </trkpt>
      <trkpt lat="40.8153110" lon="0.2442090">
        <ele>581.0</ele>
        <time>2019-08-15T13:00:37Z</time>
      </trkpt>
      <trkpt lat="40.8152910" lon="0.2442240">
        <ele>581.0</ele>
        <time>2019-08-15T13:00:38Z</time>
      </trkpt>
      <trkpt lat="40.8152740" lon="0.2442370">
        <ele>581.0</ele>
        <time>2019-08-15T13:00:39Z</time>
      </trkpt>
      <trkpt lat="40.8152410" lon="0.2442550">
        <ele>581.0</ele>
        <time>2019-08-15T13:00:41Z</time>
      </trkpt>
      <trkpt lat="40.8152220" lon="0.2442630">
        <ele>581.0</ele>
        <time>2019-08-15T13:00:42Z</time>
      </trkpt>
      <trkpt lat="40.8152020" lon="0.2442710">
        <ele>581.0</ele>
        <time>2019-08-15T13:00:43Z</time>
      </trkpt>
      <trkpt lat="40.8151810" lon="0.2442780">
        <ele>581.0</ele>
        <time>2019-08-15T13:00:44Z</time>
      </trkpt>
      <trkpt lat="40.8151400" lon="0.2442860">
        <ele>581.0</ele>
        <time>2019-08-15T13:00:46Z</time>
      </trkpt>
      <trkpt lat="40.8151210" lon="0.2442870">
        <ele>581.0</ele>
        <time>2019-08-15T13:00:47Z</time>
      </trkpt>
      <trkpt lat="40.8151000" lon="0.2442900">
        <ele>581.0</ele>
        <time>2019-08-15T13:00:48Z</time>
      </trkpt>
      <trkpt lat="40.8150830" lon="0.2442890">
        <ele>581.0</ele>
        <time>2019-08-15T13:00:49Z</time>
      </trkpt>
      <trkpt lat="40.8150420" lon="0.2442850">
        <ele>581.0</ele>
        <time>2019-08-15T13:00:51Z</time>
      </trkpt>
      <trkpt lat="40.8150210" lon="0.2442810">
        <ele>581.0</ele>
        <time>2019-08-15T13:00:52Z</time>
      </trkpt>
      <trkpt lat="40.8149980" lon="0.2442760">
        <ele>581.0</ele>
        <time>2019-08-15T13:00:53Z</time>
      </trkpt>
      <trkpt lat="40.8149740" lon="0.2442690">
        <ele>581.0</ele>
        <time>2019-08-15T13:00:54Z</time>
      </trkpt>
      <trkpt lat="40.8149470" lon="0.2442610">
        <ele>581.0</ele>
        <time>2019-08-15T13:00:55Z</time>
      </trkpt>
      <trkpt lat="40.8149220" lon="0.2442550">
        <ele>581.0</ele>
        <time>2019-08-15T13:00:56Z</time>
      </trkpt>
      <trkpt lat="40.8148960" lon="0.2442470">
        <ele>581.0</ele>
        <time>2019-08-15T13:00:57Z</time>
      </trkpt>
      <trkpt lat="40.8148760" lon="0.2442380">
        <ele>581.0</ele>
        <time>2019-08-15T13:00:58Z</time>
      </trkpt>
      <trkpt lat="40.8148540" lon="0.2442290">
        <ele>581.0</ele>
        <time>2019-08-15T13:00:59Z</time>
      </trkpt>
      <trkpt lat="40.8148300" lon="0.2442230">
        <ele>581.0</ele>
        <time>2019-08-15T13:01:00Z</time>
      </trkpt>
      <trkpt lat="40.8148030" lon="0.2442190">
        <ele>581.0</ele>
        <time>2019-08-15T13:01:01Z</time>
      </trkpt>
      <trkpt lat="40.8147810" lon="0.2442100">
        <ele>581.0</ele>
        <time>2019-08-15T13:01:02Z</time>
      </trkpt>
      <trkpt lat="40.8147600" lon="0.2441980">
        <ele>581.0</ele>
        <time>2019-08-15T13:01:03Z</time>
      </trkpt>
      <trkpt lat="40.8147350" lon="0.2441790">
        <ele>581.0</ele>
        <time>2019-08-15T13:01:04Z</time>
      </trkpt>
      <trkpt lat="40.8147130" lon="0.2441630">
        <ele>581.0</ele>
        <time>2019-08-15T13:01:05Z</time>
      </trkpt>
      <trkpt lat="40.8146960" lon="0.2441420">
        <ele>581.0</ele>
        <time>2019-08-15T13:01:06Z</time>
      </trkpt>
      <trkpt lat="40.8146810" lon="0.2441220">
        <ele>581.0</ele>
        <time>2019-08-15T13:01:07Z</time>
      </trkpt>
      <trkpt lat="40.8146630" lon="0.2441040">
        <ele>581.0</ele>
        <time>2019-08-15T13:01:08Z</time>
      </trkpt>
      <trkpt lat="40.8146490" lon="0.2440840">
        <ele>581.0</ele>
        <time>2019-08-15T13:01:09Z</time>
      </trkpt>
      <trkpt lat="40.8146380" lon="0.2440640">
        <ele>581.0</ele>
        <time>2019-08-15T13:01:10Z</time>
      </trkpt>
      <trkpt lat="40.8146250" lon="0.2440480">
        <ele>581.0</ele>
        <time>2019-08-15T13:01:11Z</time>
      </trkpt>
      <trkpt lat="40.8146130" lon="0.2440330">
        <ele>581.0</ele>
        <time>2019-08-15T13:01:12Z</time>
      </trkpt>
      <trkpt lat="40.8146020" lon="0.2440150">
        <ele>581.0</ele>
        <time>2019-08-15T13:01:13Z</time>
      </trkpt>
      <trkpt lat="40.8145890" lon="0.2439960">
        <ele>581.0</ele>
        <time>2019-08-15T13:01:14Z</time>
      </trkpt>
      <trkpt lat="40.8145790" lon="0.2439750">
        <ele>581.0</ele>
        <time>2019-08-15T13:01:15Z</time>
      </trkpt>
      <trkpt lat="40.8145680" lon="0.2439590">
        <ele>581.0</ele>
        <time>2019-08-15T13:01:16Z</time>
      </trkpt>
      <trkpt lat="40.8145580" lon="0.2439410">
        <ele>582.0</ele>
        <time>2019-08-15T13:01:17Z</time>
      </trkpt>
      <trkpt lat="40.8145560" lon="0.2439140">
        <ele>582.0</ele>
        <time>2019-08-15T13:01:18Z</time>
      </trkpt>
      <trkpt lat="40.8145460" lon="0.2438960">
        <ele>582.0</ele>
        <time>2019-08-15T13:01:19Z</time>
      </trkpt>
      <trkpt lat="40.8145340" lon="0.2438820">
        <ele>582.0</ele>
        <time>2019-08-15T13:01:20Z</time>
      </trkpt>
      <trkpt lat="40.8145210" lon="0.2438680">
        <ele>582.0</ele>
        <time>2019-08-15T13:01:21Z</time>
      </trkpt>
      <trkpt lat="40.8145100" lon="0.2438560">
        <ele>582.0</ele>
        <time>2019-08-15T13:01:22Z</time>
      </trkpt>
      <trkpt lat="40.8144930" lon="0.2438270">
        <ele>582.0</ele>
        <time>2019-08-15T13:01:24Z</time>
      </trkpt>
      <trkpt lat="40.8144830" lon="0.2438110">
        <ele>582.0</ele>
        <time>2019-08-15T13:01:25Z</time>
      </trkpt>
      <trkpt lat="40.8144690" lon="0.2438010">
        <ele>582.0</ele>
        <time>2019-08-15T13:01:26Z</time>
      </trkpt>
      <trkpt lat="40.8144280" lon="0.2437720">
        <ele>583.0</ele>
        <time>2019-08-15T13:01:29Z</time>
      </trkpt>
      <trkpt lat="40.8144130" lon="0.2437640">
        <ele>583.0</ele>
        <time>2019-08-15T13:01:30Z</time>
      </trkpt>
      <trkpt lat="40.8143980" lon="0.2437540">
        <ele>583.0</ele>
        <time>2019-08-15T13:01:31Z</time>
      </trkpt>
      <trkpt lat="40.8143480" lon="0.2437260">
        <ele>584.0</ele>
        <time>2019-08-15T13:01:34Z</time>
      </trkpt>
      <trkpt lat="40.8143260" lon="0.2437200">
        <ele>584.0</ele>
        <time>2019-08-15T13:01:35Z</time>
      </trkpt>
      <trkpt lat="40.8143040" lon="0.2437140">
        <ele>584.0</ele>
        <time>2019-08-15T13:01:36Z</time>
      </trkpt>
      <trkpt lat="40.8142820" lon="0.2437090">
        <ele>584.0</ele>
        <time>2019-08-15T13:01:37Z</time>
      </trkpt>
      <trkpt lat="40.8142420" lon="0.2437000">
        <ele>584.0</ele>
        <time>2019-08-15T13:01:39Z</time>
      </trkpt>
      <trkpt lat="40.8142200" lon="0.2436950">
        <ele>584.0</ele>
        <time>2019-08-15T13:01:40Z</time>
      </trkpt>
      <trkpt lat="40.8141980" lon="0.2436910">
        <ele>584.0</ele>
        <time>2019-08-15T13:01:41Z</time>
      </trkpt>
      <trkpt lat="40.8141770" lon="0.2436840">
        <ele>584.0</ele>
        <time>2019-08-15T13:01:42Z</time>
      </trkpt>
      <trkpt lat="40.8141300" lon="0.2436710">
        <ele>584.0</ele>
        <time>2019-08-15T13:01:44Z</time>
      </trkpt>
      <trkpt lat="40.8141090" lon="0.2436640">
        <ele>584.0</ele>
        <time>2019-08-15T13:01:45Z</time>
      </trkpt>
      <trkpt lat="40.8140860" lon="0.2436590">
        <ele>584.0</ele>
        <time>2019-08-15T13:01:46Z</time>
      </trkpt>
      <trkpt lat="40.8140640" lon="0.2436530">
        <ele>584.0</ele>
        <time>2019-08-15T13:01:47Z</time>
      </trkpt>
      <trkpt lat="40.8140200" lon="0.2436360">
        <ele>584.0</ele>
        <time>2019-08-15T13:01:49Z</time>
      </trkpt>
      <trkpt lat="40.8139970" lon="0.2436290">
        <ele>584.0</ele>
        <time>2019-08-15T13:01:50Z</time>
      </trkpt>
      <trkpt lat="40.8139730" lon="0.2436240">
        <ele>584.0</ele>
        <time>2019-08-15T13:01:51Z</time>
      </trkpt>
      <trkpt lat="40.8139460" lon="0.2436150">
        <ele>583.0</ele>
        <time>2019-08-15T13:01:52Z</time>
      </trkpt>
      <trkpt lat="40.8138920" lon="0.2436160">
        <ele>583.0</ele>
        <time>2019-08-15T13:01:54Z</time>
      </trkpt>
      <trkpt lat="40.8138650" lon="0.2436150">
        <ele>583.0</ele>
        <time>2019-08-15T13:01:55Z</time>
      </trkpt>
      <trkpt lat="40.8138390" lon="0.2436160">
        <ele>583.0</ele>
        <time>2019-08-15T13:01:56Z</time>
      </trkpt>
      <trkpt lat="40.8138130" lon="0.2436200">
        <ele>583.0</ele>
        <time>2019-08-15T13:01:57Z</time>
      </trkpt>
      <trkpt lat="40.8137620" lon="0.2436330">
        <ele>583.0</ele>
        <time>2019-08-15T13:01:59Z</time>
      </trkpt>
      <trkpt lat="40.8137370" lon="0.2436440">
        <ele>583.0</ele>
        <time>2019-08-15T13:02:00Z</time>
      </trkpt>
      <trkpt lat="40.8137130" lon="0.2436510">
        <ele>583.0</ele>
        <time>2019-08-15T13:02:01Z</time>
      </trkpt>
      <trkpt lat="40.8136900" lon="0.2436610">
        <ele>583.0</ele>
        <time>2019-08-15T13:02:02Z</time>
      </trkpt>
      <trkpt lat="40.8136450" lon="0.2436790">
        <ele>583.0</ele>
        <time>2019-08-15T13:02:04Z</time>
      </trkpt>
      <trkpt lat="40.8136210" lon="0.2436890">
        <ele>583.0</ele>
        <time>2019-08-15T13:02:05Z</time>
      </trkpt>
      <trkpt lat="40.8136000" lon="0.2437000">
        <ele>583.0</ele>
        <time>2019-08-15T13:02:06Z</time>
      </trkpt>
      <trkpt lat="40.8135800" lon="0.2437120">
        <ele>583.0</ele>
        <time>2019-08-15T13:02:07Z</time>
      </trkpt>
      <trkpt lat="40.8135330" lon="0.2437360">
        <ele>583.0</ele>
        <time>2019-08-15T13:02:09Z</time>
      </trkpt>
      <trkpt lat="40.8135250" lon="0.2437430">
        <ele>583.0</ele>
        <time>2019-08-15T13:02:10Z</time>
      </trkpt>
      <trkpt lat="40.8135080" lon="0.2437600">
        <ele>583.0</ele>
        <time>2019-08-15T13:02:11Z</time>
      </trkpt>
      <trkpt lat="40.8134910" lon="0.2437760">
        <ele>584.0</ele>
        <time>2019-08-15T13:02:12Z</time>
      </trkpt>
      <trkpt lat="40.8134750" lon="0.2437940">
        <ele>584.0</ele>
        <time>2019-08-15T13:02:13Z</time>
      </trkpt>
      <trkpt lat="40.8134610" lon="0.2438120">
        <ele>584.0</ele>
        <time>2019-08-15T13:02:14Z</time>
      </trkpt>
      <trkpt lat="40.8134490" lon="0.2438290">
        <ele>584.0</ele>
        <time>2019-08-15T13:02:15Z</time>
      </trkpt>
      <trkpt lat="40.8134380" lon="0.2438460">
        <ele>584.0</ele>
        <time>2019-08-15T13:02:16Z</time>
      </trkpt>
      <trkpt lat="40.8134280" lon="0.2438670">
        <ele>584.0</ele>
        <time>2019-08-15T13:02:17Z</time>
      </trkpt>
      <trkpt lat="40.8134180" lon="0.2438920">
        <ele>584.0</ele>
        <time>2019-08-15T13:02:18Z</time>
      </trkpt>
      <trkpt lat="40.8134060" lon="0.2439170">
        <ele>584.0</ele>
        <time>2019-08-15T13:02:19Z</time>
      </trkpt>
      <trkpt lat="40.8133960" lon="0.2439460">
        <ele>584.0</ele>
        <time>2019-08-15T13:02:20Z</time>
      </trkpt>
      <trkpt lat="40.8133880" lon="0.2439780">
        <ele>584.0</ele>
        <time>2019-08-15T13:02:21Z</time>
      </trkpt>
      <trkpt lat="40.8133800" lon="0.2440070">
        <ele>584.0</ele>
        <time>2019-08-15T13:02:22Z</time>
      </trkpt>
      <trkpt lat="40.8133720" lon="0.2440340">
        <ele>584.0</ele>
        <time>2019-08-15T13:02:23Z</time>
      </trkpt>
      <trkpt lat="40.8133660" lon="0.2440620">
        <ele>584.0</ele>
        <time>2019-08-15T13:02:24Z</time>
      </trkpt>
      <trkpt lat="40.8133590" lon="0.2440920">
        <ele>584.0</ele>
        <time>2019-08-15T13:02:25Z</time>
      </trkpt>
      <trkpt lat="40.8133480" lon="0.2441200">
        <ele>585.0</ele>
        <time>2019-08-15T13:02:26Z</time>
      </trkpt>
      <trkpt lat="40.8133360" lon="0.2441420">
        <ele>585.0</ele>
        <time>2019-08-15T13:02:27Z</time>
      </trkpt>
      <trkpt lat="40.8133220" lon="0.2441670">
        <ele>585.0</ele>
        <time>2019-08-15T13:02:28Z</time>
      </trkpt>
      <trkpt lat="40.8133070" lon="0.2441960">
        <ele>585.0</ele>
        <time>2019-08-15T13:02:29Z</time>
      </trkpt>
      <trkpt lat="40.8132920" lon="0.2442280">
        <ele>585.0</ele>
        <time>2019-08-15T13:02:30Z</time>
      </trkpt>
      <trkpt lat="40.8132760" lon="0.2442570">
        <ele>585.0</ele>
        <time>2019-08-15T13:02:31Z</time>
      </trkpt>
      <trkpt lat="40.8132620" lon="0.2442840">
        <ele>585.0</ele>
        <time>2019-08-15T13:02:32Z</time>
      </trkpt>
      <trkpt lat="40.8132430" lon="0.2443120">
        <ele>585.0</ele>
        <time>2019-08-15T13:02:33Z</time>
      </trkpt>
      <trkpt lat="40.8132260" lon="0.2443360">
        <ele>585.0</ele>
        <time>2019-08-15T13:02:34Z</time>
      </trkpt>
      <trkpt lat="40.8132070" lon="0.2443610">
        <ele>585.0</ele>
        <time>2019-08-15T13:02:35Z</time>
      </trkpt>
      <trkpt lat="40.8131850" lon="0.2443850">
        <ele>585.0</ele>
        <time>2019-08-15T13:02:36Z</time>
      </trkpt>
      <trkpt lat="40.8131300" lon="0.2444480">
        <ele>585.0</ele>
        <time>2019-08-15T13:02:39Z</time>
      </trkpt>
      <trkpt lat="40.8131110" lon="0.2444680">
        <ele>584.0</ele>
        <time>2019-08-15T13:02:40Z</time>
      </trkpt>
      <trkpt lat="40.8130950" lon="0.2444850">
        <ele>584.0</ele>
        <time>2019-08-15T13:02:41Z</time>
      </trkpt>
      <trkpt lat="40.8130340" lon="0.2445360">
        <ele>584.0</ele>
        <time>2019-08-15T13:02:44Z</time>
      </trkpt>
      <trkpt lat="40.8130140" lon="0.2445520">
        <ele>584.0</ele>
        <time>2019-08-15T13:02:45Z</time>
      </trkpt>
      <trkpt lat="40.8129980" lon="0.2445720">
        <ele>584.0</ele>
        <time>2019-08-15T13:02:46Z</time>
      </trkpt>
      <trkpt lat="40.8129840" lon="0.2445910">
        <ele>584.0</ele>
        <time>2019-08-15T13:02:47Z</time>
      </trkpt>
      <trkpt lat="40.8129550" lon="0.2446260">
        <ele>584.0</ele>
        <time>2019-08-15T13:02:49Z</time>
      </trkpt>
      <trkpt lat="40.8129420" lon="0.2446460">
        <ele>584.0</ele>
        <time>2019-08-15T13:02:50Z</time>
      </trkpt>
      <trkpt lat="40.8129330" lon="0.2446690">
        <ele>584.0</ele>
        <time>2019-08-15T13:02:51Z</time>
      </trkpt>
      <trkpt lat="40.8129230" lon="0.2446910">
        <ele>585.0</ele>
        <time>2019-08-15T13:02:52Z</time>
      </trkpt>
      <trkpt lat="40.8129100" lon="0.2447380">
        <ele>585.0</ele>
        <time>2019-08-15T13:02:54Z</time>
      </trkpt>
      <trkpt lat="40.8129080" lon="0.2447590">
        <ele>585.0</ele>
        <time>2019-08-15T13:02:55Z</time>
      </trkpt>
      <trkpt lat="40.8129070" lon="0.2447780">
        <ele>585.0</ele>
        <time>2019-08-15T13:02:56Z</time>
      </trkpt>
      <trkpt lat="40.8129110" lon="0.2447970">
        <ele>585.0</ele>
        <time>2019-08-15T13:02:57Z</time>
      </trkpt>
      <trkpt lat="40.8129120" lon="0.2448420">
        <ele>585.0</ele>
        <time>2019-08-15T13:02:59Z</time>
      </trkpt>
      <trkpt lat="40.8129100" lon="0.2448620">
        <ele>585.0</ele>
        <time>2019-08-15T13:03:00Z</time>
      </trkpt>
      <trkpt lat="40.8129080" lon="0.2448780">
        <ele>585.0</ele>
        <time>2019-08-15T13:03:01Z</time>
      </trkpt>
      <trkpt lat="40.8129090" lon="0.2448960">
        <ele>585.0</ele>
        <time>2019-08-15T13:03:02Z</time>
      </trkpt>
      <trkpt lat="40.8129090" lon="0.2449180">
        <ele>585.0</ele>
        <time>2019-08-15T13:03:03Z</time>
      </trkpt>
      <trkpt lat="40.8129040" lon="0.2449390">
        <ele>585.0</ele>
        <time>2019-08-15T13:03:04Z</time>
      </trkpt>
      <trkpt lat="40.8129000" lon="0.2449600">
        <ele>586.0</ele>
        <time>2019-08-15T13:03:05Z</time>
      </trkpt>
      <trkpt lat="40.8128890" lon="0.2449910">
        <ele>586.0</ele>
        <time>2019-08-15T13:03:07Z</time>
      </trkpt>
      <trkpt lat="40.8128890" lon="0.2450050">
        <ele>586.0</ele>
        <time>2019-08-15T13:03:08Z</time>
      </trkpt>
      <trkpt lat="40.8129110" lon="0.2449080">
        <ele>587.0</ele>
        <time>2019-08-15T13:03:25Z</time>
      </trkpt>
      <trkpt lat="40.8129130" lon="0.2448800">
        <ele>586.0</ele>
        <time>2019-08-15T13:03:27Z</time>
      </trkpt>
      <trkpt lat="40.8129180" lon="0.2448520">
        <ele>586.0</ele>
        <time>2019-08-15T13:03:28Z</time>
      </trkpt>
      <trkpt lat="40.8129200" lon="0.2448280">
        <ele>586.0</ele>
        <time>2019-08-15T13:03:29Z</time>
      </trkpt>
      <trkpt lat="40.8129130" lon="0.2448040">
        <ele>586.0</ele>
        <time>2019-08-15T13:03:30Z</time>
      </trkpt>
      <trkpt lat="40.8129040" lon="0.2447830">
        <ele>586.0</ele>
        <time>2019-08-15T13:03:31Z</time>
      </trkpt>
      <trkpt lat="40.8128960" lon="0.2447660">
        <ele>586.0</ele>
        <time>2019-08-15T13:03:32Z</time>
      </trkpt>
      <trkpt lat="40.8128840" lon="0.2447590">
        <ele>586.0</ele>
        <time>2019-08-15T13:03:33Z</time>
      </trkpt>
      <trkpt lat="40.8128710" lon="0.2447530">
        <ele>586.0</ele>
        <time>2019-08-15T13:03:34Z</time>
      </trkpt>
      <trkpt lat="40.8128570" lon="0.2447470">
        <ele>586.0</ele>
        <time>2019-08-15T13:03:35Z</time>
      </trkpt>
      <trkpt lat="40.8128430" lon="0.2447410">
        <ele>586.0</ele>
        <time>2019-08-15T13:03:36Z</time>
      </trkpt>
      <trkpt lat="40.8128240" lon="0.2447380">
        <ele>586.0</ele>
        <time>2019-08-15T13:03:37Z</time>
      </trkpt>
      <trkpt lat="40.8128120" lon="0.2447400">
        <ele>586.0</ele>
        <time>2019-08-15T13:03:38Z</time>
      </trkpt>
      <trkpt lat="40.8127670" lon="0.2447620">
        <ele>586.0</ele>
        <time>2019-08-15T13:03:41Z</time>
      </trkpt>
      <trkpt lat="40.8127510" lon="0.2447710">
        <ele>586.0</ele>
        <time>2019-08-15T13:03:42Z</time>
      </trkpt>
      <trkpt lat="40.8127360" lon="0.2447820">
        <ele>586.0</ele>
        <time>2019-08-15T13:03:43Z</time>
      </trkpt>
      <trkpt lat="40.8127050" lon="0.2448140">
        <ele>585.0</ele>
        <time>2019-08-15T13:03:45Z</time>
      </trkpt>
      <trkpt lat="40.8126910" lon="0.2448280">
        <ele>585.0</ele>
        <time>2019-08-15T13:03:46Z</time>
      </trkpt>
      <trkpt lat="40.8126780" lon="0.2448400">
        <ele>585.0</ele>
        <time>2019-08-15T13:03:47Z</time>
      </trkpt>
      <trkpt lat="40.8126650" lon="0.2448470">
        <ele>585.0</ele>
        <time>2019-08-15T13:03:48Z</time>
      </trkpt>
      <trkpt lat="40.8126490" lon="0.2448520">
        <ele>585.0</ele>
        <time>2019-08-15T13:03:49Z</time>
      </trkpt>
      <trkpt lat="40.8126320" lon="0.2448560">
        <ele>585.0</ele>
        <time>2019-08-15T13:03:50Z</time>
      </trkpt>
      <trkpt lat="40.8126150" lon="0.2448590">
        <ele>585.0</ele>
        <time>2019-08-15T13:03:51Z</time>
      </trkpt>
      <trkpt lat="40.8125950" lon="0.2448630">
        <ele>585.0</ele>
        <time>2019-08-15T13:03:52Z</time>
      </trkpt>
      <trkpt lat="40.8125770" lon="0.2448650">
        <ele>585.0</ele>
        <time>2019-08-15T13:03:53Z</time>
      </trkpt>
      <trkpt lat="40.8125610" lon="0.2448690">
        <ele>585.0</ele>
        <time>2019-08-15T13:03:54Z</time>
      </trkpt>
      <trkpt lat="40.8125450" lon="0.2448740">
        <ele>585.0</ele>
        <time>2019-08-15T13:03:55Z</time>
      </trkpt>
      <trkpt lat="40.8125290" lon="0.2448790">
        <ele>585.0</ele>
        <time>2019-08-15T13:03:56Z</time>
      </trkpt>
      <trkpt lat="40.8125130" lon="0.2448850">
        <ele>585.0</ele>
        <time>2019-08-15T13:03:57Z</time>
      </trkpt>
      <trkpt lat="40.8124970" lon="0.2448870">
        <ele>585.0</ele>
        <time>2019-08-15T13:03:58Z</time>
      </trkpt>
      <trkpt lat="40.8124640" lon="0.2448900">
        <ele>585.0</ele>
        <time>2019-08-15T13:04:00Z</time>
      </trkpt>
      <trkpt lat="40.8124470" lon="0.2448960">
        <ele>585.0</ele>
        <time>2019-08-15T13:04:01Z</time>
      </trkpt>
      <trkpt lat="40.8124300" lon="0.2448980">
        <ele>585.0</ele>
        <time>2019-08-15T13:04:02Z</time>
      </trkpt>
      <trkpt lat="40.8123890" lon="0.2449090">
        <ele>586.0</ele>
        <time>2019-08-15T13:04:05Z</time>
      </trkpt>
      <trkpt lat="40.8123760" lon="0.2449090">
        <ele>585.0</ele>
        <time>2019-08-15T13:04:06Z</time>
      </trkpt>
      <trkpt lat="40.8123660" lon="0.2449130">
        <ele>585.0</ele>
        <time>2019-08-15T13:04:07Z</time>
      </trkpt>
      <trkpt lat="40.8126200" lon="0.2450380">
        <ele>589.0</ele>
        <time>2019-08-15T14:35:28Z</time>
      </trkpt>
      <trkpt lat="40.8126270" lon="0.2450320">
        <ele>589.0</ele>
        <time>2019-08-15T14:35:29Z</time>
      </trkpt>
      <trkpt lat="40.8126330" lon="0.2450260">
        <ele>589.0</ele>
        <time>2019-08-15T14:35:30Z</time>
      </trkpt>
      <trkpt lat="40.8126990" lon="0.2450410">
        <ele>589.0</ele>
        <time>2019-08-15T14:35:32Z</time>
      </trkpt>
      <trkpt lat="40.8127550" lon="0.2450560">
        <ele>589.0</ele>
        <time>2019-08-15T14:35:33Z</time>
      </trkpt>
      <trkpt lat="40.8127830" lon="0.2450290">
        <ele>589.0</ele>
        <time>2019-08-15T14:35:34Z</time>
      </trkpt>
      <trkpt lat="40.8128130" lon="0.2449970">
        <ele>589.0</ele>
        <time>2019-08-15T14:35:36Z</time>
      </trkpt>
      <trkpt lat="40.8128290" lon="0.2449780">
        <ele>589.0</ele>
        <time>2019-08-15T14:35:37Z</time>
      </trkpt>
      <trkpt lat="40.8128440" lon="0.2449620">
        <ele>589.0</ele>
        <time>2019-08-15T14:35:38Z</time>
      </trkpt>
      <trkpt lat="40.8128690" lon="0.2449190">
        <ele>589.0</ele>
        <time>2019-08-15T14:35:39Z</time>
      </trkpt>
      <trkpt lat="40.8128850" lon="0.2449020">
        <ele>589.0</ele>
        <time>2019-08-15T14:35:40Z</time>
      </trkpt>
      <trkpt lat="40.8128990" lon="0.2448960">
        <ele>589.0</ele>
        <time>2019-08-15T14:35:41Z</time>
      </trkpt>
      <trkpt lat="40.8129100" lon="0.2448940">
        <ele>589.0</ele>
        <time>2019-08-15T14:35:42Z</time>
      </trkpt>
      <trkpt lat="40.8129220" lon="0.2448880">
        <ele>589.0</ele>
        <time>2019-08-15T14:35:43Z</time>
      </trkpt>
      <trkpt lat="40.8129380" lon="0.2448800">
        <ele>589.0</ele>
        <time>2019-08-15T14:35:44Z</time>
      </trkpt>
      <trkpt lat="40.8129550" lon="0.2448520">
        <ele>589.0</ele>
        <time>2019-08-15T14:35:45Z</time>
      </trkpt>
      <trkpt lat="40.8131810" lon="0.2444300">
        <ele>589.0</ele>
        <time>2019-08-15T14:36:00Z</time>
      </trkpt>
      <trkpt lat="40.8131800" lon="0.2444240">
        <ele>589.0</ele>
        <time>2019-08-15T14:36:01Z</time>
      </trkpt>
      <trkpt lat="40.8132100" lon="0.2443630">
        <ele>589.0</ele>
        <time>2019-08-15T14:36:03Z</time>
      </trkpt>
      <trkpt lat="40.8132170" lon="0.2443550">
        <ele>589.0</ele>
        <time>2019-08-15T14:36:04Z</time>
      </trkpt>
      <trkpt lat="40.8132330" lon="0.2443210">
        <ele>589.0</ele>
        <time>2019-08-15T14:36:05Z</time>
      </trkpt>
      <trkpt lat="40.8132490" lon="0.2442870">
        <ele>589.0</ele>
        <time>2019-08-15T14:36:06Z</time>
      </trkpt>
      <trkpt lat="40.8132700" lon="0.2442540">
        <ele>589.0</ele>
        <time>2019-08-15T14:36:07Z</time>
      </trkpt>
      <trkpt lat="40.8132870" lon="0.2442240">
        <ele>589.0</ele>
        <time>2019-08-15T14:36:08Z</time>
      </trkpt>
      <trkpt lat="40.8133050" lon="0.2441950">
        <ele>589.0</ele>
        <time>2019-08-15T14:36:09Z</time>
      </trkpt>
      <trkpt lat="40.8133200" lon="0.2441680">
        <ele>588.0</ele>
        <time>2019-08-15T14:36:10Z</time>
      </trkpt>
      <trkpt lat="40.8133350" lon="0.2441420">
        <ele>588.0</ele>
        <time>2019-08-15T14:36:11Z</time>
      </trkpt>
      <trkpt lat="40.8133480" lon="0.2441150">
        <ele>588.0</ele>
        <time>2019-08-15T14:36:12Z</time>
      </trkpt>
      <trkpt lat="40.8133580" lon="0.2440840">
        <ele>588.0</ele>
        <time>2019-08-15T14:36:13Z</time>
      </trkpt>
      <trkpt lat="40.8133690" lon="0.2440530">
        <ele>588.0</ele>
        <time>2019-08-15T14:36:14Z</time>
      </trkpt>
      <trkpt lat="40.8133960" lon="0.2439630">
        <ele>588.0</ele>
        <time>2019-08-15T14:36:17Z</time>
      </trkpt>
      <trkpt lat="40.8134040" lon="0.2439360">
        <ele>588.0</ele>
        <time>2019-08-15T14:36:18Z</time>
      </trkpt>
      <trkpt lat="40.8134170" lon="0.2439060">
        <ele>588.0</ele>
        <time>2019-08-15T14:36:19Z</time>
      </trkpt>
      <trkpt lat="40.8134280" lon="0.2438800">
        <ele>588.0</ele>
        <time>2019-08-15T14:36:20Z</time>
      </trkpt>
      <trkpt lat="40.8134530" lon="0.2438350">
        <ele>589.0</ele>
        <time>2019-08-15T14:36:23Z</time>
      </trkpt>
      <trkpt lat="40.8134710" lon="0.2438070">
        <ele>589.0</ele>
        <time>2019-08-15T14:36:24Z</time>
      </trkpt>
      <trkpt lat="40.8134930" lon="0.2437810">
        <ele>589.0</ele>
        <time>2019-08-15T14:36:25Z</time>
      </trkpt>
      <trkpt lat="40.8135160" lon="0.2437570">
        <ele>589.0</ele>
        <time>2019-08-15T14:36:26Z</time>
      </trkpt>
      <trkpt lat="40.8135720" lon="0.2437160">
        <ele>589.0</ele>
        <time>2019-08-15T14:36:28Z</time>
      </trkpt>
      <trkpt lat="40.8136030" lon="0.2436990">
        <ele>589.0</ele>
        <time>2019-08-15T14:36:29Z</time>
      </trkpt>
      <trkpt lat="40.8136360" lon="0.2436860">
        <ele>589.0</ele>
        <time>2019-08-15T14:36:30Z</time>
      </trkpt>
      <trkpt lat="40.8136700" lon="0.2436700">
        <ele>589.0</ele>
        <time>2019-08-15T14:36:31Z</time>
      </trkpt>
      <trkpt lat="40.8137410" lon="0.2436520">
        <ele>589.0</ele>
        <time>2019-08-15T14:36:33Z</time>
      </trkpt>
      <trkpt lat="40.8137760" lon="0.2436420">
        <ele>589.0</ele>
        <time>2019-08-15T14:36:34Z</time>
      </trkpt>
      <trkpt lat="40.8138110" lon="0.2436350">
        <ele>589.0</ele>
        <time>2019-08-15T14:36:35Z</time>
      </trkpt>
      <trkpt lat="40.8138430" lon="0.2436320">
        <ele>589.0</ele>
        <time>2019-08-15T14:36:36Z</time>
      </trkpt>
      <trkpt lat="40.8139070" lon="0.2436360">
        <ele>589.0</ele>
        <time>2019-08-15T14:36:38Z</time>
      </trkpt>
      <trkpt lat="40.8139360" lon="0.2436400">
        <ele>588.0</ele>
        <time>2019-08-15T14:36:39Z</time>
      </trkpt>
      <trkpt lat="40.8139630" lon="0.2436460">
        <ele>588.0</ele>
        <time>2019-08-15T14:36:40Z</time>
      </trkpt>
      <trkpt lat="40.8139910" lon="0.2436510">
        <ele>588.0</ele>
        <time>2019-08-15T14:36:41Z</time>
      </trkpt>
      <trkpt lat="40.8140160" lon="0.2436580">
        <ele>588.0</ele>
        <time>2019-08-15T14:36:42Z</time>
      </trkpt>
      <trkpt lat="40.8140390" lon="0.2436640">
        <ele>588.0</ele>
        <time>2019-08-15T14:36:43Z</time>
      </trkpt>
      <trkpt lat="40.8140630" lon="0.2436680">
        <ele>588.0</ele>
        <time>2019-08-15T14:36:44Z</time>
      </trkpt>
      <trkpt lat="40.8140890" lon="0.2436750">
        <ele>588.0</ele>
        <time>2019-08-15T14:36:45Z</time>
      </trkpt>
      <trkpt lat="40.8141150" lon="0.2436880">
        <ele>588.0</ele>
        <time>2019-08-15T14:36:46Z</time>
      </trkpt>
      <trkpt lat="40.8141410" lon="0.2436960">
        <ele>587.0</ele>
        <time>2019-08-15T14:36:47Z</time>
      </trkpt>
      <trkpt lat="40.8141680" lon="0.2437040">
        <ele>587.0</ele>
        <time>2019-08-15T14:36:48Z</time>
      </trkpt>
      <trkpt lat="40.8141930" lon="0.2437120">
        <ele>587.0</ele>
        <time>2019-08-15T14:36:49Z</time>
      </trkpt>
      <trkpt lat="40.8142210" lon="0.2437190">
        <ele>587.0</ele>
        <time>2019-08-15T14:36:50Z</time>
      </trkpt>
      <trkpt lat="40.8142490" lon="0.2437290">
        <ele>588.0</ele>
        <time>2019-08-15T14:36:51Z</time>
      </trkpt>
      <trkpt lat="40.8142760" lon="0.2437350">
        <ele>588.0</ele>
        <time>2019-08-15T14:36:52Z</time>
      </trkpt>
      <trkpt lat="40.8143010" lon="0.2437440">
        <ele>588.0</ele>
        <time>2019-08-15T14:36:53Z</time>
      </trkpt>
      <trkpt lat="40.8143230" lon="0.2437530">
        <ele>588.0</ele>
        <time>2019-08-15T14:36:54Z</time>
      </trkpt>
      <trkpt lat="40.8143450" lon="0.2437610">
        <ele>588.0</ele>
        <time>2019-08-15T14:36:55Z</time>
      </trkpt>
      <trkpt lat="40.8143680" lon="0.2437720">
        <ele>588.0</ele>
        <time>2019-08-15T14:36:56Z</time>
      </trkpt>
      <trkpt lat="40.8143910" lon="0.2437860">
        <ele>588.0</ele>
        <time>2019-08-15T14:36:57Z</time>
      </trkpt>
      <trkpt lat="40.8144130" lon="0.2438000">
        <ele>588.0</ele>
        <time>2019-08-15T14:36:58Z</time>
      </trkpt>
      <trkpt lat="40.8144340" lon="0.2438150">
        <ele>588.0</ele>
        <time>2019-08-15T14:36:59Z</time>
      </trkpt>
      <trkpt lat="40.8144540" lon="0.2438340">
        <ele>588.0</ele>
        <time>2019-08-15T14:37:00Z</time>
      </trkpt>
      <trkpt lat="40.8144760" lon="0.2438570">
        <ele>588.0</ele>
        <time>2019-08-15T14:37:01Z</time>
      </trkpt>
      <trkpt lat="40.8144990" lon="0.2438850">
        <ele>588.0</ele>
        <time>2019-08-15T14:37:02Z</time>
      </trkpt>
      <trkpt lat="40.8145210" lon="0.2439170">
        <ele>588.0</ele>
        <time>2019-08-15T14:37:03Z</time>
      </trkpt>
      <trkpt lat="40.8145470" lon="0.2439560">
        <ele>588.0</ele>
        <time>2019-08-15T14:37:04Z</time>
      </trkpt>
      <trkpt lat="40.8145720" lon="0.2439980">
        <ele>588.0</ele>
        <time>2019-08-15T14:37:05Z</time>
      </trkpt>
      <trkpt lat="40.8145950" lon="0.2440350">
        <ele>588.0</ele>
        <time>2019-08-15T14:37:06Z</time>
      </trkpt>
      <trkpt lat="40.8146120" lon="0.2440750">
        <ele>588.0</ele>
        <time>2019-08-15T14:37:07Z</time>
      </trkpt>
      <trkpt lat="40.8146310" lon="0.2441110">
        <ele>588.0</ele>
        <time>2019-08-15T14:37:08Z</time>
      </trkpt>
      <trkpt lat="40.8146510" lon="0.2441390">
        <ele>587.0</ele>
        <time>2019-08-15T14:37:09Z</time>
      </trkpt>
      <trkpt lat="40.8146810" lon="0.2441650">
        <ele>587.0</ele>
        <time>2019-08-15T14:37:10Z</time>
      </trkpt>
      <trkpt lat="40.8147260" lon="0.2441890">
        <ele>587.0</ele>
        <time>2019-08-15T14:37:11Z</time>
      </trkpt>
      <trkpt lat="40.8147700" lon="0.2442120">
        <ele>587.0</ele>
        <time>2019-08-15T14:37:12Z</time>
      </trkpt>
      <trkpt lat="40.8148130" lon="0.2442350">
        <ele>587.0</ele>
        <time>2019-08-15T14:37:13Z</time>
      </trkpt>
      <trkpt lat="40.8148530" lon="0.2442490">
        <ele>587.0</ele>
        <time>2019-08-15T14:37:14Z</time>
      </trkpt>
      <trkpt lat="40.8149700" lon="0.2442730">
        <ele>586.0</ele>
        <time>2019-08-15T14:37:17Z</time>
      </trkpt>
      <trkpt lat="40.8150050" lon="0.2442810">
        <ele>586.0</ele>
        <time>2019-08-15T14:37:18Z</time>
      </trkpt>
      <trkpt lat="40.8150430" lon="0.2442880">
        <ele>586.0</ele>
        <time>2019-08-15T14:37:19Z</time>
      </trkpt>
      <trkpt lat="40.8151150" lon="0.2442830">
        <ele>586.0</ele>
        <time>2019-08-15T14:37:21Z</time>
      </trkpt>
      <trkpt lat="40.8151480" lon="0.2442780">
        <ele>585.0</ele>
        <time>2019-08-15T14:37:22Z</time>
      </trkpt>
      <trkpt lat="40.8151810" lon="0.2442680">
        <ele>585.0</ele>
        <time>2019-08-15T14:37:23Z</time>
      </trkpt>
      <trkpt lat="40.8152130" lon="0.2442570">
        <ele>585.0</ele>
        <time>2019-08-15T14:37:24Z</time>
      </trkpt>
      <trkpt lat="40.8152440" lon="0.2442430">
        <ele>585.0</ele>
        <time>2019-08-15T14:37:25Z</time>
      </trkpt>
      <trkpt lat="40.8152750" lon="0.2442310">
        <ele>585.0</ele>
        <time>2019-08-15T14:37:26Z</time>
      </trkpt>
      <trkpt lat="40.8153040" lon="0.2442160">
        <ele>585.0</ele>
        <time>2019-08-15T14:37:27Z</time>
      </trkpt>
      <trkpt lat="40.8153280" lon="0.2441970">
        <ele>585.0</ele>
        <time>2019-08-15T14:37:28Z</time>
      </trkpt>
      <trkpt lat="40.8153550" lon="0.2441780">
        <ele>585.0</ele>
        <time>2019-08-15T14:37:29Z</time>
      </trkpt>
      <trkpt lat="40.8153840" lon="0.2441600">
        <ele>585.0</ele>
        <time>2019-08-15T14:37:30Z</time>
      </trkpt>
      <trkpt lat="40.8154100" lon="0.2441370">
        <ele>585.0</ele>
        <time>2019-08-15T14:37:31Z</time>
      </trkpt>
      <trkpt lat="40.8154370" lon="0.2441120">
        <ele>585.0</ele>
        <time>2019-08-15T14:37:32Z</time>
      </trkpt>
      <trkpt lat="40.8154610" lon="0.2440850">
        <ele>585.0</ele>
        <time>2019-08-15T14:37:33Z</time>
      </trkpt>
      <trkpt lat="40.8154820" lon="0.2440530">
        <ele>585.0</ele>
        <time>2019-08-15T14:37:34Z</time>
      </trkpt>
      <trkpt lat="40.8155050" lon="0.2440230">
        <ele>585.0</ele>
        <time>2019-08-15T14:37:35Z</time>
      </trkpt>
      <trkpt lat="40.8155280" lon="0.2439960">
        <ele>584.0</ele>
        <time>2019-08-15T14:37:36Z</time>
      </trkpt>
      <trkpt lat="40.8155520" lon="0.2439750">
        <ele>584.0</ele>
        <time>2019-08-15T14:37:37Z</time>
      </trkpt>
      <trkpt lat="40.8155730" lon="0.2439550">
        <ele>584.0</ele>
        <time>2019-08-15T14:37:38Z</time>
      </trkpt>
      <trkpt lat="40.8155940" lon="0.2439380">
        <ele>584.0</ele>
        <time>2019-08-15T14:37:39Z</time>
      </trkpt>
      <trkpt lat="40.8156160" lon="0.2439200">
        <ele>584.0</ele>
        <time>2019-08-15T14:37:40Z</time>
      </trkpt>
      <trkpt lat="40.8156420" lon="0.2439050">
        <ele>584.0</ele>
        <time>2019-08-15T14:37:41Z</time>
      </trkpt>
      <trkpt lat="40.8156680" lon="0.2438840">
        <ele>584.0</ele>
        <time>2019-08-15T14:37:42Z</time>
      </trkpt>
      <trkpt lat="40.8156900" lon="0.2438580">
        <ele>584.0</ele>
        <time>2019-08-15T14:37:43Z</time>
      </trkpt>
      <trkpt lat="40.8157170" lon="0.2438300">
        <ele>584.0</ele>
        <time>2019-08-15T14:37:44Z</time>
      </trkpt>
      <trkpt lat="40.8157450" lon="0.2438010">
        <ele>584.0</ele>
        <time>2019-08-15T14:37:45Z</time>
      </trkpt>
      <trkpt lat="40.8157750" lon="0.2437770">
        <ele>584.0</ele>
        <time>2019-08-15T14:37:46Z</time>
      </trkpt>
      <trkpt lat="40.8158060" lon="0.2437550">
        <ele>584.0</ele>
        <time>2019-08-15T14:37:47Z</time>
      </trkpt>
      <trkpt lat="40.8158390" lon="0.2437330">
        <ele>584.0</ele>
        <time>2019-08-15T14:37:48Z</time>
      </trkpt>
      <trkpt lat="40.8158730" lon="0.2437120">
        <ele>584.0</ele>
        <time>2019-08-15T14:37:49Z</time>
      </trkpt>
      <trkpt lat="40.8159050" lon="0.2436880">
        <ele>584.0</ele>
        <time>2019-08-15T14:37:50Z</time>
      </trkpt>
      <trkpt lat="40.8159360" lon="0.2436610">
        <ele>584.0</ele>
        <time>2019-08-15T14:37:51Z</time>
      </trkpt>
      <trkpt lat="40.8159700" lon="0.2436380">
        <ele>584.0</ele>
        <time>2019-08-15T14:37:52Z</time>
      </trkpt>
      <trkpt lat="40.8160010" lon="0.2436110">
        <ele>584.0</ele>
        <time>2019-08-15T14:37:53Z</time>
      </trkpt>
      <trkpt lat="40.8160370" lon="0.2435910">
        <ele>584.0</ele>
        <time>2019-08-15T14:37:54Z</time>
      </trkpt>
      <trkpt lat="40.8160710" lon="0.2435650">
        <ele>584.0</ele>
        <time>2019-08-15T14:37:55Z</time>
      </trkpt>
      <trkpt lat="40.8161030" lon="0.2435390">
        <ele>584.0</ele>
        <time>2019-08-15T14:37:56Z</time>
      </trkpt>
      <trkpt lat="40.8161360" lon="0.2435150">
        <ele>584.0</ele>
        <time>2019-08-15T14:37:57Z</time>
      </trkpt>
      <trkpt lat="40.8161690" lon="0.2434900">
        <ele>584.0</ele>
        <time>2019-08-15T14:37:58Z</time>
      </trkpt>
      <trkpt lat="40.8162330" lon="0.2434410">
        <ele>583.0</ele>
        <time>2019-08-15T14:38:00Z</time>
      </trkpt>
      <trkpt lat="40.8162670" lon="0.2434190">
        <ele>583.0</ele>
        <time>2019-08-15T14:38:01Z</time>
      </trkpt>
      <trkpt lat="40.8162980" lon="0.2433940">
        <ele>583.0</ele>
        <time>2019-08-15T14:38:02Z</time>
      </trkpt>
      <trkpt lat="40.8163940" lon="0.2433260">
        <ele>583.0</ele>
        <time>2019-08-15T14:38:05Z</time>
      </trkpt>
      <trkpt lat="40.8164240" lon="0.2433050">
        <ele>583.0</ele>
        <time>2019-08-15T14:38:06Z</time>
      </trkpt>
      <trkpt lat="40.8164550" lon="0.2432840">
        <ele>583.0</ele>
        <time>2019-08-15T14:38:07Z</time>
      </trkpt>
      <trkpt lat="40.8164860" lon="0.2432630">
        <ele>582.0</ele>
        <time>2019-08-15T14:38:08Z</time>
      </trkpt>
      <trkpt lat="40.8165450" lon="0.2432190">
        <ele>582.0</ele>
        <time>2019-08-15T14:38:10Z</time>
      </trkpt>
      <trkpt lat="40.8165750" lon="0.2431930">
        <ele>582.0</ele>
        <time>2019-08-15T14:38:11Z</time>
      </trkpt>
      <trkpt lat="40.8166040" lon="0.2431580">
        <ele>582.0</ele>
        <time>2019-08-15T14:38:12Z</time>
      </trkpt>
      <trkpt lat="40.8166360" lon="0.2431250">
        <ele>582.0</ele>
        <time>2019-08-15T14:38:13Z</time>
      </trkpt>
      <trkpt lat="40.8166990" lon="0.2430590">
        <ele>582.0</ele>
        <time>2019-08-15T14:38:15Z</time>
      </trkpt>
      <trkpt lat="40.8167290" lon="0.2430240">
        <ele>582.0</ele>
        <time>2019-08-15T14:38:16Z</time>
      </trkpt>
      <trkpt lat="40.8167570" lon="0.2429900">
        <ele>582.0</ele>
        <time>2019-08-15T14:38:17Z</time>
      </trkpt>
      <trkpt lat="40.8167840" lon="0.2429550">
        <ele>582.0</ele>
        <time>2019-08-15T14:38:18Z</time>
      </trkpt>
      <trkpt lat="40.8168340" lon="0.2428860">
        <ele>582.0</ele>
        <time>2019-08-15T14:38:20Z</time>
      </trkpt>
      <trkpt lat="40.8168600" lon="0.2428530">
        <ele>582.0</ele>
        <time>2019-08-15T14:38:21Z</time>
      </trkpt>
      <trkpt lat="40.8168860" lon="0.2428190">
        <ele>582.0</ele>
        <time>2019-08-15T14:38:22Z</time>
      </trkpt>
      <trkpt lat="40.8169120" lon="0.2427890">
        <ele>582.0</ele>
        <time>2019-08-15T14:38:23Z</time>
      </trkpt>
      <trkpt lat="40.8169710" lon="0.2427330">
        <ele>582.0</ele>
        <time>2019-08-15T14:38:25Z</time>
      </trkpt>
      <trkpt lat="40.8169970" lon="0.2427010">
        <ele>582.0</ele>
        <time>2019-08-15T14:38:26Z</time>
      </trkpt>
      <trkpt lat="40.8170190" lon="0.2426610">
        <ele>582.0</ele>
        <time>2019-08-15T14:38:27Z</time>
      </trkpt>
      <trkpt lat="40.8170460" lon="0.2426290">
        <ele>582.0</ele>
        <time>2019-08-15T14:38:28Z</time>
      </trkpt>
      <trkpt lat="40.8171070" lon="0.2425730">
        <ele>581.0</ele>
        <time>2019-08-15T14:38:30Z</time>
      </trkpt>
      <trkpt lat="40.8171370" lon="0.2425470">
        <ele>581.0</ele>
        <time>2019-08-15T14:38:31Z</time>
      </trkpt>
      <trkpt lat="40.8171680" lon="0.2425180">
        <ele>581.0</ele>
        <time>2019-08-15T14:38:32Z</time>
      </trkpt>
      <trkpt lat="40.8172030" lon="0.2424910">
        <ele>581.0</ele>
        <time>2019-08-15T14:38:33Z</time>
      </trkpt>
      <trkpt lat="40.8172660" lon="0.2424350">
        <ele>581.0</ele>
        <time>2019-08-15T14:38:35Z</time>
      </trkpt>
      <trkpt lat="40.8172960" lon="0.2424070">
        <ele>581.0</ele>
        <time>2019-08-15T14:38:36Z</time>
      </trkpt>
      <trkpt lat="40.8173280" lon="0.2423770">
        <ele>581.0</ele>
        <time>2019-08-15T14:38:37Z</time>
      </trkpt>
      <trkpt lat="40.8173570" lon="0.2423530">
        <ele>581.0</ele>
        <time>2019-08-15T14:38:38Z</time>
      </trkpt>
      <trkpt lat="40.8174120" lon="0.2423080">
        <ele>581.0</ele>
        <time>2019-08-15T14:38:40Z</time>
      </trkpt>
      <trkpt lat="40.8174410" lon="0.2422800">
        <ele>581.0</ele>
        <time>2019-08-15T14:38:41Z</time>
      </trkpt>
      <trkpt lat="40.8174710" lon="0.2422500">
        <ele>581.0</ele>
        <time>2019-08-15T14:38:42Z</time>
      </trkpt>
      <trkpt lat="40.8174970" lon="0.2422210">
        <ele>580.0</ele>
        <time>2019-08-15T14:38:43Z</time>
      </trkpt>
      <trkpt lat="40.8175470" lon="0.2421660">
        <ele>580.0</ele>
        <time>2019-08-15T14:38:45Z</time>
      </trkpt>
      <trkpt lat="40.8175720" lon="0.2421400">
        <ele>580.0</ele>
        <time>2019-08-15T14:38:46Z</time>
      </trkpt>
      <trkpt lat="40.8175960" lon="0.2421180">
        <ele>580.0</ele>
        <time>2019-08-15T14:38:47Z</time>
      </trkpt>
      <trkpt lat="40.8176210" lon="0.2420980">
        <ele>580.0</ele>
        <time>2019-08-15T14:38:48Z</time>
      </trkpt>
      <trkpt lat="40.8176770" lon="0.2420750">
        <ele>580.0</ele>
        <time>2019-08-15T14:38:50Z</time>
      </trkpt>
      <trkpt lat="40.8177080" lon="0.2420650">
        <ele>580.0</ele>
        <time>2019-08-15T14:38:51Z</time>
      </trkpt>
      <trkpt lat="40.8177380" lon="0.2420570">
        <ele>580.0</ele>
        <time>2019-08-15T14:38:52Z</time>
      </trkpt>
      <trkpt lat="40.8177670" lon="0.2420510">
        <ele>580.0</ele>
        <time>2019-08-15T14:38:53Z</time>
      </trkpt>
      <trkpt lat="40.8178330" lon="0.2420590">
        <ele>580.0</ele>
        <time>2019-08-15T14:38:55Z</time>
      </trkpt>
      <trkpt lat="40.8178620" lon="0.2420710">
        <ele>580.0</ele>
        <time>2019-08-15T14:38:56Z</time>
      </trkpt>
      <trkpt lat="40.8178940" lon="0.2420820">
        <ele>580.0</ele>
        <time>2019-08-15T14:38:57Z</time>
      </trkpt>
      <trkpt lat="40.8179280" lon="0.2420940">
        <ele>580.0</ele>
        <time>2019-08-15T14:38:58Z</time>
      </trkpt>
      <trkpt lat="40.8179610" lon="0.2421050">
        <ele>581.0</ele>
        <time>2019-08-15T14:38:59Z</time>
      </trkpt>
      <trkpt lat="40.8179920" lon="0.2421120">
        <ele>581.0</ele>
        <time>2019-08-15T14:39:00Z</time>
      </trkpt>
      <trkpt lat="40.8180210" lon="0.2421200">
        <ele>581.0</ele>
        <time>2019-08-15T14:39:01Z</time>
      </trkpt>
      <trkpt lat="40.8180500" lon="0.2421310">
        <ele>581.0</ele>
        <time>2019-08-15T14:39:02Z</time>
      </trkpt>
      <trkpt lat="40.8180810" lon="0.2421370">
        <ele>581.0</ele>
        <time>2019-08-15T14:39:03Z</time>
      </trkpt>
      <trkpt lat="40.8181110" lon="0.2421450">
        <ele>581.0</ele>
        <time>2019-08-15T14:39:04Z</time>
      </trkpt>
      <trkpt lat="40.8181400" lon="0.2421520">
        <ele>581.0</ele>
        <time>2019-08-15T14:39:05Z</time>
      </trkpt>
      <trkpt lat="40.8181700" lon="0.2421630">
        <ele>581.0</ele>
        <time>2019-08-15T14:39:06Z</time>
      </trkpt>
      <trkpt lat="40.8182010" lon="0.2421740">
        <ele>581.0</ele>
        <time>2019-08-15T14:39:07Z</time>
      </trkpt>
      <trkpt lat="40.8182300" lon="0.2421820">
        <ele>581.0</ele>
        <time>2019-08-15T14:39:08Z</time>
      </trkpt>
      <trkpt lat="40.8182630" lon="0.2421850">
        <ele>581.0</ele>
        <time>2019-08-15T14:39:09Z</time>
      </trkpt>
      <trkpt lat="40.8182970" lon="0.2421890">
        <ele>581.0</ele>
        <time>2019-08-15T14:39:10Z</time>
      </trkpt>
      <trkpt lat="40.8183360" lon="0.2421990">
        <ele>581.0</ele>
        <time>2019-08-15T14:39:11Z</time>
      </trkpt>
      <trkpt lat="40.8183800" lon="0.2422090">
        <ele>581.0</ele>
        <time>2019-08-15T14:39:12Z</time>
      </trkpt>
      <trkpt lat="40.8184250" lon="0.2422210">
        <ele>581.0</ele>
        <time>2019-08-15T14:39:13Z</time>
      </trkpt>
      <trkpt lat="40.8184700" lon="0.2422300">
        <ele>580.0</ele>
        <time>2019-08-15T14:39:14Z</time>
      </trkpt>
      <trkpt lat="40.8185150" lon="0.2422380">
        <ele>580.0</ele>
        <time>2019-08-15T14:39:15Z</time>
      </trkpt>
      <trkpt lat="40.8185600" lon="0.2422500">
        <ele>580.0</ele>
        <time>2019-08-15T14:39:16Z</time>
      </trkpt>
      <trkpt lat="40.8186050" lon="0.2422590">
        <ele>580.0</ele>
        <time>2019-08-15T14:39:17Z</time>
      </trkpt>
      <trkpt lat="40.8186470" lon="0.2422600">
        <ele>579.0</ele>
        <time>2019-08-15T14:39:18Z</time>
      </trkpt>
      <trkpt lat="40.8186830" lon="0.2422590">
        <ele>579.0</ele>
        <time>2019-08-15T14:39:19Z</time>
      </trkpt>
      <trkpt lat="40.8187180" lon="0.2422500">
        <ele>579.0</ele>
        <time>2019-08-15T14:39:20Z</time>
      </trkpt>
      <trkpt lat="40.8187490" lon="0.2422340">
        <ele>579.0</ele>
        <time>2019-08-15T14:39:21Z</time>
      </trkpt>
      <trkpt lat="40.8187790" lon="0.2422100">
        <ele>579.0</ele>
        <time>2019-08-15T14:39:22Z</time>
      </trkpt>
      <trkpt lat="40.8188250" lon="0.2421160">
        <ele>578.0</ele>
        <time>2019-08-15T14:39:24Z</time>
      </trkpt>
      <trkpt lat="40.8188430" lon="0.2420690">
        <ele>578.0</ele>
        <time>2019-08-15T14:39:25Z</time>
      </trkpt>
      <trkpt lat="40.8188570" lon="0.2420240">
        <ele>578.0</ele>
        <time>2019-08-15T14:39:26Z</time>
      </trkpt>
      <trkpt lat="40.8188640" lon="0.2419860">
        <ele>578.0</ele>
        <time>2019-08-15T14:39:27Z</time>
      </trkpt>
      <trkpt lat="40.8188630" lon="0.2419580">
        <ele>578.0</ele>
        <time>2019-08-15T14:39:28Z</time>
      </trkpt>
      <trkpt lat="40.8188620" lon="0.2419380">
        <ele>578.0</ele>
        <time>2019-08-15T14:39:29Z</time>
      </trkpt>
      <trkpt lat="40.8188670" lon="0.2419200">
        <ele>578.0</ele>
        <time>2019-08-15T14:39:30Z</time>
      </trkpt>
      <trkpt lat="40.8188760" lon="0.2419060">
        <ele>578.0</ele>
        <time>2019-08-15T14:39:31Z</time>
      </trkpt>
      <trkpt lat="40.8188830" lon="0.2418860">
        <ele>578.0</ele>
        <time>2019-08-15T14:39:32Z</time>
      </trkpt>
      <trkpt lat="40.8188970" lon="0.2418770">
        <ele>578.0</ele>
        <time>2019-08-15T14:39:33Z</time>
      </trkpt>
      <trkpt lat="40.8189130" lon="0.2418660">
        <ele>578.0</ele>
        <time>2019-08-15T14:39:34Z</time>
      </trkpt>
      <trkpt lat="40.8189310" lon="0.2418590">
        <ele>578.0</ele>
        <time>2019-08-15T14:39:35Z</time>
      </trkpt>
      <trkpt lat="40.8189520" lon="0.2418590">
        <ele>578.0</ele>
        <time>2019-08-15T14:39:36Z</time>
      </trkpt>
      <trkpt lat="40.8189730" lon="0.2418570">
        <ele>578.0</ele>
        <time>2019-08-15T14:39:37Z</time>
      </trkpt>
      <trkpt lat="40.8189950" lon="0.2418500">
        <ele>578.0</ele>
        <time>2019-08-15T14:39:38Z</time>
      </trkpt>
      <trkpt lat="40.8190190" lon="0.2418400">
        <ele>578.0</ele>
        <time>2019-08-15T14:39:39Z</time>
      </trkpt>
      <trkpt lat="40.8190440" lon="0.2418320">
        <ele>578.0</ele>
        <time>2019-08-15T14:39:40Z</time>
      </trkpt>
      <trkpt lat="40.8190710" lon="0.2418190">
        <ele>578.0</ele>
        <time>2019-08-15T14:39:41Z</time>
      </trkpt>
      <trkpt lat="40.8190990" lon="0.2418010">
        <ele>578.0</ele>
        <time>2019-08-15T14:39:42Z</time>
      </trkpt>
      <trkpt lat="40.8191260" lon="0.2417830">
        <ele>578.0</ele>
        <time>2019-08-15T14:39:43Z</time>
      </trkpt>
      <trkpt lat="40.8191490" lon="0.2417600">
        <ele>578.0</ele>
        <time>2019-08-15T14:39:44Z</time>
      </trkpt>
      <trkpt lat="40.8191680" lon="0.2417360">
        <ele>578.0</ele>
        <time>2019-08-15T14:39:45Z</time>
      </trkpt>
      <trkpt lat="40.8191900" lon="0.2417180">
        <ele>578.0</ele>
        <time>2019-08-15T14:39:46Z</time>
      </trkpt>
      <trkpt lat="40.8192090" lon="0.2417000">
        <ele>578.0</ele>
        <time>2019-08-15T14:39:47Z</time>
      </trkpt>
      <trkpt lat="40.8192320" lon="0.2416860">
        <ele>578.0</ele>
        <time>2019-08-15T14:39:48Z</time>
      </trkpt>
      <trkpt lat="40.8192520" lon="0.2416670">
        <ele>578.0</ele>
        <time>2019-08-15T14:39:49Z</time>
      </trkpt>
      <trkpt lat="40.8192710" lon="0.2416470">
        <ele>578.0</ele>
        <time>2019-08-15T14:39:50Z</time>
      </trkpt>
      <trkpt lat="40.8192870" lon="0.2416270">
        <ele>578.0</ele>
        <time>2019-08-15T14:39:51Z</time>
      </trkpt>
      <trkpt lat="40.8193040" lon="0.2416080">
        <ele>578.0</ele>
        <time>2019-08-15T14:39:52Z</time>
      </trkpt>
      <trkpt lat="40.8193220" lon="0.2415930">
        <ele>578.0</ele>
        <time>2019-08-15T14:39:53Z</time>
      </trkpt>
      <trkpt lat="40.8193390" lon="0.2415780">
        <ele>578.0</ele>
        <time>2019-08-15T14:39:54Z</time>
      </trkpt>
      <trkpt lat="40.8193540" lon="0.2415650">
        <ele>578.0</ele>
        <time>2019-08-15T14:39:55Z</time>
      </trkpt>
      <trkpt lat="40.8193670" lon="0.2415560">
        <ele>578.0</ele>
        <time>2019-08-15T14:39:56Z</time>
      </trkpt>
      <trkpt lat="40.8193820" lon="0.2415510">
        <ele>578.0</ele>
        <time>2019-08-15T14:39:57Z</time>
      </trkpt>
      <trkpt lat="40.8193940" lon="0.2415540">
        <ele>578.0</ele>
        <time>2019-08-15T14:39:58Z</time>
      </trkpt>
      <trkpt lat="40.8194120" lon="0.2415480">
        <ele>578.0</ele>
        <time>2019-08-15T14:39:59Z</time>
      </trkpt>
      <trkpt lat="40.8194290" lon="0.2415330">
        <ele>578.0</ele>
        <time>2019-08-15T14:40:00Z</time>
      </trkpt>
      <trkpt lat="40.8194530" lon="0.2415180">
        <ele>578.0</ele>
        <time>2019-08-15T14:40:01Z</time>
      </trkpt>
      <trkpt lat="40.8194740" lon="0.2415000">
        <ele>578.0</ele>
        <time>2019-08-15T14:40:02Z</time>
      </trkpt>
      <trkpt lat="40.8194950" lon="0.2414830">
        <ele>579.0</ele>
        <time>2019-08-15T14:40:03Z</time>
      </trkpt>
      <trkpt lat="40.8195330" lon="0.2414570">
        <ele>579.0</ele>
        <time>2019-08-15T14:40:05Z</time>
      </trkpt>
      <trkpt lat="40.8195530" lon="0.2414450">
        <ele>579.0</ele>
        <time>2019-08-15T14:40:06Z</time>
      </trkpt>
      <trkpt lat="40.8195720" lon="0.2414340">
        <ele>579.0</ele>
        <time>2019-08-15T14:40:07Z</time>
      </trkpt>
      <trkpt lat="40.8196280" lon="0.2413970">
        <ele>579.0</ele>
        <time>2019-08-15T14:40:10Z</time>
      </trkpt>
      <trkpt lat="40.8196460" lon="0.2413840">
        <ele>579.0</ele>
        <time>2019-08-15T14:40:11Z</time>
      </trkpt>
      <trkpt lat="40.8196670" lon="0.2413730">
        <ele>579.0</ele>
        <time>2019-08-15T14:40:12Z</time>
      </trkpt>
      <trkpt lat="40.8196930" lon="0.2413620">
        <ele>579.0</ele>
        <time>2019-08-15T14:40:13Z</time>
      </trkpt>
      <trkpt lat="40.8197380" lon="0.2413400">
        <ele>579.0</ele>
        <time>2019-08-15T14:40:15Z</time>
      </trkpt>
      <trkpt lat="40.8197590" lon="0.2413250">
        <ele>579.0</ele>
        <time>2019-08-15T14:40:16Z</time>
      </trkpt>
      <trkpt lat="40.8197830" lon="0.2413130">
        <ele>579.0</ele>
        <time>2019-08-15T14:40:17Z</time>
      </trkpt>
      <trkpt lat="40.8198080" lon="0.2413060">
        <ele>579.0</ele>
        <time>2019-08-15T14:40:18Z</time>
      </trkpt>
      <trkpt lat="40.8198530" lon="0.2412860">
        <ele>579.0</ele>
        <time>2019-08-15T14:40:20Z</time>
      </trkpt>
      <trkpt lat="40.8198750" lon="0.2412770">
        <ele>579.0</ele>
        <time>2019-08-15T14:40:21Z</time>
      </trkpt>
      <trkpt lat="40.8198970" lon="0.2412690">
        <ele>579.0</ele>
        <time>2019-08-15T14:40:22Z</time>
      </trkpt>
      <trkpt lat="40.8199190" lon="0.2412640">
        <ele>579.0</ele>
        <time>2019-08-15T14:40:23Z</time>
      </trkpt>
      <trkpt lat="40.8199600" lon="0.2412520">
        <ele>579.0</ele>
        <time>2019-08-15T14:40:25Z</time>
      </trkpt>
      <trkpt lat="40.8199810" lon="0.2412430">
        <ele>579.0</ele>
        <time>2019-08-15T14:40:26Z</time>
      </trkpt>
      <trkpt lat="40.8200040" lon="0.2412400">
        <ele>579.0</ele>
        <time>2019-08-15T14:40:27Z</time>
      </trkpt>
      <trkpt lat="40.8200270" lon="0.2412350">
        <ele>579.0</ele>
        <time>2019-08-15T14:40:28Z</time>
      </trkpt>
      <trkpt lat="40.8200740" lon="0.2412260">
        <ele>579.0</ele>
        <time>2019-08-15T14:40:30Z</time>
      </trkpt>
      <trkpt lat="40.8200990" lon="0.2412200">
        <ele>578.0</ele>
        <time>2019-08-15T14:40:31Z</time>
      </trkpt>
      <trkpt lat="40.8201240" lon="0.2412130">
        <ele>578.0</ele>
        <time>2019-08-15T14:40:32Z</time>
      </trkpt>
      <trkpt lat="40.8201540" lon="0.2412130">
        <ele>578.0</ele>
        <time>2019-08-15T14:40:33Z</time>
      </trkpt>
      <trkpt lat="40.8202120" lon="0.2411920">
        <ele>578.0</ele>
        <time>2019-08-15T14:40:35Z</time>
      </trkpt>
      <trkpt lat="40.8202390" lon="0.2411840">
        <ele>578.0</ele>
        <time>2019-08-15T14:40:36Z</time>
      </trkpt>
      <trkpt lat="40.8202670" lon="0.2411770">
        <ele>578.0</ele>
        <time>2019-08-15T14:40:37Z</time>
      </trkpt>
      <trkpt lat="40.8202980" lon="0.2411690">
        <ele>578.0</ele>
        <time>2019-08-15T14:40:38Z</time>
      </trkpt>
      <trkpt lat="40.8203590" lon="0.2411500">
        <ele>578.0</ele>
        <time>2019-08-15T14:40:40Z</time>
      </trkpt>
      <trkpt lat="40.8203900" lon="0.2411400">
        <ele>578.0</ele>
        <time>2019-08-15T14:40:41Z</time>
      </trkpt>
      <trkpt lat="40.8204220" lon="0.2411310">
        <ele>578.0</ele>
        <time>2019-08-15T14:40:42Z</time>
      </trkpt>
      <trkpt lat="40.8204560" lon="0.2411240">
        <ele>578.0</ele>
        <time>2019-08-15T14:40:43Z</time>
      </trkpt>
      <trkpt lat="40.8205280" lon="0.2411160">
        <ele>578.0</ele>
        <time>2019-08-15T14:40:45Z</time>
      </trkpt>
      <trkpt lat="40.8205670" lon="0.2411070">
        <ele>578.0</ele>
        <time>2019-08-15T14:40:46Z</time>
      </trkpt>
      <trkpt lat="40.8206120" lon="0.2411010">
        <ele>578.0</ele>
        <time>2019-08-15T14:40:47Z</time>
      </trkpt>
      <trkpt lat="40.8206560" lon="0.2411000">
        <ele>578.0</ele>
        <time>2019-08-15T14:40:48Z</time>
      </trkpt>
      <trkpt lat="40.8206970" lon="0.2411040">
        <ele>578.0</ele>
        <time>2019-08-15T14:40:49Z</time>
      </trkpt>
      <trkpt lat="40.8207380" lon="0.2411080">
        <ele>578.0</ele>
        <time>2019-08-15T14:40:50Z</time>
      </trkpt>
      <trkpt lat="40.8207810" lon="0.2411090">
        <ele>577.0</ele>
        <time>2019-08-15T14:40:51Z</time>
      </trkpt>
      <trkpt lat="40.8208260" lon="0.2411150">
        <ele>577.0</ele>
        <time>2019-08-15T14:40:52Z</time>
      </trkpt>
      <trkpt lat="40.8208650" lon="0.2411230">
        <ele>577.0</ele>
        <time>2019-08-15T14:40:53Z</time>
      </trkpt>
      <trkpt lat="40.8209060" lon="0.2411330">
        <ele>577.0</ele>
        <time>2019-08-15T14:40:54Z</time>
      </trkpt>
      <trkpt lat="40.8209430" lon="0.2411420">
        <ele>577.0</ele>
        <time>2019-08-15T14:40:55Z</time>
      </trkpt>
      <trkpt lat="40.8209810" lon="0.2411540">
        <ele>577.0</ele>
        <time>2019-08-15T14:40:56Z</time>
      </trkpt>
      <trkpt lat="40.8210200" lon="0.2411690">
        <ele>577.0</ele>
        <time>2019-08-15T14:40:57Z</time>
      </trkpt>
      <trkpt lat="40.8210590" lon="0.2411870">
        <ele>577.0</ele>
        <time>2019-08-15T14:40:58Z</time>
      </trkpt>
      <trkpt lat="40.8210980" lon="0.2412050">
        <ele>576.0</ele>
        <time>2019-08-15T14:40:59Z</time>
      </trkpt>
      <trkpt lat="40.8211350" lon="0.2412280">
        <ele>576.0</ele>
        <time>2019-08-15T14:41:00Z</time>
      </trkpt>
      <trkpt lat="40.8211720" lon="0.2412460">
        <ele>576.0</ele>
        <time>2019-08-15T14:41:01Z</time>
      </trkpt>
      <trkpt lat="40.8212080" lon="0.2412650">
        <ele>576.0</ele>
        <time>2019-08-15T14:41:02Z</time>
      </trkpt>
      <trkpt lat="40.8212430" lon="0.2412800">
        <ele>576.0</ele>
        <time>2019-08-15T14:41:03Z</time>
      </trkpt>
      <trkpt lat="40.8212800" lon="0.2412920">
        <ele>576.0</ele>
        <time>2019-08-15T14:41:04Z</time>
      </trkpt>
      <trkpt lat="40.8213150" lon="0.2413050">
        <ele>576.0</ele>
        <time>2019-08-15T14:41:05Z</time>
      </trkpt>
      <trkpt lat="40.8213530" lon="0.2413150">
        <ele>576.0</ele>
        <time>2019-08-15T14:41:06Z</time>
      </trkpt>
      <trkpt lat="40.8213920" lon="0.2413230">
        <ele>576.0</ele>
        <time>2019-08-15T14:41:07Z</time>
      </trkpt>
      <trkpt lat="40.8214290" lon="0.2413190">
        <ele>576.0</ele>
        <time>2019-08-15T14:41:08Z</time>
      </trkpt>
      <trkpt lat="40.8214680" lon="0.2413110">
        <ele>576.0</ele>
        <time>2019-08-15T14:41:09Z</time>
      </trkpt>
      <trkpt lat="40.8215040" lon="0.2412910">
        <ele>575.0</ele>
        <time>2019-08-15T14:41:10Z</time>
      </trkpt>
      <trkpt lat="40.8215340" lon="0.2412620">
        <ele>575.0</ele>
        <time>2019-08-15T14:41:11Z</time>
      </trkpt>
      <trkpt lat="40.8215760" lon="0.2411640">
        <ele>575.0</ele>
        <time>2019-08-15T14:41:13Z</time>
      </trkpt>
      <trkpt lat="40.8215860" lon="0.2411170">
        <ele>575.0</ele>
        <time>2019-08-15T14:41:14Z</time>
      </trkpt>
      <trkpt lat="40.8215830" lon="0.2409900">
        <ele>575.0</ele>
        <time>2019-08-15T14:41:17Z</time>
      </trkpt>
      <trkpt lat="40.8215750" lon="0.2409480">
        <ele>575.0</ele>
        <time>2019-08-15T14:41:18Z</time>
      </trkpt>
      <trkpt lat="40.8215660" lon="0.2409040">
        <ele>575.0</ele>
        <time>2019-08-15T14:41:19Z</time>
      </trkpt>
      <trkpt lat="40.8215500" lon="0.2408170">
        <ele>575.0</ele>
        <time>2019-08-15T14:41:21Z</time>
      </trkpt>
      <trkpt lat="40.8215400" lon="0.2407700">
        <ele>575.0</ele>
        <time>2019-08-15T14:41:22Z</time>
      </trkpt>
      <trkpt lat="40.8215350" lon="0.2407250">
        <ele>575.0</ele>
        <time>2019-08-15T14:41:23Z</time>
      </trkpt>
      <trkpt lat="40.8215340" lon="0.2406800">
        <ele>574.0</ele>
        <time>2019-08-15T14:41:24Z</time>
      </trkpt>
      <trkpt lat="40.8215350" lon="0.2406390">
        <ele>574.0</ele>
        <time>2019-08-15T14:41:25Z</time>
      </trkpt>
      <trkpt lat="40.8215370" lon="0.2406000">
        <ele>574.0</ele>
        <time>2019-08-15T14:41:26Z</time>
      </trkpt>
      <trkpt lat="40.8215390" lon="0.2405610">
        <ele>574.0</ele>
        <time>2019-08-15T14:41:27Z</time>
      </trkpt>
      <trkpt lat="40.8215430" lon="0.2405220">
        <ele>574.0</ele>
        <time>2019-08-15T14:41:28Z</time>
      </trkpt>
      <trkpt lat="40.8215460" lon="0.2404850">
        <ele>574.0</ele>
        <time>2019-08-15T14:41:29Z</time>
      </trkpt>
      <trkpt lat="40.8215500" lon="0.2404480">
        <ele>574.0</ele>
        <time>2019-08-15T14:41:30Z</time>
      </trkpt>
      <trkpt lat="40.8215530" lon="0.2404110">
        <ele>574.0</ele>
        <time>2019-08-15T14:41:31Z</time>
      </trkpt>
      <trkpt lat="40.8215580" lon="0.2403750">
        <ele>574.0</ele>
        <time>2019-08-15T14:41:32Z</time>
      </trkpt>
      <trkpt lat="40.8215610" lon="0.2403430">
        <ele>574.0</ele>
        <time>2019-08-15T14:41:33Z</time>
      </trkpt>
      <trkpt lat="40.8215630" lon="0.2403100">
        <ele>574.0</ele>
        <time>2019-08-15T14:41:34Z</time>
      </trkpt>
      <trkpt lat="40.8215690" lon="0.2402820">
        <ele>574.0</ele>
        <time>2019-08-15T14:41:35Z</time>
      </trkpt>
      <trkpt lat="40.8215750" lon="0.2402530">
        <ele>574.0</ele>
        <time>2019-08-15T14:41:36Z</time>
      </trkpt>
      <trkpt lat="40.8215800" lon="0.2402150">
        <ele>574.0</ele>
        <time>2019-08-15T14:41:37Z</time>
      </trkpt>
      <trkpt lat="40.8215920" lon="0.2401830">
        <ele>574.0</ele>
        <time>2019-08-15T14:41:38Z</time>
      </trkpt>
      <trkpt lat="40.8216040" lon="0.2401500">
        <ele>574.0</ele>
        <time>2019-08-15T14:41:39Z</time>
      </trkpt>
      <trkpt lat="40.8216200" lon="0.2401220">
        <ele>574.0</ele>
        <time>2019-08-15T14:41:40Z</time>
      </trkpt>
      <trkpt lat="40.8216360" lon="0.2400960">
        <ele>574.0</ele>
        <time>2019-08-15T14:41:41Z</time>
      </trkpt>
      <trkpt lat="40.8216510" lon="0.2400700">
        <ele>574.0</ele>
        <time>2019-08-15T14:41:42Z</time>
      </trkpt>
      <trkpt lat="40.8216670" lon="0.2400450">
        <ele>574.0</ele>
        <time>2019-08-15T14:41:43Z</time>
      </trkpt>
      <trkpt lat="40.8216840" lon="0.2400190">
        <ele>574.0</ele>
        <time>2019-08-15T14:41:44Z</time>
      </trkpt>
      <trkpt lat="40.8217030" lon="0.2399920">
        <ele>574.0</ele>
        <time>2019-08-15T14:41:45Z</time>
      </trkpt>
      <trkpt lat="40.8217230" lon="0.2399620">
        <ele>574.0</ele>
        <time>2019-08-15T14:41:46Z</time>
      </trkpt>
      <trkpt lat="40.8217440" lon="0.2399320">
        <ele>574.0</ele>
        <time>2019-08-15T14:41:47Z</time>
      </trkpt>
      <trkpt lat="40.8217690" lon="0.2399050">
        <ele>574.0</ele>
        <time>2019-08-15T14:41:48Z</time>
      </trkpt>
      <trkpt lat="40.8218000" lon="0.2398820">
        <ele>574.0</ele>
        <time>2019-08-15T14:41:49Z</time>
      </trkpt>
      <trkpt lat="40.8218340" lon="0.2398630">
        <ele>574.0</ele>
        <time>2019-08-15T14:41:50Z</time>
      </trkpt>
      <trkpt lat="40.8218690" lon="0.2398500">
        <ele>574.0</ele>
        <time>2019-08-15T14:41:51Z</time>
      </trkpt>
      <trkpt lat="40.8219020" lon="0.2398380">
        <ele>574.0</ele>
        <time>2019-08-15T14:41:52Z</time>
      </trkpt>
      <trkpt lat="40.8219340" lon="0.2398320">
        <ele>574.0</ele>
        <time>2019-08-15T14:41:53Z</time>
      </trkpt>
      <trkpt lat="40.8219670" lon="0.2398310">
        <ele>574.0</ele>
        <time>2019-08-15T14:41:54Z</time>
      </trkpt>
      <trkpt lat="40.8220360" lon="0.2398370">
        <ele>574.0</ele>
        <time>2019-08-15T14:41:56Z</time>
      </trkpt>
      <trkpt lat="40.8220700" lon="0.2398430">
        <ele>574.0</ele>
        <time>2019-08-15T14:41:57Z</time>
      </trkpt>
      <trkpt lat="40.8221040" lon="0.2398550">
        <ele>574.0</ele>
        <time>2019-08-15T14:41:58Z</time>
      </trkpt>
      <trkpt lat="40.8221410" lon="0.2398730">
        <ele>574.0</ele>
        <time>2019-08-15T14:41:59Z</time>
      </trkpt>
      <trkpt lat="40.8221760" lon="0.2398960">
        <ele>574.0</ele>
        <time>2019-08-15T14:42:00Z</time>
      </trkpt>
      <trkpt lat="40.8222150" lon="0.2399240">
        <ele>574.0</ele>
        <time>2019-08-15T14:42:01Z</time>
      </trkpt>
      <trkpt lat="40.8222540" lon="0.2399540">
        <ele>573.0</ele>
        <time>2019-08-15T14:42:02Z</time>
      </trkpt>
      <trkpt lat="40.8222880" lon="0.2399860">
        <ele>573.0</ele>
        <time>2019-08-15T14:42:03Z</time>
      </trkpt>
      <trkpt lat="40.8223150" lon="0.2400180">
        <ele>573.0</ele>
        <time>2019-08-15T14:42:04Z</time>
      </trkpt>
      <trkpt lat="40.8223410" lon="0.2400500">
        <ele>573.0</ele>
        <time>2019-08-15T14:42:05Z</time>
      </trkpt>
      <trkpt lat="40.8223670" lon="0.2400810">
        <ele>573.0</ele>
        <time>2019-08-15T14:42:06Z</time>
      </trkpt>
      <trkpt lat="40.8223930" lon="0.2401100">
        <ele>573.0</ele>
        <time>2019-08-15T14:42:07Z</time>
      </trkpt>
      <trkpt lat="40.8224160" lon="0.2401330">
        <ele>573.0</ele>
        <time>2019-08-15T14:42:08Z</time>
      </trkpt>
      <trkpt lat="40.8224360" lon="0.2401540">
        <ele>573.0</ele>
        <time>2019-08-15T14:42:09Z</time>
      </trkpt>
      <trkpt lat="40.8224570" lon="0.2401730">
        <ele>573.0</ele>
        <time>2019-08-15T14:42:10Z</time>
      </trkpt>
      <trkpt lat="40.8224800" lon="0.2401920">
        <ele>573.0</ele>
        <time>2019-08-15T14:42:11Z</time>
      </trkpt>
      <trkpt lat="40.8225010" lon="0.2402110">
        <ele>573.0</ele>
        <time>2019-08-15T14:42:12Z</time>
      </trkpt>
      <trkpt lat="40.8225240" lon="0.2402310">
        <ele>573.0</ele>
        <time>2019-08-15T14:42:13Z</time>
      </trkpt>
      <trkpt lat="40.8225500" lon="0.2402450">
        <ele>573.0</ele>
        <time>2019-08-15T14:42:14Z</time>
      </trkpt>
      <trkpt lat="40.8225780" lon="0.2402510">
        <ele>573.0</ele>
        <time>2019-08-15T14:42:15Z</time>
      </trkpt>
      <trkpt lat="40.8226060" lon="0.2402530">
        <ele>573.0</ele>
        <time>2019-08-15T14:42:16Z</time>
      </trkpt>
      <trkpt lat="40.8226390" lon="0.2402540">
        <ele>573.0</ele>
        <time>2019-08-15T14:42:17Z</time>
      </trkpt>
      <trkpt lat="40.8226720" lon="0.2402520">
        <ele>573.0</ele>
        <time>2019-08-15T14:42:18Z</time>
      </trkpt>
      <trkpt lat="40.8227080" lon="0.2402500">
        <ele>573.0</ele>
        <time>2019-08-15T14:42:19Z</time>
      </trkpt>
      <trkpt lat="40.8227450" lon="0.2402450">
        <ele>573.0</ele>
        <time>2019-08-15T14:42:20Z</time>
      </trkpt>
      <trkpt lat="40.8227860" lon="0.2402440">
        <ele>573.0</ele>
        <time>2019-08-15T14:42:21Z</time>
      </trkpt>
      <trkpt lat="40.8228590" lon="0.2402400">
        <ele>572.0</ele>
        <time>2019-08-15T14:42:23Z</time>
      </trkpt>
      <trkpt lat="40.8228970" lon="0.2402380">
        <ele>572.0</ele>
        <time>2019-08-15T14:42:24Z</time>
      </trkpt>
      <trkpt lat="40.8229350" lon="0.2402340">
        <ele>572.0</ele>
        <time>2019-08-15T14:42:25Z</time>
      </trkpt>
      <trkpt lat="40.8229750" lon="0.2402310">
        <ele>572.0</ele>
        <time>2019-08-15T14:42:26Z</time>
      </trkpt>
      <trkpt lat="40.8230160" lon="0.2402300">
        <ele>571.0</ele>
        <time>2019-08-15T14:42:27Z</time>
      </trkpt>
      <trkpt lat="40.8230560" lon="0.2402260">
        <ele>571.0</ele>
        <time>2019-08-15T14:42:28Z</time>
      </trkpt>
      <trkpt lat="40.8230950" lon="0.2402200">
        <ele>571.0</ele>
        <time>2019-08-15T14:42:29Z</time>
      </trkpt>
      <trkpt lat="40.8231310" lon="0.2402120">
        <ele>571.0</ele>
        <time>2019-08-15T14:42:30Z</time>
      </trkpt>
      <trkpt lat="40.8231640" lon="0.2402040">
        <ele>571.0</ele>
        <time>2019-08-15T14:42:31Z</time>
      </trkpt>
      <trkpt lat="40.8231970" lon="0.2401970">
        <ele>570.0</ele>
        <time>2019-08-15T14:42:32Z</time>
      </trkpt>
      <trkpt lat="40.8232280" lon="0.2401850">
        <ele>570.0</ele>
        <time>2019-08-15T14:42:33Z</time>
      </trkpt>
      <trkpt lat="40.8232580" lon="0.2401710">
        <ele>570.0</ele>
        <time>2019-08-15T14:42:34Z</time>
      </trkpt>
      <trkpt lat="40.8232880" lon="0.2401570">
        <ele>570.0</ele>
        <time>2019-08-15T14:42:35Z</time>
      </trkpt>
      <trkpt lat="40.8233170" lon="0.2401400">
        <ele>570.0</ele>
        <time>2019-08-15T14:42:36Z</time>
      </trkpt>
      <trkpt lat="40.8233450" lon="0.2401280">
        <ele>570.0</ele>
        <time>2019-08-15T14:42:37Z</time>
      </trkpt>
      <trkpt lat="40.8233700" lon="0.2401240">
        <ele>570.0</ele>
        <time>2019-08-15T14:42:38Z</time>
      </trkpt>
      <trkpt lat="40.8234010" lon="0.2401200">
        <ele>570.0</ele>
        <time>2019-08-15T14:42:39Z</time>
      </trkpt>
      <trkpt lat="40.8234320" lon="0.2401150">
        <ele>570.0</ele>
        <time>2019-08-15T14:42:40Z</time>
      </trkpt>
      <trkpt lat="40.8234650" lon="0.2401090">
        <ele>570.0</ele>
        <time>2019-08-15T14:42:41Z</time>
      </trkpt>
      <trkpt lat="40.8235010" lon="0.2401050">
        <ele>570.0</ele>
        <time>2019-08-15T14:42:42Z</time>
      </trkpt>
      <trkpt lat="40.8235400" lon="0.2401040">
        <ele>570.0</ele>
        <time>2019-08-15T14:42:43Z</time>
      </trkpt>
      <trkpt lat="40.8235810" lon="0.2400990">
        <ele>570.0</ele>
        <time>2019-08-15T14:42:44Z</time>
      </trkpt>
      <trkpt lat="40.8236230" lon="0.2400970">
        <ele>570.0</ele>
        <time>2019-08-15T14:42:45Z</time>
      </trkpt>
      <trkpt lat="40.8236650" lon="0.2400880">
        <ele>570.0</ele>
        <time>2019-08-15T14:42:46Z</time>
      </trkpt>
      <trkpt lat="40.8237030" lon="0.2400800">
        <ele>570.0</ele>
        <time>2019-08-15T14:42:47Z</time>
      </trkpt>
      <trkpt lat="40.8237380" lon="0.2400720">
        <ele>570.0</ele>
        <time>2019-08-15T14:42:48Z</time>
      </trkpt>
      <trkpt lat="40.8237710" lon="0.2400670">
        <ele>570.0</ele>
        <time>2019-08-15T14:42:49Z</time>
      </trkpt>
      <trkpt lat="40.8238010" lon="0.2400590">
        <ele>570.0</ele>
        <time>2019-08-15T14:42:50Z</time>
      </trkpt>
      <trkpt lat="40.8238280" lon="0.2400500">
        <ele>570.0</ele>
        <time>2019-08-15T14:42:51Z</time>
      </trkpt>
      <trkpt lat="40.8238590" lon="0.2400380">
        <ele>570.0</ele>
        <time>2019-08-15T14:42:52Z</time>
      </trkpt>
      <trkpt lat="40.8238920" lon="0.2400250">
        <ele>569.0</ele>
        <time>2019-08-15T14:42:53Z</time>
      </trkpt>
      <trkpt lat="40.8239210" lon="0.2400120">
        <ele>569.0</ele>
        <time>2019-08-15T14:42:54Z</time>
      </trkpt>
      <trkpt lat="40.8239520" lon="0.2399980">
        <ele>569.0</ele>
        <time>2019-08-15T14:42:55Z</time>
      </trkpt>
      <trkpt lat="40.8239840" lon="0.2399750">
        <ele>569.0</ele>
        <time>2019-08-15T14:42:56Z</time>
      </trkpt>
      <trkpt lat="40.8240110" lon="0.2399510">
        <ele>569.0</ele>
        <time>2019-08-15T14:42:57Z</time>
      </trkpt>
      <trkpt lat="40.8240370" lon="0.2399230">
        <ele>569.0</ele>
        <time>2019-08-15T14:42:58Z</time>
      </trkpt>
      <trkpt lat="40.8240570" lon="0.2399050">
        <ele>569.0</ele>
        <time>2019-08-15T14:42:59Z</time>
      </trkpt>
      <trkpt lat="40.8240740" lon="0.2398890">
        <ele>569.0</ele>
        <time>2019-08-15T14:43:00Z</time>
      </trkpt>
      <trkpt lat="40.8240900" lon="0.2398740">
        <ele>569.0</ele>
        <time>2019-08-15T14:43:01Z</time>
      </trkpt>
      <trkpt lat="40.8241030" lon="0.2398560">
        <ele>569.0</ele>
        <time>2019-08-15T14:43:02Z</time>
      </trkpt>
      <trkpt lat="40.8241150" lon="0.2398350">
        <ele>570.0</ele>
        <time>2019-08-15T14:43:03Z</time>
      </trkpt>
      <trkpt lat="40.8241260" lon="0.2398150">
        <ele>570.0</ele>
        <time>2019-08-15T14:43:04Z</time>
      </trkpt>
      <trkpt lat="40.8241380" lon="0.2397960">
        <ele>570.0</ele>
        <time>2019-08-15T14:43:05Z</time>
      </trkpt>
      <trkpt lat="40.8241480" lon="0.2397810">
        <ele>570.0</ele>
        <time>2019-08-15T14:43:06Z</time>
      </trkpt>
      <trkpt lat="40.8241590" lon="0.2397650">
        <ele>570.0</ele>
        <time>2019-08-15T14:43:07Z</time>
      </trkpt>
      <trkpt lat="40.8241690" lon="0.2397460">
        <ele>570.0</ele>
        <time>2019-08-15T14:43:08Z</time>
      </trkpt>
      <trkpt lat="40.8242020" lon="0.2396960">
        <ele>570.0</ele>
        <time>2019-08-15T14:43:11Z</time>
      </trkpt>
      <trkpt lat="40.8242180" lon="0.2396800">
        <ele>570.0</ele>
        <time>2019-08-15T14:43:12Z</time>
      </trkpt>
      <trkpt lat="40.8242350" lon="0.2396640">
        <ele>570.0</ele>
        <time>2019-08-15T14:43:13Z</time>
      </trkpt>
      <trkpt lat="40.8242760" lon="0.2395980">
        <ele>569.0</ele>
        <time>2019-08-15T14:43:16Z</time>
      </trkpt>
      <trkpt lat="40.8242890" lon="0.2395780">
        <ele>569.0</ele>
        <time>2019-08-15T14:43:17Z</time>
      </trkpt>
      <trkpt lat="40.8242970" lon="0.2395540">
        <ele>569.0</ele>
        <time>2019-08-15T14:43:18Z</time>
      </trkpt>
      <trkpt lat="40.8243040" lon="0.2395310">
        <ele>569.0</ele>
        <time>2019-08-15T14:43:19Z</time>
      </trkpt>
      <trkpt lat="40.8243140" lon="0.2394820">
        <ele>569.0</ele>
        <time>2019-08-15T14:43:21Z</time>
      </trkpt>
      <trkpt lat="40.8243170" lon="0.2394590">
        <ele>569.0</ele>
        <time>2019-08-15T14:43:22Z</time>
      </trkpt>
      <trkpt lat="40.8243220" lon="0.2394380">
        <ele>569.0</ele>
        <time>2019-08-15T14:43:23Z</time>
      </trkpt>
      <trkpt lat="40.8243240" lon="0.2394190">
        <ele>569.0</ele>
        <time>2019-08-15T14:43:24Z</time>
      </trkpt>
      <trkpt lat="40.8243200" lon="0.2393920">
        <ele>569.0</ele>
        <time>2019-08-15T14:43:26Z</time>
      </trkpt>
      <trkpt lat="40.8243190" lon="0.2393890">
        <ele>569.0</ele>
        <time>2019-08-15T14:43:27Z</time>
      </trkpt>
      <trkpt lat="40.8243200" lon="0.2393880">
        <ele>569.0</ele>
        <time>2019-08-15T14:43:28Z</time>
      </trkpt>
      <trkpt lat="40.8243300" lon="0.2395110">
        <ele>569.0</ele>
        <time>2019-08-15T14:44:07Z</time>
      </trkpt>
      <trkpt lat="40.8243220" lon="0.2395330">
        <ele>569.0</ele>
        <time>2019-08-15T14:44:09Z</time>
      </trkpt>
      <trkpt lat="40.8243120" lon="0.2395520">
        <ele>569.0</ele>
        <time>2019-08-15T14:44:10Z</time>
      </trkpt>
      <trkpt lat="40.8243040" lon="0.2395740">
        <ele>569.0</ele>
        <time>2019-08-15T14:44:11Z</time>
      </trkpt>
      <trkpt lat="40.8242960" lon="0.2395950">
        <ele>569.0</ele>
        <time>2019-08-15T14:44:12Z</time>
      </trkpt>
      <trkpt lat="40.8242850" lon="0.2396120">
        <ele>569.0</ele>
        <time>2019-08-15T14:44:13Z</time>
      </trkpt>
      <trkpt lat="40.8242730" lon="0.2396310">
        <ele>569.0</ele>
        <time>2019-08-15T14:44:14Z</time>
      </trkpt>
      <trkpt lat="40.8242630" lon="0.2396520">
        <ele>569.0</ele>
        <time>2019-08-15T14:44:15Z</time>
      </trkpt>
      <trkpt lat="40.8242380" lon="0.2396920">
        <ele>569.0</ele>
        <time>2019-08-15T14:44:17Z</time>
      </trkpt>
      <trkpt lat="40.8242250" lon="0.2397100">
        <ele>569.0</ele>
        <time>2019-08-15T14:44:18Z</time>
      </trkpt>
      <trkpt lat="40.8242130" lon="0.2397280">
        <ele>569.0</ele>
        <time>2019-08-15T14:44:19Z</time>
      </trkpt>
      <trkpt lat="40.8241710" lon="0.2397820">
        <ele>569.0</ele>
        <time>2019-08-15T14:44:22Z</time>
      </trkpt>
      <trkpt lat="40.8241540" lon="0.2398000">
        <ele>569.0</ele>
        <time>2019-08-15T14:44:23Z</time>
      </trkpt>
      <trkpt lat="40.8241360" lon="0.2398220">
        <ele>569.0</ele>
        <time>2019-08-15T14:44:24Z</time>
      </trkpt>
      <trkpt lat="40.8240790" lon="0.2398790">
        <ele>569.0</ele>
        <time>2019-08-15T14:44:27Z</time>
      </trkpt>
      <trkpt lat="40.8240590" lon="0.2398960">
        <ele>569.0</ele>
        <time>2019-08-15T14:44:28Z</time>
      </trkpt>
      <trkpt lat="40.8240360" lon="0.2399080">
        <ele>569.0</ele>
        <time>2019-08-15T14:44:29Z</time>
      </trkpt>
      <trkpt lat="40.8240130" lon="0.2399220">
        <ele>569.0</ele>
        <time>2019-08-15T14:44:30Z</time>
      </trkpt>
      <trkpt lat="40.8239670" lon="0.2399440">
        <ele>569.0</ele>
        <time>2019-08-15T14:44:32Z</time>
      </trkpt>
      <trkpt lat="40.8239440" lon="0.2399550">
        <ele>569.0</ele>
        <time>2019-08-15T14:44:33Z</time>
      </trkpt>
      <trkpt lat="40.8239230" lon="0.2399650">
        <ele>569.0</ele>
        <time>2019-08-15T14:44:34Z</time>
      </trkpt>
      <trkpt lat="40.8239030" lon="0.2399780">
        <ele>569.0</ele>
        <time>2019-08-15T14:44:35Z</time>
      </trkpt>
      <trkpt lat="40.8238620" lon="0.2400040">
        <ele>569.0</ele>
        <time>2019-08-15T14:44:37Z</time>
      </trkpt>
      <trkpt lat="40.8238420" lon="0.2400170">
        <ele>569.0</ele>
        <time>2019-08-15T14:44:38Z</time>
      </trkpt>
      <trkpt lat="40.8238190" lon="0.2400240">
        <ele>569.0</ele>
        <time>2019-08-15T14:44:39Z</time>
      </trkpt>
      <trkpt lat="40.8237940" lon="0.2400300">
        <ele>569.0</ele>
        <time>2019-08-15T14:44:40Z</time>
      </trkpt>
      <trkpt lat="40.8237240" lon="0.2400370">
        <ele>569.0</ele>
        <time>2019-08-15T14:44:42Z</time>
      </trkpt>
      <trkpt lat="40.8237090" lon="0.2400380">
        <ele>569.0</ele>
        <time>2019-08-15T14:44:43Z</time>
      </trkpt>
      <trkpt lat="40.8236830" lon="0.2400450">
        <ele>569.0</ele>
        <time>2019-08-15T14:44:44Z</time>
      </trkpt>
      <trkpt lat="40.8236580" lon="0.2400550">
        <ele>569.0</ele>
        <time>2019-08-15T14:44:45Z</time>
      </trkpt>
      <trkpt lat="40.8236370" lon="0.2400640">
        <ele>569.0</ele>
        <time>2019-08-15T14:44:46Z</time>
      </trkpt>
      <trkpt lat="40.8236170" lon="0.2400710">
        <ele>569.0</ele>
        <time>2019-08-15T14:44:47Z</time>
      </trkpt>
      <trkpt lat="40.8235970" lon="0.2400800">
        <ele>569.0</ele>
        <time>2019-08-15T14:44:48Z</time>
      </trkpt>
      <trkpt lat="40.8235540" lon="0.2400900">
        <ele>569.0</ele>
        <time>2019-08-15T14:44:50Z</time>
      </trkpt>
      <trkpt lat="40.8235340" lon="0.2400880">
        <ele>569.0</ele>
        <time>2019-08-15T14:44:51Z</time>
      </trkpt>
      <trkpt lat="40.8235150" lon="0.2400830">
        <ele>569.0</ele>
        <time>2019-08-15T14:44:52Z</time>
      </trkpt>
      <trkpt lat="40.8234970" lon="0.2400810">
        <ele>569.0</ele>
        <time>2019-08-15T14:44:53Z</time>
      </trkpt>
      <trkpt lat="40.8234620" lon="0.2400820">
        <ele>569.0</ele>
        <time>2019-08-15T14:44:55Z</time>
      </trkpt>
      <trkpt lat="40.8235080" lon="0.2400910">
        <ele>569.0</ele>
        <time>2019-08-15T14:45:50Z</time>
      </trkpt>
      <trkpt lat="40.8235330" lon="0.2400850">
        <ele>569.0</ele>
        <time>2019-08-15T14:45:52Z</time>
      </trkpt>
      <trkpt lat="40.8235920" lon="0.2400750">
        <ele>569.0</ele>
        <time>2019-08-15T14:45:54Z</time>
      </trkpt>
      <trkpt lat="40.8236250" lon="0.2400730">
        <ele>569.0</ele>
        <time>2019-08-15T14:45:55Z</time>
      </trkpt>
      <trkpt lat="40.8236530" lon="0.2400700">
        <ele>569.0</ele>
        <time>2019-08-15T14:45:56Z</time>
      </trkpt>
      <trkpt lat="40.8236780" lon="0.2400660">
        <ele>569.0</ele>
        <time>2019-08-15T14:45:57Z</time>
      </trkpt>
      <trkpt lat="40.8237030" lon="0.2400630">
        <ele>569.0</ele>
        <time>2019-08-15T14:45:58Z</time>
      </trkpt>
      <trkpt lat="40.8237270" lon="0.2400600">
        <ele>569.0</ele>
        <time>2019-08-15T14:45:59Z</time>
      </trkpt>
      <trkpt lat="40.8237500" lon="0.2400540">
        <ele>569.0</ele>
        <time>2019-08-15T14:46:00Z</time>
      </trkpt>
      <trkpt lat="40.8237740" lon="0.2400500">
        <ele>569.0</ele>
        <time>2019-08-15T14:46:01Z</time>
      </trkpt>
      <trkpt lat="40.8237980" lon="0.2400460">
        <ele>569.0</ele>
        <time>2019-08-15T14:46:02Z</time>
      </trkpt>
      <trkpt lat="40.8238200" lon="0.2400390">
        <ele>570.0</ele>
        <time>2019-08-15T14:46:03Z</time>
      </trkpt>
      <trkpt lat="40.8238410" lon="0.2400250">
        <ele>570.0</ele>
        <time>2019-08-15T14:46:04Z</time>
      </trkpt>
      <trkpt lat="40.8238640" lon="0.2400140">
        <ele>570.0</ele>
        <time>2019-08-15T14:46:05Z</time>
      </trkpt>
      <trkpt lat="40.8238910" lon="0.2400050">
        <ele>570.0</ele>
        <time>2019-08-15T14:46:06Z</time>
      </trkpt>
      <trkpt lat="40.8239170" lon="0.2399970">
        <ele>570.0</ele>
        <time>2019-08-15T14:46:07Z</time>
      </trkpt>
      <trkpt lat="40.8239400" lon="0.2399870">
        <ele>570.0</ele>
        <time>2019-08-15T14:46:08Z</time>
      </trkpt>
      <trkpt lat="40.8239650" lon="0.2399700">
        <ele>570.0</ele>
        <time>2019-08-15T14:46:09Z</time>
      </trkpt>
      <trkpt lat="40.8239890" lon="0.2399520">
        <ele>570.0</ele>
        <time>2019-08-15T14:46:10Z</time>
      </trkpt>
      <trkpt lat="40.8240180" lon="0.2399310">
        <ele>570.0</ele>
        <time>2019-08-15T14:46:11Z</time>
      </trkpt>
      <trkpt lat="40.8240420" lon="0.2399140">
        <ele>570.0</ele>
        <time>2019-08-15T14:46:12Z</time>
      </trkpt>
      <trkpt lat="40.8240670" lon="0.2398960">
        <ele>570.0</ele>
        <time>2019-08-15T14:46:13Z</time>
      </trkpt>
      <trkpt lat="40.8240890" lon="0.2398780">
        <ele>570.0</ele>
        <time>2019-08-15T14:46:14Z</time>
      </trkpt>
      <trkpt lat="40.8241090" lon="0.2398600">
        <ele>570.0</ele>
        <time>2019-08-15T14:46:15Z</time>
      </trkpt>
      <trkpt lat="40.8241250" lon="0.2398390">
        <ele>570.0</ele>
        <time>2019-08-15T14:46:16Z</time>
      </trkpt>
      <trkpt lat="40.8241380" lon="0.2398200">
        <ele>570.0</ele>
        <time>2019-08-15T14:46:17Z</time>
      </trkpt>
      <trkpt lat="40.8241550" lon="0.2398030">
        <ele>570.0</ele>
        <time>2019-08-15T14:46:18Z</time>
      </trkpt>
      <trkpt lat="40.8241730" lon="0.2397830">
        <ele>570.0</ele>
        <time>2019-08-15T14:46:19Z</time>
      </trkpt>
      <trkpt lat="40.8241920" lon="0.2397570">
        <ele>570.0</ele>
        <time>2019-08-15T14:46:20Z</time>
      </trkpt>
      <trkpt lat="40.8242320" lon="0.2397040">
        <ele>570.0</ele>
        <time>2019-08-15T14:46:22Z</time>
      </trkpt>
      <trkpt lat="40.8242530" lon="0.2396780">
        <ele>570.0</ele>
        <time>2019-08-15T14:46:23Z</time>
      </trkpt>
      <trkpt lat="40.8242750" lon="0.2396500">
        <ele>570.0</ele>
        <time>2019-08-15T14:46:24Z</time>
      </trkpt>
      <trkpt lat="40.8243210" lon="0.2395420">
        <ele>570.0</ele>
        <time>2019-08-15T14:46:27Z</time>
      </trkpt>
      <trkpt lat="40.8243340" lon="0.2394990">
        <ele>570.0</ele>
        <time>2019-08-15T14:46:28Z</time>
      </trkpt>
      <trkpt lat="40.8243400" lon="0.2394530">
        <ele>570.0</ele>
        <time>2019-08-15T14:46:29Z</time>
      </trkpt>
      <trkpt lat="40.8243250" lon="0.2392900">
        <ele>569.0</ele>
        <time>2019-08-15T14:46:32Z</time>
      </trkpt>
      <trkpt lat="40.8243200" lon="0.2392670">
        <ele>569.0</ele>
        <time>2019-08-15T14:46:33Z</time>
      </trkpt>
      <trkpt lat="40.8243090" lon="0.2392230">
        <ele>569.0</ele>
        <time>2019-08-15T14:46:34Z</time>
      </trkpt>
      <trkpt lat="40.8242970" lon="0.2391780">
        <ele>569.0</ele>
        <time>2019-08-15T14:46:35Z</time>
      </trkpt>
      <trkpt lat="40.8242860" lon="0.2391360">
        <ele>569.0</ele>
        <time>2019-08-15T14:46:36Z</time>
      </trkpt>
      <trkpt lat="40.8242750" lon="0.2390950">
        <ele>569.0</ele>
        <time>2019-08-15T14:46:37Z</time>
      </trkpt>
      <trkpt lat="40.8242610" lon="0.2390550">
        <ele>569.0</ele>
        <time>2019-08-15T14:46:38Z</time>
      </trkpt>
      <trkpt lat="40.8242490" lon="0.2390130">
        <ele>569.0</ele>
        <time>2019-08-15T14:46:39Z</time>
      </trkpt>
      <trkpt lat="40.8242370" lon="0.2389720">
        <ele>569.0</ele>
        <time>2019-08-15T14:46:40Z</time>
      </trkpt>
      <trkpt lat="40.8242250" lon="0.2389330">
        <ele>569.0</ele>
        <time>2019-08-15T14:46:41Z</time>
      </trkpt>
      <trkpt lat="40.8242160" lon="0.2388950">
        <ele>569.0</ele>
        <time>2019-08-15T14:46:42Z</time>
      </trkpt>
      <trkpt lat="40.8242090" lon="0.2388560">
        <ele>568.0</ele>
        <time>2019-08-15T14:46:43Z</time>
      </trkpt>
      <trkpt lat="40.8242020" lon="0.2388130">
        <ele>568.0</ele>
        <time>2019-08-15T14:46:44Z</time>
      </trkpt>
      <trkpt lat="40.8241940" lon="0.2387710">
        <ele>568.0</ele>
        <time>2019-08-15T14:46:45Z</time>
      </trkpt>
      <trkpt lat="40.8241850" lon="0.2387270">
        <ele>568.0</ele>
        <time>2019-08-15T14:46:46Z</time>
      </trkpt>
      <trkpt lat="40.8241740" lon="0.2386810">
        <ele>568.0</ele>
        <time>2019-08-15T14:46:47Z</time>
      </trkpt>
      <trkpt lat="40.8241620" lon="0.2386350">
        <ele>568.0</ele>
        <time>2019-08-15T14:46:48Z</time>
      </trkpt>
      <trkpt lat="40.8241500" lon="0.2385870">
        <ele>568.0</ele>
        <time>2019-08-15T14:46:49Z</time>
      </trkpt>
      <trkpt lat="40.8241390" lon="0.2385360">
        <ele>568.0</ele>
        <time>2019-08-15T14:46:50Z</time>
      </trkpt>
      <trkpt lat="40.8241290" lon="0.2384880">
        <ele>568.0</ele>
        <time>2019-08-15T14:46:51Z</time>
      </trkpt>
      <trkpt lat="40.8241220" lon="0.2384420">
        <ele>568.0</ele>
        <time>2019-08-15T14:46:52Z</time>
      </trkpt>
      <trkpt lat="40.8241180" lon="0.2383970">
        <ele>568.0</ele>
        <time>2019-08-15T14:46:53Z</time>
      </trkpt>
      <trkpt lat="40.8241130" lon="0.2383500">
        <ele>568.0</ele>
        <time>2019-08-15T14:46:54Z</time>
      </trkpt>
      <trkpt lat="40.8241060" lon="0.2383020">
        <ele>568.0</ele>
        <time>2019-08-15T14:46:55Z</time>
      </trkpt>
      <trkpt lat="40.8241060" lon="0.2382570">
        <ele>568.0</ele>
        <time>2019-08-15T14:46:56Z</time>
      </trkpt>
      <trkpt lat="40.8240990" lon="0.2381240">
        <ele>568.0</ele>
        <time>2019-08-15T14:46:59Z</time>
      </trkpt>
      <trkpt lat="40.8240920" lon="0.2380790">
        <ele>568.0</ele>
        <time>2019-08-15T14:47:00Z</time>
      </trkpt>
      <trkpt lat="40.8240900" lon="0.2380310">
        <ele>568.0</ele>
        <time>2019-08-15T14:47:01Z</time>
      </trkpt>
      <trkpt lat="40.8241180" lon="0.2378810">
        <ele>568.0</ele>
        <time>2019-08-15T14:47:04Z</time>
      </trkpt>
      <trkpt lat="40.8241340" lon="0.2378260">
        <ele>568.0</ele>
        <time>2019-08-15T14:47:05Z</time>
      </trkpt>
      <trkpt lat="40.8241460" lon="0.2377770">
        <ele>568.0</ele>
        <time>2019-08-15T14:47:06Z</time>
      </trkpt>
      <trkpt lat="40.8241650" lon="0.2377270">
        <ele>568.0</ele>
        <time>2019-08-15T14:47:07Z</time>
      </trkpt>
      <trkpt lat="40.8242130" lon="0.2376390">
        <ele>568.0</ele>
        <time>2019-08-15T14:47:09Z</time>
      </trkpt>
      <trkpt lat="40.8242430" lon="0.2376030">
        <ele>568.0</ele>
        <time>2019-08-15T14:47:10Z</time>
      </trkpt>
      <trkpt lat="40.8242710" lon="0.2375660">
        <ele>568.0</ele>
        <time>2019-08-15T14:47:11Z</time>
      </trkpt>
      <trkpt lat="40.8242990" lon="0.2375340">
        <ele>568.0</ele>
        <time>2019-08-15T14:47:12Z</time>
      </trkpt>
      <trkpt lat="40.8243330" lon="0.2375170">
        <ele>567.0</ele>
        <time>2019-08-15T14:47:13Z</time>
      </trkpt>
      <trkpt lat="40.8243720" lon="0.2375120">
        <ele>567.0</ele>
        <time>2019-08-15T14:47:14Z</time>
      </trkpt>
      <trkpt lat="40.8244090" lon="0.2375070">
        <ele>567.0</ele>
        <time>2019-08-15T14:47:15Z</time>
      </trkpt>
      <trkpt lat="40.8244410" lon="0.2375020">
        <ele>567.0</ele>
        <time>2019-08-15T14:47:16Z</time>
      </trkpt>
      <trkpt lat="40.8244960" lon="0.2375060">
        <ele>567.0</ele>
        <time>2019-08-15T14:47:18Z</time>
      </trkpt>
      <trkpt lat="40.8245200" lon="0.2375070">
        <ele>567.0</ele>
        <time>2019-08-15T14:47:19Z</time>
      </trkpt>
      <trkpt lat="40.8245460" lon="0.2375180">
        <ele>567.0</ele>
        <time>2019-08-15T14:47:20Z</time>
      </trkpt>
      <trkpt lat="40.8245690" lon="0.2375340">
        <ele>567.0</ele>
        <time>2019-08-15T14:47:21Z</time>
      </trkpt>
      <trkpt lat="40.8245910" lon="0.2375490">
        <ele>567.0</ele>
        <time>2019-08-15T14:47:22Z</time>
      </trkpt>
      <trkpt lat="40.8246130" lon="0.2375690">
        <ele>567.0</ele>
        <time>2019-08-15T14:47:23Z</time>
      </trkpt>
      <trkpt lat="40.8246310" lon="0.2375930">
        <ele>567.0</ele>
        <time>2019-08-15T14:47:24Z</time>
      </trkpt>
      <trkpt lat="40.8246460" lon="0.2376270">
        <ele>567.0</ele>
        <time>2019-08-15T14:47:25Z</time>
      </trkpt>
      <trkpt lat="40.8246500" lon="0.2376660">
        <ele>567.0</ele>
        <time>2019-08-15T14:47:26Z</time>
      </trkpt>
      <trkpt lat="40.8246500" lon="0.2377060">
        <ele>567.0</ele>
        <time>2019-08-15T14:47:27Z</time>
      </trkpt>
      <trkpt lat="40.8246500" lon="0.2377440">
        <ele>567.0</ele>
        <time>2019-08-15T14:47:28Z</time>
      </trkpt>
      <trkpt lat="40.8246560" lon="0.2377840">
        <ele>567.0</ele>
        <time>2019-08-15T14:47:29Z</time>
      </trkpt>
      <trkpt lat="40.8246660" lon="0.2378250">
        <ele>567.0</ele>
        <time>2019-08-15T14:47:30Z</time>
      </trkpt>
      <trkpt lat="40.8246830" lon="0.2378490">
        <ele>567.0</ele>
        <time>2019-08-15T14:47:31Z</time>
      </trkpt>
      <trkpt lat="40.8247010" lon="0.2378740">
        <ele>567.0</ele>
        <time>2019-08-15T14:47:32Z</time>
      </trkpt>
      <trkpt lat="40.8247230" lon="0.2378920">
        <ele>567.0</ele>
        <time>2019-08-15T14:47:33Z</time>
      </trkpt>
      <trkpt lat="40.8247490" lon="0.2379070">
        <ele>567.0</ele>
        <time>2019-08-15T14:47:34Z</time>
      </trkpt>
      <trkpt lat="40.8247750" lon="0.2379290">
        <ele>567.0</ele>
        <time>2019-08-15T14:47:35Z</time>
      </trkpt>
      <trkpt lat="40.8248050" lon="0.2379400">
        <ele>567.0</ele>
        <time>2019-08-15T14:47:36Z</time>
      </trkpt>
      <trkpt lat="40.8248390" lon="0.2379440">
        <ele>567.0</ele>
        <time>2019-08-15T14:47:37Z</time>
      </trkpt>
      <trkpt lat="40.8248720" lon="0.2379500">
        <ele>567.0</ele>
        <time>2019-08-15T14:47:38Z</time>
      </trkpt>
      <trkpt lat="40.8249070" lon="0.2379550">
        <ele>567.0</ele>
        <time>2019-08-15T14:47:39Z</time>
      </trkpt>
      <trkpt lat="40.8249420" lon="0.2379550">
        <ele>567.0</ele>
        <time>2019-08-15T14:47:40Z</time>
      </trkpt>
      <trkpt lat="40.8249780" lon="0.2379570">
        <ele>567.0</ele>
        <time>2019-08-15T14:47:41Z</time>
      </trkpt>
      <trkpt lat="40.8250140" lon="0.2379530">
        <ele>566.0</ele>
        <time>2019-08-15T14:47:42Z</time>
      </trkpt>
      <trkpt lat="40.8250490" lon="0.2379450">
        <ele>566.0</ele>
        <time>2019-08-15T14:47:43Z</time>
      </trkpt>
      <trkpt lat="40.8251180" lon="0.2379300">
        <ele>566.0</ele>
        <time>2019-08-15T14:47:45Z</time>
      </trkpt>
      <trkpt lat="40.8251690" lon="0.2379120">
        <ele>566.0</ele>
        <time>2019-08-15T14:47:46Z</time>
      </trkpt>
      <trkpt lat="40.8251860" lon="0.2379070">
        <ele>566.0</ele>
        <time>2019-08-15T14:47:47Z</time>
      </trkpt>
      <trkpt lat="40.8252170" lon="0.2378930">
        <ele>566.0</ele>
        <time>2019-08-15T14:47:48Z</time>
      </trkpt>
      <trkpt lat="40.8252460" lon="0.2378720">
        <ele>565.0</ele>
        <time>2019-08-15T14:47:49Z</time>
      </trkpt>
      <trkpt lat="40.8252770" lon="0.2378490">
        <ele>565.0</ele>
        <time>2019-08-15T14:47:50Z</time>
      </trkpt>
      <trkpt lat="40.8253030" lon="0.2378240">
        <ele>565.0</ele>
        <time>2019-08-15T14:47:51Z</time>
      </trkpt>
      <trkpt lat="40.8253290" lon="0.2377970">
        <ele>565.0</ele>
        <time>2019-08-15T14:47:52Z</time>
      </trkpt>
      <trkpt lat="40.8253530" lon="0.2377680">
        <ele>565.0</ele>
        <time>2019-08-15T14:47:53Z</time>
      </trkpt>
      <trkpt lat="40.8253740" lon="0.2377360">
        <ele>565.0</ele>
        <time>2019-08-15T14:47:54Z</time>
      </trkpt>
      <trkpt lat="40.8253940" lon="0.2377030">
        <ele>565.0</ele>
        <time>2019-08-15T14:47:55Z</time>
      </trkpt>
      <trkpt lat="40.8254130" lon="0.2376680">
        <ele>565.0</ele>
        <time>2019-08-15T14:47:56Z</time>
      </trkpt>
      <trkpt lat="40.8254320" lon="0.2376320">
        <ele>565.0</ele>
        <time>2019-08-15T14:47:57Z</time>
      </trkpt>
      <trkpt lat="40.8254530" lon="0.2375940">
        <ele>565.0</ele>
        <time>2019-08-15T14:47:58Z</time>
      </trkpt>
      <trkpt lat="40.8254720" lon="0.2375550">
        <ele>565.0</ele>
        <time>2019-08-15T14:47:59Z</time>
      </trkpt>
      <trkpt lat="40.8254910" lon="0.2375150">
        <ele>565.0</ele>
        <time>2019-08-15T14:48:00Z</time>
      </trkpt>
      <trkpt lat="40.8255100" lon="0.2374710">
        <ele>565.0</ele>
        <time>2019-08-15T14:48:01Z</time>
      </trkpt>
      <trkpt lat="40.8255270" lon="0.2374280">
        <ele>565.0</ele>
        <time>2019-08-15T14:48:02Z</time>
      </trkpt>
      <trkpt lat="40.8255420" lon="0.2373810">
        <ele>565.0</ele>
        <time>2019-08-15T14:48:03Z</time>
      </trkpt>
      <trkpt lat="40.8255580" lon="0.2373280">
        <ele>565.0</ele>
        <time>2019-08-15T14:48:04Z</time>
      </trkpt>
      <trkpt lat="40.8255710" lon="0.2372720">
        <ele>565.0</ele>
        <time>2019-08-15T14:48:05Z</time>
      </trkpt>
      <trkpt lat="40.8255800" lon="0.2372140">
        <ele>564.0</ele>
        <time>2019-08-15T14:48:06Z</time>
      </trkpt>
      <trkpt lat="40.8255880" lon="0.2371560">
        <ele>564.0</ele>
        <time>2019-08-15T14:48:07Z</time>
      </trkpt>
      <trkpt lat="40.8255960" lon="0.2371010">
        <ele>564.0</ele>
        <time>2019-08-15T14:48:08Z</time>
      </trkpt>
      <trkpt lat="40.8256020" lon="0.2370470">
        <ele>564.0</ele>
        <time>2019-08-15T14:48:09Z</time>
      </trkpt>
      <trkpt lat="40.8256060" lon="0.2369970">
        <ele>564.0</ele>
        <time>2019-08-15T14:48:10Z</time>
      </trkpt>
      <trkpt lat="40.8256120" lon="0.2369450">
        <ele>564.0</ele>
        <time>2019-08-15T14:48:11Z</time>
      </trkpt>
      <trkpt lat="40.8256240" lon="0.2368400">
        <ele>564.0</ele>
        <time>2019-08-15T14:48:13Z</time>
      </trkpt>
      <trkpt lat="40.8256310" lon="0.2367920">
        <ele>564.0</ele>
        <time>2019-08-15T14:48:14Z</time>
      </trkpt>
      <trkpt lat="40.8256370" lon="0.2367490">
        <ele>564.0</ele>
        <time>2019-08-15T14:48:15Z</time>
      </trkpt>
      <trkpt lat="40.8256650" lon="0.2366180">
        <ele>563.0</ele>
        <time>2019-08-15T14:48:18Z</time>
      </trkpt>
      <trkpt lat="40.8256760" lon="0.2365710">
        <ele>563.0</ele>
        <time>2019-08-15T14:48:19Z</time>
      </trkpt>
      <trkpt lat="40.8256880" lon="0.2365250">
        <ele>563.0</ele>
        <time>2019-08-15T14:48:20Z</time>
      </trkpt>
      <trkpt lat="40.8257040" lon="0.2364800">
        <ele>563.0</ele>
        <time>2019-08-15T14:48:21Z</time>
      </trkpt>
      <trkpt lat="40.8257340" lon="0.2363920">
        <ele>563.0</ele>
        <time>2019-08-15T14:48:23Z</time>
      </trkpt>
      <trkpt lat="40.8257480" lon="0.2363520">
        <ele>563.0</ele>
        <time>2019-08-15T14:48:24Z</time>
      </trkpt>
      <trkpt lat="40.8257600" lon="0.2363110">
        <ele>563.0</ele>
        <time>2019-08-15T14:48:25Z</time>
      </trkpt>
      <trkpt lat="40.8257790" lon="0.2362760">
        <ele>563.0</ele>
        <time>2019-08-15T14:48:26Z</time>
      </trkpt>
      <trkpt lat="40.8258120" lon="0.2362090">
        <ele>563.0</ele>
        <time>2019-08-15T14:48:28Z</time>
      </trkpt>
      <trkpt lat="40.8258300" lon="0.2361760">
        <ele>563.0</ele>
        <time>2019-08-15T14:48:29Z</time>
      </trkpt>
      <trkpt lat="40.8258480" lon="0.2361430">
        <ele>563.0</ele>
        <time>2019-08-15T14:48:30Z</time>
      </trkpt>
      <trkpt lat="40.8258650" lon="0.2361130">
        <ele>563.0</ele>
        <time>2019-08-15T14:48:31Z</time>
      </trkpt>
      <trkpt lat="40.8259000" lon="0.2360640">
        <ele>563.0</ele>
        <time>2019-08-15T14:48:33Z</time>
      </trkpt>
      <trkpt lat="40.8259180" lon="0.2360410">
        <ele>563.0</ele>
        <time>2019-08-15T14:48:34Z</time>
      </trkpt>
      <trkpt lat="40.8259390" lon="0.2360150">
        <ele>563.0</ele>
        <time>2019-08-15T14:48:35Z</time>
      </trkpt>
      <trkpt lat="40.8259600" lon="0.2359950">
        <ele>563.0</ele>
        <time>2019-08-15T14:48:36Z</time>
      </trkpt>
      <trkpt lat="40.8260030" lon="0.2359750">
        <ele>563.0</ele>
        <time>2019-08-15T14:48:38Z</time>
      </trkpt>
      <trkpt lat="40.8260300" lon="0.2359680">
        <ele>563.0</ele>
        <time>2019-08-15T14:48:39Z</time>
      </trkpt>
      <trkpt lat="40.8260570" lon="0.2359590">
        <ele>563.0</ele>
        <time>2019-08-15T14:48:40Z</time>
      </trkpt>
      <trkpt lat="40.8260880" lon="0.2359520">
        <ele>563.0</ele>
        <time>2019-08-15T14:48:41Z</time>
      </trkpt>
      <trkpt lat="40.8261200" lon="0.2359440">
        <ele>563.0</ele>
        <time>2019-08-15T14:48:42Z</time>
      </trkpt>
      <trkpt lat="40.8261510" lon="0.2359390">
        <ele>563.0</ele>
        <time>2019-08-15T14:48:43Z</time>
      </trkpt>
      <trkpt lat="40.8261790" lon="0.2359370">
        <ele>563.0</ele>
        <time>2019-08-15T14:48:44Z</time>
      </trkpt>
      <trkpt lat="40.8262050" lon="0.2359350">
        <ele>563.0</ele>
        <time>2019-08-15T14:48:45Z</time>
      </trkpt>
      <trkpt lat="40.8262320" lon="0.2359350">
        <ele>563.0</ele>
        <time>2019-08-15T14:48:46Z</time>
      </trkpt>
      <trkpt lat="40.8262600" lon="0.2359400">
        <ele>563.0</ele>
        <time>2019-08-15T14:48:47Z</time>
      </trkpt>
      <trkpt lat="40.8263270" lon="0.2359450">
        <ele>563.0</ele>
        <time>2019-08-15T14:48:49Z</time>
      </trkpt>
      <trkpt lat="40.8263620" lon="0.2359460">
        <ele>563.0</ele>
        <time>2019-08-15T14:48:50Z</time>
      </trkpt>
      <trkpt lat="40.8263970" lon="0.2359490">
        <ele>563.0</ele>
        <time>2019-08-15T14:48:51Z</time>
      </trkpt>
      <trkpt lat="40.8264330" lon="0.2359520">
        <ele>563.0</ele>
        <time>2019-08-15T14:48:52Z</time>
      </trkpt>
      <trkpt lat="40.8264670" lon="0.2359550">
        <ele>563.0</ele>
        <time>2019-08-15T14:48:53Z</time>
      </trkpt>
      <trkpt lat="40.8264990" lon="0.2359600">
        <ele>563.0</ele>
        <time>2019-08-15T14:48:54Z</time>
      </trkpt>
      <trkpt lat="40.8265280" lon="0.2359640">
        <ele>563.0</ele>
        <time>2019-08-15T14:48:55Z</time>
      </trkpt>
      <trkpt lat="40.8265580" lon="0.2359670">
        <ele>563.0</ele>
        <time>2019-08-15T14:48:56Z</time>
      </trkpt>
      <trkpt lat="40.8265870" lon="0.2359710">
        <ele>563.0</ele>
        <time>2019-08-15T14:48:57Z</time>
      </trkpt>
      <trkpt lat="40.8266160" lon="0.2359790">
        <ele>563.0</ele>
        <time>2019-08-15T14:48:58Z</time>
      </trkpt>
      <trkpt lat="40.8266460" lon="0.2359870">
        <ele>563.0</ele>
        <time>2019-08-15T14:48:59Z</time>
      </trkpt>
      <trkpt lat="40.8266760" lon="0.2359910">
        <ele>563.0</ele>
        <time>2019-08-15T14:49:00Z</time>
      </trkpt>
      <trkpt lat="40.8267040" lon="0.2359920">
        <ele>563.0</ele>
        <time>2019-08-15T14:49:01Z</time>
      </trkpt>
      <trkpt lat="40.8267330" lon="0.2359890">
        <ele>563.0</ele>
        <time>2019-08-15T14:49:02Z</time>
      </trkpt>
      <trkpt lat="40.8267610" lon="0.2359900">
        <ele>563.0</ele>
        <time>2019-08-15T14:49:03Z</time>
      </trkpt>
      <trkpt lat="40.8267910" lon="0.2359890">
        <ele>564.0</ele>
        <time>2019-08-15T14:49:04Z</time>
      </trkpt>
      <trkpt lat="40.8268190" lon="0.2359870">
        <ele>564.0</ele>
        <time>2019-08-15T14:49:05Z</time>
      </trkpt>
      <trkpt lat="40.8268480" lon="0.2359910">
        <ele>564.0</ele>
        <time>2019-08-15T14:49:06Z</time>
      </trkpt>
      <trkpt lat="40.8268770" lon="0.2359940">
        <ele>564.0</ele>
        <time>2019-08-15T14:49:07Z</time>
      </trkpt>
      <trkpt lat="40.8269050" lon="0.2359970">
        <ele>564.0</ele>
        <time>2019-08-15T14:49:08Z</time>
      </trkpt>
      <trkpt lat="40.8269310" lon="0.2359960">
        <ele>564.0</ele>
        <time>2019-08-15T14:49:09Z</time>
      </trkpt>
      <trkpt lat="40.8269580" lon="0.2360000">
        <ele>564.0</ele>
        <time>2019-08-15T14:49:10Z</time>
      </trkpt>
      <trkpt lat="40.8269860" lon="0.2360070">
        <ele>564.0</ele>
        <time>2019-08-15T14:49:11Z</time>
      </trkpt>
      <trkpt lat="40.8270150" lon="0.2360110">
        <ele>564.0</ele>
        <time>2019-08-15T14:49:12Z</time>
      </trkpt>
      <trkpt lat="40.8270440" lon="0.2360130">
        <ele>564.0</ele>
        <time>2019-08-15T14:49:13Z</time>
      </trkpt>
      <trkpt lat="40.8270740" lon="0.2360150">
        <ele>564.0</ele>
        <time>2019-08-15T14:49:14Z</time>
      </trkpt>
      <trkpt lat="40.8271060" lon="0.2360170">
        <ele>564.0</ele>
        <time>2019-08-15T14:49:15Z</time>
      </trkpt>
      <trkpt lat="40.8271390" lon="0.2360190">
        <ele>564.0</ele>
        <time>2019-08-15T14:49:16Z</time>
      </trkpt>
      <trkpt lat="40.8271730" lon="0.2360220">
        <ele>564.0</ele>
        <time>2019-08-15T14:49:17Z</time>
      </trkpt>
      <trkpt lat="40.8272060" lon="0.2360240">
        <ele>564.0</ele>
        <time>2019-08-15T14:49:18Z</time>
      </trkpt>
      <trkpt lat="40.8272390" lon="0.2360260">
        <ele>564.0</ele>
        <time>2019-08-15T14:49:19Z</time>
      </trkpt>
      <trkpt lat="40.8272980" lon="0.2360230">
        <ele>564.0</ele>
        <time>2019-08-15T14:49:21Z</time>
      </trkpt>
      <trkpt lat="40.8273270" lon="0.2360210">
        <ele>564.0</ele>
        <time>2019-08-15T14:49:22Z</time>
      </trkpt>
      <trkpt lat="40.8273780" lon="0.2360100">
        <ele>564.0</ele>
        <time>2019-08-15T14:49:24Z</time>
      </trkpt>
      <trkpt lat="40.8274050" lon="0.2360000">
        <ele>564.0</ele>
        <time>2019-08-15T14:49:25Z</time>
      </trkpt>
      <trkpt lat="40.8274310" lon="0.2359860">
        <ele>564.0</ele>
        <time>2019-08-15T14:49:26Z</time>
      </trkpt>
      <trkpt lat="40.8274580" lon="0.2359680">
        <ele>564.0</ele>
        <time>2019-08-15T14:49:27Z</time>
      </trkpt>
      <trkpt lat="40.8274860" lon="0.2359420">
        <ele>564.0</ele>
        <time>2019-08-15T14:49:28Z</time>
      </trkpt>
      <trkpt lat="40.8275130" lon="0.2359120">
        <ele>564.0</ele>
        <time>2019-08-15T14:49:29Z</time>
      </trkpt>
      <trkpt lat="40.8275370" lon="0.2358730">
        <ele>564.0</ele>
        <time>2019-08-15T14:49:30Z</time>
      </trkpt>
      <trkpt lat="40.8275580" lon="0.2358260">
        <ele>564.0</ele>
        <time>2019-08-15T14:49:31Z</time>
      </trkpt>
      <trkpt lat="40.8275770" lon="0.2357760">
        <ele>564.0</ele>
        <time>2019-08-15T14:49:32Z</time>
      </trkpt>
      <trkpt lat="40.8275930" lon="0.2357230">
        <ele>564.0</ele>
        <time>2019-08-15T14:49:33Z</time>
      </trkpt>
      <trkpt lat="40.8276030" lon="0.2356630">
        <ele>564.0</ele>
        <time>2019-08-15T14:49:34Z</time>
      </trkpt>
      <trkpt lat="40.8276080" lon="0.2356000">
        <ele>563.0</ele>
        <time>2019-08-15T14:49:35Z</time>
      </trkpt>
      <trkpt lat="40.8276100" lon="0.2355400">
        <ele>563.0</ele>
        <time>2019-08-15T14:49:36Z</time>
      </trkpt>
      <trkpt lat="40.8276100" lon="0.2354800">
        <ele>563.0</ele>
        <time>2019-08-15T14:49:37Z</time>
      </trkpt>
      <trkpt lat="40.8276100" lon="0.2354220">
        <ele>563.0</ele>
        <time>2019-08-15T14:49:38Z</time>
      </trkpt>
      <trkpt lat="40.8276090" lon="0.2353640">
        <ele>563.0</ele>
        <time>2019-08-15T14:49:39Z</time>
      </trkpt>
      <trkpt lat="40.8276070" lon="0.2353060">
        <ele>562.0</ele>
        <time>2019-08-15T14:49:40Z</time>
      </trkpt>
      <trkpt lat="40.8276070" lon="0.2352460">
        <ele>562.0</ele>
        <time>2019-08-15T14:49:41Z</time>
      </trkpt>
      <trkpt lat="40.8276120" lon="0.2351840">
        <ele>562.0</ele>
        <time>2019-08-15T14:49:42Z</time>
      </trkpt>
      <trkpt lat="40.8276180" lon="0.2351190">
        <ele>562.0</ele>
        <time>2019-08-15T14:49:43Z</time>
      </trkpt>
      <trkpt lat="40.8276220" lon="0.2350540">
        <ele>562.0</ele>
        <time>2019-08-15T14:49:44Z</time>
      </trkpt>
      <trkpt lat="40.8276260" lon="0.2349870">
        <ele>562.0</ele>
        <time>2019-08-15T14:49:45Z</time>
      </trkpt>
      <trkpt lat="40.8276320" lon="0.2349220">
        <ele>561.0</ele>
        <time>2019-08-15T14:49:46Z</time>
      </trkpt>
      <trkpt lat="40.8276380" lon="0.2348580">
        <ele>561.0</ele>
        <time>2019-08-15T14:49:47Z</time>
      </trkpt>
      <trkpt lat="40.8276470" lon="0.2347960">
        <ele>561.0</ele>
        <time>2019-08-15T14:49:48Z</time>
      </trkpt>
      <trkpt lat="40.8276560" lon="0.2347350">
        <ele>561.0</ele>
        <time>2019-08-15T14:49:49Z</time>
      </trkpt>
      <trkpt lat="40.8276660" lon="0.2346740">
        <ele>560.0</ele>
        <time>2019-08-15T14:49:50Z</time>
      </trkpt>
      <trkpt lat="40.8276760" lon="0.2346150">
        <ele>560.0</ele>
        <time>2019-08-15T14:49:51Z</time>
      </trkpt>
      <trkpt lat="40.8276870" lon="0.2345590">
        <ele>560.0</ele>
        <time>2019-08-15T14:49:52Z</time>
      </trkpt>
      <trkpt lat="40.8277060" lon="0.2344510">
        <ele>560.0</ele>
        <time>2019-08-15T14:49:54Z</time>
      </trkpt>
      <trkpt lat="40.8277180" lon="0.2343990">
        <ele>560.0</ele>
        <time>2019-08-15T14:49:55Z</time>
      </trkpt>
      <trkpt lat="40.8277340" lon="0.2343470">
        <ele>560.0</ele>
        <time>2019-08-15T14:49:56Z</time>
      </trkpt>
      <trkpt lat="40.8277660" lon="0.2342020">
        <ele>559.0</ele>
        <time>2019-08-15T14:49:59Z</time>
      </trkpt>
      <trkpt lat="40.8277820" lon="0.2341610">
        <ele>559.0</ele>
        <time>2019-08-15T14:50:00Z</time>
      </trkpt>
      <trkpt lat="40.8277980" lon="0.2341240">
        <ele>559.0</ele>
        <time>2019-08-15T14:50:01Z</time>
      </trkpt>
      <trkpt lat="40.8278200" lon="0.2340860">
        <ele>559.0</ele>
        <time>2019-08-15T14:50:02Z</time>
      </trkpt>
      <trkpt lat="40.8278620" lon="0.2340020">
        <ele>559.0</ele>
        <time>2019-08-15T14:50:04Z</time>
      </trkpt>
      <trkpt lat="40.8278820" lon="0.2339580">
        <ele>559.0</ele>
        <time>2019-08-15T14:50:05Z</time>
      </trkpt>
      <trkpt lat="40.8278990" lon="0.2339130">
        <ele>559.0</ele>
        <time>2019-08-15T14:50:06Z</time>
      </trkpt>
      <trkpt lat="40.8279180" lon="0.2338680">
        <ele>559.0</ele>
        <time>2019-08-15T14:50:07Z</time>
      </trkpt>
      <trkpt lat="40.8279650" lon="0.2337750">
        <ele>559.0</ele>
        <time>2019-08-15T14:50:09Z</time>
      </trkpt>
      <trkpt lat="40.8279960" lon="0.2337290">
        <ele>559.0</ele>
        <time>2019-08-15T14:50:10Z</time>
      </trkpt>
      <trkpt lat="40.8280260" lon="0.2336810">
        <ele>558.0</ele>
        <time>2019-08-15T14:50:11Z</time>
      </trkpt>
      <trkpt lat="40.8280520" lon="0.2336340">
        <ele>558.0</ele>
        <time>2019-08-15T14:50:12Z</time>
      </trkpt>
      <trkpt lat="40.8281150" lon="0.2335500">
        <ele>558.0</ele>
        <time>2019-08-15T14:50:14Z</time>
      </trkpt>
      <trkpt lat="40.8281520" lon="0.2335130">
        <ele>558.0</ele>
        <time>2019-08-15T14:50:15Z</time>
      </trkpt>
      <trkpt lat="40.8281890" lon="0.2334770">
        <ele>558.0</ele>
        <time>2019-08-15T14:50:16Z</time>
      </trkpt>
      <trkpt lat="40.8282310" lon="0.2334500">
        <ele>558.0</ele>
        <time>2019-08-15T14:50:17Z</time>
      </trkpt>
      <trkpt lat="40.8282770" lon="0.2334280">
        <ele>558.0</ele>
        <time>2019-08-15T14:50:18Z</time>
      </trkpt>
      <trkpt lat="40.8283220" lon="0.2334050">
        <ele>557.0</ele>
        <time>2019-08-15T14:50:19Z</time>
      </trkpt>
      <trkpt lat="40.8283660" lon="0.2333840">
        <ele>557.0</ele>
        <time>2019-08-15T14:50:20Z</time>
      </trkpt>
      <trkpt lat="40.8284090" lon="0.2333620">
        <ele>557.0</ele>
        <time>2019-08-15T14:50:21Z</time>
      </trkpt>
      <trkpt lat="40.8284510" lon="0.2333410">
        <ele>557.0</ele>
        <time>2019-08-15T14:50:22Z</time>
      </trkpt>
      <trkpt lat="40.8284910" lon="0.2333160">
        <ele>557.0</ele>
        <time>2019-08-15T14:50:23Z</time>
      </trkpt>
      <trkpt lat="40.8285260" lon="0.2332890">
        <ele>557.0</ele>
        <time>2019-08-15T14:50:24Z</time>
      </trkpt>
      <trkpt lat="40.8285590" lon="0.2332590">
        <ele>557.0</ele>
        <time>2019-08-15T14:50:25Z</time>
      </trkpt>
      <trkpt lat="40.8285890" lon="0.2332290">
        <ele>557.0</ele>
        <time>2019-08-15T14:50:26Z</time>
      </trkpt>
      <trkpt lat="40.8286140" lon="0.2332010">
        <ele>557.0</ele>
        <time>2019-08-15T14:50:27Z</time>
      </trkpt>
      <trkpt lat="40.8286480" lon="0.2331520">
        <ele>556.0</ele>
        <time>2019-08-15T14:50:29Z</time>
      </trkpt>
      <trkpt lat="40.8286570" lon="0.2331320">
        <ele>556.0</ele>
        <time>2019-08-15T14:50:30Z</time>
      </trkpt>
      <trkpt lat="40.8286650" lon="0.2331110">
        <ele>556.0</ele>
        <time>2019-08-15T14:50:31Z</time>
      </trkpt>
      <trkpt lat="40.8286840" lon="0.2330300">
        <ele>556.0</ele>
        <time>2019-08-15T14:50:34Z</time>
      </trkpt>
      <trkpt lat="40.8286870" lon="0.2329980">
        <ele>556.0</ele>
        <time>2019-08-15T14:50:35Z</time>
      </trkpt>
      <trkpt lat="40.8286910" lon="0.2329670">
        <ele>556.0</ele>
        <time>2019-08-15T14:50:36Z</time>
      </trkpt>
      <trkpt lat="40.8286930" lon="0.2329350">
        <ele>556.0</ele>
        <time>2019-08-15T14:50:37Z</time>
      </trkpt>
      <trkpt lat="40.8286930" lon="0.2328740">
        <ele>556.0</ele>
        <time>2019-08-15T14:50:39Z</time>
      </trkpt>
      <trkpt lat="40.8286910" lon="0.2328460">
        <ele>556.0</ele>
        <time>2019-08-15T14:50:40Z</time>
      </trkpt>
      <trkpt lat="40.8286860" lon="0.2328190">
        <ele>556.0</ele>
        <time>2019-08-15T14:50:41Z</time>
      </trkpt>
      <trkpt lat="40.8286800" lon="0.2327880">
        <ele>556.0</ele>
        <time>2019-08-15T14:50:42Z</time>
      </trkpt>
      <trkpt lat="40.8286730" lon="0.2327540">
        <ele>556.0</ele>
        <time>2019-08-15T14:50:43Z</time>
      </trkpt>
      <trkpt lat="40.8286660" lon="0.2327200">
        <ele>556.0</ele>
        <time>2019-08-15T14:50:44Z</time>
      </trkpt>
      <trkpt lat="40.8286610" lon="0.2326860">
        <ele>556.0</ele>
        <time>2019-08-15T14:50:45Z</time>
      </trkpt>
      <trkpt lat="40.8286530" lon="0.2326540">
        <ele>556.0</ele>
        <time>2019-08-15T14:50:46Z</time>
      </trkpt>
      <trkpt lat="40.8286420" lon="0.2326260">
        <ele>556.0</ele>
        <time>2019-08-15T14:50:47Z</time>
      </trkpt>
      <trkpt lat="40.8286330" lon="0.2326000">
        <ele>556.0</ele>
        <time>2019-08-15T14:50:48Z</time>
      </trkpt>
      <trkpt lat="40.8286270" lon="0.2325740">
        <ele>556.0</ele>
        <time>2019-08-15T14:50:49Z</time>
      </trkpt>
      <trkpt lat="40.8286170" lon="0.2325480">
        <ele>556.0</ele>
        <time>2019-08-15T14:50:50Z</time>
      </trkpt>
      <trkpt lat="40.8286050" lon="0.2325190">
        <ele>556.0</ele>
        <time>2019-08-15T14:50:51Z</time>
      </trkpt>
      <trkpt lat="40.8285950" lon="0.2324870">
        <ele>556.0</ele>
        <time>2019-08-15T14:50:52Z</time>
      </trkpt>
      <trkpt lat="40.8285870" lon="0.2324540">
        <ele>556.0</ele>
        <time>2019-08-15T14:50:53Z</time>
      </trkpt>
      <trkpt lat="40.8285800" lon="0.2324220">
        <ele>556.0</ele>
        <time>2019-08-15T14:50:54Z</time>
      </trkpt>
      <trkpt lat="40.8285720" lon="0.2323900">
        <ele>556.0</ele>
        <time>2019-08-15T14:50:55Z</time>
      </trkpt>
      <trkpt lat="40.8285660" lon="0.2323560">
        <ele>556.0</ele>
        <time>2019-08-15T14:50:56Z</time>
      </trkpt>
      <trkpt lat="40.8285600" lon="0.2323210">
        <ele>556.0</ele>
        <time>2019-08-15T14:50:57Z</time>
      </trkpt>
      <trkpt lat="40.8285550" lon="0.2322820">
        <ele>556.0</ele>
        <time>2019-08-15T14:50:58Z</time>
      </trkpt>
      <trkpt lat="40.8285520" lon="0.2322490">
        <ele>556.0</ele>
        <time>2019-08-15T14:50:59Z</time>
      </trkpt>
      <trkpt lat="40.8285440" lon="0.2321760">
        <ele>556.0</ele>
        <time>2019-08-15T14:51:01Z</time>
      </trkpt>
      <trkpt lat="40.8285390" lon="0.2321330">
        <ele>556.0</ele>
        <time>2019-08-15T14:51:02Z</time>
      </trkpt>
      <trkpt lat="40.8285360" lon="0.2320920">
        <ele>556.0</ele>
        <time>2019-08-15T14:51:03Z</time>
      </trkpt>
      <trkpt lat="40.8285200" lon="0.2319760">
        <ele>556.0</ele>
        <time>2019-08-15T14:51:06Z</time>
      </trkpt>
      <trkpt lat="40.8285200" lon="0.2319410">
        <ele>556.0</ele>
        <time>2019-08-15T14:51:07Z</time>
      </trkpt>
      <trkpt lat="40.8285190" lon="0.2319060">
        <ele>556.0</ele>
        <time>2019-08-15T14:51:08Z</time>
      </trkpt>
      <trkpt lat="40.8285150" lon="0.2318670">
        <ele>556.0</ele>
        <time>2019-08-15T14:51:09Z</time>
      </trkpt>
      <trkpt lat="40.8285030" lon="0.2317810">
        <ele>556.0</ele>
        <time>2019-08-15T14:51:11Z</time>
      </trkpt>
      <trkpt lat="40.8285000" lon="0.2317380">
        <ele>556.0</ele>
        <time>2019-08-15T14:51:12Z</time>
      </trkpt>
      <trkpt lat="40.8284990" lon="0.2316930">
        <ele>556.0</ele>
        <time>2019-08-15T14:51:13Z</time>
      </trkpt>
      <trkpt lat="40.8284940" lon="0.2316450">
        <ele>555.0</ele>
        <time>2019-08-15T14:51:14Z</time>
      </trkpt>
      <trkpt lat="40.8284880" lon="0.2315470">
        <ele>555.0</ele>
        <time>2019-08-15T14:51:16Z</time>
      </trkpt>
      <trkpt lat="40.8284880" lon="0.2314980">
        <ele>555.0</ele>
        <time>2019-08-15T14:51:17Z</time>
      </trkpt>
      <trkpt lat="40.8284830" lon="0.2314460">
        <ele>555.0</ele>
        <time>2019-08-15T14:51:18Z</time>
      </trkpt>
      <trkpt lat="40.8284770" lon="0.2313950">
        <ele>555.0</ele>
        <time>2019-08-15T14:51:19Z</time>
      </trkpt>
      <trkpt lat="40.8284680" lon="0.2312850">
        <ele>555.0</ele>
        <time>2019-08-15T14:51:21Z</time>
      </trkpt>
      <trkpt lat="40.8284620" lon="0.2312390">
        <ele>555.0</ele>
        <time>2019-08-15T14:51:22Z</time>
      </trkpt>
      <trkpt lat="40.8284560" lon="0.2311940">
        <ele>555.0</ele>
        <time>2019-08-15T14:51:23Z</time>
      </trkpt>
      <trkpt lat="40.8284510" lon="0.2311450">
        <ele>555.0</ele>
        <time>2019-08-15T14:51:24Z</time>
      </trkpt>
      <trkpt lat="40.8284440" lon="0.2310380">
        <ele>555.0</ele>
        <time>2019-08-15T14:51:26Z</time>
      </trkpt>
      <trkpt lat="40.8284400" lon="0.2309780">
        <ele>555.0</ele>
        <time>2019-08-15T14:51:27Z</time>
      </trkpt>
      <trkpt lat="40.8284330" lon="0.2309220">
        <ele>554.0</ele>
        <time>2019-08-15T14:51:28Z</time>
      </trkpt>
      <trkpt lat="40.8284270" lon="0.2308690">
        <ele>554.0</ele>
        <time>2019-08-15T14:51:29Z</time>
      </trkpt>
      <trkpt lat="40.8284180" lon="0.2307770">
        <ele>554.0</ele>
        <time>2019-08-15T14:51:31Z</time>
      </trkpt>
      <trkpt lat="40.8284120" lon="0.2307280">
        <ele>554.0</ele>
        <time>2019-08-15T14:51:32Z</time>
      </trkpt>
      <trkpt lat="40.8284070" lon="0.2306830">
        <ele>554.0</ele>
        <time>2019-08-15T14:51:33Z</time>
      </trkpt>
      <trkpt lat="40.8284030" lon="0.2306370">
        <ele>554.0</ele>
        <time>2019-08-15T14:51:34Z</time>
      </trkpt>
      <trkpt lat="40.8283930" lon="0.2305340">
        <ele>554.0</ele>
        <time>2019-08-15T14:51:36Z</time>
      </trkpt>
      <trkpt lat="40.8283900" lon="0.2304820">
        <ele>554.0</ele>
        <time>2019-08-15T14:51:37Z</time>
      </trkpt>
      <trkpt lat="40.8283880" lon="0.2304320">
        <ele>554.0</ele>
        <time>2019-08-15T14:51:38Z</time>
      </trkpt>
      <trkpt lat="40.8283880" lon="0.2303810">
        <ele>554.0</ele>
        <time>2019-08-15T14:51:39Z</time>
      </trkpt>
      <trkpt lat="40.8283900" lon="0.2302780">
        <ele>553.0</ele>
        <time>2019-08-15T14:51:41Z</time>
      </trkpt>
      <trkpt lat="40.8283900" lon="0.2302290">
        <ele>553.0</ele>
        <time>2019-08-15T14:51:42Z</time>
      </trkpt>
      <trkpt lat="40.8283900" lon="0.2301820">
        <ele>553.0</ele>
        <time>2019-08-15T14:51:43Z</time>
      </trkpt>
      <trkpt lat="40.8283930" lon="0.2301340">
        <ele>553.0</ele>
        <time>2019-08-15T14:51:44Z</time>
      </trkpt>
      <trkpt lat="40.8283980" lon="0.2300440">
        <ele>553.0</ele>
        <time>2019-08-15T14:51:46Z</time>
      </trkpt>
      <trkpt lat="40.8284010" lon="0.2300020">
        <ele>553.0</ele>
        <time>2019-08-15T14:51:47Z</time>
      </trkpt>
      <trkpt lat="40.8284050" lon="0.2299550">
        <ele>553.0</ele>
        <time>2019-08-15T14:51:48Z</time>
      </trkpt>
      <trkpt lat="40.8284100" lon="0.2299080">
        <ele>553.0</ele>
        <time>2019-08-15T14:51:49Z</time>
      </trkpt>
      <trkpt lat="40.8284230" lon="0.2298190">
        <ele>553.0</ele>
        <time>2019-08-15T14:51:51Z</time>
      </trkpt>
      <trkpt lat="40.8284280" lon="0.2297750">
        <ele>553.0</ele>
        <time>2019-08-15T14:51:52Z</time>
      </trkpt>
      <trkpt lat="40.8284350" lon="0.2297320">
        <ele>553.0</ele>
        <time>2019-08-15T14:51:53Z</time>
      </trkpt>
      <trkpt lat="40.8284430" lon="0.2296900">
        <ele>553.0</ele>
        <time>2019-08-15T14:51:54Z</time>
      </trkpt>
      <trkpt lat="40.8284560" lon="0.2296050">
        <ele>553.0</ele>
        <time>2019-08-15T14:51:56Z</time>
      </trkpt>
      <trkpt lat="40.8284630" lon="0.2295630">
        <ele>553.0</ele>
        <time>2019-08-15T14:51:57Z</time>
      </trkpt>
      <trkpt lat="40.8284690" lon="0.2295180">
        <ele>553.0</ele>
        <time>2019-08-15T14:51:58Z</time>
      </trkpt>
      <trkpt lat="40.8284750" lon="0.2294710">
        <ele>553.0</ele>
        <time>2019-08-15T14:51:59Z</time>
      </trkpt>
      <trkpt lat="40.8284850" lon="0.2293780">
        <ele>553.0</ele>
        <time>2019-08-15T14:52:01Z</time>
      </trkpt>
      <trkpt lat="40.8284940" lon="0.2293330">
        <ele>553.0</ele>
        <time>2019-08-15T14:52:02Z</time>
      </trkpt>
      <trkpt lat="40.8285030" lon="0.2292870">
        <ele>553.0</ele>
        <time>2019-08-15T14:52:03Z</time>
      </trkpt>
      <trkpt lat="40.8285110" lon="0.2292430">
        <ele>553.0</ele>
        <time>2019-08-15T14:52:04Z</time>
      </trkpt>
      <trkpt lat="40.8285330" lon="0.2291610">
        <ele>553.0</ele>
        <time>2019-08-15T14:52:06Z</time>
      </trkpt>
      <trkpt lat="40.8285470" lon="0.2291220">
        <ele>553.0</ele>
        <time>2019-08-15T14:52:07Z</time>
      </trkpt>
      <trkpt lat="40.8285620" lon="0.2290850">
        <ele>553.0</ele>
        <time>2019-08-15T14:52:08Z</time>
      </trkpt>
      <trkpt lat="40.8285800" lon="0.2290530">
        <ele>553.0</ele>
        <time>2019-08-15T14:52:09Z</time>
      </trkpt>
      <trkpt lat="40.8286180" lon="0.2289930">
        <ele>553.0</ele>
        <time>2019-08-15T14:52:11Z</time>
      </trkpt>
      <trkpt lat="40.8286380" lon="0.2289630">
        <ele>553.0</ele>
        <time>2019-08-15T14:52:12Z</time>
      </trkpt>
      <trkpt lat="40.8286620" lon="0.2289360">
        <ele>553.0</ele>
        <time>2019-08-15T14:52:13Z</time>
      </trkpt>
      <trkpt lat="40.8286890" lon="0.2289080">
        <ele>553.0</ele>
        <time>2019-08-15T14:52:14Z</time>
      </trkpt>
      <trkpt lat="40.8287440" lon="0.2288530">
        <ele>553.0</ele>
        <time>2019-08-15T14:52:16Z</time>
      </trkpt>
      <trkpt lat="40.8287720" lon="0.2288230">
        <ele>553.0</ele>
        <time>2019-08-15T14:52:17Z</time>
      </trkpt>
      <trkpt lat="40.8287980" lon="0.2287900">
        <ele>553.0</ele>
        <time>2019-08-15T14:52:18Z</time>
      </trkpt>
      <trkpt lat="40.8288260" lon="0.2287620">
        <ele>553.0</ele>
        <time>2019-08-15T14:52:19Z</time>
      </trkpt>
      <trkpt lat="40.8288580" lon="0.2287330">
        <ele>553.0</ele>
        <time>2019-08-15T14:52:20Z</time>
      </trkpt>
      <trkpt lat="40.8288910" lon="0.2287020">
        <ele>553.0</ele>
        <time>2019-08-15T14:52:21Z</time>
      </trkpt>
      <trkpt lat="40.8289240" lon="0.2286730">
        <ele>553.0</ele>
        <time>2019-08-15T14:52:22Z</time>
      </trkpt>
      <trkpt lat="40.8289570" lon="0.2286440">
        <ele>553.0</ele>
        <time>2019-08-15T14:52:23Z</time>
      </trkpt>
      <trkpt lat="40.8289880" lon="0.2286170">
        <ele>553.0</ele>
        <time>2019-08-15T14:52:24Z</time>
      </trkpt>
      <trkpt lat="40.8290230" lon="0.2285960">
        <ele>552.0</ele>
        <time>2019-08-15T14:52:25Z</time>
      </trkpt>
      <trkpt lat="40.8290590" lon="0.2285760">
        <ele>552.0</ele>
        <time>2019-08-15T14:52:26Z</time>
      </trkpt>
      <trkpt lat="40.8290940" lon="0.2285570">
        <ele>552.0</ele>
        <time>2019-08-15T14:52:27Z</time>
      </trkpt>
      <trkpt lat="40.8291270" lon="0.2285420">
        <ele>552.0</ele>
        <time>2019-08-15T14:52:28Z</time>
      </trkpt>
      <trkpt lat="40.8291610" lon="0.2285310">
        <ele>552.0</ele>
        <time>2019-08-15T14:52:29Z</time>
      </trkpt>
      <trkpt lat="40.8291970" lon="0.2285180">
        <ele>552.0</ele>
        <time>2019-08-15T14:52:30Z</time>
      </trkpt>
      <trkpt lat="40.8292350" lon="0.2285060">
        <ele>552.0</ele>
        <time>2019-08-15T14:52:31Z</time>
      </trkpt>
      <trkpt lat="40.8292740" lon="0.2284980">
        <ele>552.0</ele>
        <time>2019-08-15T14:52:32Z</time>
      </trkpt>
      <trkpt lat="40.8293140" lon="0.2284910">
        <ele>552.0</ele>
        <time>2019-08-15T14:52:33Z</time>
      </trkpt>
      <trkpt lat="40.8293530" lon="0.2284830">
        <ele>552.0</ele>
        <time>2019-08-15T14:52:34Z</time>
      </trkpt>
      <trkpt lat="40.8293920" lon="0.2284780">
        <ele>552.0</ele>
        <time>2019-08-15T14:52:35Z</time>
      </trkpt>
      <trkpt lat="40.8294300" lon="0.2284690">
        <ele>552.0</ele>
        <time>2019-08-15T14:52:36Z</time>
      </trkpt>
      <trkpt lat="40.8294650" lon="0.2284580">
        <ele>552.0</ele>
        <time>2019-08-15T14:52:37Z</time>
      </trkpt>
      <trkpt lat="40.8294990" lon="0.2284490">
        <ele>552.0</ele>
        <time>2019-08-15T14:52:38Z</time>
      </trkpt>
      <trkpt lat="40.8295290" lon="0.2284390">
        <ele>552.0</ele>
        <time>2019-08-15T14:52:39Z</time>
      </trkpt>
      <trkpt lat="40.8295910" lon="0.2284160">
        <ele>552.0</ele>
        <time>2019-08-15T14:52:41Z</time>
      </trkpt>
      <trkpt lat="40.8296250" lon="0.2284060">
        <ele>552.0</ele>
        <time>2019-08-15T14:52:42Z</time>
      </trkpt>
      <trkpt lat="40.8296610" lon="0.2283950">
        <ele>552.0</ele>
        <time>2019-08-15T14:52:43Z</time>
      </trkpt>
      <trkpt lat="40.8297710" lon="0.2283580">
        <ele>552.0</ele>
        <time>2019-08-15T14:52:46Z</time>
      </trkpt>
      <trkpt lat="40.8298070" lon="0.2283460">
        <ele>552.0</ele>
        <time>2019-08-15T14:52:47Z</time>
      </trkpt>
      <trkpt lat="40.8298400" lon="0.2283330">
        <ele>552.0</ele>
        <time>2019-08-15T14:52:48Z</time>
      </trkpt>
      <trkpt lat="40.8299380" lon="0.2283040">
        <ele>552.0</ele>
        <time>2019-08-15T14:52:51Z</time>
      </trkpt>
      <trkpt lat="40.8299700" lon="0.2282940">
        <ele>552.0</ele>
        <time>2019-08-15T14:52:52Z</time>
      </trkpt>
      <trkpt lat="40.8300030" lon="0.2282860">
        <ele>552.0</ele>
        <time>2019-08-15T14:52:53Z</time>
      </trkpt>
      <trkpt lat="40.8300360" lon="0.2282800">
        <ele>552.0</ele>
        <time>2019-08-15T14:52:54Z</time>
      </trkpt>
      <trkpt lat="40.8300950" lon="0.2282610">
        <ele>552.0</ele>
        <time>2019-08-15T14:52:56Z</time>
      </trkpt>
      <trkpt lat="40.8301200" lon="0.2282550">
        <ele>552.0</ele>
        <time>2019-08-15T14:52:57Z</time>
      </trkpt>
      <trkpt lat="40.8301430" lon="0.2282450">
        <ele>552.0</ele>
        <time>2019-08-15T14:52:58Z</time>
      </trkpt>
      <trkpt lat="40.8301620" lon="0.2282330">
        <ele>552.0</ele>
        <time>2019-08-15T14:52:59Z</time>
      </trkpt>
      <trkpt lat="40.8301950" lon="0.2282160">
        <ele>552.0</ele>
        <time>2019-08-15T14:53:01Z</time>
      </trkpt>
      <trkpt lat="40.8302070" lon="0.2282110">
        <ele>552.0</ele>
        <time>2019-08-15T14:53:02Z</time>
      </trkpt>
      <trkpt lat="40.8302300" lon="0.2282030">
        <ele>552.0</ele>
        <time>2019-08-15T14:53:03Z</time>
      </trkpt>
      <trkpt lat="40.8302370" lon="0.2282010">
        <ele>552.0</ele>
        <time>2019-08-15T14:53:04Z</time>
      </trkpt>
      <trkpt lat="40.8302680" lon="0.2281900">
        <ele>553.0</ele>
        <time>2019-08-15T14:53:06Z</time>
      </trkpt>
      <trkpt lat="40.8302830" lon="0.2281840">
        <ele>553.0</ele>
        <time>2019-08-15T14:53:07Z</time>
      </trkpt>
      <trkpt lat="40.8302970" lon="0.2281790">
        <ele>553.0</ele>
        <time>2019-08-15T14:53:08Z</time>
      </trkpt>
      <trkpt lat="40.8303090" lon="0.2281720">
        <ele>553.0</ele>
        <time>2019-08-15T14:53:09Z</time>
      </trkpt>
      <trkpt lat="40.8303350" lon="0.2281560">
        <ele>553.0</ele>
        <time>2019-08-15T14:53:11Z</time>
      </trkpt>
      <trkpt lat="40.8303480" lon="0.2281500">
        <ele>553.0</ele>
        <time>2019-08-15T14:53:12Z</time>
      </trkpt>
      <trkpt lat="40.8303620" lon="0.2281450">
        <ele>553.0</ele>
        <time>2019-08-15T14:53:13Z</time>
      </trkpt>
      <trkpt lat="40.8303730" lon="0.2281390">
        <ele>553.0</ele>
        <time>2019-08-15T14:53:14Z</time>
      </trkpt>
      <trkpt lat="40.8303970" lon="0.2281320">
        <ele>553.0</ele>
        <time>2019-08-15T14:53:16Z</time>
      </trkpt>
      <trkpt lat="40.8304090" lon="0.2281260">
        <ele>554.0</ele>
        <time>2019-08-15T14:53:17Z</time>
      </trkpt>
      <trkpt lat="40.8304210" lon="0.2281190">
        <ele>554.0</ele>
        <time>2019-08-15T14:53:18Z</time>
      </trkpt>
      <trkpt lat="40.8304350" lon="0.2281130">
        <ele>554.0</ele>
        <time>2019-08-15T14:53:19Z</time>
      </trkpt>
      <trkpt lat="40.8304490" lon="0.2281090">
        <ele>554.0</ele>
        <time>2019-08-15T14:53:20Z</time>
      </trkpt>
      <trkpt lat="40.8304620" lon="0.2281010">
        <ele>554.0</ele>
        <time>2019-08-15T14:53:21Z</time>
      </trkpt>
      <trkpt lat="40.8304730" lon="0.2280910">
        <ele>554.0</ele>
        <time>2019-08-15T14:53:22Z</time>
      </trkpt>
      <trkpt lat="40.8305030" lon="0.2280640">
        <ele>555.0</ele>
        <time>2019-08-15T14:53:25Z</time>
      </trkpt>
      <trkpt lat="40.8305120" lon="0.2280540">
        <ele>555.0</ele>
        <time>2019-08-15T14:53:26Z</time>
      </trkpt>
      <trkpt lat="40.8305220" lon="0.2280490">
        <ele>555.0</ele>
        <time>2019-08-15T14:53:27Z</time>
      </trkpt>
      <trkpt lat="40.8305530" lon="0.2280200">
        <ele>556.0</ele>
        <time>2019-08-15T14:53:30Z</time>
      </trkpt>
      <trkpt lat="40.8305640" lon="0.2280100">
        <ele>556.0</ele>
        <time>2019-08-15T14:53:31Z</time>
      </trkpt>
      <trkpt lat="40.8305740" lon="0.2280020">
        <ele>556.0</ele>
        <time>2019-08-15T14:53:32Z</time>
      </trkpt>
      <trkpt lat="40.8305830" lon="0.2279890">
        <ele>556.0</ele>
        <time>2019-08-15T14:53:33Z</time>
      </trkpt>
      <trkpt lat="40.8306030" lon="0.2279760">
        <ele>557.0</ele>
        <time>2019-08-15T14:53:35Z</time>
      </trkpt>
      <trkpt lat="40.8306140" lon="0.2279750">
        <ele>557.0</ele>
        <time>2019-08-15T14:53:36Z</time>
      </trkpt>
      <trkpt lat="40.8306260" lon="0.2279720">
        <ele>557.0</ele>
        <time>2019-08-15T14:53:37Z</time>
      </trkpt>
      <trkpt lat="40.8306360" lon="0.2279640">
        <ele>557.0</ele>
        <time>2019-08-15T14:53:38Z</time>
      </trkpt>
      <trkpt lat="40.8306540" lon="0.2279510">
        <ele>557.0</ele>
        <time>2019-08-15T14:53:40Z</time>
      </trkpt>
      <trkpt lat="40.8306640" lon="0.2279420">
        <ele>558.0</ele>
        <time>2019-08-15T14:53:41Z</time>
      </trkpt>
      <trkpt lat="40.8306740" lon="0.2279320">
        <ele>558.0</ele>
        <time>2019-08-15T14:53:42Z</time>
      </trkpt>
      <trkpt lat="40.8306810" lon="0.2279220">
        <ele>558.0</ele>
        <time>2019-08-15T14:53:43Z</time>
      </trkpt>
      <trkpt lat="40.8306960" lon="0.2279010">
        <ele>558.0</ele>
        <time>2019-08-15T14:53:45Z</time>
      </trkpt>
      <trkpt lat="40.8307030" lon="0.2278910">
        <ele>558.0</ele>
        <time>2019-08-15T14:53:46Z</time>
      </trkpt>
      <trkpt lat="40.8307110" lon="0.2278820">
        <ele>558.0</ele>
        <time>2019-08-15T14:53:47Z</time>
      </trkpt>
      <trkpt lat="40.8307200" lon="0.2278750">
        <ele>559.0</ele>
        <time>2019-08-15T14:53:48Z</time>
      </trkpt>
      <trkpt lat="40.8307420" lon="0.2278590">
        <ele>559.0</ele>
        <time>2019-08-15T14:53:50Z</time>
      </trkpt>
      <trkpt lat="40.8307520" lon="0.2278490">
        <ele>559.0</ele>
        <time>2019-08-15T14:53:51Z</time>
      </trkpt>
      <trkpt lat="40.8307610" lon="0.2278420">
        <ele>559.0</ele>
        <time>2019-08-15T14:53:52Z</time>
      </trkpt>
      <trkpt lat="40.8307710" lon="0.2278370">
        <ele>559.0</ele>
        <time>2019-08-15T14:53:53Z</time>
      </trkpt>
      <trkpt lat="40.8307870" lon="0.2278190">
        <ele>559.0</ele>
        <time>2019-08-15T14:53:55Z</time>
      </trkpt>
      <trkpt lat="40.8307900" lon="0.2278060">
        <ele>559.0</ele>
        <time>2019-08-15T14:53:56Z</time>
      </trkpt>
      <trkpt lat="40.8307970" lon="0.2277930">
        <ele>560.0</ele>
        <time>2019-08-15T14:53:57Z</time>
      </trkpt>
      <trkpt lat="40.8308020" lon="0.2277800">
        <ele>560.0</ele>
        <time>2019-08-15T14:53:58Z</time>
      </trkpt>
      <trkpt lat="40.8308150" lon="0.2277580">
        <ele>560.0</ele>
        <time>2019-08-15T14:54:00Z</time>
      </trkpt>
      <trkpt lat="40.8308210" lon="0.2277500">
        <ele>560.0</ele>
        <time>2019-08-15T14:54:01Z</time>
      </trkpt>
      <trkpt lat="40.8308280" lon="0.2277410">
        <ele>560.0</ele>
        <time>2019-08-15T14:54:02Z</time>
      </trkpt>
      <trkpt lat="40.8308340" lon="0.2277320">
        <ele>560.0</ele>
        <time>2019-08-15T14:54:03Z</time>
      </trkpt>
      <trkpt lat="40.8308460" lon="0.2277100">
        <ele>560.0</ele>
        <time>2019-08-15T14:54:05Z</time>
      </trkpt>
      <trkpt lat="40.8308540" lon="0.2277000">
        <ele>560.0</ele>
        <time>2019-08-15T14:54:06Z</time>
      </trkpt>
      <trkpt lat="40.8308610" lon="0.2276900">
        <ele>560.0</ele>
        <time>2019-08-15T14:54:07Z</time>
      </trkpt>
      <trkpt lat="40.8308690" lon="0.2276790">
        <ele>560.0</ele>
        <time>2019-08-15T14:54:08Z</time>
      </trkpt>
      <trkpt lat="40.8308850" lon="0.2276620">
        <ele>561.0</ele>
        <time>2019-08-15T14:54:10Z</time>
      </trkpt>
      <trkpt lat="40.8308910" lon="0.2276520">
        <ele>561.0</ele>
        <time>2019-08-15T14:54:11Z</time>
      </trkpt>
      <trkpt lat="40.8308980" lon="0.2276440">
        <ele>561.0</ele>
        <time>2019-08-15T14:54:12Z</time>
      </trkpt>
      <trkpt lat="40.8309080" lon="0.2276330">
        <ele>561.0</ele>
        <time>2019-08-15T14:54:13Z</time>
      </trkpt>
      <trkpt lat="40.8309220" lon="0.2276070">
        <ele>561.0</ele>
        <time>2019-08-15T14:54:15Z</time>
      </trkpt>
      <trkpt lat="40.8309280" lon="0.2275940">
        <ele>561.0</ele>
        <time>2019-08-15T14:54:16Z</time>
      </trkpt>
      <trkpt lat="40.8309350" lon="0.2275820">
        <ele>561.0</ele>
        <time>2019-08-15T14:54:17Z</time>
      </trkpt>
      <trkpt lat="40.8309390" lon="0.2275690">
        <ele>561.0</ele>
        <time>2019-08-15T14:54:18Z</time>
      </trkpt>
      <trkpt lat="40.8309520" lon="0.2275410">
        <ele>561.0</ele>
        <time>2019-08-15T14:54:20Z</time>
      </trkpt>
      <trkpt lat="40.8309580" lon="0.2275260">
        <ele>561.0</ele>
        <time>2019-08-15T14:54:21Z</time>
      </trkpt>
      <trkpt lat="40.8309660" lon="0.2275120">
        <ele>561.0</ele>
        <time>2019-08-15T14:54:22Z</time>
      </trkpt>
      <trkpt lat="40.8309750" lon="0.2275000">
        <ele>561.0</ele>
        <time>2019-08-15T14:54:23Z</time>
      </trkpt>
      <trkpt lat="40.8309930" lon="0.2274760">
        <ele>561.0</ele>
        <time>2019-08-15T14:54:25Z</time>
      </trkpt>
      <trkpt lat="40.8310000" lon="0.2274620">
        <ele>561.0</ele>
        <time>2019-08-15T14:54:26Z</time>
      </trkpt>
      <trkpt lat="40.8310090" lon="0.2274470">
        <ele>561.0</ele>
        <time>2019-08-15T14:54:27Z</time>
      </trkpt>
      <trkpt lat="40.8310190" lon="0.2274340">
        <ele>561.0</ele>
        <time>2019-08-15T14:54:28Z</time>
      </trkpt>
      <trkpt lat="40.8310350" lon="0.2274080">
        <ele>562.0</ele>
        <time>2019-08-15T14:54:30Z</time>
      </trkpt>
      <trkpt lat="40.8310430" lon="0.2273950">
        <ele>562.0</ele>
        <time>2019-08-15T14:54:31Z</time>
      </trkpt>
      <trkpt lat="40.8310530" lon="0.2273800">
        <ele>562.0</ele>
        <time>2019-08-15T14:54:32Z</time>
      </trkpt>
      <trkpt lat="40.8310620" lon="0.2273680">
        <ele>562.0</ele>
        <time>2019-08-15T14:54:33Z</time>
      </trkpt>
      <trkpt lat="40.8310820" lon="0.2273410">
        <ele>562.0</ele>
        <time>2019-08-15T14:54:35Z</time>
      </trkpt>
      <trkpt lat="40.8310930" lon="0.2273240">
        <ele>562.0</ele>
        <time>2019-08-15T14:54:36Z</time>
      </trkpt>
      <trkpt lat="40.8311010" lon="0.2273050">
        <ele>563.0</ele>
        <time>2019-08-15T14:54:37Z</time>
      </trkpt>
      <trkpt lat="40.8311080" lon="0.2272850">
        <ele>563.0</ele>
        <time>2019-08-15T14:54:38Z</time>
      </trkpt>
      <trkpt lat="40.8311230" lon="0.2272390">
        <ele>563.0</ele>
        <time>2019-08-15T14:54:40Z</time>
      </trkpt>
      <trkpt lat="40.8311290" lon="0.2272150">
        <ele>563.0</ele>
        <time>2019-08-15T14:54:41Z</time>
      </trkpt>
      <trkpt lat="40.8311350" lon="0.2271940">
        <ele>563.0</ele>
        <time>2019-08-15T14:54:42Z</time>
      </trkpt>
      <trkpt lat="40.8311400" lon="0.2271740">
        <ele>563.0</ele>
        <time>2019-08-15T14:54:43Z</time>
      </trkpt>
      <trkpt lat="40.8311450" lon="0.2271230">
        <ele>563.0</ele>
        <time>2019-08-15T14:54:45Z</time>
      </trkpt>
      <trkpt lat="40.8311470" lon="0.2270970">
        <ele>563.0</ele>
        <time>2019-08-15T14:54:46Z</time>
      </trkpt>
      <trkpt lat="40.8311530" lon="0.2270680">
        <ele>563.0</ele>
        <time>2019-08-15T14:54:47Z</time>
      </trkpt>
      <trkpt lat="40.8311600" lon="0.2270390">
        <ele>563.0</ele>
        <time>2019-08-15T14:54:48Z</time>
      </trkpt>
      <trkpt lat="40.8311670" lon="0.2269660">
        <ele>563.0</ele>
        <time>2019-08-15T14:54:50Z</time>
      </trkpt>
      <trkpt lat="40.8311690" lon="0.2269230">
        <ele>563.0</ele>
        <time>2019-08-15T14:54:51Z</time>
      </trkpt>
      <trkpt lat="40.8311730" lon="0.2268770">
        <ele>563.0</ele>
        <time>2019-08-15T14:54:52Z</time>
      </trkpt>
      <trkpt lat="40.8311780" lon="0.2268270">
        <ele>563.0</ele>
        <time>2019-08-15T14:54:53Z</time>
      </trkpt>
      <trkpt lat="40.8311770" lon="0.2267200">
        <ele>563.0</ele>
        <time>2019-08-15T14:54:55Z</time>
      </trkpt>
      <trkpt lat="40.8311730" lon="0.2266650">
        <ele>562.0</ele>
        <time>2019-08-15T14:54:56Z</time>
      </trkpt>
      <trkpt lat="40.8311670" lon="0.2266090">
        <ele>562.0</ele>
        <time>2019-08-15T14:54:57Z</time>
      </trkpt>
      <trkpt lat="40.8311560" lon="0.2265520">
        <ele>562.0</ele>
        <time>2019-08-15T14:54:58Z</time>
      </trkpt>
      <trkpt lat="40.8311530" lon="0.2264920">
        <ele>562.0</ele>
        <time>2019-08-15T14:54:59Z</time>
      </trkpt>
      <trkpt lat="40.8311470" lon="0.2263730">
        <ele>561.0</ele>
        <time>2019-08-15T14:55:01Z</time>
      </trkpt>
      <trkpt lat="40.8311520" lon="0.2263140">
        <ele>561.0</ele>
        <time>2019-08-15T14:55:02Z</time>
      </trkpt>
      <trkpt lat="40.8311590" lon="0.2262630">
        <ele>561.0</ele>
        <time>2019-08-15T14:55:03Z</time>
      </trkpt>
      <trkpt lat="40.8311870" lon="0.2261360">
        <ele>560.0</ele>
        <time>2019-08-15T14:55:06Z</time>
      </trkpt>
      <trkpt lat="40.8311940" lon="0.2260900">
        <ele>560.0</ele>
        <time>2019-08-15T14:55:07Z</time>
      </trkpt>
      <trkpt lat="40.8311980" lon="0.2260310">
        <ele>559.0</ele>
        <time>2019-08-15T14:55:08Z</time>
      </trkpt>
      <trkpt lat="40.8312000" lon="0.2259650">
        <ele>559.0</ele>
        <time>2019-08-15T14:55:09Z</time>
      </trkpt>
      <trkpt lat="40.8311970" lon="0.2258090">
        <ele>559.0</ele>
        <time>2019-08-15T14:55:11Z</time>
      </trkpt>
      <trkpt lat="40.8311950" lon="0.2257220">
        <ele>558.0</ele>
        <time>2019-08-15T14:55:12Z</time>
      </trkpt>
      <trkpt lat="40.8311970" lon="0.2256300">
        <ele>558.0</ele>
        <time>2019-08-15T14:55:13Z</time>
      </trkpt>
      <trkpt lat="40.8312060" lon="0.2255350">
        <ele>558.0</ele>
        <time>2019-08-15T14:55:14Z</time>
      </trkpt>
      <trkpt lat="40.8312430" lon="0.2253540">
        <ele>557.0</ele>
        <time>2019-08-15T14:55:16Z</time>
      </trkpt>
      <trkpt lat="40.8312620" lon="0.2252670">
        <ele>556.0</ele>
        <time>2019-08-15T14:55:17Z</time>
      </trkpt>
      <trkpt lat="40.8312680" lon="0.2251800">
        <ele>556.0</ele>
        <time>2019-08-15T14:55:18Z</time>
      </trkpt>
      <trkpt lat="40.8312660" lon="0.2251000">
        <ele>556.0</ele>
        <time>2019-08-15T14:55:19Z</time>
      </trkpt>
      <trkpt lat="40.8312580" lon="0.2249650">
        <ele>555.0</ele>
        <time>2019-08-15T14:55:21Z</time>
      </trkpt>
      <trkpt lat="40.8312540" lon="0.2249100">
        <ele>555.0</ele>
        <time>2019-08-15T14:55:22Z</time>
      </trkpt>
      <trkpt lat="40.8312530" lon="0.2248630">
        <ele>555.0</ele>
        <time>2019-08-15T14:55:23Z</time>
      </trkpt>
      <trkpt lat="40.8312570" lon="0.2248290">
        <ele>555.0</ele>
        <time>2019-08-15T14:55:24Z</time>
      </trkpt>
      <trkpt lat="40.8312650" lon="0.2247620">
        <ele>554.0</ele>
        <time>2019-08-15T14:55:26Z</time>
      </trkpt>
      <trkpt lat="40.8312710" lon="0.2247380">
        <ele>554.0</ele>
        <time>2019-08-15T14:55:27Z</time>
      </trkpt>
      <trkpt lat="40.8312740" lon="0.2247150">
        <ele>555.0</ele>
        <time>2019-08-15T14:55:28Z</time>
      </trkpt>
      <trkpt lat="40.8312770" lon="0.2246910">
        <ele>555.0</ele>
        <time>2019-08-15T14:55:29Z</time>
      </trkpt>
      <trkpt lat="40.8312840" lon="0.2246440">
        <ele>555.0</ele>
        <time>2019-08-15T14:55:31Z</time>
      </trkpt>
      <trkpt lat="40.8312870" lon="0.2246190">
        <ele>555.0</ele>
        <time>2019-08-15T14:55:32Z</time>
      </trkpt>
      <trkpt lat="40.8312920" lon="0.2245950">
        <ele>556.0</ele>
        <time>2019-08-15T14:55:33Z</time>
      </trkpt>
      <trkpt lat="40.8312980" lon="0.2245700">
        <ele>556.0</ele>
        <time>2019-08-15T14:55:34Z</time>
      </trkpt>
      <trkpt lat="40.8313110" lon="0.2245230">
        <ele>556.0</ele>
        <time>2019-08-15T14:55:36Z</time>
      </trkpt>
      <trkpt lat="40.8313170" lon="0.2245030">
        <ele>557.0</ele>
        <time>2019-08-15T14:55:37Z</time>
      </trkpt>
      <trkpt lat="40.8313270" lon="0.2244850">
        <ele>557.0</ele>
        <time>2019-08-15T14:55:38Z</time>
      </trkpt>
      <trkpt lat="40.8313340" lon="0.2244680">
        <ele>557.0</ele>
        <time>2019-08-15T14:55:39Z</time>
      </trkpt>
      <trkpt lat="40.8313530" lon="0.2244380">
        <ele>558.0</ele>
        <time>2019-08-15T14:55:41Z</time>
      </trkpt>
      <trkpt lat="40.8313600" lon="0.2244220">
        <ele>558.0</ele>
        <time>2019-08-15T14:55:42Z</time>
      </trkpt>
      <trkpt lat="40.8313680" lon="0.2244060">
        <ele>558.0</ele>
        <time>2019-08-15T14:55:43Z</time>
      </trkpt>
      <trkpt lat="40.8313770" lon="0.2243940">
        <ele>559.0</ele>
        <time>2019-08-15T14:55:44Z</time>
      </trkpt>
      <trkpt lat="40.8314000" lon="0.2243660">
        <ele>559.0</ele>
        <time>2019-08-15T14:55:46Z</time>
      </trkpt>
      <trkpt lat="40.8314160" lon="0.2243520">
        <ele>559.0</ele>
        <time>2019-08-15T14:55:47Z</time>
      </trkpt>
      <trkpt lat="40.8314320" lon="0.2243370">
        <ele>559.0</ele>
        <time>2019-08-15T14:55:48Z</time>
      </trkpt>
      <trkpt lat="40.8314470" lon="0.2243200">
        <ele>559.0</ele>
        <time>2019-08-15T14:55:49Z</time>
      </trkpt>
      <trkpt lat="40.8314610" lon="0.2243070">
        <ele>560.0</ele>
        <time>2019-08-15T14:55:50Z</time>
      </trkpt>
      <trkpt lat="40.8314730" lon="0.2242950">
        <ele>560.0</ele>
        <time>2019-08-15T14:55:51Z</time>
      </trkpt>
      <trkpt lat="40.8314970" lon="0.2242690">
        <ele>560.0</ele>
        <time>2019-08-15T14:55:53Z</time>
      </trkpt>
      <trkpt lat="40.8315080" lon="0.2242550">
        <ele>560.0</ele>
        <time>2019-08-15T14:55:54Z</time>
      </trkpt>
      <trkpt lat="40.8315180" lon="0.2242390">
        <ele>560.0</ele>
        <time>2019-08-15T14:55:55Z</time>
      </trkpt>
      <trkpt lat="40.8315310" lon="0.2242250">
        <ele>560.0</ele>
        <time>2019-08-15T14:55:56Z</time>
      </trkpt>
      <trkpt lat="40.8315440" lon="0.2242090">
        <ele>561.0</ele>
        <time>2019-08-15T14:55:57Z</time>
      </trkpt>
      <trkpt lat="40.8315800" lon="0.2241630">
        <ele>561.0</ele>
        <time>2019-08-15T14:56:00Z</time>
      </trkpt>
      <trkpt lat="40.8315940" lon="0.2241500">
        <ele>561.0</ele>
        <time>2019-08-15T14:56:01Z</time>
      </trkpt>
      <trkpt lat="40.8316060" lon="0.2241380">
        <ele>561.0</ele>
        <time>2019-08-15T14:56:02Z</time>
      </trkpt>
      <trkpt lat="40.8316450" lon="0.2241060">
        <ele>561.0</ele>
        <time>2019-08-15T14:56:05Z</time>
      </trkpt>
      <trkpt lat="40.8316580" lon="0.2240970">
        <ele>562.0</ele>
        <time>2019-08-15T14:56:06Z</time>
      </trkpt>
      <trkpt lat="40.8316720" lon="0.2240880">
        <ele>562.0</ele>
        <time>2019-08-15T14:56:07Z</time>
      </trkpt>
      <trkpt lat="40.8316850" lon="0.2240790">
        <ele>562.0</ele>
        <time>2019-08-15T14:56:08Z</time>
      </trkpt>
      <trkpt lat="40.8317080" lon="0.2240650">
        <ele>562.0</ele>
        <time>2019-08-15T14:56:10Z</time>
      </trkpt>
      <trkpt lat="40.8317210" lon="0.2240580">
        <ele>562.0</ele>
        <time>2019-08-15T14:56:11Z</time>
      </trkpt>
      <trkpt lat="40.8317330" lon="0.2240490">
        <ele>563.0</ele>
        <time>2019-08-15T14:56:12Z</time>
      </trkpt>
      <trkpt lat="40.8317450" lon="0.2240390">
        <ele>563.0</ele>
        <time>2019-08-15T14:56:13Z</time>
      </trkpt>
      <trkpt lat="40.8317680" lon="0.2240200">
        <ele>563.0</ele>
        <time>2019-08-15T14:56:15Z</time>
      </trkpt>
      <trkpt lat="40.8317790" lon="0.2240090">
        <ele>563.0</ele>
        <time>2019-08-15T14:56:16Z</time>
      </trkpt>
      <trkpt lat="40.8317910" lon="0.2239990">
        <ele>563.0</ele>
        <time>2019-08-15T14:56:17Z</time>
      </trkpt>
      <trkpt lat="40.8318030" lon="0.2239910">
        <ele>563.0</ele>
        <time>2019-08-15T14:56:18Z</time>
      </trkpt>
      <trkpt lat="40.8318250" lon="0.2239720">
        <ele>564.0</ele>
        <time>2019-08-15T14:56:20Z</time>
      </trkpt>
      <trkpt lat="40.8318350" lon="0.2239610">
        <ele>564.0</ele>
        <time>2019-08-15T14:56:21Z</time>
      </trkpt>
      <trkpt lat="40.8318430" lon="0.2239500">
        <ele>564.0</ele>
        <time>2019-08-15T14:56:22Z</time>
      </trkpt>
      <trkpt lat="40.8318460" lon="0.2239450">
        <ele>564.0</ele>
        <time>2019-08-15T14:56:23Z</time>
      </trkpt>
      <trkpt lat="40.8324480" lon="0.2157400">
        <ele>540.0</ele>
        <time>2019-08-15T15:07:44Z</time>
      </trkpt>
      <trkpt lat="40.8324580" lon="0.2157550">
        <ele>540.0</ele>
        <time>2019-08-15T15:07:46Z</time>
      </trkpt>
      <trkpt lat="40.8324690" lon="0.2157680">
        <ele>540.0</ele>
        <time>2019-08-15T15:07:47Z</time>
      </trkpt>
      <trkpt lat="40.8324800" lon="0.2157810">
        <ele>540.0</ele>
        <time>2019-08-15T15:07:48Z</time>
      </trkpt>
      <trkpt lat="40.8324990" lon="0.2158300">
        <ele>539.0</ele>
        <time>2019-08-15T15:07:51Z</time>
      </trkpt>
      <trkpt lat="40.8325070" lon="0.2158450">
        <ele>539.0</ele>
        <time>2019-08-15T15:07:52Z</time>
      </trkpt>
      <trkpt lat="40.8325160" lon="0.2158600">
        <ele>539.0</ele>
        <time>2019-08-15T15:07:53Z</time>
      </trkpt>
      <trkpt lat="40.8325340" lon="0.2159090">
        <ele>539.0</ele>
        <time>2019-08-15T15:07:56Z</time>
      </trkpt>
      <trkpt lat="40.8325380" lon="0.2159270">
        <ele>540.0</ele>
        <time>2019-08-15T15:07:57Z</time>
      </trkpt>
      <trkpt lat="40.8325440" lon="0.2159450">
        <ele>540.0</ele>
        <time>2019-08-15T15:07:58Z</time>
      </trkpt>
      <trkpt lat="40.8325490" lon="0.2159610">
        <ele>540.0</ele>
        <time>2019-08-15T15:07:59Z</time>
      </trkpt>
      <trkpt lat="40.8325640" lon="0.2159900">
        <ele>540.0</ele>
        <time>2019-08-15T15:08:01Z</time>
      </trkpt>
      <trkpt lat="40.8325710" lon="0.2160050">
        <ele>540.0</ele>
        <time>2019-08-15T15:08:02Z</time>
      </trkpt>
      <trkpt lat="40.8325810" lon="0.2160170">
        <ele>541.0</ele>
        <time>2019-08-15T15:08:03Z</time>
      </trkpt>
      <trkpt lat="40.8325880" lon="0.2160310">
        <ele>541.0</ele>
        <time>2019-08-15T15:08:04Z</time>
      </trkpt>
      <trkpt lat="40.8326060" lon="0.2160550">
        <ele>541.0</ele>
        <time>2019-08-15T15:08:06Z</time>
      </trkpt>
      <trkpt lat="40.8326150" lon="0.2160660">
        <ele>541.0</ele>
        <time>2019-08-15T15:08:07Z</time>
      </trkpt>
      <trkpt lat="40.8326260" lon="0.2160770">
        <ele>541.0</ele>
        <time>2019-08-15T15:08:08Z</time>
      </trkpt>
      <trkpt lat="40.8326350" lon="0.2160890">
        <ele>541.0</ele>
        <time>2019-08-15T15:08:09Z</time>
      </trkpt>
      <trkpt lat="40.8326540" lon="0.2161050">
        <ele>542.0</ele>
        <time>2019-08-15T15:08:11Z</time>
      </trkpt>
      <trkpt lat="40.8326650" lon="0.2161140">
        <ele>542.0</ele>
        <time>2019-08-15T15:08:12Z</time>
      </trkpt>
      <trkpt lat="40.8326710" lon="0.2161270">
        <ele>542.0</ele>
        <time>2019-08-15T15:08:13Z</time>
      </trkpt>
      <trkpt lat="40.8326760" lon="0.2161380">
        <ele>542.0</ele>
        <time>2019-08-15T15:08:14Z</time>
      </trkpt>
      <trkpt lat="40.8326970" lon="0.2161520">
        <ele>542.0</ele>
        <time>2019-08-15T15:08:16Z</time>
      </trkpt>
      <trkpt lat="40.8327110" lon="0.2161550">
        <ele>542.0</ele>
        <time>2019-08-15T15:08:17Z</time>
      </trkpt>
      <trkpt lat="40.8327220" lon="0.2161580">
        <ele>542.0</ele>
        <time>2019-08-15T15:08:18Z</time>
      </trkpt>
      <trkpt lat="40.8327360" lon="0.2161590">
        <ele>543.0</ele>
        <time>2019-08-15T15:08:19Z</time>
      </trkpt>
      <trkpt lat="40.8327650" lon="0.2161580">
        <ele>543.0</ele>
        <time>2019-08-15T15:08:21Z</time>
      </trkpt>
      <trkpt lat="40.8327780" lon="0.2161600">
        <ele>543.0</ele>
        <time>2019-08-15T15:08:22Z</time>
      </trkpt>
      <trkpt lat="40.8327930" lon="0.2161600">
        <ele>543.0</ele>
        <time>2019-08-15T15:08:23Z</time>
      </trkpt>
      <trkpt lat="40.8328090" lon="0.2161590">
        <ele>543.0</ele>
        <time>2019-08-15T15:08:24Z</time>
      </trkpt>
      <trkpt lat="40.8328230" lon="0.2161560">
        <ele>543.0</ele>
        <time>2019-08-15T15:08:25Z</time>
      </trkpt>
      <trkpt lat="40.8328380" lon="0.2161530">
        <ele>543.0</ele>
        <time>2019-08-15T15:08:26Z</time>
      </trkpt>
      <trkpt lat="40.8328530" lon="0.2161470">
        <ele>543.0</ele>
        <time>2019-08-15T15:08:27Z</time>
      </trkpt>
      <trkpt lat="40.8328680" lon="0.2161440">
        <ele>543.0</ele>
        <time>2019-08-15T15:08:28Z</time>
      </trkpt>
      <trkpt lat="40.8328870" lon="0.2161430">
        <ele>543.0</ele>
        <time>2019-08-15T15:08:29Z</time>
      </trkpt>
      <trkpt lat="40.8329040" lon="0.2161410">
        <ele>543.0</ele>
        <time>2019-08-15T15:08:30Z</time>
      </trkpt>
      <trkpt lat="40.8329230" lon="0.2161360">
        <ele>543.0</ele>
        <time>2019-08-15T15:08:31Z</time>
      </trkpt>
      <trkpt lat="40.8329440" lon="0.2161300">
        <ele>543.0</ele>
        <time>2019-08-15T15:08:32Z</time>
      </trkpt>
      <trkpt lat="40.8329660" lon="0.2161290">
        <ele>543.0</ele>
        <time>2019-08-15T15:08:33Z</time>
      </trkpt>
      <trkpt lat="40.8329860" lon="0.2161280">
        <ele>543.0</ele>
        <time>2019-08-15T15:08:34Z</time>
      </trkpt>
      <trkpt lat="40.8330050" lon="0.2161240">
        <ele>543.0</ele>
        <time>2019-08-15T15:08:35Z</time>
      </trkpt>
      <trkpt lat="40.8330250" lon="0.2161210">
        <ele>543.0</ele>
        <time>2019-08-15T15:08:36Z</time>
      </trkpt>
      <trkpt lat="40.8330470" lon="0.2161220">
        <ele>543.0</ele>
        <time>2019-08-15T15:08:37Z</time>
      </trkpt>
      <trkpt lat="40.8330670" lon="0.2161230">
        <ele>544.0</ele>
        <time>2019-08-15T15:08:38Z</time>
      </trkpt>
      <trkpt lat="40.8330870" lon="0.2161200">
        <ele>544.0</ele>
        <time>2019-08-15T15:08:39Z</time>
      </trkpt>
      <trkpt lat="40.8331050" lon="0.2161180">
        <ele>544.0</ele>
        <time>2019-08-15T15:08:40Z</time>
      </trkpt>
      <trkpt lat="40.8331250" lon="0.2161160">
        <ele>544.0</ele>
        <time>2019-08-15T15:08:41Z</time>
      </trkpt>
      <trkpt lat="40.8331440" lon="0.2161180">
        <ele>544.0</ele>
        <time>2019-08-15T15:08:42Z</time>
      </trkpt>
      <trkpt lat="40.8331630" lon="0.2161190">
        <ele>544.0</ele>
        <time>2019-08-15T15:08:43Z</time>
      </trkpt>
      <trkpt lat="40.8331820" lon="0.2161190">
        <ele>544.0</ele>
        <time>2019-08-15T15:08:44Z</time>
      </trkpt>
      <trkpt lat="40.8331980" lon="0.2161180">
        <ele>544.0</ele>
        <time>2019-08-15T15:08:45Z</time>
      </trkpt>
      <trkpt lat="40.8332280" lon="0.2161230">
        <ele>544.0</ele>
        <time>2019-08-15T15:08:47Z</time>
      </trkpt>
      <trkpt lat="40.8332390" lon="0.2161250">
        <ele>544.0</ele>
        <time>2019-08-15T15:08:48Z</time>
      </trkpt>
      <trkpt lat="40.8332440" lon="0.2161210">
        <ele>544.0</ele>
        <time>2019-08-15T15:08:49Z</time>
      </trkpt>
      <trkpt lat="40.8333370" lon="0.2161030">
        <ele>545.0</ele>
        <time>2019-08-15T15:09:08Z</time>
      </trkpt>
      <trkpt lat="40.8333540" lon="0.2161010">
        <ele>545.0</ele>
        <time>2019-08-15T15:09:10Z</time>
      </trkpt>
      <trkpt lat="40.8333730" lon="0.2160970">
        <ele>545.0</ele>
        <time>2019-08-15T15:09:11Z</time>
      </trkpt>
      <trkpt lat="40.8333950" lon="0.2160950">
        <ele>545.0</ele>
        <time>2019-08-15T15:09:12Z</time>
      </trkpt>
      <trkpt lat="40.8334190" lon="0.2160960">
        <ele>545.0</ele>
        <time>2019-08-15T15:09:13Z</time>
      </trkpt>
      <trkpt lat="40.8334820" lon="0.2160990">
        <ele>545.0</ele>
        <time>2019-08-15T15:09:15Z</time>
      </trkpt>
      <trkpt lat="40.8334980" lon="0.2160960">
        <ele>545.0</ele>
        <time>2019-08-15T15:09:16Z</time>
      </trkpt>
      <trkpt lat="40.8335130" lon="0.2160940">
        <ele>545.0</ele>
        <time>2019-08-15T15:09:17Z</time>
      </trkpt>
      <trkpt lat="40.8335320" lon="0.2160870">
        <ele>545.0</ele>
        <time>2019-08-15T15:09:18Z</time>
      </trkpt>
      <trkpt lat="40.8335520" lon="0.2160810">
        <ele>545.0</ele>
        <time>2019-08-15T15:09:19Z</time>
      </trkpt>
      <trkpt lat="40.8335760" lon="0.2160790">
        <ele>545.0</ele>
        <time>2019-08-15T15:09:20Z</time>
      </trkpt>
      <trkpt lat="40.8335990" lon="0.2160790">
        <ele>545.0</ele>
        <time>2019-08-15T15:09:21Z</time>
      </trkpt>
      <trkpt lat="40.8336240" lon="0.2160760">
        <ele>545.0</ele>
        <time>2019-08-15T15:09:22Z</time>
      </trkpt>
      <trkpt lat="40.8336490" lon="0.2160690">
        <ele>545.0</ele>
        <time>2019-08-15T15:09:23Z</time>
      </trkpt>
      <trkpt lat="40.8336740" lon="0.2160610">
        <ele>545.0</ele>
        <time>2019-08-15T15:09:24Z</time>
      </trkpt>
      <trkpt lat="40.8336980" lon="0.2160500">
        <ele>545.0</ele>
        <time>2019-08-15T15:09:25Z</time>
      </trkpt>
      <trkpt lat="40.8337230" lon="0.2160370">
        <ele>545.0</ele>
        <time>2019-08-15T15:09:26Z</time>
      </trkpt>
      <trkpt lat="40.8337490" lon="0.2160220">
        <ele>545.0</ele>
        <time>2019-08-15T15:09:27Z</time>
      </trkpt>
      <trkpt lat="40.8337740" lon="0.2160050">
        <ele>545.0</ele>
        <time>2019-08-15T15:09:28Z</time>
      </trkpt>
      <trkpt lat="40.8338120" lon="0.2159690">
        <ele>545.0</ele>
        <time>2019-08-15T15:09:30Z</time>
      </trkpt>
      <trkpt lat="40.8338280" lon="0.2159490">
        <ele>545.0</ele>
        <time>2019-08-15T15:09:31Z</time>
      </trkpt>
      <trkpt lat="40.8338530" lon="0.2159040">
        <ele>545.0</ele>
        <time>2019-08-15T15:09:33Z</time>
      </trkpt>
      <trkpt lat="40.8338640" lon="0.2158820">
        <ele>545.0</ele>
        <time>2019-08-15T15:09:34Z</time>
      </trkpt>
      <trkpt lat="40.8338750" lon="0.2158580">
        <ele>545.0</ele>
        <time>2019-08-15T15:09:35Z</time>
      </trkpt>
      <trkpt lat="40.8338870" lon="0.2158330">
        <ele>545.0</ele>
        <time>2019-08-15T15:09:36Z</time>
      </trkpt>
      <trkpt lat="40.8338980" lon="0.2158080">
        <ele>545.0</ele>
        <time>2019-08-15T15:09:37Z</time>
      </trkpt>
      <trkpt lat="40.8339070" lon="0.2157810">
        <ele>545.0</ele>
        <time>2019-08-15T15:09:38Z</time>
      </trkpt>
      <trkpt lat="40.8339130" lon="0.2157510">
        <ele>545.0</ele>
        <time>2019-08-15T15:09:39Z</time>
      </trkpt>
      <trkpt lat="40.8339170" lon="0.2157220">
        <ele>545.0</ele>
        <time>2019-08-15T15:09:40Z</time>
      </trkpt>
      <trkpt lat="40.8339220" lon="0.2156930">
        <ele>545.0</ele>
        <time>2019-08-15T15:09:41Z</time>
      </trkpt>
      <trkpt lat="40.8339330" lon="0.2156270">
        <ele>546.0</ele>
        <time>2019-08-15T15:09:43Z</time>
      </trkpt>
      <trkpt lat="40.8339360" lon="0.2155920">
        <ele>546.0</ele>
        <time>2019-08-15T15:09:44Z</time>
      </trkpt>
      <trkpt lat="40.8339370" lon="0.2155530">
        <ele>546.0</ele>
        <time>2019-08-15T15:09:45Z</time>
      </trkpt>
      <trkpt lat="40.8339200" lon="0.2154440">
        <ele>546.0</ele>
        <time>2019-08-15T15:09:48Z</time>
      </trkpt>
      <trkpt lat="40.8339120" lon="0.2154140">
        <ele>546.0</ele>
        <time>2019-08-15T15:09:49Z</time>
      </trkpt>
      <trkpt lat="40.8339000" lon="0.2153860">
        <ele>546.0</ele>
        <time>2019-08-15T15:09:50Z</time>
      </trkpt>
      <trkpt lat="40.8338890" lon="0.2153220">
        <ele>546.0</ele>
        <time>2019-08-15T15:09:52Z</time>
      </trkpt>
      <trkpt lat="40.8338820" lon="0.2152880">
        <ele>546.0</ele>
        <time>2019-08-15T15:09:53Z</time>
      </trkpt>
      <trkpt lat="40.8338720" lon="0.2152570">
        <ele>546.0</ele>
        <time>2019-08-15T15:09:54Z</time>
      </trkpt>
      <trkpt lat="40.8338610" lon="0.2152290">
        <ele>546.0</ele>
        <time>2019-08-15T15:09:55Z</time>
      </trkpt>
      <trkpt lat="40.8338510" lon="0.2152020">
        <ele>546.0</ele>
        <time>2019-08-15T15:09:56Z</time>
      </trkpt>
      <trkpt lat="40.8338430" lon="0.2151750">
        <ele>546.0</ele>
        <time>2019-08-15T15:09:57Z</time>
      </trkpt>
      <trkpt lat="40.8338360" lon="0.2151490">
        <ele>546.0</ele>
        <time>2019-08-15T15:09:58Z</time>
      </trkpt>
      <trkpt lat="40.8338260" lon="0.2151250">
        <ele>546.0</ele>
        <time>2019-08-15T15:09:59Z</time>
      </trkpt>
      <trkpt lat="40.8338180" lon="0.2151030">
        <ele>546.0</ele>
        <time>2019-08-15T15:10:00Z</time>
      </trkpt>
      <trkpt lat="40.8338080" lon="0.2150820">
        <ele>546.0</ele>
        <time>2019-08-15T15:10:01Z</time>
      </trkpt>
      <trkpt lat="40.8337990" lon="0.2150620">
        <ele>546.0</ele>
        <time>2019-08-15T15:10:02Z</time>
      </trkpt>
      <trkpt lat="40.8337910" lon="0.2150390">
        <ele>546.0</ele>
        <time>2019-08-15T15:10:03Z</time>
      </trkpt>
      <trkpt lat="40.8337850" lon="0.2150170">
        <ele>547.0</ele>
        <time>2019-08-15T15:10:04Z</time>
      </trkpt>
      <trkpt lat="40.8337770" lon="0.2149960">
        <ele>547.0</ele>
        <time>2019-08-15T15:10:05Z</time>
      </trkpt>
      <trkpt lat="40.8337680" lon="0.2149750">
        <ele>547.0</ele>
        <time>2019-08-15T15:10:06Z</time>
      </trkpt>
      <trkpt lat="40.8337570" lon="0.2149510">
        <ele>547.0</ele>
        <time>2019-08-15T15:10:07Z</time>
      </trkpt>
      <trkpt lat="40.8337330" lon="0.2149050">
        <ele>547.0</ele>
        <time>2019-08-15T15:10:09Z</time>
      </trkpt>
      <trkpt lat="40.8337200" lon="0.2148800">
        <ele>547.0</ele>
        <time>2019-08-15T15:10:10Z</time>
      </trkpt>
      <trkpt lat="40.8337100" lon="0.2148550">
        <ele>547.0</ele>
        <time>2019-08-15T15:10:11Z</time>
      </trkpt>
      <trkpt lat="40.8336780" lon="0.2147860">
        <ele>548.0</ele>
        <time>2019-08-15T15:10:14Z</time>
      </trkpt>
      <trkpt lat="40.8336660" lon="0.2147610">
        <ele>548.0</ele>
        <time>2019-08-15T15:10:15Z</time>
      </trkpt>
      <trkpt lat="40.8336550" lon="0.2147390">
        <ele>548.0</ele>
        <time>2019-08-15T15:10:16Z</time>
      </trkpt>
      <trkpt lat="40.8336470" lon="0.2147150">
        <ele>548.0</ele>
        <time>2019-08-15T15:10:17Z</time>
      </trkpt>
      <trkpt lat="40.8336340" lon="0.2146730">
        <ele>548.0</ele>
        <time>2019-08-15T15:10:19Z</time>
      </trkpt>
      <trkpt lat="40.8336280" lon="0.2146470">
        <ele>548.0</ele>
        <time>2019-08-15T15:10:20Z</time>
      </trkpt>
      <trkpt lat="40.8336210" lon="0.2146240">
        <ele>549.0</ele>
        <time>2019-08-15T15:10:21Z</time>
      </trkpt>
      <trkpt lat="40.8336130" lon="0.2146010">
        <ele>549.0</ele>
        <time>2019-08-15T15:10:22Z</time>
      </trkpt>
      <trkpt lat="40.8336000" lon="0.2145630">
        <ele>549.0</ele>
        <time>2019-08-15T15:10:24Z</time>
      </trkpt>
      <trkpt lat="40.8335930" lon="0.2145420">
        <ele>549.0</ele>
        <time>2019-08-15T15:10:25Z</time>
      </trkpt>
      <trkpt lat="40.8335830" lon="0.2145230">
        <ele>549.0</ele>
        <time>2019-08-15T15:10:26Z</time>
      </trkpt>
      <trkpt lat="40.8335710" lon="0.2145010">
        <ele>549.0</ele>
        <time>2019-08-15T15:10:27Z</time>
      </trkpt>
      <trkpt lat="40.8335500" lon="0.2144530">
        <ele>549.0</ele>
        <time>2019-08-15T15:10:29Z</time>
      </trkpt>
      <trkpt lat="40.8335350" lon="0.2144230">
        <ele>549.0</ele>
        <time>2019-08-15T15:10:30Z</time>
      </trkpt>
      <trkpt lat="40.8335190" lon="0.2143880">
        <ele>549.0</ele>
        <time>2019-08-15T15:10:31Z</time>
      </trkpt>
      <trkpt lat="40.8335050" lon="0.2143480">
        <ele>550.0</ele>
        <time>2019-08-15T15:10:32Z</time>
      </trkpt>
      <trkpt lat="40.8334870" lon="0.2142530">
        <ele>550.0</ele>
        <time>2019-08-15T15:10:34Z</time>
      </trkpt>
      <trkpt lat="40.8334760" lon="0.2142030">
        <ele>550.0</ele>
        <time>2019-08-15T15:10:35Z</time>
      </trkpt>
      <trkpt lat="40.8334640" lon="0.2141500">
        <ele>549.0</ele>
        <time>2019-08-15T15:10:36Z</time>
      </trkpt>
      <trkpt lat="40.8334540" lon="0.2140930">
        <ele>549.0</ele>
        <time>2019-08-15T15:10:37Z</time>
      </trkpt>
      <trkpt lat="40.8334280" lon="0.2139600">
        <ele>549.0</ele>
        <time>2019-08-15T15:10:39Z</time>
      </trkpt>
      <trkpt lat="40.8334110" lon="0.2138860">
        <ele>549.0</ele>
        <time>2019-08-15T15:10:40Z</time>
      </trkpt>
      <trkpt lat="40.8333980" lon="0.2138090">
        <ele>549.0</ele>
        <time>2019-08-15T15:10:41Z</time>
      </trkpt>
      <trkpt lat="40.8333900" lon="0.2137290">
        <ele>548.0</ele>
        <time>2019-08-15T15:10:42Z</time>
      </trkpt>
      <trkpt lat="40.8333830" lon="0.2135600">
        <ele>548.0</ele>
        <time>2019-08-15T15:10:44Z</time>
      </trkpt>
      <trkpt lat="40.8333840" lon="0.2134750">
        <ele>548.0</ele>
        <time>2019-08-15T15:10:45Z</time>
      </trkpt>
      <trkpt lat="40.8333850" lon="0.2133940">
        <ele>547.0</ele>
        <time>2019-08-15T15:10:46Z</time>
      </trkpt>
      <trkpt lat="40.8333940" lon="0.2133180">
        <ele>547.0</ele>
        <time>2019-08-15T15:10:47Z</time>
      </trkpt>
      <trkpt lat="40.8334420" lon="0.2131890">
        <ele>546.0</ele>
        <time>2019-08-15T15:10:49Z</time>
      </trkpt>
      <trkpt lat="40.8334760" lon="0.2131290">
        <ele>546.0</ele>
        <time>2019-08-15T15:10:50Z</time>
      </trkpt>
      <trkpt lat="40.8335090" lon="0.2130680">
        <ele>545.0</ele>
        <time>2019-08-15T15:10:51Z</time>
      </trkpt>
      <trkpt lat="40.8335450" lon="0.2130040">
        <ele>545.0</ele>
        <time>2019-08-15T15:10:52Z</time>
      </trkpt>
      <trkpt lat="40.8335850" lon="0.2129390">
        <ele>545.0</ele>
        <time>2019-08-15T15:10:53Z</time>
      </trkpt>
      <trkpt lat="40.8336270" lon="0.2128770">
        <ele>545.0</ele>
        <time>2019-08-15T15:10:54Z</time>
      </trkpt>
      <trkpt lat="40.8336690" lon="0.2128130">
        <ele>544.0</ele>
        <time>2019-08-15T15:10:55Z</time>
      </trkpt>
      <trkpt lat="40.8337100" lon="0.2127440">
        <ele>544.0</ele>
        <time>2019-08-15T15:10:56Z</time>
      </trkpt>
      <trkpt lat="40.8337500" lon="0.2126720">
        <ele>543.0</ele>
        <time>2019-08-15T15:10:57Z</time>
      </trkpt>
      <trkpt lat="40.8337850" lon="0.2125930">
        <ele>543.0</ele>
        <time>2019-08-15T15:10:58Z</time>
      </trkpt>
      <trkpt lat="40.8338140" lon="0.2125080">
        <ele>542.0</ele>
        <time>2019-08-15T15:10:59Z</time>
      </trkpt>
      <trkpt lat="40.8338450" lon="0.2124190">
        <ele>542.0</ele>
        <time>2019-08-15T15:11:00Z</time>
      </trkpt>
      <trkpt lat="40.8338760" lon="0.2123250">
        <ele>542.0</ele>
        <time>2019-08-15T15:11:01Z</time>
      </trkpt>
      <trkpt lat="40.8339040" lon="0.2122300">
        <ele>541.0</ele>
        <time>2019-08-15T15:11:02Z</time>
      </trkpt>
      <trkpt lat="40.8339300" lon="0.2121370">
        <ele>541.0</ele>
        <time>2019-08-15T15:11:03Z</time>
      </trkpt>
      <trkpt lat="40.8339530" lon="0.2120460">
        <ele>540.0</ele>
        <time>2019-08-15T15:11:04Z</time>
      </trkpt>
      <trkpt lat="40.8339750" lon="0.2119610">
        <ele>540.0</ele>
        <time>2019-08-15T15:11:05Z</time>
      </trkpt>
      <trkpt lat="40.8339930" lon="0.2118780">
        <ele>540.0</ele>
        <time>2019-08-15T15:11:06Z</time>
      </trkpt>
      <trkpt lat="40.8340070" lon="0.2118030">
        <ele>539.0</ele>
        <time>2019-08-15T15:11:07Z</time>
      </trkpt>
      <trkpt lat="40.8340210" lon="0.2117370">
        <ele>539.0</ele>
        <time>2019-08-15T15:11:08Z</time>
      </trkpt>
      <trkpt lat="40.8340250" lon="0.2116770">
        <ele>539.0</ele>
        <time>2019-08-15T15:11:09Z</time>
      </trkpt>
      <trkpt lat="40.8340230" lon="0.2115390">
        <ele>538.0</ele>
        <time>2019-08-15T15:11:12Z</time>
      </trkpt>
      <trkpt lat="40.8340200" lon="0.2115020">
        <ele>538.0</ele>
        <time>2019-08-15T15:11:13Z</time>
      </trkpt>
      <trkpt lat="40.8340180" lon="0.2114670">
        <ele>538.0</ele>
        <time>2019-08-15T15:11:14Z</time>
      </trkpt>
      <trkpt lat="40.8340180" lon="0.2114330">
        <ele>538.0</ele>
        <time>2019-08-15T15:11:15Z</time>
      </trkpt>
      <trkpt lat="40.8340230" lon="0.2113650">
        <ele>538.0</ele>
        <time>2019-08-15T15:11:17Z</time>
      </trkpt>
      <trkpt lat="40.8340230" lon="0.2113310">
        <ele>538.0</ele>
        <time>2019-08-15T15:11:18Z</time>
      </trkpt>
      <trkpt lat="40.8340270" lon="0.2112960">
        <ele>538.0</ele>
        <time>2019-08-15T15:11:19Z</time>
      </trkpt>
      <trkpt lat="40.8340330" lon="0.2112590">
        <ele>538.0</ele>
        <time>2019-08-15T15:11:20Z</time>
      </trkpt>
      <trkpt lat="40.8340350" lon="0.2111720">
        <ele>539.0</ele>
        <time>2019-08-15T15:11:22Z</time>
      </trkpt>
      <trkpt lat="40.8340350" lon="0.2111260">
        <ele>539.0</ele>
        <time>2019-08-15T15:11:23Z</time>
      </trkpt>
      <trkpt lat="40.8340350" lon="0.2110770">
        <ele>539.0</ele>
        <time>2019-08-15T15:11:24Z</time>
      </trkpt>
      <trkpt lat="40.8340320" lon="0.2110260">
        <ele>539.0</ele>
        <time>2019-08-15T15:11:25Z</time>
      </trkpt>
      <trkpt lat="40.8340200" lon="0.2109350">
        <ele>539.0</ele>
        <time>2019-08-15T15:11:27Z</time>
      </trkpt>
      <trkpt lat="40.8340160" lon="0.2108940">
        <ele>539.0</ele>
        <time>2019-08-15T15:11:28Z</time>
      </trkpt>
      <trkpt lat="40.8340140" lon="0.2108590">
        <ele>539.0</ele>
        <time>2019-08-15T15:11:29Z</time>
      </trkpt>
      <trkpt lat="40.8340110" lon="0.2108260">
        <ele>539.0</ele>
        <time>2019-08-15T15:11:30Z</time>
      </trkpt>
      <trkpt lat="40.8340010" lon="0.2107610">
        <ele>539.0</ele>
        <time>2019-08-15T15:11:32Z</time>
      </trkpt>
      <trkpt lat="40.8339990" lon="0.2107280">
        <ele>539.0</ele>
        <time>2019-08-15T15:11:33Z</time>
      </trkpt>
      <trkpt lat="40.8339920" lon="0.2107010">
        <ele>539.0</ele>
        <time>2019-08-15T15:11:34Z</time>
      </trkpt>
      <trkpt lat="40.8339870" lon="0.2106740">
        <ele>539.0</ele>
        <time>2019-08-15T15:11:35Z</time>
      </trkpt>
      <trkpt lat="40.8339820" lon="0.2106270">
        <ele>539.0</ele>
        <time>2019-08-15T15:11:37Z</time>
      </trkpt>
      <trkpt lat="40.8339760" lon="0.2106040">
        <ele>540.0</ele>
        <time>2019-08-15T15:11:38Z</time>
      </trkpt>
      <trkpt lat="40.8339730" lon="0.2105780">
        <ele>540.0</ele>
        <time>2019-08-15T15:11:39Z</time>
      </trkpt>
      <trkpt lat="40.8339660" lon="0.2105510">
        <ele>540.0</ele>
        <time>2019-08-15T15:11:40Z</time>
      </trkpt>
      <trkpt lat="40.8339570" lon="0.2105000">
        <ele>540.0</ele>
        <time>2019-08-15T15:11:42Z</time>
      </trkpt>
      <trkpt lat="40.8339550" lon="0.2104780">
        <ele>540.0</ele>
        <time>2019-08-15T15:11:43Z</time>
      </trkpt>
      <trkpt lat="40.8339510" lon="0.2104600">
        <ele>540.0</ele>
        <time>2019-08-15T15:11:44Z</time>
      </trkpt>
      <trkpt lat="40.8339490" lon="0.2104340">
        <ele>541.0</ele>
        <time>2019-08-15T15:11:45Z</time>
      </trkpt>
      <trkpt lat="40.8339420" lon="0.2103910">
        <ele>541.0</ele>
        <time>2019-08-15T15:11:47Z</time>
      </trkpt>
      <trkpt lat="40.8339380" lon="0.2103690">
        <ele>541.0</ele>
        <time>2019-08-15T15:11:48Z</time>
      </trkpt>
      <trkpt lat="40.8339340" lon="0.2103470">
        <ele>541.0</ele>
        <time>2019-08-15T15:11:49Z</time>
      </trkpt>
      <trkpt lat="40.8339310" lon="0.2103270">
        <ele>541.0</ele>
        <time>2019-08-15T15:11:50Z</time>
      </trkpt>
      <trkpt lat="40.8339190" lon="0.2102950">
        <ele>542.0</ele>
        <time>2019-08-15T15:11:52Z</time>
      </trkpt>
      <trkpt lat="40.8339130" lon="0.2102800">
        <ele>542.0</ele>
        <time>2019-08-15T15:11:53Z</time>
      </trkpt>
      <trkpt lat="40.8339070" lon="0.2102620">
        <ele>542.0</ele>
        <time>2019-08-15T15:11:54Z</time>
      </trkpt>
      <trkpt lat="40.8339010" lon="0.2102410">
        <ele>542.0</ele>
        <time>2019-08-15T15:11:55Z</time>
      </trkpt>
      <trkpt lat="40.8338880" lon="0.2102000">
        <ele>542.0</ele>
        <time>2019-08-15T15:11:57Z</time>
      </trkpt>
      <trkpt lat="40.8338800" lon="0.2101760">
        <ele>542.0</ele>
        <time>2019-08-15T15:11:58Z</time>
      </trkpt>
      <trkpt lat="40.8338730" lon="0.2101490">
        <ele>542.0</ele>
        <time>2019-08-15T15:11:59Z</time>
      </trkpt>
      <trkpt lat="40.8338640" lon="0.2101240">
        <ele>542.0</ele>
        <time>2019-08-15T15:12:00Z</time>
      </trkpt>
      <trkpt lat="40.8338490" lon="0.2100730">
        <ele>542.0</ele>
        <time>2019-08-15T15:12:02Z</time>
      </trkpt>
      <trkpt lat="40.8338440" lon="0.2100500">
        <ele>542.0</ele>
        <time>2019-08-15T15:12:03Z</time>
      </trkpt>
      <trkpt lat="40.8338420" lon="0.2100250">
        <ele>542.0</ele>
        <time>2019-08-15T15:12:04Z</time>
      </trkpt>
      <trkpt lat="40.8338400" lon="0.2100010">
        <ele>543.0</ele>
        <time>2019-08-15T15:12:05Z</time>
      </trkpt>
      <trkpt lat="40.8338380" lon="0.2099480">
        <ele>543.0</ele>
        <time>2019-08-15T15:12:07Z</time>
      </trkpt>
      <trkpt lat="40.8338410" lon="0.2099160">
        <ele>543.0</ele>
        <time>2019-08-15T15:12:08Z</time>
      </trkpt>
      <trkpt lat="40.8338470" lon="0.2098880">
        <ele>543.0</ele>
        <time>2019-08-15T15:12:09Z</time>
      </trkpt>
      <trkpt lat="40.8338550" lon="0.2098650">
        <ele>543.0</ele>
        <time>2019-08-15T15:12:10Z</time>
      </trkpt>
      <trkpt lat="40.8338720" lon="0.2098230">
        <ele>543.0</ele>
        <time>2019-08-15T15:12:12Z</time>
      </trkpt>
      <trkpt lat="40.8338820" lon="0.2098010">
        <ele>543.0</ele>
        <time>2019-08-15T15:12:13Z</time>
      </trkpt>
      <trkpt lat="40.8338950" lon="0.2097840">
        <ele>543.0</ele>
        <time>2019-08-15T15:12:14Z</time>
      </trkpt>
      <trkpt lat="40.8339080" lon="0.2097660">
        <ele>543.0</ele>
        <time>2019-08-15T15:12:15Z</time>
      </trkpt>
      <trkpt lat="40.8339190" lon="0.2097510">
        <ele>543.0</ele>
        <time>2019-08-15T15:12:16Z</time>
      </trkpt>
      <trkpt lat="40.8339300" lon="0.2097350">
        <ele>543.0</ele>
        <time>2019-08-15T15:12:17Z</time>
      </trkpt>
      <trkpt lat="40.8339390" lon="0.2097180">
        <ele>543.0</ele>
        <time>2019-08-15T15:12:18Z</time>
      </trkpt>
      <trkpt lat="40.8339450" lon="0.2096990">
        <ele>543.0</ele>
        <time>2019-08-15T15:12:19Z</time>
      </trkpt>
      <trkpt lat="40.8339490" lon="0.2096760">
        <ele>543.0</ele>
        <time>2019-08-15T15:12:20Z</time>
      </trkpt>
      <trkpt lat="40.8339560" lon="0.2096550">
        <ele>543.0</ele>
        <time>2019-08-15T15:12:21Z</time>
      </trkpt>
      <trkpt lat="40.8339590" lon="0.2096370">
        <ele>543.0</ele>
        <time>2019-08-15T15:12:22Z</time>
      </trkpt>
      <trkpt lat="40.8339660" lon="0.2096240">
        <ele>543.0</ele>
        <time>2019-08-15T15:12:23Z</time>
      </trkpt>
      <trkpt lat="40.8339710" lon="0.2096070">
        <ele>543.0</ele>
        <time>2019-08-15T15:12:24Z</time>
      </trkpt>
      <trkpt lat="40.8339770" lon="0.2095920">
        <ele>543.0</ele>
        <time>2019-08-15T15:12:25Z</time>
      </trkpt>
      <trkpt lat="40.8339830" lon="0.2095780">
        <ele>543.0</ele>
        <time>2019-08-15T15:12:26Z</time>
      </trkpt>
      <trkpt lat="40.8339880" lon="0.2095610">
        <ele>543.0</ele>
        <time>2019-08-15T15:12:27Z</time>
      </trkpt>
      <trkpt lat="40.8340010" lon="0.2095280">
        <ele>543.0</ele>
        <time>2019-08-15T15:12:29Z</time>
      </trkpt>
      <trkpt lat="40.8340020" lon="0.2095190">
        <ele>544.0</ele>
        <time>2019-08-15T15:12:30Z</time>
      </trkpt>
      <trkpt lat="40.8341820" lon="0.2086720">
        <ele>553.0</ele>
        <time>2019-08-15T15:14:57Z</time>
      </trkpt>
      <trkpt lat="40.8341960" lon="0.2086430">
        <ele>553.0</ele>
        <time>2019-08-15T15:14:59Z</time>
      </trkpt>
      <trkpt lat="40.8342180" lon="0.2086110">
        <ele>553.0</ele>
        <time>2019-08-15T15:15:00Z</time>
      </trkpt>
      <trkpt lat="40.8342510" lon="0.2085800">
        <ele>553.0</ele>
        <time>2019-08-15T15:15:01Z</time>
      </trkpt>
      <trkpt lat="40.8342890" lon="0.2085490">
        <ele>553.0</ele>
        <time>2019-08-15T15:15:02Z</time>
      </trkpt>
      <trkpt lat="40.8343320" lon="0.2085290">
        <ele>553.0</ele>
        <time>2019-08-15T15:15:03Z</time>
      </trkpt>
      <trkpt lat="40.8343760" lon="0.2085150">
        <ele>553.0</ele>
        <time>2019-08-15T15:15:04Z</time>
      </trkpt>
      <trkpt lat="40.8344240" lon="0.2085060">
        <ele>553.0</ele>
        <time>2019-08-15T15:15:05Z</time>
      </trkpt>
      <trkpt lat="40.8344670" lon="0.2085030">
        <ele>553.0</ele>
        <time>2019-08-15T15:15:06Z</time>
      </trkpt>
      <trkpt lat="40.8345070" lon="0.2085020">
        <ele>553.0</ele>
        <time>2019-08-15T15:15:07Z</time>
      </trkpt>
      <trkpt lat="40.8345330" lon="0.2085040">
        <ele>553.0</ele>
        <time>2019-08-15T15:15:08Z</time>
      </trkpt>
      <trkpt lat="40.8345520" lon="0.2085020">
        <ele>552.0</ele>
        <time>2019-08-15T15:15:09Z</time>
      </trkpt>
      <trkpt lat="40.8345690" lon="0.2084980">
        <ele>552.0</ele>
        <time>2019-08-15T15:15:10Z</time>
      </trkpt>
      <trkpt lat="40.8345840" lon="0.2084930">
        <ele>552.0</ele>
        <time>2019-08-15T15:15:11Z</time>
      </trkpt>
      <trkpt lat="40.8346000" lon="0.2084900">
        <ele>552.0</ele>
        <time>2019-08-15T15:15:12Z</time>
      </trkpt>
      <trkpt lat="40.8346140" lon="0.2084840">
        <ele>553.0</ele>
        <time>2019-08-15T15:15:13Z</time>
      </trkpt>
      <trkpt lat="40.8346260" lon="0.2084820">
        <ele>553.0</ele>
        <time>2019-08-15T15:15:14Z</time>
      </trkpt>
      <trkpt lat="40.8346390" lon="0.2084790">
        <ele>553.0</ele>
        <time>2019-08-15T15:15:15Z</time>
      </trkpt>
      <trkpt lat="40.8346520" lon="0.2084740">
        <ele>553.0</ele>
        <time>2019-08-15T15:15:16Z</time>
      </trkpt>
      <trkpt lat="40.8346670" lon="0.2084730">
        <ele>553.0</ele>
        <time>2019-08-15T15:15:17Z</time>
      </trkpt>
      <trkpt lat="40.8346840" lon="0.2084720">
        <ele>553.0</ele>
        <time>2019-08-15T15:15:18Z</time>
      </trkpt>
      <trkpt lat="40.8347010" lon="0.2084690">
        <ele>553.0</ele>
        <time>2019-08-15T15:15:19Z</time>
      </trkpt>
      <trkpt lat="40.8347180" lon="0.2084630">
        <ele>553.0</ele>
        <time>2019-08-15T15:15:20Z</time>
      </trkpt>
      <trkpt lat="40.8347360" lon="0.2084560">
        <ele>553.0</ele>
        <time>2019-08-15T15:15:21Z</time>
      </trkpt>
      <trkpt lat="40.8347500" lon="0.2084510">
        <ele>554.0</ele>
        <time>2019-08-15T15:15:22Z</time>
      </trkpt>
      <trkpt lat="40.8347670" lon="0.2084440">
        <ele>554.0</ele>
        <time>2019-08-15T15:15:23Z</time>
      </trkpt>
      <trkpt lat="40.8347820" lon="0.2084380">
        <ele>554.0</ele>
        <time>2019-08-15T15:15:24Z</time>
      </trkpt>
      <trkpt lat="40.8347970" lon="0.2084290">
        <ele>554.0</ele>
        <time>2019-08-15T15:15:25Z</time>
      </trkpt>
      <trkpt lat="40.8348310" lon="0.2084060">
        <ele>555.0</ele>
        <time>2019-08-15T15:15:27Z</time>
      </trkpt>
      <trkpt lat="40.8348470" lon="0.2083960">
        <ele>555.0</ele>
        <time>2019-08-15T15:15:28Z</time>
      </trkpt>
      <trkpt lat="40.8348580" lon="0.2083870">
        <ele>555.0</ele>
        <time>2019-08-15T15:15:29Z</time>
      </trkpt>
      <trkpt lat="40.8348700" lon="0.2083750">
        <ele>555.0</ele>
        <time>2019-08-15T15:15:30Z</time>
      </trkpt>
      <trkpt lat="40.8348880" lon="0.2083630">
        <ele>555.0</ele>
        <time>2019-08-15T15:15:31Z</time>
      </trkpt>
      <trkpt lat="40.8349100" lon="0.2083450">
        <ele>555.0</ele>
        <time>2019-08-15T15:15:32Z</time>
      </trkpt>
      <trkpt lat="40.8349370" lon="0.2083160">
        <ele>555.0</ele>
        <time>2019-08-15T15:15:33Z</time>
      </trkpt>
      <trkpt lat="40.8349640" lon="0.2082720">
        <ele>556.0</ele>
        <time>2019-08-15T15:15:34Z</time>
      </trkpt>
      <trkpt lat="40.8349850" lon="0.2082230">
        <ele>556.0</ele>
        <time>2019-08-15T15:15:35Z</time>
      </trkpt>
      <trkpt lat="40.8349930" lon="0.2081690">
        <ele>556.0</ele>
        <time>2019-08-15T15:15:36Z</time>
      </trkpt>
      <trkpt lat="40.8349960" lon="0.2081150">
        <ele>556.0</ele>
        <time>2019-08-15T15:15:37Z</time>
      </trkpt>
      <trkpt lat="40.8349560" lon="0.2079740">
        <ele>556.0</ele>
        <time>2019-08-15T15:15:40Z</time>
      </trkpt>
      <trkpt lat="40.8349020" lon="0.2078770">
        <ele>555.0</ele>
        <time>2019-08-15T15:15:42Z</time>
      </trkpt>
      <trkpt lat="40.8348690" lon="0.2078290">
        <ele>555.0</ele>
        <time>2019-08-15T15:15:43Z</time>
      </trkpt>
      <trkpt lat="40.8348380" lon="0.2077780">
        <ele>555.0</ele>
        <time>2019-08-15T15:15:44Z</time>
      </trkpt>
      <trkpt lat="40.8348170" lon="0.2077200">
        <ele>555.0</ele>
        <time>2019-08-15T15:15:45Z</time>
      </trkpt>
      <trkpt lat="40.8348130" lon="0.2076640">
        <ele>555.0</ele>
        <time>2019-08-15T15:15:46Z</time>
      </trkpt>
      <trkpt lat="40.8348290" lon="0.2076170">
        <ele>554.0</ele>
        <time>2019-08-15T15:15:47Z</time>
      </trkpt>
      <trkpt lat="40.8348540" lon="0.2075800">
        <ele>554.0</ele>
        <time>2019-08-15T15:15:48Z</time>
      </trkpt>
      <trkpt lat="40.8348930" lon="0.2075540">
        <ele>554.0</ele>
        <time>2019-08-15T15:15:49Z</time>
      </trkpt>
      <trkpt lat="40.8349390" lon="0.2075340">
        <ele>553.0</ele>
        <time>2019-08-15T15:15:50Z</time>
      </trkpt>
      <trkpt lat="40.8349930" lon="0.2075170">
        <ele>553.0</ele>
        <time>2019-08-15T15:15:51Z</time>
      </trkpt>
      <trkpt lat="40.8351070" lon="0.2074810">
        <ele>552.0</ele>
        <time>2019-08-15T15:15:53Z</time>
      </trkpt>
      <trkpt lat="40.8351700" lon="0.2074600">
        <ele>552.0</ele>
        <time>2019-08-15T15:15:54Z</time>
      </trkpt>
      <trkpt lat="40.8352300" lon="0.2074360">
        <ele>551.0</ele>
        <time>2019-08-15T15:15:55Z</time>
      </trkpt>
      <trkpt lat="40.8353760" lon="0.2073330">
        <ele>550.0</ele>
        <time>2019-08-15T15:15:58Z</time>
      </trkpt>
      <trkpt lat="40.8354070" lon="0.2073030">
        <ele>549.0</ele>
        <time>2019-08-15T15:15:59Z</time>
      </trkpt>
      <trkpt lat="40.8354330" lon="0.2072740">
        <ele>549.0</ele>
        <time>2019-08-15T15:16:00Z</time>
      </trkpt>
      <trkpt lat="40.8354550" lon="0.2072450">
        <ele>548.0</ele>
        <time>2019-08-15T15:16:01Z</time>
      </trkpt>
      <trkpt lat="40.8354810" lon="0.2072020">
        <ele>548.0</ele>
        <time>2019-08-15T15:16:02Z</time>
      </trkpt>
      <trkpt lat="40.8355060" lon="0.2071580">
        <ele>547.0</ele>
        <time>2019-08-15T15:16:03Z</time>
      </trkpt>
      <trkpt lat="40.8355290" lon="0.2071090">
        <ele>547.0</ele>
        <time>2019-08-15T15:16:04Z</time>
      </trkpt>
      <trkpt lat="40.8355530" lon="0.2070590">
        <ele>546.0</ele>
        <time>2019-08-15T15:16:05Z</time>
      </trkpt>
      <trkpt lat="40.8355680" lon="0.2070090">
        <ele>546.0</ele>
        <time>2019-08-15T15:16:06Z</time>
      </trkpt>
      <trkpt lat="40.8355800" lon="0.2069560">
        <ele>545.0</ele>
        <time>2019-08-15T15:16:07Z</time>
      </trkpt>
      <trkpt lat="40.8356100" lon="0.2068390">
        <ele>544.0</ele>
        <time>2019-08-15T15:16:09Z</time>
      </trkpt>
      <trkpt lat="40.8356250" lon="0.2067750">
        <ele>544.0</ele>
        <time>2019-08-15T15:16:10Z</time>
      </trkpt>
      <trkpt lat="40.8356360" lon="0.2067080">
        <ele>543.0</ele>
        <time>2019-08-15T15:16:11Z</time>
      </trkpt>
      <trkpt lat="40.8356730" lon="0.2064950">
        <ele>542.0</ele>
        <time>2019-08-15T15:16:14Z</time>
      </trkpt>
      <trkpt lat="40.8356860" lon="0.2064260">
        <ele>541.0</ele>
        <time>2019-08-15T15:16:15Z</time>
      </trkpt>
      <trkpt lat="40.8357020" lon="0.2063580">
        <ele>541.0</ele>
        <time>2019-08-15T15:16:16Z</time>
      </trkpt>
      <trkpt lat="40.8357510" lon="0.2061340">
        <ele>540.0</ele>
        <time>2019-08-15T15:16:19Z</time>
      </trkpt>
      <trkpt lat="40.8357780" lon="0.2060480">
        <ele>539.0</ele>
        <time>2019-08-15T15:16:20Z</time>
      </trkpt>
      <trkpt lat="40.8358030" lon="0.2059570">
        <ele>539.0</ele>
        <time>2019-08-15T15:16:21Z</time>
      </trkpt>
      <trkpt lat="40.8358260" lon="0.2058630">
        <ele>539.0</ele>
        <time>2019-08-15T15:16:22Z</time>
      </trkpt>
      <trkpt lat="40.8358650" lon="0.2056730">
        <ele>538.0</ele>
        <time>2019-08-15T15:16:24Z</time>
      </trkpt>
      <trkpt lat="40.8358800" lon="0.2055760">
        <ele>537.0</ele>
        <time>2019-08-15T15:16:25Z</time>
      </trkpt>
      <trkpt lat="40.8358850" lon="0.2054870">
        <ele>537.0</ele>
        <time>2019-08-15T15:16:26Z</time>
      </trkpt>
      <trkpt lat="40.8358780" lon="0.2054070">
        <ele>536.0</ele>
        <time>2019-08-15T15:16:27Z</time>
      </trkpt>
      <trkpt lat="40.8358580" lon="0.2052720">
        <ele>536.0</ele>
        <time>2019-08-15T15:16:29Z</time>
      </trkpt>
      <trkpt lat="40.8358460" lon="0.2052160">
        <ele>535.0</ele>
        <time>2019-08-15T15:16:30Z</time>
      </trkpt>
      <trkpt lat="40.8358370" lon="0.2051630">
        <ele>535.0</ele>
        <time>2019-08-15T15:16:31Z</time>
      </trkpt>
      <trkpt lat="40.8358500" lon="0.2051210">
        <ele>535.0</ele>
        <time>2019-08-15T15:16:32Z</time>
      </trkpt>
      <trkpt lat="40.8358760" lon="0.2050360">
        <ele>534.0</ele>
        <time>2019-08-15T15:16:34Z</time>
      </trkpt>
      <trkpt lat="40.8359090" lon="0.2050220">
        <ele>534.0</ele>
        <time>2019-08-15T15:16:35Z</time>
      </trkpt>
      <trkpt lat="40.8359320" lon="0.2050320">
        <ele>533.0</ele>
        <time>2019-08-15T15:16:36Z</time>
      </trkpt>
      <trkpt lat="40.8359550" lon="0.2050430">
        <ele>533.0</ele>
        <time>2019-08-15T15:16:37Z</time>
      </trkpt>
      <trkpt lat="40.8359790" lon="0.2050620">
        <ele>533.0</ele>
        <time>2019-08-15T15:16:38Z</time>
      </trkpt>
      <trkpt lat="40.8360020" lon="0.2050860">
        <ele>533.0</ele>
        <time>2019-08-15T15:16:39Z</time>
      </trkpt>
      <trkpt lat="40.8360230" lon="0.2051080">
        <ele>533.0</ele>
        <time>2019-08-15T15:16:40Z</time>
      </trkpt>
      <trkpt lat="40.8360470" lon="0.2051280">
        <ele>533.0</ele>
        <time>2019-08-15T15:16:41Z</time>
      </trkpt>
      <trkpt lat="40.8360680" lon="0.2051490">
        <ele>533.0</ele>
        <time>2019-08-15T15:16:42Z</time>
      </trkpt>
      <trkpt lat="40.8360910" lon="0.2051650">
        <ele>533.0</ele>
        <time>2019-08-15T15:16:43Z</time>
      </trkpt>
      <trkpt lat="40.8361150" lon="0.2051750">
        <ele>533.0</ele>
        <time>2019-08-15T15:16:44Z</time>
      </trkpt>
      <trkpt lat="40.8361370" lon="0.2051790">
        <ele>533.0</ele>
        <time>2019-08-15T15:16:45Z</time>
      </trkpt>
      <trkpt lat="40.8361570" lon="0.2051770">
        <ele>533.0</ele>
        <time>2019-08-15T15:16:46Z</time>
      </trkpt>
      <trkpt lat="40.8361760" lon="0.2051710">
        <ele>533.0</ele>
        <time>2019-08-15T15:16:47Z</time>
      </trkpt>
      <trkpt lat="40.8361960" lon="0.2051610">
        <ele>533.0</ele>
        <time>2019-08-15T15:16:48Z</time>
      </trkpt>
      <trkpt lat="40.8362160" lon="0.2051440">
        <ele>533.0</ele>
        <time>2019-08-15T15:16:49Z</time>
      </trkpt>
      <trkpt lat="40.8362300" lon="0.2051270">
        <ele>533.0</ele>
        <time>2019-08-15T15:16:50Z</time>
      </trkpt>
      <trkpt lat="40.8362440" lon="0.2051100">
        <ele>533.0</ele>
        <time>2019-08-15T15:16:51Z</time>
      </trkpt>
      <trkpt lat="40.8362560" lon="0.2050910">
        <ele>533.0</ele>
        <time>2019-08-15T15:16:52Z</time>
      </trkpt>
      <trkpt lat="40.8362700" lon="0.2050740">
        <ele>533.0</ele>
        <time>2019-08-15T15:16:53Z</time>
      </trkpt>
      <trkpt lat="40.8362840" lon="0.2050590">
        <ele>533.0</ele>
        <time>2019-08-15T15:16:54Z</time>
      </trkpt>
      <trkpt lat="40.8362970" lon="0.2050440">
        <ele>533.0</ele>
        <time>2019-08-15T15:16:55Z</time>
      </trkpt>
      <trkpt lat="40.8363090" lon="0.2050300">
        <ele>533.0</ele>
        <time>2019-08-15T15:16:56Z</time>
      </trkpt>
      <trkpt lat="40.8363320" lon="0.2050030">
        <ele>533.0</ele>
        <time>2019-08-15T15:16:58Z</time>
      </trkpt>
      <trkpt lat="40.8363410" lon="0.2049890">
        <ele>534.0</ele>
        <time>2019-08-15T15:16:59Z</time>
      </trkpt>
      <trkpt lat="40.8363500" lon="0.2049730">
        <ele>534.0</ele>
        <time>2019-08-15T15:17:00Z</time>
      </trkpt>
      <trkpt lat="40.8363600" lon="0.2049620">
        <ele>534.0</ele>
        <time>2019-08-15T15:17:01Z</time>
      </trkpt>
      <trkpt lat="40.8363690" lon="0.2049530">
        <ele>534.0</ele>
        <time>2019-08-15T15:17:02Z</time>
      </trkpt>
      <trkpt lat="40.8363770" lon="0.2049440">
        <ele>534.0</ele>
        <time>2019-08-15T15:17:03Z</time>
      </trkpt>
      <trkpt lat="40.8363880" lon="0.2049350">
        <ele>534.0</ele>
        <time>2019-08-15T15:17:04Z</time>
      </trkpt>
      <trkpt lat="40.8363980" lon="0.2049240">
        <ele>534.0</ele>
        <time>2019-08-15T15:17:05Z</time>
      </trkpt>
      <trkpt lat="40.8364080" lon="0.2049120">
        <ele>534.0</ele>
        <time>2019-08-15T15:17:06Z</time>
      </trkpt>
      <trkpt lat="40.8364200" lon="0.2048990">
        <ele>534.0</ele>
        <time>2019-08-15T15:17:07Z</time>
      </trkpt>
      <trkpt lat="40.8364330" lon="0.2048880">
        <ele>534.0</ele>
        <time>2019-08-15T15:17:08Z</time>
      </trkpt>
      <trkpt lat="40.8364480" lon="0.2048770">
        <ele>534.0</ele>
        <time>2019-08-15T15:17:09Z</time>
      </trkpt>
      <trkpt lat="40.8364630" lon="0.2048670">
        <ele>535.0</ele>
        <time>2019-08-15T15:17:10Z</time>
      </trkpt>
      <trkpt lat="40.8364790" lon="0.2048550">
        <ele>535.0</ele>
        <time>2019-08-15T15:17:11Z</time>
      </trkpt>
      <trkpt lat="40.8364920" lon="0.2048420">
        <ele>535.0</ele>
        <time>2019-08-15T15:17:12Z</time>
      </trkpt>
      <trkpt lat="40.8365030" lon="0.2048270">
        <ele>535.0</ele>
        <time>2019-08-15T15:17:13Z</time>
      </trkpt>
      <trkpt lat="40.8365160" lon="0.2048170">
        <ele>535.0</ele>
        <time>2019-08-15T15:17:14Z</time>
      </trkpt>
      <trkpt lat="40.8365280" lon="0.2048080">
        <ele>536.0</ele>
        <time>2019-08-15T15:17:15Z</time>
      </trkpt>
      <trkpt lat="40.8365380" lon="0.2047960">
        <ele>536.0</ele>
        <time>2019-08-15T15:17:16Z</time>
      </trkpt>
      <trkpt lat="40.8365480" lon="0.2047860">
        <ele>536.0</ele>
        <time>2019-08-15T15:17:17Z</time>
      </trkpt>
      <trkpt lat="40.8365550" lon="0.2047770">
        <ele>536.0</ele>
        <time>2019-08-15T15:17:18Z</time>
      </trkpt>
      <trkpt lat="40.8365620" lon="0.2047670">
        <ele>536.0</ele>
        <time>2019-08-15T15:17:19Z</time>
      </trkpt>
      <trkpt lat="40.8365730" lon="0.2047580">
        <ele>537.0</ele>
        <time>2019-08-15T15:17:20Z</time>
      </trkpt>
      <trkpt lat="40.8365840" lon="0.2047500">
        <ele>537.0</ele>
        <time>2019-08-15T15:17:21Z</time>
      </trkpt>
      <trkpt lat="40.8366070" lon="0.2047310">
        <ele>537.0</ele>
        <time>2019-08-15T15:17:23Z</time>
      </trkpt>
      <trkpt lat="40.8366180" lon="0.2047200">
        <ele>537.0</ele>
        <time>2019-08-15T15:17:24Z</time>
      </trkpt>
      <trkpt lat="40.8366290" lon="0.2047130">
        <ele>537.0</ele>
        <time>2019-08-15T15:17:25Z</time>
      </trkpt>
      <trkpt lat="40.8366680" lon="0.2046920">
        <ele>537.0</ele>
        <time>2019-08-15T15:17:28Z</time>
      </trkpt>
      <trkpt lat="40.8366780" lon="0.2046810">
        <ele>538.0</ele>
        <time>2019-08-15T15:17:29Z</time>
      </trkpt>
      <trkpt lat="40.8366880" lon="0.2046700">
        <ele>538.0</ele>
        <time>2019-08-15T15:17:30Z</time>
      </trkpt>
      <trkpt lat="40.8366970" lon="0.2046610">
        <ele>538.0</ele>
        <time>2019-08-15T15:17:31Z</time>
      </trkpt>
      <trkpt lat="40.8367170" lon="0.2046420">
        <ele>538.0</ele>
        <time>2019-08-15T15:17:33Z</time>
      </trkpt>
      <trkpt lat="40.8367310" lon="0.2046340">
        <ele>538.0</ele>
        <time>2019-08-15T15:17:34Z</time>
      </trkpt>
      <trkpt lat="40.8367420" lon="0.2046240">
        <ele>538.0</ele>
        <time>2019-08-15T15:17:35Z</time>
      </trkpt>
      <trkpt lat="40.8367550" lon="0.2046140">
        <ele>538.0</ele>
        <time>2019-08-15T15:17:36Z</time>
      </trkpt>
      <trkpt lat="40.8367790" lon="0.2045930">
        <ele>538.0</ele>
        <time>2019-08-15T15:17:38Z</time>
      </trkpt>
      <trkpt lat="40.8367920" lon="0.2045840">
        <ele>538.0</ele>
        <time>2019-08-15T15:17:39Z</time>
      </trkpt>
      <trkpt lat="40.8368060" lon="0.2045720">
        <ele>538.0</ele>
        <time>2019-08-15T15:17:40Z</time>
      </trkpt>
      <trkpt lat="40.8368200" lon="0.2045590">
        <ele>538.0</ele>
        <time>2019-08-15T15:17:41Z</time>
      </trkpt>
      <trkpt lat="40.8368470" lon="0.2045340">
        <ele>538.0</ele>
        <time>2019-08-15T15:17:43Z</time>
      </trkpt>
      <trkpt lat="40.8368610" lon="0.2045220">
        <ele>538.0</ele>
        <time>2019-08-15T15:17:44Z</time>
      </trkpt>
      <trkpt lat="40.8368740" lon="0.2045070">
        <ele>538.0</ele>
        <time>2019-08-15T15:17:45Z</time>
      </trkpt>
      <trkpt lat="40.8368880" lon="0.2044930">
        <ele>538.0</ele>
        <time>2019-08-15T15:17:46Z</time>
      </trkpt>
      <trkpt lat="40.8369210" lon="0.2044710">
        <ele>539.0</ele>
        <time>2019-08-15T15:17:48Z</time>
      </trkpt>
      <trkpt lat="40.8369340" lon="0.2044550">
        <ele>539.0</ele>
        <time>2019-08-15T15:17:49Z</time>
      </trkpt>
      <trkpt lat="40.8369440" lon="0.2044390">
        <ele>539.0</ele>
        <time>2019-08-15T15:17:50Z</time>
      </trkpt>
      <trkpt lat="40.8369570" lon="0.2044250">
        <ele>539.0</ele>
        <time>2019-08-15T15:17:51Z</time>
      </trkpt>
      <trkpt lat="40.8369870" lon="0.2043970">
        <ele>539.0</ele>
        <time>2019-08-15T15:17:53Z</time>
      </trkpt>
      <trkpt lat="40.8370030" lon="0.2043820">
        <ele>539.0</ele>
        <time>2019-08-15T15:17:54Z</time>
      </trkpt>
      <trkpt lat="40.8370210" lon="0.2043660">
        <ele>540.0</ele>
        <time>2019-08-15T15:17:55Z</time>
      </trkpt>
      <trkpt lat="40.8370390" lon="0.2043550">
        <ele>540.0</ele>
        <time>2019-08-15T15:17:56Z</time>
      </trkpt>
      <trkpt lat="40.8370730" lon="0.2043320">
        <ele>540.0</ele>
        <time>2019-08-15T15:17:58Z</time>
      </trkpt>
      <trkpt lat="40.8370890" lon="0.2043210">
        <ele>540.0</ele>
        <time>2019-08-15T15:17:59Z</time>
      </trkpt>
      <trkpt lat="40.8371060" lon="0.2043070">
        <ele>540.0</ele>
        <time>2019-08-15T15:18:00Z</time>
      </trkpt>
      <trkpt lat="40.8371220" lon="0.2042890">
        <ele>540.0</ele>
        <time>2019-08-15T15:18:01Z</time>
      </trkpt>
      <trkpt lat="40.8371520" lon="0.2042470">
        <ele>540.0</ele>
        <time>2019-08-15T15:18:03Z</time>
      </trkpt>
      <trkpt lat="40.8371690" lon="0.2042300">
        <ele>540.0</ele>
        <time>2019-08-15T15:18:04Z</time>
      </trkpt>
      <trkpt lat="40.8371870" lon="0.2042130">
        <ele>540.0</ele>
        <time>2019-08-15T15:18:05Z</time>
      </trkpt>
      <trkpt lat="40.8372030" lon="0.2041960">
        <ele>540.0</ele>
        <time>2019-08-15T15:18:06Z</time>
      </trkpt>
      <trkpt lat="40.8372340" lon="0.2041720">
        <ele>540.0</ele>
        <time>2019-08-15T15:18:08Z</time>
      </trkpt>
      <trkpt lat="40.8372470" lon="0.2041610">
        <ele>540.0</ele>
        <time>2019-08-15T15:18:09Z</time>
      </trkpt>
      <trkpt lat="40.8372600" lon="0.2041500">
        <ele>540.0</ele>
        <time>2019-08-15T15:18:10Z</time>
      </trkpt>
      <trkpt lat="40.8372690" lon="0.2041360">
        <ele>540.0</ele>
        <time>2019-08-15T15:18:11Z</time>
      </trkpt>
      <trkpt lat="40.8372900" lon="0.2041050">
        <ele>541.0</ele>
        <time>2019-08-15T15:18:13Z</time>
      </trkpt>
      <trkpt lat="40.8373020" lon="0.2040920">
        <ele>541.0</ele>
        <time>2019-08-15T15:18:14Z</time>
      </trkpt>
      <trkpt lat="40.8373130" lon="0.2040790">
        <ele>541.0</ele>
        <time>2019-08-15T15:18:15Z</time>
      </trkpt>
      <trkpt lat="40.8373150" lon="0.2040630">
        <ele>541.0</ele>
        <time>2019-08-15T15:18:16Z</time>
      </trkpt>
      <trkpt lat="40.8373220" lon="0.2040310">
        <ele>541.0</ele>
        <time>2019-08-15T15:18:18Z</time>
      </trkpt>
      <trkpt lat="40.8373270" lon="0.2040160">
        <ele>541.0</ele>
        <time>2019-08-15T15:18:19Z</time>
      </trkpt>
      <trkpt lat="40.8373330" lon="0.2040020">
        <ele>541.0</ele>
        <time>2019-08-15T15:18:20Z</time>
      </trkpt>
      <trkpt lat="40.8373400" lon="0.2039870">
        <ele>541.0</ele>
        <time>2019-08-15T15:18:21Z</time>
      </trkpt>
      <trkpt lat="40.8373480" lon="0.2039550">
        <ele>541.0</ele>
        <time>2019-08-15T15:18:23Z</time>
      </trkpt>
      <trkpt lat="40.8373540" lon="0.2039420">
        <ele>541.0</ele>
        <time>2019-08-15T15:18:24Z</time>
      </trkpt>
      <trkpt lat="40.8373580" lon="0.2039280">
        <ele>542.0</ele>
        <time>2019-08-15T15:18:25Z</time>
      </trkpt>
      <trkpt lat="40.8373650" lon="0.2039140">
        <ele>542.0</ele>
        <time>2019-08-15T15:18:26Z</time>
      </trkpt>
      <trkpt lat="40.8373720" lon="0.2038840">
        <ele>542.0</ele>
        <time>2019-08-15T15:18:28Z</time>
      </trkpt>
      <trkpt lat="40.8373750" lon="0.2038690">
        <ele>542.0</ele>
        <time>2019-08-15T15:18:29Z</time>
      </trkpt>
      <trkpt lat="40.8373770" lon="0.2038540">
        <ele>542.0</ele>
        <time>2019-08-15T15:18:30Z</time>
      </trkpt>
      <trkpt lat="40.8373790" lon="0.2038400">
        <ele>543.0</ele>
        <time>2019-08-15T15:18:31Z</time>
      </trkpt>
      <trkpt lat="40.8373900" lon="0.2038120">
        <ele>543.0</ele>
        <time>2019-08-15T15:18:33Z</time>
      </trkpt>
      <trkpt lat="40.8373970" lon="0.2037990">
        <ele>544.0</ele>
        <time>2019-08-15T15:18:34Z</time>
      </trkpt>
      <trkpt lat="40.8374030" lon="0.2037860">
        <ele>544.0</ele>
        <time>2019-08-15T15:18:35Z</time>
      </trkpt>
      <trkpt lat="40.8374070" lon="0.2037740">
        <ele>544.0</ele>
        <time>2019-08-15T15:18:36Z</time>
      </trkpt>
      <trkpt lat="40.8374180" lon="0.2037430">
        <ele>544.0</ele>
        <time>2019-08-15T15:18:38Z</time>
      </trkpt>
      <trkpt lat="40.8374200" lon="0.2037280">
        <ele>545.0</ele>
        <time>2019-08-15T15:18:39Z</time>
      </trkpt>
      <trkpt lat="40.8374200" lon="0.2037100">
        <ele>545.0</ele>
        <time>2019-08-15T15:18:40Z</time>
      </trkpt>
      <trkpt lat="40.8374210" lon="0.2036940">
        <ele>545.0</ele>
        <time>2019-08-15T15:18:41Z</time>
      </trkpt>
      <trkpt lat="40.8374270" lon="0.2036660">
        <ele>546.0</ele>
        <time>2019-08-15T15:18:43Z</time>
      </trkpt>
      <trkpt lat="40.8374290" lon="0.2036540">
        <ele>546.0</ele>
        <time>2019-08-15T15:18:44Z</time>
      </trkpt>
      <trkpt lat="40.8374330" lon="0.2036420">
        <ele>546.0</ele>
        <time>2019-08-15T15:18:45Z</time>
      </trkpt>
      <trkpt lat="40.8374380" lon="0.2036260">
        <ele>546.0</ele>
        <time>2019-08-15T15:18:46Z</time>
      </trkpt>
      <trkpt lat="40.8374470" lon="0.2036000">
        <ele>546.0</ele>
        <time>2019-08-15T15:18:48Z</time>
      </trkpt>
      <trkpt lat="40.8374490" lon="0.2035850">
        <ele>547.0</ele>
        <time>2019-08-15T15:18:49Z</time>
      </trkpt>
      <trkpt lat="40.8374500" lon="0.2035720">
        <ele>547.0</ele>
        <time>2019-08-15T15:18:50Z</time>
      </trkpt>
      <trkpt lat="40.8374520" lon="0.2035600">
        <ele>547.0</ele>
        <time>2019-08-15T15:18:51Z</time>
      </trkpt>
      <trkpt lat="40.8374590" lon="0.2035310">
        <ele>547.0</ele>
        <time>2019-08-15T15:18:53Z</time>
      </trkpt>
      <trkpt lat="40.8374620" lon="0.2035190">
        <ele>547.0</ele>
        <time>2019-08-15T15:18:54Z</time>
      </trkpt>
      <trkpt lat="40.8374670" lon="0.2035070">
        <ele>548.0</ele>
        <time>2019-08-15T15:18:55Z</time>
      </trkpt>
      <trkpt lat="40.8374710" lon="0.2034950">
        <ele>548.0</ele>
        <time>2019-08-15T15:18:56Z</time>
      </trkpt>
      <trkpt lat="40.8374830" lon="0.2034740">
        <ele>548.0</ele>
        <time>2019-08-15T15:18:58Z</time>
      </trkpt>
      <trkpt lat="40.8374920" lon="0.2034540">
        <ele>548.0</ele>
        <time>2019-08-15T15:19:00Z</time>
      </trkpt>
      <trkpt lat="40.8374960" lon="0.2034410">
        <ele>548.0</ele>
        <time>2019-08-15T15:19:01Z</time>
      </trkpt>
      <trkpt lat="40.8375050" lon="0.2034130">
        <ele>549.0</ele>
        <time>2019-08-15T15:19:03Z</time>
      </trkpt>
      <trkpt lat="40.8375120" lon="0.2034010">
        <ele>549.0</ele>
        <time>2019-08-15T15:19:04Z</time>
      </trkpt>
      <trkpt lat="40.8375180" lon="0.2033890">
        <ele>549.0</ele>
        <time>2019-08-15T15:19:05Z</time>
      </trkpt>
      <trkpt lat="40.8375240" lon="0.2033760">
        <ele>549.0</ele>
        <time>2019-08-15T15:19:06Z</time>
      </trkpt>
      <trkpt lat="40.8375310" lon="0.2033460">
        <ele>550.0</ele>
        <time>2019-08-15T15:19:08Z</time>
      </trkpt>
      <trkpt lat="40.8375330" lon="0.2033300">
        <ele>550.0</ele>
        <time>2019-08-15T15:19:09Z</time>
      </trkpt>
      <trkpt lat="40.8375380" lon="0.2033150">
        <ele>550.0</ele>
        <time>2019-08-15T15:19:10Z</time>
      </trkpt>
      <trkpt lat="40.8375440" lon="0.2033010">
        <ele>550.0</ele>
        <time>2019-08-15T15:19:11Z</time>
      </trkpt>
      <trkpt lat="40.8375570" lon="0.2032760">
        <ele>550.0</ele>
        <time>2019-08-15T15:19:13Z</time>
      </trkpt>
      <trkpt lat="40.8375620" lon="0.2032640">
        <ele>550.0</ele>
        <time>2019-08-15T15:19:14Z</time>
      </trkpt>
      <trkpt lat="40.8375690" lon="0.2032510">
        <ele>551.0</ele>
        <time>2019-08-15T15:19:15Z</time>
      </trkpt>
      <trkpt lat="40.8375770" lon="0.2032330">
        <ele>551.0</ele>
        <time>2019-08-15T15:19:16Z</time>
      </trkpt>
      <trkpt lat="40.8375950" lon="0.2031990">
        <ele>551.0</ele>
        <time>2019-08-15T15:19:18Z</time>
      </trkpt>
      <trkpt lat="40.8376030" lon="0.2031850">
        <ele>551.0</ele>
        <time>2019-08-15T15:19:19Z</time>
      </trkpt>
      <trkpt lat="40.8376120" lon="0.2031710">
        <ele>551.0</ele>
        <time>2019-08-15T15:19:20Z</time>
      </trkpt>
      <trkpt lat="40.8376190" lon="0.2031570">
        <ele>551.0</ele>
        <time>2019-08-15T15:19:21Z</time>
      </trkpt>
      <trkpt lat="40.8376280" lon="0.2031270">
        <ele>551.0</ele>
        <time>2019-08-15T15:19:23Z</time>
      </trkpt>
      <trkpt lat="40.8376350" lon="0.2031120">
        <ele>551.0</ele>
        <time>2019-08-15T15:19:24Z</time>
      </trkpt>
      <trkpt lat="40.8376410" lon="0.2030980">
        <ele>551.0</ele>
        <time>2019-08-15T15:19:25Z</time>
      </trkpt>
      <trkpt lat="40.8376470" lon="0.2030840">
        <ele>551.0</ele>
        <time>2019-08-15T15:19:26Z</time>
      </trkpt>
      <trkpt lat="40.8376560" lon="0.2030540">
        <ele>552.0</ele>
        <time>2019-08-15T15:19:28Z</time>
      </trkpt>
      <trkpt lat="40.8376620" lon="0.2030420">
        <ele>552.0</ele>
        <time>2019-08-15T15:19:29Z</time>
      </trkpt>
      <trkpt lat="40.8376680" lon="0.2030320">
        <ele>552.0</ele>
        <time>2019-08-15T15:19:30Z</time>
      </trkpt>
      <trkpt lat="40.8376720" lon="0.2030210">
        <ele>552.0</ele>
        <time>2019-08-15T15:19:31Z</time>
      </trkpt>
      <trkpt lat="40.8376830" lon="0.2029970">
        <ele>552.0</ele>
        <time>2019-08-15T15:19:33Z</time>
      </trkpt>
      <trkpt lat="40.8376880" lon="0.2029860">
        <ele>552.0</ele>
        <time>2019-08-15T15:19:34Z</time>
      </trkpt>
      <trkpt lat="40.8376930" lon="0.2029750">
        <ele>552.0</ele>
        <time>2019-08-15T15:19:35Z</time>
      </trkpt>
      <trkpt lat="40.8376980" lon="0.2029610">
        <ele>553.0</ele>
        <time>2019-08-15T15:19:36Z</time>
      </trkpt>
      <trkpt lat="40.8377050" lon="0.2029370">
        <ele>553.0</ele>
        <time>2019-08-15T15:19:38Z</time>
      </trkpt>
      <trkpt lat="40.8377080" lon="0.2029260">
        <ele>553.0</ele>
        <time>2019-08-15T15:19:39Z</time>
      </trkpt>
      <trkpt lat="40.8377120" lon="0.2029160">
        <ele>553.0</ele>
        <time>2019-08-15T15:19:40Z</time>
      </trkpt>
      <trkpt lat="40.8377110" lon="0.2029100">
        <ele>553.0</ele>
        <time>2019-08-15T15:19:41Z</time>
      </trkpt>
      <trkpt lat="40.8380090" lon="0.2026590">
        <ele>559.0</ele>
        <time>2019-08-15T15:21:11Z</time>
      </trkpt>
      <trkpt lat="40.8380300" lon="0.2026520">
        <ele>559.0</ele>
        <time>2019-08-15T15:21:13Z</time>
      </trkpt>
      <trkpt lat="40.8380500" lon="0.2026450">
        <ele>559.0</ele>
        <time>2019-08-15T15:21:14Z</time>
      </trkpt>
      <trkpt lat="40.8380680" lon="0.2026370">
        <ele>559.0</ele>
        <time>2019-08-15T15:21:15Z</time>
      </trkpt>
      <trkpt lat="40.8380850" lon="0.2026280">
        <ele>559.0</ele>
        <time>2019-08-15T15:21:16Z</time>
      </trkpt>
      <trkpt lat="40.8381030" lon="0.2026210">
        <ele>559.0</ele>
        <time>2019-08-15T15:21:17Z</time>
      </trkpt>
      <trkpt lat="40.8381230" lon="0.2026120">
        <ele>559.0</ele>
        <time>2019-08-15T15:21:18Z</time>
      </trkpt>
      <trkpt lat="40.8381420" lon="0.2026050">
        <ele>559.0</ele>
        <time>2019-08-15T15:21:19Z</time>
      </trkpt>
      <trkpt lat="40.8381590" lon="0.2025980">
        <ele>559.0</ele>
        <time>2019-08-15T15:21:20Z</time>
      </trkpt>
      <trkpt lat="40.8381790" lon="0.2025930">
        <ele>559.0</ele>
        <time>2019-08-15T15:21:21Z</time>
      </trkpt>
      <trkpt lat="40.8381990" lon="0.2025870">
        <ele>559.0</ele>
        <time>2019-08-15T15:21:22Z</time>
      </trkpt>
      <trkpt lat="40.8382180" lon="0.2025790">
        <ele>559.0</ele>
        <time>2019-08-15T15:21:23Z</time>
      </trkpt>
      <trkpt lat="40.8382350" lon="0.2025700">
        <ele>559.0</ele>
        <time>2019-08-15T15:21:24Z</time>
      </trkpt>
      <trkpt lat="40.8382520" lon="0.2025620">
        <ele>559.0</ele>
        <time>2019-08-15T15:21:25Z</time>
      </trkpt>
      <trkpt lat="40.8382680" lon="0.2025550">
        <ele>559.0</ele>
        <time>2019-08-15T15:21:26Z</time>
      </trkpt>
      <trkpt lat="40.8382840" lon="0.2025480">
        <ele>559.0</ele>
        <time>2019-08-15T15:21:27Z</time>
      </trkpt>
      <trkpt lat="40.8383010" lon="0.2025390">
        <ele>559.0</ele>
        <time>2019-08-15T15:21:28Z</time>
      </trkpt>
      <trkpt lat="40.8383180" lon="0.2025310">
        <ele>559.0</ele>
        <time>2019-08-15T15:21:29Z</time>
      </trkpt>
      <trkpt lat="40.8383320" lon="0.2025210">
        <ele>559.0</ele>
        <time>2019-08-15T15:21:30Z</time>
      </trkpt>
      <trkpt lat="40.8383470" lon="0.2025110">
        <ele>559.0</ele>
        <time>2019-08-15T15:21:31Z</time>
      </trkpt>
      <trkpt lat="40.8383610" lon="0.2024990">
        <ele>560.0</ele>
        <time>2019-08-15T15:21:32Z</time>
      </trkpt>
      <trkpt lat="40.8383740" lon="0.2024830">
        <ele>560.0</ele>
        <time>2019-08-15T15:21:33Z</time>
      </trkpt>
      <trkpt lat="40.8383860" lon="0.2024670">
        <ele>560.0</ele>
        <time>2019-08-15T15:21:34Z</time>
      </trkpt>
      <trkpt lat="40.8383990" lon="0.2024500">
        <ele>560.0</ele>
        <time>2019-08-15T15:21:35Z</time>
      </trkpt>
      <trkpt lat="40.8384110" lon="0.2024310">
        <ele>560.0</ele>
        <time>2019-08-15T15:21:36Z</time>
      </trkpt>
      <trkpt lat="40.8384210" lon="0.2024100">
        <ele>560.0</ele>
        <time>2019-08-15T15:21:37Z</time>
      </trkpt>
      <trkpt lat="40.8384310" lon="0.2023870">
        <ele>560.0</ele>
        <time>2019-08-15T15:21:38Z</time>
      </trkpt>
      <trkpt lat="40.8384410" lon="0.2023030">
        <ele>560.0</ele>
        <time>2019-08-15T15:21:41Z</time>
      </trkpt>
      <trkpt lat="40.8384380" lon="0.2022720">
        <ele>560.0</ele>
        <time>2019-08-15T15:21:42Z</time>
      </trkpt>
      <trkpt lat="40.8384340" lon="0.2022360">
        <ele>561.0</ele>
        <time>2019-08-15T15:21:43Z</time>
      </trkpt>
      <trkpt lat="40.8384140" lon="0.2021580">
        <ele>561.0</ele>
        <time>2019-08-15T15:21:45Z</time>
      </trkpt>
      <trkpt lat="40.8383990" lon="0.2021130">
        <ele>561.0</ele>
        <time>2019-08-15T15:21:46Z</time>
      </trkpt>
      <trkpt lat="40.8383830" lon="0.2020640">
        <ele>561.0</ele>
        <time>2019-08-15T15:21:47Z</time>
      </trkpt>
      <trkpt lat="40.8383670" lon="0.2020080">
        <ele>561.0</ele>
        <time>2019-08-15T15:21:48Z</time>
      </trkpt>
      <trkpt lat="40.8383480" lon="0.2019490">
        <ele>561.0</ele>
        <time>2019-08-15T15:21:49Z</time>
      </trkpt>
      <trkpt lat="40.8383300" lon="0.2018890">
        <ele>561.0</ele>
        <time>2019-08-15T15:21:50Z</time>
      </trkpt>
      <trkpt lat="40.8383140" lon="0.2018280">
        <ele>561.0</ele>
        <time>2019-08-15T15:21:51Z</time>
      </trkpt>
      <trkpt lat="40.8383000" lon="0.2017660">
        <ele>560.0</ele>
        <time>2019-08-15T15:21:52Z</time>
      </trkpt>
      <trkpt lat="40.8382870" lon="0.2017040">
        <ele>560.0</ele>
        <time>2019-08-15T15:21:53Z</time>
      </trkpt>
      <trkpt lat="40.8382770" lon="0.2016420">
        <ele>560.0</ele>
        <time>2019-08-15T15:21:54Z</time>
      </trkpt>
      <trkpt lat="40.8382710" lon="0.2015860">
        <ele>560.0</ele>
        <time>2019-08-15T15:21:55Z</time>
      </trkpt>
      <trkpt lat="40.8382660" lon="0.2015320">
        <ele>560.0</ele>
        <time>2019-08-15T15:21:56Z</time>
      </trkpt>
      <trkpt lat="40.8382620" lon="0.2014850">
        <ele>560.0</ele>
        <time>2019-08-15T15:21:57Z</time>
      </trkpt>
      <trkpt lat="40.8382600" lon="0.2014470">
        <ele>560.0</ele>
        <time>2019-08-15T15:21:58Z</time>
      </trkpt>
      <trkpt lat="40.8382600" lon="0.2014120">
        <ele>560.0</ele>
        <time>2019-08-15T15:21:59Z</time>
      </trkpt>
      <trkpt lat="40.8382600" lon="0.2013810">
        <ele>560.0</ele>
        <time>2019-08-15T15:22:00Z</time>
      </trkpt>
      <trkpt lat="40.8382610" lon="0.2013510">
        <ele>560.0</ele>
        <time>2019-08-15T15:22:01Z</time>
      </trkpt>
      <trkpt lat="40.8382590" lon="0.2013220">
        <ele>560.0</ele>
        <time>2019-08-15T15:22:02Z</time>
      </trkpt>
      <trkpt lat="40.8382510" lon="0.2012630">
        <ele>560.0</ele>
        <time>2019-08-15T15:22:04Z</time>
      </trkpt>
      <trkpt lat="40.8382490" lon="0.2012310">
        <ele>560.0</ele>
        <time>2019-08-15T15:22:05Z</time>
      </trkpt>
      <trkpt lat="40.8382500" lon="0.2011980">
        <ele>560.0</ele>
        <time>2019-08-15T15:22:06Z</time>
      </trkpt>
      <trkpt lat="40.8382520" lon="0.2010830">
        <ele>560.0</ele>
        <time>2019-08-15T15:22:09Z</time>
      </trkpt>
      <trkpt lat="40.8382500" lon="0.2010420">
        <ele>560.0</ele>
        <time>2019-08-15T15:22:10Z</time>
      </trkpt>
      <trkpt lat="40.8382470" lon="0.2010010">
        <ele>560.0</ele>
        <time>2019-08-15T15:22:11Z</time>
      </trkpt>
      <trkpt lat="40.8382340" lon="0.2008840">
        <ele>560.0</ele>
        <time>2019-08-15T15:22:14Z</time>
      </trkpt>
      <trkpt lat="40.8382290" lon="0.2008460">
        <ele>560.0</ele>
        <time>2019-08-15T15:22:15Z</time>
      </trkpt>
      <trkpt lat="40.8382210" lon="0.2008090">
        <ele>561.0</ele>
        <time>2019-08-15T15:22:16Z</time>
      </trkpt>
      <trkpt lat="40.8382100" lon="0.2007710">
        <ele>561.0</ele>
        <time>2019-08-15T15:22:17Z</time>
      </trkpt>
      <trkpt lat="40.8381810" lon="0.2006950">
        <ele>561.0</ele>
        <time>2019-08-15T15:22:19Z</time>
      </trkpt>
      <trkpt lat="40.8381640" lon="0.2006580">
        <ele>561.0</ele>
        <time>2019-08-15T15:22:20Z</time>
      </trkpt>
      <trkpt lat="40.8381440" lon="0.2006230">
        <ele>561.0</ele>
        <time>2019-08-15T15:22:21Z</time>
      </trkpt>
      <trkpt lat="40.8381210" lon="0.2005870">
        <ele>561.0</ele>
        <time>2019-08-15T15:22:22Z</time>
      </trkpt>
      <trkpt lat="40.8380710" lon="0.2005120">
        <ele>561.0</ele>
        <time>2019-08-15T15:22:24Z</time>
      </trkpt>
      <trkpt lat="40.8380420" lon="0.2004760">
        <ele>561.0</ele>
        <time>2019-08-15T15:22:25Z</time>
      </trkpt>
      <trkpt lat="40.8380110" lon="0.2004480">
        <ele>561.0</ele>
        <time>2019-08-15T15:22:26Z</time>
      </trkpt>
      <trkpt lat="40.8379800" lon="0.2004260">
        <ele>561.0</ele>
        <time>2019-08-15T15:22:27Z</time>
      </trkpt>
      <trkpt lat="40.8379500" lon="0.2004090">
        <ele>561.0</ele>
        <time>2019-08-15T15:22:28Z</time>
      </trkpt>
      <trkpt lat="40.8379220" lon="0.2003960">
        <ele>561.0</ele>
        <time>2019-08-15T15:22:29Z</time>
      </trkpt>
      <trkpt lat="40.8378950" lon="0.2003860">
        <ele>561.0</ele>
        <time>2019-08-15T15:22:30Z</time>
      </trkpt>
      <trkpt lat="40.8378670" lon="0.2003770">
        <ele>561.0</ele>
        <time>2019-08-15T15:22:31Z</time>
      </trkpt>
      <trkpt lat="40.8378400" lon="0.2003710">
        <ele>561.0</ele>
        <time>2019-08-15T15:22:32Z</time>
      </trkpt>
      <trkpt lat="40.8378150" lon="0.2003650">
        <ele>561.0</ele>
        <time>2019-08-15T15:22:33Z</time>
      </trkpt>
      <trkpt lat="40.8377890" lon="0.2003540">
        <ele>561.0</ele>
        <time>2019-08-15T15:22:34Z</time>
      </trkpt>
      <trkpt lat="40.8377620" lon="0.2003420">
        <ele>560.0</ele>
        <time>2019-08-15T15:22:35Z</time>
      </trkpt>
      <trkpt lat="40.8377360" lon="0.2003310">
        <ele>560.0</ele>
        <time>2019-08-15T15:22:36Z</time>
      </trkpt>
      <trkpt lat="40.8377100" lon="0.2003180">
        <ele>560.0</ele>
        <time>2019-08-15T15:22:37Z</time>
      </trkpt>
      <trkpt lat="40.8376850" lon="0.2003020">
        <ele>560.0</ele>
        <time>2019-08-15T15:22:38Z</time>
      </trkpt>
      <trkpt lat="40.8376580" lon="0.2002810">
        <ele>560.0</ele>
        <time>2019-08-15T15:22:39Z</time>
      </trkpt>
      <trkpt lat="40.8376330" lon="0.2002570">
        <ele>560.0</ele>
        <time>2019-08-15T15:22:40Z</time>
      </trkpt>
      <trkpt lat="40.8376130" lon="0.2002280">
        <ele>560.0</ele>
        <time>2019-08-15T15:22:41Z</time>
      </trkpt>
      <trkpt lat="40.8375960" lon="0.2001970">
        <ele>560.0</ele>
        <time>2019-08-15T15:22:42Z</time>
      </trkpt>
      <trkpt lat="40.8375680" lon="0.2001300">
        <ele>560.0</ele>
        <time>2019-08-15T15:22:44Z</time>
      </trkpt>
      <trkpt lat="40.8375610" lon="0.2000920">
        <ele>560.0</ele>
        <time>2019-08-15T15:22:45Z</time>
      </trkpt>
      <trkpt lat="40.8375590" lon="0.2000510">
        <ele>560.0</ele>
        <time>2019-08-15T15:22:46Z</time>
      </trkpt>
      <trkpt lat="40.8375860" lon="0.1999380">
        <ele>560.0</ele>
        <time>2019-08-15T15:22:49Z</time>
      </trkpt>
      <trkpt lat="40.8375960" lon="0.1999050">
        <ele>560.0</ele>
        <time>2019-08-15T15:22:50Z</time>
      </trkpt>
      <trkpt lat="40.8376070" lon="0.1998730">
        <ele>560.0</ele>
        <time>2019-08-15T15:22:51Z</time>
      </trkpt>
      <trkpt lat="40.8376200" lon="0.1998400">
        <ele>560.0</ele>
        <time>2019-08-15T15:22:52Z</time>
      </trkpt>
      <trkpt lat="40.8376330" lon="0.1998070">
        <ele>560.0</ele>
        <time>2019-08-15T15:22:53Z</time>
      </trkpt>
      <trkpt lat="40.8376430" lon="0.1997700">
        <ele>560.0</ele>
        <time>2019-08-15T15:22:54Z</time>
      </trkpt>
      <trkpt lat="40.8376470" lon="0.1997310">
        <ele>560.0</ele>
        <time>2019-08-15T15:22:55Z</time>
      </trkpt>
      <trkpt lat="40.8376450" lon="0.1996890">
        <ele>560.0</ele>
        <time>2019-08-15T15:22:56Z</time>
      </trkpt>
      <trkpt lat="40.8376330" lon="0.1996480">
        <ele>560.0</ele>
        <time>2019-08-15T15:22:57Z</time>
      </trkpt>
      <trkpt lat="40.8376130" lon="0.1996080">
        <ele>560.0</ele>
        <time>2019-08-15T15:22:58Z</time>
      </trkpt>
      <trkpt lat="40.8375930" lon="0.1995690">
        <ele>560.0</ele>
        <time>2019-08-15T15:22:59Z</time>
      </trkpt>
      <trkpt lat="40.8375700" lon="0.1995280">
        <ele>559.0</ele>
        <time>2019-08-15T15:23:00Z</time>
      </trkpt>
      <trkpt lat="40.8375440" lon="0.1994870">
        <ele>559.0</ele>
        <time>2019-08-15T15:23:01Z</time>
      </trkpt>
      <trkpt lat="40.8375170" lon="0.1994460">
        <ele>559.0</ele>
        <time>2019-08-15T15:23:02Z</time>
      </trkpt>
      <trkpt lat="40.8374620" lon="0.1993590">
        <ele>559.0</ele>
        <time>2019-08-15T15:23:04Z</time>
      </trkpt>
      <trkpt lat="40.8374360" lon="0.1993090">
        <ele>559.0</ele>
        <time>2019-08-15T15:23:05Z</time>
      </trkpt>
      <trkpt lat="40.8374100" lon="0.1992560">
        <ele>559.0</ele>
        <time>2019-08-15T15:23:06Z</time>
      </trkpt>
      <trkpt lat="40.8373350" lon="0.1990930">
        <ele>559.0</ele>
        <time>2019-08-15T15:23:09Z</time>
      </trkpt>
      <trkpt lat="40.8373030" lon="0.1990360">
        <ele>558.0</ele>
        <time>2019-08-15T15:23:10Z</time>
      </trkpt>
      <trkpt lat="40.8372700" lon="0.1989760">
        <ele>558.0</ele>
        <time>2019-08-15T15:23:11Z</time>
      </trkpt>
      <trkpt lat="40.8371690" lon="0.1987800">
        <ele>558.0</ele>
        <time>2019-08-15T15:23:14Z</time>
      </trkpt>
      <trkpt lat="40.8371300" lon="0.1987140">
        <ele>558.0</ele>
        <time>2019-08-15T15:23:15Z</time>
      </trkpt>
      <trkpt lat="40.8370830" lon="0.1986520">
        <ele>558.0</ele>
        <time>2019-08-15T15:23:16Z</time>
      </trkpt>
      <trkpt lat="40.8370350" lon="0.1985960">
        <ele>557.0</ele>
        <time>2019-08-15T15:23:17Z</time>
      </trkpt>
      <trkpt lat="40.8369490" lon="0.1984980">
        <ele>557.0</ele>
        <time>2019-08-15T15:23:19Z</time>
      </trkpt>
      <trkpt lat="40.8369120" lon="0.1984540">
        <ele>557.0</ele>
        <time>2019-08-15T15:23:20Z</time>
      </trkpt>
      <trkpt lat="40.8368710" lon="0.1984100">
        <ele>557.0</ele>
        <time>2019-08-15T15:23:21Z</time>
      </trkpt>
      <trkpt lat="40.8368200" lon="0.1983650">
        <ele>556.0</ele>
        <time>2019-08-15T15:23:22Z</time>
      </trkpt>
      <trkpt lat="40.8366930" lon="0.1982920">
        <ele>556.0</ele>
        <time>2019-08-15T15:23:24Z</time>
      </trkpt>
      <trkpt lat="40.8366250" lon="0.1982710">
        <ele>555.0</ele>
        <time>2019-08-15T15:23:25Z</time>
      </trkpt>
      <trkpt lat="40.8365580" lon="0.1982580">
        <ele>555.0</ele>
        <time>2019-08-15T15:23:26Z</time>
      </trkpt>
      <trkpt lat="40.8364900" lon="0.1982490">
        <ele>555.0</ele>
        <time>2019-08-15T15:23:27Z</time>
      </trkpt>
      <trkpt lat="40.8364230" lon="0.1982470">
        <ele>554.0</ele>
        <time>2019-08-15T15:23:28Z</time>
      </trkpt>
      <trkpt lat="40.8363560" lon="0.1982460">
        <ele>554.0</ele>
        <time>2019-08-15T15:23:29Z</time>
      </trkpt>
      <trkpt lat="40.8362950" lon="0.1982380">
        <ele>553.0</ele>
        <time>2019-08-15T15:23:30Z</time>
      </trkpt>
      <trkpt lat="40.8362420" lon="0.1982130">
        <ele>553.0</ele>
        <time>2019-08-15T15:23:31Z</time>
      </trkpt>
      <trkpt lat="40.8362040" lon="0.1981740">
        <ele>553.0</ele>
        <time>2019-08-15T15:23:32Z</time>
      </trkpt>
      <trkpt lat="40.8361670" lon="0.1980870">
        <ele>552.0</ele>
        <time>2019-08-15T15:23:34Z</time>
      </trkpt>
      <trkpt lat="40.8361640" lon="0.1980510">
        <ele>551.0</ele>
        <time>2019-08-15T15:23:35Z</time>
      </trkpt>
      <trkpt lat="40.8361680" lon="0.1980200">
        <ele>551.0</ele>
        <time>2019-08-15T15:23:36Z</time>
      </trkpt>
      <trkpt lat="40.8361840" lon="0.1979410">
        <ele>551.0</ele>
        <time>2019-08-15T15:23:39Z</time>
      </trkpt>
      <trkpt lat="40.8361930" lon="0.1979180">
        <ele>551.0</ele>
        <time>2019-08-15T15:23:40Z</time>
      </trkpt>
      <trkpt lat="40.8362010" lon="0.1978940">
        <ele>551.0</ele>
        <time>2019-08-15T15:23:41Z</time>
      </trkpt>
      <trkpt lat="40.8362060" lon="0.1978670">
        <ele>551.0</ele>
        <time>2019-08-15T15:23:42Z</time>
      </trkpt>
      <trkpt lat="40.8362120" lon="0.1978410">
        <ele>551.0</ele>
        <time>2019-08-15T15:23:43Z</time>
      </trkpt>
      <trkpt lat="40.8362200" lon="0.1978140">
        <ele>551.0</ele>
        <time>2019-08-15T15:23:44Z</time>
      </trkpt>
      <trkpt lat="40.8362250" lon="0.1977820">
        <ele>551.0</ele>
        <time>2019-08-15T15:23:45Z</time>
      </trkpt>
      <trkpt lat="40.8362290" lon="0.1977500">
        <ele>551.0</ele>
        <time>2019-08-15T15:23:46Z</time>
      </trkpt>
      <trkpt lat="40.8362320" lon="0.1977200">
        <ele>551.0</ele>
        <time>2019-08-15T15:23:47Z</time>
      </trkpt>
      <trkpt lat="40.8362340" lon="0.1976920">
        <ele>552.0</ele>
        <time>2019-08-15T15:23:48Z</time>
      </trkpt>
      <trkpt lat="40.8362320" lon="0.1976620">
        <ele>552.0</ele>
        <time>2019-08-15T15:23:49Z</time>
      </trkpt>
      <trkpt lat="40.8362270" lon="0.1976310">
        <ele>552.0</ele>
        <time>2019-08-15T15:23:50Z</time>
      </trkpt>
      <trkpt lat="40.8362220" lon="0.1976010">
        <ele>552.0</ele>
        <time>2019-08-15T15:23:51Z</time>
      </trkpt>
      <trkpt lat="40.8362200" lon="0.1975690">
        <ele>552.0</ele>
        <time>2019-08-15T15:23:52Z</time>
      </trkpt>
      <trkpt lat="40.8362190" lon="0.1975380">
        <ele>552.0</ele>
        <time>2019-08-15T15:23:53Z</time>
      </trkpt>
      <trkpt lat="40.8362210" lon="0.1975080">
        <ele>553.0</ele>
        <time>2019-08-15T15:23:54Z</time>
      </trkpt>
      <trkpt lat="40.8362260" lon="0.1974750">
        <ele>553.0</ele>
        <time>2019-08-15T15:23:55Z</time>
      </trkpt>
      <trkpt lat="40.8362290" lon="0.1974390">
        <ele>553.0</ele>
        <time>2019-08-15T15:23:56Z</time>
      </trkpt>
      <trkpt lat="40.8362320" lon="0.1973970">
        <ele>553.0</ele>
        <time>2019-08-15T15:23:57Z</time>
      </trkpt>
      <trkpt lat="40.8362410" lon="0.1973190">
        <ele>553.0</ele>
        <time>2019-08-15T15:23:59Z</time>
      </trkpt>
      <trkpt lat="40.8362400" lon="0.1973010">
        <ele>553.0</ele>
        <time>2019-08-15T15:24:01Z</time>
      </trkpt>
      <trkpt lat="40.8362990" lon="0.1972410">
        <ele>553.0</ele>
        <time>2019-08-15T15:26:51Z</time>
      </trkpt>
      <trkpt lat="40.8363120" lon="0.1972200">
        <ele>553.0</ele>
        <time>2019-08-15T15:26:53Z</time>
      </trkpt>
      <trkpt lat="40.8363240" lon="0.1971990">
        <ele>553.0</ele>
        <time>2019-08-15T15:26:54Z</time>
      </trkpt>
      <trkpt lat="40.8363350" lon="0.1971770">
        <ele>553.0</ele>
        <time>2019-08-15T15:26:55Z</time>
      </trkpt>
      <trkpt lat="40.8363480" lon="0.1971550">
        <ele>553.0</ele>
        <time>2019-08-15T15:26:56Z</time>
      </trkpt>
      <trkpt lat="40.8363600" lon="0.1971370">
        <ele>553.0</ele>
        <time>2019-08-15T15:26:57Z</time>
      </trkpt>
      <trkpt lat="40.8363760" lon="0.1971200">
        <ele>553.0</ele>
        <time>2019-08-15T15:26:58Z</time>
      </trkpt>
      <trkpt lat="40.8363930" lon="0.1971030">
        <ele>553.0</ele>
        <time>2019-08-15T15:26:59Z</time>
      </trkpt>
      <trkpt lat="40.8364110" lon="0.1970840">
        <ele>553.0</ele>
        <time>2019-08-15T15:27:00Z</time>
      </trkpt>
      <trkpt lat="40.8364310" lon="0.1970640">
        <ele>553.0</ele>
        <time>2019-08-15T15:27:01Z</time>
      </trkpt>
      <trkpt lat="40.8364520" lon="0.1970430">
        <ele>553.0</ele>
        <time>2019-08-15T15:27:02Z</time>
      </trkpt>
      <trkpt lat="40.8364760" lon="0.1970200">
        <ele>553.0</ele>
        <time>2019-08-15T15:27:03Z</time>
      </trkpt>
      <trkpt lat="40.8365050" lon="0.1969940">
        <ele>553.0</ele>
        <time>2019-08-15T15:27:04Z</time>
      </trkpt>
      <trkpt lat="40.8365340" lon="0.1969630">
        <ele>553.0</ele>
        <time>2019-08-15T15:27:05Z</time>
      </trkpt>
      <trkpt lat="40.8365670" lon="0.1969320">
        <ele>553.0</ele>
        <time>2019-08-15T15:27:06Z</time>
      </trkpt>
      <trkpt lat="40.8366050" lon="0.1969040">
        <ele>553.0</ele>
        <time>2019-08-15T15:27:07Z</time>
      </trkpt>
      <trkpt lat="40.8366480" lon="0.1968810">
        <ele>553.0</ele>
        <time>2019-08-15T15:27:08Z</time>
      </trkpt>
      <trkpt lat="40.8366940" lon="0.1968650">
        <ele>553.0</ele>
        <time>2019-08-15T15:27:09Z</time>
      </trkpt>
      <trkpt lat="40.8367380" lon="0.1968530">
        <ele>553.0</ele>
        <time>2019-08-15T15:27:10Z</time>
      </trkpt>
      <trkpt lat="40.8367760" lon="0.1968380">
        <ele>553.0</ele>
        <time>2019-08-15T15:27:11Z</time>
      </trkpt>
      <trkpt lat="40.8368080" lon="0.1968200">
        <ele>553.0</ele>
        <time>2019-08-15T15:27:12Z</time>
      </trkpt>
      <trkpt lat="40.8368320" lon="0.1967970">
        <ele>553.0</ele>
        <time>2019-08-15T15:27:13Z</time>
      </trkpt>
      <trkpt lat="40.8368460" lon="0.1967720">
        <ele>553.0</ele>
        <time>2019-08-15T15:27:14Z</time>
      </trkpt>
      <trkpt lat="40.8368580" lon="0.1967500">
        <ele>553.0</ele>
        <time>2019-08-15T15:27:15Z</time>
      </trkpt>
      <trkpt lat="40.8368680" lon="0.1967290">
        <ele>553.0</ele>
        <time>2019-08-15T15:27:16Z</time>
      </trkpt>
      <trkpt lat="40.8368780" lon="0.1967070">
        <ele>553.0</ele>
        <time>2019-08-15T15:27:17Z</time>
      </trkpt>
      <trkpt lat="40.8368850" lon="0.1966840">
        <ele>553.0</ele>
        <time>2019-08-15T15:27:18Z</time>
      </trkpt>
      <trkpt lat="40.8368910" lon="0.1966610">
        <ele>553.0</ele>
        <time>2019-08-15T15:27:19Z</time>
      </trkpt>
      <trkpt lat="40.8368960" lon="0.1966380">
        <ele>553.0</ele>
        <time>2019-08-15T15:27:20Z</time>
      </trkpt>
      <trkpt lat="40.8369020" lon="0.1966150">
        <ele>553.0</ele>
        <time>2019-08-15T15:27:21Z</time>
      </trkpt>
      <trkpt lat="40.8369070" lon="0.1965660">
        <ele>553.0</ele>
        <time>2019-08-15T15:27:23Z</time>
      </trkpt>
      <trkpt lat="40.8369110" lon="0.1965440">
        <ele>553.0</ele>
        <time>2019-08-15T15:27:24Z</time>
      </trkpt>
      <trkpt lat="40.8369120" lon="0.1965230">
        <ele>553.0</ele>
        <time>2019-08-15T15:27:25Z</time>
      </trkpt>
      <trkpt lat="40.8369140" lon="0.1964590">
        <ele>554.0</ele>
        <time>2019-08-15T15:27:28Z</time>
      </trkpt>
      <trkpt lat="40.8369140" lon="0.1964390">
        <ele>554.0</ele>
        <time>2019-08-15T15:27:29Z</time>
      </trkpt>
      <trkpt lat="40.8369130" lon="0.1964150">
        <ele>554.0</ele>
        <time>2019-08-15T15:27:30Z</time>
      </trkpt>
      <trkpt lat="40.8369090" lon="0.1963740">
        <ele>554.0</ele>
        <time>2019-08-15T15:27:31Z</time>
      </trkpt>
      <trkpt lat="40.8369070" lon="0.1963590">
        <ele>554.0</ele>
        <time>2019-08-15T15:27:32Z</time>
      </trkpt>
      <trkpt lat="40.8368980" lon="0.1963280">
        <ele>554.0</ele>
        <time>2019-08-15T15:27:33Z</time>
      </trkpt>
      <trkpt lat="40.8368810" lon="0.1962960">
        <ele>554.0</ele>
        <time>2019-08-15T15:27:34Z</time>
      </trkpt>
      <trkpt lat="40.8368550" lon="0.1962650">
        <ele>554.0</ele>
        <time>2019-08-15T15:27:35Z</time>
      </trkpt>
      <trkpt lat="40.8368180" lon="0.1962330">
        <ele>554.0</ele>
        <time>2019-08-15T15:27:36Z</time>
      </trkpt>
      <trkpt lat="40.8367720" lon="0.1962030">
        <ele>554.0</ele>
        <time>2019-08-15T15:27:37Z</time>
      </trkpt>
      <trkpt lat="40.8367190" lon="0.1961740">
        <ele>554.0</ele>
        <time>2019-08-15T15:27:38Z</time>
      </trkpt>
      <trkpt lat="40.8366590" lon="0.1961420">
        <ele>554.0</ele>
        <time>2019-08-15T15:27:39Z</time>
      </trkpt>
      <trkpt lat="40.8365960" lon="0.1961010">
        <ele>554.0</ele>
        <time>2019-08-15T15:27:40Z</time>
      </trkpt>
      <trkpt lat="40.8365320" lon="0.1960560">
        <ele>554.0</ele>
        <time>2019-08-15T15:27:41Z</time>
      </trkpt>
      <trkpt lat="40.8364700" lon="0.1960190">
        <ele>554.0</ele>
        <time>2019-08-15T15:27:42Z</time>
      </trkpt>
      <trkpt lat="40.8364070" lon="0.1959900">
        <ele>553.0</ele>
        <time>2019-08-15T15:27:43Z</time>
      </trkpt>
      <trkpt lat="40.8363510" lon="0.1959540">
        <ele>553.0</ele>
        <time>2019-08-15T15:27:44Z</time>
      </trkpt>
      <trkpt lat="40.8363070" lon="0.1959050">
        <ele>553.0</ele>
        <time>2019-08-15T15:27:45Z</time>
      </trkpt>
      <trkpt lat="40.8362700" lon="0.1958460">
        <ele>552.0</ele>
        <time>2019-08-15T15:27:46Z</time>
      </trkpt>
      <trkpt lat="40.8362300" lon="0.1957820">
        <ele>552.0</ele>
        <time>2019-08-15T15:27:47Z</time>
      </trkpt>
      <trkpt lat="40.8361800" lon="0.1957240">
        <ele>552.0</ele>
        <time>2019-08-15T15:27:48Z</time>
      </trkpt>
      <trkpt lat="40.8361210" lon="0.1956760">
        <ele>551.0</ele>
        <time>2019-08-15T15:27:49Z</time>
      </trkpt>
      <trkpt lat="40.8360560" lon="0.1956330">
        <ele>551.0</ele>
        <time>2019-08-15T15:27:50Z</time>
      </trkpt>
      <trkpt lat="40.8359940" lon="0.1955780">
        <ele>550.0</ele>
        <time>2019-08-15T15:27:51Z</time>
      </trkpt>
      <trkpt lat="40.8359390" lon="0.1955160">
        <ele>550.0</ele>
        <time>2019-08-15T15:27:52Z</time>
      </trkpt>
      <trkpt lat="40.8358950" lon="0.1954460">
        <ele>549.0</ele>
        <time>2019-08-15T15:27:53Z</time>
      </trkpt>
      <trkpt lat="40.8358670" lon="0.1953700">
        <ele>549.0</ele>
        <time>2019-08-15T15:27:54Z</time>
      </trkpt>
      <trkpt lat="40.8358520" lon="0.1952160">
        <ele>548.0</ele>
        <time>2019-08-15T15:27:56Z</time>
      </trkpt>
      <trkpt lat="40.8358590" lon="0.1951530">
        <ele>547.0</ele>
        <time>2019-08-15T15:27:57Z</time>
      </trkpt>
      <trkpt lat="40.8358660" lon="0.1951000">
        <ele>547.0</ele>
        <time>2019-08-15T15:27:58Z</time>
      </trkpt>
      <trkpt lat="40.8358840" lon="0.1949640">
        <ele>546.0</ele>
        <time>2019-08-15T15:28:01Z</time>
      </trkpt>
      <trkpt lat="40.8358910" lon="0.1949230">
        <ele>546.0</ele>
        <time>2019-08-15T15:28:02Z</time>
      </trkpt>
      <trkpt lat="40.8358960" lon="0.1948800">
        <ele>546.0</ele>
        <time>2019-08-15T15:28:03Z</time>
      </trkpt>
      <trkpt lat="40.8358990" lon="0.1948360">
        <ele>546.0</ele>
        <time>2019-08-15T15:28:04Z</time>
      </trkpt>
      <trkpt lat="40.8359030" lon="0.1947900">
        <ele>546.0</ele>
        <time>2019-08-15T15:28:05Z</time>
      </trkpt>
      <trkpt lat="40.8359070" lon="0.1947440">
        <ele>546.0</ele>
        <time>2019-08-15T15:28:06Z</time>
      </trkpt>
      <trkpt lat="40.8359100" lon="0.1946980">
        <ele>546.0</ele>
        <time>2019-08-15T15:28:07Z</time>
      </trkpt>
      <trkpt lat="40.8359080" lon="0.1946540">
        <ele>546.0</ele>
        <time>2019-08-15T15:28:08Z</time>
      </trkpt>
      <trkpt lat="40.8359010" lon="0.1946110">
        <ele>546.0</ele>
        <time>2019-08-15T15:28:09Z</time>
      </trkpt>
      <trkpt lat="40.8358880" lon="0.1945680">
        <ele>546.0</ele>
        <time>2019-08-15T15:28:10Z</time>
      </trkpt>
      <trkpt lat="40.8358670" lon="0.1945260">
        <ele>546.0</ele>
        <time>2019-08-15T15:28:11Z</time>
      </trkpt>
      <trkpt lat="40.8358070" lon="0.1944550">
        <ele>546.0</ele>
        <time>2019-08-15T15:28:13Z</time>
      </trkpt>
      <trkpt lat="40.8357800" lon="0.1944250">
        <ele>546.0</ele>
        <time>2019-08-15T15:28:14Z</time>
      </trkpt>
      <trkpt lat="40.8357630" lon="0.1944040">
        <ele>546.0</ele>
        <time>2019-08-15T15:28:15Z</time>
      </trkpt>
      <trkpt lat="40.8357200" lon="0.1943630">
        <ele>546.0</ele>
        <time>2019-08-15T15:28:18Z</time>
      </trkpt>
      <trkpt lat="40.8356980" lon="0.1943410">
        <ele>546.0</ele>
        <time>2019-08-15T15:28:19Z</time>
      </trkpt>
      <trkpt lat="40.8356730" lon="0.1943130">
        <ele>546.0</ele>
        <time>2019-08-15T15:28:20Z</time>
      </trkpt>
      <trkpt lat="40.8356460" lon="0.1942820">
        <ele>546.0</ele>
        <time>2019-08-15T15:28:21Z</time>
      </trkpt>
      <trkpt lat="40.8355880" lon="0.1942140">
        <ele>545.0</ele>
        <time>2019-08-15T15:28:23Z</time>
      </trkpt>
      <trkpt lat="40.8355590" lon="0.1941790">
        <ele>545.0</ele>
        <time>2019-08-15T15:28:24Z</time>
      </trkpt>
      <trkpt lat="40.8355310" lon="0.1941400">
        <ele>545.0</ele>
        <time>2019-08-15T15:28:25Z</time>
      </trkpt>
      <trkpt lat="40.8355050" lon="0.1940960">
        <ele>545.0</ele>
        <time>2019-08-15T15:28:26Z</time>
      </trkpt>
      <trkpt lat="40.8354830" lon="0.1940460">
        <ele>545.0</ele>
        <time>2019-08-15T15:28:27Z</time>
      </trkpt>
      <trkpt lat="40.8354630" lon="0.1939910">
        <ele>545.0</ele>
        <time>2019-08-15T15:28:28Z</time>
      </trkpt>
      <trkpt lat="40.8354390" lon="0.1939260">
        <ele>544.0</ele>
        <time>2019-08-15T15:28:29Z</time>
      </trkpt>
      <trkpt lat="40.8354060" lon="0.1938530">
        <ele>544.0</ele>
        <time>2019-08-15T15:28:30Z</time>
      </trkpt>
      <trkpt lat="40.8353640" lon="0.1937790">
        <ele>544.0</ele>
        <time>2019-08-15T15:28:31Z</time>
      </trkpt>
      <trkpt lat="40.8353160" lon="0.1937060">
        <ele>543.0</ele>
        <time>2019-08-15T15:28:32Z</time>
      </trkpt>
      <trkpt lat="40.8351770" lon="0.1934860">
        <ele>542.0</ele>
        <time>2019-08-15T15:28:35Z</time>
      </trkpt>
      <trkpt lat="40.8351490" lon="0.1934070">
        <ele>541.0</ele>
        <time>2019-08-15T15:28:36Z</time>
      </trkpt>
      <trkpt lat="40.8351320" lon="0.1933290">
        <ele>541.0</ele>
        <time>2019-08-15T15:28:37Z</time>
      </trkpt>
      <trkpt lat="40.8351250" lon="0.1931710">
        <ele>540.0</ele>
        <time>2019-08-15T15:28:40Z</time>
      </trkpt>
      <trkpt lat="40.8351260" lon="0.1931410">
        <ele>540.0</ele>
        <time>2019-08-15T15:28:41Z</time>
      </trkpt>
      <trkpt lat="40.8351270" lon="0.1931130">
        <ele>539.0</ele>
        <time>2019-08-15T15:28:42Z</time>
      </trkpt>
      <trkpt lat="40.8351250" lon="0.1930860">
        <ele>539.0</ele>
        <time>2019-08-15T15:28:43Z</time>
      </trkpt>
      <trkpt lat="40.8351210" lon="0.1930320">
        <ele>539.0</ele>
        <time>2019-08-15T15:28:45Z</time>
      </trkpt>
      <trkpt lat="40.8351230" lon="0.1930010">
        <ele>539.0</ele>
        <time>2019-08-15T15:28:46Z</time>
      </trkpt>
      <trkpt lat="40.8351220" lon="0.1929660">
        <ele>539.0</ele>
        <time>2019-08-15T15:28:47Z</time>
      </trkpt>
      <trkpt lat="40.8351190" lon="0.1929260">
        <ele>539.0</ele>
        <time>2019-08-15T15:28:48Z</time>
      </trkpt>
      <trkpt lat="40.8351220" lon="0.1928440">
        <ele>539.0</ele>
        <time>2019-08-15T15:28:50Z</time>
      </trkpt>
      <trkpt lat="40.8351260" lon="0.1928030">
        <ele>540.0</ele>
        <time>2019-08-15T15:28:51Z</time>
      </trkpt>
      <trkpt lat="40.8351300" lon="0.1927620">
        <ele>540.0</ele>
        <time>2019-08-15T15:28:52Z</time>
      </trkpt>
      <trkpt lat="40.8351320" lon="0.1927200">
        <ele>540.0</ele>
        <time>2019-08-15T15:28:53Z</time>
      </trkpt>
      <trkpt lat="40.8351370" lon="0.1926810">
        <ele>540.0</ele>
        <time>2019-08-15T15:28:54Z</time>
      </trkpt>
      <trkpt lat="40.8351410" lon="0.1926430">
        <ele>540.0</ele>
        <time>2019-08-15T15:28:55Z</time>
      </trkpt>
      <trkpt lat="40.8351450" lon="0.1926050">
        <ele>540.0</ele>
        <time>2019-08-15T15:28:56Z</time>
      </trkpt>
      <trkpt lat="40.8351500" lon="0.1925660">
        <ele>541.0</ele>
        <time>2019-08-15T15:28:57Z</time>
      </trkpt>
      <trkpt lat="40.8351630" lon="0.1924910">
        <ele>541.0</ele>
        <time>2019-08-15T15:28:59Z</time>
      </trkpt>
      <trkpt lat="40.8351750" lon="0.1924580">
        <ele>541.0</ele>
        <time>2019-08-15T15:29:00Z</time>
      </trkpt>
      <trkpt lat="40.8351860" lon="0.1924240">
        <ele>541.0</ele>
        <time>2019-08-15T15:29:01Z</time>
      </trkpt>
      <trkpt lat="40.8352090" lon="0.1923220">
        <ele>541.0</ele>
        <time>2019-08-15T15:29:04Z</time>
      </trkpt>
      <trkpt lat="40.8352130" lon="0.1922900">
        <ele>541.0</ele>
        <time>2019-08-15T15:29:05Z</time>
      </trkpt>
      <trkpt lat="40.8352200" lon="0.1922620">
        <ele>541.0</ele>
        <time>2019-08-15T15:29:06Z</time>
      </trkpt>
      <trkpt lat="40.8352260" lon="0.1922370">
        <ele>541.0</ele>
        <time>2019-08-15T15:29:07Z</time>
      </trkpt>
      <trkpt lat="40.8352370" lon="0.1921940">
        <ele>542.0</ele>
        <time>2019-08-15T15:29:09Z</time>
      </trkpt>
      <trkpt lat="40.8352380" lon="0.1921730">
        <ele>542.0</ele>
        <time>2019-08-15T15:29:10Z</time>
      </trkpt>
      <trkpt lat="40.8352410" lon="0.1921410">
        <ele>542.0</ele>
        <time>2019-08-15T15:29:11Z</time>
      </trkpt>
      <trkpt lat="40.8352420" lon="0.1921290">
        <ele>542.0</ele>
        <time>2019-08-15T15:29:12Z</time>
      </trkpt>
      <trkpt lat="40.8352480" lon="0.1920830">
        <ele>542.0</ele>
        <time>2019-08-15T15:29:14Z</time>
      </trkpt>
      <trkpt lat="40.8352490" lon="0.1920620">
        <ele>542.0</ele>
        <time>2019-08-15T15:29:15Z</time>
      </trkpt>
      <trkpt lat="40.8352500" lon="0.1920420">
        <ele>542.0</ele>
        <time>2019-08-15T15:29:16Z</time>
      </trkpt>
      <trkpt lat="40.8352530" lon="0.1920210">
        <ele>543.0</ele>
        <time>2019-08-15T15:29:17Z</time>
      </trkpt>
      <trkpt lat="40.8352560" lon="0.1919830">
        <ele>543.0</ele>
        <time>2019-08-15T15:29:19Z</time>
      </trkpt>
      <trkpt lat="40.8352560" lon="0.1919660">
        <ele>543.0</ele>
        <time>2019-08-15T15:29:20Z</time>
      </trkpt>
      <trkpt lat="40.8352530" lon="0.1919470">
        <ele>543.0</ele>
        <time>2019-08-15T15:29:21Z</time>
      </trkpt>
      <trkpt lat="40.8352510" lon="0.1919290">
        <ele>543.0</ele>
        <time>2019-08-15T15:29:22Z</time>
      </trkpt>
      <trkpt lat="40.8352500" lon="0.1918920">
        <ele>544.0</ele>
        <time>2019-08-15T15:29:24Z</time>
      </trkpt>
      <trkpt lat="40.8352500" lon="0.1918740">
        <ele>544.0</ele>
        <time>2019-08-15T15:29:25Z</time>
      </trkpt>
      <trkpt lat="40.8352510" lon="0.1918560">
        <ele>544.0</ele>
        <time>2019-08-15T15:29:26Z</time>
      </trkpt>
      <trkpt lat="40.8352530" lon="0.1918390">
        <ele>544.0</ele>
        <time>2019-08-15T15:29:27Z</time>
      </trkpt>
      <trkpt lat="40.8352500" lon="0.1918070">
        <ele>544.0</ele>
        <time>2019-08-15T15:29:29Z</time>
      </trkpt>
      <trkpt lat="40.8352450" lon="0.1917930">
        <ele>545.0</ele>
        <time>2019-08-15T15:29:30Z</time>
      </trkpt>
      <trkpt lat="40.8352460" lon="0.1917770">
        <ele>545.0</ele>
        <time>2019-08-15T15:29:31Z</time>
      </trkpt>
      <trkpt lat="40.8352500" lon="0.1917630">
        <ele>545.0</ele>
        <time>2019-08-15T15:29:32Z</time>
      </trkpt>
      <trkpt lat="40.8352540" lon="0.1917420">
        <ele>545.0</ele>
        <time>2019-08-15T15:29:34Z</time>
      </trkpt>
      <trkpt lat="40.8352140" lon="0.1917030">
        <ele>546.0</ele>
        <time>2019-08-15T15:51:07Z</time>
      </trkpt>
      <trkpt lat="40.8352040" lon="0.1916860">
        <ele>546.0</ele>
        <time>2019-08-15T15:51:09Z</time>
      </trkpt>
      <trkpt lat="40.8352000" lon="0.1916640">
        <ele>546.0</ele>
        <time>2019-08-15T15:51:10Z</time>
      </trkpt>
      <trkpt lat="40.8352010" lon="0.1916350">
        <ele>546.0</ele>
        <time>2019-08-15T15:51:11Z</time>
      </trkpt>
      <trkpt lat="40.8352010" lon="0.1916010">
        <ele>546.0</ele>
        <time>2019-08-15T15:51:12Z</time>
      </trkpt>
      <trkpt lat="40.8351990" lon="0.1915690">
        <ele>546.0</ele>
        <time>2019-08-15T15:51:13Z</time>
      </trkpt>
      <trkpt lat="40.8351960" lon="0.1915400">
        <ele>546.0</ele>
        <time>2019-08-15T15:51:14Z</time>
      </trkpt>
      <trkpt lat="40.8351940" lon="0.1915070">
        <ele>546.0</ele>
        <time>2019-08-15T15:51:15Z</time>
      </trkpt>
      <trkpt lat="40.8351850" lon="0.1914690">
        <ele>546.0</ele>
        <time>2019-08-15T15:51:16Z</time>
      </trkpt>
      <trkpt lat="40.8351730" lon="0.1914310">
        <ele>546.0</ele>
        <time>2019-08-15T15:51:17Z</time>
      </trkpt>
      <trkpt lat="40.8351580" lon="0.1913880">
        <ele>546.0</ele>
        <time>2019-08-15T15:51:18Z</time>
      </trkpt>
      <trkpt lat="40.8351430" lon="0.1913380">
        <ele>546.0</ele>
        <time>2019-08-15T15:51:19Z</time>
      </trkpt>
      <trkpt lat="40.8351240" lon="0.1912830">
        <ele>546.0</ele>
        <time>2019-08-15T15:51:20Z</time>
      </trkpt>
      <trkpt lat="40.8351010" lon="0.1912230">
        <ele>546.0</ele>
        <time>2019-08-15T15:51:21Z</time>
      </trkpt>
      <trkpt lat="40.8350800" lon="0.1911640">
        <ele>546.0</ele>
        <time>2019-08-15T15:51:22Z</time>
      </trkpt>
      <trkpt lat="40.8350620" lon="0.1911040">
        <ele>546.0</ele>
        <time>2019-08-15T15:51:23Z</time>
      </trkpt>
      <trkpt lat="40.8350440" lon="0.1910460">
        <ele>546.0</ele>
        <time>2019-08-15T15:51:24Z</time>
      </trkpt>
      <trkpt lat="40.8350210" lon="0.1909890">
        <ele>545.0</ele>
        <time>2019-08-15T15:51:25Z</time>
      </trkpt>
      <trkpt lat="40.8350020" lon="0.1909310">
        <ele>545.0</ele>
        <time>2019-08-15T15:51:26Z</time>
      </trkpt>
      <trkpt lat="40.8349840" lon="0.1908740">
        <ele>545.0</ele>
        <time>2019-08-15T15:51:27Z</time>
      </trkpt>
      <trkpt lat="40.8349660" lon="0.1908150">
        <ele>545.0</ele>
        <time>2019-08-15T15:51:28Z</time>
      </trkpt>
      <trkpt lat="40.8349480" lon="0.1907590">
        <ele>545.0</ele>
        <time>2019-08-15T15:51:29Z</time>
      </trkpt>
      <trkpt lat="40.8349280" lon="0.1907030">
        <ele>545.0</ele>
        <time>2019-08-15T15:51:30Z</time>
      </trkpt>
      <trkpt lat="40.8349040" lon="0.1906520">
        <ele>545.0</ele>
        <time>2019-08-15T15:51:31Z</time>
      </trkpt>
      <trkpt lat="40.8348760" lon="0.1906040">
        <ele>545.0</ele>
        <time>2019-08-15T15:51:32Z</time>
      </trkpt>
      <trkpt lat="40.8348410" lon="0.1905610">
        <ele>544.0</ele>
        <time>2019-08-15T15:51:33Z</time>
      </trkpt>
      <trkpt lat="40.8347560" lon="0.1904860">
        <ele>544.0</ele>
        <time>2019-08-15T15:51:35Z</time>
      </trkpt>
      <trkpt lat="40.8347130" lon="0.1904430">
        <ele>544.0</ele>
        <time>2019-08-15T15:51:36Z</time>
      </trkpt>
      <trkpt lat="40.8346770" lon="0.1903890">
        <ele>544.0</ele>
        <time>2019-08-15T15:51:37Z</time>
      </trkpt>
      <trkpt lat="40.8346110" lon="0.1902350">
        <ele>543.0</ele>
        <time>2019-08-15T15:51:40Z</time>
      </trkpt>
      <trkpt lat="40.8345970" lon="0.1901980">
        <ele>543.0</ele>
        <time>2019-08-15T15:51:41Z</time>
      </trkpt>
      <trkpt lat="40.8345860" lon="0.1901640">
        <ele>543.0</ele>
        <time>2019-08-15T15:51:42Z</time>
      </trkpt>
      <trkpt lat="40.8345790" lon="0.1901310">
        <ele>543.0</ele>
        <time>2019-08-15T15:51:43Z</time>
      </trkpt>
      <trkpt lat="40.8345610" lon="0.1900690">
        <ele>543.0</ele>
        <time>2019-08-15T15:51:45Z</time>
      </trkpt>
      <trkpt lat="40.8345540" lon="0.1900400">
        <ele>543.0</ele>
        <time>2019-08-15T15:51:46Z</time>
      </trkpt>
      <trkpt lat="40.8345510" lon="0.1900110">
        <ele>543.0</ele>
        <time>2019-08-15T15:51:47Z</time>
      </trkpt>
      <trkpt lat="40.8345520" lon="0.1899850">
        <ele>543.0</ele>
        <time>2019-08-15T15:51:48Z</time>
      </trkpt>
      <trkpt lat="40.8345560" lon="0.1899370">
        <ele>544.0</ele>
        <time>2019-08-15T15:51:50Z</time>
      </trkpt>
      <trkpt lat="40.8345580" lon="0.1899180">
        <ele>544.0</ele>
        <time>2019-08-15T15:51:51Z</time>
      </trkpt>
      <trkpt lat="40.8345620" lon="0.1898990">
        <ele>544.0</ele>
        <time>2019-08-15T15:51:52Z</time>
      </trkpt>
      <trkpt lat="40.8345670" lon="0.1898790">
        <ele>544.0</ele>
        <time>2019-08-15T15:51:53Z</time>
      </trkpt>
      <trkpt lat="40.8345770" lon="0.1898610">
        <ele>545.0</ele>
        <time>2019-08-15T15:51:54Z</time>
      </trkpt>
      <trkpt lat="40.8345880" lon="0.1898440">
        <ele>545.0</ele>
        <time>2019-08-15T15:51:55Z</time>
      </trkpt>
      <trkpt lat="40.8345970" lon="0.1898280">
        <ele>545.0</ele>
        <time>2019-08-15T15:51:56Z</time>
      </trkpt>
      <trkpt lat="40.8346010" lon="0.1898120">
        <ele>545.0</ele>
        <time>2019-08-15T15:51:57Z</time>
      </trkpt>
      <trkpt lat="40.8346030" lon="0.1897940">
        <ele>545.0</ele>
        <time>2019-08-15T15:51:58Z</time>
      </trkpt>
      <trkpt lat="40.8346010" lon="0.1897760">
        <ele>546.0</ele>
        <time>2019-08-15T15:51:59Z</time>
      </trkpt>
      <trkpt lat="40.8345990" lon="0.1897580">
        <ele>546.0</ele>
        <time>2019-08-15T15:52:00Z</time>
      </trkpt>
      <trkpt lat="40.8345950" lon="0.1897420">
        <ele>546.0</ele>
        <time>2019-08-15T15:52:01Z</time>
      </trkpt>
      <trkpt lat="40.8345920" lon="0.1897320">
        <ele>546.0</ele>
        <time>2019-08-15T15:52:02Z</time>
      </trkpt>
      <trkpt lat="40.8343300" lon="0.1895680">
        <ele>551.0</ele>
        <time>2019-08-15T15:54:37Z</time>
      </trkpt>
      <trkpt lat="40.8343030" lon="0.1895640">
        <ele>551.0</ele>
        <time>2019-08-15T15:54:40Z</time>
      </trkpt>
      <trkpt lat="40.8342900" lon="0.1895590">
        <ele>551.0</ele>
        <time>2019-08-15T15:54:41Z</time>
      </trkpt>
      <trkpt lat="40.8342750" lon="0.1895530">
        <ele>551.0</ele>
        <time>2019-08-15T15:54:42Z</time>
      </trkpt>
      <trkpt lat="40.8342330" lon="0.1895390">
        <ele>551.0</ele>
        <time>2019-08-15T15:54:45Z</time>
      </trkpt>
      <trkpt lat="40.8342170" lon="0.1895340">
        <ele>551.0</ele>
        <time>2019-08-15T15:54:46Z</time>
      </trkpt>
      <trkpt lat="40.8342010" lon="0.1895310">
        <ele>552.0</ele>
        <time>2019-08-15T15:54:47Z</time>
      </trkpt>
      <trkpt lat="40.8341860" lon="0.1895310">
        <ele>552.0</ele>
        <time>2019-08-15T15:54:48Z</time>
      </trkpt>
      <trkpt lat="40.8341570" lon="0.1895290">
        <ele>552.0</ele>
        <time>2019-08-15T15:54:50Z</time>
      </trkpt>
      <trkpt lat="40.8341430" lon="0.1895290">
        <ele>552.0</ele>
        <time>2019-08-15T15:54:51Z</time>
      </trkpt>
      <trkpt lat="40.8341320" lon="0.1895280">
        <ele>552.0</ele>
        <time>2019-08-15T15:54:52Z</time>
      </trkpt>
      <trkpt lat="40.8341200" lon="0.1895250">
        <ele>552.0</ele>
        <time>2019-08-15T15:54:53Z</time>
      </trkpt>
      <trkpt lat="40.8340970" lon="0.1895200">
        <ele>553.0</ele>
        <time>2019-08-15T15:54:55Z</time>
      </trkpt>
      <trkpt lat="40.8340840" lon="0.1895200">
        <ele>553.0</ele>
        <time>2019-08-15T15:54:56Z</time>
      </trkpt>
      <trkpt lat="40.8340710" lon="0.1895210">
        <ele>553.0</ele>
        <time>2019-08-15T15:54:57Z</time>
      </trkpt>
      <trkpt lat="40.8340590" lon="0.1895230">
        <ele>553.0</ele>
        <time>2019-08-15T15:54:58Z</time>
      </trkpt>
      <trkpt lat="40.8340360" lon="0.1895220">
        <ele>554.0</ele>
        <time>2019-08-15T15:55:00Z</time>
      </trkpt>
      <trkpt lat="40.8340230" lon="0.1895230">
        <ele>554.0</ele>
        <time>2019-08-15T15:55:01Z</time>
      </trkpt>
      <trkpt lat="40.8340090" lon="0.1895260">
        <ele>554.0</ele>
        <time>2019-08-15T15:55:02Z</time>
      </trkpt>
      <trkpt lat="40.8340000" lon="0.1895270">
        <ele>554.0</ele>
        <time>2019-08-15T15:55:03Z</time>
      </trkpt>
      <trkpt lat="40.8339790" lon="0.1895300">
        <ele>555.0</ele>
        <time>2019-08-15T15:55:05Z</time>
      </trkpt>
      <trkpt lat="40.8339680" lon="0.1895320">
        <ele>555.0</ele>
        <time>2019-08-15T15:55:06Z</time>
      </trkpt>
      <trkpt lat="40.8339590" lon="0.1895350">
        <ele>555.0</ele>
        <time>2019-08-15T15:55:07Z</time>
      </trkpt>
      <trkpt lat="40.8339500" lon="0.1895360">
        <ele>555.0</ele>
        <time>2019-08-15T15:55:08Z</time>
      </trkpt>
      <trkpt lat="40.8339230" lon="0.1895360">
        <ele>555.0</ele>
        <time>2019-08-15T15:55:10Z</time>
      </trkpt>
      <trkpt lat="40.8339100" lon="0.1895330">
        <ele>556.0</ele>
        <time>2019-08-15T15:55:11Z</time>
      </trkpt>
      <trkpt lat="40.8338970" lon="0.1895280">
        <ele>556.0</ele>
        <time>2019-08-15T15:55:12Z</time>
      </trkpt>
      <trkpt lat="40.8338860" lon="0.1895240">
        <ele>556.0</ele>
        <time>2019-08-15T15:55:13Z</time>
      </trkpt>
      <trkpt lat="40.8338600" lon="0.1895200">
        <ele>556.0</ele>
        <time>2019-08-15T15:55:15Z</time>
      </trkpt>
      <trkpt lat="40.8338490" lon="0.1895180">
        <ele>556.0</ele>
        <time>2019-08-15T15:55:16Z</time>
      </trkpt>
      <trkpt lat="40.8338350" lon="0.1895190">
        <ele>556.0</ele>
        <time>2019-08-15T15:55:17Z</time>
      </trkpt>
      <trkpt lat="40.8338230" lon="0.1895190">
        <ele>556.0</ele>
        <time>2019-08-15T15:55:18Z</time>
      </trkpt>
      <trkpt lat="40.8338000" lon="0.1895120">
        <ele>557.0</ele>
        <time>2019-08-15T15:55:20Z</time>
      </trkpt>
      <trkpt lat="40.8337880" lon="0.1895090">
        <ele>557.0</ele>
        <time>2019-08-15T15:55:21Z</time>
      </trkpt>
      <trkpt lat="40.8337740" lon="0.1895080">
        <ele>557.0</ele>
        <time>2019-08-15T15:55:22Z</time>
      </trkpt>
      <trkpt lat="40.8337610" lon="0.1895050">
        <ele>557.0</ele>
        <time>2019-08-15T15:55:23Z</time>
      </trkpt>
      <trkpt lat="40.8337330" lon="0.1895060">
        <ele>558.0</ele>
        <time>2019-08-15T15:55:25Z</time>
      </trkpt>
      <trkpt lat="40.8337210" lon="0.1895050">
        <ele>558.0</ele>
        <time>2019-08-15T15:55:26Z</time>
      </trkpt>
      <trkpt lat="40.8337100" lon="0.1895010">
        <ele>558.0</ele>
        <time>2019-08-15T15:55:27Z</time>
      </trkpt>
      <trkpt lat="40.8336980" lon="0.1894960">
        <ele>558.0</ele>
        <time>2019-08-15T15:55:28Z</time>
      </trkpt>
      <trkpt lat="40.8336750" lon="0.1894920">
        <ele>559.0</ele>
        <time>2019-08-15T15:55:30Z</time>
      </trkpt>
      <trkpt lat="40.8336630" lon="0.1894880">
        <ele>559.0</ele>
        <time>2019-08-15T15:55:31Z</time>
      </trkpt>
      <trkpt lat="40.8336510" lon="0.1894840">
        <ele>559.0</ele>
        <time>2019-08-15T15:55:32Z</time>
      </trkpt>
      <trkpt lat="40.8336410" lon="0.1894830">
        <ele>559.0</ele>
        <time>2019-08-15T15:55:33Z</time>
      </trkpt>
      <trkpt lat="40.8336220" lon="0.1894770">
        <ele>559.0</ele>
        <time>2019-08-15T15:55:35Z</time>
      </trkpt>
      <trkpt lat="40.8336090" lon="0.1894720">
        <ele>559.0</ele>
        <time>2019-08-15T15:55:36Z</time>
      </trkpt>
      <trkpt lat="40.8335930" lon="0.1894650">
        <ele>559.0</ele>
        <time>2019-08-15T15:55:37Z</time>
      </trkpt>
      <trkpt lat="40.8335780" lon="0.1894580">
        <ele>560.0</ele>
        <time>2019-08-15T15:55:38Z</time>
      </trkpt>
      <trkpt lat="40.8335540" lon="0.1894490">
        <ele>560.0</ele>
        <time>2019-08-15T15:55:40Z</time>
      </trkpt>
      <trkpt lat="40.8335410" lon="0.1894460">
        <ele>560.0</ele>
        <time>2019-08-15T15:55:41Z</time>
      </trkpt>
      <trkpt lat="40.8335300" lon="0.1894420">
        <ele>560.0</ele>
        <time>2019-08-15T15:55:42Z</time>
      </trkpt>
      <trkpt lat="40.8335190" lon="0.1894370">
        <ele>560.0</ele>
        <time>2019-08-15T15:55:43Z</time>
      </trkpt>
      <trkpt lat="40.8334920" lon="0.1894330">
        <ele>560.0</ele>
        <time>2019-08-15T15:55:45Z</time>
      </trkpt>
      <trkpt lat="40.8334770" lon="0.1894340">
        <ele>560.0</ele>
        <time>2019-08-15T15:55:46Z</time>
      </trkpt>
      <trkpt lat="40.8334620" lon="0.1894320">
        <ele>560.0</ele>
        <time>2019-08-15T15:55:47Z</time>
      </trkpt>
      <trkpt lat="40.8334460" lon="0.1894290">
        <ele>560.0</ele>
        <time>2019-08-15T15:55:48Z</time>
      </trkpt>
      <trkpt lat="40.8334200" lon="0.1894210">
        <ele>561.0</ele>
        <time>2019-08-15T15:55:50Z</time>
      </trkpt>
      <trkpt lat="40.8334100" lon="0.1894130">
        <ele>561.0</ele>
        <time>2019-08-15T15:55:51Z</time>
      </trkpt>
      <trkpt lat="40.8333980" lon="0.1894030">
        <ele>561.0</ele>
        <time>2019-08-15T15:55:52Z</time>
      </trkpt>
      <trkpt lat="40.8333840" lon="0.1893950">
        <ele>561.0</ele>
        <time>2019-08-15T15:55:53Z</time>
      </trkpt>
      <trkpt lat="40.8333600" lon="0.1893830">
        <ele>561.0</ele>
        <time>2019-08-15T15:55:55Z</time>
      </trkpt>
      <trkpt lat="40.8333490" lon="0.1893750">
        <ele>561.0</ele>
        <time>2019-08-15T15:55:56Z</time>
      </trkpt>
      <trkpt lat="40.8333420" lon="0.1893660">
        <ele>561.0</ele>
        <time>2019-08-15T15:55:57Z</time>
      </trkpt>
      <trkpt lat="40.8333310" lon="0.1893550">
        <ele>562.0</ele>
        <time>2019-08-15T15:55:58Z</time>
      </trkpt>
      <trkpt lat="40.8333040" lon="0.1893400">
        <ele>562.0</ele>
        <time>2019-08-15T15:56:00Z</time>
      </trkpt>
      <trkpt lat="40.8332900" lon="0.1893350">
        <ele>562.0</ele>
        <time>2019-08-15T15:56:01Z</time>
      </trkpt>
      <trkpt lat="40.8332780" lon="0.1893280">
        <ele>562.0</ele>
        <time>2019-08-15T15:56:02Z</time>
      </trkpt>
      <trkpt lat="40.8332660" lon="0.1893210">
        <ele>562.0</ele>
        <time>2019-08-15T15:56:03Z</time>
      </trkpt>
      <trkpt lat="40.8332470" lon="0.1893110">
        <ele>562.0</ele>
        <time>2019-08-15T15:56:05Z</time>
      </trkpt>
      <trkpt lat="40.8332360" lon="0.1893060">
        <ele>562.0</ele>
        <time>2019-08-15T15:56:06Z</time>
      </trkpt>
      <trkpt lat="40.8332250" lon="0.1893000">
        <ele>562.0</ele>
        <time>2019-08-15T15:56:07Z</time>
      </trkpt>
      <trkpt lat="40.8332150" lon="0.1892930">
        <ele>563.0</ele>
        <time>2019-08-15T15:56:08Z</time>
      </trkpt>
      <trkpt lat="40.8331900" lon="0.1892790">
        <ele>563.0</ele>
        <time>2019-08-15T15:56:10Z</time>
      </trkpt>
      <trkpt lat="40.8331760" lon="0.1892730">
        <ele>563.0</ele>
        <time>2019-08-15T15:56:11Z</time>
      </trkpt>
      <trkpt lat="40.8331640" lon="0.1892650">
        <ele>563.0</ele>
        <time>2019-08-15T15:56:12Z</time>
      </trkpt>
      <trkpt lat="40.8331500" lon="0.1892560">
        <ele>563.0</ele>
        <time>2019-08-15T15:56:13Z</time>
      </trkpt>
      <trkpt lat="40.8331260" lon="0.1892380">
        <ele>563.0</ele>
        <time>2019-08-15T15:56:15Z</time>
      </trkpt>
      <trkpt lat="40.8331150" lon="0.1892280">
        <ele>563.0</ele>
        <time>2019-08-15T15:56:16Z</time>
      </trkpt>
      <trkpt lat="40.8331020" lon="0.1892190">
        <ele>563.0</ele>
        <time>2019-08-15T15:56:17Z</time>
      </trkpt>
      <trkpt lat="40.8330900" lon="0.1892090">
        <ele>563.0</ele>
        <time>2019-08-15T15:56:18Z</time>
      </trkpt>
      <trkpt lat="40.8330600" lon="0.1891950">
        <ele>563.0</ele>
        <time>2019-08-15T15:56:20Z</time>
      </trkpt>
      <trkpt lat="40.8330440" lon="0.1891890">
        <ele>563.0</ele>
        <time>2019-08-15T15:56:21Z</time>
      </trkpt>
      <trkpt lat="40.8330280" lon="0.1891820">
        <ele>563.0</ele>
        <time>2019-08-15T15:56:22Z</time>
      </trkpt>
      <trkpt lat="40.8330170" lon="0.1891700">
        <ele>564.0</ele>
        <time>2019-08-15T15:56:23Z</time>
      </trkpt>
      <trkpt lat="40.8329900" lon="0.1891440">
        <ele>564.0</ele>
        <time>2019-08-15T15:56:25Z</time>
      </trkpt>
      <trkpt lat="40.8329710" lon="0.1891330">
        <ele>564.0</ele>
        <time>2019-08-15T15:56:26Z</time>
      </trkpt>
      <trkpt lat="40.8329530" lon="0.1891210">
        <ele>564.0</ele>
        <time>2019-08-15T15:56:27Z</time>
      </trkpt>
      <trkpt lat="40.8329380" lon="0.1891100">
        <ele>564.0</ele>
        <time>2019-08-15T15:56:28Z</time>
      </trkpt>
      <trkpt lat="40.8329080" lon="0.1890900">
        <ele>564.0</ele>
        <time>2019-08-15T15:56:30Z</time>
      </trkpt>
      <trkpt lat="40.8328920" lon="0.1890820">
        <ele>564.0</ele>
        <time>2019-08-15T15:56:31Z</time>
      </trkpt>
      <trkpt lat="40.8328760" lon="0.1890740">
        <ele>564.0</ele>
        <time>2019-08-15T15:56:32Z</time>
      </trkpt>
      <trkpt lat="40.8328610" lon="0.1890620">
        <ele>564.0</ele>
        <time>2019-08-15T15:56:33Z</time>
      </trkpt>
      <trkpt lat="40.8328290" lon="0.1890360">
        <ele>565.0</ele>
        <time>2019-08-15T15:56:35Z</time>
      </trkpt>
      <trkpt lat="40.8328140" lon="0.1890240">
        <ele>565.0</ele>
        <time>2019-08-15T15:56:36Z</time>
      </trkpt>
      <trkpt lat="40.8327970" lon="0.1890100">
        <ele>565.0</ele>
        <time>2019-08-15T15:56:37Z</time>
      </trkpt>
      <trkpt lat="40.8327830" lon="0.1889970">
        <ele>565.0</ele>
        <time>2019-08-15T15:56:38Z</time>
      </trkpt>
      <trkpt lat="40.8327550" lon="0.1889660">
        <ele>565.0</ele>
        <time>2019-08-15T15:56:40Z</time>
      </trkpt>
      <trkpt lat="40.8327420" lon="0.1889510">
        <ele>565.0</ele>
        <time>2019-08-15T15:56:41Z</time>
      </trkpt>
      <trkpt lat="40.8327300" lon="0.1889350">
        <ele>565.0</ele>
        <time>2019-08-15T15:56:42Z</time>
      </trkpt>
      <trkpt lat="40.8327170" lon="0.1889150">
        <ele>565.0</ele>
        <time>2019-08-15T15:56:43Z</time>
      </trkpt>
      <trkpt lat="40.8326950" lon="0.1888700">
        <ele>565.0</ele>
        <time>2019-08-15T15:56:45Z</time>
      </trkpt>
      <trkpt lat="40.8326810" lon="0.1888440">
        <ele>565.0</ele>
        <time>2019-08-15T15:56:46Z</time>
      </trkpt>
      <trkpt lat="40.8326680" lon="0.1888180">
        <ele>566.0</ele>
        <time>2019-08-15T15:56:47Z</time>
      </trkpt>
      <trkpt lat="40.8326580" lon="0.1887910">
        <ele>566.0</ele>
        <time>2019-08-15T15:56:48Z</time>
      </trkpt>
      <trkpt lat="40.8326330" lon="0.1887420">
        <ele>566.0</ele>
        <time>2019-08-15T15:56:50Z</time>
      </trkpt>
      <trkpt lat="40.8326190" lon="0.1887190">
        <ele>566.0</ele>
        <time>2019-08-15T15:56:51Z</time>
      </trkpt>
      <trkpt lat="40.8326080" lon="0.1886960">
        <ele>566.0</ele>
        <time>2019-08-15T15:56:52Z</time>
      </trkpt>
      <trkpt lat="40.8326020" lon="0.1886700">
        <ele>566.0</ele>
        <time>2019-08-15T15:56:53Z</time>
      </trkpt>
      <trkpt lat="40.8325890" lon="0.1886190">
        <ele>566.0</ele>
        <time>2019-08-15T15:56:55Z</time>
      </trkpt>
      <trkpt lat="40.8325820" lon="0.1885950">
        <ele>566.0</ele>
        <time>2019-08-15T15:56:56Z</time>
      </trkpt>
      <trkpt lat="40.8325760" lon="0.1885700">
        <ele>566.0</ele>
        <time>2019-08-15T15:56:57Z</time>
      </trkpt>
      <trkpt lat="40.8325720" lon="0.1885460">
        <ele>566.0</ele>
        <time>2019-08-15T15:56:58Z</time>
      </trkpt>
      <trkpt lat="40.8325670" lon="0.1885220">
        <ele>566.0</ele>
        <time>2019-08-15T15:56:59Z</time>
      </trkpt>
      <trkpt lat="40.8325640" lon="0.1884970">
        <ele>566.0</ele>
        <time>2019-08-15T15:57:00Z</time>
      </trkpt>
      <trkpt lat="40.8325640" lon="0.1884720">
        <ele>567.0</ele>
        <time>2019-08-15T15:57:01Z</time>
      </trkpt>
      <trkpt lat="40.8325610" lon="0.1884460">
        <ele>567.0</ele>
        <time>2019-08-15T15:57:02Z</time>
      </trkpt>
      <trkpt lat="40.8325590" lon="0.1884220">
        <ele>567.0</ele>
        <time>2019-08-15T15:57:03Z</time>
      </trkpt>
      <trkpt lat="40.8325570" lon="0.1883960">
        <ele>567.0</ele>
        <time>2019-08-15T15:57:04Z</time>
      </trkpt>
      <trkpt lat="40.8325530" lon="0.1883720">
        <ele>567.0</ele>
        <time>2019-08-15T15:57:05Z</time>
      </trkpt>
      <trkpt lat="40.8325510" lon="0.1883470">
        <ele>567.0</ele>
        <time>2019-08-15T15:57:06Z</time>
      </trkpt>
      <trkpt lat="40.8325480" lon="0.1883250">
        <ele>567.0</ele>
        <time>2019-08-15T15:57:07Z</time>
      </trkpt>
      <trkpt lat="40.8325400" lon="0.1882830">
        <ele>568.0</ele>
        <time>2019-08-15T15:57:09Z</time>
      </trkpt>
      <trkpt lat="40.8325370" lon="0.1882620">
        <ele>568.0</ele>
        <time>2019-08-15T15:57:10Z</time>
      </trkpt>
      <trkpt lat="40.8325330" lon="0.1882410">
        <ele>568.0</ele>
        <time>2019-08-15T15:57:11Z</time>
      </trkpt>
      <trkpt lat="40.8325230" lon="0.1881740">
        <ele>568.0</ele>
        <time>2019-08-15T15:57:14Z</time>
      </trkpt>
      <trkpt lat="40.8325200" lon="0.1881540">
        <ele>568.0</ele>
        <time>2019-08-15T15:57:15Z</time>
      </trkpt>
      <trkpt lat="40.8325150" lon="0.1881340">
        <ele>569.0</ele>
        <time>2019-08-15T15:57:16Z</time>
      </trkpt>
      <trkpt lat="40.8324990" lon="0.1880750">
        <ele>569.0</ele>
        <time>2019-08-15T15:57:19Z</time>
      </trkpt>
      <trkpt lat="40.8324910" lon="0.1880570">
        <ele>569.0</ele>
        <time>2019-08-15T15:57:20Z</time>
      </trkpt>
      <trkpt lat="40.8324840" lon="0.1880400">
        <ele>569.0</ele>
        <time>2019-08-15T15:57:21Z</time>
      </trkpt>
      <trkpt lat="40.8324790" lon="0.1880190">
        <ele>569.0</ele>
        <time>2019-08-15T15:57:22Z</time>
      </trkpt>
      <trkpt lat="40.8324680" lon="0.1879730">
        <ele>569.0</ele>
        <time>2019-08-15T15:57:24Z</time>
      </trkpt>
      <trkpt lat="40.8324640" lon="0.1879490">
        <ele>569.0</ele>
        <time>2019-08-15T15:57:25Z</time>
      </trkpt>
      <trkpt lat="40.8324570" lon="0.1879240">
        <ele>570.0</ele>
        <time>2019-08-15T15:57:26Z</time>
      </trkpt>
      <trkpt lat="40.8324510" lon="0.1879000">
        <ele>570.0</ele>
        <time>2019-08-15T15:57:27Z</time>
      </trkpt>
      <trkpt lat="40.8324440" lon="0.1878550">
        <ele>570.0</ele>
        <time>2019-08-15T15:57:29Z</time>
      </trkpt>
      <trkpt lat="40.8324410" lon="0.1878310">
        <ele>570.0</ele>
        <time>2019-08-15T15:57:30Z</time>
      </trkpt>
      <trkpt lat="40.8324400" lon="0.1878070">
        <ele>570.0</ele>
        <time>2019-08-15T15:57:31Z</time>
      </trkpt>
      <trkpt lat="40.8324390" lon="0.1877820">
        <ele>570.0</ele>
        <time>2019-08-15T15:57:32Z</time>
      </trkpt>
      <trkpt lat="40.8324370" lon="0.1877350">
        <ele>570.0</ele>
        <time>2019-08-15T15:57:34Z</time>
      </trkpt>
      <trkpt lat="40.8324370" lon="0.1877110">
        <ele>570.0</ele>
        <time>2019-08-15T15:57:35Z</time>
      </trkpt>
      <trkpt lat="40.8324390" lon="0.1876840">
        <ele>570.0</ele>
        <time>2019-08-15T15:57:36Z</time>
      </trkpt>
      <trkpt lat="40.8324380" lon="0.1876550">
        <ele>571.0</ele>
        <time>2019-08-15T15:57:37Z</time>
      </trkpt>
      <trkpt lat="40.8324390" lon="0.1875930">
        <ele>571.0</ele>
        <time>2019-08-15T15:57:39Z</time>
      </trkpt>
      <trkpt lat="40.8324390" lon="0.1875640">
        <ele>571.0</ele>
        <time>2019-08-15T15:57:40Z</time>
      </trkpt>
      <trkpt lat="40.8324390" lon="0.1875370">
        <ele>571.0</ele>
        <time>2019-08-15T15:57:41Z</time>
      </trkpt>
      <trkpt lat="40.8324410" lon="0.1875120">
        <ele>571.0</ele>
        <time>2019-08-15T15:57:42Z</time>
      </trkpt>
      <trkpt lat="40.8324420" lon="0.1874660">
        <ele>572.0</ele>
        <time>2019-08-15T15:57:44Z</time>
      </trkpt>
      <trkpt lat="40.8324390" lon="0.1874480">
        <ele>572.0</ele>
        <time>2019-08-15T15:57:45Z</time>
      </trkpt>
      <trkpt lat="40.8324350" lon="0.1874290">
        <ele>572.0</ele>
        <time>2019-08-15T15:57:46Z</time>
      </trkpt>
      <trkpt lat="40.8324260" lon="0.1874110">
        <ele>572.0</ele>
        <time>2019-08-15T15:57:47Z</time>
      </trkpt>
      <trkpt lat="40.8324040" lon="0.1873840">
        <ele>572.0</ele>
        <time>2019-08-15T15:57:49Z</time>
      </trkpt>
      <trkpt lat="40.8323880" lon="0.1873690">
        <ele>572.0</ele>
        <time>2019-08-15T15:57:50Z</time>
      </trkpt>
      <trkpt lat="40.8323710" lon="0.1873500">
        <ele>573.0</ele>
        <time>2019-08-15T15:57:51Z</time>
      </trkpt>
      <trkpt lat="40.8323540" lon="0.1873330">
        <ele>573.0</ele>
        <time>2019-08-15T15:57:52Z</time>
      </trkpt>
      <trkpt lat="40.8323160" lon="0.1873020">
        <ele>573.0</ele>
        <time>2019-08-15T15:57:54Z</time>
      </trkpt>
      <trkpt lat="40.8322950" lon="0.1872840">
        <ele>573.0</ele>
        <time>2019-08-15T15:57:55Z</time>
      </trkpt>
      <trkpt lat="40.8322720" lon="0.1872670">
        <ele>573.0</ele>
        <time>2019-08-15T15:57:56Z</time>
      </trkpt>
      <trkpt lat="40.8322480" lon="0.1872470">
        <ele>573.0</ele>
        <time>2019-08-15T15:57:57Z</time>
      </trkpt>
      <trkpt lat="40.8322240" lon="0.1872240">
        <ele>573.0</ele>
        <time>2019-08-15T15:57:58Z</time>
      </trkpt>
      <trkpt lat="40.8322000" lon="0.1872000">
        <ele>573.0</ele>
        <time>2019-08-15T15:57:59Z</time>
      </trkpt>
      <trkpt lat="40.8321780" lon="0.1871740">
        <ele>573.0</ele>
        <time>2019-08-15T15:58:00Z</time>
      </trkpt>
      <trkpt lat="40.8321580" lon="0.1871480">
        <ele>573.0</ele>
        <time>2019-08-15T15:58:01Z</time>
      </trkpt>
      <trkpt lat="40.8321390" lon="0.1871190">
        <ele>573.0</ele>
        <time>2019-08-15T15:58:02Z</time>
      </trkpt>
      <trkpt lat="40.8321220" lon="0.1870880">
        <ele>573.0</ele>
        <time>2019-08-15T15:58:03Z</time>
      </trkpt>
      <trkpt lat="40.8321040" lon="0.1870560">
        <ele>573.0</ele>
        <time>2019-08-15T15:58:04Z</time>
      </trkpt>
      <trkpt lat="40.8320830" lon="0.1870220">
        <ele>573.0</ele>
        <time>2019-08-15T15:58:05Z</time>
      </trkpt>
      <trkpt lat="40.8320490" lon="0.1869440">
        <ele>572.0</ele>
        <time>2019-08-15T15:58:07Z</time>
      </trkpt>
      <trkpt lat="40.8320340" lon="0.1869050">
        <ele>572.0</ele>
        <time>2019-08-15T15:58:08Z</time>
      </trkpt>
      <trkpt lat="40.8320180" lon="0.1868670">
        <ele>572.0</ele>
        <time>2019-08-15T15:58:09Z</time>
      </trkpt>
      <trkpt lat="40.8319760" lon="0.1867640">
        <ele>572.0</ele>
        <time>2019-08-15T15:58:12Z</time>
      </trkpt>
      <trkpt lat="40.8319640" lon="0.1867320">
        <ele>572.0</ele>
        <time>2019-08-15T15:58:13Z</time>
      </trkpt>
      <trkpt lat="40.8319510" lon="0.1867030">
        <ele>572.0</ele>
        <time>2019-08-15T15:58:14Z</time>
      </trkpt>
      <trkpt lat="40.8319390" lon="0.1866750">
        <ele>572.0</ele>
        <time>2019-08-15T15:58:15Z</time>
      </trkpt>
      <trkpt lat="40.8319140" lon="0.1866170">
        <ele>572.0</ele>
        <time>2019-08-15T15:58:17Z</time>
      </trkpt>
      <trkpt lat="40.8318980" lon="0.1865860">
        <ele>572.0</ele>
        <time>2019-08-15T15:58:18Z</time>
      </trkpt>
      <trkpt lat="40.8318810" lon="0.1865540">
        <ele>572.0</ele>
        <time>2019-08-15T15:58:19Z</time>
      </trkpt>
      <trkpt lat="40.8318580" lon="0.1865190">
        <ele>572.0</ele>
        <time>2019-08-15T15:58:20Z</time>
      </trkpt>
      <trkpt lat="40.8318000" lon="0.1864260">
        <ele>573.0</ele>
        <time>2019-08-15T15:58:22Z</time>
      </trkpt>
      <trkpt lat="40.8317650" lon="0.1863700">
        <ele>573.0</ele>
        <time>2019-08-15T15:58:23Z</time>
      </trkpt>
      <trkpt lat="40.8317300" lon="0.1863040">
        <ele>573.0</ele>
        <time>2019-08-15T15:58:24Z</time>
      </trkpt>
      <trkpt lat="40.8316600" lon="0.1860700">
        <ele>572.0</ele>
        <time>2019-08-15T15:58:27Z</time>
      </trkpt>
      <trkpt lat="40.8316470" lon="0.1859910">
        <ele>572.0</ele>
        <time>2019-08-15T15:58:28Z</time>
      </trkpt>
      <trkpt lat="40.8316380" lon="0.1859110">
        <ele>572.0</ele>
        <time>2019-08-15T15:58:29Z</time>
      </trkpt>
      <trkpt lat="40.8316320" lon="0.1858360">
        <ele>572.0</ele>
        <time>2019-08-15T15:58:30Z</time>
      </trkpt>
      <trkpt lat="40.8316270" lon="0.1856950">
        <ele>571.0</ele>
        <time>2019-08-15T15:58:32Z</time>
      </trkpt>
      <trkpt lat="40.8316260" lon="0.1856270">
        <ele>571.0</ele>
        <time>2019-08-15T15:58:33Z</time>
      </trkpt>
      <trkpt lat="40.8316230" lon="0.1855660">
        <ele>570.0</ele>
        <time>2019-08-15T15:58:34Z</time>
      </trkpt>
      <trkpt lat="40.8316190" lon="0.1855140">
        <ele>570.0</ele>
        <time>2019-08-15T15:58:35Z</time>
      </trkpt>
      <trkpt lat="40.8316190" lon="0.1854320">
        <ele>569.0</ele>
        <time>2019-08-15T15:58:37Z</time>
      </trkpt>
      <trkpt lat="40.8316250" lon="0.1854000">
        <ele>569.0</ele>
        <time>2019-08-15T15:58:38Z</time>
      </trkpt>
      <trkpt lat="40.8316310" lon="0.1853720">
        <ele>568.0</ele>
        <time>2019-08-15T15:58:39Z</time>
      </trkpt>
      <trkpt lat="40.8316410" lon="0.1853450">
        <ele>567.0</ele>
        <time>2019-08-15T15:58:40Z</time>
      </trkpt>
      <trkpt lat="40.8316500" lon="0.1853180">
        <ele>567.0</ele>
        <time>2019-08-15T15:58:41Z</time>
      </trkpt>
      <trkpt lat="40.8316600" lon="0.1852880">
        <ele>566.0</ele>
        <time>2019-08-15T15:58:42Z</time>
      </trkpt>
      <trkpt lat="40.8316760" lon="0.1852560">
        <ele>566.0</ele>
        <time>2019-08-15T15:58:43Z</time>
      </trkpt>
      <trkpt lat="40.8316960" lon="0.1852260">
        <ele>565.0</ele>
        <time>2019-08-15T15:58:44Z</time>
      </trkpt>
      <trkpt lat="40.8317180" lon="0.1851990">
        <ele>565.0</ele>
        <time>2019-08-15T15:58:45Z</time>
      </trkpt>
      <trkpt lat="40.8317440" lon="0.1851760">
        <ele>564.0</ele>
        <time>2019-08-15T15:58:46Z</time>
      </trkpt>
      <trkpt lat="40.8317720" lon="0.1851620">
        <ele>564.0</ele>
        <time>2019-08-15T15:58:47Z</time>
      </trkpt>
      <trkpt lat="40.8318010" lon="0.1851530">
        <ele>563.0</ele>
        <time>2019-08-15T15:58:48Z</time>
      </trkpt>
      <trkpt lat="40.8318300" lon="0.1851450">
        <ele>563.0</ele>
        <time>2019-08-15T15:58:49Z</time>
      </trkpt>
      <trkpt lat="40.8318550" lon="0.1851380">
        <ele>562.0</ele>
        <time>2019-08-15T15:58:50Z</time>
      </trkpt>
      <trkpt lat="40.8318750" lon="0.1851330">
        <ele>562.0</ele>
        <time>2019-08-15T15:58:51Z</time>
      </trkpt>
      <trkpt lat="40.8318890" lon="0.1851280">
        <ele>561.0</ele>
        <time>2019-08-15T15:58:52Z</time>
      </trkpt>
      <trkpt lat="40.8318940" lon="0.1851260">
        <ele>561.0</ele>
        <time>2019-08-15T15:58:53Z</time>
      </trkpt>
      <trkpt lat="40.8319300" lon="0.1850720">
        <ele>558.0</ele>
        <time>2019-08-15T15:59:16Z</time>
      </trkpt>
      <trkpt lat="40.8319550" lon="0.1850390">
        <ele>558.0</ele>
        <time>2019-08-15T15:59:18Z</time>
      </trkpt>
      <trkpt lat="40.8320190" lon="0.1849430">
        <ele>558.0</ele>
        <time>2019-08-15T15:59:20Z</time>
      </trkpt>
      <trkpt lat="40.8320480" lon="0.1848790">
        <ele>558.0</ele>
        <time>2019-08-15T15:59:21Z</time>
      </trkpt>
      <trkpt lat="40.8320770" lon="0.1848150">
        <ele>558.0</ele>
        <time>2019-08-15T15:59:22Z</time>
      </trkpt>
      <trkpt lat="40.8321080" lon="0.1847500">
        <ele>558.0</ele>
        <time>2019-08-15T15:59:23Z</time>
      </trkpt>
      <trkpt lat="40.8321320" lon="0.1846930">
        <ele>557.0</ele>
        <time>2019-08-15T15:59:24Z</time>
      </trkpt>
      <trkpt lat="40.8321510" lon="0.1846470">
        <ele>557.0</ele>
        <time>2019-08-15T15:59:25Z</time>
      </trkpt>
      <trkpt lat="40.8321660" lon="0.1846110">
        <ele>557.0</ele>
        <time>2019-08-15T15:59:26Z</time>
      </trkpt>
      <trkpt lat="40.8321700" lon="0.1845890">
        <ele>557.0</ele>
        <time>2019-08-15T15:59:27Z</time>
      </trkpt>
      <trkpt lat="40.8321720" lon="0.1845770">
        <ele>556.0</ele>
        <time>2019-08-15T15:59:28Z</time>
      </trkpt>
      <trkpt lat="40.8321720" lon="0.1845770">
        <ele>556.0</ele>
        <time>2019-08-15T15:59:29Z</time>
      </trkpt>
      <trkpt lat="40.8321510" lon="0.1845020">
        <ele>554.0</ele>
        <time>2019-08-15T15:59:34Z</time>
      </trkpt>
      <trkpt lat="40.8321470" lon="0.1844710">
        <ele>554.0</ele>
        <time>2019-08-15T15:59:36Z</time>
      </trkpt>
      <trkpt lat="40.8321240" lon="0.1843810">
        <ele>554.0</ele>
        <time>2019-08-15T15:59:38Z</time>
      </trkpt>
      <trkpt lat="40.8321080" lon="0.1843270">
        <ele>553.0</ele>
        <time>2019-08-15T15:59:39Z</time>
      </trkpt>
      <trkpt lat="40.8320910" lon="0.1842720">
        <ele>553.0</ele>
        <time>2019-08-15T15:59:40Z</time>
      </trkpt>
      <trkpt lat="40.8320570" lon="0.1841280">
        <ele>553.0</ele>
        <time>2019-08-15T15:59:43Z</time>
      </trkpt>
      <trkpt lat="40.8320460" lon="0.1840890">
        <ele>553.0</ele>
        <time>2019-08-15T15:59:44Z</time>
      </trkpt>
      <trkpt lat="40.8320330" lon="0.1840520">
        <ele>552.0</ele>
        <time>2019-08-15T15:59:45Z</time>
      </trkpt>
      <trkpt lat="40.8319830" lon="0.1839720">
        <ele>552.0</ele>
        <time>2019-08-15T15:59:48Z</time>
      </trkpt>
      <trkpt lat="40.8319690" lon="0.1839580">
        <ele>551.0</ele>
        <time>2019-08-15T15:59:49Z</time>
      </trkpt>
      <trkpt lat="40.8319580" lon="0.1839400">
        <ele>551.0</ele>
        <time>2019-08-15T15:59:50Z</time>
      </trkpt>
      <trkpt lat="40.8319540" lon="0.1839360">
        <ele>551.0</ele>
        <time>2019-08-15T15:59:51Z</time>
      </trkpt>
      <trkpt lat="40.8319380" lon="0.1839090">
        <ele>550.0</ele>
        <time>2019-08-15T15:59:53Z</time>
      </trkpt>
      <trkpt lat="40.8319350" lon="0.1838980">
        <ele>550.0</ele>
        <time>2019-08-15T15:59:54Z</time>
      </trkpt>
      <trkpt lat="40.8319320" lon="0.1838880">
        <ele>550.0</ele>
        <time>2019-08-15T15:59:55Z</time>
      </trkpt>
      <trkpt lat="40.8319290" lon="0.1838780">
        <ele>550.0</ele>
        <time>2019-08-15T15:59:56Z</time>
      </trkpt>
      <trkpt lat="40.8318990" lon="0.1838470">
        <ele>549.0</ele>
        <time>2019-08-15T15:59:58Z</time>
      </trkpt>
      <trkpt lat="40.8318740" lon="0.1838260">
        <ele>549.0</ele>
        <time>2019-08-15T15:59:59Z</time>
      </trkpt>
      <trkpt lat="40.8318470" lon="0.1838030">
        <ele>549.0</ele>
        <time>2019-08-15T16:00:00Z</time>
      </trkpt>
      <trkpt lat="40.8317840" lon="0.1837550">
        <ele>548.0</ele>
        <time>2019-08-15T16:00:04Z</time>
      </trkpt>
      <trkpt lat="40.8317880" lon="0.1837490">
        <ele>547.0</ele>
        <time>2019-08-15T16:00:06Z</time>
      </trkpt>
      <trkpt lat="40.8317470" lon="0.1837530">
        <ele>546.0</ele>
        <time>2019-08-15T16:00:11Z</time>
      </trkpt>
      <trkpt lat="40.8317390" lon="0.1837650">
        <ele>546.0</ele>
        <time>2019-08-15T16:00:13Z</time>
      </trkpt>
      <trkpt lat="40.8317320" lon="0.1837760">
        <ele>546.0</ele>
        <time>2019-08-15T16:00:14Z</time>
      </trkpt>
      <trkpt lat="40.8317240" lon="0.1837820">
        <ele>546.0</ele>
        <time>2019-08-15T16:00:15Z</time>
      </trkpt>
      <trkpt lat="40.8317160" lon="0.1837850">
        <ele>546.0</ele>
        <time>2019-08-15T16:00:16Z</time>
      </trkpt>
      <trkpt lat="40.8317060" lon="0.1837780">
        <ele>546.0</ele>
        <time>2019-08-15T16:00:17Z</time>
      </trkpt>
      <trkpt lat="40.8316970" lon="0.1837690">
        <ele>546.0</ele>
        <time>2019-08-15T16:00:18Z</time>
      </trkpt>
      <trkpt lat="40.8316910" lon="0.1837600">
        <ele>546.0</ele>
        <time>2019-08-15T16:00:19Z</time>
      </trkpt>
      <trkpt lat="40.8318940" lon="0.1836230">
        <ele>544.0</ele>
        <time>2019-08-15T17:30:02Z</time>
      </trkpt>
      <trkpt lat="40.8318820" lon="0.1835830">
        <ele>543.0</ele>
        <time>2019-08-15T17:30:05Z</time>
      </trkpt>
      <trkpt lat="40.8318770" lon="0.1835000">
        <ele>541.0</ele>
        <time>2019-08-15T17:30:09Z</time>
      </trkpt>
      <trkpt lat="40.8318940" lon="0.1834650">
        <ele>541.0</ele>
        <time>2019-08-15T17:30:10Z</time>
      </trkpt>
      <trkpt lat="40.8319070" lon="0.1834170">
        <ele>540.0</ele>
        <time>2019-08-15T17:30:13Z</time>
      </trkpt>
      <trkpt lat="40.8319280" lon="0.1834000">
        <ele>540.0</ele>
        <time>2019-08-15T17:30:15Z</time>
      </trkpt>
      <trkpt lat="40.8319320" lon="0.1833820">
        <ele>539.0</ele>
        <time>2019-08-15T17:30:17Z</time>
      </trkpt>
      <trkpt lat="40.8318600" lon="0.1833800">
        <ele>536.0</ele>
        <time>2019-08-15T17:30:24Z</time>
      </trkpt>
      <trkpt lat="40.8318310" lon="0.1833800">
        <ele>536.0</ele>
        <time>2019-08-15T17:30:26Z</time>
      </trkpt>
      <trkpt lat="40.8317870" lon="0.1833860">
        <ele>536.0</ele>
        <time>2019-08-15T17:30:27Z</time>
      </trkpt>
      <trkpt lat="40.8318180" lon="0.1832890">
        <ele>535.0</ele>
        <time>2019-08-15T17:30:29Z</time>
      </trkpt>
      <trkpt lat="40.8318530" lon="0.1832320">
        <ele>535.0</ele>
        <time>2019-08-15T17:30:30Z</time>
      </trkpt>
      <trkpt lat="40.8318680" lon="0.1831970">
        <ele>535.0</ele>
        <time>2019-08-15T17:30:31Z</time>
      </trkpt>
      <trkpt lat="40.8318860" lon="0.1831550">
        <ele>535.0</ele>
        <time>2019-08-15T17:30:32Z</time>
      </trkpt>
      <trkpt lat="40.8318920" lon="0.1831210">
        <ele>535.0</ele>
        <time>2019-08-15T17:30:33Z</time>
      </trkpt>
      <trkpt lat="40.8318710" lon="0.1830930">
        <ele>534.0</ele>
        <time>2019-08-15T17:30:35Z</time>
      </trkpt>
      <trkpt lat="40.8318560" lon="0.1830800">
        <ele>534.0</ele>
        <time>2019-08-15T17:30:36Z</time>
      </trkpt>
      <trkpt lat="40.8318450" lon="0.1830640">
        <ele>535.0</ele>
        <time>2019-08-15T17:30:37Z</time>
      </trkpt>
      <trkpt lat="40.8317850" lon="0.1830400">
        <ele>535.0</ele>
        <time>2019-08-15T17:30:39Z</time>
      </trkpt>
      <trkpt lat="40.8317640" lon="0.1830220">
        <ele>535.0</ele>
        <time>2019-08-15T17:30:40Z</time>
      </trkpt>
      <trkpt lat="40.8317440" lon="0.1830090">
        <ele>535.0</ele>
        <time>2019-08-15T17:30:41Z</time>
      </trkpt>
      <trkpt lat="40.8317110" lon="0.1829830">
        <ele>535.0</ele>
        <time>2019-08-15T17:30:43Z</time>
      </trkpt>
      <trkpt lat="40.8317320" lon="0.1829400">
        <ele>535.0</ele>
        <time>2019-08-15T17:30:44Z</time>
      </trkpt>
      <trkpt lat="40.8317490" lon="0.1828970">
        <ele>536.0</ele>
        <time>2019-08-15T17:30:45Z</time>
      </trkpt>
      <trkpt lat="40.8317460" lon="0.1828720">
        <ele>536.0</ele>
        <time>2019-08-15T17:30:46Z</time>
      </trkpt>
      <trkpt lat="40.8317270" lon="0.1828640">
        <ele>536.0</ele>
        <time>2019-08-15T17:30:47Z</time>
      </trkpt>
      <trkpt lat="40.8314930" lon="0.1829190">
        <ele>536.0</ele>
        <time>2019-08-15T17:31:03Z</time>
      </trkpt>
      <trkpt lat="40.8315060" lon="0.1829940">
        <ele>536.0</ele>
        <time>2019-08-15T17:31:04Z</time>
      </trkpt>
      <trkpt lat="40.8317300" lon="0.1826030">
        <ele>535.0</ele>
        <time>2019-08-15T17:32:17Z</time>
      </trkpt>
      <trkpt lat="40.8317110" lon="0.1825970">
        <ele>535.0</ele>
        <time>2019-08-15T17:32:19Z</time>
      </trkpt>
      <trkpt lat="40.8316950" lon="0.1825910">
        <ele>535.0</ele>
        <time>2019-08-15T17:32:20Z</time>
      </trkpt>
      <trkpt lat="40.8316780" lon="0.1825980">
        <ele>535.0</ele>
        <time>2019-08-15T17:32:21Z</time>
      </trkpt>
      <trkpt lat="40.8316650" lon="0.1826020">
        <ele>535.0</ele>
        <time>2019-08-15T17:32:22Z</time>
      </trkpt>
      <trkpt lat="40.8316220" lon="0.1827080">
        <ele>533.0</ele>
        <time>2019-08-15T17:32:47Z</time>
      </trkpt>
      <trkpt lat="40.8315780" lon="0.1827610">
        <ele>533.0</ele>
        <time>2019-08-15T17:32:49Z</time>
      </trkpt>
      <trkpt lat="40.8315400" lon="0.1828210">
        <ele>533.0</ele>
        <time>2019-08-15T17:32:50Z</time>
      </trkpt>
      <trkpt lat="40.8315020" lon="0.1828680">
        <ele>533.0</ele>
        <time>2019-08-15T17:32:51Z</time>
      </trkpt>
      <trkpt lat="40.8314760" lon="0.1829040">
        <ele>533.0</ele>
        <time>2019-08-15T17:32:52Z</time>
      </trkpt>
      <trkpt lat="40.8313950" lon="0.1829910">
        <ele>532.0</ele>
        <time>2019-08-15T17:32:55Z</time>
      </trkpt>
      <trkpt lat="40.8313780" lon="0.1830060">
        <ele>532.0</ele>
        <time>2019-08-15T17:32:56Z</time>
      </trkpt>
      <trkpt lat="40.8313620" lon="0.1830160">
        <ele>532.0</ele>
        <time>2019-08-15T17:32:57Z</time>
      </trkpt>
      <trkpt lat="40.8313450" lon="0.1830280">
        <ele>532.0</ele>
        <time>2019-08-15T17:32:59Z</time>
      </trkpt>
      <trkpt lat="40.8313230" lon="0.1830590">
        <ele>532.0</ele>
        <time>2019-08-15T17:33:01Z</time>
      </trkpt>
      <trkpt lat="40.8313060" lon="0.1830860">
        <ele>532.0</ele>
        <time>2019-08-15T17:33:02Z</time>
      </trkpt>
      <trkpt lat="40.8312920" lon="0.1830990">
        <ele>532.0</ele>
        <time>2019-08-15T17:33:03Z</time>
      </trkpt>
      <trkpt lat="40.8312820" lon="0.1831220">
        <ele>533.0</ele>
        <time>2019-08-15T17:33:04Z</time>
      </trkpt>
      <trkpt lat="40.8312700" lon="0.1831420">
        <ele>533.0</ele>
        <time>2019-08-15T17:33:05Z</time>
      </trkpt>
      <trkpt lat="40.8312520" lon="0.1832390">
        <ele>533.0</ele>
        <time>2019-08-15T17:33:07Z</time>
      </trkpt>
      <trkpt lat="40.8312520" lon="0.1832720">
        <ele>533.0</ele>
        <time>2019-08-15T17:33:08Z</time>
      </trkpt>
      <trkpt lat="40.8312340" lon="0.1832950">
        <ele>533.0</ele>
        <time>2019-08-15T17:33:09Z</time>
      </trkpt>
      <trkpt lat="40.8312230" lon="0.1833360">
        <ele>534.0</ele>
        <time>2019-08-15T17:33:11Z</time>
      </trkpt>
      <trkpt lat="40.8312240" lon="0.1833590">
        <ele>534.0</ele>
        <time>2019-08-15T17:33:12Z</time>
      </trkpt>
      <trkpt lat="40.8312290" lon="0.1833850">
        <ele>534.0</ele>
        <time>2019-08-15T17:33:13Z</time>
      </trkpt>
      <trkpt lat="40.8312460" lon="0.1834250">
        <ele>534.0</ele>
        <time>2019-08-15T17:33:15Z</time>
      </trkpt>
      <trkpt lat="40.8312590" lon="0.1834360">
        <ele>534.0</ele>
        <time>2019-08-15T17:33:16Z</time>
      </trkpt>
      <trkpt lat="40.8312720" lon="0.1834480">
        <ele>534.0</ele>
        <time>2019-08-15T17:33:17Z</time>
      </trkpt>
      <trkpt lat="40.8312800" lon="0.1834700">
        <ele>534.0</ele>
        <time>2019-08-15T17:33:18Z</time>
      </trkpt>
      <trkpt lat="40.8312900" lon="0.1834940">
        <ele>534.0</ele>
        <time>2019-08-15T17:33:19Z</time>
      </trkpt>
      <trkpt lat="40.8312950" lon="0.1835260">
        <ele>534.0</ele>
        <time>2019-08-15T17:33:20Z</time>
      </trkpt>
      <trkpt lat="40.8313000" lon="0.1835570">
        <ele>534.0</ele>
        <time>2019-08-15T17:33:21Z</time>
      </trkpt>
      <trkpt lat="40.8311650" lon="0.1837250">
        <ele>534.0</ele>
        <time>2019-08-15T17:33:23Z</time>
      </trkpt>
      <trkpt lat="40.8311320" lon="0.1837880">
        <ele>534.0</ele>
        <time>2019-08-15T17:33:24Z</time>
      </trkpt>
      <trkpt lat="40.8310270" lon="0.1839070">
        <ele>534.0</ele>
        <time>2019-08-15T17:33:27Z</time>
      </trkpt>
      <trkpt lat="40.8310070" lon="0.1839330">
        <ele>533.0</ele>
        <time>2019-08-15T17:33:28Z</time>
      </trkpt>
      <trkpt lat="40.8309900" lon="0.1839390">
        <ele>533.0</ele>
        <time>2019-08-15T17:33:29Z</time>
      </trkpt>
      <trkpt lat="40.8309750" lon="0.1839300">
        <ele>533.0</ele>
        <time>2019-08-15T17:33:30Z</time>
      </trkpt>
      <trkpt lat="40.8309530" lon="0.1839100">
        <ele>533.0</ele>
        <time>2019-08-15T17:33:31Z</time>
      </trkpt>
      <trkpt lat="40.8309310" lon="0.1838820">
        <ele>533.0</ele>
        <time>2019-08-15T17:33:32Z</time>
      </trkpt>
      <trkpt lat="40.8308720" lon="0.1838020">
        <ele>532.0</ele>
        <time>2019-08-15T17:33:34Z</time>
      </trkpt>
      <trkpt lat="40.8308470" lon="0.1837730">
        <ele>532.0</ele>
        <time>2019-08-15T17:33:35Z</time>
      </trkpt>
      <trkpt lat="40.8308210" lon="0.1837490">
        <ele>532.0</ele>
        <time>2019-08-15T17:33:36Z</time>
      </trkpt>
      <trkpt lat="40.8307910" lon="0.1837260">
        <ele>531.0</ele>
        <time>2019-08-15T17:33:37Z</time>
      </trkpt>
      <trkpt lat="40.8307650" lon="0.1837000">
        <ele>531.0</ele>
        <time>2019-08-15T17:33:38Z</time>
      </trkpt>
      <trkpt lat="40.8307410" lon="0.1836730">
        <ele>531.0</ele>
        <time>2019-08-15T17:33:39Z</time>
      </trkpt>
      <trkpt lat="40.8307230" lon="0.1836440">
        <ele>531.0</ele>
        <time>2019-08-15T17:33:40Z</time>
      </trkpt>
      <trkpt lat="40.8307070" lon="0.1836140">
        <ele>530.0</ele>
        <time>2019-08-15T17:33:41Z</time>
      </trkpt>
      <trkpt lat="40.8306930" lon="0.1835830">
        <ele>530.0</ele>
        <time>2019-08-15T17:33:42Z</time>
      </trkpt>
      <trkpt lat="40.8306820" lon="0.1835470">
        <ele>530.0</ele>
        <time>2019-08-15T17:33:43Z</time>
      </trkpt>
      <trkpt lat="40.8306670" lon="0.1835050">
        <ele>530.0</ele>
        <time>2019-08-15T17:33:44Z</time>
      </trkpt>
      <trkpt lat="40.8306470" lon="0.1834610">
        <ele>530.0</ele>
        <time>2019-08-15T17:33:45Z</time>
      </trkpt>
      <trkpt lat="40.8306230" lon="0.1834110">
        <ele>529.0</ele>
        <time>2019-08-15T17:33:46Z</time>
      </trkpt>
      <trkpt lat="40.8306010" lon="0.1833600">
        <ele>529.0</ele>
        <time>2019-08-15T17:33:47Z</time>
      </trkpt>
      <trkpt lat="40.8305870" lon="0.1833140">
        <ele>529.0</ele>
        <time>2019-08-15T17:33:48Z</time>
      </trkpt>
      <trkpt lat="40.8305750" lon="0.1832640">
        <ele>529.0</ele>
        <time>2019-08-15T17:33:49Z</time>
      </trkpt>
      <trkpt lat="40.8305640" lon="0.1832120">
        <ele>528.0</ele>
        <time>2019-08-15T17:33:50Z</time>
      </trkpt>
      <trkpt lat="40.8305480" lon="0.1831630">
        <ele>528.0</ele>
        <time>2019-08-15T17:33:51Z</time>
      </trkpt>
      <trkpt lat="40.8305350" lon="0.1831140">
        <ele>528.0</ele>
        <time>2019-08-15T17:33:52Z</time>
      </trkpt>
      <trkpt lat="40.8305190" lon="0.1830730">
        <ele>527.0</ele>
        <time>2019-08-15T17:33:53Z</time>
      </trkpt>
      <trkpt lat="40.8305070" lon="0.1830280">
        <ele>527.0</ele>
        <time>2019-08-15T17:33:54Z</time>
      </trkpt>
      <trkpt lat="40.8304890" lon="0.1829820">
        <ele>527.0</ele>
        <time>2019-08-15T17:33:55Z</time>
      </trkpt>
      <trkpt lat="40.8304620" lon="0.1829540">
        <ele>527.0</ele>
        <time>2019-08-15T17:33:56Z</time>
      </trkpt>
      <trkpt lat="40.8304330" lon="0.1829280">
        <ele>527.0</ele>
        <time>2019-08-15T17:33:57Z</time>
      </trkpt>
      <trkpt lat="40.8303950" lon="0.1829040">
        <ele>526.0</ele>
        <time>2019-08-15T17:33:58Z</time>
      </trkpt>
      <trkpt lat="40.8303530" lon="0.1828770">
        <ele>526.0</ele>
        <time>2019-08-15T17:33:59Z</time>
      </trkpt>
      <trkpt lat="40.8303090" lon="0.1828550">
        <ele>526.0</ele>
        <time>2019-08-15T17:34:00Z</time>
      </trkpt>
      <trkpt lat="40.8302270" lon="0.1828280">
        <ele>525.0</ele>
        <time>2019-08-15T17:34:02Z</time>
      </trkpt>
      <trkpt lat="40.8301920" lon="0.1828190">
        <ele>525.0</ele>
        <time>2019-08-15T17:34:03Z</time>
      </trkpt>
      <trkpt lat="40.8301550" lon="0.1828060">
        <ele>525.0</ele>
        <time>2019-08-15T17:34:04Z</time>
      </trkpt>
      <trkpt lat="40.8300650" lon="0.1827920">
        <ele>524.0</ele>
        <time>2019-08-15T17:34:07Z</time>
      </trkpt>
      <trkpt lat="40.8300510" lon="0.1827910">
        <ele>523.0</ele>
        <time>2019-08-15T17:34:09Z</time>
      </trkpt>
      <trkpt lat="40.8300450" lon="0.1827850">
        <ele>523.0</ele>
        <time>2019-08-15T17:34:11Z</time>
      </trkpt>
      <trkpt lat="40.8300450" lon="0.1827840">
        <ele>523.0</ele>
        <time>2019-08-15T17:34:12Z</time>
      </trkpt>
      <trkpt lat="40.8300490" lon="0.1827240">
        <ele>521.0</ele>
        <time>2019-08-15T17:34:30Z</time>
      </trkpt>
      <trkpt lat="40.8300580" lon="0.1826860">
        <ele>521.0</ele>
        <time>2019-08-15T17:34:32Z</time>
      </trkpt>
      <trkpt lat="40.8300760" lon="0.1826450">
        <ele>521.0</ele>
        <time>2019-08-15T17:34:33Z</time>
      </trkpt>
      <trkpt lat="40.8300990" lon="0.1826030">
        <ele>521.0</ele>
        <time>2019-08-15T17:34:34Z</time>
      </trkpt>
      <trkpt lat="40.8301220" lon="0.1825560">
        <ele>521.0</ele>
        <time>2019-08-15T17:34:35Z</time>
      </trkpt>
      <trkpt lat="40.8301410" lon="0.1825010">
        <ele>521.0</ele>
        <time>2019-08-15T17:34:36Z</time>
      </trkpt>
      <trkpt lat="40.8301560" lon="0.1824460">
        <ele>520.0</ele>
        <time>2019-08-15T17:34:37Z</time>
      </trkpt>
      <trkpt lat="40.8301690" lon="0.1823960">
        <ele>520.0</ele>
        <time>2019-08-15T17:34:38Z</time>
      </trkpt>
      <trkpt lat="40.8301820" lon="0.1823480">
        <ele>520.0</ele>
        <time>2019-08-15T17:34:39Z</time>
      </trkpt>
      <trkpt lat="40.8301940" lon="0.1822980">
        <ele>520.0</ele>
        <time>2019-08-15T17:34:40Z</time>
      </trkpt>
      <trkpt lat="40.8302110" lon="0.1822460">
        <ele>520.0</ele>
        <time>2019-08-15T17:34:41Z</time>
      </trkpt>
      <trkpt lat="40.8302300" lon="0.1821910">
        <ele>519.0</ele>
        <time>2019-08-15T17:34:42Z</time>
      </trkpt>
      <trkpt lat="40.8302520" lon="0.1821340">
        <ele>519.0</ele>
        <time>2019-08-15T17:34:43Z</time>
      </trkpt>
      <trkpt lat="40.8302730" lon="0.1820810">
        <ele>519.0</ele>
        <time>2019-08-15T17:34:44Z</time>
      </trkpt>
      <trkpt lat="40.8302970" lon="0.1820300">
        <ele>519.0</ele>
        <time>2019-08-15T17:34:45Z</time>
      </trkpt>
      <trkpt lat="40.8303210" lon="0.1819720">
        <ele>519.0</ele>
        <time>2019-08-15T17:34:46Z</time>
      </trkpt>
      <trkpt lat="40.8303450" lon="0.1819080">
        <ele>518.0</ele>
        <time>2019-08-15T17:34:47Z</time>
      </trkpt>
      <trkpt lat="40.8303710" lon="0.1818610">
        <ele>518.0</ele>
        <time>2019-08-15T17:34:48Z</time>
      </trkpt>
      <trkpt lat="40.8304020" lon="0.1818160">
        <ele>518.0</ele>
        <time>2019-08-15T17:34:49Z</time>
      </trkpt>
      <trkpt lat="40.8304360" lon="0.1817710">
        <ele>517.0</ele>
        <time>2019-08-15T17:34:50Z</time>
      </trkpt>
      <trkpt lat="40.8304660" lon="0.1817270">
        <ele>517.0</ele>
        <time>2019-08-15T17:34:51Z</time>
      </trkpt>
      <trkpt lat="40.8304950" lon="0.1816840">
        <ele>517.0</ele>
        <time>2019-08-15T17:34:52Z</time>
      </trkpt>
      <trkpt lat="40.8305230" lon="0.1816480">
        <ele>517.0</ele>
        <time>2019-08-15T17:34:53Z</time>
      </trkpt>
      <trkpt lat="40.8305510" lon="0.1816250">
        <ele>517.0</ele>
        <time>2019-08-15T17:34:54Z</time>
      </trkpt>
      <trkpt lat="40.8305760" lon="0.1816100">
        <ele>516.0</ele>
        <time>2019-08-15T17:34:55Z</time>
      </trkpt>
      <trkpt lat="40.8306010" lon="0.1816030">
        <ele>516.0</ele>
        <time>2019-08-15T17:34:56Z</time>
      </trkpt>
      <trkpt lat="40.8306230" lon="0.1815970">
        <ele>516.0</ele>
        <time>2019-08-15T17:34:57Z</time>
      </trkpt>
      <trkpt lat="40.8306440" lon="0.1815930">
        <ele>516.0</ele>
        <time>2019-08-15T17:34:58Z</time>
      </trkpt>
      <trkpt lat="40.8306680" lon="0.1815900">
        <ele>516.0</ele>
        <time>2019-08-15T17:34:59Z</time>
      </trkpt>
      <trkpt lat="40.8306920" lon="0.1815870">
        <ele>516.0</ele>
        <time>2019-08-15T17:35:00Z</time>
      </trkpt>
      <trkpt lat="40.8307500" lon="0.1815810">
        <ele>516.0</ele>
        <time>2019-08-15T17:35:02Z</time>
      </trkpt>
      <trkpt lat="40.8307810" lon="0.1815730">
        <ele>516.0</ele>
        <time>2019-08-15T17:35:03Z</time>
      </trkpt>
      <trkpt lat="40.8308130" lon="0.1815690">
        <ele>516.0</ele>
        <time>2019-08-15T17:35:04Z</time>
      </trkpt>
      <trkpt lat="40.8309120" lon="0.1815620">
        <ele>516.0</ele>
        <time>2019-08-15T17:35:07Z</time>
      </trkpt>
      <trkpt lat="40.8309420" lon="0.1815440">
        <ele>516.0</ele>
        <time>2019-08-15T17:35:08Z</time>
      </trkpt>
      <trkpt lat="40.8309690" lon="0.1815220">
        <ele>516.0</ele>
        <time>2019-08-15T17:35:09Z</time>
      </trkpt>
      <trkpt lat="40.8310390" lon="0.1814360">
        <ele>516.0</ele>
        <time>2019-08-15T17:35:12Z</time>
      </trkpt>
      <trkpt lat="40.8310590" lon="0.1814020">
        <ele>516.0</ele>
        <time>2019-08-15T17:35:13Z</time>
      </trkpt>
      <trkpt lat="40.8310810" lon="0.1813700">
        <ele>516.0</ele>
        <time>2019-08-15T17:35:14Z</time>
      </trkpt>
      <trkpt lat="40.8311070" lon="0.1813420">
        <ele>516.0</ele>
        <time>2019-08-15T17:35:15Z</time>
      </trkpt>
      <trkpt lat="40.8311600" lon="0.1812880">
        <ele>516.0</ele>
        <time>2019-08-15T17:35:17Z</time>
      </trkpt>
      <trkpt lat="40.8311830" lon="0.1812570">
        <ele>516.0</ele>
        <time>2019-08-15T17:35:18Z</time>
      </trkpt>
      <trkpt lat="40.8312050" lon="0.1812240">
        <ele>516.0</ele>
        <time>2019-08-15T17:35:19Z</time>
      </trkpt>
      <trkpt lat="40.8312210" lon="0.1811860">
        <ele>515.0</ele>
        <time>2019-08-15T17:35:20Z</time>
      </trkpt>
      <trkpt lat="40.8312330" lon="0.1811010">
        <ele>515.0</ele>
        <time>2019-08-15T17:35:22Z</time>
      </trkpt>
      <trkpt lat="40.8312280" lon="0.1810620">
        <ele>515.0</ele>
        <time>2019-08-15T17:35:23Z</time>
      </trkpt>
      <trkpt lat="40.8312210" lon="0.1810220">
        <ele>515.0</ele>
        <time>2019-08-15T17:35:24Z</time>
      </trkpt>
      <trkpt lat="40.8312150" lon="0.1809830">
        <ele>515.0</ele>
        <time>2019-08-15T17:35:25Z</time>
      </trkpt>
      <trkpt lat="40.8312000" lon="0.1809010">
        <ele>515.0</ele>
        <time>2019-08-15T17:35:27Z</time>
      </trkpt>
      <trkpt lat="40.8311980" lon="0.1808580">
        <ele>515.0</ele>
        <time>2019-08-15T17:35:28Z</time>
      </trkpt>
      <trkpt lat="40.8311900" lon="0.1808190">
        <ele>515.0</ele>
        <time>2019-08-15T17:35:29Z</time>
      </trkpt>
      <trkpt lat="40.8311820" lon="0.1807840">
        <ele>515.0</ele>
        <time>2019-08-15T17:35:30Z</time>
      </trkpt>
      <trkpt lat="40.8311720" lon="0.1807130">
        <ele>514.0</ele>
        <time>2019-08-15T17:35:32Z</time>
      </trkpt>
      <trkpt lat="40.8311690" lon="0.1806790">
        <ele>514.0</ele>
        <time>2019-08-15T17:35:33Z</time>
      </trkpt>
      <trkpt lat="40.8311630" lon="0.1806480">
        <ele>514.0</ele>
        <time>2019-08-15T17:35:34Z</time>
      </trkpt>
      <trkpt lat="40.8311540" lon="0.1806180">
        <ele>514.0</ele>
        <time>2019-08-15T17:35:35Z</time>
      </trkpt>
      <trkpt lat="40.8311440" lon="0.1805860">
        <ele>514.0</ele>
        <time>2019-08-15T17:35:36Z</time>
      </trkpt>
      <trkpt lat="40.8311350" lon="0.1805510">
        <ele>514.0</ele>
        <time>2019-08-15T17:35:37Z</time>
      </trkpt>
      <trkpt lat="40.8311250" lon="0.1805150">
        <ele>514.0</ele>
        <time>2019-08-15T17:35:38Z</time>
      </trkpt>
      <trkpt lat="40.8311180" lon="0.1804750">
        <ele>514.0</ele>
        <time>2019-08-15T17:35:39Z</time>
      </trkpt>
      <trkpt lat="40.8311080" lon="0.1804310">
        <ele>514.0</ele>
        <time>2019-08-15T17:35:40Z</time>
      </trkpt>
      <trkpt lat="40.8310990" lon="0.1803880">
        <ele>514.0</ele>
        <time>2019-08-15T17:35:41Z</time>
      </trkpt>
      <trkpt lat="40.8310870" lon="0.1803430">
        <ele>514.0</ele>
        <time>2019-08-15T17:35:42Z</time>
      </trkpt>
      <trkpt lat="40.8310770" lon="0.1803060">
        <ele>514.0</ele>
        <time>2019-08-15T17:35:43Z</time>
      </trkpt>
      <trkpt lat="40.8310700" lon="0.1802710">
        <ele>514.0</ele>
        <time>2019-08-15T17:35:44Z</time>
      </trkpt>
      <trkpt lat="40.8310610" lon="0.1802340">
        <ele>514.0</ele>
        <time>2019-08-15T17:35:45Z</time>
      </trkpt>
      <trkpt lat="40.8310520" lon="0.1801960">
        <ele>514.0</ele>
        <time>2019-08-15T17:35:46Z</time>
      </trkpt>
      <trkpt lat="40.8310430" lon="0.1801600">
        <ele>514.0</ele>
        <time>2019-08-15T17:35:47Z</time>
      </trkpt>
      <trkpt lat="40.8310270" lon="0.1800680">
        <ele>514.0</ele>
        <time>2019-08-15T17:35:50Z</time>
      </trkpt>
      <trkpt lat="40.8310310" lon="0.1800360">
        <ele>514.0</ele>
        <time>2019-08-15T17:35:51Z</time>
      </trkpt>
      <trkpt lat="40.8310320" lon="0.1800090">
        <ele>514.0</ele>
        <time>2019-08-15T17:35:52Z</time>
      </trkpt>
      <trkpt lat="40.8310380" lon="0.1799860">
        <ele>514.0</ele>
        <time>2019-08-15T17:35:53Z</time>
      </trkpt>
      <trkpt lat="40.8310450" lon="0.1799560">
        <ele>515.0</ele>
        <time>2019-08-15T17:35:55Z</time>
      </trkpt>
      <trkpt lat="40.8310440" lon="0.1799420">
        <ele>515.0</ele>
        <time>2019-08-15T17:35:56Z</time>
      </trkpt>
      <trkpt lat="40.8310390" lon="0.1799150">
        <ele>515.0</ele>
        <time>2019-08-15T17:35:57Z</time>
      </trkpt>
      <trkpt lat="40.8310370" lon="0.1799060">
        <ele>515.0</ele>
        <time>2019-08-15T17:35:58Z</time>
      </trkpt>
      <trkpt lat="40.8310310" lon="0.1798640">
        <ele>515.0</ele>
        <time>2019-08-15T17:36:00Z</time>
      </trkpt>
      <trkpt lat="40.8309660" lon="0.1798260">
        <ele>516.0</ele>
        <time>2019-08-15T17:36:24Z</time>
      </trkpt>
      <trkpt lat="40.8309650" lon="0.1798270">
        <ele>516.0</ele>
        <time>2019-08-15T17:36:26Z</time>
      </trkpt>
      <trkpt lat="40.8309710" lon="0.1797510">
        <ele>515.0</ele>
        <time>2019-08-15T17:37:11Z</time>
      </trkpt>
      <trkpt lat="40.8309770" lon="0.1797280">
        <ele>515.0</ele>
        <time>2019-08-15T17:37:13Z</time>
      </trkpt>
      <trkpt lat="40.8309840" lon="0.1797000">
        <ele>515.0</ele>
        <time>2019-08-15T17:37:14Z</time>
      </trkpt>
      <trkpt lat="40.8309880" lon="0.1796740">
        <ele>515.0</ele>
        <time>2019-08-15T17:37:15Z</time>
      </trkpt>
      <trkpt lat="40.8309920" lon="0.1796480">
        <ele>515.0</ele>
        <time>2019-08-15T17:37:16Z</time>
      </trkpt>
      <trkpt lat="40.8310000" lon="0.1796260">
        <ele>515.0</ele>
        <time>2019-08-15T17:37:17Z</time>
      </trkpt>
      <trkpt lat="40.8310180" lon="0.1796140">
        <ele>515.0</ele>
        <time>2019-08-15T17:37:18Z</time>
      </trkpt>
      <trkpt lat="40.8310380" lon="0.1796000">
        <ele>515.0</ele>
        <time>2019-08-15T17:37:19Z</time>
      </trkpt>
      <trkpt lat="40.8310560" lon="0.1795870">
        <ele>515.0</ele>
        <time>2019-08-15T17:37:20Z</time>
      </trkpt>
      <trkpt lat="40.8310750" lon="0.1795760">
        <ele>515.0</ele>
        <time>2019-08-15T17:37:21Z</time>
      </trkpt>
      <trkpt lat="40.8310940" lon="0.1795790">
        <ele>515.0</ele>
        <time>2019-08-15T17:37:22Z</time>
      </trkpt>
      <trkpt lat="40.8311140" lon="0.1795910">
        <ele>515.0</ele>
        <time>2019-08-15T17:37:23Z</time>
      </trkpt>
      <trkpt lat="40.8311340" lon="0.1796000">
        <ele>515.0</ele>
        <time>2019-08-15T17:37:24Z</time>
      </trkpt>
      <trkpt lat="40.8311590" lon="0.1796090">
        <ele>515.0</ele>
        <time>2019-08-15T17:37:25Z</time>
      </trkpt>
      <trkpt lat="40.8312320" lon="0.1796280">
        <ele>514.0</ele>
        <time>2019-08-15T17:37:27Z</time>
      </trkpt>
      <trkpt lat="40.8312770" lon="0.1796500">
        <ele>514.0</ele>
        <time>2019-08-15T17:37:28Z</time>
      </trkpt>
      <trkpt lat="40.8312910" lon="0.1796590">
        <ele>514.0</ele>
        <time>2019-08-15T17:37:29Z</time>
      </trkpt>
      <trkpt lat="40.8313360" lon="0.1796630">
        <ele>514.0</ele>
        <time>2019-08-15T17:37:30Z</time>
      </trkpt>
      <trkpt lat="40.8314280" lon="0.1796610">
        <ele>514.0</ele>
        <time>2019-08-15T17:37:32Z</time>
      </trkpt>
      <trkpt lat="40.8314660" lon="0.1796630">
        <ele>514.0</ele>
        <time>2019-08-15T17:37:33Z</time>
      </trkpt>
      <trkpt lat="40.8315150" lon="0.1796520">
        <ele>514.0</ele>
        <time>2019-08-15T17:37:34Z</time>
      </trkpt>
      <trkpt lat="40.8315730" lon="0.1796420">
        <ele>513.0</ele>
        <time>2019-08-15T17:37:35Z</time>
      </trkpt>
      <trkpt lat="40.8316260" lon="0.1796290">
        <ele>513.0</ele>
        <time>2019-08-15T17:37:36Z</time>
      </trkpt>
      <trkpt lat="40.8316940" lon="0.1795970">
        <ele>513.0</ele>
        <time>2019-08-15T17:37:37Z</time>
      </trkpt>
      <trkpt lat="40.8318170" lon="0.1795840">
        <ele>513.0</ele>
        <time>2019-08-15T17:37:40Z</time>
      </trkpt>
      <trkpt lat="40.8318490" lon="0.1795850">
        <ele>513.0</ele>
        <time>2019-08-15T17:37:41Z</time>
      </trkpt>
      <trkpt lat="40.8318790" lon="0.1795840">
        <ele>513.0</ele>
        <time>2019-08-15T17:37:42Z</time>
      </trkpt>
      <trkpt lat="40.8319300" lon="0.1795900">
        <ele>513.0</ele>
        <time>2019-08-15T17:37:44Z</time>
      </trkpt>
      <trkpt lat="40.8319530" lon="0.1795990">
        <ele>513.0</ele>
        <time>2019-08-15T17:37:45Z</time>
      </trkpt>
      <trkpt lat="40.8319710" lon="0.1796120">
        <ele>513.0</ele>
        <time>2019-08-15T17:37:46Z</time>
      </trkpt>
      <trkpt lat="40.8320140" lon="0.1796370">
        <ele>513.0</ele>
        <time>2019-08-15T17:37:48Z</time>
      </trkpt>
      <trkpt lat="40.8320210" lon="0.1796410">
        <ele>513.0</ele>
        <time>2019-08-15T17:37:49Z</time>
      </trkpt>
      <trkpt lat="40.8320550" lon="0.1797030">
        <ele>513.0</ele>
        <time>2019-08-15T17:37:58Z</time>
      </trkpt>
      <trkpt lat="40.8320640" lon="0.1797250">
        <ele>513.0</ele>
        <time>2019-08-15T17:38:00Z</time>
      </trkpt>
      <trkpt lat="40.8320740" lon="0.1797480">
        <ele>513.0</ele>
        <time>2019-08-15T17:38:01Z</time>
      </trkpt>
      <trkpt lat="40.8320860" lon="0.1797690">
        <ele>513.0</ele>
        <time>2019-08-15T17:38:02Z</time>
      </trkpt>
      <trkpt lat="40.8320980" lon="0.1797900">
        <ele>513.0</ele>
        <time>2019-08-15T17:38:03Z</time>
      </trkpt>
      <trkpt lat="40.8321110" lon="0.1798090">
        <ele>513.0</ele>
        <time>2019-08-15T17:38:04Z</time>
      </trkpt>
      <trkpt lat="40.8321240" lon="0.1798250">
        <ele>513.0</ele>
        <time>2019-08-15T17:38:05Z</time>
      </trkpt>
      <trkpt lat="40.8321400" lon="0.1798410">
        <ele>513.0</ele>
        <time>2019-08-15T17:38:06Z</time>
      </trkpt>
      <trkpt lat="40.8321560" lon="0.1798540">
        <ele>513.0</ele>
        <time>2019-08-15T17:38:07Z</time>
      </trkpt>
      <trkpt lat="40.8321720" lon="0.1798660">
        <ele>513.0</ele>
        <time>2019-08-15T17:38:08Z</time>
      </trkpt>
      <trkpt lat="40.8322040" lon="0.1798890">
        <ele>513.0</ele>
        <time>2019-08-15T17:38:10Z</time>
      </trkpt>
      <trkpt lat="40.8322200" lon="0.1798980">
        <ele>513.0</ele>
        <time>2019-08-15T17:38:11Z</time>
      </trkpt>
      <trkpt lat="40.8322360" lon="0.1799050">
        <ele>513.0</ele>
        <time>2019-08-15T17:38:12Z</time>
      </trkpt>
      <trkpt lat="40.8322560" lon="0.1799100">
        <ele>513.0</ele>
        <time>2019-08-15T17:38:13Z</time>
      </trkpt>
      <trkpt lat="40.8322800" lon="0.1799110">
        <ele>513.0</ele>
        <time>2019-08-15T17:38:14Z</time>
      </trkpt>
      <trkpt lat="40.8323320" lon="0.1799070">
        <ele>513.0</ele>
        <time>2019-08-15T17:38:16Z</time>
      </trkpt>
      <trkpt lat="40.8323580" lon="0.1799040">
        <ele>513.0</ele>
        <time>2019-08-15T17:38:17Z</time>
      </trkpt>
      <trkpt lat="40.8323820" lon="0.1798980">
        <ele>513.0</ele>
        <time>2019-08-15T17:38:18Z</time>
      </trkpt>
      <trkpt lat="40.8324050" lon="0.1798870">
        <ele>513.0</ele>
        <time>2019-08-15T17:38:19Z</time>
      </trkpt>
      <trkpt lat="40.8324300" lon="0.1798780">
        <ele>513.0</ele>
        <time>2019-08-15T17:38:20Z</time>
      </trkpt>
      <trkpt lat="40.8324540" lon="0.1798660">
        <ele>513.0</ele>
        <time>2019-08-15T17:38:21Z</time>
      </trkpt>
      <trkpt lat="40.8324790" lon="0.1798490">
        <ele>513.0</ele>
        <time>2019-08-15T17:38:22Z</time>
      </trkpt>
      <trkpt lat="40.8325020" lon="0.1798380">
        <ele>513.0</ele>
        <time>2019-08-15T17:38:23Z</time>
      </trkpt>
      <trkpt lat="40.8325270" lon="0.1798290">
        <ele>513.0</ele>
        <time>2019-08-15T17:38:24Z</time>
      </trkpt>
      <trkpt lat="40.8325530" lon="0.1798200">
        <ele>513.0</ele>
        <time>2019-08-15T17:38:25Z</time>
      </trkpt>
      <trkpt lat="40.8325780" lon="0.1798090">
        <ele>513.0</ele>
        <time>2019-08-15T17:38:26Z</time>
      </trkpt>
      <trkpt lat="40.8326040" lon="0.1797970">
        <ele>513.0</ele>
        <time>2019-08-15T17:38:27Z</time>
      </trkpt>
      <trkpt lat="40.8326300" lon="0.1797880">
        <ele>513.0</ele>
        <time>2019-08-15T17:38:28Z</time>
      </trkpt>
      <trkpt lat="40.8326540" lon="0.1797780">
        <ele>513.0</ele>
        <time>2019-08-15T17:38:29Z</time>
      </trkpt>
      <trkpt lat="40.8326750" lon="0.1797650">
        <ele>514.0</ele>
        <time>2019-08-15T17:38:30Z</time>
      </trkpt>
      <trkpt lat="40.8326940" lon="0.1797550">
        <ele>514.0</ele>
        <time>2019-08-15T17:38:31Z</time>
      </trkpt>
      <trkpt lat="40.8327130" lon="0.1797520">
        <ele>514.0</ele>
        <time>2019-08-15T17:38:32Z</time>
      </trkpt>
      <trkpt lat="40.8327350" lon="0.1797430">
        <ele>514.0</ele>
        <time>2019-08-15T17:38:33Z</time>
      </trkpt>
      <trkpt lat="40.8327580" lon="0.1797310">
        <ele>514.0</ele>
        <time>2019-08-15T17:38:34Z</time>
      </trkpt>
      <trkpt lat="40.8327820" lon="0.1797190">
        <ele>514.0</ele>
        <time>2019-08-15T17:38:35Z</time>
      </trkpt>
      <trkpt lat="40.8328070" lon="0.1797080">
        <ele>514.0</ele>
        <time>2019-08-15T17:38:36Z</time>
      </trkpt>
      <trkpt lat="40.8328310" lon="0.1796940">
        <ele>514.0</ele>
        <time>2019-08-15T17:38:37Z</time>
      </trkpt>
      <trkpt lat="40.8328550" lon="0.1796820">
        <ele>514.0</ele>
        <time>2019-08-15T17:38:38Z</time>
      </trkpt>
      <trkpt lat="40.8328810" lon="0.1796710">
        <ele>514.0</ele>
        <time>2019-08-15T17:38:39Z</time>
      </trkpt>
      <trkpt lat="40.8329060" lon="0.1796580">
        <ele>514.0</ele>
        <time>2019-08-15T17:38:40Z</time>
      </trkpt>
      <trkpt lat="40.8329340" lon="0.1796440">
        <ele>514.0</ele>
        <time>2019-08-15T17:38:41Z</time>
      </trkpt>
      <trkpt lat="40.8329610" lon="0.1796300">
        <ele>514.0</ele>
        <time>2019-08-15T17:38:42Z</time>
      </trkpt>
      <trkpt lat="40.8329890" lon="0.1796160">
        <ele>514.0</ele>
        <time>2019-08-15T17:38:43Z</time>
      </trkpt>
      <trkpt lat="40.8330180" lon="0.1796000">
        <ele>514.0</ele>
        <time>2019-08-15T17:38:44Z</time>
      </trkpt>
      <trkpt lat="40.8330500" lon="0.1795830">
        <ele>514.0</ele>
        <time>2019-08-15T17:38:45Z</time>
      </trkpt>
      <trkpt lat="40.8330840" lon="0.1795640">
        <ele>514.0</ele>
        <time>2019-08-15T17:38:46Z</time>
      </trkpt>
      <trkpt lat="40.8331220" lon="0.1795450">
        <ele>514.0</ele>
        <time>2019-08-15T17:38:47Z</time>
      </trkpt>
      <trkpt lat="40.8331610" lon="0.1795260">
        <ele>514.0</ele>
        <time>2019-08-15T17:38:48Z</time>
      </trkpt>
      <trkpt lat="40.8332000" lon="0.1795070">
        <ele>514.0</ele>
        <time>2019-08-15T17:38:49Z</time>
      </trkpt>
      <trkpt lat="40.8332420" lon="0.1794870">
        <ele>514.0</ele>
        <time>2019-08-15T17:38:50Z</time>
      </trkpt>
      <trkpt lat="40.8332860" lon="0.1794690">
        <ele>514.0</ele>
        <time>2019-08-15T17:38:51Z</time>
      </trkpt>
      <trkpt lat="40.8333320" lon="0.1794550">
        <ele>514.0</ele>
        <time>2019-08-15T17:38:52Z</time>
      </trkpt>
      <trkpt lat="40.8333810" lon="0.1794450">
        <ele>514.0</ele>
        <time>2019-08-15T17:38:53Z</time>
      </trkpt>
      <trkpt lat="40.8334350" lon="0.1794340">
        <ele>514.0</ele>
        <time>2019-08-15T17:38:54Z</time>
      </trkpt>
      <trkpt lat="40.8334910" lon="0.1794260">
        <ele>514.0</ele>
        <time>2019-08-15T17:38:55Z</time>
      </trkpt>
      <trkpt lat="40.8335470" lon="0.1794240">
        <ele>513.0</ele>
        <time>2019-08-15T17:38:56Z</time>
      </trkpt>
      <trkpt lat="40.8336620" lon="0.1794240">
        <ele>513.0</ele>
        <time>2019-08-15T17:38:58Z</time>
      </trkpt>
      <trkpt lat="40.8337200" lon="0.1794250">
        <ele>513.0</ele>
        <time>2019-08-15T17:38:59Z</time>
      </trkpt>
      <trkpt lat="40.8337780" lon="0.1794270">
        <ele>513.0</ele>
        <time>2019-08-15T17:39:00Z</time>
      </trkpt>
      <trkpt lat="40.8338380" lon="0.1794300">
        <ele>513.0</ele>
        <time>2019-08-15T17:39:01Z</time>
      </trkpt>
      <trkpt lat="40.8338980" lon="0.1794320">
        <ele>513.0</ele>
        <time>2019-08-15T17:39:02Z</time>
      </trkpt>
      <trkpt lat="40.8339600" lon="0.1794360">
        <ele>512.0</ele>
        <time>2019-08-15T17:39:03Z</time>
      </trkpt>
      <trkpt lat="40.8340180" lon="0.1794450">
        <ele>512.0</ele>
        <time>2019-08-15T17:39:04Z</time>
      </trkpt>
      <trkpt lat="40.8340770" lon="0.1794540">
        <ele>512.0</ele>
        <time>2019-08-15T17:39:05Z</time>
      </trkpt>
      <trkpt lat="40.8341390" lon="0.1794630">
        <ele>512.0</ele>
        <time>2019-08-15T17:39:06Z</time>
      </trkpt>
      <trkpt lat="40.8342030" lon="0.1794720">
        <ele>511.0</ele>
        <time>2019-08-15T17:39:07Z</time>
      </trkpt>
      <trkpt lat="40.8342670" lon="0.1794800">
        <ele>511.0</ele>
        <time>2019-08-15T17:39:08Z</time>
      </trkpt>
      <trkpt lat="40.8343340" lon="0.1794830">
        <ele>511.0</ele>
        <time>2019-08-15T17:39:09Z</time>
      </trkpt>
      <trkpt lat="40.8344030" lon="0.1794850">
        <ele>510.0</ele>
        <time>2019-08-15T17:39:10Z</time>
      </trkpt>
      <trkpt lat="40.8344720" lon="0.1794880">
        <ele>510.0</ele>
        <time>2019-08-15T17:39:11Z</time>
      </trkpt>
      <trkpt lat="40.8345390" lon="0.1794910">
        <ele>510.0</ele>
        <time>2019-08-15T17:39:12Z</time>
      </trkpt>
      <trkpt lat="40.8346070" lon="0.1794960">
        <ele>510.0</ele>
        <time>2019-08-15T17:39:13Z</time>
      </trkpt>
      <trkpt lat="40.8346720" lon="0.1795030">
        <ele>509.0</ele>
        <time>2019-08-15T17:39:14Z</time>
      </trkpt>
      <trkpt lat="40.8347350" lon="0.1795090">
        <ele>509.0</ele>
        <time>2019-08-15T17:39:15Z</time>
      </trkpt>
      <trkpt lat="40.8347950" lon="0.1795170">
        <ele>509.0</ele>
        <time>2019-08-15T17:39:16Z</time>
      </trkpt>
      <trkpt lat="40.8348540" lon="0.1795260">
        <ele>509.0</ele>
        <time>2019-08-15T17:39:17Z</time>
      </trkpt>
      <trkpt lat="40.8349130" lon="0.1795390">
        <ele>508.0</ele>
        <time>2019-08-15T17:39:18Z</time>
      </trkpt>
      <trkpt lat="40.8349700" lon="0.1795580">
        <ele>508.0</ele>
        <time>2019-08-15T17:39:19Z</time>
      </trkpt>
      <trkpt lat="40.8350240" lon="0.1795810">
        <ele>508.0</ele>
        <time>2019-08-15T17:39:20Z</time>
      </trkpt>
      <trkpt lat="40.8350760" lon="0.1796030">
        <ele>508.0</ele>
        <time>2019-08-15T17:39:21Z</time>
      </trkpt>
      <trkpt lat="40.8351250" lon="0.1796250">
        <ele>508.0</ele>
        <time>2019-08-15T17:39:22Z</time>
      </trkpt>
      <trkpt lat="40.8351720" lon="0.1796470">
        <ele>508.0</ele>
        <time>2019-08-15T17:39:23Z</time>
      </trkpt>
      <trkpt lat="40.8352180" lon="0.1796730">
        <ele>508.0</ele>
        <time>2019-08-15T17:39:24Z</time>
      </trkpt>
      <trkpt lat="40.8352630" lon="0.1796980">
        <ele>508.0</ele>
        <time>2019-08-15T17:39:25Z</time>
      </trkpt>
      <trkpt lat="40.8353100" lon="0.1797200">
        <ele>508.0</ele>
        <time>2019-08-15T17:39:26Z</time>
      </trkpt>
      <trkpt lat="40.8353560" lon="0.1797420">
        <ele>508.0</ele>
        <time>2019-08-15T17:39:27Z</time>
      </trkpt>
      <trkpt lat="40.8354010" lon="0.1797680">
        <ele>508.0</ele>
        <time>2019-08-15T17:39:28Z</time>
      </trkpt>
      <trkpt lat="40.8354450" lon="0.1797930">
        <ele>508.0</ele>
        <time>2019-08-15T17:39:29Z</time>
      </trkpt>
      <trkpt lat="40.8354880" lon="0.1798170">
        <ele>508.0</ele>
        <time>2019-08-15T17:39:30Z</time>
      </trkpt>
      <trkpt lat="40.8355300" lon="0.1798420">
        <ele>508.0</ele>
        <time>2019-08-15T17:39:31Z</time>
      </trkpt>
      <trkpt lat="40.8355710" lon="0.1798670">
        <ele>508.0</ele>
        <time>2019-08-15T17:39:32Z</time>
      </trkpt>
      <trkpt lat="40.8356510" lon="0.1799160">
        <ele>508.0</ele>
        <time>2019-08-15T17:39:34Z</time>
      </trkpt>
      <trkpt lat="40.8356910" lon="0.1799370">
        <ele>508.0</ele>
        <time>2019-08-15T17:39:35Z</time>
      </trkpt>
      <trkpt lat="40.8357310" lon="0.1799580">
        <ele>508.0</ele>
        <time>2019-08-15T17:39:36Z</time>
      </trkpt>
      <trkpt lat="40.8358560" lon="0.1800240">
        <ele>508.0</ele>
        <time>2019-08-15T17:39:39Z</time>
      </trkpt>
      <trkpt lat="40.8358990" lon="0.1800480">
        <ele>507.0</ele>
        <time>2019-08-15T17:39:40Z</time>
      </trkpt>
      <trkpt lat="40.8359410" lon="0.1800780">
        <ele>507.0</ele>
        <time>2019-08-15T17:39:41Z</time>
      </trkpt>
      <trkpt lat="40.8360810" lon="0.1801620">
        <ele>507.0</ele>
        <time>2019-08-15T17:39:44Z</time>
      </trkpt>
      <trkpt lat="40.8361280" lon="0.1801920">
        <ele>507.0</ele>
        <time>2019-08-15T17:39:45Z</time>
      </trkpt>
      <trkpt lat="40.8361730" lon="0.1802240">
        <ele>507.0</ele>
        <time>2019-08-15T17:39:46Z</time>
      </trkpt>
      <trkpt lat="40.8362160" lon="0.1802630">
        <ele>507.0</ele>
        <time>2019-08-15T17:39:47Z</time>
      </trkpt>
      <trkpt lat="40.8362930" lon="0.1803550">
        <ele>507.0</ele>
        <time>2019-08-15T17:39:49Z</time>
      </trkpt>
      <trkpt lat="40.8363290" lon="0.1804010">
        <ele>507.0</ele>
        <time>2019-08-15T17:39:50Z</time>
      </trkpt>
      <trkpt lat="40.8363630" lon="0.1804470">
        <ele>507.0</ele>
        <time>2019-08-15T17:39:51Z</time>
      </trkpt>
      <trkpt lat="40.8363950" lon="0.1804920">
        <ele>507.0</ele>
        <time>2019-08-15T17:39:52Z</time>
      </trkpt>
      <trkpt lat="40.8364530" lon="0.1805840">
        <ele>507.0</ele>
        <time>2019-08-15T17:39:54Z</time>
      </trkpt>
      <trkpt lat="40.8364800" lon="0.1806290">
        <ele>507.0</ele>
        <time>2019-08-15T17:39:55Z</time>
      </trkpt>
      <trkpt lat="40.8365080" lon="0.1806760">
        <ele>507.0</ele>
        <time>2019-08-15T17:39:56Z</time>
      </trkpt>
      <trkpt lat="40.8365370" lon="0.1807230">
        <ele>507.0</ele>
        <time>2019-08-15T17:39:57Z</time>
      </trkpt>
      <trkpt lat="40.8365930" lon="0.1808190">
        <ele>507.0</ele>
        <time>2019-08-15T17:39:59Z</time>
      </trkpt>
      <trkpt lat="40.8366210" lon="0.1808690">
        <ele>508.0</ele>
        <time>2019-08-15T17:40:00Z</time>
      </trkpt>
      <trkpt lat="40.8366500" lon="0.1809170">
        <ele>508.0</ele>
        <time>2019-08-15T17:40:01Z</time>
      </trkpt>
      <trkpt lat="40.8366790" lon="0.1809670">
        <ele>508.0</ele>
        <time>2019-08-15T17:40:02Z</time>
      </trkpt>
      <trkpt lat="40.8367330" lon="0.1810720">
        <ele>508.0</ele>
        <time>2019-08-15T17:40:04Z</time>
      </trkpt>
      <trkpt lat="40.8367620" lon="0.1811220">
        <ele>508.0</ele>
        <time>2019-08-15T17:40:05Z</time>
      </trkpt>
      <trkpt lat="40.8367880" lon="0.1811710">
        <ele>508.0</ele>
        <time>2019-08-15T17:40:06Z</time>
      </trkpt>
      <trkpt lat="40.8368150" lon="0.1812180">
        <ele>508.0</ele>
        <time>2019-08-15T17:40:07Z</time>
      </trkpt>
      <trkpt lat="40.8368630" lon="0.1813060">
        <ele>508.0</ele>
        <time>2019-08-15T17:40:09Z</time>
      </trkpt>
      <trkpt lat="40.8368850" lon="0.1813450">
        <ele>508.0</ele>
        <time>2019-08-15T17:40:10Z</time>
      </trkpt>
      <trkpt lat="40.8369070" lon="0.1813830">
        <ele>508.0</ele>
        <time>2019-08-15T17:40:11Z</time>
      </trkpt>
      <trkpt lat="40.8369270" lon="0.1814210">
        <ele>508.0</ele>
        <time>2019-08-15T17:40:12Z</time>
      </trkpt>
      <trkpt lat="40.8369650" lon="0.1814910">
        <ele>508.0</ele>
        <time>2019-08-15T17:40:14Z</time>
      </trkpt>
      <trkpt lat="40.8369830" lon="0.1815210">
        <ele>508.0</ele>
        <time>2019-08-15T17:40:15Z</time>
      </trkpt>
      <trkpt lat="40.8370020" lon="0.1815500">
        <ele>508.0</ele>
        <time>2019-08-15T17:40:16Z</time>
      </trkpt>
      <trkpt lat="40.8370200" lon="0.1815790">
        <ele>508.0</ele>
        <time>2019-08-15T17:40:17Z</time>
      </trkpt>
      <trkpt lat="40.8370560" lon="0.1816410">
        <ele>508.0</ele>
        <time>2019-08-15T17:40:19Z</time>
      </trkpt>
      <trkpt lat="40.8370750" lon="0.1816720">
        <ele>508.0</ele>
        <time>2019-08-15T17:40:20Z</time>
      </trkpt>
      <trkpt lat="40.8370940" lon="0.1817050">
        <ele>508.0</ele>
        <time>2019-08-15T17:40:21Z</time>
      </trkpt>
      <trkpt lat="40.8371140" lon="0.1817400">
        <ele>508.0</ele>
        <time>2019-08-15T17:40:22Z</time>
      </trkpt>
      <trkpt lat="40.8371540" lon="0.1818110">
        <ele>508.0</ele>
        <time>2019-08-15T17:40:24Z</time>
      </trkpt>
      <trkpt lat="40.8371740" lon="0.1818460">
        <ele>508.0</ele>
        <time>2019-08-15T17:40:25Z</time>
      </trkpt>
      <trkpt lat="40.8371940" lon="0.1818830">
        <ele>508.0</ele>
        <time>2019-08-15T17:40:26Z</time>
      </trkpt>
      <trkpt lat="40.8372130" lon="0.1819220">
        <ele>508.0</ele>
        <time>2019-08-15T17:40:27Z</time>
      </trkpt>
      <trkpt lat="40.8372520" lon="0.1819990">
        <ele>508.0</ele>
        <time>2019-08-15T17:40:29Z</time>
      </trkpt>
      <trkpt lat="40.8372730" lon="0.1820380">
        <ele>508.0</ele>
        <time>2019-08-15T17:40:30Z</time>
      </trkpt>
      <trkpt lat="40.8372950" lon="0.1820780">
        <ele>508.0</ele>
        <time>2019-08-15T17:40:31Z</time>
      </trkpt>
      <trkpt lat="40.8373160" lon="0.1821210">
        <ele>508.0</ele>
        <time>2019-08-15T17:40:32Z</time>
      </trkpt>
      <trkpt lat="40.8373550" lon="0.1822130">
        <ele>508.0</ele>
        <time>2019-08-15T17:40:34Z</time>
      </trkpt>
      <trkpt lat="40.8373730" lon="0.1822580">
        <ele>508.0</ele>
        <time>2019-08-15T17:40:35Z</time>
      </trkpt>
      <trkpt lat="40.8373900" lon="0.1823040">
        <ele>508.0</ele>
        <time>2019-08-15T17:40:36Z</time>
      </trkpt>
      <trkpt lat="40.8374070" lon="0.1823530">
        <ele>508.0</ele>
        <time>2019-08-15T17:40:37Z</time>
      </trkpt>
      <trkpt lat="40.8374420" lon="0.1824520">
        <ele>508.0</ele>
        <time>2019-08-15T17:40:39Z</time>
      </trkpt>
      <trkpt lat="40.8374590" lon="0.1825000">
        <ele>508.0</ele>
        <time>2019-08-15T17:40:40Z</time>
      </trkpt>
      <trkpt lat="40.8374760" lon="0.1825500">
        <ele>508.0</ele>
        <time>2019-08-15T17:40:41Z</time>
      </trkpt>
      <trkpt lat="40.8374920" lon="0.1826000">
        <ele>508.0</ele>
        <time>2019-08-15T17:40:42Z</time>
      </trkpt>
      <trkpt lat="40.8375230" lon="0.1826980">
        <ele>508.0</ele>
        <time>2019-08-15T17:40:44Z</time>
      </trkpt>
      <trkpt lat="40.8375380" lon="0.1827470">
        <ele>508.0</ele>
        <time>2019-08-15T17:40:45Z</time>
      </trkpt>
      <trkpt lat="40.8375530" lon="0.1827970">
        <ele>508.0</ele>
        <time>2019-08-15T17:40:46Z</time>
      </trkpt>
      <trkpt lat="40.8375690" lon="0.1828480">
        <ele>508.0</ele>
        <time>2019-08-15T17:40:47Z</time>
      </trkpt>
      <trkpt lat="40.8376020" lon="0.1829540">
        <ele>508.0</ele>
        <time>2019-08-15T17:40:49Z</time>
      </trkpt>
      <trkpt lat="40.8376160" lon="0.1830070">
        <ele>508.0</ele>
        <time>2019-08-15T17:40:50Z</time>
      </trkpt>
      <trkpt lat="40.8376320" lon="0.1830610">
        <ele>508.0</ele>
        <time>2019-08-15T17:40:51Z</time>
      </trkpt>
      <trkpt lat="40.8376490" lon="0.1831150">
        <ele>508.0</ele>
        <time>2019-08-15T17:40:52Z</time>
      </trkpt>
      <trkpt lat="40.8376820" lon="0.1832250">
        <ele>508.0</ele>
        <time>2019-08-15T17:40:54Z</time>
      </trkpt>
      <trkpt lat="40.8376990" lon="0.1832780">
        <ele>508.0</ele>
        <time>2019-08-15T17:40:55Z</time>
      </trkpt>
      <trkpt lat="40.8377160" lon="0.1833280">
        <ele>508.0</ele>
        <time>2019-08-15T17:40:56Z</time>
      </trkpt>
      <trkpt lat="40.8377340" lon="0.1833800">
        <ele>508.0</ele>
        <time>2019-08-15T17:40:57Z</time>
      </trkpt>
      <trkpt lat="40.8377650" lon="0.1834840">
        <ele>508.0</ele>
        <time>2019-08-15T17:40:59Z</time>
      </trkpt>
      <trkpt lat="40.8377810" lon="0.1835370">
        <ele>508.0</ele>
        <time>2019-08-15T17:41:00Z</time>
      </trkpt>
      <trkpt lat="40.8377970" lon="0.1835910">
        <ele>508.0</ele>
        <time>2019-08-15T17:41:01Z</time>
      </trkpt>
      <trkpt lat="40.8378130" lon="0.1836470">
        <ele>508.0</ele>
        <time>2019-08-15T17:41:02Z</time>
      </trkpt>
      <trkpt lat="40.8378460" lon="0.1837610">
        <ele>508.0</ele>
        <time>2019-08-15T17:41:04Z</time>
      </trkpt>
      <trkpt lat="40.8378640" lon="0.1838170">
        <ele>508.0</ele>
        <time>2019-08-15T17:41:05Z</time>
      </trkpt>
      <trkpt lat="40.8378810" lon="0.1838710">
        <ele>508.0</ele>
        <time>2019-08-15T17:41:06Z</time>
      </trkpt>
      <trkpt lat="40.8379020" lon="0.1839250">
        <ele>508.0</ele>
        <time>2019-08-15T17:41:07Z</time>
      </trkpt>
      <trkpt lat="40.8379400" lon="0.1840310">
        <ele>508.0</ele>
        <time>2019-08-15T17:41:09Z</time>
      </trkpt>
      <trkpt lat="40.8379590" lon="0.1840820">
        <ele>508.0</ele>
        <time>2019-08-15T17:41:10Z</time>
      </trkpt>
      <trkpt lat="40.8379790" lon="0.1841310">
        <ele>508.0</ele>
        <time>2019-08-15T17:41:11Z</time>
      </trkpt>
      <trkpt lat="40.8379990" lon="0.1841810">
        <ele>508.0</ele>
        <time>2019-08-15T17:41:12Z</time>
      </trkpt>
      <trkpt lat="40.8380420" lon="0.1842800">
        <ele>508.0</ele>
        <time>2019-08-15T17:41:14Z</time>
      </trkpt>
      <trkpt lat="40.8380630" lon="0.1843300">
        <ele>508.0</ele>
        <time>2019-08-15T17:41:15Z</time>
      </trkpt>
      <trkpt lat="40.8380850" lon="0.1843810">
        <ele>508.0</ele>
        <time>2019-08-15T17:41:16Z</time>
      </trkpt>
      <trkpt lat="40.8381070" lon="0.1844290">
        <ele>508.0</ele>
        <time>2019-08-15T17:41:17Z</time>
      </trkpt>
      <trkpt lat="40.8381550" lon="0.1845250">
        <ele>508.0</ele>
        <time>2019-08-15T17:41:19Z</time>
      </trkpt>
      <trkpt lat="40.8381780" lon="0.1845710">
        <ele>508.0</ele>
        <time>2019-08-15T17:41:20Z</time>
      </trkpt>
      <trkpt lat="40.8382020" lon="0.1846170">
        <ele>508.0</ele>
        <time>2019-08-15T17:41:21Z</time>
      </trkpt>
      <trkpt lat="40.8382250" lon="0.1846650">
        <ele>508.0</ele>
        <time>2019-08-15T17:41:22Z</time>
      </trkpt>
      <trkpt lat="40.8382720" lon="0.1847640">
        <ele>508.0</ele>
        <time>2019-08-15T17:41:24Z</time>
      </trkpt>
      <trkpt lat="40.8382950" lon="0.1848160">
        <ele>507.0</ele>
        <time>2019-08-15T17:41:25Z</time>
      </trkpt>
      <trkpt lat="40.8383190" lon="0.1848720">
        <ele>507.0</ele>
        <time>2019-08-15T17:41:26Z</time>
      </trkpt>
      <trkpt lat="40.8383450" lon="0.1849290">
        <ele>507.0</ele>
        <time>2019-08-15T17:41:27Z</time>
      </trkpt>
      <trkpt lat="40.8383960" lon="0.1850460">
        <ele>507.0</ele>
        <time>2019-08-15T17:41:29Z</time>
      </trkpt>
      <trkpt lat="40.8384230" lon="0.1851080">
        <ele>507.0</ele>
        <time>2019-08-15T17:41:30Z</time>
      </trkpt>
      <trkpt lat="40.8384490" lon="0.1851720">
        <ele>507.0</ele>
        <time>2019-08-15T17:41:31Z</time>
      </trkpt>
      <trkpt lat="40.8384760" lon="0.1852380">
        <ele>507.0</ele>
        <time>2019-08-15T17:41:32Z</time>
      </trkpt>
      <trkpt lat="40.8385310" lon="0.1853810">
        <ele>506.0</ele>
        <time>2019-08-15T17:41:34Z</time>
      </trkpt>
      <trkpt lat="40.8385580" lon="0.1854500">
        <ele>506.0</ele>
        <time>2019-08-15T17:41:35Z</time>
      </trkpt>
      <trkpt lat="40.8385860" lon="0.1855150">
        <ele>506.0</ele>
        <time>2019-08-15T17:41:36Z</time>
      </trkpt>
      <trkpt lat="40.8386150" lon="0.1855790">
        <ele>506.0</ele>
        <time>2019-08-15T17:41:37Z</time>
      </trkpt>
      <trkpt lat="40.8386800" lon="0.1856910">
        <ele>505.0</ele>
        <time>2019-08-15T17:41:39Z</time>
      </trkpt>
      <trkpt lat="40.8387190" lon="0.1857380">
        <ele>505.0</ele>
        <time>2019-08-15T17:41:40Z</time>
      </trkpt>
      <trkpt lat="40.8387650" lon="0.1857770">
        <ele>505.0</ele>
        <time>2019-08-15T17:41:41Z</time>
      </trkpt>
      <trkpt lat="40.8388160" lon="0.1858020">
        <ele>505.0</ele>
        <time>2019-08-15T17:41:42Z</time>
      </trkpt>
      <trkpt lat="40.8389240" lon="0.1858000">
        <ele>504.0</ele>
        <time>2019-08-15T17:41:44Z</time>
      </trkpt>
      <trkpt lat="40.8389740" lon="0.1857700">
        <ele>504.0</ele>
        <time>2019-08-15T17:41:45Z</time>
      </trkpt>
      <trkpt lat="40.8390160" lon="0.1857220">
        <ele>504.0</ele>
        <time>2019-08-15T17:41:46Z</time>
      </trkpt>
      <trkpt lat="40.8390460" lon="0.1856590">
        <ele>503.0</ele>
        <time>2019-08-15T17:41:47Z</time>
      </trkpt>
      <trkpt lat="40.8390620" lon="0.1855830">
        <ele>503.0</ele>
        <time>2019-08-15T17:41:48Z</time>
      </trkpt>
      <trkpt lat="40.8390700" lon="0.1854970">
        <ele>503.0</ele>
        <time>2019-08-15T17:41:49Z</time>
      </trkpt>
      <trkpt lat="40.8390750" lon="0.1854060">
        <ele>502.0</ele>
        <time>2019-08-15T17:41:50Z</time>
      </trkpt>
      <trkpt lat="40.8390810" lon="0.1853130">
        <ele>502.0</ele>
        <time>2019-08-15T17:41:51Z</time>
      </trkpt>
      <trkpt lat="40.8390890" lon="0.1852140">
        <ele>502.0</ele>
        <time>2019-08-15T17:41:52Z</time>
      </trkpt>
      <trkpt lat="40.8390990" lon="0.1851140">
        <ele>502.0</ele>
        <time>2019-08-15T17:41:53Z</time>
      </trkpt>
      <trkpt lat="40.8391130" lon="0.1850110">
        <ele>501.0</ele>
        <time>2019-08-15T17:41:54Z</time>
      </trkpt>
      <trkpt lat="40.8391340" lon="0.1849080">
        <ele>501.0</ele>
        <time>2019-08-15T17:41:55Z</time>
      </trkpt>
      <trkpt lat="40.8391650" lon="0.1848100">
        <ele>501.0</ele>
        <time>2019-08-15T17:41:56Z</time>
      </trkpt>
      <trkpt lat="40.8392030" lon="0.1847180">
        <ele>500.0</ele>
        <time>2019-08-15T17:41:57Z</time>
      </trkpt>
      <trkpt lat="40.8392450" lon="0.1846280">
        <ele>500.0</ele>
        <time>2019-08-15T17:41:58Z</time>
      </trkpt>
      <trkpt lat="40.8392840" lon="0.1845370">
        <ele>500.0</ele>
        <time>2019-08-15T17:41:59Z</time>
      </trkpt>
      <trkpt lat="40.8393180" lon="0.1844430">
        <ele>500.0</ele>
        <time>2019-08-15T17:42:00Z</time>
      </trkpt>
      <trkpt lat="40.8393440" lon="0.1843460">
        <ele>499.0</ele>
        <time>2019-08-15T17:42:01Z</time>
      </trkpt>
      <trkpt lat="40.8393680" lon="0.1842520">
        <ele>499.0</ele>
        <time>2019-08-15T17:42:02Z</time>
      </trkpt>
      <trkpt lat="40.8393870" lon="0.1841590">
        <ele>499.0</ele>
        <time>2019-08-15T17:42:03Z</time>
      </trkpt>
      <trkpt lat="40.8394040" lon="0.1840670">
        <ele>498.0</ele>
        <time>2019-08-15T17:42:04Z</time>
      </trkpt>
      <trkpt lat="40.8394230" lon="0.1839780">
        <ele>498.0</ele>
        <time>2019-08-15T17:42:05Z</time>
      </trkpt>
      <trkpt lat="40.8394460" lon="0.1838960">
        <ele>498.0</ele>
        <time>2019-08-15T17:42:06Z</time>
      </trkpt>
      <trkpt lat="40.8394670" lon="0.1838180">
        <ele>498.0</ele>
        <time>2019-08-15T17:42:07Z</time>
      </trkpt>
      <trkpt lat="40.8394860" lon="0.1837430">
        <ele>497.0</ele>
        <time>2019-08-15T17:42:08Z</time>
      </trkpt>
      <trkpt lat="40.8395030" lon="0.1836710">
        <ele>497.0</ele>
        <time>2019-08-15T17:42:09Z</time>
      </trkpt>
      <trkpt lat="40.8395170" lon="0.1836030">
        <ele>497.0</ele>
        <time>2019-08-15T17:42:10Z</time>
      </trkpt>
      <trkpt lat="40.8395320" lon="0.1835400">
        <ele>497.0</ele>
        <time>2019-08-15T17:42:11Z</time>
      </trkpt>
      <trkpt lat="40.8395440" lon="0.1834810">
        <ele>496.0</ele>
        <time>2019-08-15T17:42:12Z</time>
      </trkpt>
      <trkpt lat="40.8395560" lon="0.1834210">
        <ele>496.0</ele>
        <time>2019-08-15T17:42:13Z</time>
      </trkpt>
      <trkpt lat="40.8395650" lon="0.1833620">
        <ele>496.0</ele>
        <time>2019-08-15T17:42:14Z</time>
      </trkpt>
      <trkpt lat="40.8395720" lon="0.1833030">
        <ele>496.0</ele>
        <time>2019-08-15T17:42:15Z</time>
      </trkpt>
      <trkpt lat="40.8395790" lon="0.1832430">
        <ele>496.0</ele>
        <time>2019-08-15T17:42:16Z</time>
      </trkpt>
      <trkpt lat="40.8395840" lon="0.1831840">
        <ele>496.0</ele>
        <time>2019-08-15T17:42:17Z</time>
      </trkpt>
      <trkpt lat="40.8395880" lon="0.1831260">
        <ele>495.0</ele>
        <time>2019-08-15T17:42:18Z</time>
      </trkpt>
      <trkpt lat="40.8395910" lon="0.1830670">
        <ele>495.0</ele>
        <time>2019-08-15T17:42:19Z</time>
      </trkpt>
      <trkpt lat="40.8395950" lon="0.1830080">
        <ele>495.0</ele>
        <time>2019-08-15T17:42:20Z</time>
      </trkpt>
      <trkpt lat="40.8396040" lon="0.1828300">
        <ele>495.0</ele>
        <time>2019-08-15T17:42:23Z</time>
      </trkpt>
      <trkpt lat="40.8396110" lon="0.1827720">
        <ele>495.0</ele>
        <time>2019-08-15T17:42:24Z</time>
      </trkpt>
      <trkpt lat="40.8396210" lon="0.1827180">
        <ele>495.0</ele>
        <time>2019-08-15T17:42:25Z</time>
      </trkpt>
      <trkpt lat="40.8396990" lon="0.1825760">
        <ele>495.0</ele>
        <time>2019-08-15T17:42:28Z</time>
      </trkpt>
      <trkpt lat="40.8397370" lon="0.1825480">
        <ele>495.0</ele>
        <time>2019-08-15T17:42:29Z</time>
      </trkpt>
      <trkpt lat="40.8397760" lon="0.1825420">
        <ele>495.0</ele>
        <time>2019-08-15T17:42:30Z</time>
      </trkpt>
      <trkpt lat="40.8398120" lon="0.1825510">
        <ele>495.0</ele>
        <time>2019-08-15T17:42:31Z</time>
      </trkpt>
      <trkpt lat="40.8398510" lon="0.1825660">
        <ele>495.0</ele>
        <time>2019-08-15T17:42:32Z</time>
      </trkpt>
      <trkpt lat="40.8398890" lon="0.1825810">
        <ele>495.0</ele>
        <time>2019-08-15T17:42:33Z</time>
      </trkpt>
      <trkpt lat="40.8399300" lon="0.1825920">
        <ele>495.0</ele>
        <time>2019-08-15T17:42:34Z</time>
      </trkpt>
      <trkpt lat="40.8399720" lon="0.1826020">
        <ele>495.0</ele>
        <time>2019-08-15T17:42:35Z</time>
      </trkpt>
      <trkpt lat="40.8400140" lon="0.1826130">
        <ele>495.0</ele>
        <time>2019-08-15T17:42:36Z</time>
      </trkpt>
      <trkpt lat="40.8400550" lon="0.1826280">
        <ele>495.0</ele>
        <time>2019-08-15T17:42:37Z</time>
      </trkpt>
      <trkpt lat="40.8400970" lon="0.1826420">
        <ele>495.0</ele>
        <time>2019-08-15T17:42:38Z</time>
      </trkpt>
      <trkpt lat="40.8401390" lon="0.1826540">
        <ele>495.0</ele>
        <time>2019-08-15T17:42:39Z</time>
      </trkpt>
      <trkpt lat="40.8401830" lon="0.1826630">
        <ele>495.0</ele>
        <time>2019-08-15T17:42:40Z</time>
      </trkpt>
      <trkpt lat="40.8402250" lon="0.1826660">
        <ele>495.0</ele>
        <time>2019-08-15T17:42:41Z</time>
      </trkpt>
      <trkpt lat="40.8402650" lon="0.1826670">
        <ele>495.0</ele>
        <time>2019-08-15T17:42:42Z</time>
      </trkpt>
      <trkpt lat="40.8403060" lon="0.1826660">
        <ele>495.0</ele>
        <time>2019-08-15T17:42:43Z</time>
      </trkpt>
      <trkpt lat="40.8403460" lon="0.1826640">
        <ele>495.0</ele>
        <time>2019-08-15T17:42:44Z</time>
      </trkpt>
      <trkpt lat="40.8403830" lon="0.1826550">
        <ele>495.0</ele>
        <time>2019-08-15T17:42:45Z</time>
      </trkpt>
      <trkpt lat="40.8404220" lon="0.1826400">
        <ele>495.0</ele>
        <time>2019-08-15T17:42:46Z</time>
      </trkpt>
      <trkpt lat="40.8404600" lon="0.1826220">
        <ele>494.0</ele>
        <time>2019-08-15T17:42:47Z</time>
      </trkpt>
      <trkpt lat="40.8404990" lon="0.1825990">
        <ele>494.0</ele>
        <time>2019-08-15T17:42:48Z</time>
      </trkpt>
      <trkpt lat="40.8405750" lon="0.1825380">
        <ele>494.0</ele>
        <time>2019-08-15T17:42:50Z</time>
      </trkpt>
      <trkpt lat="40.8406220" lon="0.1824860">
        <ele>494.0</ele>
        <time>2019-08-15T17:42:51Z</time>
      </trkpt>
      <trkpt lat="40.8406360" lon="0.1824690">
        <ele>494.0</ele>
        <time>2019-08-15T17:42:52Z</time>
      </trkpt>
      <trkpt lat="40.8406710" lon="0.1824390">
        <ele>495.0</ele>
        <time>2019-08-15T17:42:53Z</time>
      </trkpt>
      <trkpt lat="40.8406950" lon="0.1823830">
        <ele>495.0</ele>
        <time>2019-08-15T17:42:54Z</time>
      </trkpt>
      <trkpt lat="40.8407220" lon="0.1823240">
        <ele>495.0</ele>
        <time>2019-08-15T17:42:55Z</time>
      </trkpt>
      <trkpt lat="40.8407520" lon="0.1821910">
        <ele>495.0</ele>
        <time>2019-08-15T17:42:57Z</time>
      </trkpt>
      <trkpt lat="40.8407750" lon="0.1821620">
        <ele>495.0</ele>
        <time>2019-08-15T17:42:58Z</time>
      </trkpt>
      <trkpt lat="40.8408480" lon="0.1820640">
        <ele>495.0</ele>
        <time>2019-08-15T17:43:01Z</time>
      </trkpt>
      <trkpt lat="40.8408740" lon="0.1820330">
        <ele>495.0</ele>
        <time>2019-08-15T17:43:02Z</time>
      </trkpt>
      <trkpt lat="40.8408980" lon="0.1820040">
        <ele>495.0</ele>
        <time>2019-08-15T17:43:03Z</time>
      </trkpt>
      <trkpt lat="40.8409380" lon="0.1819390">
        <ele>496.0</ele>
        <time>2019-08-15T17:43:05Z</time>
      </trkpt>
      <trkpt lat="40.8409590" lon="0.1819100">
        <ele>496.0</ele>
        <time>2019-08-15T17:43:06Z</time>
      </trkpt>
      <trkpt lat="40.8409770" lon="0.1818790">
        <ele>496.0</ele>
        <time>2019-08-15T17:43:07Z</time>
      </trkpt>
      <trkpt lat="40.8409930" lon="0.1818490">
        <ele>496.0</ele>
        <time>2019-08-15T17:43:08Z</time>
      </trkpt>
      <trkpt lat="40.8410120" lon="0.1818180">
        <ele>496.0</ele>
        <time>2019-08-15T17:43:09Z</time>
      </trkpt>
      <trkpt lat="40.8410320" lon="0.1817890">
        <ele>496.0</ele>
        <time>2019-08-15T17:43:10Z</time>
      </trkpt>
      <trkpt lat="40.8410510" lon="0.1817560">
        <ele>497.0</ele>
        <time>2019-08-15T17:43:11Z</time>
      </trkpt>
      <trkpt lat="40.8410700" lon="0.1817200">
        <ele>497.0</ele>
        <time>2019-08-15T17:43:12Z</time>
      </trkpt>
      <trkpt lat="40.8410890" lon="0.1816870">
        <ele>497.0</ele>
        <time>2019-08-15T17:43:13Z</time>
      </trkpt>
      <trkpt lat="40.8411120" lon="0.1816560">
        <ele>497.0</ele>
        <time>2019-08-15T17:43:14Z</time>
      </trkpt>
      <trkpt lat="40.8411580" lon="0.1815930">
        <ele>497.0</ele>
        <time>2019-08-15T17:43:16Z</time>
      </trkpt>
      <trkpt lat="40.8411830" lon="0.1815640">
        <ele>497.0</ele>
        <time>2019-08-15T17:43:17Z</time>
      </trkpt>
      <trkpt lat="40.8412050" lon="0.1815290">
        <ele>497.0</ele>
        <time>2019-08-15T17:43:18Z</time>
      </trkpt>
      <trkpt lat="40.8412710" lon="0.1814140">
        <ele>497.0</ele>
        <time>2019-08-15T17:43:21Z</time>
      </trkpt>
      <trkpt lat="40.8412950" lon="0.1813790">
        <ele>498.0</ele>
        <time>2019-08-15T17:43:22Z</time>
      </trkpt>
      <trkpt lat="40.8413190" lon="0.1813350">
        <ele>498.0</ele>
        <time>2019-08-15T17:43:23Z</time>
      </trkpt>
      <trkpt lat="40.8413760" lon="0.1812030">
        <ele>498.0</ele>
        <time>2019-08-15T17:43:26Z</time>
      </trkpt>
      <trkpt lat="40.8413910" lon="0.1811610">
        <ele>498.0</ele>
        <time>2019-08-15T17:43:27Z</time>
      </trkpt>
      <trkpt lat="40.8414070" lon="0.1811210">
        <ele>498.0</ele>
        <time>2019-08-15T17:43:28Z</time>
      </trkpt>
      <trkpt lat="40.8414230" lon="0.1810790">
        <ele>498.0</ele>
        <time>2019-08-15T17:43:29Z</time>
      </trkpt>
      <trkpt lat="40.8414460" lon="0.1809800">
        <ele>498.0</ele>
        <time>2019-08-15T17:43:31Z</time>
      </trkpt>
      <trkpt lat="40.8414540" lon="0.1809310">
        <ele>498.0</ele>
        <time>2019-08-15T17:43:32Z</time>
      </trkpt>
      <trkpt lat="40.8414630" lon="0.1808800">
        <ele>498.0</ele>
        <time>2019-08-15T17:43:33Z</time>
      </trkpt>
      <trkpt lat="40.8414740" lon="0.1808280">
        <ele>498.0</ele>
        <time>2019-08-15T17:43:34Z</time>
      </trkpt>
      <trkpt lat="40.8414890" lon="0.1807260">
        <ele>498.0</ele>
        <time>2019-08-15T17:43:36Z</time>
      </trkpt>
      <trkpt lat="40.8414960" lon="0.1806770">
        <ele>498.0</ele>
        <time>2019-08-15T17:43:37Z</time>
      </trkpt>
      <trkpt lat="40.8415030" lon="0.1806310">
        <ele>498.0</ele>
        <time>2019-08-15T17:43:38Z</time>
      </trkpt>
      <trkpt lat="40.8415100" lon="0.1805860">
        <ele>498.0</ele>
        <time>2019-08-15T17:43:39Z</time>
      </trkpt>
      <trkpt lat="40.8415240" lon="0.1804970">
        <ele>498.0</ele>
        <time>2019-08-15T17:43:41Z</time>
      </trkpt>
      <trkpt lat="40.8415290" lon="0.1804500">
        <ele>498.0</ele>
        <time>2019-08-15T17:43:42Z</time>
      </trkpt>
      <trkpt lat="40.8415350" lon="0.1804040">
        <ele>498.0</ele>
        <time>2019-08-15T17:43:43Z</time>
      </trkpt>
      <trkpt lat="40.8415410" lon="0.1803590">
        <ele>498.0</ele>
        <time>2019-08-15T17:43:44Z</time>
      </trkpt>
      <trkpt lat="40.8415540" lon="0.1802660">
        <ele>498.0</ele>
        <time>2019-08-15T17:43:46Z</time>
      </trkpt>
      <trkpt lat="40.8415610" lon="0.1802170">
        <ele>498.0</ele>
        <time>2019-08-15T17:43:47Z</time>
      </trkpt>
      <trkpt lat="40.8415690" lon="0.1801660">
        <ele>498.0</ele>
        <time>2019-08-15T17:43:48Z</time>
      </trkpt>
      <trkpt lat="40.8415740" lon="0.1801160">
        <ele>498.0</ele>
        <time>2019-08-15T17:43:49Z</time>
      </trkpt>
      <trkpt lat="40.8415890" lon="0.1800160">
        <ele>498.0</ele>
        <time>2019-08-15T17:43:51Z</time>
      </trkpt>
      <trkpt lat="40.8415950" lon="0.1799620">
        <ele>498.0</ele>
        <time>2019-08-15T17:43:52Z</time>
      </trkpt>
      <trkpt lat="40.8416020" lon="0.1799090">
        <ele>498.0</ele>
        <time>2019-08-15T17:43:53Z</time>
      </trkpt>
      <trkpt lat="40.8416070" lon="0.1798590">
        <ele>498.0</ele>
        <time>2019-08-15T17:43:54Z</time>
      </trkpt>
      <trkpt lat="40.8416210" lon="0.1797560">
        <ele>498.0</ele>
        <time>2019-08-15T17:43:56Z</time>
      </trkpt>
      <trkpt lat="40.8416290" lon="0.1797000">
        <ele>498.0</ele>
        <time>2019-08-15T17:43:57Z</time>
      </trkpt>
      <trkpt lat="40.8416360" lon="0.1796490">
        <ele>498.0</ele>
        <time>2019-08-15T17:43:58Z</time>
      </trkpt>
      <trkpt lat="40.8416410" lon="0.1795970">
        <ele>498.0</ele>
        <time>2019-08-15T17:43:59Z</time>
      </trkpt>
      <trkpt lat="40.8416470" lon="0.1794930">
        <ele>498.0</ele>
        <time>2019-08-15T17:44:01Z</time>
      </trkpt>
      <trkpt lat="40.8416460" lon="0.1794440">
        <ele>498.0</ele>
        <time>2019-08-15T17:44:02Z</time>
      </trkpt>
      <trkpt lat="40.8416410" lon="0.1793910">
        <ele>498.0</ele>
        <time>2019-08-15T17:44:03Z</time>
      </trkpt>
      <trkpt lat="40.8416350" lon="0.1793380">
        <ele>499.0</ele>
        <time>2019-08-15T17:44:04Z</time>
      </trkpt>
      <trkpt lat="40.8416140" lon="0.1792350">
        <ele>499.0</ele>
        <time>2019-08-15T17:44:06Z</time>
      </trkpt>
      <trkpt lat="40.8416030" lon="0.1791820">
        <ele>499.0</ele>
        <time>2019-08-15T17:44:07Z</time>
      </trkpt>
      <trkpt lat="40.8415900" lon="0.1791340">
        <ele>499.0</ele>
        <time>2019-08-15T17:44:08Z</time>
      </trkpt>
      <trkpt lat="40.8415720" lon="0.1790890">
        <ele>499.0</ele>
        <time>2019-08-15T17:44:09Z</time>
      </trkpt>
      <trkpt lat="40.8415350" lon="0.1789980">
        <ele>499.0</ele>
        <time>2019-08-15T17:44:11Z</time>
      </trkpt>
      <trkpt lat="40.8415170" lon="0.1789500">
        <ele>499.0</ele>
        <time>2019-08-15T17:44:12Z</time>
      </trkpt>
      <trkpt lat="40.8414980" lon="0.1789020">
        <ele>499.0</ele>
        <time>2019-08-15T17:44:13Z</time>
      </trkpt>
      <trkpt lat="40.8414800" lon="0.1788510">
        <ele>499.0</ele>
        <time>2019-08-15T17:44:14Z</time>
      </trkpt>
      <trkpt lat="40.8414440" lon="0.1787510">
        <ele>499.0</ele>
        <time>2019-08-15T17:44:16Z</time>
      </trkpt>
      <trkpt lat="40.8414200" lon="0.1787080">
        <ele>499.0</ele>
        <time>2019-08-15T17:44:17Z</time>
      </trkpt>
      <trkpt lat="40.8413920" lon="0.1786700">
        <ele>499.0</ele>
        <time>2019-08-15T17:44:18Z</time>
      </trkpt>
      <trkpt lat="40.8413650" lon="0.1786280">
        <ele>499.0</ele>
        <time>2019-08-15T17:44:19Z</time>
      </trkpt>
      <trkpt lat="40.8413380" lon="0.1785840">
        <ele>499.0</ele>
        <time>2019-08-15T17:44:20Z</time>
      </trkpt>
      <trkpt lat="40.8413120" lon="0.1785410">
        <ele>499.0</ele>
        <time>2019-08-15T17:44:21Z</time>
      </trkpt>
      <trkpt lat="40.8412850" lon="0.1785000">
        <ele>499.0</ele>
        <time>2019-08-15T17:44:22Z</time>
      </trkpt>
      <trkpt lat="40.8412570" lon="0.1784610">
        <ele>499.0</ele>
        <time>2019-08-15T17:44:23Z</time>
      </trkpt>
      <trkpt lat="40.8412290" lon="0.1784260">
        <ele>499.0</ele>
        <time>2019-08-15T17:44:24Z</time>
      </trkpt>
      <trkpt lat="40.8412060" lon="0.1783940">
        <ele>499.0</ele>
        <time>2019-08-15T17:44:25Z</time>
      </trkpt>
      <trkpt lat="40.8411850" lon="0.1783600">
        <ele>499.0</ele>
        <time>2019-08-15T17:44:26Z</time>
      </trkpt>
      <trkpt lat="40.8411490" lon="0.1782900">
        <ele>499.0</ele>
        <time>2019-08-15T17:44:28Z</time>
      </trkpt>
      <trkpt lat="40.8411370" lon="0.1782540">
        <ele>499.0</ele>
        <time>2019-08-15T17:44:29Z</time>
      </trkpt>
      <trkpt lat="40.8411260" lon="0.1782170">
        <ele>499.0</ele>
        <time>2019-08-15T17:44:30Z</time>
      </trkpt>
      <trkpt lat="40.8410960" lon="0.1781400">
        <ele>499.0</ele>
        <time>2019-08-15T17:44:33Z</time>
      </trkpt>
      <trkpt lat="40.8410950" lon="0.1781390">
        <ele>499.0</ele>
        <time>2019-08-15T17:44:35Z</time>
      </trkpt>
    </trkseg>
  </trk>
</gpx>
